<?xml version="1.0" encoding="UTF-8" standalone="no" ?>
<gpx xmlns="http://www.topografix.com/GPX/1/1" xmlns:xsi="http://www.w3.org/2001/XMLSchema-instance" xsi:schemaLocation="http://www.topografix.com/GPX/1/1 http://www.topografix.com/GPX/1/1/gpx.xsd" version="1.1" creator="VisuGPX - https://www.visugpx.com">
  <metadata>
    <name>Bruxelles-Kaliningrad 24: Borcz -&amp;gt;  Sztutowo</name>
  </metadata>
  <trk>
    <name><![CDATA[Day 24: Borcz ->  Sztutowo]]></name>
    <extensions>
      <line xmlns="http://www.topografix.com/GPX/gpx_style/0/2">
        <color>0000FF</color>
        <width>4</width>
      </line>
    </extensions>
    <trkseg>
      <trkpt lat="54.2735" lon="18.29391">
        <ele>232.879057</ele>
        <time>2024-08-04T07:09:20.778Z</time>
      </trkpt>
      <trkpt lat="54.27341" lon="18.29408">
        <ele>232.879057</ele>
        <time>2024-08-04T07:20:15.959Z</time>
      </trkpt>
      <trkpt lat="54.2734" lon="18.29392">
        <ele>232.879057</ele>
        <time>2024-08-04T07:20:22.958Z</time>
      </trkpt>
      <trkpt lat="54.27339" lon="18.29377">
        <ele>232.879057</ele>
        <time>2024-08-04T07:20:27.951Z</time>
      </trkpt>
      <trkpt lat="54.2734" lon="18.29361">
        <ele>232.879057</ele>
        <time>2024-08-04T07:20:32.954Z</time>
      </trkpt>
      <trkpt lat="54.27338" lon="18.29346">
        <ele>232.879057</ele>
        <time>2024-08-04T07:20:36.972Z</time>
      </trkpt>
      <trkpt lat="54.27338" lon="18.29328">
        <ele>232.879057</ele>
        <time>2024-08-04T07:20:40.961Z</time>
      </trkpt>
      <trkpt lat="54.27339" lon="18.29309">
        <ele>232.879057</ele>
        <time>2024-08-04T07:20:45.950Z</time>
      </trkpt>
      <trkpt lat="54.27336" lon="18.29292">
        <ele>232.879057</ele>
        <time>2024-08-04T07:20:51.950Z</time>
      </trkpt>
      <trkpt lat="54.27332" lon="18.29274">
        <ele>232.802786</ele>
        <time>2024-08-04T07:20:56.946Z</time>
      </trkpt>
      <trkpt lat="54.27326" lon="18.29261">
        <ele>232.570973</ele>
        <time>2024-08-04T07:20:59.939Z</time>
      </trkpt>
      <trkpt lat="54.27318" lon="18.29248">
        <ele>232.308229</ele>
        <time>2024-08-04T07:21:02.962Z</time>
      </trkpt>
      <trkpt lat="54.2731" lon="18.29235">
        <ele>232.041447</ele>
        <time>2024-08-04T07:21:05.954Z</time>
      </trkpt>
      <trkpt lat="54.27303" lon="18.29221">
        <ele>231.765469</ele>
        <time>2024-08-04T07:21:08.956Z</time>
      </trkpt>
      <trkpt lat="54.27295" lon="18.29205">
        <ele>231.482032</ele>
        <time>2024-08-04T07:21:11.999Z</time>
      </trkpt>
      <trkpt lat="54.27289" lon="18.2919">
        <ele>231.218016</ele>
        <time>2024-08-04T07:21:14.950Z</time>
      </trkpt>
      <trkpt lat="54.2728" lon="18.29174">
        <ele>230.918179</ele>
        <time>2024-08-04T07:21:17.953Z</time>
      </trkpt>
      <trkpt lat="54.27274" lon="18.2916">
        <ele>230.663284</ele>
        <time>2024-08-04T07:21:20.975Z</time>
      </trkpt>
      <trkpt lat="54.27267" lon="18.29144">
        <ele>230.37889</ele>
        <time>2024-08-04T07:21:23.972Z</time>
      </trkpt>
      <trkpt lat="54.27262" lon="18.29131">
        <ele>230.157978</ele>
        <time>2024-08-04T07:21:26.949Z</time>
      </trkpt>
      <trkpt lat="54.27255" lon="18.29119">
        <ele>229.912511</ele>
        <time>2024-08-04T07:21:31.942Z</time>
      </trkpt>
      <trkpt lat="54.27246" lon="18.29126">
        <ele>229.678906</ele>
        <time>2024-08-04T07:21:36.963Z</time>
      </trkpt>
      <trkpt lat="54.2724" lon="18.29139">
        <ele>229.446904</ele>
        <time>2024-08-04T07:21:41.960Z</time>
      </trkpt>
      <trkpt lat="54.27234" lon="18.2915">
        <ele>229.227684</ele>
        <time>2024-08-04T07:21:46.951Z</time>
      </trkpt>
      <trkpt lat="54.27227" lon="18.2916">
        <ele>229.008664</ele>
        <time>2024-08-04T07:21:51.981Z</time>
      </trkpt>
      <trkpt lat="54.27219" lon="18.29168">
        <ele>228.78653</ele>
        <time>2024-08-04T07:21:57.934Z</time>
      </trkpt>
      <trkpt lat="54.27212" lon="18.29178">
        <ele>228.563137</ele>
        <time>2024-08-04T07:22:03.943Z</time>
      </trkpt>
      <trkpt lat="54.27203" lon="18.29186">
        <ele>228.614092</ele>
        <time>2024-08-04T07:23:17.944Z</time>
      </trkpt>
      <trkpt lat="54.27195" lon="18.29195">
        <ele>228.711168</ele>
        <time>2024-08-04T07:23:24.950Z</time>
      </trkpt>
      <trkpt lat="54.27189" lon="18.29209">
        <ele>228.813857</ele>
        <time>2024-08-04T07:23:33.942Z</time>
      </trkpt>
      <trkpt lat="54.27185" lon="18.29223">
        <ele>228.910581</ele>
        <time>2024-08-04T07:23:41.950Z</time>
      </trkpt>
      <trkpt lat="54.27185" lon="18.29241">
        <ele>229.014989</ele>
        <time>2024-08-04T07:24:00.944Z</time>
      </trkpt>
      <trkpt lat="54.27186" lon="18.29257">
        <ele>229.113973</ele>
        <time>2024-08-04T07:24:05.938Z</time>
      </trkpt>
      <trkpt lat="54.27189" lon="18.29273">
        <ele>229.213153</ele>
        <time>2024-08-04T07:24:08.957Z</time>
      </trkpt>
      <trkpt lat="54.27193" lon="18.2929">
        <ele>229.327494</ele>
        <time>2024-08-04T07:24:11.974Z</time>
      </trkpt>
      <trkpt lat="54.27196" lon="18.29309">
        <ele>229.443189</ele>
        <time>2024-08-04T07:24:14.962Z</time>
      </trkpt>
      <trkpt lat="54.27199" lon="18.29327">
        <ele>229.554521</ele>
        <time>2024-08-04T07:24:17.963Z</time>
      </trkpt>
      <trkpt lat="54.27202" lon="18.29344">
        <ele>229.663309</ele>
        <time>2024-08-04T07:24:20.947Z</time>
      </trkpt>
      <trkpt lat="54.27205" lon="18.29361">
        <ele>229.769523</ele>
        <time>2024-08-04T07:24:23.932Z</time>
      </trkpt>
      <trkpt lat="54.27208" lon="18.29379">
        <ele>229.885775</ele>
        <time>2024-08-04T07:24:26.959Z</time>
      </trkpt>
      <trkpt lat="54.27211" lon="18.29395">
        <ele>229.98149</ele>
        <time>2024-08-04T07:24:28.956Z</time>
      </trkpt>
      <trkpt lat="54.27214" lon="18.29414">
        <ele>230.104125</ele>
        <time>2024-08-04T07:24:30.968Z</time>
      </trkpt>
      <trkpt lat="54.27219" lon="18.29435">
        <ele>230.240708</ele>
        <time>2024-08-04T07:24:32.974Z</time>
      </trkpt>
      <trkpt lat="54.27223" lon="18.29459">
        <ele>230.392685</ele>
        <time>2024-08-04T07:24:34.956Z</time>
      </trkpt>
      <trkpt lat="54.27225" lon="18.29481">
        <ele>230.567352</ele>
        <time>2024-08-04T07:24:36.953Z</time>
      </trkpt>
      <trkpt lat="54.27226" lon="18.29503">
        <ele>230.741289</ele>
        <time>2024-08-04T07:24:38.965Z</time>
      </trkpt>
      <trkpt lat="54.27226" lon="18.29523">
        <ele>230.897613</ele>
        <time>2024-08-04T07:24:40.969Z</time>
      </trkpt>
      <trkpt lat="54.27228" lon="18.2954">
        <ele>231.038932</ele>
        <time>2024-08-04T07:24:42.947Z</time>
      </trkpt>
      <trkpt lat="54.27228" lon="18.29557">
        <ele>231.169651</ele>
        <time>2024-08-04T07:24:44.952Z</time>
      </trkpt>
      <trkpt lat="54.2723" lon="18.29578">
        <ele>231.33842</ele>
        <time>2024-08-04T07:24:47.953Z</time>
      </trkpt>
      <trkpt lat="54.27232" lon="18.29597">
        <ele>231.489399</ele>
        <time>2024-08-04T07:24:50.955Z</time>
      </trkpt>
      <trkpt lat="54.27233" lon="18.29615">
        <ele>231.630419</ele>
        <time>2024-08-04T07:24:53.951Z</time>
      </trkpt>
      <trkpt lat="54.27234" lon="18.29633">
        <ele>231.775182</ele>
        <time>2024-08-04T07:24:56.956Z</time>
      </trkpt>
      <trkpt lat="54.27235" lon="18.29652">
        <ele>231.922976</ele>
        <time>2024-08-04T07:24:59.955Z</time>
      </trkpt>
      <trkpt lat="54.27236" lon="18.2967">
        <ele>232.069792</ele>
        <time>2024-08-04T07:25:02.963Z</time>
      </trkpt>
      <trkpt lat="54.27237" lon="18.29688">
        <ele>232.213771</ele>
        <time>2024-08-04T07:25:05.966Z</time>
      </trkpt>
      <trkpt lat="54.27239" lon="18.29707">
        <ele>232.363866</ele>
        <time>2024-08-04T07:25:08.957Z</time>
      </trkpt>
      <trkpt lat="54.27241" lon="18.29726">
        <ele>232.519172</ele>
        <time>2024-08-04T07:25:11.958Z</time>
      </trkpt>
      <trkpt lat="54.27243" lon="18.29745">
        <ele>232.665069</ele>
        <time>2024-08-04T07:25:14.954Z</time>
      </trkpt>
      <trkpt lat="54.27244" lon="18.29764">
        <ele>232.809477</ele>
        <time>2024-08-04T07:25:17.954Z</time>
      </trkpt>
      <trkpt lat="54.27245" lon="18.29784">
        <ele>232.666685</ele>
        <time>2024-08-04T07:25:20.956Z</time>
      </trkpt>
      <trkpt lat="54.27248" lon="18.29805">
        <ele>232.516031</ele>
        <time>2024-08-04T07:25:23.955Z</time>
      </trkpt>
      <trkpt lat="54.27252" lon="18.29826">
        <ele>232.363316</ele>
        <time>2024-08-04T07:25:26.977Z</time>
      </trkpt>
      <trkpt lat="54.27259" lon="18.29842">
        <ele>232.222008</ele>
        <time>2024-08-04T07:25:29.958Z</time>
      </trkpt>
      <trkpt lat="54.27268" lon="18.2985">
        <ele>232.101519</ele>
        <time>2024-08-04T07:25:32.937Z</time>
      </trkpt>
      <trkpt lat="54.27273" lon="18.29866">
        <ele>231.97269</ele>
        <time>2024-08-04T07:25:36.965Z</time>
      </trkpt>
      <trkpt lat="54.27274" lon="18.29883">
        <ele>231.852199</ele>
        <time>2024-08-04T07:25:40.951Z</time>
      </trkpt>
      <trkpt lat="54.27274" lon="18.299">
        <ele>231.734533</ele>
        <time>2024-08-04T07:25:44.954Z</time>
      </trkpt>
      <trkpt lat="54.27274" lon="18.29916">
        <ele>231.624466</ele>
        <time>2024-08-04T07:25:48.956Z</time>
      </trkpt>
      <trkpt lat="54.27275" lon="18.29931">
        <ele>231.514883</ele>
        <time>2024-08-04T07:25:52.960Z</time>
      </trkpt>
      <trkpt lat="54.27275" lon="18.29949">
        <ele>231.392726</ele>
        <time>2024-08-04T07:25:56.950Z</time>
      </trkpt>
      <trkpt lat="54.27277" lon="18.29965">
        <ele>231.275947</ele>
        <time>2024-08-04T07:26:00.959Z</time>
      </trkpt>
      <trkpt lat="54.2728" lon="18.29982">
        <ele>231.153582</ele>
        <time>2024-08-04T07:26:04.941Z</time>
      </trkpt>
      <trkpt lat="54.27282" lon="18.29998">
        <ele>231.040592</ele>
        <time>2024-08-04T07:26:08.951Z</time>
      </trkpt>
      <trkpt lat="54.27284" lon="18.30015">
        <ele>230.917689</ele>
        <time>2024-08-04T07:26:12.953Z</time>
      </trkpt>
      <trkpt lat="54.27286" lon="18.30033">
        <ele>230.787753</ele>
        <time>2024-08-04T07:26:16.962Z</time>
      </trkpt>
      <trkpt lat="54.27289" lon="18.30052">
        <ele>230.663161</ele>
        <time>2024-08-04T07:26:20.965Z</time>
      </trkpt>
      <trkpt lat="54.27293" lon="18.30068">
        <ele>230.951658</ele>
        <time>2024-08-04T07:26:23.948Z</time>
      </trkpt>
      <trkpt lat="54.27298" lon="18.30085">
        <ele>231.272941</ele>
        <time>2024-08-04T07:26:26.950Z</time>
      </trkpt>
      <trkpt lat="54.27301" lon="18.30104">
        <ele>231.588249</ele>
        <time>2024-08-04T07:26:29.945Z</time>
      </trkpt>
      <trkpt lat="54.27304" lon="18.30119">
        <ele>231.856502</ele>
        <time>2024-08-04T07:26:32.963Z</time>
      </trkpt>
      <trkpt lat="54.27306" lon="18.30135">
        <ele>232.126343</ele>
        <time>2024-08-04T07:26:35.966Z</time>
      </trkpt>
      <trkpt lat="54.27309" lon="18.30151">
        <ele>232.410578</ele>
        <time>2024-08-04T07:26:38.949Z</time>
      </trkpt>
      <trkpt lat="54.27314" lon="18.30169">
        <ele>232.744594</ele>
        <time>2024-08-04T07:26:42.958Z</time>
      </trkpt>
      <trkpt lat="54.27317" lon="18.30186">
        <ele>233.037167</ele>
        <time>2024-08-04T07:26:46.950Z</time>
      </trkpt>
      <trkpt lat="54.27321" lon="18.30203">
        <ele>233.338847</ele>
        <time>2024-08-04T07:26:50.953Z</time>
      </trkpt>
      <trkpt lat="54.27325" lon="18.3022">
        <ele>233.645214</ele>
        <time>2024-08-04T07:26:54.955Z</time>
      </trkpt>
      <trkpt lat="54.27331" lon="18.30237">
        <ele>233.971987</ele>
        <time>2024-08-04T07:26:58.954Z</time>
      </trkpt>
      <trkpt lat="54.27336" lon="18.30255">
        <ele>234.305252</ele>
        <time>2024-08-04T07:27:02.959Z</time>
      </trkpt>
      <trkpt lat="54.27342" lon="18.30271">
        <ele>234.624132</ele>
        <time>2024-08-04T07:27:06.957Z</time>
      </trkpt>
      <trkpt lat="54.27349" lon="18.30287">
        <ele>234.962289</ele>
        <time>2024-08-04T07:27:10.969Z</time>
      </trkpt>
      <trkpt lat="54.27358" lon="18.30301">
        <ele>235.30139</ele>
        <time>2024-08-04T07:27:14.956Z</time>
      </trkpt>
      <trkpt lat="54.27367" lon="18.30313">
        <ele>235.630065</ele>
        <time>2024-08-04T07:27:18.959Z</time>
      </trkpt>
      <trkpt lat="54.27376" lon="18.30324">
        <ele>235.815844</ele>
        <time>2024-08-04T07:27:22.953Z</time>
      </trkpt>
      <trkpt lat="54.27385" lon="18.30335">
        <ele>235.882696</ele>
        <time>2024-08-04T07:27:26.966Z</time>
      </trkpt>
      <trkpt lat="54.27393" lon="18.30348">
        <ele>235.950689</ele>
        <time>2024-08-04T07:27:30.963Z</time>
      </trkpt>
      <trkpt lat="54.27401" lon="18.3036">
        <ele>236.017966</ele>
        <time>2024-08-04T07:27:34.957Z</time>
      </trkpt>
      <trkpt lat="54.2741" lon="18.30371">
        <ele>236.086474</ele>
        <time>2024-08-04T07:27:38.986Z</time>
      </trkpt>
      <trkpt lat="54.27418" lon="18.30383">
        <ele>236.152569</ele>
        <time>2024-08-04T07:27:42.954Z</time>
      </trkpt>
      <trkpt lat="54.27426" lon="18.30395">
        <ele>236.218425</ele>
        <time>2024-08-04T07:27:46.975Z</time>
      </trkpt>
      <trkpt lat="54.27435" lon="18.30408">
        <ele>236.290443</ele>
        <time>2024-08-04T07:27:50.955Z</time>
      </trkpt>
      <trkpt lat="54.27442" lon="18.30418">
        <ele>236.348014</ele>
        <time>2024-08-04T07:27:53.959Z</time>
      </trkpt>
      <trkpt lat="54.27451" lon="18.30429">
        <ele>236.419543</ele>
        <time>2024-08-04T07:27:57.951Z</time>
      </trkpt>
      <trkpt lat="54.2746" lon="18.30441">
        <ele>236.490085</ele>
        <time>2024-08-04T07:28:01.979Z</time>
      </trkpt>
      <trkpt lat="54.27469" lon="18.30451">
        <ele>236.557495</ele>
        <time>2024-08-04T07:28:05.956Z</time>
      </trkpt>
      <trkpt lat="54.27477" lon="18.30465">
        <ele>236.62685</ele>
        <time>2024-08-04T07:28:09.940Z</time>
      </trkpt>
      <trkpt lat="54.27482" lon="18.30482">
        <ele>236.697108</ele>
        <time>2024-08-04T07:28:13.962Z</time>
      </trkpt>
      <trkpt lat="54.27485" lon="18.30499">
        <ele>236.760408</ele>
        <time>2024-08-04T07:28:17.955Z</time>
      </trkpt>
      <trkpt lat="54.27488" lon="18.30516">
        <ele>236.825114</ele>
        <time>2024-08-04T07:28:21.943Z</time>
      </trkpt>
      <trkpt lat="54.27491" lon="18.30533">
        <ele>236.891796</ele>
        <time>2024-08-04T07:28:25.966Z</time>
      </trkpt>
      <trkpt lat="54.27494" lon="18.30549">
        <ele>236.866894</ele>
        <time>2024-08-04T07:28:29.958Z</time>
      </trkpt>
      <trkpt lat="54.27498" lon="18.30565">
        <ele>236.826963</ele>
        <time>2024-08-04T07:28:33.971Z</time>
      </trkpt>
      <trkpt lat="54.27501" lon="18.30583">
        <ele>236.78325</ele>
        <time>2024-08-04T07:28:38.964Z</time>
      </trkpt>
      <trkpt lat="54.27503" lon="18.30599">
        <ele>236.74492</ele>
        <time>2024-08-04T07:28:42.978Z</time>
      </trkpt>
      <trkpt lat="54.27505" lon="18.30615">
        <ele>236.707184</ele>
        <time>2024-08-04T07:28:46.957Z</time>
      </trkpt>
      <trkpt lat="54.27506" lon="18.3063">
        <ele>236.670948</ele>
        <time>2024-08-04T07:28:50.950Z</time>
      </trkpt>
      <trkpt lat="54.27509" lon="18.30649">
        <ele>236.627584</ele>
        <time>2024-08-04T07:28:54.946Z</time>
      </trkpt>
      <trkpt lat="54.27509" lon="18.30669">
        <ele>236.579551</ele>
        <time>2024-08-04T07:28:58.961Z</time>
      </trkpt>
      <trkpt lat="54.2751" lon="18.30689">
        <ele>236.53388</ele>
        <time>2024-08-04T07:29:02.937Z</time>
      </trkpt>
      <trkpt lat="54.27512" lon="18.30707">
        <ele>236.490793</ele>
        <time>2024-08-04T07:29:06.954Z</time>
      </trkpt>
      <trkpt lat="54.27515" lon="18.30725">
        <ele>236.447649</ele>
        <time>2024-08-04T07:29:10.955Z</time>
      </trkpt>
      <trkpt lat="54.27517" lon="18.30744">
        <ele>236.402769</ele>
        <time>2024-08-04T07:29:14.952Z</time>
      </trkpt>
      <trkpt lat="54.2752" lon="18.30762">
        <ele>236.358277</ele>
        <time>2024-08-04T07:29:18.961Z</time>
      </trkpt>
      <trkpt lat="54.27524" lon="18.30778">
        <ele>236.318488</ele>
        <time>2024-08-04T07:29:22.963Z</time>
      </trkpt>
      <trkpt lat="54.27529" lon="18.30791">
        <ele>236.281887</ele>
        <time>2024-08-04T07:29:26.961Z</time>
      </trkpt>
      <trkpt lat="54.27533" lon="18.30806">
        <ele>236.242614</ele>
        <time>2024-08-04T07:29:31.957Z</time>
      </trkpt>
      <trkpt lat="54.27538" lon="18.3082">
        <ele>236.204757</ele>
        <time>2024-08-04T07:29:35.944Z</time>
      </trkpt>
      <trkpt lat="54.27544" lon="18.30833">
        <ele>236.247789</ele>
        <time>2024-08-04T07:29:39.962Z</time>
      </trkpt>
      <trkpt lat="54.2755" lon="18.30845">
        <ele>236.409438</ele>
        <time>2024-08-04T07:29:43.958Z</time>
      </trkpt>
      <trkpt lat="54.27556" lon="18.3086">
        <ele>236.586776</ele>
        <time>2024-08-04T07:29:47.957Z</time>
      </trkpt>
      <trkpt lat="54.27557" lon="18.30878">
        <ele>236.763374</ele>
        <time>2024-08-04T07:29:51.956Z</time>
      </trkpt>
      <trkpt lat="54.27557" lon="18.30895">
        <ele>236.926384</ele>
        <time>2024-08-04T07:29:55.948Z</time>
      </trkpt>
      <trkpt lat="54.27554" lon="18.30912">
        <ele>237.10407</ele>
        <time>2024-08-04T07:29:59.954Z</time>
      </trkpt>
      <trkpt lat="54.27551" lon="18.30927">
        <ele>237.263357</ele>
        <time>2024-08-04T07:30:15.938Z</time>
      </trkpt>
      <trkpt lat="54.27544" lon="18.30952">
        <ele>237.528494</ele>
        <time>2024-08-04T07:30:45.952Z</time>
      </trkpt>
      <trkpt lat="54.27543" lon="18.30967">
        <ele>237.681905</ele>
        <time>2024-08-04T07:31:07.946Z</time>
      </trkpt>
      <trkpt lat="54.27546" lon="18.30982">
        <ele>237.836546</ele>
        <time>2024-08-04T07:31:35.947Z</time>
      </trkpt>
      <trkpt lat="54.27546" lon="18.30999">
        <ele>237.998472</ele>
        <time>2024-08-04T07:31:44.959Z</time>
      </trkpt>
      <trkpt lat="54.27548" lon="18.31014">
        <ele>238.150645</ele>
        <time>2024-08-04T07:31:54.963Z</time>
      </trkpt>
      <trkpt lat="54.27547" lon="18.31031">
        <ele>238.315694</ele>
        <time>2024-08-04T07:33:07.947Z</time>
      </trkpt>
      <trkpt lat="54.27547" lon="18.31047">
        <ele>238.474961</ele>
        <time>2024-08-04T07:33:16.944Z</time>
      </trkpt>
      <trkpt lat="54.27546" lon="18.31062">
        <ele>238.626657</ele>
        <time>2024-08-04T07:33:22.960Z</time>
      </trkpt>
      <trkpt lat="54.27544" lon="18.31078">
        <ele>238.787186</ele>
        <time>2024-08-04T07:33:32.949Z</time>
      </trkpt>
      <trkpt lat="54.27546" lon="18.31095">
        <ele>238.948381</ele>
        <time>2024-08-04T07:33:41.955Z</time>
      </trkpt>
      <trkpt lat="54.27544" lon="18.31111">
        <ele>239.112223</ele>
        <time>2024-08-04T07:33:51.947Z</time>
      </trkpt>
      <trkpt lat="54.27544" lon="18.31127">
        <ele>239.272828</ele>
        <time>2024-08-04T07:34:01.963Z</time>
      </trkpt>
      <trkpt lat="54.27543" lon="18.31143">
        <ele>239.443133</ele>
        <time>2024-08-04T07:34:10.936Z</time>
      </trkpt>
      <trkpt lat="54.27543" lon="18.31159">
        <ele>239.621899</ele>
        <time>2024-08-04T07:34:19.939Z</time>
      </trkpt>
      <trkpt lat="54.27543" lon="18.31176">
        <ele>239.799483</ele>
        <time>2024-08-04T07:34:27.941Z</time>
      </trkpt>
      <trkpt lat="54.27544" lon="18.31193">
        <ele>239.986314</ele>
        <time>2024-08-04T07:34:37.960Z</time>
      </trkpt>
      <trkpt lat="54.27546" lon="18.31209">
        <ele>240.151524</ele>
        <time>2024-08-04T07:34:46.951Z</time>
      </trkpt>
      <trkpt lat="54.27548" lon="18.31224">
        <ele>240.321982</ele>
        <time>2024-08-04T07:34:55.939Z</time>
      </trkpt>
      <trkpt lat="54.2755" lon="18.3124">
        <ele>240.496596</ele>
        <time>2024-08-04T07:35:04.948Z</time>
      </trkpt>
      <trkpt lat="54.27552" lon="18.31257">
        <ele>240.679701</ele>
        <time>2024-08-04T07:35:13.948Z</time>
      </trkpt>
      <trkpt lat="54.27555" lon="18.31272">
        <ele>240.850732</ele>
        <time>2024-08-04T07:35:22.937Z</time>
      </trkpt>
      <trkpt lat="54.27559" lon="18.31288">
        <ele>241.034484</ele>
        <time>2024-08-04T07:35:31.948Z</time>
      </trkpt>
      <trkpt lat="54.27564" lon="18.31301">
        <ele>241.200739</ele>
        <time>2024-08-04T07:35:40.950Z</time>
      </trkpt>
      <trkpt lat="54.27568" lon="18.31316">
        <ele>241.379324</ele>
        <time>2024-08-04T07:35:49.940Z</time>
      </trkpt>
      <trkpt lat="54.27572" lon="18.3133">
        <ele>241.546613</ele>
        <time>2024-08-04T07:35:57.965Z</time>
      </trkpt>
      <trkpt lat="54.27575" lon="18.31346">
        <ele>241.725027</ele>
        <time>2024-08-04T07:36:05.938Z</time>
      </trkpt>
      <trkpt lat="54.2758" lon="18.3136">
        <ele>241.901442</ele>
        <time>2024-08-04T07:36:13.955Z</time>
      </trkpt>
      <trkpt lat="54.27585" lon="18.31376">
        <ele>242.093566</ele>
        <time>2024-08-04T07:37:02.945Z</time>
      </trkpt>
      <trkpt lat="54.2759" lon="18.3139">
        <ele>242.269056</ele>
        <time>2024-08-04T07:37:10.942Z</time>
      </trkpt>
      <trkpt lat="54.27594" lon="18.31405">
        <ele>242.446821</ele>
        <time>2024-08-04T07:37:17.948Z</time>
      </trkpt>
      <trkpt lat="54.27598" lon="18.31421">
        <ele>242.631298</ele>
        <time>2024-08-04T07:37:25.951Z</time>
      </trkpt>
      <trkpt lat="54.27602" lon="18.31435">
        <ele>242.797494</ele>
        <time>2024-08-04T07:37:32.948Z</time>
      </trkpt>
      <trkpt lat="54.27608" lon="18.31446">
        <ele>242.966615</ele>
        <time>2024-08-04T07:37:40.931Z</time>
      </trkpt>
      <trkpt lat="54.27614" lon="18.3146">
        <ele>243.140349</ele>
        <time>2024-08-04T07:37:49.949Z</time>
      </trkpt>
      <trkpt lat="54.2762" lon="18.31474">
        <ele>243.332232</ele>
        <time>2024-08-04T07:37:58.944Z</time>
      </trkpt>
      <trkpt lat="54.27624" lon="18.3149">
        <ele>243.511535</ele>
        <time>2024-08-04T07:38:07.949Z</time>
      </trkpt>
      <trkpt lat="54.27629" lon="18.31503">
        <ele>243.687597</ele>
        <time>2024-08-04T07:38:15.945Z</time>
      </trkpt>
      <trkpt lat="54.27636" lon="18.31515">
        <ele>243.871059</ele>
        <time>2024-08-04T07:38:24.929Z</time>
      </trkpt>
      <trkpt lat="54.27644" lon="18.31524">
        <ele>244.044123</ele>
        <time>2024-08-04T07:38:34.940Z</time>
      </trkpt>
      <trkpt lat="54.27651" lon="18.31533">
        <ele>244.212713</ele>
        <time>2024-08-04T07:38:43.947Z</time>
      </trkpt>
      <trkpt lat="54.2766" lon="18.3154">
        <ele>244.392313</ele>
        <time>2024-08-04T07:38:53.946Z</time>
      </trkpt>
      <trkpt lat="54.27669" lon="18.31547">
        <ele>244.559899</ele>
        <time>2024-08-04T07:39:01.950Z</time>
      </trkpt>
      <trkpt lat="54.27678" lon="18.3155">
        <ele>244.729419</ele>
        <time>2024-08-04T07:39:10.938Z</time>
      </trkpt>
      <trkpt lat="54.27686" lon="18.31556">
        <ele>244.901226</ele>
        <time>2024-08-04T07:39:21.945Z</time>
      </trkpt>
      <trkpt lat="54.27698" lon="18.31569">
        <ele>245.162032</ele>
        <time>2024-08-04T07:39:50.935Z</time>
      </trkpt>
      <trkpt lat="54.27706" lon="18.31578">
        <ele>245.341333</ele>
        <time>2024-08-04T07:39:58.947Z</time>
      </trkpt>
      <trkpt lat="54.27715" lon="18.31586">
        <ele>245.513704</ele>
        <time>2024-08-04T07:40:07.951Z</time>
      </trkpt>
      <trkpt lat="54.27723" lon="18.31595">
        <ele>245.694944</ele>
        <time>2024-08-04T07:40:16.963Z</time>
      </trkpt>
      <trkpt lat="54.27731" lon="18.31604">
        <ele>245.867198</ele>
        <time>2024-08-04T07:40:24.947Z</time>
      </trkpt>
      <trkpt lat="54.27738" lon="18.31615">
        <ele>246.02416</ele>
        <time>2024-08-04T07:40:31.954Z</time>
      </trkpt>
      <trkpt lat="54.27743" lon="18.31629">
        <ele>246.180845</ele>
        <time>2024-08-04T07:40:39.943Z</time>
      </trkpt>
      <trkpt lat="54.27748" lon="18.31641">
        <ele>246.330717</ele>
        <time>2024-08-04T07:41:00.948Z</time>
      </trkpt>
      <trkpt lat="54.27751" lon="18.31657">
        <ele>246.484502</ele>
        <time>2024-08-04T07:41:09.950Z</time>
      </trkpt>
      <trkpt lat="54.27755" lon="18.3167">
        <ele>246.635401</ele>
        <time>2024-08-04T07:41:23.939Z</time>
      </trkpt>
      <trkpt lat="54.2776" lon="18.31685">
        <ele>246.796671</ele>
        <time>2024-08-04T07:41:33.941Z</time>
      </trkpt>
      <trkpt lat="54.27765" lon="18.317">
        <ele>246.96175</ele>
        <time>2024-08-04T07:41:42.957Z</time>
      </trkpt>
      <trkpt lat="54.27769" lon="18.31714">
        <ele>247.11186</ele>
        <time>2024-08-04T07:41:51.942Z</time>
      </trkpt>
      <trkpt lat="54.27774" lon="18.31727">
        <ele>247.2682</ele>
        <time>2024-08-04T07:42:00.956Z</time>
      </trkpt>
      <trkpt lat="54.27779" lon="18.31742">
        <ele>247.430862</ele>
        <time>2024-08-04T07:42:09.953Z</time>
      </trkpt>
      <trkpt lat="54.27784" lon="18.31755">
        <ele>247.582635</ele>
        <time>2024-08-04T07:42:17.943Z</time>
      </trkpt>
      <trkpt lat="54.27789" lon="18.31769">
        <ele>247.740196</ele>
        <time>2024-08-04T07:42:26.937Z</time>
      </trkpt>
      <trkpt lat="54.27793" lon="18.31784">
        <ele>247.901941</ele>
        <time>2024-08-04T07:42:35.938Z</time>
      </trkpt>
      <trkpt lat="54.27799" lon="18.31799">
        <ele>248.066135</ele>
        <time>2024-08-04T07:42:44.947Z</time>
      </trkpt>
      <trkpt lat="54.27804" lon="18.31812">
        <ele>248.226136</ele>
        <time>2024-08-04T07:42:52.956Z</time>
      </trkpt>
      <trkpt lat="54.2781" lon="18.31825">
        <ele>248.380291</ele>
        <time>2024-08-04T07:43:00.949Z</time>
      </trkpt>
      <trkpt lat="54.27813" lon="18.3184">
        <ele>248.536184</ele>
        <time>2024-08-04T07:43:08.950Z</time>
      </trkpt>
      <trkpt lat="54.27817" lon="18.31855">
        <ele>248.692688</ele>
        <time>2024-08-04T07:43:15.948Z</time>
      </trkpt>
      <trkpt lat="54.27819" lon="18.31871">
        <ele>248.730159</ele>
        <time>2024-08-04T07:43:24.951Z</time>
      </trkpt>
      <trkpt lat="54.27821" lon="18.31886">
        <ele>248.627381</ele>
        <time>2024-08-04T07:43:33.946Z</time>
      </trkpt>
      <trkpt lat="54.2783" lon="18.31892">
        <ele>248.526062</ele>
        <time>2024-08-04T07:43:42.957Z</time>
      </trkpt>
      <trkpt lat="54.27837" lon="18.31903">
        <ele>248.41824</ele>
        <time>2024-08-04T07:43:52.964Z</time>
      </trkpt>
      <trkpt lat="54.27845" lon="18.31922">
        <ele>248.265683</ele>
        <time>2024-08-04T07:44:20.958Z</time>
      </trkpt>
      <trkpt lat="54.27856" lon="18.31944">
        <ele>248.078373</ele>
        <time>2024-08-04T07:46:42.938Z</time>
      </trkpt>
      <trkpt lat="54.27865" lon="18.3195">
        <ele>247.969036</ele>
        <time>2024-08-04T07:46:54.959Z</time>
      </trkpt>
      <trkpt lat="54.27873" lon="18.31959">
        <ele>247.868239</ele>
        <time>2024-08-04T07:47:05.945Z</time>
      </trkpt>
      <trkpt lat="54.2788" lon="18.31969">
        <ele>247.763534</ele>
        <time>2024-08-04T07:47:14.950Z</time>
      </trkpt>
      <trkpt lat="54.2789" lon="18.31977">
        <ele>247.645875</ele>
        <time>2024-08-04T07:47:28.947Z</time>
      </trkpt>
      <trkpt lat="54.27899" lon="18.31983">
        <ele>247.533101</ele>
        <time>2024-08-04T07:47:40.947Z</time>
      </trkpt>
      <trkpt lat="54.27908" lon="18.31988">
        <ele>247.431092</ele>
        <time>2024-08-04T07:47:47.946Z</time>
      </trkpt>
      <trkpt lat="54.27917" lon="18.31992">
        <ele>247.325005</ele>
        <time>2024-08-04T07:47:57.950Z</time>
      </trkpt>
      <trkpt lat="54.27925" lon="18.32001">
        <ele>247.221941</ele>
        <time>2024-08-04T07:48:05.938Z</time>
      </trkpt>
      <trkpt lat="54.27935" lon="18.32008">
        <ele>247.108708</ele>
        <time>2024-08-04T07:48:14.950Z</time>
      </trkpt>
      <trkpt lat="54.27944" lon="18.32013">
        <ele>247.006283</ele>
        <time>2024-08-04T07:48:23.935Z</time>
      </trkpt>
      <trkpt lat="54.27953" lon="18.32021">
        <ele>246.893667</ele>
        <time>2024-08-04T07:48:31.945Z</time>
      </trkpt>
      <trkpt lat="54.2796" lon="18.32032">
        <ele>246.800407</ele>
        <time>2024-08-04T07:48:38.937Z</time>
      </trkpt>
      <trkpt lat="54.27969" lon="18.32041">
        <ele>247.099089</ele>
        <time>2024-08-04T07:48:46.934Z</time>
      </trkpt>
      <trkpt lat="54.27977" lon="18.32049">
        <ele>247.376945</ele>
        <time>2024-08-04T07:48:53.937Z</time>
      </trkpt>
      <trkpt lat="54.27984" lon="18.3206">
        <ele>247.638396</ele>
        <time>2024-08-04T07:49:00.942Z</time>
      </trkpt>
      <trkpt lat="54.27991" lon="18.32071">
        <ele>247.919834</ele>
        <time>2024-08-04T07:49:08.942Z</time>
      </trkpt>
      <trkpt lat="54.27998" lon="18.32083">
        <ele>248.182394</ele>
        <time>2024-08-04T07:49:16.954Z</time>
      </trkpt>
      <trkpt lat="54.28002" lon="18.32096">
        <ele>248.444519</ele>
        <time>2024-08-04T07:49:26.945Z</time>
      </trkpt>
      <trkpt lat="54.28009" lon="18.32108">
        <ele>248.709875</ele>
        <time>2024-08-04T07:49:37.960Z</time>
      </trkpt>
      <trkpt lat="54.28018" lon="18.32114">
        <ele>248.995801</ele>
        <time>2024-08-04T07:49:45.942Z</time>
      </trkpt>
      <trkpt lat="54.28025" lon="18.32125">
        <ele>249.270312</ele>
        <time>2024-08-04T07:49:53.940Z</time>
      </trkpt>
      <trkpt lat="54.28025" lon="18.32143">
        <ele>249.562163</ele>
        <time>2024-08-04T07:50:02.954Z</time>
      </trkpt>
      <trkpt lat="54.2803" lon="18.32157">
        <ele>249.844082</ele>
        <time>2024-08-04T07:50:12.937Z</time>
      </trkpt>
      <trkpt lat="54.28038" lon="18.32164">
        <ele>250.106214</ele>
        <time>2024-08-04T07:50:20.943Z</time>
      </trkpt>
      <trkpt lat="54.28046" lon="18.32175">
        <ele>250.391564</ele>
        <time>2024-08-04T07:50:29.946Z</time>
      </trkpt>
      <trkpt lat="54.28049" lon="18.32191">
        <ele>250.658995</ele>
        <time>2024-08-04T07:50:38.951Z</time>
      </trkpt>
      <trkpt lat="54.28052" lon="18.32207">
        <ele>250.938258</ele>
        <time>2024-08-04T07:50:47.943Z</time>
      </trkpt>
      <trkpt lat="54.28054" lon="18.32223">
        <ele>251.214681</ele>
        <time>2024-08-04T07:50:55.939Z</time>
      </trkpt>
      <trkpt lat="54.28057" lon="18.32239">
        <ele>251.497587</ele>
        <time>2024-08-04T07:51:03.940Z</time>
      </trkpt>
      <trkpt lat="54.28059" lon="18.32254">
        <ele>251.759063</ele>
        <time>2024-08-04T07:51:11.941Z</time>
      </trkpt>
      <trkpt lat="54.28062" lon="18.32269">
        <ele>251.848796</ele>
        <time>2024-08-04T07:51:18.948Z</time>
      </trkpt>
      <trkpt lat="54.28066" lon="18.32284">
        <ele>251.608165</ele>
        <time>2024-08-04T07:51:26.933Z</time>
      </trkpt>
      <trkpt lat="54.28072" lon="18.32296">
        <ele>251.384888</ele>
        <time>2024-08-04T07:51:34.939Z</time>
      </trkpt>
      <trkpt lat="54.28077" lon="18.32309">
        <ele>251.160476</ele>
        <time>2024-08-04T07:51:42.948Z</time>
      </trkpt>
      <trkpt lat="54.28081" lon="18.32323">
        <ele>250.935709</ele>
        <time>2024-08-04T07:51:50.950Z</time>
      </trkpt>
      <trkpt lat="54.28084" lon="18.3234">
        <ele>250.681477</ele>
        <time>2024-08-04T07:51:58.942Z</time>
      </trkpt>
      <trkpt lat="54.28089" lon="18.32354">
        <ele>250.435135</ele>
        <time>2024-08-04T07:52:08.953Z</time>
      </trkpt>
      <trkpt lat="54.28096" lon="18.32364">
        <ele>250.20887</ele>
        <time>2024-08-04T07:52:16.946Z</time>
      </trkpt>
      <trkpt lat="54.28102" lon="18.32377">
        <ele>249.983278</ele>
        <time>2024-08-04T07:52:23.934Z</time>
      </trkpt>
      <trkpt lat="54.28105" lon="18.32391">
        <ele>249.751249</ele>
        <time>2024-08-04T07:52:32.939Z</time>
      </trkpt>
      <trkpt lat="54.28111" lon="18.32405">
        <ele>249.510428</ele>
        <time>2024-08-04T07:52:42.942Z</time>
      </trkpt>
      <trkpt lat="54.28116" lon="18.32419">
        <ele>249.273758</ele>
        <time>2024-08-04T07:52:51.943Z</time>
      </trkpt>
      <trkpt lat="54.2812" lon="18.32434">
        <ele>249.035678</ele>
        <time>2024-08-04T07:53:03.929Z</time>
      </trkpt>
      <trkpt lat="54.28124" lon="18.32448">
        <ele>248.799947</ele>
        <time>2024-08-04T07:53:12.939Z</time>
      </trkpt>
      <trkpt lat="54.28128" lon="18.32464">
        <ele>248.556503</ele>
        <time>2024-08-04T07:53:22.934Z</time>
      </trkpt>
      <trkpt lat="54.28134" lon="18.32476">
        <ele>248.330107</ele>
        <time>2024-08-04T07:53:31.938Z</time>
      </trkpt>
      <trkpt lat="54.28139" lon="18.3249">
        <ele>248.090797</ele>
        <time>2024-08-04T07:53:39.930Z</time>
      </trkpt>
      <trkpt lat="54.28143" lon="18.32504">
        <ele>247.868909</ele>
        <time>2024-08-04T07:53:47.942Z</time>
      </trkpt>
      <trkpt lat="54.2815" lon="18.32515">
        <ele>247.640351</ele>
        <time>2024-08-04T07:53:56.947Z</time>
      </trkpt>
      <trkpt lat="54.28156" lon="18.32527">
        <ele>247.465017</ele>
        <time>2024-08-04T07:54:05.948Z</time>
      </trkpt>
      <trkpt lat="54.28164" lon="18.32539">
        <ele>247.41158</ele>
        <time>2024-08-04T07:54:15.934Z</time>
      </trkpt>
      <trkpt lat="54.28169" lon="18.32552">
        <ele>247.361576</ele>
        <time>2024-08-04T07:54:23.937Z</time>
      </trkpt>
      <trkpt lat="54.28175" lon="18.32565">
        <ele>247.312342</ele>
        <time>2024-08-04T07:54:32.938Z</time>
      </trkpt>
      <trkpt lat="54.28181" lon="18.32579">
        <ele>247.257592</ele>
        <time>2024-08-04T07:54:38.951Z</time>
      </trkpt>
      <trkpt lat="54.28185" lon="18.32594">
        <ele>247.206978</ele>
        <time>2024-08-04T07:54:42.966Z</time>
      </trkpt>
      <trkpt lat="54.28188" lon="18.32611">
        <ele>247.151628</ele>
        <time>2024-08-04T07:54:46.949Z</time>
      </trkpt>
      <trkpt lat="54.28192" lon="18.32629">
        <ele>247.092319</ele>
        <time>2024-08-04T07:54:50.950Z</time>
      </trkpt>
      <trkpt lat="54.28194" lon="18.32646">
        <ele>247.037833</ele>
        <time>2024-08-04T07:54:54.957Z</time>
      </trkpt>
      <trkpt lat="54.28196" lon="18.32664">
        <ele>246.982606</ele>
        <time>2024-08-04T07:55:00.938Z</time>
      </trkpt>
      <trkpt lat="54.282" lon="18.32679">
        <ele>246.931945</ele>
        <time>2024-08-04T07:55:05.959Z</time>
      </trkpt>
      <trkpt lat="54.28205" lon="18.32695">
        <ele>246.874623</ele>
        <time>2024-08-04T07:55:11.942Z</time>
      </trkpt>
      <trkpt lat="54.28212" lon="18.32709">
        <ele>246.819177</ele>
        <time>2024-08-04T07:55:15.933Z</time>
      </trkpt>
      <trkpt lat="54.28219" lon="18.32721">
        <ele>246.76547</ele>
        <time>2024-08-04T07:55:19.938Z</time>
      </trkpt>
      <trkpt lat="54.28226" lon="18.32735">
        <ele>246.709346</ele>
        <time>2024-08-04T07:55:23.968Z</time>
      </trkpt>
      <trkpt lat="54.28232" lon="18.32749">
        <ele>246.655523</ele>
        <time>2024-08-04T07:55:26.950Z</time>
      </trkpt>
      <trkpt lat="54.28236" lon="18.32763">
        <ele>246.605516</ele>
        <time>2024-08-04T07:55:29.946Z</time>
      </trkpt>
      <trkpt lat="54.28241" lon="18.3278">
        <ele>246.547611</ele>
        <time>2024-08-04T07:55:33.958Z</time>
      </trkpt>
      <trkpt lat="54.28247" lon="18.32797">
        <ele>246.55822</ele>
        <time>2024-08-04T07:55:37.928Z</time>
      </trkpt>
      <trkpt lat="54.28251" lon="18.32814">
        <ele>246.593223</ele>
        <time>2024-08-04T07:55:40.960Z</time>
      </trkpt>
      <trkpt lat="54.28255" lon="18.32833">
        <ele>246.631452</ele>
        <time>2024-08-04T07:55:43.959Z</time>
      </trkpt>
      <trkpt lat="54.28254" lon="18.32847">
        <ele>246.659002</ele>
        <time>2024-08-04T07:55:56.446Z</time>
      </trkpt>
      <trkpt lat="54.28258" lon="18.32867">
        <ele>246.698099</ele>
        <time>2024-08-04T08:21:00.954Z</time>
      </trkpt>
      <trkpt lat="54.28258" lon="18.32886">
        <ele>246.733466</ele>
        <time>2024-08-04T08:21:09.943Z</time>
      </trkpt>
      <trkpt lat="54.28258" lon="18.32903">
        <ele>246.766774</ele>
        <time>2024-08-04T08:21:13.945Z</time>
      </trkpt>
      <trkpt lat="54.2826" lon="18.32919">
        <ele>246.797188</ele>
        <time>2024-08-04T08:21:16.961Z</time>
      </trkpt>
      <trkpt lat="54.28263" lon="18.32935">
        <ele>246.828825</ele>
        <time>2024-08-04T08:21:19.953Z</time>
      </trkpt>
      <trkpt lat="54.28269" lon="18.32951">
        <ele>246.863425</ele>
        <time>2024-08-04T08:21:22.952Z</time>
      </trkpt>
      <trkpt lat="54.28275" lon="18.32967">
        <ele>246.900022</ele>
        <time>2024-08-04T08:21:25.951Z</time>
      </trkpt>
      <trkpt lat="54.28283" lon="18.32982">
        <ele>246.939822</ele>
        <time>2024-08-04T08:21:28.968Z</time>
      </trkpt>
      <trkpt lat="54.28292" lon="18.32995">
        <ele>246.976324</ele>
        <time>2024-08-04T08:21:32.007Z</time>
      </trkpt>
      <trkpt lat="54.28302" lon="18.33006">
        <ele>247.013934</ele>
        <time>2024-08-04T08:21:35.952Z</time>
      </trkpt>
      <trkpt lat="54.2831" lon="18.33014">
        <ele>247.045427</ele>
        <time>2024-08-04T08:21:38.958Z</time>
      </trkpt>
      <trkpt lat="54.28319" lon="18.33022">
        <ele>247.07653</ele>
        <time>2024-08-04T08:21:42.000Z</time>
      </trkpt>
      <trkpt lat="54.28329" lon="18.33033">
        <ele>247.11022</ele>
        <time>2024-08-04T08:21:45.945Z</time>
      </trkpt>
      <trkpt lat="54.28336" lon="18.33046">
        <ele>247.059875</ele>
        <time>2024-08-04T08:21:48.966Z</time>
      </trkpt>
      <trkpt lat="54.28342" lon="18.3306">
        <ele>247.008608</ele>
        <time>2024-08-04T08:21:52.005Z</time>
      </trkpt>
      <trkpt lat="54.2835" lon="18.33075">
        <ele>246.949383</ele>
        <time>2024-08-04T08:21:54.965Z</time>
      </trkpt>
      <trkpt lat="54.28359" lon="18.33092">
        <ele>246.887251</ele>
        <time>2024-08-04T08:21:57.951Z</time>
      </trkpt>
      <trkpt lat="54.28366" lon="18.33109">
        <ele>246.826046</ele>
        <time>2024-08-04T08:22:00.951Z</time>
      </trkpt>
      <trkpt lat="54.28372" lon="18.33124">
        <ele>246.772513</ele>
        <time>2024-08-04T08:22:03.969Z</time>
      </trkpt>
      <trkpt lat="54.28376" lon="18.3314">
        <ele>246.725222</ele>
        <time>2024-08-04T08:22:06.958Z</time>
      </trkpt>
      <trkpt lat="54.28377" lon="18.33156">
        <ele>246.678321</ele>
        <time>2024-08-04T08:22:09.957Z</time>
      </trkpt>
      <trkpt lat="54.28378" lon="18.33174">
        <ele>246.626925</ele>
        <time>2024-08-04T08:22:12.937Z</time>
      </trkpt>
      <trkpt lat="54.2838" lon="18.33195">
        <ele>246.564094</ele>
        <time>2024-08-04T08:22:15.962Z</time>
      </trkpt>
      <trkpt lat="54.28382" lon="18.33214">
        <ele>246.509778</ele>
        <time>2024-08-04T08:22:17.964Z</time>
      </trkpt>
      <trkpt lat="54.28385" lon="18.33235">
        <ele>246.450413</ele>
        <time>2024-08-04T08:22:19.962Z</time>
      </trkpt>
      <trkpt lat="54.28387" lon="18.33255">
        <ele>246.390021</ele>
        <time>2024-08-04T08:22:21.992Z</time>
      </trkpt>
      <trkpt lat="54.28389" lon="18.33277">
        <ele>246.328434</ele>
        <time>2024-08-04T08:22:23.964Z</time>
      </trkpt>
      <trkpt lat="54.28391" lon="18.33297">
        <ele>246.269521</ele>
        <time>2024-08-04T08:22:25.967Z</time>
      </trkpt>
      <trkpt lat="54.28395" lon="18.33316">
        <ele>246.224446</ele>
        <time>2024-08-04T08:22:27.958Z</time>
      </trkpt>
      <trkpt lat="54.284" lon="18.33334">
        <ele>246.204996</ele>
        <time>2024-08-04T08:22:29.963Z</time>
      </trkpt>
      <trkpt lat="54.28406" lon="18.33352">
        <ele>246.185182</ele>
        <time>2024-08-04T08:22:32.000Z</time>
      </trkpt>
      <trkpt lat="54.28414" lon="18.3337">
        <ele>246.16338</ele>
        <time>2024-08-04T08:22:33.958Z</time>
      </trkpt>
      <trkpt lat="54.28421" lon="18.33389">
        <ele>246.141268</ele>
        <time>2024-08-04T08:22:35.973Z</time>
      </trkpt>
      <trkpt lat="54.28429" lon="18.33408">
        <ele>246.118906</ele>
        <time>2024-08-04T08:22:37.968Z</time>
      </trkpt>
      <trkpt lat="54.28436" lon="18.33427">
        <ele>246.09664</ele>
        <time>2024-08-04T08:22:39.964Z</time>
      </trkpt>
      <trkpt lat="54.28442" lon="18.33446">
        <ele>246.075735</ele>
        <time>2024-08-04T08:22:42.021Z</time>
      </trkpt>
      <trkpt lat="54.28447" lon="18.33465">
        <ele>246.055379</ele>
        <time>2024-08-04T08:22:43.949Z</time>
      </trkpt>
      <trkpt lat="54.2845" lon="18.33485">
        <ele>246.035116</ele>
        <time>2024-08-04T08:22:45.955Z</time>
      </trkpt>
      <trkpt lat="54.28452" lon="18.33505">
        <ele>246.015681</ele>
        <time>2024-08-04T08:22:47.953Z</time>
      </trkpt>
      <trkpt lat="54.28454" lon="18.33524">
        <ele>245.996946</ele>
        <time>2024-08-04T08:22:49.959Z</time>
      </trkpt>
      <trkpt lat="54.28454" lon="18.33543">
        <ele>245.978456</ele>
        <time>2024-08-04T08:22:52.014Z</time>
      </trkpt>
      <trkpt lat="54.28454" lon="18.33561">
        <ele>245.96093</ele>
        <time>2024-08-04T08:22:53.950Z</time>
      </trkpt>
      <trkpt lat="54.28452" lon="18.33579">
        <ele>245.943831</ele>
        <time>2024-08-04T08:22:55.957Z</time>
      </trkpt>
      <trkpt lat="54.2845" lon="18.33594">
        <ele>245.915854</ele>
        <time>2024-08-04T08:22:57.966Z</time>
      </trkpt>
      <trkpt lat="54.28448" lon="18.33611">
        <ele>245.851012</ele>
        <time>2024-08-04T08:22:59.970Z</time>
      </trkpt>
      <trkpt lat="54.28445" lon="18.33627">
        <ele>245.788203</ele>
        <time>2024-08-04T08:23:02.018Z</time>
      </trkpt>
      <trkpt lat="54.28443" lon="18.33642">
        <ele>245.726838</ele>
        <time>2024-08-04T08:23:03.956Z</time>
      </trkpt>
      <trkpt lat="54.28441" lon="18.33658">
        <ele>245.666683</ele>
        <time>2024-08-04T08:23:05.951Z</time>
      </trkpt>
      <trkpt lat="54.28439" lon="18.33675">
        <ele>245.60231</ele>
        <time>2024-08-04T08:23:07.963Z</time>
      </trkpt>
      <trkpt lat="54.28437" lon="18.33691">
        <ele>245.538444</ele>
        <time>2024-08-04T08:23:09.960Z</time>
      </trkpt>
      <trkpt lat="54.28435" lon="18.33708">
        <ele>245.473225</ele>
        <time>2024-08-04T08:23:11.999Z</time>
      </trkpt>
      <trkpt lat="54.28433" lon="18.33724">
        <ele>245.407958</ele>
        <time>2024-08-04T08:23:13.967Z</time>
      </trkpt>
      <trkpt lat="54.2843" lon="18.33742">
        <ele>245.341117</ele>
        <time>2024-08-04T08:23:15.936Z</time>
      </trkpt>
      <trkpt lat="54.28428" lon="18.33759">
        <ele>245.274063</ele>
        <time>2024-08-04T08:23:17.974Z</time>
      </trkpt>
      <trkpt lat="54.28426" lon="18.33775">
        <ele>245.209012</ele>
        <time>2024-08-04T08:23:19.965Z</time>
      </trkpt>
      <trkpt lat="54.28423" lon="18.33791">
        <ele>245.146911</ele>
        <time>2024-08-04T08:23:22.011Z</time>
      </trkpt>
      <trkpt lat="54.2842" lon="18.33813">
        <ele>245.061406</ele>
        <time>2024-08-04T08:23:24.954Z</time>
      </trkpt>
      <trkpt lat="54.28417" lon="18.33833">
        <ele>244.982862</ele>
        <time>2024-08-04T08:23:27.962Z</time>
      </trkpt>
      <trkpt lat="54.28415" lon="18.33849">
        <ele>244.920335</ele>
        <time>2024-08-04T08:23:29.962Z</time>
      </trkpt>
      <trkpt lat="54.28412" lon="18.33868">
        <ele>244.8462</ele>
        <time>2024-08-04T08:23:32.004Z</time>
      </trkpt>
      <trkpt lat="54.28409" lon="18.33888">
        <ele>244.766044</ele>
        <time>2024-08-04T08:23:33.976Z</time>
      </trkpt>
      <trkpt lat="54.28405" lon="18.33912">
        <ele>244.41264</ele>
        <time>2024-08-04T08:23:35.970Z</time>
      </trkpt>
      <trkpt lat="54.28402" lon="18.33938">
        <ele>243.992036</ele>
        <time>2024-08-04T08:23:37.953Z</time>
      </trkpt>
      <trkpt lat="54.28399" lon="18.33966">
        <ele>243.565435</ele>
        <time>2024-08-04T08:23:39.969Z</time>
      </trkpt>
      <trkpt lat="54.28395" lon="18.33992">
        <ele>243.147562</ele>
        <time>2024-08-04T08:23:42.012Z</time>
      </trkpt>
      <trkpt lat="54.28392" lon="18.34017">
        <ele>242.757468</ele>
        <time>2024-08-04T08:23:43.966Z</time>
      </trkpt>
      <trkpt lat="54.28389" lon="18.34042">
        <ele>242.360547</ele>
        <time>2024-08-04T08:23:45.970Z</time>
      </trkpt>
      <trkpt lat="54.28386" lon="18.34068">
        <ele>241.960672</ele>
        <time>2024-08-04T08:23:47.958Z</time>
      </trkpt>
      <trkpt lat="54.28385" lon="18.34094">
        <ele>241.569637</ele>
        <time>2024-08-04T08:23:49.955Z</time>
      </trkpt>
      <trkpt lat="54.28385" lon="18.3412">
        <ele>241.166156</ele>
        <time>2024-08-04T08:23:52.034Z</time>
      </trkpt>
      <trkpt lat="54.28385" lon="18.34147">
        <ele>240.756677</ele>
        <time>2024-08-04T08:23:53.954Z</time>
      </trkpt>
      <trkpt lat="54.28386" lon="18.34175">
        <ele>240.316732</ele>
        <time>2024-08-04T08:23:55.960Z</time>
      </trkpt>
      <trkpt lat="54.28388" lon="18.34204">
        <ele>239.910103</ele>
        <time>2024-08-04T08:23:57.953Z</time>
      </trkpt>
      <trkpt lat="54.28392" lon="18.34231">
        <ele>239.591617</ele>
        <time>2024-08-04T08:23:59.940Z</time>
      </trkpt>
      <trkpt lat="54.28398" lon="18.34257">
        <ele>239.280511</ele>
        <time>2024-08-04T08:24:01.983Z</time>
      </trkpt>
      <trkpt lat="54.28404" lon="18.34282">
        <ele>238.972163</ele>
        <time>2024-08-04T08:24:03.955Z</time>
      </trkpt>
      <trkpt lat="54.2841" lon="18.34307">
        <ele>238.661073</ele>
        <time>2024-08-04T08:24:05.969Z</time>
      </trkpt>
      <trkpt lat="54.28415" lon="18.34332">
        <ele>238.359267</ele>
        <time>2024-08-04T08:24:07.959Z</time>
      </trkpt>
      <trkpt lat="54.2842" lon="18.34357">
        <ele>238.06374</ele>
        <time>2024-08-04T08:24:09.959Z</time>
      </trkpt>
      <trkpt lat="54.28425" lon="18.34381">
        <ele>237.766408</ele>
        <time>2024-08-04T08:24:12.001Z</time>
      </trkpt>
      <trkpt lat="54.2843" lon="18.34405">
        <ele>237.479218</ele>
        <time>2024-08-04T08:24:13.950Z</time>
      </trkpt>
      <trkpt lat="54.28435" lon="18.34428">
        <ele>237.201911</ele>
        <time>2024-08-04T08:24:15.935Z</time>
      </trkpt>
      <trkpt lat="54.2844" lon="18.34451">
        <ele>236.929543</ele>
        <time>2024-08-04T08:24:17.957Z</time>
      </trkpt>
      <trkpt lat="54.28444" lon="18.34473">
        <ele>236.657812</ele>
        <time>2024-08-04T08:24:19.978Z</time>
      </trkpt>
      <trkpt lat="54.28449" lon="18.34497">
        <ele>236.472547</ele>
        <time>2024-08-04T08:24:22.003Z</time>
      </trkpt>
      <trkpt lat="54.28454" lon="18.34521">
        <ele>236.367494</ele>
        <time>2024-08-04T08:24:23.958Z</time>
      </trkpt>
      <trkpt lat="54.28459" lon="18.34546">
        <ele>236.259518</ele>
        <time>2024-08-04T08:24:25.968Z</time>
      </trkpt>
      <trkpt lat="54.28464" lon="18.3457">
        <ele>236.158993</ele>
        <time>2024-08-04T08:24:27.966Z</time>
      </trkpt>
      <trkpt lat="54.28469" lon="18.34593">
        <ele>236.057544</ele>
        <time>2024-08-04T08:24:29.981Z</time>
      </trkpt>
      <trkpt lat="54.28473" lon="18.34616">
        <ele>235.958628</ele>
        <time>2024-08-04T08:24:31.993Z</time>
      </trkpt>
      <trkpt lat="54.28478" lon="18.34638">
        <ele>235.864392</ele>
        <time>2024-08-04T08:24:33.960Z</time>
      </trkpt>
      <trkpt lat="54.28482" lon="18.34659">
        <ele>235.773684</ele>
        <time>2024-08-04T08:24:35.974Z</time>
      </trkpt>
      <trkpt lat="54.28486" lon="18.34681">
        <ele>235.681543</ele>
        <time>2024-08-04T08:24:37.976Z</time>
      </trkpt>
      <trkpt lat="54.2849" lon="18.347">
        <ele>235.59716</ele>
        <time>2024-08-04T08:24:39.957Z</time>
      </trkpt>
      <trkpt lat="54.28494" lon="18.34721">
        <ele>235.506173</ele>
        <time>2024-08-04T08:24:41.987Z</time>
      </trkpt>
      <trkpt lat="54.28498" lon="18.34742">
        <ele>235.41624</ele>
        <time>2024-08-04T08:24:43.964Z</time>
      </trkpt>
      <trkpt lat="54.28503" lon="18.34763">
        <ele>235.326405</ele>
        <time>2024-08-04T08:24:45.973Z</time>
      </trkpt>
      <trkpt lat="54.28507" lon="18.34784">
        <ele>235.22671</ele>
        <time>2024-08-04T08:24:47.955Z</time>
      </trkpt>
      <trkpt lat="54.28512" lon="18.34805">
        <ele>235.115512</ele>
        <time>2024-08-04T08:24:49.961Z</time>
      </trkpt>
      <trkpt lat="54.28516" lon="18.34826">
        <ele>235.004762</ele>
        <time>2024-08-04T08:24:51.964Z</time>
      </trkpt>
      <trkpt lat="54.28521" lon="18.34846">
        <ele>234.895996</ele>
        <time>2024-08-04T08:24:53.954Z</time>
      </trkpt>
      <trkpt lat="54.28524" lon="18.34865">
        <ele>234.797682</ele>
        <time>2024-08-04T08:24:55.963Z</time>
      </trkpt>
      <trkpt lat="54.28528" lon="18.34884">
        <ele>234.69802</ele>
        <time>2024-08-04T08:24:57.965Z</time>
      </trkpt>
      <trkpt lat="54.28532" lon="18.34902">
        <ele>234.60455</ele>
        <time>2024-08-04T08:24:59.958Z</time>
      </trkpt>
      <trkpt lat="54.28534" lon="18.34919">
        <ele>234.515296</ele>
        <time>2024-08-04T08:25:01.991Z</time>
      </trkpt>
      <trkpt lat="54.28537" lon="18.34938">
        <ele>234.417981</ele>
        <time>2024-08-04T08:25:03.939Z</time>
      </trkpt>
      <trkpt lat="54.28539" lon="18.34958">
        <ele>234.317613</ele>
        <time>2024-08-04T08:25:05.934Z</time>
      </trkpt>
      <trkpt lat="54.28542" lon="18.34978">
        <ele>234.216101</ele>
        <time>2024-08-04T08:25:07.953Z</time>
      </trkpt>
      <trkpt lat="54.28543" lon="18.34999">
        <ele>234.111278</ele>
        <time>2024-08-04T08:25:09.964Z</time>
      </trkpt>
      <trkpt lat="54.28542" lon="18.35021">
        <ele>234.001352</ele>
        <time>2024-08-04T08:25:11.991Z</time>
      </trkpt>
      <trkpt lat="54.2854" lon="18.35039">
        <ele>233.911201</ele>
        <time>2024-08-04T08:25:13.948Z</time>
      </trkpt>
      <trkpt lat="54.28537" lon="18.35056">
        <ele>233.824043</ele>
        <time>2024-08-04T08:25:15.952Z</time>
      </trkpt>
      <trkpt lat="54.28536" lon="18.35071">
        <ele>233.746123</ele>
        <time>2024-08-04T08:25:17.973Z</time>
      </trkpt>
      <trkpt lat="54.28531" lon="18.35091">
        <ele>233.654948</ele>
        <time>2024-08-04T08:25:20.961Z</time>
      </trkpt>
      <trkpt lat="54.2852" lon="18.35097">
        <ele>233.571697</ele>
        <time>2024-08-04T08:25:23.955Z</time>
      </trkpt>
      <trkpt lat="54.28509" lon="18.351">
        <ele>233.493454</ele>
        <time>2024-08-04T08:25:26.962Z</time>
      </trkpt>
      <trkpt lat="54.28498" lon="18.35107">
        <ele>233.409921</ele>
        <time>2024-08-04T08:25:29.940Z</time>
      </trkpt>
      <trkpt lat="54.2849" lon="18.35118">
        <ele>233.337284</ele>
        <time>2024-08-04T08:25:32.954Z</time>
      </trkpt>
      <trkpt lat="54.2849" lon="18.35135">
        <ele>233.268229</ele>
        <time>2024-08-04T08:25:35.943Z</time>
      </trkpt>
      <trkpt lat="54.28497" lon="18.35155">
        <ele>233.170364</ele>
        <time>2024-08-04T08:25:38.938Z</time>
      </trkpt>
      <trkpt lat="54.28503" lon="18.35168">
        <ele>233.100815</ele>
        <time>2024-08-04T08:25:40.958Z</time>
      </trkpt>
      <trkpt lat="54.28509" lon="18.35182">
        <ele>233.025467</ele>
        <time>2024-08-04T08:25:42.961Z</time>
      </trkpt>
      <trkpt lat="54.28516" lon="18.35199">
        <ele>232.943766</ele>
        <time>2024-08-04T08:25:44.965Z</time>
      </trkpt>
      <trkpt lat="54.28522" lon="18.35216">
        <ele>232.858148</ele>
        <time>2024-08-04T08:25:46.961Z</time>
      </trkpt>
      <trkpt lat="54.28528" lon="18.35233">
        <ele>232.772907</ele>
        <time>2024-08-04T08:25:48.966Z</time>
      </trkpt>
      <trkpt lat="54.28534" lon="18.35251">
        <ele>232.690875</ele>
        <time>2024-08-04T08:25:50.962Z</time>
      </trkpt>
      <trkpt lat="54.28539" lon="18.35267">
        <ele>232.614313</ele>
        <time>2024-08-04T08:25:52.958Z</time>
      </trkpt>
      <trkpt lat="54.28543" lon="18.35283">
        <ele>232.539044</ele>
        <time>2024-08-04T08:25:54.954Z</time>
      </trkpt>
      <trkpt lat="54.28546" lon="18.35299">
        <ele>232.470297</ele>
        <time>2024-08-04T08:25:56.960Z</time>
      </trkpt>
      <trkpt lat="54.28549" lon="18.35316">
        <ele>232.422739</ele>
        <time>2024-08-04T08:25:58.952Z</time>
      </trkpt>
      <trkpt lat="54.28552" lon="18.35332">
        <ele>232.384046</ele>
        <time>2024-08-04T08:26:00.957Z</time>
      </trkpt>
      <trkpt lat="54.28554" lon="18.35349">
        <ele>232.344382</ele>
        <time>2024-08-04T08:26:02.973Z</time>
      </trkpt>
      <trkpt lat="54.28557" lon="18.35366">
        <ele>232.305274</ele>
        <time>2024-08-04T08:26:04.967Z</time>
      </trkpt>
      <trkpt lat="54.2856" lon="18.35383">
        <ele>232.265695</ele>
        <time>2024-08-04T08:26:06.963Z</time>
      </trkpt>
      <trkpt lat="54.28562" lon="18.35399">
        <ele>232.227783</ele>
        <time>2024-08-04T08:26:08.936Z</time>
      </trkpt>
      <trkpt lat="54.28563" lon="18.35416">
        <ele>232.189669</ele>
        <time>2024-08-04T08:26:10.954Z</time>
      </trkpt>
      <trkpt lat="54.28565" lon="18.35433">
        <ele>232.149664</ele>
        <time>2024-08-04T08:26:12.942Z</time>
      </trkpt>
      <trkpt lat="54.28567" lon="18.35452">
        <ele>232.107336</ele>
        <time>2024-08-04T08:26:14.970Z</time>
      </trkpt>
      <trkpt lat="54.28569" lon="18.35469">
        <ele>232.067827</ele>
        <time>2024-08-04T08:26:16.971Z</time>
      </trkpt>
      <trkpt lat="54.2857" lon="18.35486">
        <ele>232.027906</ele>
        <time>2024-08-04T08:26:18.975Z</time>
      </trkpt>
      <trkpt lat="54.28572" lon="18.35504">
        <ele>231.988081</ele>
        <time>2024-08-04T08:26:20.953Z</time>
      </trkpt>
      <trkpt lat="54.28575" lon="18.3552">
        <ele>231.948648</ele>
        <time>2024-08-04T08:26:22.969Z</time>
      </trkpt>
      <trkpt lat="54.28578" lon="18.35537">
        <ele>231.909433</ele>
        <time>2024-08-04T08:26:24.959Z</time>
      </trkpt>
      <trkpt lat="54.28581" lon="18.35553">
        <ele>231.872268</ele>
        <time>2024-08-04T08:26:26.944Z</time>
      </trkpt>
      <trkpt lat="54.28584" lon="18.35569">
        <ele>231.834548</ele>
        <time>2024-08-04T08:26:28.957Z</time>
      </trkpt>
      <trkpt lat="54.28588" lon="18.35584">
        <ele>231.797075</ele>
        <time>2024-08-04T08:26:30.958Z</time>
      </trkpt>
      <trkpt lat="54.28592" lon="18.35598">
        <ele>231.761489</ele>
        <time>2024-08-04T08:26:32.970Z</time>
      </trkpt>
      <trkpt lat="54.28597" lon="18.35612">
        <ele>231.697796</ele>
        <time>2024-08-04T08:26:34.963Z</time>
      </trkpt>
      <trkpt lat="54.28602" lon="18.35626">
        <ele>231.632504</ele>
        <time>2024-08-04T08:26:36.972Z</time>
      </trkpt>
      <trkpt lat="54.28607" lon="18.35639">
        <ele>231.568305</ele>
        <time>2024-08-04T08:26:38.958Z</time>
      </trkpt>
      <trkpt lat="54.28613" lon="18.35653">
        <ele>231.49774</ele>
        <time>2024-08-04T08:26:40.968Z</time>
      </trkpt>
      <trkpt lat="54.2862" lon="18.35668">
        <ele>231.422039</ele>
        <time>2024-08-04T08:26:42.960Z</time>
      </trkpt>
      <trkpt lat="54.28627" lon="18.35684">
        <ele>231.339468</ele>
        <time>2024-08-04T08:26:44.977Z</time>
      </trkpt>
      <trkpt lat="54.28636" lon="18.35701">
        <ele>231.249362</ele>
        <time>2024-08-04T08:26:46.979Z</time>
      </trkpt>
      <trkpt lat="54.28644" lon="18.35718">
        <ele>231.160287</ele>
        <time>2024-08-04T08:26:48.973Z</time>
      </trkpt>
      <trkpt lat="54.28652" lon="18.35735">
        <ele>231.070393</ele>
        <time>2024-08-04T08:26:50.968Z</time>
      </trkpt>
      <trkpt lat="54.28661" lon="18.35751">
        <ele>230.982366</ele>
        <time>2024-08-04T08:26:52.964Z</time>
      </trkpt>
      <trkpt lat="54.28669" lon="18.35768">
        <ele>230.891654</ele>
        <time>2024-08-04T08:26:54.967Z</time>
      </trkpt>
      <trkpt lat="54.28678" lon="18.35785">
        <ele>230.802306</ele>
        <time>2024-08-04T08:26:56.969Z</time>
      </trkpt>
      <trkpt lat="54.28686" lon="18.35801">
        <ele>230.716421</ele>
        <time>2024-08-04T08:26:58.975Z</time>
      </trkpt>
      <trkpt lat="54.28694" lon="18.35816">
        <ele>230.630436</ele>
        <time>2024-08-04T08:27:00.966Z</time>
      </trkpt>
      <trkpt lat="54.28704" lon="18.3583">
        <ele>230.543167</ele>
        <time>2024-08-04T08:27:02.966Z</time>
      </trkpt>
      <trkpt lat="54.28714" lon="18.35843">
        <ele>230.459984</ele>
        <time>2024-08-04T08:27:04.970Z</time>
      </trkpt>
      <trkpt lat="54.28725" lon="18.35853">
        <ele>230.383955</ele>
        <time>2024-08-04T08:27:06.976Z</time>
      </trkpt>
      <trkpt lat="54.28735" lon="18.35861">
        <ele>230.309821</ele>
        <time>2024-08-04T08:27:08.970Z</time>
      </trkpt>
      <trkpt lat="54.28745" lon="18.35869">
        <ele>230.239098</ele>
        <time>2024-08-04T08:27:10.971Z</time>
      </trkpt>
      <trkpt lat="54.28755" lon="18.35876">
        <ele>230.170702</ele>
        <time>2024-08-04T08:27:12.977Z</time>
      </trkpt>
      <trkpt lat="54.28765" lon="18.35881">
        <ele>230.103417</ele>
        <time>2024-08-04T08:27:14.962Z</time>
      </trkpt>
      <trkpt lat="54.28774" lon="18.35887">
        <ele>230.046002</ele>
        <time>2024-08-04T08:27:16.967Z</time>
      </trkpt>
      <trkpt lat="54.28783" lon="18.35891">
        <ele>229.986177</ele>
        <time>2024-08-04T08:27:18.966Z</time>
      </trkpt>
      <trkpt lat="54.28792" lon="18.35897">
        <ele>229.920956</ele>
        <time>2024-08-04T08:27:20.964Z</time>
      </trkpt>
      <trkpt lat="54.28802" lon="18.35902">
        <ele>229.858367</ele>
        <time>2024-08-04T08:27:22.959Z</time>
      </trkpt>
      <trkpt lat="54.28811" lon="18.35906">
        <ele>229.796197</ele>
        <time>2024-08-04T08:27:24.958Z</time>
      </trkpt>
      <trkpt lat="54.28821" lon="18.35911">
        <ele>229.732893</ele>
        <time>2024-08-04T08:27:26.970Z</time>
      </trkpt>
      <trkpt lat="54.28831" lon="18.35916">
        <ele>229.667554</ele>
        <time>2024-08-04T08:27:28.979Z</time>
      </trkpt>
      <trkpt lat="54.28841" lon="18.35921">
        <ele>229.598439</ele>
        <time>2024-08-04T08:27:30.980Z</time>
      </trkpt>
      <trkpt lat="54.28851" lon="18.35927">
        <ele>229.530467</ele>
        <time>2024-08-04T08:27:32.977Z</time>
      </trkpt>
      <trkpt lat="54.28861" lon="18.35933">
        <ele>229.463452</ele>
        <time>2024-08-04T08:27:34.946Z</time>
      </trkpt>
      <trkpt lat="54.28871" lon="18.35939">
        <ele>229.396082</ele>
        <time>2024-08-04T08:27:36.957Z</time>
      </trkpt>
      <trkpt lat="54.28881" lon="18.35945">
        <ele>229.215585</ele>
        <time>2024-08-04T08:27:38.930Z</time>
      </trkpt>
      <trkpt lat="54.28893" lon="18.35952">
        <ele>228.923154</ele>
        <time>2024-08-04T08:27:40.971Z</time>
      </trkpt>
      <trkpt lat="54.28904" lon="18.35958">
        <ele>228.634819</ele>
        <time>2024-08-04T08:27:42.966Z</time>
      </trkpt>
      <trkpt lat="54.28916" lon="18.35965">
        <ele>228.341916</ele>
        <time>2024-08-04T08:27:44.973Z</time>
      </trkpt>
      <trkpt lat="54.28928" lon="18.35972">
        <ele>228.043605</ele>
        <time>2024-08-04T08:27:46.962Z</time>
      </trkpt>
      <trkpt lat="54.28939" lon="18.35981">
        <ele>227.748452</ele>
        <time>2024-08-04T08:27:48.966Z</time>
      </trkpt>
      <trkpt lat="54.28951" lon="18.35992">
        <ele>227.421077</ele>
        <time>2024-08-04T08:27:50.955Z</time>
      </trkpt>
      <trkpt lat="54.28962" lon="18.36008">
        <ele>227.074414</ele>
        <time>2024-08-04T08:27:52.960Z</time>
      </trkpt>
      <trkpt lat="54.28972" lon="18.36026">
        <ele>226.718498</ele>
        <time>2024-08-04T08:27:54.942Z</time>
      </trkpt>
      <trkpt lat="54.28982" lon="18.36046">
        <ele>226.358499</ele>
        <time>2024-08-04T08:27:56.965Z</time>
      </trkpt>
      <trkpt lat="54.28992" lon="18.36066">
        <ele>225.994413</ele>
        <time>2024-08-04T08:27:58.961Z</time>
      </trkpt>
      <trkpt lat="54.29002" lon="18.36086">
        <ele>225.625034</ele>
        <time>2024-08-04T08:28:00.967Z</time>
      </trkpt>
      <trkpt lat="54.29012" lon="18.36105">
        <ele>225.259895</ele>
        <time>2024-08-04T08:28:02.954Z</time>
      </trkpt>
      <trkpt lat="54.29022" lon="18.36124">
        <ele>225.016509</ele>
        <time>2024-08-04T08:28:04.956Z</time>
      </trkpt>
      <trkpt lat="54.29032" lon="18.36144">
        <ele>224.915558</ele>
        <time>2024-08-04T08:28:06.973Z</time>
      </trkpt>
      <trkpt lat="54.29041" lon="18.36163">
        <ele>224.816681</ele>
        <time>2024-08-04T08:28:08.966Z</time>
      </trkpt>
      <trkpt lat="54.29051" lon="18.36182">
        <ele>224.719978</ele>
        <time>2024-08-04T08:28:10.978Z</time>
      </trkpt>
      <trkpt lat="54.29061" lon="18.36201">
        <ele>224.621681</ele>
        <time>2024-08-04T08:28:12.971Z</time>
      </trkpt>
      <trkpt lat="54.29071" lon="18.3622">
        <ele>224.521059</ele>
        <time>2024-08-04T08:28:14.953Z</time>
      </trkpt>
      <trkpt lat="54.2908" lon="18.3624">
        <ele>224.422493</ele>
        <time>2024-08-04T08:28:16.961Z</time>
      </trkpt>
      <trkpt lat="54.29089" lon="18.36261">
        <ele>224.322185</ele>
        <time>2024-08-04T08:28:18.958Z</time>
      </trkpt>
      <trkpt lat="54.29099" lon="18.36282">
        <ele>224.221075</ele>
        <time>2024-08-04T08:28:20.966Z</time>
      </trkpt>
      <trkpt lat="54.29108" lon="18.363">
        <ele>224.126717</ele>
        <time>2024-08-04T08:28:22.956Z</time>
      </trkpt>
      <trkpt lat="54.29117" lon="18.36319">
        <ele>224.033368</ele>
        <time>2024-08-04T08:28:24.968Z</time>
      </trkpt>
      <trkpt lat="54.29126" lon="18.36338">
        <ele>223.937346</ele>
        <time>2024-08-04T08:28:26.971Z</time>
      </trkpt>
      <trkpt lat="54.29135" lon="18.36357">
        <ele>223.836251</ele>
        <time>2024-08-04T08:28:28.980Z</time>
      </trkpt>
      <trkpt lat="54.29144" lon="18.36374">
        <ele>223.716588</ele>
        <time>2024-08-04T08:28:30.968Z</time>
      </trkpt>
      <trkpt lat="54.29153" lon="18.36393">
        <ele>223.592467</ele>
        <time>2024-08-04T08:28:32.957Z</time>
      </trkpt>
      <trkpt lat="54.29162" lon="18.36411">
        <ele>223.466991</ele>
        <time>2024-08-04T08:28:34.959Z</time>
      </trkpt>
      <trkpt lat="54.29171" lon="18.36429">
        <ele>223.347145</ele>
        <time>2024-08-04T08:28:36.980Z</time>
      </trkpt>
      <trkpt lat="54.2918" lon="18.36447">
        <ele>223.224195</ele>
        <time>2024-08-04T08:28:38.969Z</time>
      </trkpt>
      <trkpt lat="54.29189" lon="18.36465">
        <ele>223.100015</ele>
        <time>2024-08-04T08:28:40.971Z</time>
      </trkpt>
      <trkpt lat="54.29198" lon="18.36484">
        <ele>222.976858</ele>
        <time>2024-08-04T08:28:42.963Z</time>
      </trkpt>
      <trkpt lat="54.29207" lon="18.36501">
        <ele>222.858332</ele>
        <time>2024-08-04T08:28:44.962Z</time>
      </trkpt>
      <trkpt lat="54.29216" lon="18.3652">
        <ele>222.734307</ele>
        <time>2024-08-04T08:28:46.959Z</time>
      </trkpt>
      <trkpt lat="54.29225" lon="18.36539">
        <ele>222.611149</ele>
        <time>2024-08-04T08:28:48.964Z</time>
      </trkpt>
      <trkpt lat="54.29234" lon="18.36557">
        <ele>222.486411</ele>
        <time>2024-08-04T08:28:50.971Z</time>
      </trkpt>
      <trkpt lat="54.29243" lon="18.36576">
        <ele>222.360952</ele>
        <time>2024-08-04T08:28:52.962Z</time>
      </trkpt>
      <trkpt lat="54.29252" lon="18.36594">
        <ele>222.244167</ele>
        <time>2024-08-04T08:28:54.963Z</time>
      </trkpt>
      <trkpt lat="54.29261" lon="18.36612">
        <ele>222.138798</ele>
        <time>2024-08-04T08:28:56.976Z</time>
      </trkpt>
      <trkpt lat="54.2927" lon="18.3663">
        <ele>222.034228</ele>
        <time>2024-08-04T08:28:58.963Z</time>
      </trkpt>
      <trkpt lat="54.29279" lon="18.36648">
        <ele>221.92735</ele>
        <time>2024-08-04T08:29:00.954Z</time>
      </trkpt>
      <trkpt lat="54.29287" lon="18.36666">
        <ele>221.821397</ele>
        <time>2024-08-04T08:29:02.966Z</time>
      </trkpt>
      <trkpt lat="54.29296" lon="18.36684">
        <ele>221.719726</ele>
        <time>2024-08-04T08:29:04.972Z</time>
      </trkpt>
      <trkpt lat="54.29305" lon="18.367">
        <ele>221.617182</ele>
        <time>2024-08-04T08:29:06.961Z</time>
      </trkpt>
      <trkpt lat="54.29314" lon="18.36716">
        <ele>221.520213</ele>
        <time>2024-08-04T08:29:08.964Z</time>
      </trkpt>
      <trkpt lat="54.29323" lon="18.36732">
        <ele>221.422881</ele>
        <time>2024-08-04T08:29:10.971Z</time>
      </trkpt>
      <trkpt lat="54.29332" lon="18.36748">
        <ele>221.323012</ele>
        <time>2024-08-04T08:29:12.976Z</time>
      </trkpt>
      <trkpt lat="54.2934" lon="18.36763">
        <ele>221.230947</ele>
        <time>2024-08-04T08:29:14.968Z</time>
      </trkpt>
      <trkpt lat="54.29349" lon="18.36778">
        <ele>221.140152</ele>
        <time>2024-08-04T08:29:16.964Z</time>
      </trkpt>
      <trkpt lat="54.29357" lon="18.36792">
        <ele>221.051814</ele>
        <time>2024-08-04T08:29:18.966Z</time>
      </trkpt>
      <trkpt lat="54.29365" lon="18.36805">
        <ele>220.963031</ele>
        <time>2024-08-04T08:29:20.975Z</time>
      </trkpt>
      <trkpt lat="54.29374" lon="18.36819">
        <ele>220.86919</ele>
        <time>2024-08-04T08:29:22.955Z</time>
      </trkpt>
      <trkpt lat="54.29383" lon="18.36832">
        <ele>220.768967</ele>
        <time>2024-08-04T08:29:24.954Z</time>
      </trkpt>
      <trkpt lat="54.29392" lon="18.36847">
        <ele>220.664657</ele>
        <time>2024-08-04T08:29:26.960Z</time>
      </trkpt>
      <trkpt lat="54.29401" lon="18.36863">
        <ele>220.552921</ele>
        <time>2024-08-04T08:29:28.969Z</time>
      </trkpt>
      <trkpt lat="54.2941" lon="18.3688">
        <ele>220.441666</ele>
        <time>2024-08-04T08:29:30.965Z</time>
      </trkpt>
      <trkpt lat="54.29419" lon="18.369">
        <ele>220.319189</ele>
        <time>2024-08-04T08:29:32.970Z</time>
      </trkpt>
      <trkpt lat="54.29426" lon="18.36923">
        <ele>220.189116</ele>
        <time>2024-08-04T08:29:34.976Z</time>
      </trkpt>
      <trkpt lat="54.29433" lon="18.36947">
        <ele>220.053749</ele>
        <time>2024-08-04T08:29:36.958Z</time>
      </trkpt>
      <trkpt lat="54.29439" lon="18.36973">
        <ele>219.920158</ele>
        <time>2024-08-04T08:29:38.959Z</time>
      </trkpt>
      <trkpt lat="54.29446" lon="18.36996">
        <ele>219.789631</ele>
        <time>2024-08-04T08:29:40.960Z</time>
      </trkpt>
      <trkpt lat="54.29455" lon="18.37017">
        <ele>219.659407</ele>
        <time>2024-08-04T08:29:42.937Z</time>
      </trkpt>
      <trkpt lat="54.29465" lon="18.37037">
        <ele>219.529881</ele>
        <time>2024-08-04T08:29:44.965Z</time>
      </trkpt>
      <trkpt lat="54.29474" lon="18.37057">
        <ele>219.404546</ele>
        <time>2024-08-04T08:29:46.965Z</time>
      </trkpt>
      <trkpt lat="54.29483" lon="18.37075">
        <ele>219.491912</ele>
        <time>2024-08-04T08:29:48.967Z</time>
      </trkpt>
      <trkpt lat="54.29492" lon="18.37092">
        <ele>219.611095</ele>
        <time>2024-08-04T08:29:50.972Z</time>
      </trkpt>
      <trkpt lat="54.29499" lon="18.37107">
        <ele>219.715845</ele>
        <time>2024-08-04T08:29:52.957Z</time>
      </trkpt>
      <trkpt lat="54.29506" lon="18.37119">
        <ele>219.805598</ele>
        <time>2024-08-04T08:29:54.958Z</time>
      </trkpt>
      <trkpt lat="54.29513" lon="18.37129">
        <ele>219.889502</ele>
        <time>2024-08-04T08:29:56.971Z</time>
      </trkpt>
      <trkpt lat="54.29523" lon="18.3714">
        <ele>220.000694</ele>
        <time>2024-08-04T08:29:59.962Z</time>
      </trkpt>
      <trkpt lat="54.29533" lon="18.37151">
        <ele>220.113361</ele>
        <time>2024-08-04T08:30:02.970Z</time>
      </trkpt>
      <trkpt lat="54.29545" lon="18.37161">
        <ele>220.2317</ele>
        <time>2024-08-04T08:30:05.956Z</time>
      </trkpt>
      <trkpt lat="54.29552" lon="18.37169">
        <ele>220.314956</ele>
        <time>2024-08-04T08:30:07.961Z</time>
      </trkpt>
      <trkpt lat="54.29563" lon="18.37181">
        <ele>220.433093</ele>
        <time>2024-08-04T08:30:10.953Z</time>
      </trkpt>
      <trkpt lat="54.29571" lon="18.3719">
        <ele>220.51806</ele>
        <time>2024-08-04T08:30:12.955Z</time>
      </trkpt>
      <trkpt lat="54.29578" lon="18.37199">
        <ele>220.60196</ele>
        <time>2024-08-04T08:30:14.964Z</time>
      </trkpt>
      <trkpt lat="54.29585" lon="18.37209">
        <ele>220.685545</ele>
        <time>2024-08-04T08:30:16.978Z</time>
      </trkpt>
      <trkpt lat="54.29592" lon="18.37221">
        <ele>220.776827</ele>
        <time>2024-08-04T08:30:18.951Z</time>
      </trkpt>
      <trkpt lat="54.29598" lon="18.37233">
        <ele>220.862438</ele>
        <time>2024-08-04T08:30:20.944Z</time>
      </trkpt>
      <trkpt lat="54.29605" lon="18.37244">
        <ele>220.950685</ele>
        <time>2024-08-04T08:30:22.952Z</time>
      </trkpt>
      <trkpt lat="54.29611" lon="18.37255">
        <ele>221.034372</ele>
        <time>2024-08-04T08:30:24.956Z</time>
      </trkpt>
      <trkpt lat="54.29618" lon="18.37265">
        <ele>220.843904</ele>
        <time>2024-08-04T08:30:26.959Z</time>
      </trkpt>
      <trkpt lat="54.29626" lon="18.37273">
        <ele>220.602478</ele>
        <time>2024-08-04T08:30:28.966Z</time>
      </trkpt>
      <trkpt lat="54.29636" lon="18.37284">
        <ele>220.28767</ele>
        <time>2024-08-04T08:30:32.018Z</time>
      </trkpt>
      <trkpt lat="54.29646" lon="18.3729">
        <ele>220.029869</ele>
        <time>2024-08-04T08:30:34.967Z</time>
      </trkpt>
      <trkpt lat="54.29656" lon="18.37297">
        <ele>219.730362</ele>
        <time>2024-08-04T08:30:37.957Z</time>
      </trkpt>
      <trkpt lat="54.29665" lon="18.37302">
        <ele>219.481999</ele>
        <time>2024-08-04T08:30:41.965Z</time>
      </trkpt>
      <trkpt lat="54.29659" lon="18.37288">
        <ele>219.221308</ele>
        <time>2024-08-04T08:30:48.944Z</time>
      </trkpt>
      <trkpt lat="54.29668" lon="18.3729">
        <ele>218.982512</ele>
        <time>2024-08-04T08:30:53.976Z</time>
      </trkpt>
      <trkpt lat="54.29679" lon="18.373">
        <ele>218.670755</ele>
        <time>2024-08-04T08:30:57.957Z</time>
      </trkpt>
      <trkpt lat="54.2969" lon="18.37313">
        <ele>218.311386</ele>
        <time>2024-08-04T08:31:00.970Z</time>
      </trkpt>
      <trkpt lat="54.29699" lon="18.37324">
        <ele>218.031321</ele>
        <time>2024-08-04T08:31:02.962Z</time>
      </trkpt>
      <trkpt lat="54.29708" lon="18.37336">
        <ele>217.734955</ele>
        <time>2024-08-04T08:31:04.968Z</time>
      </trkpt>
      <trkpt lat="54.29716" lon="18.37349">
        <ele>217.434928</ele>
        <time>2024-08-04T08:31:06.982Z</time>
      </trkpt>
      <trkpt lat="54.29725" lon="18.37364">
        <ele>217.113407</ele>
        <time>2024-08-04T08:31:08.970Z</time>
      </trkpt>
      <trkpt lat="54.29734" lon="18.37379">
        <ele>216.780027</ele>
        <time>2024-08-04T08:31:10.967Z</time>
      </trkpt>
      <trkpt lat="54.29743" lon="18.37391">
        <ele>216.468614</ele>
        <time>2024-08-04T08:31:12.974Z</time>
      </trkpt>
      <trkpt lat="54.29752" lon="18.37403">
        <ele>216.098331</ele>
        <time>2024-08-04T08:31:14.948Z</time>
      </trkpt>
      <trkpt lat="54.2976" lon="18.37414">
        <ele>215.654439</ele>
        <time>2024-08-04T08:31:16.963Z</time>
      </trkpt>
      <trkpt lat="54.29768" lon="18.37425">
        <ele>215.212429</ele>
        <time>2024-08-04T08:31:18.965Z</time>
      </trkpt>
      <trkpt lat="54.29777" lon="18.37436">
        <ele>214.757109</ele>
        <time>2024-08-04T08:31:20.965Z</time>
      </trkpt>
      <trkpt lat="54.29785" lon="18.37448">
        <ele>214.293022</ele>
        <time>2024-08-04T08:31:22.962Z</time>
      </trkpt>
      <trkpt lat="54.29794" lon="18.37458">
        <ele>213.823852</ele>
        <time>2024-08-04T08:31:24.961Z</time>
      </trkpt>
      <trkpt lat="54.29803" lon="18.37471">
        <ele>213.329902</ele>
        <time>2024-08-04T08:31:26.963Z</time>
      </trkpt>
      <trkpt lat="54.29813" lon="18.37484">
        <ele>212.800261</ele>
        <time>2024-08-04T08:31:28.959Z</time>
      </trkpt>
      <trkpt lat="54.29826" lon="18.37494">
        <ele>212.222091</ele>
        <time>2024-08-04T08:31:30.956Z</time>
      </trkpt>
      <trkpt lat="54.29837" lon="18.37506">
        <ele>211.63385</ele>
        <time>2024-08-04T08:31:32.963Z</time>
      </trkpt>
      <trkpt lat="54.29849" lon="18.37518">
        <ele>211.065087</ele>
        <time>2024-08-04T08:31:34.961Z</time>
      </trkpt>
      <trkpt lat="54.29861" lon="18.37528">
        <ele>210.511465</ele>
        <time>2024-08-04T08:31:36.936Z</time>
      </trkpt>
      <trkpt lat="54.29872" lon="18.37537">
        <ele>209.966267</ele>
        <time>2024-08-04T08:31:38.958Z</time>
      </trkpt>
      <trkpt lat="54.29884" lon="18.37545">
        <ele>209.408249</ele>
        <time>2024-08-04T08:31:40.975Z</time>
      </trkpt>
      <trkpt lat="54.29896" lon="18.37556">
        <ele>208.855725</ele>
        <time>2024-08-04T08:31:42.960Z</time>
      </trkpt>
      <trkpt lat="54.29907" lon="18.37569">
        <ele>208.48324</ele>
        <time>2024-08-04T08:31:44.972Z</time>
      </trkpt>
      <trkpt lat="54.2992" lon="18.37578">
        <ele>208.205872</ele>
        <time>2024-08-04T08:31:46.965Z</time>
      </trkpt>
      <trkpt lat="54.29933" lon="18.37587">
        <ele>207.928521</ele>
        <time>2024-08-04T08:31:48.968Z</time>
      </trkpt>
      <trkpt lat="54.29945" lon="18.37596">
        <ele>207.664554</ele>
        <time>2024-08-04T08:31:50.955Z</time>
      </trkpt>
      <trkpt lat="54.29957" lon="18.37606">
        <ele>207.384417</ele>
        <time>2024-08-04T08:31:52.971Z</time>
      </trkpt>
      <trkpt lat="54.2997" lon="18.37614">
        <ele>207.112124</ele>
        <time>2024-08-04T08:31:54.961Z</time>
      </trkpt>
      <trkpt lat="54.29982" lon="18.37623">
        <ele>206.843115</ele>
        <time>2024-08-04T08:31:56.974Z</time>
      </trkpt>
      <trkpt lat="54.29994" lon="18.37631">
        <ele>206.58367</ele>
        <time>2024-08-04T08:31:58.938Z</time>
      </trkpt>
      <trkpt lat="54.30006" lon="18.37639">
        <ele>206.327194</ele>
        <time>2024-08-04T08:32:00.967Z</time>
      </trkpt>
      <trkpt lat="54.30017" lon="18.37648">
        <ele>206.080451</ele>
        <time>2024-08-04T08:32:02.954Z</time>
      </trkpt>
      <trkpt lat="54.30028" lon="18.37656">
        <ele>205.835556</ele>
        <time>2024-08-04T08:32:04.966Z</time>
      </trkpt>
      <trkpt lat="54.30039" lon="18.37664">
        <ele>205.599925</ele>
        <time>2024-08-04T08:32:06.962Z</time>
      </trkpt>
      <trkpt lat="54.3005" lon="18.37672">
        <ele>205.357349</ele>
        <time>2024-08-04T08:32:08.975Z</time>
      </trkpt>
      <trkpt lat="54.30061" lon="18.3768">
        <ele>205.111077</ele>
        <time>2024-08-04T08:32:10.977Z</time>
      </trkpt>
      <trkpt lat="54.30073" lon="18.37688">
        <ele>204.979286</ele>
        <time>2024-08-04T08:32:12.929Z</time>
      </trkpt>
      <trkpt lat="54.30085" lon="18.37696">
        <ele>204.890105</ele>
        <time>2024-08-04T08:32:14.959Z</time>
      </trkpt>
      <trkpt lat="54.30097" lon="18.37705">
        <ele>204.794873</ele>
        <time>2024-08-04T08:32:16.967Z</time>
      </trkpt>
      <trkpt lat="54.30109" lon="18.37714">
        <ele>204.702117</ele>
        <time>2024-08-04T08:32:18.975Z</time>
      </trkpt>
      <trkpt lat="54.30121" lon="18.37722">
        <ele>204.608044</ele>
        <time>2024-08-04T08:32:20.956Z</time>
      </trkpt>
      <trkpt lat="54.30133" lon="18.37731">
        <ele>204.517258</ele>
        <time>2024-08-04T08:32:22.972Z</time>
      </trkpt>
      <trkpt lat="54.30144" lon="18.37738">
        <ele>204.427041</ele>
        <time>2024-08-04T08:32:24.975Z</time>
      </trkpt>
      <trkpt lat="54.30155" lon="18.37746">
        <ele>204.342468</ele>
        <time>2024-08-04T08:32:26.973Z</time>
      </trkpt>
      <trkpt lat="54.30166" lon="18.37754">
        <ele>204.256451</ele>
        <time>2024-08-04T08:32:28.959Z</time>
      </trkpt>
      <trkpt lat="54.30177" lon="18.37761">
        <ele>204.176019</ele>
        <time>2024-08-04T08:32:30.959Z</time>
      </trkpt>
      <trkpt lat="54.30186" lon="18.37769">
        <ele>204.101162</ele>
        <time>2024-08-04T08:32:32.964Z</time>
      </trkpt>
      <trkpt lat="54.30196" lon="18.37776">
        <ele>204.024011</ele>
        <time>2024-08-04T08:32:34.975Z</time>
      </trkpt>
      <trkpt lat="54.30205" lon="18.37784">
        <ele>203.949796</ele>
        <time>2024-08-04T08:32:36.971Z</time>
      </trkpt>
      <trkpt lat="54.30215" lon="18.37791">
        <ele>203.874632</ele>
        <time>2024-08-04T08:32:38.965Z</time>
      </trkpt>
      <trkpt lat="54.30225" lon="18.37799">
        <ele>203.796476</ele>
        <time>2024-08-04T08:32:40.957Z</time>
      </trkpt>
      <trkpt lat="54.30235" lon="18.37806">
        <ele>203.737443</ele>
        <time>2024-08-04T08:32:42.971Z</time>
      </trkpt>
      <trkpt lat="54.30246" lon="18.37814">
        <ele>203.695751</ele>
        <time>2024-08-04T08:32:44.969Z</time>
      </trkpt>
      <trkpt lat="54.30257" lon="18.37821">
        <ele>203.652277</ele>
        <time>2024-08-04T08:32:46.965Z</time>
      </trkpt>
      <trkpt lat="54.30267" lon="18.37829">
        <ele>203.610843</ele>
        <time>2024-08-04T08:32:48.959Z</time>
      </trkpt>
      <trkpt lat="54.30278" lon="18.37837">
        <ele>203.566955</ele>
        <time>2024-08-04T08:32:50.965Z</time>
      </trkpt>
      <trkpt lat="54.30289" lon="18.37844">
        <ele>203.523822</ele>
        <time>2024-08-04T08:32:52.964Z</time>
      </trkpt>
      <trkpt lat="54.303" lon="18.37852">
        <ele>203.480348</ele>
        <time>2024-08-04T08:32:54.958Z</time>
      </trkpt>
      <trkpt lat="54.30311" lon="18.3786">
        <ele>203.437814</ele>
        <time>2024-08-04T08:32:56.970Z</time>
      </trkpt>
      <trkpt lat="54.30321" lon="18.37867">
        <ele>203.396548</ele>
        <time>2024-08-04T08:32:58.960Z</time>
      </trkpt>
      <trkpt lat="54.30331" lon="18.37875">
        <ele>203.355957</ele>
        <time>2024-08-04T08:33:00.955Z</time>
      </trkpt>
      <trkpt lat="54.30341" lon="18.37883">
        <ele>203.316426</ele>
        <time>2024-08-04T08:33:02.967Z</time>
      </trkpt>
      <trkpt lat="54.3035" lon="18.37892">
        <ele>203.278004</ele>
        <time>2024-08-04T08:33:04.965Z</time>
      </trkpt>
      <trkpt lat="54.30357" lon="18.37902">
        <ele>203.244179</ele>
        <time>2024-08-04T08:33:06.974Z</time>
      </trkpt>
      <trkpt lat="54.30367" lon="18.37915">
        <ele>203.196168</ele>
        <time>2024-08-04T08:33:09.953Z</time>
      </trkpt>
      <trkpt lat="54.30377" lon="18.37926">
        <ele>203.153382</ele>
        <time>2024-08-04T08:33:12.956Z</time>
      </trkpt>
      <trkpt lat="54.30386" lon="18.37925">
        <ele>203.119767</ele>
        <time>2024-08-04T08:33:15.953Z</time>
      </trkpt>
      <trkpt lat="54.30388" lon="18.3794">
        <ele>203.06381</ele>
        <time>2024-08-04T08:33:19.942Z</time>
      </trkpt>
      <trkpt lat="54.30388" lon="18.37957">
        <ele>202.97167</ele>
        <time>2024-08-04T08:33:22.975Z</time>
      </trkpt>
      <trkpt lat="54.30393" lon="18.37974">
        <ele>202.864494</ele>
        <time>2024-08-04T08:33:25.952Z</time>
      </trkpt>
      <trkpt lat="54.30398" lon="18.37995">
        <ele>202.739909</ele>
        <time>2024-08-04T08:33:28.954Z</time>
      </trkpt>
      <trkpt lat="54.30403" lon="18.38016">
        <ele>202.614838</ele>
        <time>2024-08-04T08:33:32.003Z</time>
      </trkpt>
      <trkpt lat="54.30408" lon="18.38037">
        <ele>202.489369</ele>
        <time>2024-08-04T08:33:34.961Z</time>
      </trkpt>
      <trkpt lat="54.30413" lon="18.38058">
        <ele>202.361686</ele>
        <time>2024-08-04T08:33:37.959Z</time>
      </trkpt>
      <trkpt lat="54.30416" lon="18.38073">
        <ele>202.273029</ele>
        <time>2024-08-04T08:33:39.965Z</time>
      </trkpt>
      <trkpt lat="54.30421" lon="18.38094">
        <ele>202.144309</ele>
        <time>2024-08-04T08:33:42.970Z</time>
      </trkpt>
      <trkpt lat="54.30426" lon="18.38115">
        <ele>202.017152</ele>
        <time>2024-08-04T08:33:45.983Z</time>
      </trkpt>
      <trkpt lat="54.3043" lon="18.38137">
        <ele>201.890517</ele>
        <time>2024-08-04T08:33:48.981Z</time>
      </trkpt>
      <trkpt lat="54.30434" lon="18.38157">
        <ele>201.771826</ele>
        <time>2024-08-04T08:33:52.006Z</time>
      </trkpt>
      <trkpt lat="54.30438" lon="18.38171">
        <ele>201.682559</ele>
        <time>2024-08-04T08:33:53.958Z</time>
      </trkpt>
      <trkpt lat="54.30442" lon="18.38185">
        <ele>201.594819</ele>
        <time>2024-08-04T08:33:55.973Z</time>
      </trkpt>
      <trkpt lat="54.30446" lon="18.382">
        <ele>201.506314</ele>
        <time>2024-08-04T08:33:57.973Z</time>
      </trkpt>
      <trkpt lat="54.3045" lon="18.3822">
        <ele>201.387312</ele>
        <time>2024-08-04T08:34:00.975Z</time>
      </trkpt>
      <trkpt lat="54.30455" lon="18.38241">
        <ele>201.150799</ele>
        <time>2024-08-04T08:34:03.949Z</time>
      </trkpt>
      <trkpt lat="54.30458" lon="18.38256">
        <ele>200.97883</ele>
        <time>2024-08-04T08:34:05.954Z</time>
      </trkpt>
      <trkpt lat="54.30463" lon="18.38276">
        <ele>200.73518</ele>
        <time>2024-08-04T08:34:08.957Z</time>
      </trkpt>
      <trkpt lat="54.30466" lon="18.38292">
        <ele>200.548572</ele>
        <time>2024-08-04T08:34:10.958Z</time>
      </trkpt>
      <trkpt lat="54.30469" lon="18.38308">
        <ele>200.357791</ele>
        <time>2024-08-04T08:34:12.959Z</time>
      </trkpt>
      <trkpt lat="54.30473" lon="18.38325">
        <ele>200.161643</ele>
        <time>2024-08-04T08:34:14.954Z</time>
      </trkpt>
      <trkpt lat="54.30477" lon="18.38342">
        <ele>199.956205</ele>
        <time>2024-08-04T08:34:16.973Z</time>
      </trkpt>
      <trkpt lat="54.30481" lon="18.38359">
        <ele>199.749292</ele>
        <time>2024-08-04T08:34:18.963Z</time>
      </trkpt>
      <trkpt lat="54.30486" lon="18.38375">
        <ele>199.553885</ele>
        <time>2024-08-04T08:34:20.960Z</time>
      </trkpt>
      <trkpt lat="54.3049" lon="18.38393">
        <ele>199.336331</ele>
        <time>2024-08-04T08:34:22.949Z</time>
      </trkpt>
      <trkpt lat="54.30494" lon="18.38411">
        <ele>199.124607</ele>
        <time>2024-08-04T08:34:24.960Z</time>
      </trkpt>
      <trkpt lat="54.30498" lon="18.38428">
        <ele>198.926047</ele>
        <time>2024-08-04T08:34:26.959Z</time>
      </trkpt>
      <trkpt lat="54.30502" lon="18.38444">
        <ele>198.737758</ele>
        <time>2024-08-04T08:34:29.959Z</time>
      </trkpt>
      <trkpt lat="54.305" lon="18.38462">
        <ele>198.53424</ele>
        <time>2024-08-04T08:34:34.956Z</time>
      </trkpt>
      <trkpt lat="54.30503" lon="18.38481">
        <ele>198.312796</ele>
        <time>2024-08-04T08:34:37.959Z</time>
      </trkpt>
      <trkpt lat="54.30507" lon="18.38495">
        <ele>198.139254</ele>
        <time>2024-08-04T08:34:39.959Z</time>
      </trkpt>
      <trkpt lat="54.30511" lon="18.38512">
        <ele>197.927435</ele>
        <time>2024-08-04T08:34:42.003Z</time>
      </trkpt>
      <trkpt lat="54.30516" lon="18.38529">
        <ele>197.607444</ele>
        <time>2024-08-04T08:34:43.977Z</time>
      </trkpt>
      <trkpt lat="54.30521" lon="18.38547">
        <ele>197.287679</ele>
        <time>2024-08-04T08:34:45.967Z</time>
      </trkpt>
      <trkpt lat="54.30527" lon="18.38564">
        <ele>196.953048</ele>
        <time>2024-08-04T08:34:47.960Z</time>
      </trkpt>
      <trkpt lat="54.30533" lon="18.38582">
        <ele>196.615597</ele>
        <time>2024-08-04T08:34:49.960Z</time>
      </trkpt>
      <trkpt lat="54.3054" lon="18.386">
        <ele>196.264482</ele>
        <time>2024-08-04T08:34:52.020Z</time>
      </trkpt>
      <trkpt lat="54.30548" lon="18.38619">
        <ele>195.893972</ele>
        <time>2024-08-04T08:34:53.956Z</time>
      </trkpt>
      <trkpt lat="54.30555" lon="18.38638">
        <ele>195.521691</ele>
        <time>2024-08-04T08:34:55.958Z</time>
      </trkpt>
      <trkpt lat="54.30563" lon="18.38656">
        <ele>195.157465</ele>
        <time>2024-08-04T08:34:57.950Z</time>
      </trkpt>
      <trkpt lat="54.3057" lon="18.38674">
        <ele>194.788952</ele>
        <time>2024-08-04T08:34:59.968Z</time>
      </trkpt>
      <trkpt lat="54.30578" lon="18.38693">
        <ele>194.413739</ele>
        <time>2024-08-04T08:35:01.994Z</time>
      </trkpt>
      <trkpt lat="54.30586" lon="18.38712">
        <ele>194.039872</ele>
        <time>2024-08-04T08:35:03.971Z</time>
      </trkpt>
      <trkpt lat="54.30593" lon="18.38731">
        <ele>193.663535</ele>
        <time>2024-08-04T08:35:05.976Z</time>
      </trkpt>
      <trkpt lat="54.30601" lon="18.38751">
        <ele>193.277067</ele>
        <time>2024-08-04T08:35:07.961Z</time>
      </trkpt>
      <trkpt lat="54.30608" lon="18.3877">
        <ele>192.910743</ele>
        <time>2024-08-04T08:35:09.967Z</time>
      </trkpt>
      <trkpt lat="54.30616" lon="18.38788">
        <ele>192.68973</ele>
        <time>2024-08-04T08:35:12.004Z</time>
      </trkpt>
      <trkpt lat="54.30624" lon="18.38806">
        <ele>192.478982</ele>
        <time>2024-08-04T08:35:13.975Z</time>
      </trkpt>
      <trkpt lat="54.30631" lon="18.38823">
        <ele>192.277956</ele>
        <time>2024-08-04T08:35:15.971Z</time>
      </trkpt>
      <trkpt lat="54.30639" lon="18.3884">
        <ele>192.072909</ele>
        <time>2024-08-04T08:35:17.964Z</time>
      </trkpt>
      <trkpt lat="54.30647" lon="18.38857">
        <ele>191.857432</ele>
        <time>2024-08-04T08:35:19.972Z</time>
      </trkpt>
      <trkpt lat="54.30657" lon="18.38874">
        <ele>191.628507</ele>
        <time>2024-08-04T08:35:22.006Z</time>
      </trkpt>
      <trkpt lat="54.30666" lon="18.38892">
        <ele>191.40657</ele>
        <time>2024-08-04T08:35:23.962Z</time>
      </trkpt>
      <trkpt lat="54.30674" lon="18.38909">
        <ele>191.195261</ele>
        <time>2024-08-04T08:35:25.958Z</time>
      </trkpt>
      <trkpt lat="54.30682" lon="18.38925">
        <ele>190.981617</ele>
        <time>2024-08-04T08:35:27.962Z</time>
      </trkpt>
      <trkpt lat="54.30691" lon="18.38942">
        <ele>190.766866</ele>
        <time>2024-08-04T08:35:29.961Z</time>
      </trkpt>
      <trkpt lat="54.30701" lon="18.38957">
        <ele>190.547305</ele>
        <time>2024-08-04T08:35:32.006Z</time>
      </trkpt>
      <trkpt lat="54.30711" lon="18.38971">
        <ele>190.330861</ele>
        <time>2024-08-04T08:35:33.949Z</time>
      </trkpt>
      <trkpt lat="54.30722" lon="18.38985">
        <ele>190.11646</ele>
        <time>2024-08-04T08:35:35.953Z</time>
      </trkpt>
      <trkpt lat="54.30732" lon="18.38997">
        <ele>189.951286</ele>
        <time>2024-08-04T08:35:37.967Z</time>
      </trkpt>
      <trkpt lat="54.30743" lon="18.39008">
        <ele>189.892932</ele>
        <time>2024-08-04T08:35:39.965Z</time>
      </trkpt>
      <trkpt lat="54.30754" lon="18.3902">
        <ele>189.835195</ele>
        <time>2024-08-04T08:35:41.994Z</time>
      </trkpt>
      <trkpt lat="54.30765" lon="18.39031">
        <ele>189.77703</ele>
        <time>2024-08-04T08:35:43.957Z</time>
      </trkpt>
      <trkpt lat="54.30777" lon="18.39041">
        <ele>189.719086</ele>
        <time>2024-08-04T08:35:45.969Z</time>
      </trkpt>
      <trkpt lat="54.30789" lon="18.3905">
        <ele>189.658489</ele>
        <time>2024-08-04T08:35:47.971Z</time>
      </trkpt>
      <trkpt lat="54.30801" lon="18.39058">
        <ele>189.598149</ele>
        <time>2024-08-04T08:35:49.962Z</time>
      </trkpt>
      <trkpt lat="54.30814" lon="18.39067">
        <ele>189.538784</ele>
        <time>2024-08-04T08:35:52.018Z</time>
      </trkpt>
      <trkpt lat="54.30825" lon="18.39076">
        <ele>189.480368</ele>
        <time>2024-08-04T08:35:53.976Z</time>
      </trkpt>
      <trkpt lat="54.30837" lon="18.39083">
        <ele>189.424995</ele>
        <time>2024-08-04T08:35:55.961Z</time>
      </trkpt>
      <trkpt lat="54.30847" lon="18.39091">
        <ele>189.374256</ele>
        <time>2024-08-04T08:35:57.963Z</time>
      </trkpt>
      <trkpt lat="54.30858" lon="18.39097">
        <ele>189.324418</ele>
        <time>2024-08-04T08:35:59.957Z</time>
      </trkpt>
      <trkpt lat="54.30867" lon="18.39104">
        <ele>189.279068</ele>
        <time>2024-08-04T08:36:01.979Z</time>
      </trkpt>
      <trkpt lat="54.30876" lon="18.3911">
        <ele>189.236007</ele>
        <time>2024-08-04T08:36:03.952Z</time>
      </trkpt>
      <trkpt lat="54.30884" lon="18.39117">
        <ele>189.193833</ele>
        <time>2024-08-04T08:36:05.951Z</time>
      </trkpt>
      <trkpt lat="54.30896" lon="18.39128">
        <ele>189.121732</ele>
        <time>2024-08-04T08:36:08.958Z</time>
      </trkpt>
      <trkpt lat="54.30907" lon="18.39139">
        <ele>189.028428</ele>
        <time>2024-08-04T08:36:11.994Z</time>
      </trkpt>
      <trkpt lat="54.30918" lon="18.39151">
        <ele>188.9351</ele>
        <time>2024-08-04T08:36:14.948Z</time>
      </trkpt>
      <trkpt lat="54.30929" lon="18.39161">
        <ele>188.847727</ele>
        <time>2024-08-04T08:36:17.967Z</time>
      </trkpt>
      <trkpt lat="54.3094" lon="18.39172">
        <ele>188.760152</ele>
        <time>2024-08-04T08:36:20.970Z</time>
      </trkpt>
      <trkpt lat="54.3095" lon="18.39182">
        <ele>188.675034</ele>
        <time>2024-08-04T08:36:23.955Z</time>
      </trkpt>
      <trkpt lat="54.30961" lon="18.39193">
        <ele>188.587647</ele>
        <time>2024-08-04T08:36:26.964Z</time>
      </trkpt>
      <trkpt lat="54.30972" lon="18.39204">
        <ele>188.4968</ele>
        <time>2024-08-04T08:36:29.973Z</time>
      </trkpt>
      <trkpt lat="54.30982" lon="18.39213">
        <ele>188.41551</ele>
        <time>2024-08-04T08:36:32.959Z</time>
      </trkpt>
      <trkpt lat="54.3099" lon="18.39223">
        <ele>188.347272</ele>
        <time>2024-08-04T08:36:36.967Z</time>
      </trkpt>
      <trkpt lat="54.30991" lon="18.39243">
        <ele>188.263456</ele>
        <time>2024-08-04T08:38:47.950Z</time>
      </trkpt>
      <trkpt lat="54.30986" lon="18.39261">
        <ele>188.181076</ele>
        <time>2024-08-04T08:38:52.004Z</time>
      </trkpt>
      <trkpt lat="54.30981" lon="18.39276">
        <ele>188.112974</ele>
        <time>2024-08-04T08:38:54.933Z</time>
      </trkpt>
      <trkpt lat="54.30977" lon="18.39294">
        <ele>188.031869</ele>
        <time>2024-08-04T08:38:58.968Z</time>
      </trkpt>
      <trkpt lat="54.30972" lon="18.3931">
        <ele>187.955551</ele>
        <time>2024-08-04T08:39:02.965Z</time>
      </trkpt>
      <trkpt lat="54.30968" lon="18.39326">
        <ele>187.893953</ele>
        <time>2024-08-04T08:39:06.961Z</time>
      </trkpt>
      <trkpt lat="54.30964" lon="18.39342">
        <ele>188.115199</ele>
        <time>2024-08-04T08:39:09.957Z</time>
      </trkpt>
      <trkpt lat="54.30959" lon="18.39357">
        <ele>188.340905</ele>
        <time>2024-08-04T08:39:12.971Z</time>
      </trkpt>
      <trkpt lat="54.30955" lon="18.39374">
        <ele>188.579106</ele>
        <time>2024-08-04T08:39:15.955Z</time>
      </trkpt>
      <trkpt lat="54.3095" lon="18.39389">
        <ele>188.814704</ele>
        <time>2024-08-04T08:39:18.976Z</time>
      </trkpt>
      <trkpt lat="54.30945" lon="18.39405">
        <ele>189.061572</ele>
        <time>2024-08-04T08:39:22.008Z</time>
      </trkpt>
      <trkpt lat="54.30939" lon="18.39422">
        <ele>189.322376</ele>
        <time>2024-08-04T08:39:24.958Z</time>
      </trkpt>
      <trkpt lat="54.30931" lon="18.39438">
        <ele>189.594277</ele>
        <time>2024-08-04T08:39:27.959Z</time>
      </trkpt>
      <trkpt lat="54.30924" lon="18.39452">
        <ele>189.849829</ele>
        <time>2024-08-04T08:39:30.970Z</time>
      </trkpt>
      <trkpt lat="54.30916" lon="18.39465">
        <ele>190.088429</ele>
        <time>2024-08-04T08:39:33.966Z</time>
      </trkpt>
      <trkpt lat="54.30908" lon="18.39475">
        <ele>190.309954</ele>
        <time>2024-08-04T08:39:36.967Z</time>
      </trkpt>
      <trkpt lat="54.30901" lon="18.39485">
        <ele>190.514897</ele>
        <time>2024-08-04T08:39:42.958Z</time>
      </trkpt>
      <trkpt lat="54.30901" lon="18.39501">
        <ele>190.721428</ele>
        <time>2024-08-04T08:39:48.945Z</time>
      </trkpt>
      <trkpt lat="54.30892" lon="18.3951">
        <ele>190.962401</ele>
        <time>2024-08-04T08:39:54.959Z</time>
      </trkpt>
      <trkpt lat="54.30883" lon="18.39517">
        <ele>191.187662</ele>
        <time>2024-08-04T08:39:57.959Z</time>
      </trkpt>
      <trkpt lat="54.30874" lon="18.39524">
        <ele>191.414373</ele>
        <time>2024-08-04T08:40:00.970Z</time>
      </trkpt>
      <trkpt lat="54.30863" lon="18.39529">
        <ele>191.674255</ele>
        <time>2024-08-04T08:40:03.962Z</time>
      </trkpt>
      <trkpt lat="54.30852" lon="18.39537">
        <ele>191.927045</ele>
        <time>2024-08-04T08:40:06.968Z</time>
      </trkpt>
      <trkpt lat="54.30842" lon="18.39543">
        <ele>192.193161</ele>
        <time>2024-08-04T08:40:09.961Z</time>
      </trkpt>
      <trkpt lat="54.30832" lon="18.3955">
        <ele>192.453623</ele>
        <time>2024-08-04T08:40:12.958Z</time>
      </trkpt>
      <trkpt lat="54.30822" lon="18.39556">
        <ele>192.717848</ele>
        <time>2024-08-04T08:40:15.953Z</time>
      </trkpt>
      <trkpt lat="54.30812" lon="18.39563">
        <ele>192.980042</ele>
        <time>2024-08-04T08:40:18.956Z</time>
      </trkpt>
      <trkpt lat="54.30801" lon="18.3957">
        <ele>193.266297</ele>
        <time>2024-08-04T08:40:22.016Z</time>
      </trkpt>
      <trkpt lat="54.30791" lon="18.39577">
        <ele>193.536335</ele>
        <time>2024-08-04T08:40:24.962Z</time>
      </trkpt>
      <trkpt lat="54.3078" lon="18.39585">
        <ele>193.819162</ele>
        <time>2024-08-04T08:40:27.967Z</time>
      </trkpt>
      <trkpt lat="54.30769" lon="18.39593">
        <ele>194.10318</ele>
        <time>2024-08-04T08:40:30.969Z</time>
      </trkpt>
      <trkpt lat="54.3076" lon="18.39602">
        <ele>194.367175</ele>
        <time>2024-08-04T08:40:33.952Z</time>
      </trkpt>
      <trkpt lat="54.30751" lon="18.39611">
        <ele>194.615571</ele>
        <time>2024-08-04T08:40:36.959Z</time>
      </trkpt>
      <trkpt lat="54.30742" lon="18.39621">
        <ele>194.86805</ele>
        <time>2024-08-04T08:40:39.967Z</time>
      </trkpt>
      <trkpt lat="54.30734" lon="18.39632">
        <ele>195.122884</ele>
        <time>2024-08-04T08:40:42.958Z</time>
      </trkpt>
      <trkpt lat="54.30726" lon="18.39644">
        <ele>195.392358</ele>
        <time>2024-08-04T08:40:45.960Z</time>
      </trkpt>
      <trkpt lat="54.30718" lon="18.39658">
        <ele>195.660251</ele>
        <time>2024-08-04T08:40:48.972Z</time>
      </trkpt>
      <trkpt lat="54.30711" lon="18.39672">
        <ele>195.929912</ele>
        <time>2024-08-04T08:40:52.002Z</time>
      </trkpt>
      <trkpt lat="54.30704" lon="18.39689">
        <ele>196.22205</ele>
        <time>2024-08-04T08:40:54.959Z</time>
      </trkpt>
      <trkpt lat="54.30698" lon="18.39705">
        <ele>196.406397</ele>
        <time>2024-08-04T08:40:57.968Z</time>
      </trkpt>
      <trkpt lat="54.30692" lon="18.39722">
        <ele>196.51255</ele>
        <time>2024-08-04T08:41:00.969Z</time>
      </trkpt>
      <trkpt lat="54.30687" lon="18.3974">
        <ele>196.61605</ele>
        <time>2024-08-04T08:41:03.959Z</time>
      </trkpt>
      <trkpt lat="54.30682" lon="18.39757">
        <ele>196.72252</ele>
        <time>2024-08-04T08:41:06.970Z</time>
      </trkpt>
      <trkpt lat="54.30678" lon="18.39775">
        <ele>196.827344</ele>
        <time>2024-08-04T08:41:09.963Z</time>
      </trkpt>
      <trkpt lat="54.30674" lon="18.39793">
        <ele>196.929029</ele>
        <time>2024-08-04T08:41:12.961Z</time>
      </trkpt>
      <trkpt lat="54.3067" lon="18.39812">
        <ele>197.035352</ele>
        <time>2024-08-04T08:41:15.962Z</time>
      </trkpt>
      <trkpt lat="54.30666" lon="18.3983">
        <ele>197.138922</ele>
        <time>2024-08-04T08:41:18.967Z</time>
      </trkpt>
      <trkpt lat="54.30663" lon="18.39849">
        <ele>197.245851</ele>
        <time>2024-08-04T08:41:22.009Z</time>
      </trkpt>
      <trkpt lat="54.30659" lon="18.39866">
        <ele>197.348486</ele>
        <time>2024-08-04T08:41:24.970Z</time>
      </trkpt>
      <trkpt lat="54.30655" lon="18.39886">
        <ele>197.458361</ele>
        <time>2024-08-04T08:41:27.960Z</time>
      </trkpt>
      <trkpt lat="54.3065" lon="18.39905">
        <ele>197.567538</ele>
        <time>2024-08-04T08:41:30.963Z</time>
      </trkpt>
      <trkpt lat="54.30646" lon="18.39924">
        <ele>197.679754</ele>
        <time>2024-08-04T08:41:33.963Z</time>
      </trkpt>
      <trkpt lat="54.30642" lon="18.39945">
        <ele>197.801809</ele>
        <time>2024-08-04T08:41:36.981Z</time>
      </trkpt>
      <trkpt lat="54.30639" lon="18.3996">
        <ele>197.884929</ele>
        <time>2024-08-04T08:41:38.972Z</time>
      </trkpt>
      <trkpt lat="54.30635" lon="18.39975">
        <ele>197.971494</ele>
        <time>2024-08-04T08:41:40.967Z</time>
      </trkpt>
      <trkpt lat="54.30633" lon="18.3999">
        <ele>197.955079</ele>
        <time>2024-08-04T08:41:42.957Z</time>
      </trkpt>
      <trkpt lat="54.30628" lon="18.40011">
        <ele>197.818116</ele>
        <time>2024-08-04T08:41:45.967Z</time>
      </trkpt>
      <trkpt lat="54.30623" lon="18.40031">
        <ele>197.68474</ele>
        <time>2024-08-04T08:41:48.955Z</time>
      </trkpt>
      <trkpt lat="54.30618" lon="18.40051">
        <ele>197.554651</ele>
        <time>2024-08-04T08:41:52.003Z</time>
      </trkpt>
      <trkpt lat="54.30613" lon="18.40072">
        <ele>197.415624</ele>
        <time>2024-08-04T08:41:54.974Z</time>
      </trkpt>
      <trkpt lat="54.30609" lon="18.40087">
        <ele>197.319922</ele>
        <time>2024-08-04T08:41:56.956Z</time>
      </trkpt>
      <trkpt lat="54.30606" lon="18.40101">
        <ele>197.223669</ele>
        <time>2024-08-04T08:41:58.966Z</time>
      </trkpt>
      <trkpt lat="54.30601" lon="18.40116">
        <ele>197.126791</ele>
        <time>2024-08-04T08:42:00.966Z</time>
      </trkpt>
      <trkpt lat="54.30596" lon="18.4013">
        <ele>197.024273</ele>
        <time>2024-08-04T08:42:02.966Z</time>
      </trkpt>
      <trkpt lat="54.30592" lon="18.40146">
        <ele>196.918805</ele>
        <time>2024-08-04T08:42:04.974Z</time>
      </trkpt>
      <trkpt lat="54.30587" lon="18.40162">
        <ele>196.811879</ele>
        <time>2024-08-04T08:42:06.970Z</time>
      </trkpt>
      <trkpt lat="54.30584" lon="18.40177">
        <ele>196.711884</ele>
        <time>2024-08-04T08:42:08.967Z</time>
      </trkpt>
      <trkpt lat="54.30577" lon="18.40195">
        <ele>196.58531</ele>
        <time>2024-08-04T08:42:11.959Z</time>
      </trkpt>
      <trkpt lat="54.30573" lon="18.40211">
        <ele>196.478381</ele>
        <time>2024-08-04T08:42:16.966Z</time>
      </trkpt>
      <trkpt lat="54.30568" lon="18.40226">
        <ele>196.370634</ele>
        <time>2024-08-04T08:42:20.951Z</time>
      </trkpt>
      <trkpt lat="54.30563" lon="18.4024">
        <ele>196.273806</ele>
        <time>2024-08-04T08:42:23.953Z</time>
      </trkpt>
      <trkpt lat="54.30558" lon="18.40256">
        <ele>196.162871</ele>
        <time>2024-08-04T08:42:26.967Z</time>
      </trkpt>
      <trkpt lat="54.30552" lon="18.40274">
        <ele>196.094387</ele>
        <time>2024-08-04T08:42:29.983Z</time>
      </trkpt>
      <trkpt lat="54.30546" lon="18.40294">
        <ele>196.029628</ele>
        <time>2024-08-04T08:42:32.955Z</time>
      </trkpt>
      <trkpt lat="54.3054" lon="18.40315">
        <ele>195.9663</ele>
        <time>2024-08-04T08:42:35.955Z</time>
      </trkpt>
      <trkpt lat="54.30533" lon="18.40335">
        <ele>195.901295</ele>
        <time>2024-08-04T08:42:38.954Z</time>
      </trkpt>
      <trkpt lat="54.30527" lon="18.40356">
        <ele>195.836781</ele>
        <time>2024-08-04T08:42:41.999Z</time>
      </trkpt>
      <trkpt lat="54.30522" lon="18.40369">
        <ele>195.792748</ele>
        <time>2024-08-04T08:42:43.962Z</time>
      </trkpt>
      <trkpt lat="54.30518" lon="18.40384">
        <ele>195.747471</ele>
        <time>2024-08-04T08:42:45.974Z</time>
      </trkpt>
      <trkpt lat="54.30514" lon="18.40398">
        <ele>195.702999</ele>
        <time>2024-08-04T08:42:47.963Z</time>
      </trkpt>
      <trkpt lat="54.3051" lon="18.40413">
        <ele>195.657617</ele>
        <time>2024-08-04T08:42:49.958Z</time>
      </trkpt>
      <trkpt lat="54.30506" lon="18.40427">
        <ele>195.612775</ele>
        <time>2024-08-04T08:42:51.994Z</time>
      </trkpt>
      <trkpt lat="54.30503" lon="18.40442">
        <ele>195.568872</ele>
        <time>2024-08-04T08:42:53.963Z</time>
      </trkpt>
      <trkpt lat="54.30498" lon="18.40463">
        <ele>195.507082</ele>
        <time>2024-08-04T08:42:56.970Z</time>
      </trkpt>
      <trkpt lat="54.30495" lon="18.40482">
        <ele>195.452498</ele>
        <time>2024-08-04T08:42:59.957Z</time>
      </trkpt>
      <trkpt lat="54.30491" lon="18.405">
        <ele>195.400059</ele>
        <time>2024-08-04T08:43:03.943Z</time>
      </trkpt>
      <trkpt lat="54.30487" lon="18.40514">
        <ele>195.356389</ele>
        <time>2024-08-04T08:43:06.964Z</time>
      </trkpt>
      <trkpt lat="54.30485" lon="18.4053">
        <ele>195.310438</ele>
        <time>2024-08-04T08:43:09.957Z</time>
      </trkpt>
      <trkpt lat="54.30482" lon="18.40548">
        <ele>195.310865</ele>
        <time>2024-08-04T08:43:13.951Z</time>
      </trkpt>
      <trkpt lat="54.30479" lon="18.40568">
        <ele>195.377438</ele>
        <time>2024-08-04T08:43:17.957Z</time>
      </trkpt>
      <trkpt lat="54.30477" lon="18.40585">
        <ele>195.432875</ele>
        <time>2024-08-04T08:43:20.966Z</time>
      </trkpt>
      <trkpt lat="54.30475" lon="18.40602">
        <ele>195.488462</ele>
        <time>2024-08-04T08:43:23.957Z</time>
      </trkpt>
      <trkpt lat="54.30473" lon="18.40622">
        <ele>195.552823</ele>
        <time>2024-08-04T08:43:27.956Z</time>
      </trkpt>
      <trkpt lat="54.30469" lon="18.4064">
        <ele>195.616304</ele>
        <time>2024-08-04T08:43:31.940Z</time>
      </trkpt>
      <trkpt lat="54.30466" lon="18.40655">
        <ele>195.665413</ele>
        <time>2024-08-04T08:43:34.968Z</time>
      </trkpt>
      <trkpt lat="54.30464" lon="18.40672">
        <ele>195.722184</ele>
        <time>2024-08-04T08:43:37.952Z</time>
      </trkpt>
      <trkpt lat="54.3046" lon="18.4069">
        <ele>195.780196</ele>
        <time>2024-08-04T08:43:40.975Z</time>
      </trkpt>
      <trkpt lat="54.30458" lon="18.40708">
        <ele>195.841223</ele>
        <time>2024-08-04T08:43:43.986Z</time>
      </trkpt>
      <trkpt lat="54.30453" lon="18.40726">
        <ele>195.903639</ele>
        <time>2024-08-04T08:43:46.962Z</time>
      </trkpt>
      <trkpt lat="54.3045" lon="18.40746">
        <ele>195.968202</ele>
        <time>2024-08-04T08:43:49.958Z</time>
      </trkpt>
      <trkpt lat="54.30447" lon="18.40766">
        <ele>196.033269</ele>
        <time>2024-08-04T08:43:52.971Z</time>
      </trkpt>
      <trkpt lat="54.30447" lon="18.40784">
        <ele>196.090332</ele>
        <time>2024-08-04T08:43:55.957Z</time>
      </trkpt>
      <trkpt lat="54.30442" lon="18.40799">
        <ele>196.145981</ele>
        <time>2024-08-04T08:43:58.959Z</time>
      </trkpt>
      <trkpt lat="54.30435" lon="18.40814">
        <ele>196.206525</ele>
        <time>2024-08-04T08:44:01.955Z</time>
      </trkpt>
      <trkpt lat="54.30431" lon="18.40833">
        <ele>196.269385</ele>
        <time>2024-08-04T08:44:04.957Z</time>
      </trkpt>
      <trkpt lat="54.30427" lon="18.40852">
        <ele>196.319689</ele>
        <time>2024-08-04T08:44:07.956Z</time>
      </trkpt>
      <trkpt lat="54.30422" lon="18.40872">
        <ele>196.372908</ele>
        <time>2024-08-04T08:44:10.973Z</time>
      </trkpt>
      <trkpt lat="54.3042" lon="18.40888">
        <ele>196.414805</ele>
        <time>2024-08-04T08:44:13.958Z</time>
      </trkpt>
      <trkpt lat="54.30415" lon="18.40902">
        <ele>196.455155</ele>
        <time>2024-08-04T08:44:16.949Z</time>
      </trkpt>
      <trkpt lat="54.30411" lon="18.40918">
        <ele>196.497538</ele>
        <time>2024-08-04T08:44:19.967Z</time>
      </trkpt>
      <trkpt lat="54.30406" lon="18.40935">
        <ele>196.54422</ele>
        <time>2024-08-04T08:44:22.956Z</time>
      </trkpt>
      <trkpt lat="54.30401" lon="18.40953">
        <ele>196.592792</ele>
        <time>2024-08-04T08:44:25.962Z</time>
      </trkpt>
      <trkpt lat="54.30397" lon="18.4097">
        <ele>196.640911</ele>
        <time>2024-08-04T08:44:28.962Z</time>
      </trkpt>
      <trkpt lat="54.30392" lon="18.40988">
        <ele>196.689257</ele>
        <time>2024-08-04T08:44:32.017Z</time>
      </trkpt>
      <trkpt lat="54.30388" lon="18.41006">
        <ele>196.736475</ele>
        <time>2024-08-04T08:44:34.960Z</time>
      </trkpt>
      <trkpt lat="54.30383" lon="18.41025">
        <ele>196.786864</ele>
        <time>2024-08-04T08:44:37.975Z</time>
      </trkpt>
      <trkpt lat="54.30378" lon="18.41042">
        <ele>196.834528</ele>
        <time>2024-08-04T08:44:40.972Z</time>
      </trkpt>
      <trkpt lat="54.30373" lon="18.4106">
        <ele>196.88484</ele>
        <time>2024-08-04T08:44:43.967Z</time>
      </trkpt>
      <trkpt lat="54.30369" lon="18.41078">
        <ele>196.932657</ele>
        <time>2024-08-04T08:44:46.953Z</time>
      </trkpt>
      <trkpt lat="54.30361" lon="18.41093">
        <ele>196.983284</ele>
        <time>2024-08-04T08:44:50.948Z</time>
      </trkpt>
      <trkpt lat="54.30354" lon="18.41109">
        <ele>197.018262</ele>
        <time>2024-08-04T08:44:53.938Z</time>
      </trkpt>
      <trkpt lat="54.30349" lon="18.41128">
        <ele>196.861419</ele>
        <time>2024-08-04T08:44:56.970Z</time>
      </trkpt>
      <trkpt lat="54.30344" lon="18.41147">
        <ele>196.7012</ele>
        <time>2024-08-04T08:44:59.963Z</time>
      </trkpt>
      <trkpt lat="54.30339" lon="18.41168">
        <ele>196.538322</ele>
        <time>2024-08-04T08:45:02.968Z</time>
      </trkpt>
      <trkpt lat="54.30335" lon="18.41182">
        <ele>196.421632</ele>
        <time>2024-08-04T08:45:04.958Z</time>
      </trkpt>
      <trkpt lat="54.30332" lon="18.41197">
        <ele>196.29912</ele>
        <time>2024-08-04T08:45:06.956Z</time>
      </trkpt>
      <trkpt lat="54.30328" lon="18.41212">
        <ele>196.176999</ele>
        <time>2024-08-04T08:45:08.961Z</time>
      </trkpt>
      <trkpt lat="54.30324" lon="18.41228">
        <ele>196.050214</ele>
        <time>2024-08-04T08:45:10.972Z</time>
      </trkpt>
      <trkpt lat="54.3032" lon="18.41243">
        <ele>195.928774</ele>
        <time>2024-08-04T08:45:12.990Z</time>
      </trkpt>
      <trkpt lat="54.30316" lon="18.41258">
        <ele>195.80342</ele>
        <time>2024-08-04T08:45:14.958Z</time>
      </trkpt>
      <trkpt lat="54.30312" lon="18.41274">
        <ele>195.675413</ele>
        <time>2024-08-04T08:45:16.970Z</time>
      </trkpt>
      <trkpt lat="54.30308" lon="18.41289">
        <ele>195.550229</ele>
        <time>2024-08-04T08:45:18.954Z</time>
      </trkpt>
      <trkpt lat="54.30304" lon="18.41304">
        <ele>195.43202</ele>
        <time>2024-08-04T08:45:20.969Z</time>
      </trkpt>
      <trkpt lat="54.30301" lon="18.41319">
        <ele>195.312553</ele>
        <time>2024-08-04T08:45:22.972Z</time>
      </trkpt>
      <trkpt lat="54.30298" lon="18.41335">
        <ele>195.185826</ele>
        <time>2024-08-04T08:45:24.962Z</time>
      </trkpt>
      <trkpt lat="54.30294" lon="18.41351">
        <ele>195.056369</ele>
        <time>2024-08-04T08:45:26.965Z</time>
      </trkpt>
      <trkpt lat="54.3029" lon="18.41368">
        <ele>194.918586</ele>
        <time>2024-08-04T08:45:28.974Z</time>
      </trkpt>
      <trkpt lat="54.30285" lon="18.41386">
        <ele>194.777374</ele>
        <time>2024-08-04T08:45:30.956Z</time>
      </trkpt>
      <trkpt lat="54.30281" lon="18.41404">
        <ele>194.67549</ele>
        <time>2024-08-04T08:45:32.973Z</time>
      </trkpt>
      <trkpt lat="54.30276" lon="18.41423">
        <ele>194.591098</ele>
        <time>2024-08-04T08:45:34.953Z</time>
      </trkpt>
      <trkpt lat="54.30272" lon="18.41439">
        <ele>194.513774</ele>
        <time>2024-08-04T08:45:36.958Z</time>
      </trkpt>
      <trkpt lat="54.30269" lon="18.41458">
        <ele>194.428848</ele>
        <time>2024-08-04T08:45:39.973Z</time>
      </trkpt>
      <trkpt lat="54.3027" lon="18.41477">
        <ele>194.347126</ele>
        <time>2024-08-04T08:45:42.960Z</time>
      </trkpt>
      <trkpt lat="54.30266" lon="18.41493">
        <ele>194.27314</ele>
        <time>2024-08-04T08:45:45.946Z</time>
      </trkpt>
      <trkpt lat="54.30262" lon="18.4151">
        <ele>194.192228</ele>
        <time>2024-08-04T08:45:48.965Z</time>
      </trkpt>
      <trkpt lat="54.30257" lon="18.41529">
        <ele>194.108115</ele>
        <time>2024-08-04T08:45:51.985Z</time>
      </trkpt>
      <trkpt lat="54.30253" lon="18.41548">
        <ele>194.019995</ele>
        <time>2024-08-04T08:45:54.963Z</time>
      </trkpt>
      <trkpt lat="54.30248" lon="18.41567">
        <ele>193.929831</ele>
        <time>2024-08-04T08:45:57.959Z</time>
      </trkpt>
      <trkpt lat="54.30243" lon="18.41588">
        <ele>193.833463</ele>
        <time>2024-08-04T08:46:00.969Z</time>
      </trkpt>
      <trkpt lat="54.30239" lon="18.41602">
        <ele>193.765844</ele>
        <time>2024-08-04T08:46:02.960Z</time>
      </trkpt>
      <trkpt lat="54.30235" lon="18.41617">
        <ele>193.69687</ele>
        <time>2024-08-04T08:46:04.967Z</time>
      </trkpt>
      <trkpt lat="54.30232" lon="18.41631">
        <ele>193.628857</ele>
        <time>2024-08-04T08:46:06.979Z</time>
      </trkpt>
      <trkpt lat="54.30227" lon="18.41652">
        <ele>193.533197</ele>
        <time>2024-08-04T08:46:09.959Z</time>
      </trkpt>
      <trkpt lat="54.3022" lon="18.41671">
        <ele>193.436257</ele>
        <time>2024-08-04T08:46:12.971Z</time>
      </trkpt>
      <trkpt lat="54.30215" lon="18.41685">
        <ele>193.347019</ele>
        <time>2024-08-04T08:46:14.957Z</time>
      </trkpt>
      <trkpt lat="54.30209" lon="18.41697">
        <ele>193.253806</ele>
        <time>2024-08-04T08:46:16.968Z</time>
      </trkpt>
      <trkpt lat="54.30203" lon="18.4171">
        <ele>193.158216</ele>
        <time>2024-08-04T08:46:18.957Z</time>
      </trkpt>
      <trkpt lat="54.30197" lon="18.41722">
        <ele>193.061525</ele>
        <time>2024-08-04T08:46:20.957Z</time>
      </trkpt>
      <trkpt lat="54.3019" lon="18.41733">
        <ele>192.966062</ele>
        <time>2024-08-04T08:46:22.974Z</time>
      </trkpt>
      <trkpt lat="54.30183" lon="18.41745">
        <ele>192.865944</ele>
        <time>2024-08-04T08:46:24.969Z</time>
      </trkpt>
      <trkpt lat="54.30175" lon="18.41754">
        <ele>192.768849</ele>
        <time>2024-08-04T08:46:26.971Z</time>
      </trkpt>
      <trkpt lat="54.30168" lon="18.41763">
        <ele>192.673077</ele>
        <time>2024-08-04T08:46:28.959Z</time>
      </trkpt>
      <trkpt lat="54.30159" lon="18.41771">
        <ele>192.573406</ele>
        <time>2024-08-04T08:46:30.972Z</time>
      </trkpt>
      <trkpt lat="54.30151" lon="18.4178">
        <ele>192.472235</ele>
        <time>2024-08-04T08:46:32.951Z</time>
      </trkpt>
      <trkpt lat="54.30142" lon="18.41786">
        <ele>192.373143</ele>
        <time>2024-08-04T08:46:34.956Z</time>
      </trkpt>
      <trkpt lat="54.30133" lon="18.41792">
        <ele>192.274344</ele>
        <time>2024-08-04T08:46:36.966Z</time>
      </trkpt>
      <trkpt lat="54.3012" lon="18.41798">
        <ele>192.139538</ele>
        <time>2024-08-04T08:46:39.972Z</time>
      </trkpt>
      <trkpt lat="54.30111" lon="18.41802">
        <ele>192.047227</ele>
        <time>2024-08-04T08:46:41.982Z</time>
      </trkpt>
      <trkpt lat="54.30102" lon="18.4181">
        <ele>191.944298</ele>
        <time>2024-08-04T08:46:44.952Z</time>
      </trkpt>
      <trkpt lat="54.30094" lon="18.41818">
        <ele>191.85112</ele>
        <time>2024-08-04T08:46:47.955Z</time>
      </trkpt>
      <trkpt lat="54.30084" lon="18.41816">
        <ele>191.746213</ele>
        <time>2024-08-04T08:46:50.960Z</time>
      </trkpt>
      <trkpt lat="54.30076" lon="18.41807">
        <ele>191.649076</ele>
        <time>2024-08-04T08:46:54.963Z</time>
      </trkpt>
      <trkpt lat="54.30065" lon="18.41805">
        <ele>191.4767</ele>
        <time>2024-08-04T08:46:58.963Z</time>
      </trkpt>
      <trkpt lat="54.30055" lon="18.41803">
        <ele>191.248262</ele>
        <time>2024-08-04T08:47:02.975Z</time>
      </trkpt>
      <trkpt lat="54.30046" lon="18.41801">
        <ele>191.029364</ele>
        <time>2024-08-04T08:47:06.955Z</time>
      </trkpt>
      <trkpt lat="54.30042" lon="18.41803">
        <ele>190.919969</ele>
        <time>2024-08-04T08:49:31.355Z</time>
      </trkpt>
      <trkpt lat="54.30032" lon="18.41798">
        <ele>190.677814</ele>
        <time>2024-08-04T08:51:13.952Z</time>
      </trkpt>
      <trkpt lat="54.30024" lon="18.41789">
        <ele>190.44176</ele>
        <time>2024-08-04T08:51:19.953Z</time>
      </trkpt>
      <trkpt lat="54.30015" lon="18.41778">
        <ele>190.188455</ele>
        <time>2024-08-04T08:51:24.943Z</time>
      </trkpt>
      <trkpt lat="54.30006" lon="18.41775">
        <ele>189.968796</ele>
        <time>2024-08-04T08:51:27.967Z</time>
      </trkpt>
      <trkpt lat="54.29996" lon="18.41771">
        <ele>189.736867</ele>
        <time>2024-08-04T08:51:30.947Z</time>
      </trkpt>
      <trkpt lat="54.29985" lon="18.41769">
        <ele>189.479808</ele>
        <time>2024-08-04T08:51:33.960Z</time>
      </trkpt>
      <trkpt lat="54.29975" lon="18.41767">
        <ele>189.23848</ele>
        <time>2024-08-04T08:51:36.974Z</time>
      </trkpt>
      <trkpt lat="54.29963" lon="18.41765">
        <ele>188.953894</ele>
        <time>2024-08-04T08:51:39.954Z</time>
      </trkpt>
      <trkpt lat="54.29952" lon="18.41765">
        <ele>188.679865</ele>
        <time>2024-08-04T08:51:42.927Z</time>
      </trkpt>
      <trkpt lat="54.29939" lon="18.41765">
        <ele>188.377619</ele>
        <time>2024-08-04T08:51:45.952Z</time>
      </trkpt>
      <trkpt lat="54.2993" lon="18.41766">
        <ele>188.162465</ele>
        <time>2024-08-04T08:51:47.950Z</time>
      </trkpt>
      <trkpt lat="54.29921" lon="18.41767">
        <ele>187.94457</ele>
        <time>2024-08-04T08:51:49.953Z</time>
      </trkpt>
      <trkpt lat="54.29911" lon="18.41769">
        <ele>187.71468</ele>
        <time>2024-08-04T08:51:52.010Z</time>
      </trkpt>
      <trkpt lat="54.29901" lon="18.41772">
        <ele>187.484343</ele>
        <time>2024-08-04T08:51:53.961Z</time>
      </trkpt>
      <trkpt lat="54.29891" lon="18.41776">
        <ele>187.241816</ele>
        <time>2024-08-04T08:51:55.955Z</time>
      </trkpt>
      <trkpt lat="54.2988" lon="18.41781">
        <ele>186.978076</ele>
        <time>2024-08-04T08:51:57.952Z</time>
      </trkpt>
      <trkpt lat="54.29869" lon="18.41787">
        <ele>186.703975</ele>
        <time>2024-08-04T08:51:59.963Z</time>
      </trkpt>
      <trkpt lat="54.29857" lon="18.41794">
        <ele>186.427269</ele>
        <time>2024-08-04T08:52:02.011Z</time>
      </trkpt>
      <trkpt lat="54.29846" lon="18.41802">
        <ele>186.13626</ele>
        <time>2024-08-04T08:52:03.953Z</time>
      </trkpt>
      <trkpt lat="54.29834" lon="18.41813">
        <ele>185.822182</ele>
        <time>2024-08-04T08:52:05.951Z</time>
      </trkpt>
      <trkpt lat="54.29822" lon="18.41825">
        <ele>185.511605</ele>
        <time>2024-08-04T08:52:07.941Z</time>
      </trkpt>
      <trkpt lat="54.29811" lon="18.41838">
        <ele>185.201074</ele>
        <time>2024-08-04T08:52:09.953Z</time>
      </trkpt>
      <trkpt lat="54.298" lon="18.41852">
        <ele>184.88178</ele>
        <time>2024-08-04T08:52:11.966Z</time>
      </trkpt>
      <trkpt lat="54.29788" lon="18.41865">
        <ele>184.559475</ele>
        <time>2024-08-04T08:52:13.941Z</time>
      </trkpt>
      <trkpt lat="54.29777" lon="18.4188">
        <ele>184.240352</ele>
        <time>2024-08-04T08:52:15.946Z</time>
      </trkpt>
      <trkpt lat="54.29766" lon="18.41895">
        <ele>183.908152</ele>
        <time>2024-08-04T08:52:17.947Z</time>
      </trkpt>
      <trkpt lat="54.29755" lon="18.4191">
        <ele>183.573143</ele>
        <time>2024-08-04T08:52:19.956Z</time>
      </trkpt>
      <trkpt lat="54.29743" lon="18.41925">
        <ele>183.235991</ele>
        <time>2024-08-04T08:52:21.966Z</time>
      </trkpt>
      <trkpt lat="54.29731" lon="18.41938">
        <ele>183.168598</ele>
        <time>2024-08-04T08:52:23.948Z</time>
      </trkpt>
      <trkpt lat="54.2972" lon="18.4195">
        <ele>183.149417</ele>
        <time>2024-08-04T08:52:25.952Z</time>
      </trkpt>
      <trkpt lat="54.29708" lon="18.41962">
        <ele>183.130505</ele>
        <time>2024-08-04T08:52:27.969Z</time>
      </trkpt>
      <trkpt lat="54.29697" lon="18.41972">
        <ele>183.112257</ele>
        <time>2024-08-04T08:52:29.950Z</time>
      </trkpt>
      <trkpt lat="54.29686" lon="18.41981">
        <ele>183.095229</ele>
        <time>2024-08-04T08:52:31.969Z</time>
      </trkpt>
      <trkpt lat="54.29676" lon="18.41989">
        <ele>183.079424</ele>
        <time>2024-08-04T08:52:33.961Z</time>
      </trkpt>
      <trkpt lat="54.29667" lon="18.41997">
        <ele>183.064825</ele>
        <time>2024-08-04T08:52:35.952Z</time>
      </trkpt>
      <trkpt lat="54.29657" lon="18.42005">
        <ele>183.048952</ele>
        <time>2024-08-04T08:52:37.953Z</time>
      </trkpt>
      <trkpt lat="54.29647" lon="18.42013">
        <ele>183.033197</ele>
        <time>2024-08-04T08:52:39.955Z</time>
      </trkpt>
      <trkpt lat="54.29638" lon="18.4202">
        <ele>183.018313</ele>
        <time>2024-08-04T08:52:41.995Z</time>
      </trkpt>
      <trkpt lat="54.29628" lon="18.42027">
        <ele>183.003035</ele>
        <time>2024-08-04T08:52:43.948Z</time>
      </trkpt>
      <trkpt lat="54.2962" lon="18.42034">
        <ele>182.989883</ele>
        <time>2024-08-04T08:52:45.951Z</time>
      </trkpt>
      <trkpt lat="54.29612" lon="18.42043">
        <ele>182.975975</ele>
        <time>2024-08-04T08:52:47.959Z</time>
      </trkpt>
      <trkpt lat="54.29603" lon="18.4205">
        <ele>182.962169</ele>
        <time>2024-08-04T08:52:49.980Z</time>
      </trkpt>
      <trkpt lat="54.29595" lon="18.4206">
        <ele>182.948145</ele>
        <time>2024-08-04T08:52:51.999Z</time>
      </trkpt>
      <trkpt lat="54.29588" lon="18.42071">
        <ele>182.934054</ele>
        <time>2024-08-04T08:52:53.951Z</time>
      </trkpt>
      <trkpt lat="54.29578" lon="18.42082">
        <ele>183.050824</ele>
        <time>2024-08-04T08:52:55.947Z</time>
      </trkpt>
      <trkpt lat="54.29569" lon="18.42092">
        <ele>183.246849</ele>
        <time>2024-08-04T08:52:57.955Z</time>
      </trkpt>
      <trkpt lat="54.2956" lon="18.42101">
        <ele>183.425315</ele>
        <time>2024-08-04T08:52:59.960Z</time>
      </trkpt>
      <trkpt lat="54.29552" lon="18.4211">
        <ele>183.599805</ele>
        <time>2024-08-04T08:53:02.000Z</time>
      </trkpt>
      <trkpt lat="54.29544" lon="18.4212">
        <ele>183.778121</ele>
        <time>2024-08-04T08:53:03.937Z</time>
      </trkpt>
      <trkpt lat="54.29535" lon="18.42129">
        <ele>183.954193</ele>
        <time>2024-08-04T08:53:05.968Z</time>
      </trkpt>
      <trkpt lat="54.29527" lon="18.42139">
        <ele>184.131318</ele>
        <time>2024-08-04T08:53:07.958Z</time>
      </trkpt>
      <trkpt lat="54.29519" lon="18.42147">
        <ele>184.295497</ele>
        <time>2024-08-04T08:53:09.956Z</time>
      </trkpt>
      <trkpt lat="54.29511" lon="18.42157">
        <ele>184.465433</ele>
        <time>2024-08-04T08:53:11.982Z</time>
      </trkpt>
      <trkpt lat="54.29501" lon="18.42171">
        <ele>184.700513</ele>
        <time>2024-08-04T08:53:14.962Z</time>
      </trkpt>
      <trkpt lat="54.29491" lon="18.42185">
        <ele>184.933947</ele>
        <time>2024-08-04T08:53:17.959Z</time>
      </trkpt>
      <trkpt lat="54.29483" lon="18.42201">
        <ele>185.150693</ele>
        <time>2024-08-04T08:53:20.956Z</time>
      </trkpt>
      <trkpt lat="54.29475" lon="18.42216">
        <ele>185.358436</ele>
        <time>2024-08-04T08:53:23.970Z</time>
      </trkpt>
      <trkpt lat="54.29468" lon="18.42231">
        <ele>185.55783</ele>
        <time>2024-08-04T08:53:26.953Z</time>
      </trkpt>
      <trkpt lat="54.29462" lon="18.42246">
        <ele>185.743153</ele>
        <time>2024-08-04T08:53:29.958Z</time>
      </trkpt>
      <trkpt lat="54.29457" lon="18.42262">
        <ele>185.935183</ele>
        <time>2024-08-04T08:53:32.968Z</time>
      </trkpt>
      <trkpt lat="54.29452" lon="18.42278">
        <ele>186.122773</ele>
        <time>2024-08-04T08:53:35.971Z</time>
      </trkpt>
      <trkpt lat="54.29448" lon="18.42295">
        <ele>186.574867</ele>
        <time>2024-08-04T08:53:38.970Z</time>
      </trkpt>
      <trkpt lat="54.29443" lon="18.4231">
        <ele>186.972799</ele>
        <time>2024-08-04T08:53:42.005Z</time>
      </trkpt>
      <trkpt lat="54.29439" lon="18.42329">
        <ele>187.457049</ele>
        <time>2024-08-04T08:53:45.958Z</time>
      </trkpt>
      <trkpt lat="54.29434" lon="18.42346">
        <ele>187.913414</ele>
        <time>2024-08-04T08:53:49.963Z</time>
      </trkpt>
      <trkpt lat="54.29429" lon="18.42363">
        <ele>188.368261</ele>
        <time>2024-08-04T08:53:53.957Z</time>
      </trkpt>
      <trkpt lat="54.29424" lon="18.42381">
        <ele>188.838996</ele>
        <time>2024-08-04T08:53:57.961Z</time>
      </trkpt>
      <trkpt lat="54.2942" lon="18.42399">
        <ele>189.316823</ele>
        <time>2024-08-04T08:54:02.013Z</time>
      </trkpt>
      <trkpt lat="54.29416" lon="18.42413">
        <ele>189.686128</ele>
        <time>2024-08-04T08:54:04.978Z</time>
      </trkpt>
      <trkpt lat="54.29412" lon="18.42432">
        <ele>190.163311</ele>
        <time>2024-08-04T08:54:08.956Z</time>
      </trkpt>
      <trkpt lat="54.29406" lon="18.4245">
        <ele>190.650146</ele>
        <time>2024-08-04T08:54:12.958Z</time>
      </trkpt>
      <trkpt lat="54.29402" lon="18.42468">
        <ele>191.114717</ele>
        <time>2024-08-04T08:54:16.964Z</time>
      </trkpt>
      <trkpt lat="54.29397" lon="18.42486">
        <ele>191.592938</ele>
        <time>2024-08-04T08:54:20.969Z</time>
      </trkpt>
      <trkpt lat="54.29393" lon="18.42504">
        <ele>192.041107</ele>
        <time>2024-08-04T08:54:24.973Z</time>
      </trkpt>
      <trkpt lat="54.29389" lon="18.42521">
        <ele>192.496876</ele>
        <time>2024-08-04T08:54:28.963Z</time>
      </trkpt>
      <trkpt lat="54.29385" lon="18.42536">
        <ele>192.878184</ele>
        <time>2024-08-04T08:54:32.005Z</time>
      </trkpt>
      <trkpt lat="54.29382" lon="18.42551">
        <ele>193.264578</ele>
        <time>2024-08-04T08:54:34.973Z</time>
      </trkpt>
      <trkpt lat="54.29378" lon="18.42565">
        <ele>193.550845</ele>
        <time>2024-08-04T08:54:37.976Z</time>
      </trkpt>
      <trkpt lat="54.29376" lon="18.42583">
        <ele>193.742571</ele>
        <time>2024-08-04T08:54:41.984Z</time>
      </trkpt>
      <trkpt lat="54.29378" lon="18.426">
        <ele>193.916117</ele>
        <time>2024-08-04T08:54:45.967Z</time>
      </trkpt>
      <trkpt lat="54.29372" lon="18.42618">
        <ele>194.12213</ele>
        <time>2024-08-04T08:54:49.969Z</time>
      </trkpt>
      <trkpt lat="54.29367" lon="18.42637">
        <ele>194.342144</ele>
        <time>2024-08-04T08:54:53.969Z</time>
      </trkpt>
      <trkpt lat="54.29362" lon="18.42654">
        <ele>194.540662</ele>
        <time>2024-08-04T08:54:56.975Z</time>
      </trkpt>
      <trkpt lat="54.29357" lon="18.42673">
        <ele>194.756588</ele>
        <time>2024-08-04T08:54:59.958Z</time>
      </trkpt>
      <trkpt lat="54.29352" lon="18.42692">
        <ele>194.96282</ele>
        <time>2024-08-04T08:55:02.963Z</time>
      </trkpt>
      <trkpt lat="54.29348" lon="18.42711">
        <ele>195.174326</ele>
        <time>2024-08-04T08:55:05.968Z</time>
      </trkpt>
      <trkpt lat="54.29342" lon="18.42729">
        <ele>195.385845</ele>
        <time>2024-08-04T08:55:08.975Z</time>
      </trkpt>
      <trkpt lat="54.29338" lon="18.42747">
        <ele>195.59163</ele>
        <time>2024-08-04T08:55:12.009Z</time>
      </trkpt>
      <trkpt lat="54.29333" lon="18.42765">
        <ele>195.795762</ele>
        <time>2024-08-04T08:55:14.944Z</time>
      </trkpt>
      <trkpt lat="54.29329" lon="18.42783">
        <ele>195.995854</ele>
        <time>2024-08-04T08:55:17.970Z</time>
      </trkpt>
      <trkpt lat="54.29324" lon="18.42801">
        <ele>196.1962</ele>
        <time>2024-08-04T08:55:20.981Z</time>
      </trkpt>
      <trkpt lat="54.2932" lon="18.42818">
        <ele>196.392513</ele>
        <time>2024-08-04T08:55:23.938Z</time>
      </trkpt>
      <trkpt lat="54.29315" lon="18.42836">
        <ele>196.595519</ele>
        <time>2024-08-04T08:55:26.964Z</time>
      </trkpt>
      <trkpt lat="54.2931" lon="18.42854">
        <ele>196.70408</ele>
        <time>2024-08-04T08:55:29.951Z</time>
      </trkpt>
      <trkpt lat="54.29305" lon="18.42872">
        <ele>196.767319</ele>
        <time>2024-08-04T08:55:32.963Z</time>
      </trkpt>
      <trkpt lat="54.29301" lon="18.42888">
        <ele>196.824832</ele>
        <time>2024-08-04T08:55:35.952Z</time>
      </trkpt>
      <trkpt lat="54.29296" lon="18.42907">
        <ele>196.888582</ele>
        <time>2024-08-04T08:55:38.963Z</time>
      </trkpt>
      <trkpt lat="54.29291" lon="18.42925">
        <ele>196.951417</ele>
        <time>2024-08-04T08:55:42.025Z</time>
      </trkpt>
      <trkpt lat="54.29286" lon="18.42942">
        <ele>197.010976</ele>
        <time>2024-08-04T08:55:44.958Z</time>
      </trkpt>
      <trkpt lat="54.29282" lon="18.4296">
        <ele>197.071038</ele>
        <time>2024-08-04T08:55:47.978Z</time>
      </trkpt>
      <trkpt lat="54.29277" lon="18.42976">
        <ele>197.128445</ele>
        <time>2024-08-04T08:55:50.957Z</time>
      </trkpt>
      <trkpt lat="54.29273" lon="18.42992">
        <ele>197.185399</ele>
        <time>2024-08-04T08:55:53.961Z</time>
      </trkpt>
      <trkpt lat="54.29267" lon="18.43008">
        <ele>197.243127</ele>
        <time>2024-08-04T08:55:56.964Z</time>
      </trkpt>
      <trkpt lat="54.2926" lon="18.43022">
        <ele>197.301475</ele>
        <time>2024-08-04T08:55:59.971Z</time>
      </trkpt>
      <trkpt lat="54.29254" lon="18.43035">
        <ele>197.355464</ele>
        <time>2024-08-04T08:56:02.953Z</time>
      </trkpt>
      <trkpt lat="54.29249" lon="18.43054">
        <ele>197.418869</ele>
        <time>2024-08-04T08:56:06.956Z</time>
      </trkpt>
      <trkpt lat="54.29238" lon="18.43058">
        <ele>197.478971</ele>
        <time>2024-08-04T08:56:10.943Z</time>
      </trkpt>
      <trkpt lat="54.29229" lon="18.43063">
        <ele>197.53068</ele>
        <time>2024-08-04T08:56:16.957Z</time>
      </trkpt>
      <trkpt lat="54.2922" lon="18.43069">
        <ele>197.580762</ele>
        <time>2024-08-04T08:56:22.950Z</time>
      </trkpt>
      <trkpt lat="54.29211" lon="18.43074">
        <ele>197.632981</ele>
        <time>2024-08-04T08:56:27.951Z</time>
      </trkpt>
      <trkpt lat="54.29202" lon="18.43077">
        <ele>197.346568</ele>
        <time>2024-08-04T08:56:32.012Z</time>
      </trkpt>
      <trkpt lat="54.29191" lon="18.4308">
        <ele>196.973576</ele>
        <time>2024-08-04T08:56:35.960Z</time>
      </trkpt>
      <trkpt lat="54.29179" lon="18.43082">
        <ele>196.579333</ele>
        <time>2024-08-04T08:56:39.962Z</time>
      </trkpt>
      <trkpt lat="54.29167" lon="18.43084">
        <ele>196.196528</ele>
        <time>2024-08-04T08:56:43.953Z</time>
      </trkpt>
      <trkpt lat="54.29158" lon="18.43086">
        <ele>195.870829</ele>
        <time>2024-08-04T08:56:46.960Z</time>
      </trkpt>
      <trkpt lat="54.29148" lon="18.43088">
        <ele>195.535297</ele>
        <time>2024-08-04T08:56:49.966Z</time>
      </trkpt>
      <trkpt lat="54.29139" lon="18.43083">
        <ele>195.234331</ele>
        <time>2024-08-04T08:56:53.941Z</time>
      </trkpt>
      <trkpt lat="54.29131" lon="18.43074">
        <ele>194.919546</ele>
        <time>2024-08-04T08:56:57.953Z</time>
      </trkpt>
      <trkpt lat="54.29128" lon="18.43073">
        <ele>194.812824</ele>
        <time>2024-08-04T08:57:03.087Z</time>
      </trkpt>
      <trkpt lat="54.29093" lon="18.43084">
        <ele>193.661922</ele>
        <time>2024-08-04T08:58:26.940Z</time>
      </trkpt>
      <trkpt lat="54.29083" lon="18.43086">
        <ele>193.323901</ele>
        <time>2024-08-04T08:58:29.946Z</time>
      </trkpt>
      <trkpt lat="54.29071" lon="18.43088">
        <ele>192.915361</ele>
        <time>2024-08-04T08:58:32.933Z</time>
      </trkpt>
      <trkpt lat="54.29058" lon="18.4309">
        <ele>192.485239</ele>
        <time>2024-08-04T08:58:35.965Z</time>
      </trkpt>
      <trkpt lat="54.29048" lon="18.4309">
        <ele>192.142004</ele>
        <time>2024-08-04T08:58:37.963Z</time>
      </trkpt>
      <trkpt lat="54.29036" lon="18.43088">
        <ele>191.753971</ele>
        <time>2024-08-04T08:58:39.963Z</time>
      </trkpt>
      <trkpt lat="54.29023" lon="18.43084">
        <ele>191.49555</ele>
        <time>2024-08-04T08:58:42.002Z</time>
      </trkpt>
      <trkpt lat="54.29011" lon="18.43075">
        <ele>191.24762</ele>
        <time>2024-08-04T08:58:43.950Z</time>
      </trkpt>
      <trkpt lat="54.28999" lon="18.43063">
        <ele>191.006193</ele>
        <time>2024-08-04T08:58:45.968Z</time>
      </trkpt>
      <trkpt lat="54.28989" lon="18.4305">
        <ele>190.765717</ele>
        <time>2024-08-04T08:58:47.949Z</time>
      </trkpt>
      <trkpt lat="54.28979" lon="18.43035">
        <ele>190.528249</ele>
        <time>2024-08-04T08:58:49.941Z</time>
      </trkpt>
      <trkpt lat="54.28969" lon="18.4302">
        <ele>190.27965</ele>
        <time>2024-08-04T08:58:51.963Z</time>
      </trkpt>
      <trkpt lat="54.28958" lon="18.43005">
        <ele>190.031074</ele>
        <time>2024-08-04T08:58:53.959Z</time>
      </trkpt>
      <trkpt lat="54.28948" lon="18.42989">
        <ele>189.784551</ele>
        <time>2024-08-04T08:58:55.950Z</time>
      </trkpt>
      <trkpt lat="54.28938" lon="18.42975">
        <ele>189.544965</ele>
        <time>2024-08-04T08:58:57.951Z</time>
      </trkpt>
      <trkpt lat="54.28929" lon="18.4296">
        <ele>189.311523</ele>
        <time>2024-08-04T08:58:59.961Z</time>
      </trkpt>
      <trkpt lat="54.2892" lon="18.42946">
        <ele>189.085832</ele>
        <time>2024-08-04T08:59:02.021Z</time>
      </trkpt>
      <trkpt lat="54.2891" lon="18.42933">
        <ele>188.858542</ele>
        <time>2024-08-04T08:59:03.955Z</time>
      </trkpt>
      <trkpt lat="54.28899" lon="18.42923">
        <ele>188.627715</ele>
        <time>2024-08-04T08:59:05.941Z</time>
      </trkpt>
      <trkpt lat="54.28888" lon="18.42914">
        <ele>188.41418</ele>
        <time>2024-08-04T08:59:07.936Z</time>
      </trkpt>
      <trkpt lat="54.28878" lon="18.42907">
        <ele>188.356411</ele>
        <time>2024-08-04T08:59:09.960Z</time>
      </trkpt>
      <trkpt lat="54.28868" lon="18.42902">
        <ele>188.305738</ele>
        <time>2024-08-04T08:59:12.003Z</time>
      </trkpt>
      <trkpt lat="54.28858" lon="18.42897">
        <ele>188.256316</ele>
        <time>2024-08-04T08:59:13.954Z</time>
      </trkpt>
      <trkpt lat="54.28849" lon="18.42893">
        <ele>188.207552</ele>
        <time>2024-08-04T08:59:15.962Z</time>
      </trkpt>
      <trkpt lat="54.28839" lon="18.42891">
        <ele>188.160366</ele>
        <time>2024-08-04T08:59:17.951Z</time>
      </trkpt>
      <trkpt lat="54.28826" lon="18.42888">
        <ele>188.094944</ele>
        <time>2024-08-04T08:59:20.952Z</time>
      </trkpt>
      <trkpt lat="54.28814" lon="18.42886">
        <ele>188.034581</ele>
        <time>2024-08-04T08:59:23.956Z</time>
      </trkpt>
      <trkpt lat="54.28803" lon="18.42883">
        <ele>187.979239</ele>
        <time>2024-08-04T08:59:27.954Z</time>
      </trkpt>
      <trkpt lat="54.28795" lon="18.4289">
        <ele>187.933893</ele>
        <time>2024-08-04T08:59:30.963Z</time>
      </trkpt>
      <trkpt lat="54.28783" lon="18.42892">
        <ele>187.876197</ele>
        <time>2024-08-04T08:59:33.959Z</time>
      </trkpt>
      <trkpt lat="54.28771" lon="18.42895">
        <ele>187.814311</ele>
        <time>2024-08-04T08:59:36.949Z</time>
      </trkpt>
      <trkpt lat="54.28762" lon="18.42899">
        <ele>187.767061</ele>
        <time>2024-08-04T08:59:38.970Z</time>
      </trkpt>
      <trkpt lat="54.28751" lon="18.42903">
        <ele>187.715417</ele>
        <time>2024-08-04T08:59:40.965Z</time>
      </trkpt>
      <trkpt lat="54.2874" lon="18.42909">
        <ele>187.656069</ele>
        <time>2024-08-04T08:59:42.962Z</time>
      </trkpt>
      <trkpt lat="54.28729" lon="18.42914">
        <ele>187.600395</ele>
        <time>2024-08-04T08:59:44.959Z</time>
      </trkpt>
      <trkpt lat="54.28717" lon="18.42919">
        <ele>187.538983</ele>
        <time>2024-08-04T08:59:46.965Z</time>
      </trkpt>
      <trkpt lat="54.28703" lon="18.42925">
        <ele>187.465261</ele>
        <time>2024-08-04T08:59:48.953Z</time>
      </trkpt>
      <trkpt lat="54.28688" lon="18.42932">
        <ele>187.386651</ele>
        <time>2024-08-04T08:59:50.957Z</time>
      </trkpt>
      <trkpt lat="54.28672" lon="18.42937">
        <ele>187.302968</ele>
        <time>2024-08-04T08:59:52.960Z</time>
      </trkpt>
      <trkpt lat="54.28655" lon="18.42944">
        <ele>187.218071</ele>
        <time>2024-08-04T08:59:54.966Z</time>
      </trkpt>
      <trkpt lat="54.28639" lon="18.42951">
        <ele>187.134082</ele>
        <time>2024-08-04T08:59:56.954Z</time>
      </trkpt>
      <trkpt lat="54.28624" lon="18.42958">
        <ele>187.052689</ele>
        <time>2024-08-04T08:59:58.980Z</time>
      </trkpt>
      <trkpt lat="54.2861" lon="18.42964">
        <ele>186.980062</ele>
        <time>2024-08-04T09:00:00.965Z</time>
      </trkpt>
      <trkpt lat="54.28597" lon="18.42971">
        <ele>186.912236</ele>
        <time>2024-08-04T09:00:02.962Z</time>
      </trkpt>
      <trkpt lat="54.28586" lon="18.42975">
        <ele>186.854821</ele>
        <time>2024-08-04T09:00:04.973Z</time>
      </trkpt>
      <trkpt lat="54.28575" lon="18.42979">
        <ele>186.797705</ele>
        <time>2024-08-04T09:00:06.977Z</time>
      </trkpt>
      <trkpt lat="54.28564" lon="18.42984">
        <ele>186.743809</ele>
        <time>2024-08-04T09:00:08.961Z</time>
      </trkpt>
      <trkpt lat="54.28555" lon="18.42989">
        <ele>186.695432</ele>
        <time>2024-08-04T09:00:10.954Z</time>
      </trkpt>
      <trkpt lat="54.28543" lon="18.42996">
        <ele>186.627791</ele>
        <time>2024-08-04T09:00:13.959Z</time>
      </trkpt>
      <trkpt lat="54.2853" lon="18.43002">
        <ele>186.845402</ele>
        <time>2024-08-04T09:00:16.962Z</time>
      </trkpt>
      <trkpt lat="54.28518" lon="18.43009">
        <ele>187.161715</ele>
        <time>2024-08-04T09:00:19.956Z</time>
      </trkpt>
      <trkpt lat="54.28506" lon="18.43016">
        <ele>187.48713</ele>
        <time>2024-08-04T09:00:22.964Z</time>
      </trkpt>
      <trkpt lat="54.28498" lon="18.43021">
        <ele>187.718256</ele>
        <time>2024-08-04T09:00:24.978Z</time>
      </trkpt>
      <trkpt lat="54.28485" lon="18.43029">
        <ele>188.040284</ele>
        <time>2024-08-04T09:00:27.970Z</time>
      </trkpt>
      <trkpt lat="54.28477" lon="18.43034">
        <ele>188.268538</ele>
        <time>2024-08-04T09:00:29.960Z</time>
      </trkpt>
      <trkpt lat="54.28465" lon="18.43041">
        <ele>188.589652</ele>
        <time>2024-08-04T09:00:32.973Z</time>
      </trkpt>
      <trkpt lat="54.28456" lon="18.43047">
        <ele>188.822138</ele>
        <time>2024-08-04T09:00:34.970Z</time>
      </trkpt>
      <trkpt lat="54.28447" lon="18.43051">
        <ele>189.053788</ele>
        <time>2024-08-04T09:00:36.956Z</time>
      </trkpt>
      <trkpt lat="54.28435" lon="18.43059">
        <ele>189.392983</ele>
        <time>2024-08-04T09:00:39.970Z</time>
      </trkpt>
      <trkpt lat="54.28426" lon="18.43064">
        <ele>189.622664</ele>
        <time>2024-08-04T09:00:41.979Z</time>
      </trkpt>
      <trkpt lat="54.28417" lon="18.43069">
        <ele>189.85371</ele>
        <time>2024-08-04T09:00:43.957Z</time>
      </trkpt>
      <trkpt lat="54.28405" lon="18.43076">
        <ele>190.190525</ele>
        <time>2024-08-04T09:00:46.965Z</time>
      </trkpt>
      <trkpt lat="54.28396" lon="18.43081">
        <ele>190.425876</ele>
        <time>2024-08-04T09:00:48.963Z</time>
      </trkpt>
      <trkpt lat="54.28387" lon="18.43087">
        <ele>190.656493</ele>
        <time>2024-08-04T09:00:50.973Z</time>
      </trkpt>
      <trkpt lat="54.28375" lon="18.43094">
        <ele>190.984241</ele>
        <time>2024-08-04T09:00:53.961Z</time>
      </trkpt>
      <trkpt lat="54.28363" lon="18.431">
        <ele>191.153435</ele>
        <time>2024-08-04T09:00:56.970Z</time>
      </trkpt>
      <trkpt lat="54.28351" lon="18.43105">
        <ele>191.179615</ele>
        <time>2024-08-04T09:00:59.970Z</time>
      </trkpt>
      <trkpt lat="54.2834" lon="18.43112">
        <ele>191.206696</ele>
        <time>2024-08-04T09:01:02.968Z</time>
      </trkpt>
      <trkpt lat="54.28327" lon="18.43119">
        <ele>191.235915</ele>
        <time>2024-08-04T09:01:05.960Z</time>
      </trkpt>
      <trkpt lat="54.28315" lon="18.43127">
        <ele>191.265295</ele>
        <time>2024-08-04T09:01:08.953Z</time>
      </trkpt>
      <trkpt lat="54.28302" lon="18.43132">
        <ele>191.294452</ele>
        <time>2024-08-04T09:01:12.031Z</time>
      </trkpt>
      <trkpt lat="54.28289" lon="18.43138">
        <ele>191.32423</ele>
        <time>2024-08-04T09:01:14.955Z</time>
      </trkpt>
      <trkpt lat="54.2828" lon="18.43143">
        <ele>191.344257</ele>
        <time>2024-08-04T09:01:16.962Z</time>
      </trkpt>
      <trkpt lat="54.28272" lon="18.43148">
        <ele>191.364554</ele>
        <time>2024-08-04T09:01:18.960Z</time>
      </trkpt>
      <trkpt lat="54.28262" lon="18.43153">
        <ele>191.386106</ele>
        <time>2024-08-04T09:01:20.957Z</time>
      </trkpt>
      <trkpt lat="54.28253" lon="18.43158">
        <ele>191.407091</ele>
        <time>2024-08-04T09:01:22.961Z</time>
      </trkpt>
      <trkpt lat="54.28244" lon="18.43162">
        <ele>191.428891</ele>
        <time>2024-08-04T09:01:24.956Z</time>
      </trkpt>
      <trkpt lat="54.28234" lon="18.43167">
        <ele>191.451161</ele>
        <time>2024-08-04T09:01:26.969Z</time>
      </trkpt>
      <trkpt lat="54.28225" lon="18.43173">
        <ele>191.47368</ele>
        <time>2024-08-04T09:01:28.970Z</time>
      </trkpt>
      <trkpt lat="54.28215" lon="18.43178">
        <ele>191.496199</ele>
        <time>2024-08-04T09:01:30.961Z</time>
      </trkpt>
      <trkpt lat="54.28205" lon="18.43184">
        <ele>191.518671</ele>
        <time>2024-08-04T09:01:32.975Z</time>
      </trkpt>
      <trkpt lat="54.28196" lon="18.43189">
        <ele>191.526045</ele>
        <time>2024-08-04T09:01:34.962Z</time>
      </trkpt>
      <trkpt lat="54.28186" lon="18.43193">
        <ele>191.45819</ele>
        <time>2024-08-04T09:01:36.958Z</time>
      </trkpt>
      <trkpt lat="54.28177" lon="18.43199">
        <ele>191.391471</ele>
        <time>2024-08-04T09:01:38.971Z</time>
      </trkpt>
      <trkpt lat="54.28167" lon="18.43204">
        <ele>191.325637</ele>
        <time>2024-08-04T09:01:40.953Z</time>
      </trkpt>
      <trkpt lat="54.28158" lon="18.43209">
        <ele>191.261443</ele>
        <time>2024-08-04T09:01:42.963Z</time>
      </trkpt>
      <trkpt lat="54.28149" lon="18.43213">
        <ele>191.198009</ele>
        <time>2024-08-04T09:01:44.963Z</time>
      </trkpt>
      <trkpt lat="54.2814" lon="18.43218">
        <ele>191.132638</ele>
        <time>2024-08-04T09:01:46.966Z</time>
      </trkpt>
      <trkpt lat="54.28131" lon="18.43223">
        <ele>191.071282</ele>
        <time>2024-08-04T09:01:48.969Z</time>
      </trkpt>
      <trkpt lat="54.28123" lon="18.43228">
        <ele>191.009538</ele>
        <time>2024-08-04T09:01:50.974Z</time>
      </trkpt>
      <trkpt lat="54.28114" lon="18.43232">
        <ele>190.946545</ele>
        <time>2024-08-04T09:01:52.961Z</time>
      </trkpt>
      <trkpt lat="54.28104" lon="18.43237">
        <ele>190.878898</ele>
        <time>2024-08-04T09:01:54.978Z</time>
      </trkpt>
      <trkpt lat="54.28094" lon="18.43242">
        <ele>190.81007</ele>
        <time>2024-08-04T09:01:56.966Z</time>
      </trkpt>
      <trkpt lat="54.28085" lon="18.43246">
        <ele>190.745228</ele>
        <time>2024-08-04T09:01:58.971Z</time>
      </trkpt>
      <trkpt lat="54.28076" lon="18.43251">
        <ele>190.679744</ele>
        <time>2024-08-04T09:02:00.951Z</time>
      </trkpt>
      <trkpt lat="54.28066" lon="18.43256">
        <ele>190.611981</ele>
        <time>2024-08-04T09:02:02.958Z</time>
      </trkpt>
      <trkpt lat="54.28056" lon="18.4326">
        <ele>190.545182</ele>
        <time>2024-08-04T09:02:04.967Z</time>
      </trkpt>
      <trkpt lat="54.28048" lon="18.43266">
        <ele>190.481259</ele>
        <time>2024-08-04T09:02:06.964Z</time>
      </trkpt>
      <trkpt lat="54.28038" lon="18.43271">
        <ele>190.417402</ele>
        <time>2024-08-04T09:02:08.963Z</time>
      </trkpt>
      <trkpt lat="54.28029" lon="18.43275">
        <ele>190.351918</ele>
        <time>2024-08-04T09:02:10.962Z</time>
      </trkpt>
      <trkpt lat="54.2802" lon="18.43281">
        <ele>190.213281</ele>
        <time>2024-08-04T09:02:12.951Z</time>
      </trkpt>
      <trkpt lat="54.2801" lon="18.43285">
        <ele>190.007049</ele>
        <time>2024-08-04T09:02:14.974Z</time>
      </trkpt>
      <trkpt lat="54.28" lon="18.43289">
        <ele>189.79477</ele>
        <time>2024-08-04T09:02:16.978Z</time>
      </trkpt>
      <trkpt lat="54.27988" lon="18.43294">
        <ele>189.560181</ele>
        <time>2024-08-04T09:02:18.977Z</time>
      </trkpt>
      <trkpt lat="54.27976" lon="18.43298">
        <ele>189.307506</ele>
        <time>2024-08-04T09:02:20.958Z</time>
      </trkpt>
      <trkpt lat="54.27964" lon="18.43302">
        <ele>189.051791</ele>
        <time>2024-08-04T09:02:22.971Z</time>
      </trkpt>
      <trkpt lat="54.2795" lon="18.43306">
        <ele>188.780083</ele>
        <time>2024-08-04T09:02:24.973Z</time>
      </trkpt>
      <trkpt lat="54.27937" lon="18.43311">
        <ele>188.499826</ele>
        <time>2024-08-04T09:02:26.967Z</time>
      </trkpt>
      <trkpt lat="54.27923" lon="18.43315">
        <ele>188.230519</ele>
        <time>2024-08-04T09:02:28.962Z</time>
      </trkpt>
      <trkpt lat="54.2791" lon="18.43318">
        <ele>187.962195</ele>
        <time>2024-08-04T09:02:30.953Z</time>
      </trkpt>
      <trkpt lat="54.27897" lon="18.43322">
        <ele>187.703386</ele>
        <time>2024-08-04T09:02:32.974Z</time>
      </trkpt>
      <trkpt lat="54.27886" lon="18.43325">
        <ele>187.46175</ele>
        <time>2024-08-04T09:02:34.972Z</time>
      </trkpt>
      <trkpt lat="54.27875" lon="18.4333">
        <ele>187.240723</ele>
        <time>2024-08-04T09:02:36.954Z</time>
      </trkpt>
      <trkpt lat="54.27866" lon="18.43338">
        <ele>187.045916</ele>
        <time>2024-08-04T09:02:38.945Z</time>
      </trkpt>
      <trkpt lat="54.27859" lon="18.43349">
        <ele>186.853036</ele>
        <time>2024-08-04T09:02:40.942Z</time>
      </trkpt>
      <trkpt lat="54.27851" lon="18.43367">
        <ele>186.428798</ele>
        <time>2024-08-04T09:02:43.947Z</time>
      </trkpt>
      <trkpt lat="54.27846" lon="18.43381">
        <ele>186.011233</ele>
        <time>2024-08-04T09:02:45.964Z</time>
      </trkpt>
      <trkpt lat="54.27843" lon="18.43399">
        <ele>185.560754</ele>
        <time>2024-08-04T09:02:47.945Z</time>
      </trkpt>
      <trkpt lat="54.27842" lon="18.43416">
        <ele>185.11055</ele>
        <time>2024-08-04T09:02:49.932Z</time>
      </trkpt>
      <trkpt lat="54.27843" lon="18.43433">
        <ele>184.681335</ele>
        <time>2024-08-04T09:02:51.952Z</time>
      </trkpt>
      <trkpt lat="54.27846" lon="18.43455">
        <ele>184.114178</ele>
        <time>2024-08-04T09:02:54.957Z</time>
      </trkpt>
      <trkpt lat="54.2785" lon="18.43471">
        <ele>183.678773</ele>
        <time>2024-08-04T09:02:56.964Z</time>
      </trkpt>
      <trkpt lat="54.27855" lon="18.43488">
        <ele>183.184384</ele>
        <time>2024-08-04T09:02:58.971Z</time>
      </trkpt>
      <trkpt lat="54.2786" lon="18.43508">
        <ele>182.658757</ele>
        <time>2024-08-04T09:03:00.976Z</time>
      </trkpt>
      <trkpt lat="54.27864" lon="18.43528">
        <ele>182.105438</ele>
        <time>2024-08-04T09:03:02.958Z</time>
      </trkpt>
      <trkpt lat="54.27868" lon="18.43551">
        <ele>181.514221</ele>
        <time>2024-08-04T09:03:04.974Z</time>
      </trkpt>
      <trkpt lat="54.27871" lon="18.43575">
        <ele>180.888504</ele>
        <time>2024-08-04T09:03:06.962Z</time>
      </trkpt>
      <trkpt lat="54.27873" lon="18.43602">
        <ele>180.187086</ele>
        <time>2024-08-04T09:03:08.952Z</time>
      </trkpt>
      <trkpt lat="54.27874" lon="18.43632">
        <ele>179.42961</ele>
        <time>2024-08-04T09:03:10.962Z</time>
      </trkpt>
      <trkpt lat="54.27874" lon="18.43649">
        <ele>179.012086</ele>
        <time>2024-08-04T09:03:11.956Z</time>
      </trkpt>
      <trkpt lat="54.27875" lon="18.43666">
        <ele>178.497221</ele>
        <time>2024-08-04T09:03:12.964Z</time>
      </trkpt>
      <trkpt lat="54.27876" lon="18.43683">
        <ele>177.941576</ele>
        <time>2024-08-04T09:03:13.953Z</time>
      </trkpt>
      <trkpt lat="54.27876" lon="18.43701">
        <ele>177.36021</ele>
        <time>2024-08-04T09:03:14.957Z</time>
      </trkpt>
      <trkpt lat="54.27878" lon="18.43719">
        <ele>176.77696</ele>
        <time>2024-08-04T09:03:15.956Z</time>
      </trkpt>
      <trkpt lat="54.27879" lon="18.43737">
        <ele>176.16866</ele>
        <time>2024-08-04T09:03:16.939Z</time>
      </trkpt>
      <trkpt lat="54.2788" lon="18.43756">
        <ele>175.55387</ele>
        <time>2024-08-04T09:03:17.953Z</time>
      </trkpt>
      <trkpt lat="54.27881" lon="18.43776">
        <ele>174.935871</ele>
        <time>2024-08-04T09:03:18.948Z</time>
      </trkpt>
      <trkpt lat="54.27882" lon="18.43796">
        <ele>174.28053</ele>
        <time>2024-08-04T09:03:19.962Z</time>
      </trkpt>
      <trkpt lat="54.27882" lon="18.43816">
        <ele>173.645065</ele>
        <time>2024-08-04T09:03:20.962Z</time>
      </trkpt>
      <trkpt lat="54.27882" lon="18.43835">
        <ele>173.003731</ele>
        <time>2024-08-04T09:03:21.973Z</time>
      </trkpt>
      <trkpt lat="54.27882" lon="18.43856">
        <ele>172.339288</ele>
        <time>2024-08-04T09:03:22.944Z</time>
      </trkpt>
      <trkpt lat="54.27881" lon="18.43877">
        <ele>171.670736</ele>
        <time>2024-08-04T09:03:23.952Z</time>
      </trkpt>
      <trkpt lat="54.2788" lon="18.43897">
        <ele>171.003571</ele>
        <time>2024-08-04T09:03:24.949Z</time>
      </trkpt>
      <trkpt lat="54.27878" lon="18.43918">
        <ele>170.337834</ele>
        <time>2024-08-04T09:03:25.957Z</time>
      </trkpt>
      <trkpt lat="54.27876" lon="18.43938">
        <ele>169.678461</ele>
        <time>2024-08-04T09:03:26.958Z</time>
      </trkpt>
      <trkpt lat="54.27874" lon="18.43959">
        <ele>169.000822</ele>
        <time>2024-08-04T09:03:27.947Z</time>
      </trkpt>
      <trkpt lat="54.27872" lon="18.43979">
        <ele>168.44597</ele>
        <time>2024-08-04T09:03:28.953Z</time>
      </trkpt>
      <trkpt lat="54.27869" lon="18.43999">
        <ele>167.875891</ele>
        <time>2024-08-04T09:03:29.960Z</time>
      </trkpt>
      <trkpt lat="54.27866" lon="18.4402">
        <ele>167.302082</ele>
        <time>2024-08-04T09:03:30.970Z</time>
      </trkpt>
      <trkpt lat="54.27863" lon="18.4404">
        <ele>166.758232</ele>
        <time>2024-08-04T09:03:31.995Z</time>
      </trkpt>
      <trkpt lat="54.27861" lon="18.44059">
        <ele>166.207097</ele>
        <time>2024-08-04T09:03:32.963Z</time>
      </trkpt>
      <trkpt lat="54.27858" lon="18.44079">
        <ele>165.67597</ele>
        <time>2024-08-04T09:03:33.939Z</time>
      </trkpt>
      <trkpt lat="54.27856" lon="18.44098">
        <ele>165.145913</ele>
        <time>2024-08-04T09:03:34.966Z</time>
      </trkpt>
      <trkpt lat="54.27853" lon="18.44117">
        <ele>164.620523</ele>
        <time>2024-08-04T09:03:35.945Z</time>
      </trkpt>
      <trkpt lat="54.27851" lon="18.44136">
        <ele>164.09496</ele>
        <time>2024-08-04T09:03:36.955Z</time>
      </trkpt>
      <trkpt lat="54.27849" lon="18.44155">
        <ele>163.57849</ele>
        <time>2024-08-04T09:03:37.954Z</time>
      </trkpt>
      <trkpt lat="54.27848" lon="18.44174">
        <ele>163.055595</ele>
        <time>2024-08-04T09:03:38.962Z</time>
      </trkpt>
      <trkpt lat="54.27846" lon="18.44192">
        <ele>162.551416</ele>
        <time>2024-08-04T09:03:39.946Z</time>
      </trkpt>
      <trkpt lat="54.27845" lon="18.44211">
        <ele>162.043455</ele>
        <time>2024-08-04T09:03:40.964Z</time>
      </trkpt>
      <trkpt lat="54.27844" lon="18.4423">
        <ele>161.535493</ele>
        <time>2024-08-04T09:03:41.977Z</time>
      </trkpt>
      <trkpt lat="54.27843" lon="18.44249">
        <ele>161.010925</ele>
        <time>2024-08-04T09:03:42.956Z</time>
      </trkpt>
      <trkpt lat="54.27842" lon="18.44267">
        <ele>160.447274</ele>
        <time>2024-08-04T09:03:43.952Z</time>
      </trkpt>
      <trkpt lat="54.27841" lon="18.44286">
        <ele>159.753971</ele>
        <time>2024-08-04T09:03:44.951Z</time>
      </trkpt>
      <trkpt lat="54.2784" lon="18.44304">
        <ele>159.061292</ele>
        <time>2024-08-04T09:03:45.947Z</time>
      </trkpt>
      <trkpt lat="54.27839" lon="18.44323">
        <ele>158.365443</ele>
        <time>2024-08-04T09:03:46.948Z</time>
      </trkpt>
      <trkpt lat="54.27838" lon="18.44341">
        <ele>157.679224</ele>
        <time>2024-08-04T09:03:47.946Z</time>
      </trkpt>
      <trkpt lat="54.27838" lon="18.44359">
        <ele>156.987617</ele>
        <time>2024-08-04T09:03:48.955Z</time>
      </trkpt>
      <trkpt lat="54.27837" lon="18.44377">
        <ele>156.319915</ele>
        <time>2024-08-04T09:03:49.949Z</time>
      </trkpt>
      <trkpt lat="54.27837" lon="18.44395">
        <ele>155.641432</ele>
        <time>2024-08-04T09:03:50.960Z</time>
      </trkpt>
      <trkpt lat="54.27838" lon="18.44413">
        <ele>154.977476</ele>
        <time>2024-08-04T09:03:52.008Z</time>
      </trkpt>
      <trkpt lat="54.27838" lon="18.44431">
        <ele>154.309158</ele>
        <time>2024-08-04T09:03:52.942Z</time>
      </trkpt>
      <trkpt lat="54.2784" lon="18.44448">
        <ele>153.670212</ele>
        <time>2024-08-04T09:03:53.952Z</time>
      </trkpt>
      <trkpt lat="54.27841" lon="18.44465">
        <ele>153.014846</ele>
        <time>2024-08-04T09:03:54.950Z</time>
      </trkpt>
      <trkpt lat="54.27842" lon="18.44482">
        <ele>152.37745</ele>
        <time>2024-08-04T09:03:55.958Z</time>
      </trkpt>
      <trkpt lat="54.27843" lon="18.44499">
        <ele>151.752475</ele>
        <time>2024-08-04T09:03:56.948Z</time>
      </trkpt>
      <trkpt lat="54.27845" lon="18.44515">
        <ele>151.12284</ele>
        <time>2024-08-04T09:03:57.955Z</time>
      </trkpt>
      <trkpt lat="54.27846" lon="18.44532">
        <ele>150.498498</ele>
        <time>2024-08-04T09:03:58.954Z</time>
      </trkpt>
      <trkpt lat="54.27849" lon="18.44548">
        <ele>149.871404</ele>
        <time>2024-08-04T09:03:59.953Z</time>
      </trkpt>
      <trkpt lat="54.27851" lon="18.44564">
        <ele>149.255821</ele>
        <time>2024-08-04T09:04:00.952Z</time>
      </trkpt>
      <trkpt lat="54.27853" lon="18.4458">
        <ele>148.939472</ele>
        <time>2024-08-04T09:04:02.005Z</time>
      </trkpt>
      <trkpt lat="54.27856" lon="18.44595">
        <ele>148.709331</ele>
        <time>2024-08-04T09:04:02.949Z</time>
      </trkpt>
      <trkpt lat="54.27859" lon="18.4461">
        <ele>148.47984</ele>
        <time>2024-08-04T09:04:03.973Z</time>
      </trkpt>
      <trkpt lat="54.27861" lon="18.44626">
        <ele>148.256526</ele>
        <time>2024-08-04T09:04:04.962Z</time>
      </trkpt>
      <trkpt lat="54.27864" lon="18.44641">
        <ele>148.03013</ele>
        <time>2024-08-04T09:04:05.954Z</time>
      </trkpt>
      <trkpt lat="54.27868" lon="18.44655">
        <ele>147.804255</ele>
        <time>2024-08-04T09:04:06.970Z</time>
      </trkpt>
      <trkpt lat="54.27872" lon="18.4467">
        <ele>147.579692</ele>
        <time>2024-08-04T09:04:07.962Z</time>
      </trkpt>
      <trkpt lat="54.27876" lon="18.44684">
        <ele>147.351254</ele>
        <time>2024-08-04T09:04:08.963Z</time>
      </trkpt>
      <trkpt lat="54.2788" lon="18.44698">
        <ele>147.130297</ele>
        <time>2024-08-04T09:04:09.949Z</time>
      </trkpt>
      <trkpt lat="54.27884" lon="18.44712">
        <ele>146.908723</ele>
        <time>2024-08-04T09:04:10.970Z</time>
      </trkpt>
      <trkpt lat="54.27888" lon="18.44726">
        <ele>146.681251</ele>
        <time>2024-08-04T09:04:11.998Z</time>
      </trkpt>
      <trkpt lat="54.27893" lon="18.4474">
        <ele>146.451446</ele>
        <time>2024-08-04T09:04:12.974Z</time>
      </trkpt>
      <trkpt lat="54.279" lon="18.44767">
        <ele>146.027314</ele>
        <time>2024-08-04T09:04:14.957Z</time>
      </trkpt>
      <trkpt lat="54.27908" lon="18.44794">
        <ele>145.60397</ele>
        <time>2024-08-04T09:04:16.959Z</time>
      </trkpt>
      <trkpt lat="54.27914" lon="18.44821">
        <ele>145.183174</ele>
        <time>2024-08-04T09:04:18.960Z</time>
      </trkpt>
      <trkpt lat="54.27918" lon="18.4485">
        <ele>144.761691</ele>
        <time>2024-08-04T09:04:20.946Z</time>
      </trkpt>
      <trkpt lat="54.27917" lon="18.4488">
        <ele>143.852396</ele>
        <time>2024-08-04T09:04:22.962Z</time>
      </trkpt>
      <trkpt lat="54.27915" lon="18.44909">
        <ele>142.944741</ele>
        <time>2024-08-04T09:04:24.953Z</time>
      </trkpt>
      <trkpt lat="54.27911" lon="18.44938">
        <ele>142.008103</ele>
        <time>2024-08-04T09:04:26.957Z</time>
      </trkpt>
      <trkpt lat="54.27903" lon="18.44965">
        <ele>141.063988</ele>
        <time>2024-08-04T09:04:28.954Z</time>
      </trkpt>
      <trkpt lat="54.27899" lon="18.44979">
        <ele>140.563735</ele>
        <time>2024-08-04T09:04:29.966Z</time>
      </trkpt>
      <trkpt lat="54.27894" lon="18.44993">
        <ele>140.047678</ele>
        <time>2024-08-04T09:04:30.960Z</time>
      </trkpt>
      <trkpt lat="54.27888" lon="18.45007">
        <ele>139.530298</ele>
        <time>2024-08-04T09:04:32.013Z</time>
      </trkpt>
      <trkpt lat="54.27883" lon="18.45021">
        <ele>139.015948</ele>
        <time>2024-08-04T09:04:32.969Z</time>
      </trkpt>
      <trkpt lat="54.27878" lon="18.45034">
        <ele>138.509781</ele>
        <time>2024-08-04T09:04:33.940Z</time>
      </trkpt>
      <trkpt lat="54.27872" lon="18.45047">
        <ele>138.00316</ele>
        <time>2024-08-04T09:04:34.963Z</time>
      </trkpt>
      <trkpt lat="54.27867" lon="18.45061">
        <ele>137.48015</ele>
        <time>2024-08-04T09:04:35.970Z</time>
      </trkpt>
      <trkpt lat="54.27861" lon="18.45074">
        <ele>136.976093</ele>
        <time>2024-08-04T09:04:36.956Z</time>
      </trkpt>
      <trkpt lat="54.27856" lon="18.45088">
        <ele>136.484271</ele>
        <time>2024-08-04T09:04:37.950Z</time>
      </trkpt>
      <trkpt lat="54.27846" lon="18.45112">
        <ele>135.543228</ele>
        <time>2024-08-04T09:04:39.958Z</time>
      </trkpt>
      <trkpt lat="54.27837" lon="18.45134">
        <ele>134.604958</ele>
        <time>2024-08-04T09:04:42.020Z</time>
      </trkpt>
      <trkpt lat="54.2783" lon="18.45153">
        <ele>133.714022</ele>
        <time>2024-08-04T09:04:43.958Z</time>
      </trkpt>
      <trkpt lat="54.27823" lon="18.45169">
        <ele>132.929052</ele>
        <time>2024-08-04T09:04:45.964Z</time>
      </trkpt>
      <trkpt lat="54.27818" lon="18.45183">
        <ele>132.293639</ele>
        <time>2024-08-04T09:04:47.974Z</time>
      </trkpt>
      <trkpt lat="54.27812" lon="18.45198">
        <ele>131.553552</ele>
        <time>2024-08-04T09:04:49.971Z</time>
      </trkpt>
      <trkpt lat="54.27804" lon="18.45217">
        <ele>130.608004</ele>
        <time>2024-08-04T09:04:52.012Z</time>
      </trkpt>
      <trkpt lat="54.27792" lon="18.45236">
        <ele>129.531793</ele>
        <time>2024-08-04T09:04:53.974Z</time>
      </trkpt>
      <trkpt lat="54.27778" lon="18.45255">
        <ele>128.340043</ele>
        <time>2024-08-04T09:04:55.966Z</time>
      </trkpt>
      <trkpt lat="54.27771" lon="18.45264">
        <ele>127.707231</ele>
        <time>2024-08-04T09:04:56.951Z</time>
      </trkpt>
      <trkpt lat="54.27764" lon="18.45275">
        <ele>127.07996</ele>
        <time>2024-08-04T09:04:57.966Z</time>
      </trkpt>
      <trkpt lat="54.27757" lon="18.45286">
        <ele>126.461549</ele>
        <time>2024-08-04T09:04:58.958Z</time>
      </trkpt>
      <trkpt lat="54.27751" lon="18.45299">
        <ele>125.794854</ele>
        <time>2024-08-04T09:04:59.937Z</time>
      </trkpt>
      <trkpt lat="54.27744" lon="18.45311">
        <ele>125.153501</ele>
        <time>2024-08-04T09:05:00.958Z</time>
      </trkpt>
      <trkpt lat="54.27738" lon="18.45324">
        <ele>124.475721</ele>
        <time>2024-08-04T09:05:01.992Z</time>
      </trkpt>
      <trkpt lat="54.27732" lon="18.45338">
        <ele>123.809349</ele>
        <time>2024-08-04T09:05:02.960Z</time>
      </trkpt>
      <trkpt lat="54.27726" lon="18.45351">
        <ele>123.134398</ele>
        <time>2024-08-04T09:05:03.954Z</time>
      </trkpt>
      <trkpt lat="54.2772" lon="18.45364">
        <ele>122.789402</ele>
        <time>2024-08-04T09:05:04.958Z</time>
      </trkpt>
      <trkpt lat="54.27714" lon="18.45378">
        <ele>122.562792</ele>
        <time>2024-08-04T09:05:05.962Z</time>
      </trkpt>
      <trkpt lat="54.27708" lon="18.45391">
        <ele>122.336191</ele>
        <time>2024-08-04T09:05:06.962Z</time>
      </trkpt>
      <trkpt lat="54.27702" lon="18.45404">
        <ele>122.115113</ele>
        <time>2024-08-04T09:05:07.962Z</time>
      </trkpt>
      <trkpt lat="54.27695" lon="18.45418">
        <ele>121.890288</ele>
        <time>2024-08-04T09:05:08.955Z</time>
      </trkpt>
      <trkpt lat="54.27689" lon="18.45431">
        <ele>121.664744</ele>
        <time>2024-08-04T09:05:09.964Z</time>
      </trkpt>
      <trkpt lat="54.27683" lon="18.45444">
        <ele>121.441616</ele>
        <time>2024-08-04T09:05:10.958Z</time>
      </trkpt>
      <trkpt lat="54.27677" lon="18.45457">
        <ele>121.221313</ele>
        <time>2024-08-04T09:05:12.013Z</time>
      </trkpt>
      <trkpt lat="54.27671" lon="18.45471">
        <ele>120.996822</ele>
        <time>2024-08-04T09:05:12.957Z</time>
      </trkpt>
      <trkpt lat="54.27665" lon="18.45484">
        <ele>120.78104</ele>
        <time>2024-08-04T09:05:13.954Z</time>
      </trkpt>
      <trkpt lat="54.27659" lon="18.45496">
        <ele>120.565904</ele>
        <time>2024-08-04T09:05:14.970Z</time>
      </trkpt>
      <trkpt lat="54.27654" lon="18.45509">
        <ele>120.358478</ele>
        <time>2024-08-04T09:05:15.964Z</time>
      </trkpt>
      <trkpt lat="54.27648" lon="18.45521">
        <ele>120.147572</ele>
        <time>2024-08-04T09:05:16.955Z</time>
      </trkpt>
      <trkpt lat="54.27642" lon="18.45534">
        <ele>119.938752</ele>
        <time>2024-08-04T09:05:17.976Z</time>
      </trkpt>
      <trkpt lat="54.27632" lon="18.45558">
        <ele>119.533613</ele>
        <time>2024-08-04T09:05:19.951Z</time>
      </trkpt>
      <trkpt lat="54.27621" lon="18.45581">
        <ele>119.144164</ele>
        <time>2024-08-04T09:05:21.995Z</time>
      </trkpt>
      <trkpt lat="54.27611" lon="18.45604">
        <ele>118.824146</ele>
        <time>2024-08-04T09:05:24.054Z</time>
      </trkpt>
      <trkpt lat="54.276" lon="18.45627">
        <ele>118.658352</ele>
        <time>2024-08-04T09:05:25.950Z</time>
      </trkpt>
      <trkpt lat="54.2759" lon="18.4565">
        <ele>118.494366</ele>
        <time>2024-08-04T09:05:27.957Z</time>
      </trkpt>
      <trkpt lat="54.2758" lon="18.45672">
        <ele>118.336493</ele>
        <time>2024-08-04T09:05:29.952Z</time>
      </trkpt>
      <trkpt lat="54.27571" lon="18.45694">
        <ele>118.182297</ele>
        <time>2024-08-04T09:05:31.997Z</time>
      </trkpt>
      <trkpt lat="54.27563" lon="18.45717">
        <ele>118.030725</ele>
        <time>2024-08-04T09:05:33.953Z</time>
      </trkpt>
      <trkpt lat="54.27556" lon="18.45739">
        <ele>117.883588</ele>
        <time>2024-08-04T09:05:35.960Z</time>
      </trkpt>
      <trkpt lat="54.27548" lon="18.45762">
        <ele>117.735471</ele>
        <time>2024-08-04T09:05:37.960Z</time>
      </trkpt>
      <trkpt lat="54.27539" lon="18.45782">
        <ele>117.593694</ele>
        <time>2024-08-04T09:05:39.950Z</time>
      </trkpt>
      <trkpt lat="54.2753" lon="18.458">
        <ele>117.455199</ele>
        <time>2024-08-04T09:05:41.944Z</time>
      </trkpt>
      <trkpt lat="54.27519" lon="18.45814">
        <ele>117.319304</ele>
        <time>2024-08-04T09:05:43.941Z</time>
      </trkpt>
      <trkpt lat="54.2751" lon="18.4583">
        <ele>117.193246</ele>
        <time>2024-08-04T09:05:45.954Z</time>
      </trkpt>
      <trkpt lat="54.27502" lon="18.45847">
        <ele>117.11372</ele>
        <time>2024-08-04T09:05:47.942Z</time>
      </trkpt>
      <trkpt lat="54.27494" lon="18.45864">
        <ele>117.110226</ele>
        <time>2024-08-04T09:05:49.942Z</time>
      </trkpt>
      <trkpt lat="54.27487" lon="18.45881">
        <ele>117.106705</ele>
        <time>2024-08-04T09:05:52.001Z</time>
      </trkpt>
      <trkpt lat="54.2748" lon="18.45898">
        <ele>117.10324</ele>
        <time>2024-08-04T09:05:53.947Z</time>
      </trkpt>
      <trkpt lat="54.27472" lon="18.45915">
        <ele>117.099733</ele>
        <time>2024-08-04T09:05:55.948Z</time>
      </trkpt>
      <trkpt lat="54.27464" lon="18.45932">
        <ele>117.096188</ele>
        <time>2024-08-04T09:05:57.964Z</time>
      </trkpt>
      <trkpt lat="54.27457" lon="18.45949">
        <ele>117.092795</ele>
        <time>2024-08-04T09:05:59.955Z</time>
      </trkpt>
      <trkpt lat="54.2745" lon="18.45966">
        <ele>117.089463</ele>
        <time>2024-08-04T09:06:02.013Z</time>
      </trkpt>
      <trkpt lat="54.27444" lon="18.45983">
        <ele>117.086086</ele>
        <time>2024-08-04T09:06:03.950Z</time>
      </trkpt>
      <trkpt lat="54.27437" lon="18.46">
        <ele>117.082666</ele>
        <time>2024-08-04T09:06:05.954Z</time>
      </trkpt>
      <trkpt lat="54.27431" lon="18.46017">
        <ele>117.07938</ele>
        <time>2024-08-04T09:06:07.943Z</time>
      </trkpt>
      <trkpt lat="54.27425" lon="18.46034">
        <ele>117.076147</ele>
        <time>2024-08-04T09:06:09.957Z</time>
      </trkpt>
      <trkpt lat="54.27419" lon="18.46052">
        <ele>117.072717</ele>
        <time>2024-08-04T09:06:11.963Z</time>
      </trkpt>
      <trkpt lat="54.27412" lon="18.4607">
        <ele>117.069288</ele>
        <time>2024-08-04T09:06:13.955Z</time>
      </trkpt>
      <trkpt lat="54.27406" lon="18.46088">
        <ele>117.06586</ele>
        <time>2024-08-04T09:06:15.970Z</time>
      </trkpt>
      <trkpt lat="54.27399" lon="18.46105">
        <ele>116.956241</ele>
        <time>2024-08-04T09:06:17.984Z</time>
      </trkpt>
      <trkpt lat="54.27393" lon="18.46123">
        <ele>116.774914</ele>
        <time>2024-08-04T09:06:19.955Z</time>
      </trkpt>
      <trkpt lat="54.27387" lon="18.46141">
        <ele>116.594909</ele>
        <time>2024-08-04T09:06:22.010Z</time>
      </trkpt>
      <trkpt lat="54.27381" lon="18.46159">
        <ele>116.411303</ele>
        <time>2024-08-04T09:06:23.957Z</time>
      </trkpt>
      <trkpt lat="54.27374" lon="18.46176">
        <ele>116.232415</ele>
        <time>2024-08-04T09:06:25.965Z</time>
      </trkpt>
      <trkpt lat="54.27368" lon="18.46195">
        <ele>116.04952</ele>
        <time>2024-08-04T09:06:27.950Z</time>
      </trkpt>
      <trkpt lat="54.27361" lon="18.46213">
        <ele>115.866707</ele>
        <time>2024-08-04T09:06:29.961Z</time>
      </trkpt>
      <trkpt lat="54.27355" lon="18.46231">
        <ele>115.680857</ele>
        <time>2024-08-04T09:06:31.993Z</time>
      </trkpt>
      <trkpt lat="54.27348" lon="18.46249">
        <ele>115.50463</ele>
        <time>2024-08-04T09:06:33.948Z</time>
      </trkpt>
      <trkpt lat="54.27342" lon="18.46266">
        <ele>115.330656</ele>
        <time>2024-08-04T09:06:35.963Z</time>
      </trkpt>
      <trkpt lat="54.27336" lon="18.46282">
        <ele>115.158676</ele>
        <time>2024-08-04T09:06:37.952Z</time>
      </trkpt>
      <trkpt lat="54.27329" lon="18.46299">
        <ele>114.987609</ele>
        <time>2024-08-04T09:06:39.968Z</time>
      </trkpt>
      <trkpt lat="54.27323" lon="18.46315">
        <ele>114.819522</ele>
        <time>2024-08-04T09:06:42.007Z</time>
      </trkpt>
      <trkpt lat="54.27317" lon="18.46331">
        <ele>114.653601</ele>
        <time>2024-08-04T09:06:43.965Z</time>
      </trkpt>
      <trkpt lat="54.27311" lon="18.46347">
        <ele>114.490935</ele>
        <time>2024-08-04T09:06:45.956Z</time>
      </trkpt>
      <trkpt lat="54.27305" lon="18.46363">
        <ele>114.265161</ele>
        <time>2024-08-04T09:06:47.954Z</time>
      </trkpt>
      <trkpt lat="54.27297" lon="18.4638">
        <ele>113.948538</ele>
        <time>2024-08-04T09:06:49.946Z</time>
      </trkpt>
      <trkpt lat="54.27289" lon="18.46397">
        <ele>113.623021</ele>
        <time>2024-08-04T09:06:51.996Z</time>
      </trkpt>
      <trkpt lat="54.27281" lon="18.46414">
        <ele>113.290278</ele>
        <time>2024-08-04T09:06:53.959Z</time>
      </trkpt>
      <trkpt lat="54.27271" lon="18.46432">
        <ele>112.931295</ele>
        <time>2024-08-04T09:06:55.948Z</time>
      </trkpt>
      <trkpt lat="54.27263" lon="18.46453">
        <ele>112.546674</ele>
        <time>2024-08-04T09:06:57.952Z</time>
      </trkpt>
      <trkpt lat="54.27256" lon="18.46479">
        <ele>112.131111</ele>
        <time>2024-08-04T09:06:59.946Z</time>
      </trkpt>
      <trkpt lat="54.27251" lon="18.46505">
        <ele>111.71931</ele>
        <time>2024-08-04T09:07:02.000Z</time>
      </trkpt>
      <trkpt lat="54.27249" lon="18.46532">
        <ele>111.318269</ele>
        <time>2024-08-04T09:07:03.954Z</time>
      </trkpt>
      <trkpt lat="54.2725" lon="18.46557">
        <ele>110.942513</ele>
        <time>2024-08-04T09:07:05.939Z</time>
      </trkpt>
      <trkpt lat="54.2725" lon="18.46582">
        <ele>110.581673</ele>
        <time>2024-08-04T09:07:07.947Z</time>
      </trkpt>
      <trkpt lat="54.27248" lon="18.46601">
        <ele>110.294155</ele>
        <time>2024-08-04T09:07:09.980Z</time>
      </trkpt>
      <trkpt lat="54.27237" lon="18.4661">
        <ele>109.977749</ele>
        <time>2024-08-04T09:07:12.963Z</time>
      </trkpt>
      <trkpt lat="54.27226" lon="18.46611">
        <ele>109.742483</ele>
        <time>2024-08-04T09:07:15.960Z</time>
      </trkpt>
      <trkpt lat="54.27214" lon="18.46614">
        <ele>109.545426</ele>
        <time>2024-08-04T09:07:18.960Z</time>
      </trkpt>
      <trkpt lat="54.27202" lon="18.46618">
        <ele>109.337704</ele>
        <time>2024-08-04T09:07:22.017Z</time>
      </trkpt>
      <trkpt lat="54.27193" lon="18.46624">
        <ele>109.165635</ele>
        <time>2024-08-04T09:07:24.949Z</time>
      </trkpt>
      <trkpt lat="54.27185" lon="18.46637">
        <ele>108.987774</ele>
        <time>2024-08-04T09:07:35.950Z</time>
      </trkpt>
      <trkpt lat="54.27183" lon="18.46656">
        <ele>108.793387</ele>
        <time>2024-08-04T09:07:39.944Z</time>
      </trkpt>
      <trkpt lat="54.2718" lon="18.46671">
        <ele>108.637323</ele>
        <time>2024-08-04T09:07:42.956Z</time>
      </trkpt>
      <trkpt lat="54.27172" lon="18.46679">
        <ele>108.482715</ele>
        <time>2024-08-04T09:07:54.959Z</time>
      </trkpt>
      <trkpt lat="54.27161" lon="18.4669">
        <ele>108.254733</ele>
        <time>2024-08-04T09:07:58.962Z</time>
      </trkpt>
      <trkpt lat="54.27154" lon="18.46703">
        <ele>108.085838</ele>
        <time>2024-08-04T09:08:01.943Z</time>
      </trkpt>
      <trkpt lat="54.27144" lon="18.46708">
        <ele>107.904063</ele>
        <time>2024-08-04T09:08:04.948Z</time>
      </trkpt>
      <trkpt lat="54.27133" lon="18.46715">
        <ele>107.707085</ele>
        <time>2024-08-04T09:08:07.968Z</time>
      </trkpt>
      <trkpt lat="54.27122" lon="18.46717">
        <ele>107.520036</ele>
        <time>2024-08-04T09:08:10.958Z</time>
      </trkpt>
      <trkpt lat="54.27114" lon="18.46707">
        <ele>107.35879</ele>
        <time>2024-08-04T09:08:12.938Z</time>
      </trkpt>
      <trkpt lat="54.27104" lon="18.46704">
        <ele>107.188708</ele>
        <time>2024-08-04T09:08:14.955Z</time>
      </trkpt>
      <trkpt lat="54.27096" lon="18.46709">
        <ele>107.034245</ele>
        <time>2024-08-04T09:08:16.947Z</time>
      </trkpt>
      <trkpt lat="54.27085" lon="18.46715">
        <ele>106.836622</ele>
        <time>2024-08-04T09:08:19.975Z</time>
      </trkpt>
      <trkpt lat="54.27078" lon="18.46722">
        <ele>106.8028</ele>
        <time>2024-08-04T09:08:31.679Z</time>
      </trkpt>
      <trkpt lat="54.27069" lon="18.46723">
        <ele>106.824814</ele>
        <time>2024-08-04T09:22:14.963Z</time>
      </trkpt>
      <trkpt lat="54.2706" lon="18.46728">
        <ele>106.847456</ele>
        <time>2024-08-04T09:22:25.950Z</time>
      </trkpt>
      <trkpt lat="54.27053" lon="18.4674">
        <ele>106.869735</ele>
        <time>2024-08-04T09:23:09.953Z</time>
      </trkpt>
      <trkpt lat="54.27049" lon="18.46766">
        <ele>106.907668</ele>
        <time>2024-08-04T09:24:08.958Z</time>
      </trkpt>
      <trkpt lat="54.27052" lon="18.46784">
        <ele>106.932153</ele>
        <time>2024-08-04T09:24:14.938Z</time>
      </trkpt>
      <trkpt lat="54.27042" lon="18.46792">
        <ele>106.957584</ele>
        <time>2024-08-04T09:24:20.961Z</time>
      </trkpt>
      <trkpt lat="54.2704" lon="18.46808">
        <ele>106.978837</ele>
        <time>2024-08-04T09:24:27.940Z</time>
      </trkpt>
      <trkpt lat="54.27031" lon="18.46809">
        <ele>107.000431</ele>
        <time>2024-08-04T09:24:49.943Z</time>
      </trkpt>
      <trkpt lat="54.27027" lon="18.46791">
        <ele>107.026848</ele>
        <time>2024-08-04T09:25:09.945Z</time>
      </trkpt>
      <trkpt lat="54.27024" lon="18.46774">
        <ele>107.050515</ele>
        <time>2024-08-04T09:25:13.952Z</time>
      </trkpt>
      <trkpt lat="54.27021" lon="18.46758">
        <ele>107.073883</ele>
        <time>2024-08-04T09:25:18.957Z</time>
      </trkpt>
      <trkpt lat="54.27011" lon="18.46752">
        <ele>107.096837</ele>
        <time>2024-08-04T09:25:24.943Z</time>
      </trkpt>
      <trkpt lat="54.27004" lon="18.46737">
        <ele>107.123092</ele>
        <time>2024-08-04T09:25:29.946Z</time>
      </trkpt>
      <trkpt lat="54.26999" lon="18.46724">
        <ele>107.144262</ele>
        <time>2024-08-04T09:25:32.930Z</time>
      </trkpt>
      <trkpt lat="54.26993" lon="18.46712">
        <ele>107.16689</ele>
        <time>2024-08-04T09:25:35.978Z</time>
      </trkpt>
      <trkpt lat="54.26987" lon="18.46697">
        <ele>107.191348</ele>
        <time>2024-08-04T09:25:38.969Z</time>
      </trkpt>
      <trkpt lat="54.26983" lon="18.46681">
        <ele>107.202524</ele>
        <time>2024-08-04T09:25:41.991Z</time>
      </trkpt>
      <trkpt lat="54.26978" lon="18.46666">
        <ele>107.135136</ele>
        <time>2024-08-04T09:25:44.967Z</time>
      </trkpt>
      <trkpt lat="54.26974" lon="18.46647">
        <ele>107.050927</ele>
        <time>2024-08-04T09:25:48.958Z</time>
      </trkpt>
      <trkpt lat="54.26972" lon="18.46628">
        <ele>106.973828</ele>
        <time>2024-08-04T09:25:52.944Z</time>
      </trkpt>
      <trkpt lat="54.26972" lon="18.46612">
        <ele>106.908162</ele>
        <time>2024-08-04T09:25:56.961Z</time>
      </trkpt>
      <trkpt lat="54.26961" lon="18.46604">
        <ele>106.823918</ele>
        <time>2024-08-04T09:26:34.955Z</time>
      </trkpt>
      <trkpt lat="54.26952" lon="18.46605">
        <ele>106.760059</ele>
        <time>2024-08-04T09:26:37.952Z</time>
      </trkpt>
      <trkpt lat="54.2694" lon="18.46605">
        <ele>106.675567</ele>
        <time>2024-08-04T09:26:41.983Z</time>
      </trkpt>
      <trkpt lat="54.2693" lon="18.46605">
        <ele>106.60157</ele>
        <time>2024-08-04T09:26:44.949Z</time>
      </trkpt>
      <trkpt lat="54.26919" lon="18.46605">
        <ele>106.526874</ele>
        <time>2024-08-04T09:26:47.958Z</time>
      </trkpt>
      <trkpt lat="54.26908" lon="18.46605">
        <ele>106.450774</ele>
        <time>2024-08-04T09:26:50.955Z</time>
      </trkpt>
      <trkpt lat="54.26897" lon="18.46606">
        <ele>106.373855</ele>
        <time>2024-08-04T09:26:53.970Z</time>
      </trkpt>
      <trkpt lat="54.26886" lon="18.46607">
        <ele>106.294148</ele>
        <time>2024-08-04T09:26:56.957Z</time>
      </trkpt>
      <trkpt lat="54.26874" lon="18.46607">
        <ele>106.210375</ele>
        <time>2024-08-04T09:26:59.952Z</time>
      </trkpt>
      <trkpt lat="54.2686" lon="18.46607">
        <ele>106.118228</ele>
        <time>2024-08-04T09:27:02.943Z</time>
      </trkpt>
      <trkpt lat="54.26851" lon="18.46607">
        <ele>106.053295</ele>
        <time>2024-08-04T09:27:04.961Z</time>
      </trkpt>
      <trkpt lat="54.26841" lon="18.46607">
        <ele>105.982049</ele>
        <time>2024-08-04T09:27:06.943Z</time>
      </trkpt>
      <trkpt lat="54.2683" lon="18.46608">
        <ele>105.92122</ele>
        <time>2024-08-04T09:27:08.959Z</time>
      </trkpt>
      <trkpt lat="54.26818" lon="18.46607">
        <ele>105.868693</ele>
        <time>2024-08-04T09:27:10.977Z</time>
      </trkpt>
      <trkpt lat="54.26807" lon="18.46607">
        <ele>105.817997</ele>
        <time>2024-08-04T09:27:12.957Z</time>
      </trkpt>
      <trkpt lat="54.26795" lon="18.46607">
        <ele>105.763198</ele>
        <time>2024-08-04T09:27:14.965Z</time>
      </trkpt>
      <trkpt lat="54.26783" lon="18.46608">
        <ele>105.707926</ele>
        <time>2024-08-04T09:27:16.953Z</time>
      </trkpt>
      <trkpt lat="54.26771" lon="18.4661">
        <ele>105.652413</ele>
        <time>2024-08-04T09:27:18.950Z</time>
      </trkpt>
      <trkpt lat="54.26758" lon="18.46609">
        <ele>105.594368</ele>
        <time>2024-08-04T09:27:20.962Z</time>
      </trkpt>
      <trkpt lat="54.26746" lon="18.46608">
        <ele>105.537246</ele>
        <time>2024-08-04T09:27:22.955Z</time>
      </trkpt>
      <trkpt lat="54.26732" lon="18.46606">
        <ele>105.473902</ele>
        <time>2024-08-04T09:27:24.961Z</time>
      </trkpt>
      <trkpt lat="54.26718" lon="18.46601">
        <ele>105.410938</ele>
        <time>2024-08-04T09:27:26.966Z</time>
      </trkpt>
      <trkpt lat="54.26705" lon="18.46596">
        <ele>105.347472</ele>
        <time>2024-08-04T09:27:28.953Z</time>
      </trkpt>
      <trkpt lat="54.26692" lon="18.46592">
        <ele>105.288354</ele>
        <time>2024-08-04T09:27:30.950Z</time>
      </trkpt>
      <trkpt lat="54.2668" lon="18.46591">
        <ele>105.231712</ele>
        <time>2024-08-04T09:27:32.944Z</time>
      </trkpt>
      <trkpt lat="54.26667" lon="18.46593">
        <ele>105.174356</ele>
        <time>2024-08-04T09:27:34.943Z</time>
      </trkpt>
      <trkpt lat="54.26656" lon="18.46597">
        <ele>105.303738</ele>
        <time>2024-08-04T09:27:36.944Z</time>
      </trkpt>
      <trkpt lat="54.26645" lon="18.46602">
        <ele>105.969347</ele>
        <time>2024-08-04T09:27:38.966Z</time>
      </trkpt>
      <trkpt lat="54.26635" lon="18.46606">
        <ele>106.557737</ele>
        <time>2024-08-04T09:27:40.956Z</time>
      </trkpt>
      <trkpt lat="54.26623" lon="18.46611">
        <ele>107.284672</ele>
        <time>2024-08-04T09:27:43.953Z</time>
      </trkpt>
      <trkpt lat="54.26611" lon="18.46613">
        <ele>107.950446</ele>
        <time>2024-08-04T09:27:46.952Z</time>
      </trkpt>
      <trkpt lat="54.26601" lon="18.46611">
        <ele>108.532023</ele>
        <time>2024-08-04T09:27:49.939Z</time>
      </trkpt>
      <trkpt lat="54.26593" lon="18.46601">
        <ele>109.139492</ele>
        <time>2024-08-04T09:27:53.951Z</time>
      </trkpt>
      <trkpt lat="54.26587" lon="18.46588">
        <ele>109.686219</ele>
        <time>2024-08-04T09:27:57.949Z</time>
      </trkpt>
      <trkpt lat="54.26585" lon="18.46572">
        <ele>110.227844</ele>
        <time>2024-08-04T09:28:01.967Z</time>
      </trkpt>
      <trkpt lat="54.26585" lon="18.46555">
        <ele>110.798307</ele>
        <time>2024-08-04T09:28:05.946Z</time>
      </trkpt>
      <trkpt lat="54.26584" lon="18.46537">
        <ele>111.430033</ele>
        <time>2024-08-04T09:28:09.961Z</time>
      </trkpt>
      <trkpt lat="54.26583" lon="18.46519">
        <ele>112.045101</ele>
        <time>2024-08-04T09:28:13.943Z</time>
      </trkpt>
      <trkpt lat="54.26579" lon="18.46503">
        <ele>112.634522</ele>
        <time>2024-08-04T09:28:17.928Z</time>
      </trkpt>
      <trkpt lat="54.26574" lon="18.46489">
        <ele>113.182375</ele>
        <time>2024-08-04T09:28:21.997Z</time>
      </trkpt>
      <trkpt lat="54.26566" lon="18.46479">
        <ele>113.75083</ele>
        <time>2024-08-04T09:28:25.961Z</time>
      </trkpt>
      <trkpt lat="54.26557" lon="18.46472">
        <ele>114.330556</ele>
        <time>2024-08-04T09:28:29.951Z</time>
      </trkpt>
      <trkpt lat="54.26547" lon="18.46464">
        <ele>114.93642</ele>
        <time>2024-08-04T09:28:34.948Z</time>
      </trkpt>
      <trkpt lat="54.26539" lon="18.46457">
        <ele>115.462546</ele>
        <time>2024-08-04T09:28:38.949Z</time>
      </trkpt>
      <trkpt lat="54.2653" lon="18.46449">
        <ele>115.729461</ele>
        <time>2024-08-04T09:28:43.949Z</time>
      </trkpt>
      <trkpt lat="54.26522" lon="18.46441">
        <ele>115.890641</ele>
        <time>2024-08-04T09:28:48.948Z</time>
      </trkpt>
      <trkpt lat="54.26512" lon="18.46433">
        <ele>116.068059</ele>
        <time>2024-08-04T09:28:55.943Z</time>
      </trkpt>
      <trkpt lat="54.26503" lon="18.46428">
        <ele>116.234142</ele>
        <time>2024-08-04T09:29:02.947Z</time>
      </trkpt>
      <trkpt lat="54.26494" lon="18.46422">
        <ele>116.414652</ele>
        <time>2024-08-04T09:29:09.937Z</time>
      </trkpt>
      <trkpt lat="54.26485" lon="18.46415">
        <ele>116.5813</ele>
        <time>2024-08-04T09:29:15.944Z</time>
      </trkpt>
      <trkpt lat="54.26475" lon="18.46413">
        <ele>116.746782</ele>
        <time>2024-08-04T09:29:20.947Z</time>
      </trkpt>
      <trkpt lat="54.26465" lon="18.4641">
        <ele>116.93594</ele>
        <time>2024-08-04T09:29:26.956Z</time>
      </trkpt>
      <trkpt lat="54.26455" lon="18.46408">
        <ele>117.09988</ele>
        <time>2024-08-04T09:29:31.956Z</time>
      </trkpt>
      <trkpt lat="54.26444" lon="18.46407">
        <ele>117.290932</ele>
        <time>2024-08-04T09:29:36.935Z</time>
      </trkpt>
      <trkpt lat="54.26433" lon="18.46408">
        <ele>117.481759</ele>
        <time>2024-08-04T09:29:40.944Z</time>
      </trkpt>
      <trkpt lat="54.26421" lon="18.46408">
        <ele>117.684706</ele>
        <time>2024-08-04T09:29:44.958Z</time>
      </trkpt>
      <trkpt lat="54.26412" lon="18.46409">
        <ele>117.853247</ele>
        <time>2024-08-04T09:29:47.943Z</time>
      </trkpt>
      <trkpt lat="54.26402" lon="18.4641">
        <ele>118.027186</ele>
        <time>2024-08-04T09:29:50.967Z</time>
      </trkpt>
      <trkpt lat="54.26391" lon="18.46411">
        <ele>118.211369</ele>
        <time>2024-08-04T09:29:53.965Z</time>
      </trkpt>
      <trkpt lat="54.26379" lon="18.46414">
        <ele>118.419073</ele>
        <time>2024-08-04T09:29:56.946Z</time>
      </trkpt>
      <trkpt lat="54.26367" lon="18.46416">
        <ele>118.635624</ele>
        <time>2024-08-04T09:29:59.944Z</time>
      </trkpt>
      <trkpt lat="54.26354" lon="18.46419">
        <ele>118.594479</ele>
        <time>2024-08-04T09:30:02.966Z</time>
      </trkpt>
      <trkpt lat="54.26341" lon="18.46424">
        <ele>118.446969</ele>
        <time>2024-08-04T09:30:05.939Z</time>
      </trkpt>
      <trkpt lat="54.26331" lon="18.46429">
        <ele>118.335169</ele>
        <time>2024-08-04T09:30:07.975Z</time>
      </trkpt>
      <trkpt lat="54.26322" lon="18.46435">
        <ele>118.22743</ele>
        <time>2024-08-04T09:30:09.964Z</time>
      </trkpt>
      <trkpt lat="54.26313" lon="18.4644">
        <ele>118.118426</ele>
        <time>2024-08-04T09:30:11.974Z</time>
      </trkpt>
      <trkpt lat="54.26303" lon="18.46445">
        <ele>118.000729</ele>
        <time>2024-08-04T09:30:13.964Z</time>
      </trkpt>
      <trkpt lat="54.26293" lon="18.4645">
        <ele>117.887862</ele>
        <time>2024-08-04T09:30:15.968Z</time>
      </trkpt>
      <trkpt lat="54.26283" lon="18.46456">
        <ele>117.766851</ele>
        <time>2024-08-04T09:30:17.950Z</time>
      </trkpt>
      <trkpt lat="54.26273" lon="18.46463">
        <ele>117.647206</ele>
        <time>2024-08-04T09:30:19.959Z</time>
      </trkpt>
      <trkpt lat="54.26263" lon="18.46469">
        <ele>117.531889</ele>
        <time>2024-08-04T09:30:22.002Z</time>
      </trkpt>
      <trkpt lat="54.26254" lon="18.46475">
        <ele>117.424834</ele>
        <time>2024-08-04T09:30:23.962Z</time>
      </trkpt>
      <trkpt lat="54.26244" lon="18.46485">
        <ele>117.294185</ele>
        <time>2024-08-04T09:30:26.959Z</time>
      </trkpt>
      <trkpt lat="54.26236" lon="18.46498">
        <ele>117.166364</ele>
        <time>2024-08-04T09:30:29.956Z</time>
      </trkpt>
      <trkpt lat="54.26228" lon="18.46511">
        <ele>117.048234</ele>
        <time>2024-08-04T09:30:32.958Z</time>
      </trkpt>
      <trkpt lat="54.26221" lon="18.46526">
        <ele>116.925181</ele>
        <time>2024-08-04T09:30:36.962Z</time>
      </trkpt>
      <trkpt lat="54.26214" lon="18.46541">
        <ele>116.800112</ele>
        <time>2024-08-04T09:30:40.961Z</time>
      </trkpt>
      <trkpt lat="54.26205" lon="18.46551">
        <ele>116.703366</ele>
        <time>2024-08-04T09:30:44.954Z</time>
      </trkpt>
      <trkpt lat="54.26195" lon="18.4656">
        <ele>116.759342</ele>
        <time>2024-08-04T09:30:48.948Z</time>
      </trkpt>
      <trkpt lat="54.26184" lon="18.46565">
        <ele>116.811172</ele>
        <time>2024-08-04T09:30:52.015Z</time>
      </trkpt>
      <trkpt lat="54.26174" lon="18.46569">
        <ele>116.862035</ele>
        <time>2024-08-04T09:30:54.952Z</time>
      </trkpt>
      <trkpt lat="54.26163" lon="18.46572">
        <ele>116.917126</ele>
        <time>2024-08-04T09:30:58.950Z</time>
      </trkpt>
      <trkpt lat="54.26152" lon="18.46574">
        <ele>116.972926</ele>
        <time>2024-08-04T09:31:02.945Z</time>
      </trkpt>
      <trkpt lat="54.26143" lon="18.46579">
        <ele>117.019645</ele>
        <time>2024-08-04T09:31:05.939Z</time>
      </trkpt>
      <trkpt lat="54.26132" lon="18.46586">
        <ele>117.074524</ele>
        <time>2024-08-04T09:31:09.943Z</time>
      </trkpt>
      <trkpt lat="54.26124" lon="18.46594">
        <ele>117.121408</ele>
        <time>2024-08-04T09:31:13.965Z</time>
      </trkpt>
      <trkpt lat="54.26116" lon="18.46602">
        <ele>117.166052</ele>
        <time>2024-08-04T09:31:16.939Z</time>
      </trkpt>
      <trkpt lat="54.26107" lon="18.46611">
        <ele>117.217898</ele>
        <time>2024-08-04T09:31:19.952Z</time>
      </trkpt>
      <trkpt lat="54.26098" lon="18.46621">
        <ele>117.272445</ele>
        <time>2024-08-04T09:31:22.949Z</time>
      </trkpt>
      <trkpt lat="54.26088" lon="18.46633">
        <ele>117.332526</ele>
        <time>2024-08-04T09:31:25.950Z</time>
      </trkpt>
      <trkpt lat="54.2608" lon="18.46644">
        <ele>117.381949</ele>
        <time>2024-08-04T09:31:28.948Z</time>
      </trkpt>
      <trkpt lat="54.26072" lon="18.46654">
        <ele>117.429984</ele>
        <time>2024-08-04T09:31:31.959Z</time>
      </trkpt>
      <trkpt lat="54.26063" lon="18.46666">
        <ele>117.48739</ele>
        <time>2024-08-04T09:31:35.955Z</time>
      </trkpt>
      <trkpt lat="54.26054" lon="18.46676">
        <ele>117.540233</ele>
        <time>2024-08-04T09:31:39.950Z</time>
      </trkpt>
      <trkpt lat="54.26045" lon="18.46687">
        <ele>117.555937</ele>
        <time>2024-08-04T09:31:43.943Z</time>
      </trkpt>
      <trkpt lat="54.26038" lon="18.46697">
        <ele>117.497383</ele>
        <time>2024-08-04T09:31:46.949Z</time>
      </trkpt>
      <trkpt lat="54.2603" lon="18.46708">
        <ele>117.43859</ele>
        <time>2024-08-04T09:31:49.935Z</time>
      </trkpt>
      <trkpt lat="54.26022" lon="18.46722">
        <ele>117.366463</ele>
        <time>2024-08-04T09:31:52.944Z</time>
      </trkpt>
      <trkpt lat="54.26016" lon="18.46733">
        <ele>117.310023</ele>
        <time>2024-08-04T09:31:54.947Z</time>
      </trkpt>
      <trkpt lat="54.26011" lon="18.46747">
        <ele>117.247559</ele>
        <time>2024-08-04T09:31:56.934Z</time>
      </trkpt>
      <trkpt lat="54.26006" lon="18.46761">
        <ele>117.188444</ele>
        <time>2024-08-04T09:31:58.962Z</time>
      </trkpt>
      <trkpt lat="54.26002" lon="18.46776">
        <ele>117.128508</ele>
        <time>2024-08-04T09:32:00.952Z</time>
      </trkpt>
      <trkpt lat="54.25999" lon="18.46792">
        <ele>117.066431</ele>
        <time>2024-08-04T09:32:02.944Z</time>
      </trkpt>
      <trkpt lat="54.25995" lon="18.46809">
        <ele>117.000599</ele>
        <time>2024-08-04T09:32:04.945Z</time>
      </trkpt>
      <trkpt lat="54.25992" lon="18.46824">
        <ele>116.940214</ele>
        <time>2024-08-04T09:32:06.948Z</time>
      </trkpt>
      <trkpt lat="54.25988" lon="18.46844">
        <ele>116.865599</ele>
        <time>2024-08-04T09:32:08.956Z</time>
      </trkpt>
      <trkpt lat="54.25984" lon="18.46861">
        <ele>116.798033</ele>
        <time>2024-08-04T09:32:10.962Z</time>
      </trkpt>
      <trkpt lat="54.2598" lon="18.46878">
        <ele>116.729816</ele>
        <time>2024-08-04T09:32:12.917Z</time>
      </trkpt>
      <trkpt lat="54.25977" lon="18.46896">
        <ele>116.662855</ele>
        <time>2024-08-04T09:32:14.947Z</time>
      </trkpt>
      <trkpt lat="54.25974" lon="18.46918">
        <ele>116.581159</ele>
        <time>2024-08-04T09:32:16.954Z</time>
      </trkpt>
      <trkpt lat="54.25969" lon="18.4694">
        <ele>116.493137</ele>
        <time>2024-08-04T09:32:18.946Z</time>
      </trkpt>
      <trkpt lat="54.25965" lon="18.46964">
        <ele>116.231386</ele>
        <time>2024-08-04T09:32:20.946Z</time>
      </trkpt>
      <trkpt lat="54.25959" lon="18.46987">
        <ele>115.811129</ele>
        <time>2024-08-04T09:32:22.948Z</time>
      </trkpt>
      <trkpt lat="54.25954" lon="18.47012">
        <ele>115.364343</ele>
        <time>2024-08-04T09:32:24.949Z</time>
      </trkpt>
      <trkpt lat="54.25948" lon="18.47038">
        <ele>114.90507</ele>
        <time>2024-08-04T09:32:26.950Z</time>
      </trkpt>
      <trkpt lat="54.25942" lon="18.47064">
        <ele>114.429673</ele>
        <time>2024-08-04T09:32:28.956Z</time>
      </trkpt>
      <trkpt lat="54.25936" lon="18.4709">
        <ele>113.952717</ele>
        <time>2024-08-04T09:32:30.950Z</time>
      </trkpt>
      <trkpt lat="54.25929" lon="18.47117">
        <ele>113.466115</ele>
        <time>2024-08-04T09:32:32.950Z</time>
      </trkpt>
      <trkpt lat="54.25923" lon="18.47144">
        <ele>112.980816</ele>
        <time>2024-08-04T09:32:34.946Z</time>
      </trkpt>
      <trkpt lat="54.25916" lon="18.4717">
        <ele>112.505705</ele>
        <time>2024-08-04T09:32:36.964Z</time>
      </trkpt>
      <trkpt lat="54.2591" lon="18.47196">
        <ele>112.03436</ele>
        <time>2024-08-04T09:32:38.953Z</time>
      </trkpt>
      <trkpt lat="54.25904" lon="18.47223">
        <ele>111.550613</ele>
        <time>2024-08-04T09:32:40.953Z</time>
      </trkpt>
      <trkpt lat="54.25897" lon="18.47248">
        <ele>111.164604</ele>
        <time>2024-08-04T09:32:42.954Z</time>
      </trkpt>
      <trkpt lat="54.25889" lon="18.4727">
        <ele>110.866016</ele>
        <time>2024-08-04T09:32:44.967Z</time>
      </trkpt>
      <trkpt lat="54.25879" lon="18.47291">
        <ele>110.566955</ele>
        <time>2024-08-04T09:32:46.949Z</time>
      </trkpt>
      <trkpt lat="54.25867" lon="18.47305">
        <ele>110.288704</ele>
        <time>2024-08-04T09:32:48.958Z</time>
      </trkpt>
      <trkpt lat="54.25854" lon="18.47317">
        <ele>110.011644</ele>
        <time>2024-08-04T09:32:50.957Z</time>
      </trkpt>
      <trkpt lat="54.2584" lon="18.47327">
        <ele>109.723293</ele>
        <time>2024-08-04T09:32:52.968Z</time>
      </trkpt>
      <trkpt lat="54.25827" lon="18.47337">
        <ele>109.454177</ele>
        <time>2024-08-04T09:32:54.959Z</time>
      </trkpt>
      <trkpt lat="54.25815" lon="18.47348">
        <ele>109.193104</ele>
        <time>2024-08-04T09:32:56.950Z</time>
      </trkpt>
      <trkpt lat="54.25803" lon="18.47358">
        <ele>108.939849</ele>
        <time>2024-08-04T09:32:58.948Z</time>
      </trkpt>
      <trkpt lat="54.25792" lon="18.47367">
        <ele>108.695272</ele>
        <time>2024-08-04T09:33:00.946Z</time>
      </trkpt>
      <trkpt lat="54.25781" lon="18.47376">
        <ele>108.457816</ele>
        <time>2024-08-04T09:33:02.960Z</time>
      </trkpt>
      <trkpt lat="54.25769" lon="18.47386">
        <ele>108.216448</ele>
        <time>2024-08-04T09:33:04.979Z</time>
      </trkpt>
      <trkpt lat="54.25758" lon="18.47395">
        <ele>107.978476</ele>
        <time>2024-08-04T09:33:06.957Z</time>
      </trkpt>
      <trkpt lat="54.25747" lon="18.47404">
        <ele>107.886395</ele>
        <time>2024-08-04T09:33:08.953Z</time>
      </trkpt>
      <trkpt lat="54.25736" lon="18.47414">
        <ele>107.941226</ele>
        <time>2024-08-04T09:33:10.958Z</time>
      </trkpt>
      <trkpt lat="54.25725" lon="18.47426">
        <ele>107.997932</ele>
        <time>2024-08-04T09:33:12.963Z</time>
      </trkpt>
      <trkpt lat="54.25715" lon="18.47439">
        <ele>108.052755</ele>
        <time>2024-08-04T09:33:14.947Z</time>
      </trkpt>
      <trkpt lat="54.25707" lon="18.47458">
        <ele>108.112849</ele>
        <time>2024-08-04T09:33:16.951Z</time>
      </trkpt>
      <trkpt lat="54.25702" lon="18.4748">
        <ele>108.174652</ele>
        <time>2024-08-04T09:33:18.959Z</time>
      </trkpt>
      <trkpt lat="54.25698" lon="18.47504">
        <ele>108.238675</ele>
        <time>2024-08-04T09:33:20.948Z</time>
      </trkpt>
      <trkpt lat="54.25696" lon="18.47527">
        <ele>108.298318</ele>
        <time>2024-08-04T09:33:22.958Z</time>
      </trkpt>
      <trkpt lat="54.25697" lon="18.47549">
        <ele>108.355286</ele>
        <time>2024-08-04T09:33:24.957Z</time>
      </trkpt>
      <trkpt lat="54.257" lon="18.47569">
        <ele>108.407599</ele>
        <time>2024-08-04T09:33:26.949Z</time>
      </trkpt>
      <trkpt lat="54.25703" lon="18.47587">
        <ele>108.454894</ele>
        <time>2024-08-04T09:33:28.938Z</time>
      </trkpt>
      <trkpt lat="54.25706" lon="18.47603">
        <ele>108.498806</ele>
        <time>2024-08-04T09:33:30.950Z</time>
      </trkpt>
      <trkpt lat="54.2571" lon="18.47624">
        <ele>108.555573</ele>
        <time>2024-08-04T09:33:33.961Z</time>
      </trkpt>
      <trkpt lat="54.25713" lon="18.47642">
        <ele>108.604174</ele>
        <time>2024-08-04T09:33:36.949Z</time>
      </trkpt>
      <trkpt lat="54.25716" lon="18.4766">
        <ele>108.653972</ele>
        <time>2024-08-04T09:33:39.951Z</time>
      </trkpt>
      <trkpt lat="54.25717" lon="18.47678">
        <ele>109.141492</ele>
        <time>2024-08-04T09:33:42.950Z</time>
      </trkpt>
      <trkpt lat="54.25717" lon="18.47696">
        <ele>109.629074</ele>
        <time>2024-08-04T09:33:45.951Z</time>
      </trkpt>
      <trkpt lat="54.25717" lon="18.47713">
        <ele>110.094916</ele>
        <time>2024-08-04T09:33:48.963Z</time>
      </trkpt>
      <trkpt lat="54.25717" lon="18.47732">
        <ele>110.622837</ele>
        <time>2024-08-04T09:35:00.970Z</time>
      </trkpt>
      <trkpt lat="54.25714" lon="18.47751">
        <ele>111.132619</ele>
        <time>2024-08-04T09:35:04.962Z</time>
      </trkpt>
      <trkpt lat="54.2571" lon="18.47769">
        <ele>111.685876</ele>
        <time>2024-08-04T09:35:08.956Z</time>
      </trkpt>
      <trkpt lat="54.25704" lon="18.47787">
        <ele>112.220082</ele>
        <time>2024-08-04T09:35:12.952Z</time>
      </trkpt>
      <trkpt lat="54.25698" lon="18.47802">
        <ele>112.749679</ele>
        <time>2024-08-04T09:35:16.968Z</time>
      </trkpt>
      <trkpt lat="54.25691" lon="18.47817">
        <ele>113.262803</ele>
        <time>2024-08-04T09:35:20.958Z</time>
      </trkpt>
      <trkpt lat="54.25683" lon="18.47832">
        <ele>113.807177</ele>
        <time>2024-08-04T09:35:24.957Z</time>
      </trkpt>
      <trkpt lat="54.25674" lon="18.47845">
        <ele>114.345037</ele>
        <time>2024-08-04T09:35:28.960Z</time>
      </trkpt>
      <trkpt lat="54.25667" lon="18.47855">
        <ele>114.76645</ele>
        <time>2024-08-04T09:35:31.980Z</time>
      </trkpt>
      <trkpt lat="54.25659" lon="18.47868">
        <ele>115.310225</ele>
        <time>2024-08-04T09:35:35.955Z</time>
      </trkpt>
      <trkpt lat="54.2565" lon="18.47881">
        <ele>115.851758</ele>
        <time>2024-08-04T09:35:39.962Z</time>
      </trkpt>
      <trkpt lat="54.25641" lon="18.47893">
        <ele>116.375789</ele>
        <time>2024-08-04T09:35:43.968Z</time>
      </trkpt>
      <trkpt lat="54.25632" lon="18.47905">
        <ele>116.908814</ele>
        <time>2024-08-04T09:35:47.961Z</time>
      </trkpt>
      <trkpt lat="54.25623" lon="18.47917">
        <ele>117.054398</ele>
        <time>2024-08-04T09:35:51.994Z</time>
      </trkpt>
      <trkpt lat="54.25613" lon="18.47927">
        <ele>117.090089</ele>
        <time>2024-08-04T09:35:55.973Z</time>
      </trkpt>
      <trkpt lat="54.25603" lon="18.4793">
        <ele>117.12143</ele>
        <time>2024-08-04T09:35:59.940Z</time>
      </trkpt>
      <trkpt lat="54.25594" lon="18.47935">
        <ele>117.150183</ele>
        <time>2024-08-04T09:36:03.955Z</time>
      </trkpt>
      <trkpt lat="54.25585" lon="18.47942">
        <ele>117.181952</ele>
        <time>2024-08-04T09:36:08.967Z</time>
      </trkpt>
      <trkpt lat="54.25582" lon="18.47961">
        <ele>117.216362</ele>
        <time>2024-08-04T09:36:13.953Z</time>
      </trkpt>
      <trkpt lat="54.25585" lon="18.47979">
        <ele>117.249816</ele>
        <time>2024-08-04T09:36:18.962Z</time>
      </trkpt>
      <trkpt lat="54.25588" lon="18.47996">
        <ele>117.281561</ele>
        <time>2024-08-04T09:36:22.968Z</time>
      </trkpt>
      <trkpt lat="54.25597" lon="18.48003">
        <ele>117.313894</ele>
        <time>2024-08-04T09:36:27.947Z</time>
      </trkpt>
      <trkpt lat="54.25606" lon="18.48003">
        <ele>117.341377</ele>
        <time>2024-08-04T09:36:30.961Z</time>
      </trkpt>
      <trkpt lat="54.25616" lon="18.47993">
        <ele>117.374331</ele>
        <time>2024-08-04T09:36:34.958Z</time>
      </trkpt>
      <trkpt lat="54.25625" lon="18.47981">
        <ele>117.41064</ele>
        <time>2024-08-04T09:36:38.937Z</time>
      </trkpt>
      <trkpt lat="54.25633" lon="18.4797">
        <ele>117.442167</ele>
        <time>2024-08-04T09:36:41.989Z</time>
      </trkpt>
      <trkpt lat="54.25643" lon="18.47956">
        <ele>117.481933</ele>
        <time>2024-08-04T09:36:44.956Z</time>
      </trkpt>
      <trkpt lat="54.25652" lon="18.47944">
        <ele>117.51701</ele>
        <time>2024-08-04T09:36:47.954Z</time>
      </trkpt>
      <trkpt lat="54.25663" lon="18.47939">
        <ele>117.550171</ele>
        <time>2024-08-04T09:36:50.974Z</time>
      </trkpt>
      <trkpt lat="54.25673" lon="18.47938">
        <ele>117.567888</ele>
        <time>2024-08-04T09:36:54.960Z</time>
      </trkpt>
      <trkpt lat="54.25664" lon="18.47933">
        <ele>117.488308</ele>
        <time>2024-08-04T09:37:23.969Z</time>
      </trkpt>
      <trkpt lat="54.25655" lon="18.47937">
        <ele>117.405988</ele>
        <time>2024-08-04T09:37:26.974Z</time>
      </trkpt>
      <trkpt lat="54.25646" lon="18.47944">
        <ele>117.322159</ele>
        <time>2024-08-04T09:37:29.961Z</time>
      </trkpt>
      <trkpt lat="54.25636" lon="18.47954">
        <ele>117.227522</ele>
        <time>2024-08-04T09:37:32.959Z</time>
      </trkpt>
      <trkpt lat="54.25628" lon="18.47961">
        <ele>117.147779</ele>
        <time>2024-08-04T09:37:35.962Z</time>
      </trkpt>
      <trkpt lat="54.25625" lon="18.47979">
        <ele>117.054195</ele>
        <time>2024-08-04T09:37:39.954Z</time>
      </trkpt>
      <trkpt lat="54.25618" lon="18.47988">
        <ele>116.977214</ele>
        <time>2024-08-04T09:37:42.970Z</time>
      </trkpt>
      <trkpt lat="54.25609" lon="18.47999">
        <ele>116.882793</ele>
        <time>2024-08-04T09:37:46.966Z</time>
      </trkpt>
      <trkpt lat="54.256" lon="18.4801">
        <ele>116.791068</ele>
        <time>2024-08-04T09:37:51.999Z</time>
      </trkpt>
      <trkpt lat="54.25596" lon="18.48028">
        <ele>116.693271</ele>
        <time>2024-08-04T09:37:55.953Z</time>
      </trkpt>
      <trkpt lat="54.25597" lon="18.48046">
        <ele>116.604455</ele>
        <time>2024-08-04T09:37:58.976Z</time>
      </trkpt>
      <trkpt lat="54.25603" lon="18.48068">
        <ele>116.48717</ele>
        <time>2024-08-04T09:38:02.006Z</time>
      </trkpt>
      <trkpt lat="54.25606" lon="18.48083">
        <ele>116.402989</ele>
        <time>2024-08-04T09:38:03.970Z</time>
      </trkpt>
      <trkpt lat="54.2561" lon="18.481">
        <ele>116.316331</ele>
        <time>2024-08-04T09:38:05.971Z</time>
      </trkpt>
      <trkpt lat="54.25612" lon="18.48117">
        <ele>116.227321</ele>
        <time>2024-08-04T09:38:07.967Z</time>
      </trkpt>
      <trkpt lat="54.25614" lon="18.48136">
        <ele>116.134258</ele>
        <time>2024-08-04T09:38:09.967Z</time>
      </trkpt>
      <trkpt lat="54.25615" lon="18.48155">
        <ele>116.014673</ele>
        <time>2024-08-04T09:38:11.991Z</time>
      </trkpt>
      <trkpt lat="54.25617" lon="18.48174">
        <ele>115.600746</ele>
        <time>2024-08-04T09:38:13.962Z</time>
      </trkpt>
      <trkpt lat="54.25618" lon="18.48194">
        <ele>115.164924</ele>
        <time>2024-08-04T09:38:15.969Z</time>
      </trkpt>
      <trkpt lat="54.25618" lon="18.48215">
        <ele>114.723089</ele>
        <time>2024-08-04T09:38:17.963Z</time>
      </trkpt>
      <trkpt lat="54.25619" lon="18.48235">
        <ele>114.278417</ele>
        <time>2024-08-04T09:38:19.958Z</time>
      </trkpt>
      <trkpt lat="54.25621" lon="18.48256">
        <ele>113.822053</ele>
        <time>2024-08-04T09:38:21.978Z</time>
      </trkpt>
      <trkpt lat="54.25622" lon="18.48279">
        <ele>113.337849</ele>
        <time>2024-08-04T09:38:23.971Z</time>
      </trkpt>
      <trkpt lat="54.25623" lon="18.48301">
        <ele>112.847533</ele>
        <time>2024-08-04T09:38:25.955Z</time>
      </trkpt>
      <trkpt lat="54.25624" lon="18.48325">
        <ele>112.34349</ele>
        <time>2024-08-04T09:38:27.983Z</time>
      </trkpt>
      <trkpt lat="54.25625" lon="18.48348">
        <ele>111.828583</ele>
        <time>2024-08-04T09:38:29.968Z</time>
      </trkpt>
      <trkpt lat="54.25627" lon="18.48373">
        <ele>111.291291</ele>
        <time>2024-08-04T09:38:31.983Z</time>
      </trkpt>
      <trkpt lat="54.25628" lon="18.48399">
        <ele>110.738151</ele>
        <time>2024-08-04T09:38:33.959Z</time>
      </trkpt>
      <trkpt lat="54.25631" lon="18.48427">
        <ele>110.123255</ele>
        <time>2024-08-04T09:38:35.955Z</time>
      </trkpt>
      <trkpt lat="54.25636" lon="18.48456">
        <ele>109.480106</ele>
        <time>2024-08-04T09:38:37.965Z</time>
      </trkpt>
      <trkpt lat="54.25641" lon="18.48485">
        <ele>109.025435</ele>
        <time>2024-08-04T09:38:39.963Z</time>
      </trkpt>
      <trkpt lat="54.25646" lon="18.48513">
        <ele>108.588834</ele>
        <time>2024-08-04T09:38:41.982Z</time>
      </trkpt>
      <trkpt lat="54.2565" lon="18.48541">
        <ele>108.18344</ele>
        <time>2024-08-04T09:38:43.965Z</time>
      </trkpt>
      <trkpt lat="54.25654" lon="18.48566">
        <ele>107.807799</ele>
        <time>2024-08-04T09:38:45.955Z</time>
      </trkpt>
      <trkpt lat="54.25658" lon="18.4859">
        <ele>107.447965</ele>
        <time>2024-08-04T09:38:47.957Z</time>
      </trkpt>
      <trkpt lat="54.2566" lon="18.48613">
        <ele>107.106832</ele>
        <time>2024-08-04T09:38:49.951Z</time>
      </trkpt>
      <trkpt lat="54.25662" lon="18.48634">
        <ele>106.808773</ele>
        <time>2024-08-04T09:38:51.957Z</time>
      </trkpt>
      <trkpt lat="54.25664" lon="18.48652">
        <ele>106.534822</ele>
        <time>2024-08-04T09:38:53.949Z</time>
      </trkpt>
      <trkpt lat="54.25668" lon="18.48674">
        <ele>106.205569</ele>
        <time>2024-08-04T09:38:56.953Z</time>
      </trkpt>
      <trkpt lat="54.25676" lon="18.48686">
        <ele>105.943126</ele>
        <time>2024-08-04T09:39:03.953Z</time>
      </trkpt>
      <trkpt lat="54.25679" lon="18.48707">
        <ele>105.636104</ele>
        <time>2024-08-04T09:39:07.950Z</time>
      </trkpt>
      <trkpt lat="54.25674" lon="18.48728">
        <ele>105.312441</ele>
        <time>2024-08-04T09:39:10.955Z</time>
      </trkpt>
      <trkpt lat="54.25672" lon="18.48745">
        <ele>105.062952</ele>
        <time>2024-08-04T09:39:12.948Z</time>
      </trkpt>
      <trkpt lat="54.25671" lon="18.48763">
        <ele>104.74034</ele>
        <time>2024-08-04T09:39:14.965Z</time>
      </trkpt>
      <trkpt lat="54.25671" lon="18.48783">
        <ele>104.364557</ele>
        <time>2024-08-04T09:39:16.953Z</time>
      </trkpt>
      <trkpt lat="54.25672" lon="18.48802">
        <ele>103.982877</ele>
        <time>2024-08-04T09:39:18.951Z</time>
      </trkpt>
      <trkpt lat="54.25675" lon="18.48822">
        <ele>103.595924</ele>
        <time>2024-08-04T09:39:20.954Z</time>
      </trkpt>
      <trkpt lat="54.25679" lon="18.48841">
        <ele>103.199799</ele>
        <time>2024-08-04T09:39:22.947Z</time>
      </trkpt>
      <trkpt lat="54.25683" lon="18.48861">
        <ele>102.802917</ele>
        <time>2024-08-04T09:39:24.955Z</time>
      </trkpt>
      <trkpt lat="54.25687" lon="18.4888">
        <ele>102.407174</ele>
        <time>2024-08-04T09:39:26.967Z</time>
      </trkpt>
      <trkpt lat="54.25691" lon="18.48899">
        <ele>102.024082</ele>
        <time>2024-08-04T09:39:28.957Z</time>
      </trkpt>
      <trkpt lat="54.25695" lon="18.48918">
        <ele>101.627837</ele>
        <time>2024-08-04T09:39:30.949Z</time>
      </trkpt>
      <trkpt lat="54.25699" lon="18.48937">
        <ele>101.231394</ele>
        <time>2024-08-04T09:39:32.958Z</time>
      </trkpt>
      <trkpt lat="54.25704" lon="18.48958">
        <ele>100.812994</ele>
        <time>2024-08-04T09:39:34.947Z</time>
      </trkpt>
      <trkpt lat="54.25708" lon="18.48979">
        <ele>100.369837</ele>
        <time>2024-08-04T09:39:36.965Z</time>
      </trkpt>
      <trkpt lat="54.2571" lon="18.49004">
        <ele>99.894574</ele>
        <time>2024-08-04T09:39:38.961Z</time>
      </trkpt>
      <trkpt lat="54.25712" lon="18.49031">
        <ele>99.359419</ele>
        <time>2024-08-04T09:39:40.947Z</time>
      </trkpt>
      <trkpt lat="54.25715" lon="18.49061">
        <ele>99.084409</ele>
        <time>2024-08-04T09:39:42.948Z</time>
      </trkpt>
      <trkpt lat="54.25721" lon="18.49089">
        <ele>99.167454</ele>
        <time>2024-08-04T09:39:44.957Z</time>
      </trkpt>
      <trkpt lat="54.2573" lon="18.49116">
        <ele>99.249113</ele>
        <time>2024-08-04T09:39:46.943Z</time>
      </trkpt>
      <trkpt lat="54.25735" lon="18.49129">
        <ele>99.29101</ele>
        <time>2024-08-04T09:39:47.927Z</time>
      </trkpt>
      <trkpt lat="54.25744" lon="18.49154">
        <ele>99.368768</ele>
        <time>2024-08-04T09:39:49.942Z</time>
      </trkpt>
      <trkpt lat="54.25752" lon="18.49176">
        <ele>99.43772</ele>
        <time>2024-08-04T09:39:51.954Z</time>
      </trkpt>
      <trkpt lat="54.25759" lon="18.49196">
        <ele>99.500637</ele>
        <time>2024-08-04T09:39:53.950Z</time>
      </trkpt>
      <trkpt lat="54.25767" lon="18.49213">
        <ele>99.559284</ele>
        <time>2024-08-04T09:39:55.953Z</time>
      </trkpt>
      <trkpt lat="54.25775" lon="18.49227">
        <ele>99.613477</ele>
        <time>2024-08-04T09:39:57.945Z</time>
      </trkpt>
      <trkpt lat="54.25783" lon="18.4924">
        <ele>99.662558</ele>
        <time>2024-08-04T09:39:59.946Z</time>
      </trkpt>
      <trkpt lat="54.2579" lon="18.49253">
        <ele>99.709725</ele>
        <time>2024-08-04T09:40:01.992Z</time>
      </trkpt>
      <trkpt lat="54.25799" lon="18.49268">
        <ele>99.766541</ele>
        <time>2024-08-04T09:40:04.947Z</time>
      </trkpt>
      <trkpt lat="54.25806" lon="18.4928">
        <ele>99.813841</ele>
        <time>2024-08-04T09:40:07.965Z</time>
      </trkpt>
      <trkpt lat="54.25813" lon="18.49294">
        <ele>99.863207</ele>
        <time>2024-08-04T09:40:10.966Z</time>
      </trkpt>
      <trkpt lat="54.25821" lon="18.49308">
        <ele>99.765472</ele>
        <time>2024-08-04T09:40:13.946Z</time>
      </trkpt>
      <trkpt lat="54.25827" lon="18.49324">
        <ele>99.627818</ele>
        <time>2024-08-04T09:40:16.947Z</time>
      </trkpt>
      <trkpt lat="54.25835" lon="18.4934">
        <ele>99.483566</ele>
        <time>2024-08-04T09:40:19.946Z</time>
      </trkpt>
      <trkpt lat="54.25841" lon="18.49359">
        <ele>99.331839</ele>
        <time>2024-08-04T09:40:22.948Z</time>
      </trkpt>
      <trkpt lat="54.25848" lon="18.49378">
        <ele>99.172269</ele>
        <time>2024-08-04T09:40:25.942Z</time>
      </trkpt>
      <trkpt lat="54.25853" lon="18.49391">
        <ele>99.062676</ele>
        <time>2024-08-04T09:40:27.965Z</time>
      </trkpt>
      <trkpt lat="54.25859" lon="18.49406">
        <ele>98.939533</ele>
        <time>2024-08-04T09:40:29.950Z</time>
      </trkpt>
      <trkpt lat="54.25865" lon="18.49421">
        <ele>98.807321</ele>
        <time>2024-08-04T09:40:31.952Z</time>
      </trkpt>
      <trkpt lat="54.25871" lon="18.49439">
        <ele>98.664257</ele>
        <time>2024-08-04T09:40:33.946Z</time>
      </trkpt>
      <trkpt lat="54.25877" lon="18.49456">
        <ele>98.519927</ele>
        <time>2024-08-04T09:40:35.945Z</time>
      </trkpt>
      <trkpt lat="54.25884" lon="18.49475">
        <ele>98.367695</ele>
        <time>2024-08-04T09:40:37.946Z</time>
      </trkpt>
      <trkpt lat="54.2589" lon="18.49494">
        <ele>98.208802</ele>
        <time>2024-08-04T09:40:39.940Z</time>
      </trkpt>
      <trkpt lat="54.25898" lon="18.49514">
        <ele>98.043129</ele>
        <time>2024-08-04T09:40:42.001Z</time>
      </trkpt>
      <trkpt lat="54.25904" lon="18.49535">
        <ele>97.873872</ele>
        <time>2024-08-04T09:40:43.946Z</time>
      </trkpt>
      <trkpt lat="54.25912" lon="18.49556">
        <ele>97.701899</ele>
        <time>2024-08-04T09:40:45.958Z</time>
      </trkpt>
      <trkpt lat="54.25919" lon="18.49578">
        <ele>97.650899</ele>
        <time>2024-08-04T09:40:47.945Z</time>
      </trkpt>
      <trkpt lat="54.25926" lon="18.496">
        <ele>97.598825</ele>
        <time>2024-08-04T09:40:49.944Z</time>
      </trkpt>
      <trkpt lat="54.25934" lon="18.49621">
        <ele>97.548348</ele>
        <time>2024-08-04T09:40:51.950Z</time>
      </trkpt>
      <trkpt lat="54.2594" lon="18.4964">
        <ele>97.502503</ele>
        <time>2024-08-04T09:40:53.946Z</time>
      </trkpt>
      <trkpt lat="54.25946" lon="18.49658">
        <ele>97.459144</ele>
        <time>2024-08-04T09:40:55.947Z</time>
      </trkpt>
      <trkpt lat="54.2595" lon="18.49676">
        <ele>97.41932</ele>
        <time>2024-08-04T09:40:57.947Z</time>
      </trkpt>
      <trkpt lat="54.25951" lon="18.49693">
        <ele>97.384569</ele>
        <time>2024-08-04T09:40:59.935Z</time>
      </trkpt>
      <trkpt lat="54.25951" lon="18.4971">
        <ele>97.350549</ele>
        <time>2024-08-04T09:41:01.989Z</time>
      </trkpt>
      <trkpt lat="54.25945" lon="18.4973">
        <ele>97.304416</ele>
        <time>2024-08-04T09:41:04.948Z</time>
      </trkpt>
      <trkpt lat="54.25938" lon="18.49748">
        <ele>97.25986</ele>
        <time>2024-08-04T09:41:07.947Z</time>
      </trkpt>
      <trkpt lat="54.25932" lon="18.49762">
        <ele>97.222296</ele>
        <time>2024-08-04T09:41:10.948Z</time>
      </trkpt>
      <trkpt lat="54.25924" lon="18.49777">
        <ele>97.182052</ele>
        <time>2024-08-04T09:41:14.950Z</time>
      </trkpt>
      <trkpt lat="54.25927" lon="18.49793">
        <ele>97.146394</ele>
        <time>2024-08-04T09:41:18.936Z</time>
      </trkpt>
      <trkpt lat="54.25935" lon="18.49808">
        <ele>97.105156</ele>
        <time>2024-08-04T09:41:22.948Z</time>
      </trkpt>
      <trkpt lat="54.25943" lon="18.49821">
        <ele>97.072113</ele>
        <time>2024-08-04T09:41:25.952Z</time>
      </trkpt>
      <trkpt lat="54.25949" lon="18.49834">
        <ele>97.103122</ele>
        <time>2024-08-04T09:41:27.946Z</time>
      </trkpt>
      <trkpt lat="54.25957" lon="18.49848">
        <ele>97.138211</ele>
        <time>2024-08-04T09:41:29.973Z</time>
      </trkpt>
      <trkpt lat="54.25964" lon="18.49864">
        <ele>97.176062</ele>
        <time>2024-08-04T09:41:31.993Z</time>
      </trkpt>
      <trkpt lat="54.25972" lon="18.49883">
        <ele>97.218334</ele>
        <time>2024-08-04T09:41:33.946Z</time>
      </trkpt>
      <trkpt lat="54.25979" lon="18.49904">
        <ele>97.263174</ele>
        <time>2024-08-04T09:41:35.950Z</time>
      </trkpt>
      <trkpt lat="54.25984" lon="18.49927">
        <ele>97.308455</ele>
        <time>2024-08-04T09:41:37.955Z</time>
      </trkpt>
      <trkpt lat="54.25988" lon="18.49949">
        <ele>97.350939</ele>
        <time>2024-08-04T09:41:39.953Z</time>
      </trkpt>
      <trkpt lat="54.2599" lon="18.49971">
        <ele>97.393135</ele>
        <time>2024-08-04T09:41:41.998Z</time>
      </trkpt>
      <trkpt lat="54.25994" lon="18.49992">
        <ele>97.433483</ele>
        <time>2024-08-04T09:41:43.958Z</time>
      </trkpt>
      <trkpt lat="54.25997" lon="18.50012">
        <ele>97.471974</ele>
        <time>2024-08-04T09:41:45.964Z</time>
      </trkpt>
      <trkpt lat="54.26" lon="18.50032">
        <ele>97.509152</ele>
        <time>2024-08-04T09:41:47.957Z</time>
      </trkpt>
      <trkpt lat="54.26003" lon="18.50051">
        <ele>97.545435</ele>
        <time>2024-08-04T09:41:49.957Z</time>
      </trkpt>
      <trkpt lat="54.26006" lon="18.50069">
        <ele>97.580289</ele>
        <time>2024-08-04T09:41:51.990Z</time>
      </trkpt>
      <trkpt lat="54.26009" lon="18.50087">
        <ele>97.615062</ele>
        <time>2024-08-04T09:41:53.958Z</time>
      </trkpt>
      <trkpt lat="54.26011" lon="18.50104">
        <ele>97.763705</ele>
        <time>2024-08-04T09:41:55.969Z</time>
      </trkpt>
      <trkpt lat="54.26014" lon="18.50122">
        <ele>98.170746</ele>
        <time>2024-08-04T09:41:57.965Z</time>
      </trkpt>
      <trkpt lat="54.26017" lon="18.50138">
        <ele>98.556323</ele>
        <time>2024-08-04T09:41:59.959Z</time>
      </trkpt>
      <trkpt lat="54.26019" lon="18.50154">
        <ele>98.929053</ele>
        <time>2024-08-04T09:42:02.007Z</time>
      </trkpt>
      <trkpt lat="54.26021" lon="18.50175">
        <ele>99.417307</ele>
        <time>2024-08-04T09:42:04.946Z</time>
      </trkpt>
      <trkpt lat="54.26024" lon="18.50196">
        <ele>99.908241</ele>
        <time>2024-08-04T09:42:07.951Z</time>
      </trkpt>
      <trkpt lat="54.26028" lon="18.50217">
        <ele>100.403601</ele>
        <time>2024-08-04T09:42:10.960Z</time>
      </trkpt>
      <trkpt lat="54.26031" lon="18.50236">
        <ele>100.839152</ele>
        <time>2024-08-04T09:42:13.953Z</time>
      </trkpt>
      <trkpt lat="54.26034" lon="18.50254">
        <ele>101.263605</ele>
        <time>2024-08-04T09:42:16.959Z</time>
      </trkpt>
      <trkpt lat="54.26037" lon="18.50271">
        <ele>101.681613</ele>
        <time>2024-08-04T09:42:19.948Z</time>
      </trkpt>
      <trkpt lat="54.2604" lon="18.50289">
        <ele>102.1028</ele>
        <time>2024-08-04T09:42:22.957Z</time>
      </trkpt>
      <trkpt lat="54.26043" lon="18.50306">
        <ele>102.505969</ele>
        <time>2024-08-04T09:42:25.946Z</time>
      </trkpt>
      <trkpt lat="54.26046" lon="18.50323">
        <ele>102.897766</ele>
        <time>2024-08-04T09:42:28.953Z</time>
      </trkpt>
      <trkpt lat="54.26049" lon="18.50339">
        <ele>103.284296</ele>
        <time>2024-08-04T09:42:31.957Z</time>
      </trkpt>
      <trkpt lat="54.26051" lon="18.50355">
        <ele>103.659766</ele>
        <time>2024-08-04T09:42:34.933Z</time>
      </trkpt>
      <trkpt lat="54.26054" lon="18.5037">
        <ele>104.010244</ele>
        <time>2024-08-04T09:42:37.965Z</time>
      </trkpt>
      <trkpt lat="54.26057" lon="18.50387">
        <ele>104.417313</ele>
        <time>2024-08-04T09:42:41.977Z</time>
      </trkpt>
      <trkpt lat="54.2606" lon="18.50405">
        <ele>104.809145</ele>
        <time>2024-08-04T09:42:45.949Z</time>
      </trkpt>
      <trkpt lat="54.26063" lon="18.50423">
        <ele>105.188723</ele>
        <time>2024-08-04T09:42:49.949Z</time>
      </trkpt>
      <trkpt lat="54.26066" lon="18.50441">
        <ele>105.555794</ele>
        <time>2024-08-04T09:42:53.947Z</time>
      </trkpt>
      <trkpt lat="54.26069" lon="18.50459">
        <ele>105.926897</ele>
        <time>2024-08-04T09:42:57.952Z</time>
      </trkpt>
      <trkpt lat="54.26072" lon="18.50477">
        <ele>106.304546</ele>
        <time>2024-08-04T09:43:01.996Z</time>
      </trkpt>
      <trkpt lat="54.26075" lon="18.50496">
        <ele>106.710024</ele>
        <time>2024-08-04T09:43:05.951Z</time>
      </trkpt>
      <trkpt lat="54.26078" lon="18.50511">
        <ele>107.01987</ele>
        <time>2024-08-04T09:43:08.957Z</time>
      </trkpt>
      <trkpt lat="54.26081" lon="18.50527">
        <ele>107.348879</ele>
        <time>2024-08-04T09:43:11.968Z</time>
      </trkpt>
      <trkpt lat="54.26084" lon="18.50547">
        <ele>107.751317</ele>
        <time>2024-08-04T09:43:15.952Z</time>
      </trkpt>
      <trkpt lat="54.26086" lon="18.50565">
        <ele>108.125631</ele>
        <time>2024-08-04T09:43:19.952Z</time>
      </trkpt>
      <trkpt lat="54.2609" lon="18.50583">
        <ele>108.511326</ele>
        <time>2024-08-04T09:43:23.949Z</time>
      </trkpt>
      <trkpt lat="54.26092" lon="18.506">
        <ele>108.862757</ele>
        <time>2024-08-04T09:43:27.951Z</time>
      </trkpt>
      <trkpt lat="54.26096" lon="18.50618">
        <ele>109.231967</ele>
        <time>2024-08-04T09:43:31.972Z</time>
      </trkpt>
      <trkpt lat="54.26098" lon="18.50636">
        <ele>109.58974</ele>
        <time>2024-08-04T09:43:35.966Z</time>
      </trkpt>
      <trkpt lat="54.26101" lon="18.50653">
        <ele>109.945473</ele>
        <time>2024-08-04T09:43:39.963Z</time>
      </trkpt>
      <trkpt lat="54.26104" lon="18.50668">
        <ele>110.274322</ele>
        <time>2024-08-04T09:43:43.969Z</time>
      </trkpt>
      <trkpt lat="54.26106" lon="18.50684">
        <ele>110.583893</ele>
        <time>2024-08-04T09:43:47.947Z</time>
      </trkpt>
      <trkpt lat="54.26111" lon="18.50698">
        <ele>110.815379</ele>
        <time>2024-08-04T09:43:51.948Z</time>
      </trkpt>
      <trkpt lat="54.26115" lon="18.50714">
        <ele>110.940778</ele>
        <time>2024-08-04T09:43:55.950Z</time>
      </trkpt>
      <trkpt lat="54.26115" lon="18.5073">
        <ele>111.063376</ele>
        <time>2024-08-04T09:43:59.944Z</time>
      </trkpt>
      <trkpt lat="54.26118" lon="18.50749">
        <ele>111.203059</ele>
        <time>2024-08-04T09:44:03.961Z</time>
      </trkpt>
      <trkpt lat="54.2612" lon="18.50768">
        <ele>111.349019</ele>
        <time>2024-08-04T09:44:07.945Z</time>
      </trkpt>
      <trkpt lat="54.26123" lon="18.50787">
        <ele>111.49422</ele>
        <time>2024-08-04T09:44:11.992Z</time>
      </trkpt>
      <trkpt lat="54.26127" lon="18.50807">
        <ele>111.642965</ele>
        <time>2024-08-04T09:44:15.951Z</time>
      </trkpt>
      <trkpt lat="54.26129" lon="18.50824">
        <ele>111.773283</ele>
        <time>2024-08-04T09:44:19.953Z</time>
      </trkpt>
      <trkpt lat="54.26132" lon="18.5084">
        <ele>111.896221</ele>
        <time>2024-08-04T09:44:23.944Z</time>
      </trkpt>
      <trkpt lat="54.26132" lon="18.50857">
        <ele>112.023046</ele>
        <time>2024-08-04T09:44:27.941Z</time>
      </trkpt>
      <trkpt lat="54.2613" lon="18.50875">
        <ele>112.153923</ele>
        <time>2024-08-04T09:44:31.957Z</time>
      </trkpt>
      <trkpt lat="54.26128" lon="18.50892">
        <ele>112.282537</ele>
        <time>2024-08-04T09:44:35.945Z</time>
      </trkpt>
      <trkpt lat="54.26127" lon="18.50911">
        <ele>112.422219</ele>
        <time>2024-08-04T09:44:39.955Z</time>
      </trkpt>
      <trkpt lat="54.26125" lon="18.5093">
        <ele>112.566427</ele>
        <time>2024-08-04T09:44:43.948Z</time>
      </trkpt>
      <trkpt lat="54.26124" lon="18.5095">
        <ele>112.717034</ele>
        <time>2024-08-04T09:44:47.955Z</time>
      </trkpt>
      <trkpt lat="54.26122" lon="18.5097">
        <ele>112.861424</ele>
        <time>2024-08-04T09:44:51.970Z</time>
      </trkpt>
      <trkpt lat="54.26121" lon="18.50986">
        <ele>112.984132</ele>
        <time>2024-08-04T09:44:55.962Z</time>
      </trkpt>
      <trkpt lat="54.2612" lon="18.51004">
        <ele>113.027711</ele>
        <time>2024-08-04T09:45:00.939Z</time>
      </trkpt>
      <trkpt lat="54.26118" lon="18.5102">
        <ele>113.037708</ele>
        <time>2024-08-04T09:45:09.936Z</time>
      </trkpt>
      <trkpt lat="54.26117" lon="18.51038">
        <ele>113.048556</ele>
        <time>2024-08-04T09:45:15.935Z</time>
      </trkpt>
      <trkpt lat="54.26113" lon="18.51053">
        <ele>113.057879</ele>
        <time>2024-08-04T09:45:18.939Z</time>
      </trkpt>
      <trkpt lat="54.2611" lon="18.51069">
        <ele>113.068375</ele>
        <time>2024-08-04T09:45:21.973Z</time>
      </trkpt>
      <trkpt lat="54.26106" lon="18.51084">
        <ele>113.077997</ele>
        <time>2024-08-04T09:45:24.969Z</time>
      </trkpt>
      <trkpt lat="54.26102" lon="18.51101">
        <ele>113.088751</ele>
        <time>2024-08-04T09:45:27.949Z</time>
      </trkpt>
      <trkpt lat="54.26099" lon="18.51118">
        <ele>113.099247</ele>
        <time>2024-08-04T09:45:30.953Z</time>
      </trkpt>
      <trkpt lat="54.26094" lon="18.51134">
        <ele>113.110233</ele>
        <time>2024-08-04T09:45:33.954Z</time>
      </trkpt>
      <trkpt lat="54.26088" lon="18.51151">
        <ele>113.122038</ele>
        <time>2024-08-04T09:45:36.955Z</time>
      </trkpt>
      <trkpt lat="54.26084" lon="18.51167">
        <ele>113.132204</ele>
        <time>2024-08-04T09:45:39.955Z</time>
      </trkpt>
      <trkpt lat="54.26081" lon="18.51183">
        <ele>113.142238</ele>
        <time>2024-08-04T09:45:42.942Z</time>
      </trkpt>
      <trkpt lat="54.26079" lon="18.51199">
        <ele>113.152326</ele>
        <time>2024-08-04T09:45:45.955Z</time>
      </trkpt>
      <trkpt lat="54.26075" lon="18.51216">
        <ele>113.162927</ele>
        <time>2024-08-04T09:45:48.954Z</time>
      </trkpt>
      <trkpt lat="54.26073" lon="18.51233">
        <ele>113.173267</ele>
        <time>2024-08-04T09:45:51.998Z</time>
      </trkpt>
      <trkpt lat="54.26071" lon="18.5125">
        <ele>113.183614</ele>
        <time>2024-08-04T09:45:54.960Z</time>
      </trkpt>
      <trkpt lat="54.26068" lon="18.51267">
        <ele>113.194132</ele>
        <time>2024-08-04T09:45:57.950Z</time>
      </trkpt>
      <trkpt lat="54.26065" lon="18.51284">
        <ele>113.191622</ele>
        <time>2024-08-04T09:46:00.962Z</time>
      </trkpt>
      <trkpt lat="54.2606" lon="18.51299">
        <ele>113.054933</ele>
        <time>2024-08-04T09:46:03.948Z</time>
      </trkpt>
      <trkpt lat="54.26055" lon="18.51314">
        <ele>112.916175</ele>
        <time>2024-08-04T09:46:06.965Z</time>
      </trkpt>
      <trkpt lat="54.2605" lon="18.51333">
        <ele>112.752023</ele>
        <time>2024-08-04T09:46:10.958Z</time>
      </trkpt>
      <trkpt lat="54.26048" lon="18.5135">
        <ele>112.620358</ele>
        <time>2024-08-04T09:46:13.951Z</time>
      </trkpt>
      <trkpt lat="54.26045" lon="18.51366">
        <ele>112.483315</ele>
        <time>2024-08-04T09:46:16.955Z</time>
      </trkpt>
      <trkpt lat="54.26042" lon="18.51383">
        <ele>112.342241</ele>
        <time>2024-08-04T09:46:19.949Z</time>
      </trkpt>
      <trkpt lat="54.26039" lon="18.51399">
        <ele>112.210187</ele>
        <time>2024-08-04T09:46:22.927Z</time>
      </trkpt>
      <trkpt lat="54.26036" lon="18.51415">
        <ele>112.075108</ele>
        <time>2024-08-04T09:46:25.954Z</time>
      </trkpt>
      <trkpt lat="54.26032" lon="18.51432">
        <ele>111.934034</ele>
        <time>2024-08-04T09:46:28.949Z</time>
      </trkpt>
      <trkpt lat="54.26028" lon="18.5145">
        <ele>111.783354</ele>
        <time>2024-08-04T09:46:31.998Z</time>
      </trkpt>
      <trkpt lat="54.26025" lon="18.51468">
        <ele>111.635759</ele>
        <time>2024-08-04T09:46:34.946Z</time>
      </trkpt>
      <trkpt lat="54.26023" lon="18.51484">
        <ele>111.506985</ele>
        <time>2024-08-04T09:46:38.953Z</time>
      </trkpt>
      <trkpt lat="54.26022" lon="18.51505">
        <ele>111.34081</ele>
        <time>2024-08-04T09:46:42.970Z</time>
      </trkpt>
      <trkpt lat="54.26023" lon="18.51522">
        <ele>111.20455</ele>
        <time>2024-08-04T09:46:45.951Z</time>
      </trkpt>
      <trkpt lat="54.26026" lon="18.51542">
        <ele>111.04227</ele>
        <time>2024-08-04T09:46:48.925Z</time>
      </trkpt>
      <trkpt lat="54.26029" lon="18.51557">
        <ele>110.917253</ele>
        <time>2024-08-04T09:46:50.950Z</time>
      </trkpt>
      <trkpt lat="54.26032" lon="18.51573">
        <ele>110.782963</ele>
        <time>2024-08-04T09:46:52.963Z</time>
      </trkpt>
      <trkpt lat="54.26036" lon="18.5159">
        <ele>110.560707</ele>
        <time>2024-08-04T09:46:54.953Z</time>
      </trkpt>
      <trkpt lat="54.2604" lon="18.51607">
        <ele>110.324753</ele>
        <time>2024-08-04T09:46:56.947Z</time>
      </trkpt>
      <trkpt lat="54.26044" lon="18.51626">
        <ele>110.079176</ele>
        <time>2024-08-04T09:46:58.945Z</time>
      </trkpt>
      <trkpt lat="54.26047" lon="18.51641">
        <ele>109.884503</ele>
        <time>2024-08-04T09:47:00.958Z</time>
      </trkpt>
      <trkpt lat="54.26051" lon="18.51662">
        <ele>109.608173</ele>
        <time>2024-08-04T09:47:03.948Z</time>
      </trkpt>
      <trkpt lat="54.26055" lon="18.51677">
        <ele>109.409264</ele>
        <time>2024-08-04T09:47:05.943Z</time>
      </trkpt>
      <trkpt lat="54.26058" lon="18.51694">
        <ele>109.185472</ele>
        <time>2024-08-04T09:47:07.947Z</time>
      </trkpt>
      <trkpt lat="54.26061" lon="18.51711">
        <ele>108.963824</ele>
        <time>2024-08-04T09:47:09.960Z</time>
      </trkpt>
      <trkpt lat="54.26065" lon="18.51728">
        <ele>108.732789</ele>
        <time>2024-08-04T09:47:11.939Z</time>
      </trkpt>
      <trkpt lat="54.26069" lon="18.51747">
        <ele>108.489551</ele>
        <time>2024-08-04T09:47:13.954Z</time>
      </trkpt>
      <trkpt lat="54.26074" lon="18.51764">
        <ele>108.249304</ele>
        <time>2024-08-04T09:47:15.943Z</time>
      </trkpt>
      <trkpt lat="54.26079" lon="18.51782">
        <ele>108.003653</ele>
        <time>2024-08-04T09:47:17.948Z</time>
      </trkpt>
      <trkpt lat="54.26084" lon="18.51799">
        <ele>107.760998</ele>
        <time>2024-08-04T09:47:19.951Z</time>
      </trkpt>
      <trkpt lat="54.2609" lon="18.51816">
        <ele>107.513113</ele>
        <time>2024-08-04T09:47:21.953Z</time>
      </trkpt>
      <trkpt lat="54.26096" lon="18.51834">
        <ele>107.265152</ele>
        <time>2024-08-04T09:47:23.924Z</time>
      </trkpt>
      <trkpt lat="54.261" lon="18.51852">
        <ele>107.018418</ele>
        <time>2024-08-04T09:47:25.951Z</time>
      </trkpt>
      <trkpt lat="54.26105" lon="18.51869">
        <ele>106.765995</ele>
        <time>2024-08-04T09:47:27.954Z</time>
      </trkpt>
      <trkpt lat="54.26111" lon="18.51886">
        <ele>106.514682</ele>
        <time>2024-08-04T09:47:29.936Z</time>
      </trkpt>
      <trkpt lat="54.26116" lon="18.51903">
        <ele>106.263351</ele>
        <time>2024-08-04T09:47:31.966Z</time>
      </trkpt>
      <trkpt lat="54.26122" lon="18.51919">
        <ele>106.017725</ele>
        <time>2024-08-04T09:47:33.945Z</time>
      </trkpt>
      <trkpt lat="54.26128" lon="18.51933">
        <ele>105.785198</ele>
        <time>2024-08-04T09:47:35.936Z</time>
      </trkpt>
      <trkpt lat="54.26133" lon="18.51949">
        <ele>105.550916</ele>
        <time>2024-08-04T09:47:37.937Z</time>
      </trkpt>
      <trkpt lat="54.26136" lon="18.51963">
        <ele>105.341863</ele>
        <time>2024-08-04T09:47:39.942Z</time>
      </trkpt>
      <trkpt lat="54.26142" lon="18.51981">
        <ele>105.075688</ele>
        <time>2024-08-04T09:47:42.948Z</time>
      </trkpt>
      <trkpt lat="54.26146" lon="18.51997">
        <ele>104.847902</ele>
        <time>2024-08-04T09:47:46.948Z</time>
      </trkpt>
      <trkpt lat="54.26154" lon="18.52008">
        <ele>104.632008</ele>
        <time>2024-08-04T09:47:54.944Z</time>
      </trkpt>
      <trkpt lat="54.26161" lon="18.51997">
        <ele>104.408475</ele>
        <time>2024-08-04T09:47:58.947Z</time>
      </trkpt>
      <trkpt lat="54.26169" lon="18.52006">
        <ele>104.187432</ele>
        <time>2024-08-04T09:48:02.949Z</time>
      </trkpt>
      <trkpt lat="54.26173" lon="18.5202">
        <ele>103.980541</ele>
        <time>2024-08-04T09:48:05.950Z</time>
      </trkpt>
      <trkpt lat="54.26177" lon="18.52035">
        <ele>103.766218</ele>
        <time>2024-08-04T09:48:08.965Z</time>
      </trkpt>
      <trkpt lat="54.26182" lon="18.52051">
        <ele>103.527251</ele>
        <time>2024-08-04T09:48:12.002Z</time>
      </trkpt>
      <trkpt lat="54.26187" lon="18.52069">
        <ele>103.261419</ele>
        <time>2024-08-04T09:48:14.945Z</time>
      </trkpt>
      <trkpt lat="54.26192" lon="18.52083">
        <ele>103.056352</ele>
        <time>2024-08-04T09:48:16.967Z</time>
      </trkpt>
      <trkpt lat="54.26196" lon="18.52098">
        <ele>102.816231</ele>
        <time>2024-08-04T09:48:18.951Z</time>
      </trkpt>
      <trkpt lat="54.262" lon="18.52115">
        <ele>102.521187</ele>
        <time>2024-08-04T09:48:20.956Z</time>
      </trkpt>
      <trkpt lat="54.26206" lon="18.52132">
        <ele>102.191764</ele>
        <time>2024-08-04T09:48:22.950Z</time>
      </trkpt>
      <trkpt lat="54.26211" lon="18.52151">
        <ele>101.856238</ele>
        <time>2024-08-04T09:48:24.946Z</time>
      </trkpt>
      <trkpt lat="54.26218" lon="18.52169">
        <ele>101.50427</ele>
        <time>2024-08-04T09:48:26.948Z</time>
      </trkpt>
      <trkpt lat="54.26225" lon="18.52188">
        <ele>101.121995</ele>
        <time>2024-08-04T09:48:28.949Z</time>
      </trkpt>
      <trkpt lat="54.26233" lon="18.52209">
        <ele>100.711328</ele>
        <time>2024-08-04T09:48:30.956Z</time>
      </trkpt>
      <trkpt lat="54.26242" lon="18.52233">
        <ele>100.26185</ele>
        <time>2024-08-04T09:48:32.964Z</time>
      </trkpt>
      <trkpt lat="54.2625" lon="18.52256">
        <ele>99.813896</ele>
        <time>2024-08-04T09:48:34.952Z</time>
      </trkpt>
      <trkpt lat="54.26257" lon="18.52279">
        <ele>99.395269</ele>
        <time>2024-08-04T09:48:36.960Z</time>
      </trkpt>
      <trkpt lat="54.26263" lon="18.52299">
        <ele>99.024412</ele>
        <time>2024-08-04T09:48:38.951Z</time>
      </trkpt>
      <trkpt lat="54.26269" lon="18.52318">
        <ele>98.658423</ele>
        <time>2024-08-04T09:48:40.948Z</time>
      </trkpt>
      <trkpt lat="54.26276" lon="18.52338">
        <ele>98.286566</ele>
        <time>2024-08-04T09:48:42.949Z</time>
      </trkpt>
      <trkpt lat="54.26282" lon="18.52359">
        <ele>97.910065</ele>
        <time>2024-08-04T09:48:44.950Z</time>
      </trkpt>
      <trkpt lat="54.26288" lon="18.5238">
        <ele>97.850773</ele>
        <time>2024-08-04T09:48:46.960Z</time>
      </trkpt>
      <trkpt lat="54.26295" lon="18.52401">
        <ele>97.842731</ele>
        <time>2024-08-04T09:48:48.965Z</time>
      </trkpt>
      <trkpt lat="54.26301" lon="18.52421">
        <ele>97.835009</ele>
        <time>2024-08-04T09:48:50.952Z</time>
      </trkpt>
      <trkpt lat="54.26308" lon="18.5244">
        <ele>97.827689</ele>
        <time>2024-08-04T09:48:52.952Z</time>
      </trkpt>
      <trkpt lat="54.26313" lon="18.52459">
        <ele>97.820819</ele>
        <time>2024-08-04T09:48:54.969Z</time>
      </trkpt>
      <trkpt lat="54.26318" lon="18.52475">
        <ele>97.814784</ele>
        <time>2024-08-04T09:48:56.964Z</time>
      </trkpt>
      <trkpt lat="54.26322" lon="18.52488">
        <ele>97.809568</ele>
        <time>2024-08-04T09:48:58.967Z</time>
      </trkpt>
      <trkpt lat="54.26328" lon="18.52508">
        <ele>97.802161</ele>
        <time>2024-08-04T09:49:01.998Z</time>
      </trkpt>
      <trkpt lat="54.26335" lon="18.52528">
        <ele>97.794462</ele>
        <time>2024-08-04T09:49:04.947Z</time>
      </trkpt>
      <trkpt lat="54.26339" lon="18.52543">
        <ele>97.788984</ele>
        <time>2024-08-04T09:49:06.948Z</time>
      </trkpt>
      <trkpt lat="54.26344" lon="18.52558">
        <ele>97.783187</ele>
        <time>2024-08-04T09:49:08.947Z</time>
      </trkpt>
      <trkpt lat="54.26348" lon="18.52573">
        <ele>97.777655</ele>
        <time>2024-08-04T09:49:10.963Z</time>
      </trkpt>
      <trkpt lat="54.26352" lon="18.5259">
        <ele>97.771535</ele>
        <time>2024-08-04T09:49:12.945Z</time>
      </trkpt>
      <trkpt lat="54.26356" lon="18.52607">
        <ele>97.765471</ele>
        <time>2024-08-04T09:49:14.964Z</time>
      </trkpt>
      <trkpt lat="54.26359" lon="18.52626">
        <ele>97.758983</ele>
        <time>2024-08-04T09:49:16.970Z</time>
      </trkpt>
      <trkpt lat="54.26364" lon="18.52646">
        <ele>97.724239</ele>
        <time>2024-08-04T09:49:18.949Z</time>
      </trkpt>
      <trkpt lat="54.26369" lon="18.52667">
        <ele>97.646462</ele>
        <time>2024-08-04T09:49:20.953Z</time>
      </trkpt>
      <trkpt lat="54.26374" lon="18.52691">
        <ele>97.561748</ele>
        <time>2024-08-04T09:49:22.958Z</time>
      </trkpt>
      <trkpt lat="54.26378" lon="18.52716">
        <ele>97.47056</ele>
        <time>2024-08-04T09:49:24.947Z</time>
      </trkpt>
      <trkpt lat="54.26383" lon="18.52743">
        <ele>97.375465</ele>
        <time>2024-08-04T09:49:26.960Z</time>
      </trkpt>
      <trkpt lat="54.26389" lon="18.52769">
        <ele>97.279206</ele>
        <time>2024-08-04T09:49:28.965Z</time>
      </trkpt>
      <trkpt lat="54.26394" lon="18.52795">
        <ele>97.184588</ele>
        <time>2024-08-04T09:49:30.952Z</time>
      </trkpt>
      <trkpt lat="54.26398" lon="18.5282">
        <ele>97.097534</ele>
        <time>2024-08-04T09:49:32.961Z</time>
      </trkpt>
      <trkpt lat="54.26402" lon="18.52842">
        <ele>97.019335</ele>
        <time>2024-08-04T09:49:34.959Z</time>
      </trkpt>
      <trkpt lat="54.26405" lon="18.52863">
        <ele>96.942936</ele>
        <time>2024-08-04T09:49:36.945Z</time>
      </trkpt>
      <trkpt lat="54.2641" lon="18.52885">
        <ele>96.865635</ele>
        <time>2024-08-04T09:49:38.963Z</time>
      </trkpt>
      <trkpt lat="54.26414" lon="18.52908">
        <ele>96.783473</ele>
        <time>2024-08-04T09:49:40.963Z</time>
      </trkpt>
      <trkpt lat="54.26417" lon="18.52931">
        <ele>96.705776</ele>
        <time>2024-08-04T09:49:42.956Z</time>
      </trkpt>
      <trkpt lat="54.26421" lon="18.52953">
        <ele>97.110167</ele>
        <time>2024-08-04T09:49:44.952Z</time>
      </trkpt>
      <trkpt lat="54.26425" lon="18.52974">
        <ele>97.503011</ele>
        <time>2024-08-04T09:49:46.950Z</time>
      </trkpt>
      <trkpt lat="54.26428" lon="18.52994">
        <ele>97.856952</ele>
        <time>2024-08-04T09:49:48.956Z</time>
      </trkpt>
      <trkpt lat="54.26432" lon="18.53011">
        <ele>98.178958</ele>
        <time>2024-08-04T09:49:50.962Z</time>
      </trkpt>
      <trkpt lat="54.26435" lon="18.53027">
        <ele>98.466296</ele>
        <time>2024-08-04T09:49:52.967Z</time>
      </trkpt>
      <trkpt lat="54.26438" lon="18.53048">
        <ele>98.854706</ele>
        <time>2024-08-04T09:49:55.961Z</time>
      </trkpt>
      <trkpt lat="54.26442" lon="18.53068">
        <ele>99.225532</ele>
        <time>2024-08-04T09:49:58.949Z</time>
      </trkpt>
      <trkpt lat="54.26446" lon="18.53089">
        <ele>99.610782</ele>
        <time>2024-08-04T09:50:01.972Z</time>
      </trkpt>
      <trkpt lat="54.26451" lon="18.5311">
        <ele>100.005289</ele>
        <time>2024-08-04T09:50:04.943Z</time>
      </trkpt>
      <trkpt lat="54.26453" lon="18.53125">
        <ele>100.281895</ele>
        <time>2024-08-04T09:50:06.975Z</time>
      </trkpt>
      <trkpt lat="54.26456" lon="18.53141">
        <ele>100.571254</ele>
        <time>2024-08-04T09:50:08.949Z</time>
      </trkpt>
      <trkpt lat="54.26459" lon="18.53157">
        <ele>100.861358</ele>
        <time>2024-08-04T09:50:10.956Z</time>
      </trkpt>
      <trkpt lat="54.26462" lon="18.53173">
        <ele>101.154286</ele>
        <time>2024-08-04T09:50:12.967Z</time>
      </trkpt>
      <trkpt lat="54.26464" lon="18.53188">
        <ele>101.435395</ele>
        <time>2024-08-04T09:50:14.950Z</time>
      </trkpt>
      <trkpt lat="54.26468" lon="18.53208">
        <ele>101.80213</ele>
        <time>2024-08-04T09:50:17.951Z</time>
      </trkpt>
      <trkpt lat="54.26472" lon="18.53228">
        <ele>102.16246</ele>
        <time>2024-08-04T09:50:20.945Z</time>
      </trkpt>
      <trkpt lat="54.26476" lon="18.5325">
        <ele>102.511277</ele>
        <time>2024-08-04T09:50:23.941Z</time>
      </trkpt>
      <trkpt lat="54.2648" lon="18.53271">
        <ele>102.860999</ele>
        <time>2024-08-04T09:50:26.951Z</time>
      </trkpt>
      <trkpt lat="54.26484" lon="18.53292">
        <ele>103.205095</ele>
        <time>2024-08-04T09:50:29.948Z</time>
      </trkpt>
      <trkpt lat="54.26488" lon="18.53312">
        <ele>103.531132</ele>
        <time>2024-08-04T09:50:32.949Z</time>
      </trkpt>
      <trkpt lat="54.26492" lon="18.5333">
        <ele>103.82716</ele>
        <time>2024-08-04T09:50:35.965Z</time>
      </trkpt>
      <trkpt lat="54.26495" lon="18.53347">
        <ele>104.105735</ele>
        <time>2024-08-04T09:50:38.949Z</time>
      </trkpt>
      <trkpt lat="54.26499" lon="18.53366">
        <ele>104.412219</ele>
        <time>2024-08-04T09:50:42.950Z</time>
      </trkpt>
      <trkpt lat="54.26502" lon="18.53381">
        <ele>104.653884</ele>
        <time>2024-08-04T09:50:45.959Z</time>
      </trkpt>
      <trkpt lat="54.26505" lon="18.53395">
        <ele>104.892968</ele>
        <time>2024-08-04T09:50:48.948Z</time>
      </trkpt>
      <trkpt lat="54.26508" lon="18.53415">
        <ele>105.206248</ele>
        <time>2024-08-04T09:50:52.949Z</time>
      </trkpt>
      <trkpt lat="54.26512" lon="18.53431">
        <ele>105.47739</ele>
        <time>2024-08-04T09:50:56.957Z</time>
      </trkpt>
      <trkpt lat="54.26515" lon="18.53449">
        <ele>105.764876</ele>
        <time>2024-08-04T09:51:00.958Z</time>
      </trkpt>
      <trkpt lat="54.26518" lon="18.53467">
        <ele>106.058772</ele>
        <time>2024-08-04T09:51:04.949Z</time>
      </trkpt>
      <trkpt lat="54.26521" lon="18.53482">
        <ele>106.298484</ele>
        <time>2024-08-04T09:51:08.965Z</time>
      </trkpt>
      <trkpt lat="54.26524" lon="18.53499">
        <ele>106.579082</ele>
        <time>2024-08-04T09:51:13.956Z</time>
      </trkpt>
      <trkpt lat="54.26528" lon="18.53517">
        <ele>106.855415</ele>
        <time>2024-08-04T09:51:17.954Z</time>
      </trkpt>
      <trkpt lat="54.26531" lon="18.53534">
        <ele>106.787895</ele>
        <time>2024-08-04T09:51:22.006Z</time>
      </trkpt>
      <trkpt lat="54.26534" lon="18.5355">
        <ele>106.726332</ele>
        <time>2024-08-04T09:51:24.945Z</time>
      </trkpt>
      <trkpt lat="54.26537" lon="18.53566">
        <ele>106.661917</ele>
        <time>2024-08-04T09:51:27.950Z</time>
      </trkpt>
      <trkpt lat="54.2654" lon="18.53584">
        <ele>106.593831</ele>
        <time>2024-08-04T09:51:30.948Z</time>
      </trkpt>
      <trkpt lat="54.26543" lon="18.53601">
        <ele>106.525818</ele>
        <time>2024-08-04T09:51:33.955Z</time>
      </trkpt>
      <trkpt lat="54.26546" lon="18.5362">
        <ele>106.451148</ele>
        <time>2024-08-04T09:51:36.949Z</time>
      </trkpt>
      <trkpt lat="54.26548" lon="18.53638">
        <ele>106.382263</ele>
        <time>2024-08-04T09:51:39.952Z</time>
      </trkpt>
      <trkpt lat="54.26549" lon="18.53657">
        <ele>106.311173</ele>
        <time>2024-08-04T09:51:42.950Z</time>
      </trkpt>
      <trkpt lat="54.2655" lon="18.53676">
        <ele>106.237629</ele>
        <time>2024-08-04T09:51:45.942Z</time>
      </trkpt>
      <trkpt lat="54.26553" lon="18.53693">
        <ele>106.171082</ele>
        <time>2024-08-04T09:51:48.963Z</time>
      </trkpt>
      <trkpt lat="54.26557" lon="18.53708">
        <ele>106.110723</ele>
        <time>2024-08-04T09:51:52.003Z</time>
      </trkpt>
      <trkpt lat="54.26559" lon="18.53725">
        <ele>106.045579</ele>
        <time>2024-08-04T09:51:54.969Z</time>
      </trkpt>
      <trkpt lat="54.26563" lon="18.53743">
        <ele>105.976129</ele>
        <time>2024-08-04T09:51:57.948Z</time>
      </trkpt>
      <trkpt lat="54.26566" lon="18.53762">
        <ele>105.89858</ele>
        <time>2024-08-04T09:52:00.965Z</time>
      </trkpt>
      <trkpt lat="54.2657" lon="18.53778">
        <ele>105.834268</ele>
        <time>2024-08-04T09:52:03.957Z</time>
      </trkpt>
      <trkpt lat="54.26573" lon="18.53796">
        <ele>105.76354</ele>
        <time>2024-08-04T09:52:06.962Z</time>
      </trkpt>
      <trkpt lat="54.26577" lon="18.53814">
        <ele>105.687191</ele>
        <time>2024-08-04T09:52:09.962Z</time>
      </trkpt>
      <trkpt lat="54.26581" lon="18.53831">
        <ele>105.567398</ele>
        <time>2024-08-04T09:52:12.963Z</time>
      </trkpt>
      <trkpt lat="54.26585" lon="18.53847">
        <ele>105.453629</ele>
        <time>2024-08-04T09:52:15.964Z</time>
      </trkpt>
      <trkpt lat="54.26586" lon="18.53866">
        <ele>105.329973</ele>
        <time>2024-08-04T09:52:19.969Z</time>
      </trkpt>
      <trkpt lat="54.26592" lon="18.53883">
        <ele>105.206913</ele>
        <time>2024-08-04T09:52:23.948Z</time>
      </trkpt>
      <trkpt lat="54.26593" lon="18.53902">
        <ele>105.082149</ele>
        <time>2024-08-04T09:52:27.965Z</time>
      </trkpt>
      <trkpt lat="54.26598" lon="18.53915">
        <ele>104.982136</ele>
        <time>2024-08-04T09:52:30.934Z</time>
      </trkpt>
      <trkpt lat="54.26603" lon="18.53932">
        <ele>104.857247</ele>
        <time>2024-08-04T09:52:33.955Z</time>
      </trkpt>
      <trkpt lat="54.26605" lon="18.53951">
        <ele>104.73549</ele>
        <time>2024-08-04T09:52:36.965Z</time>
      </trkpt>
      <trkpt lat="54.26607" lon="18.5397">
        <ele>104.609284</ele>
        <time>2024-08-04T09:52:39.960Z</time>
      </trkpt>
      <trkpt lat="54.2661" lon="18.53986">
        <ele>104.503104</ele>
        <time>2024-08-04T09:52:42.958Z</time>
      </trkpt>
      <trkpt lat="54.26616" lon="18.54017">
        <ele>104.285855</ele>
        <time>2024-08-04T09:53:02.943Z</time>
      </trkpt>
      <trkpt lat="54.26619" lon="18.54036">
        <ele>104.163027</ele>
        <time>2024-08-04T09:53:05.952Z</time>
      </trkpt>
      <trkpt lat="54.26621" lon="18.54058">
        <ele>104.016909</ele>
        <time>2024-08-04T09:53:08.952Z</time>
      </trkpt>
      <trkpt lat="54.26622" lon="18.54075">
        <ele>103.906772</ele>
        <time>2024-08-04T09:53:10.959Z</time>
      </trkpt>
      <trkpt lat="54.26625" lon="18.54093">
        <ele>103.791975</ele>
        <time>2024-08-04T09:53:12.962Z</time>
      </trkpt>
      <trkpt lat="54.26627" lon="18.54111">
        <ele>103.574447</ele>
        <time>2024-08-04T09:53:14.953Z</time>
      </trkpt>
      <trkpt lat="54.26628" lon="18.54131">
        <ele>103.165913</ele>
        <time>2024-08-04T09:53:16.961Z</time>
      </trkpt>
      <trkpt lat="54.2663" lon="18.54152">
        <ele>102.722826</ele>
        <time>2024-08-04T09:53:18.945Z</time>
      </trkpt>
      <trkpt lat="54.26632" lon="18.54174">
        <ele>102.259401</ele>
        <time>2024-08-04T09:53:20.944Z</time>
      </trkpt>
      <trkpt lat="54.26635" lon="18.54198">
        <ele>101.757433</ele>
        <time>2024-08-04T09:53:22.972Z</time>
      </trkpt>
      <trkpt lat="54.26638" lon="18.54223">
        <ele>101.234773</ele>
        <time>2024-08-04T09:53:24.956Z</time>
      </trkpt>
      <trkpt lat="54.26641" lon="18.54249">
        <ele>100.688434</ele>
        <time>2024-08-04T09:53:26.946Z</time>
      </trkpt>
      <trkpt lat="54.26645" lon="18.54275">
        <ele>100.141764</ele>
        <time>2024-08-04T09:53:28.954Z</time>
      </trkpt>
      <trkpt lat="54.26647" lon="18.54302">
        <ele>99.579611</ele>
        <time>2024-08-04T09:53:30.963Z</time>
      </trkpt>
      <trkpt lat="54.2665" lon="18.54327">
        <ele>99.044666</ele>
        <time>2024-08-04T09:53:32.944Z</time>
      </trkpt>
      <trkpt lat="54.26653" lon="18.54352">
        <ele>98.524513</ele>
        <time>2024-08-04T09:53:34.931Z</time>
      </trkpt>
      <trkpt lat="54.26656" lon="18.54376">
        <ele>98.017797</ele>
        <time>2024-08-04T09:53:36.957Z</time>
      </trkpt>
      <trkpt lat="54.26658" lon="18.544">
        <ele>97.516482</ele>
        <time>2024-08-04T09:53:38.962Z</time>
      </trkpt>
      <trkpt lat="54.26661" lon="18.54423">
        <ele>97.429743</ele>
        <time>2024-08-04T09:53:40.968Z</time>
      </trkpt>
      <trkpt lat="54.26663" lon="18.54444">
        <ele>97.48895</ele>
        <time>2024-08-04T09:53:42.963Z</time>
      </trkpt>
      <trkpt lat="54.26664" lon="18.54461">
        <ele>97.539994</ele>
        <time>2024-08-04T09:53:44.952Z</time>
      </trkpt>
      <trkpt lat="54.26666" lon="18.54479">
        <ele>97.590481</ele>
        <time>2024-08-04T09:53:46.954Z</time>
      </trkpt>
      <trkpt lat="54.26668" lon="18.54496">
        <ele>97.639388</ele>
        <time>2024-08-04T09:53:48.963Z</time>
      </trkpt>
      <trkpt lat="54.26669" lon="18.54513">
        <ele>97.687492</ele>
        <time>2024-08-04T09:53:50.955Z</time>
      </trkpt>
      <trkpt lat="54.26671" lon="18.54529">
        <ele>97.732332</ele>
        <time>2024-08-04T09:53:52.947Z</time>
      </trkpt>
      <trkpt lat="54.26673" lon="18.54544">
        <ele>97.776339</ele>
        <time>2024-08-04T09:53:54.961Z</time>
      </trkpt>
      <trkpt lat="54.26674" lon="18.54559">
        <ele>97.821011</ele>
        <time>2024-08-04T09:53:56.951Z</time>
      </trkpt>
      <trkpt lat="54.26676" lon="18.54575">
        <ele>97.8666</ele>
        <time>2024-08-04T09:53:58.948Z</time>
      </trkpt>
      <trkpt lat="54.26678" lon="18.54591">
        <ele>97.912386</ele>
        <time>2024-08-04T09:54:00.950Z</time>
      </trkpt>
      <trkpt lat="54.26679" lon="18.54607">
        <ele>97.957616</ele>
        <time>2024-08-04T09:54:02.960Z</time>
      </trkpt>
      <trkpt lat="54.26681" lon="18.54623">
        <ele>98.002288</ele>
        <time>2024-08-04T09:54:04.951Z</time>
      </trkpt>
      <trkpt lat="54.26682" lon="18.54638">
        <ele>98.047599</ele>
        <time>2024-08-04T09:54:06.952Z</time>
      </trkpt>
      <trkpt lat="54.26684" lon="18.54654">
        <ele>98.093456</ele>
        <time>2024-08-04T09:54:08.957Z</time>
      </trkpt>
      <trkpt lat="54.26686" lon="18.5467">
        <ele>98.138407</ele>
        <time>2024-08-04T09:54:10.962Z</time>
      </trkpt>
      <trkpt lat="54.26689" lon="18.54693">
        <ele>98.204064</ele>
        <time>2024-08-04T09:54:13.958Z</time>
      </trkpt>
      <trkpt lat="54.2669" lon="18.54708">
        <ele>98.248102</ele>
        <time>2024-08-04T09:54:15.950Z</time>
      </trkpt>
      <trkpt lat="54.26691" lon="18.54724">
        <ele>98.223581</ele>
        <time>2024-08-04T09:54:17.945Z</time>
      </trkpt>
      <trkpt lat="54.26692" lon="18.5474">
        <ele>98.18956</ele>
        <time>2024-08-04T09:54:19.942Z</time>
      </trkpt>
      <trkpt lat="54.26693" lon="18.54756">
        <ele>98.156288</ele>
        <time>2024-08-04T09:54:21.992Z</time>
      </trkpt>
      <trkpt lat="54.26695" lon="18.54778">
        <ele>98.110619</ele>
        <time>2024-08-04T09:54:24.949Z</time>
      </trkpt>
      <trkpt lat="54.26695" lon="18.54797">
        <ele>98.070035</ele>
        <time>2024-08-04T09:54:27.950Z</time>
      </trkpt>
      <trkpt lat="54.26696" lon="18.54813">
        <ele>98.036517</ele>
        <time>2024-08-04T09:54:30.951Z</time>
      </trkpt>
      <trkpt lat="54.26697" lon="18.54833">
        <ele>97.996677</ele>
        <time>2024-08-04T09:54:34.947Z</time>
      </trkpt>
      <trkpt lat="54.26698" lon="18.54849">
        <ele>97.962371</ele>
        <time>2024-08-04T09:54:39.948Z</time>
      </trkpt>
      <trkpt lat="54.26698" lon="18.54866">
        <ele>97.927817</ele>
        <time>2024-08-04T09:54:52.939Z</time>
      </trkpt>
      <trkpt lat="54.26699" lon="18.54881">
        <ele>97.894876</ele>
        <time>2024-08-04T09:54:55.950Z</time>
      </trkpt>
      <trkpt lat="54.267" lon="18.54905">
        <ele>97.845463</ele>
        <time>2024-08-04T09:54:58.951Z</time>
      </trkpt>
      <trkpt lat="54.267" lon="18.54921">
        <ele>97.811691</ele>
        <time>2024-08-04T09:55:00.947Z</time>
      </trkpt>
      <trkpt lat="54.26701" lon="18.54939">
        <ele>97.774312</ele>
        <time>2024-08-04T09:55:02.966Z</time>
      </trkpt>
      <trkpt lat="54.26702" lon="18.54958">
        <ele>97.734887</ele>
        <time>2024-08-04T09:55:04.957Z</time>
      </trkpt>
      <trkpt lat="54.26703" lon="18.54976">
        <ele>97.697608</ele>
        <time>2024-08-04T09:55:06.945Z</time>
      </trkpt>
      <trkpt lat="54.26704" lon="18.54994">
        <ele>97.65954</ele>
        <time>2024-08-04T09:55:08.961Z</time>
      </trkpt>
      <trkpt lat="54.26706" lon="18.55012">
        <ele>97.622791</ele>
        <time>2024-08-04T09:55:10.950Z</time>
      </trkpt>
      <trkpt lat="54.26706" lon="18.55034">
        <ele>97.514389</ele>
        <time>2024-08-04T09:55:13.958Z</time>
      </trkpt>
      <trkpt lat="54.26707" lon="18.55055">
        <ele>97.398274</ele>
        <time>2024-08-04T09:55:16.952Z</time>
      </trkpt>
      <trkpt lat="54.26707" lon="18.55077">
        <ele>97.277345</ele>
        <time>2024-08-04T09:55:19.946Z</time>
      </trkpt>
      <trkpt lat="54.26709" lon="18.55098">
        <ele>97.161672</ele>
        <time>2024-08-04T09:55:22.955Z</time>
      </trkpt>
      <trkpt lat="54.2671" lon="18.5512">
        <ele>97.037433</ele>
        <time>2024-08-04T09:55:25.946Z</time>
      </trkpt>
      <trkpt lat="54.26711" lon="18.55142">
        <ele>96.919172</ele>
        <time>2024-08-04T09:55:28.945Z</time>
      </trkpt>
      <trkpt lat="54.26713" lon="18.55163">
        <ele>96.802137</ele>
        <time>2024-08-04T09:55:31.955Z</time>
      </trkpt>
      <trkpt lat="54.26713" lon="18.55181">
        <ele>96.698868</ele>
        <time>2024-08-04T09:55:34.959Z</time>
      </trkpt>
      <trkpt lat="54.26714" lon="18.552">
        <ele>96.59729</ele>
        <time>2024-08-04T09:55:37.948Z</time>
      </trkpt>
      <trkpt lat="54.26713" lon="18.55217">
        <ele>96.503954</ele>
        <time>2024-08-04T09:55:42.002Z</time>
      </trkpt>
      <trkpt lat="54.26713" lon="18.55232">
        <ele>96.416713</ele>
        <time>2024-08-04T09:55:47.944Z</time>
      </trkpt>
      <trkpt lat="54.26715" lon="18.55249">
        <ele>96.323146</ele>
        <time>2024-08-04T09:56:30.959Z</time>
      </trkpt>
      <trkpt lat="54.26716" lon="18.55268">
        <ele>96.216566</ele>
        <time>2024-08-04T09:56:34.971Z</time>
      </trkpt>
      <trkpt lat="54.26716" lon="18.55284">
        <ele>96.130366</ele>
        <time>2024-08-04T09:56:37.946Z</time>
      </trkpt>
      <trkpt lat="54.26715" lon="18.55301">
        <ele>96.037145</ele>
        <time>2024-08-04T09:56:39.945Z</time>
      </trkpt>
      <trkpt lat="54.26714" lon="18.5532">
        <ele>95.929296</ele>
        <time>2024-08-04T09:56:41.953Z</time>
      </trkpt>
      <trkpt lat="54.26714" lon="18.55338">
        <ele>95.785451</ele>
        <time>2024-08-04T09:56:43.952Z</time>
      </trkpt>
      <trkpt lat="54.26715" lon="18.55355">
        <ele>95.640964</ele>
        <time>2024-08-04T09:56:45.958Z</time>
      </trkpt>
      <trkpt lat="54.26719" lon="18.5537">
        <ele>95.496939</ele>
        <time>2024-08-04T09:56:47.938Z</time>
      </trkpt>
      <trkpt lat="54.26726" lon="18.55388">
        <ele>95.317929</ele>
        <time>2024-08-04T09:56:50.960Z</time>
      </trkpt>
      <trkpt lat="54.26727" lon="18.55408">
        <ele>95.147403</ele>
        <time>2024-08-04T09:56:53.932Z</time>
      </trkpt>
      <trkpt lat="54.26722" lon="18.55425">
        <ele>94.993744</ele>
        <time>2024-08-04T09:56:56.958Z</time>
      </trkpt>
      <trkpt lat="54.2672" lon="18.55444">
        <ele>94.831227</ele>
        <time>2024-08-04T09:56:59.944Z</time>
      </trkpt>
      <trkpt lat="54.26722" lon="18.55466">
        <ele>94.639537</ele>
        <time>2024-08-04T09:57:02.960Z</time>
      </trkpt>
      <trkpt lat="54.26724" lon="18.55483">
        <ele>94.499493</ele>
        <time>2024-08-04T09:57:04.951Z</time>
      </trkpt>
      <trkpt lat="54.26725" lon="18.55502">
        <ele>94.333507</ele>
        <time>2024-08-04T09:57:06.969Z</time>
      </trkpt>
      <trkpt lat="54.26727" lon="18.55521">
        <ele>94.173881</ele>
        <time>2024-08-04T09:57:08.953Z</time>
      </trkpt>
      <trkpt lat="54.26727" lon="18.55539">
        <ele>94.018739</ele>
        <time>2024-08-04T09:57:10.949Z</time>
      </trkpt>
      <trkpt lat="54.26729" lon="18.55556">
        <ele>93.876203</ele>
        <time>2024-08-04T09:57:12.950Z</time>
      </trkpt>
      <trkpt lat="54.26731" lon="18.55573">
        <ele>93.731795</ele>
        <time>2024-08-04T09:57:14.963Z</time>
      </trkpt>
      <trkpt lat="54.26733" lon="18.55591">
        <ele>93.57153</ele>
        <time>2024-08-04T09:57:16.954Z</time>
      </trkpt>
      <trkpt lat="54.26737" lon="18.55608">
        <ele>93.420645</ele>
        <time>2024-08-04T09:57:18.954Z</time>
      </trkpt>
      <trkpt lat="54.26741" lon="18.55625">
        <ele>93.257965</ele>
        <time>2024-08-04T09:57:20.956Z</time>
      </trkpt>
      <trkpt lat="54.26745" lon="18.55643">
        <ele>93.076115</ele>
        <time>2024-08-04T09:57:22.964Z</time>
      </trkpt>
      <trkpt lat="54.2675" lon="18.55661">
        <ele>92.881022</ele>
        <time>2024-08-04T09:57:24.952Z</time>
      </trkpt>
      <trkpt lat="54.26755" lon="18.55679">
        <ele>92.690322</ele>
        <time>2024-08-04T09:57:26.968Z</time>
      </trkpt>
      <trkpt lat="54.26761" lon="18.55697">
        <ele>92.495471</ele>
        <time>2024-08-04T09:57:28.951Z</time>
      </trkpt>
      <trkpt lat="54.26766" lon="18.55714">
        <ele>92.305719</ele>
        <time>2024-08-04T09:57:30.962Z</time>
      </trkpt>
      <trkpt lat="54.26775" lon="18.5573">
        <ele>92.097659</ele>
        <time>2024-08-04T09:57:32.938Z</time>
      </trkpt>
      <trkpt lat="54.26783" lon="18.55747">
        <ele>91.879778</ele>
        <time>2024-08-04T09:57:34.964Z</time>
      </trkpt>
      <trkpt lat="54.26792" lon="18.55763">
        <ele>91.673152</ele>
        <time>2024-08-04T09:57:36.964Z</time>
      </trkpt>
      <trkpt lat="54.26801" lon="18.55778">
        <ele>91.465378</ele>
        <time>2024-08-04T09:57:38.961Z</time>
      </trkpt>
      <trkpt lat="54.26809" lon="18.55793">
        <ele>91.262713</ele>
        <time>2024-08-04T09:57:40.964Z</time>
      </trkpt>
      <trkpt lat="54.26817" lon="18.55808">
        <ele>91.070249</ele>
        <time>2024-08-04T09:57:42.953Z</time>
      </trkpt>
      <trkpt lat="54.26824" lon="18.55823">
        <ele>90.886119</ele>
        <time>2024-08-04T09:57:44.951Z</time>
      </trkpt>
      <trkpt lat="54.26831" lon="18.55836">
        <ele>90.715038</ele>
        <time>2024-08-04T09:57:46.970Z</time>
      </trkpt>
      <trkpt lat="54.26836" lon="18.55849">
        <ele>90.565709</ele>
        <time>2024-08-04T09:57:48.950Z</time>
      </trkpt>
      <trkpt lat="54.26844" lon="18.55866">
        <ele>90.359385</ele>
        <time>2024-08-04T09:57:51.965Z</time>
      </trkpt>
      <trkpt lat="54.2685" lon="18.55882">
        <ele>90.275086</ele>
        <time>2024-08-04T09:57:54.966Z</time>
      </trkpt>
      <trkpt lat="54.26855" lon="18.559">
        <ele>90.195124</ele>
        <time>2024-08-04T09:57:57.947Z</time>
      </trkpt>
      <trkpt lat="54.26857" lon="18.55919">
        <ele>90.115433</ele>
        <time>2024-08-04T09:58:00.964Z</time>
      </trkpt>
      <trkpt lat="54.2686" lon="18.55936">
        <ele>90.040481</ele>
        <time>2024-08-04T09:58:03.947Z</time>
      </trkpt>
      <trkpt lat="54.26862" lon="18.55955">
        <ele>89.959323</ele>
        <time>2024-08-04T09:58:06.951Z</time>
      </trkpt>
      <trkpt lat="54.26865" lon="18.55977">
        <ele>89.869945</ele>
        <time>2024-08-04T09:58:09.949Z</time>
      </trkpt>
      <trkpt lat="54.26866" lon="18.55999">
        <ele>89.778497</ele>
        <time>2024-08-04T09:58:12.954Z</time>
      </trkpt>
      <trkpt lat="54.26866" lon="18.56022">
        <ele>89.683668</ele>
        <time>2024-08-04T09:58:15.944Z</time>
      </trkpt>
      <trkpt lat="54.26866" lon="18.56037">
        <ele>89.619393</ele>
        <time>2024-08-04T09:58:17.947Z</time>
      </trkpt>
      <trkpt lat="54.26866" lon="18.5606">
        <ele>89.526559</ele>
        <time>2024-08-04T09:58:20.961Z</time>
      </trkpt>
      <trkpt lat="54.26865" lon="18.56076">
        <ele>89.459267</ele>
        <time>2024-08-04T09:58:22.962Z</time>
      </trkpt>
      <trkpt lat="54.26863" lon="18.56099">
        <ele>89.364054</ele>
        <time>2024-08-04T09:58:25.951Z</time>
      </trkpt>
      <trkpt lat="54.26861" lon="18.56121">
        <ele>89.270627</ele>
        <time>2024-08-04T09:58:28.949Z</time>
      </trkpt>
      <trkpt lat="54.26858" lon="18.56142">
        <ele>89.183405</ele>
        <time>2024-08-04T09:58:31.963Z</time>
      </trkpt>
      <trkpt lat="54.26857" lon="18.56159">
        <ele>89.113671</ele>
        <time>2024-08-04T09:58:34.948Z</time>
      </trkpt>
      <trkpt lat="54.26855" lon="18.56175">
        <ele>89.101526</ele>
        <time>2024-08-04T09:58:41.933Z</time>
      </trkpt>
      <trkpt lat="54.26854" lon="18.56192">
        <ele>89.14481</ele>
        <time>2024-08-04T09:58:46.969Z</time>
      </trkpt>
      <trkpt lat="54.26852" lon="18.56211">
        <ele>89.194547</ele>
        <time>2024-08-04T09:58:50.941Z</time>
      </trkpt>
      <trkpt lat="54.26851" lon="18.56228">
        <ele>89.237344</ele>
        <time>2024-08-04T09:58:53.964Z</time>
      </trkpt>
      <trkpt lat="54.26848" lon="18.56246">
        <ele>89.283054</ele>
        <time>2024-08-04T09:58:56.949Z</time>
      </trkpt>
      <trkpt lat="54.26846" lon="18.56264">
        <ele>89.329214</ele>
        <time>2024-08-04T09:58:59.946Z</time>
      </trkpt>
      <trkpt lat="54.26844" lon="18.56282">
        <ele>89.375709</ele>
        <time>2024-08-04T09:59:02.946Z</time>
      </trkpt>
      <trkpt lat="54.26841" lon="18.563">
        <ele>89.421662</ele>
        <time>2024-08-04T09:59:05.947Z</time>
      </trkpt>
      <trkpt lat="54.26838" lon="18.56318">
        <ele>89.469521</ele>
        <time>2024-08-04T09:59:08.947Z</time>
      </trkpt>
      <trkpt lat="54.26834" lon="18.56336">
        <ele>89.517379</ele>
        <time>2024-08-04T09:59:12.008Z</time>
      </trkpt>
      <trkpt lat="54.2683" lon="18.56353">
        <ele>89.56463</ele>
        <time>2024-08-04T09:59:14.964Z</time>
      </trkpt>
      <trkpt lat="54.26827" lon="18.56371">
        <ele>89.609941</ele>
        <time>2024-08-04T09:59:17.963Z</time>
      </trkpt>
      <trkpt lat="54.26823" lon="18.56388">
        <ele>89.655898</ele>
        <time>2024-08-04T09:59:20.950Z</time>
      </trkpt>
      <trkpt lat="54.26821" lon="18.56407">
        <ele>89.704605</ele>
        <time>2024-08-04T09:59:23.961Z</time>
      </trkpt>
      <trkpt lat="54.26818" lon="18.56424">
        <ele>89.749788</ele>
        <time>2024-08-04T09:59:26.962Z</time>
      </trkpt>
      <trkpt lat="54.26815" lon="18.56441">
        <ele>89.794279</ele>
        <time>2024-08-04T09:59:29.945Z</time>
      </trkpt>
      <trkpt lat="54.26811" lon="18.56455">
        <ele>89.834457</ele>
        <time>2024-08-04T09:59:32.952Z</time>
      </trkpt>
      <trkpt lat="54.26806" lon="18.56474">
        <ele>89.734882</ele>
        <time>2024-08-04T09:59:36.952Z</time>
      </trkpt>
      <trkpt lat="54.26804" lon="18.5649">
        <ele>89.574918</ele>
        <time>2024-08-04T09:59:41.950Z</time>
      </trkpt>
      <trkpt lat="54.26805" lon="18.56488">
        <ele>89.543826</ele>
        <time>2024-08-04T09:59:51.030Z</time>
      </trkpt>
      <trkpt lat="54.26802" lon="18.56506">
        <ele>89.359202</ele>
        <time>2024-08-04T10:01:23.933Z</time>
      </trkpt>
      <trkpt lat="54.26799" lon="18.56522">
        <ele>89.196593</ele>
        <time>2024-08-04T10:01:26.948Z</time>
      </trkpt>
      <trkpt lat="54.26793" lon="18.56538">
        <ele>89.011704</ele>
        <time>2024-08-04T10:01:30.958Z</time>
      </trkpt>
      <trkpt lat="54.26786" lon="18.56547">
        <ele>88.86129</ele>
        <time>2024-08-04T10:01:34.946Z</time>
      </trkpt>
      <trkpt lat="54.26781" lon="18.56562">
        <ele>88.694057</ele>
        <time>2024-08-04T10:01:38.941Z</time>
      </trkpt>
      <trkpt lat="54.26786" lon="18.56581">
        <ele>88.490737</ele>
        <time>2024-08-04T10:01:42.937Z</time>
      </trkpt>
      <trkpt lat="54.26789" lon="18.56601">
        <ele>88.289365</ele>
        <time>2024-08-04T10:01:45.948Z</time>
      </trkpt>
      <trkpt lat="54.26794" lon="18.5662">
        <ele>88.082269</ele>
        <time>2024-08-04T10:01:48.947Z</time>
      </trkpt>
      <trkpt lat="54.26801" lon="18.56631">
        <ele>87.92206</ele>
        <time>2024-08-04T10:01:51.940Z</time>
      </trkpt>
      <trkpt lat="54.26806" lon="18.56651">
        <ele>87.706927</ele>
        <time>2024-08-04T10:01:54.937Z</time>
      </trkpt>
      <trkpt lat="54.2681" lon="18.56667">
        <ele>87.542343</ele>
        <time>2024-08-04T10:01:56.940Z</time>
      </trkpt>
      <trkpt lat="54.26813" lon="18.56686">
        <ele>87.356886</ele>
        <time>2024-08-04T10:01:58.955Z</time>
      </trkpt>
      <trkpt lat="54.26816" lon="18.56706">
        <ele>87.148923</ele>
        <time>2024-08-04T10:02:00.947Z</time>
      </trkpt>
      <trkpt lat="54.26818" lon="18.56729">
        <ele>86.924424</ele>
        <time>2024-08-04T10:02:02.948Z</time>
      </trkpt>
      <trkpt lat="54.2682" lon="18.56754">
        <ele>86.600266</ele>
        <time>2024-08-04T10:02:04.940Z</time>
      </trkpt>
      <trkpt lat="54.26823" lon="18.56779">
        <ele>86.231504</ele>
        <time>2024-08-04T10:02:06.962Z</time>
      </trkpt>
      <trkpt lat="54.26825" lon="18.56806">
        <ele>85.842638</ele>
        <time>2024-08-04T10:02:08.961Z</time>
      </trkpt>
      <trkpt lat="54.26827" lon="18.56832">
        <ele>85.465781</ele>
        <time>2024-08-04T10:02:10.948Z</time>
      </trkpt>
      <trkpt lat="54.2683" lon="18.56855">
        <ele>85.13398</ele>
        <time>2024-08-04T10:02:12.950Z</time>
      </trkpt>
      <trkpt lat="54.26833" lon="18.56876">
        <ele>84.82342</ele>
        <time>2024-08-04T10:02:14.968Z</time>
      </trkpt>
      <trkpt lat="54.26836" lon="18.56897">
        <ele>84.503847</ele>
        <time>2024-08-04T10:02:16.940Z</time>
      </trkpt>
      <trkpt lat="54.26841" lon="18.56916">
        <ele>84.212725</ele>
        <time>2024-08-04T10:02:18.932Z</time>
      </trkpt>
      <trkpt lat="54.26844" lon="18.56935">
        <ele>83.924781</ele>
        <time>2024-08-04T10:02:20.947Z</time>
      </trkpt>
      <trkpt lat="54.26847" lon="18.56955">
        <ele>83.633695</ele>
        <time>2024-08-04T10:02:22.934Z</time>
      </trkpt>
      <trkpt lat="54.26849" lon="18.56974">
        <ele>83.352178</ele>
        <time>2024-08-04T10:02:24.953Z</time>
      </trkpt>
      <trkpt lat="54.26851" lon="18.56993">
        <ele>83.078014</ele>
        <time>2024-08-04T10:02:26.950Z</time>
      </trkpt>
      <trkpt lat="54.26854" lon="18.5701">
        <ele>82.824468</ele>
        <time>2024-08-04T10:02:28.965Z</time>
      </trkpt>
      <trkpt lat="54.26857" lon="18.57027">
        <ele>82.573978</ele>
        <time>2024-08-04T10:02:30.942Z</time>
      </trkpt>
      <trkpt lat="54.26859" lon="18.57045">
        <ele>82.29287</ele>
        <time>2024-08-04T10:02:32.949Z</time>
      </trkpt>
      <trkpt lat="54.26862" lon="18.57062">
        <ele>81.988821</ele>
        <time>2024-08-04T10:02:34.960Z</time>
      </trkpt>
      <trkpt lat="54.26865" lon="18.5708">
        <ele>81.683988</ele>
        <time>2024-08-04T10:02:36.943Z</time>
      </trkpt>
      <trkpt lat="54.26868" lon="18.57098">
        <ele>81.37205</ele>
        <time>2024-08-04T10:02:38.945Z</time>
      </trkpt>
      <trkpt lat="54.26871" lon="18.57118">
        <ele>81.037696</ele>
        <time>2024-08-04T10:02:40.954Z</time>
      </trkpt>
      <trkpt lat="54.26873" lon="18.57139">
        <ele>80.693125</ele>
        <time>2024-08-04T10:02:42.945Z</time>
      </trkpt>
      <trkpt lat="54.26875" lon="18.57159">
        <ele>80.352163</ele>
        <time>2024-08-04T10:02:44.953Z</time>
      </trkpt>
      <trkpt lat="54.26878" lon="18.5718">
        <ele>80.001905</ele>
        <time>2024-08-04T10:02:46.960Z</time>
      </trkpt>
      <trkpt lat="54.26881" lon="18.57201">
        <ele>79.640437</ele>
        <time>2024-08-04T10:02:48.949Z</time>
      </trkpt>
      <trkpt lat="54.26884" lon="18.57223">
        <ele>79.272698</ele>
        <time>2024-08-04T10:02:50.950Z</time>
      </trkpt>
      <trkpt lat="54.26886" lon="18.57245">
        <ele>78.909606</ele>
        <time>2024-08-04T10:02:52.945Z</time>
      </trkpt>
      <trkpt lat="54.26888" lon="18.57267">
        <ele>78.537946</ele>
        <time>2024-08-04T10:02:54.957Z</time>
      </trkpt>
      <trkpt lat="54.26889" lon="18.5729">
        <ele>78.166282</ele>
        <time>2024-08-04T10:02:56.948Z</time>
      </trkpt>
      <trkpt lat="54.2689" lon="18.5731">
        <ele>77.826165</ele>
        <time>2024-08-04T10:02:58.947Z</time>
      </trkpt>
      <trkpt lat="54.2689" lon="18.57326">
        <ele>77.569347</ele>
        <time>2024-08-04T10:03:00.944Z</time>
      </trkpt>
      <trkpt lat="54.26894" lon="18.57344">
        <ele>77.17508</ele>
        <time>2024-08-04T10:03:03.937Z</time>
      </trkpt>
      <trkpt lat="54.26898" lon="18.57366">
        <ele>76.642547</ele>
        <time>2024-08-04T10:03:06.950Z</time>
      </trkpt>
      <trkpt lat="54.269" lon="18.57382">
        <ele>76.238485</ele>
        <time>2024-08-04T10:03:08.945Z</time>
      </trkpt>
      <trkpt lat="54.26903" lon="18.574">
        <ele>75.790473</ele>
        <time>2024-08-04T10:03:10.950Z</time>
      </trkpt>
      <trkpt lat="54.26906" lon="18.5742">
        <ele>75.294798</ele>
        <time>2024-08-04T10:03:12.955Z</time>
      </trkpt>
      <trkpt lat="54.26911" lon="18.5744">
        <ele>74.773378</ele>
        <time>2024-08-04T10:03:14.952Z</time>
      </trkpt>
      <trkpt lat="54.26915" lon="18.5746">
        <ele>74.243725</ele>
        <time>2024-08-04T10:03:16.964Z</time>
      </trkpt>
      <trkpt lat="54.26919" lon="18.57479">
        <ele>73.761975</ele>
        <time>2024-08-04T10:03:18.957Z</time>
      </trkpt>
      <trkpt lat="54.26922" lon="18.57498">
        <ele>73.304746</ele>
        <time>2024-08-04T10:03:20.954Z</time>
      </trkpt>
      <trkpt lat="54.26925" lon="18.57518">
        <ele>72.807748</ele>
        <time>2024-08-04T10:03:22.951Z</time>
      </trkpt>
      <trkpt lat="54.26926" lon="18.57538">
        <ele>72.323967</ele>
        <time>2024-08-04T10:03:24.949Z</time>
      </trkpt>
      <trkpt lat="54.26928" lon="18.57558">
        <ele>71.828332</ele>
        <time>2024-08-04T10:03:26.966Z</time>
      </trkpt>
      <trkpt lat="54.2693" lon="18.57578">
        <ele>71.333738</ele>
        <time>2024-08-04T10:03:28.948Z</time>
      </trkpt>
      <trkpt lat="54.26932" lon="18.576">
        <ele>70.800184</ele>
        <time>2024-08-04T10:03:30.948Z</time>
      </trkpt>
      <trkpt lat="54.26935" lon="18.57623">
        <ele>70.228834</ele>
        <time>2024-08-04T10:03:32.962Z</time>
      </trkpt>
      <trkpt lat="54.26938" lon="18.57644">
        <ele>69.763927</ele>
        <time>2024-08-04T10:03:34.948Z</time>
      </trkpt>
      <trkpt lat="54.26939" lon="18.57662">
        <ele>69.436786</ele>
        <time>2024-08-04T10:03:36.953Z</time>
      </trkpt>
      <trkpt lat="54.2694" lon="18.57684">
        <ele>69.027109</ele>
        <time>2024-08-04T10:03:39.942Z</time>
      </trkpt>
      <trkpt lat="54.26944" lon="18.57705">
        <ele>68.622046</ele>
        <time>2024-08-04T10:03:42.943Z</time>
      </trkpt>
      <trkpt lat="54.26947" lon="18.5772">
        <ele>68.324863</ele>
        <time>2024-08-04T10:03:44.944Z</time>
      </trkpt>
      <trkpt lat="54.2695" lon="18.57736">
        <ele>68.017904</ele>
        <time>2024-08-04T10:03:46.952Z</time>
      </trkpt>
      <trkpt lat="54.26953" lon="18.57754">
        <ele>67.68117</ele>
        <time>2024-08-04T10:03:48.947Z</time>
      </trkpt>
      <trkpt lat="54.26955" lon="18.57772">
        <ele>67.330168</ele>
        <time>2024-08-04T10:03:50.951Z</time>
      </trkpt>
      <trkpt lat="54.26959" lon="18.57791">
        <ele>66.962508</ele>
        <time>2024-08-04T10:03:52.948Z</time>
      </trkpt>
      <trkpt lat="54.26964" lon="18.57811">
        <ele>66.573438</ele>
        <time>2024-08-04T10:03:54.953Z</time>
      </trkpt>
      <trkpt lat="54.2697" lon="18.57831">
        <ele>66.158624</ele>
        <time>2024-08-04T10:03:56.957Z</time>
      </trkpt>
      <trkpt lat="54.26977" lon="18.57852">
        <ele>65.72708</ele>
        <time>2024-08-04T10:03:58.948Z</time>
      </trkpt>
      <trkpt lat="54.26984" lon="18.5787">
        <ele>65.322785</ele>
        <time>2024-08-04T10:04:00.951Z</time>
      </trkpt>
      <trkpt lat="54.26991" lon="18.57884">
        <ele>64.972995</ele>
        <time>2024-08-04T10:04:02.963Z</time>
      </trkpt>
      <trkpt lat="54.26997" lon="18.57901">
        <ele>64.614522</ele>
        <time>2024-08-04T10:04:05.948Z</time>
      </trkpt>
      <trkpt lat="54.27004" lon="18.57912">
        <ele>64.32305</ele>
        <time>2024-08-04T10:04:08.946Z</time>
      </trkpt>
      <trkpt lat="54.27014" lon="18.57922">
        <ele>64.218856</ele>
        <time>2024-08-04T10:04:11.951Z</time>
      </trkpt>
      <trkpt lat="54.27022" lon="18.57933">
        <ele>64.150667</ele>
        <time>2024-08-04T10:04:13.934Z</time>
      </trkpt>
      <trkpt lat="54.27031" lon="18.57944">
        <ele>64.080464</ele>
        <time>2024-08-04T10:04:15.943Z</time>
      </trkpt>
      <trkpt lat="54.2704" lon="18.57955">
        <ele>64.004415</ele>
        <time>2024-08-04T10:04:17.946Z</time>
      </trkpt>
      <trkpt lat="54.2705" lon="18.57964">
        <ele>63.924981</ele>
        <time>2024-08-04T10:04:19.964Z</time>
      </trkpt>
      <trkpt lat="54.2706" lon="18.57974">
        <ele>63.851735</ele>
        <time>2024-08-04T10:04:21.965Z</time>
      </trkpt>
      <trkpt lat="54.2707" lon="18.57983">
        <ele>63.777573</ele>
        <time>2024-08-04T10:04:23.955Z</time>
      </trkpt>
      <trkpt lat="54.27079" lon="18.57991">
        <ele>63.70765</ele>
        <time>2024-08-04T10:04:25.944Z</time>
      </trkpt>
      <trkpt lat="54.27088" lon="18.58001">
        <ele>63.637675</ele>
        <time>2024-08-04T10:04:27.942Z</time>
      </trkpt>
      <trkpt lat="54.27095" lon="18.58013">
        <ele>63.568529</ele>
        <time>2024-08-04T10:04:29.932Z</time>
      </trkpt>
      <trkpt lat="54.27102" lon="18.58024">
        <ele>63.503745</ele>
        <time>2024-08-04T10:04:31.948Z</time>
      </trkpt>
      <trkpt lat="54.2711" lon="18.58036">
        <ele>63.436376</ele>
        <time>2024-08-04T10:04:33.939Z</time>
      </trkpt>
      <trkpt lat="54.27117" lon="18.58047">
        <ele>63.369797</ele>
        <time>2024-08-04T10:04:35.964Z</time>
      </trkpt>
      <trkpt lat="54.27125" lon="18.58058">
        <ele>63.305777</ele>
        <time>2024-08-04T10:04:37.945Z</time>
      </trkpt>
      <trkpt lat="54.27132" lon="18.58068">
        <ele>63.242772</ele>
        <time>2024-08-04T10:04:39.947Z</time>
      </trkpt>
      <trkpt lat="54.27142" lon="18.58083">
        <ele>63.155889</ele>
        <time>2024-08-04T10:04:42.948Z</time>
      </trkpt>
      <trkpt lat="54.27151" lon="18.58096">
        <ele>63.152767</ele>
        <time>2024-08-04T10:04:45.937Z</time>
      </trkpt>
      <trkpt lat="54.27161" lon="18.58109">
        <ele>63.446269</ele>
        <time>2024-08-04T10:04:48.950Z</time>
      </trkpt>
      <trkpt lat="54.27168" lon="18.58121">
        <ele>63.690736</ele>
        <time>2024-08-04T10:04:51.949Z</time>
      </trkpt>
      <trkpt lat="54.27177" lon="18.58118">
        <ele>63.914954</ele>
        <time>2024-08-04T10:04:56.943Z</time>
      </trkpt>
      <trkpt lat="54.27187" lon="18.58119">
        <ele>64.1499</ele>
        <time>2024-08-04T10:05:00.939Z</time>
      </trkpt>
      <trkpt lat="54.27195" lon="18.58131">
        <ele>64.419435</ele>
        <time>2024-08-04T10:05:04.963Z</time>
      </trkpt>
      <trkpt lat="54.27204" lon="18.58142">
        <ele>64.688646</ele>
        <time>2024-08-04T10:05:08.941Z</time>
      </trkpt>
      <trkpt lat="54.27214" lon="18.5815">
        <ele>64.95315</ele>
        <time>2024-08-04T10:05:12.947Z</time>
      </trkpt>
      <trkpt lat="54.27224" lon="18.58158">
        <ele>65.209608</ele>
        <time>2024-08-04T10:05:16.953Z</time>
      </trkpt>
      <trkpt lat="54.27233" lon="18.5817">
        <ele>65.478702</ele>
        <time>2024-08-04T10:05:20.948Z</time>
      </trkpt>
      <trkpt lat="54.27241" lon="18.58183">
        <ele>65.749063</ele>
        <time>2024-08-04T10:05:24.929Z</time>
      </trkpt>
      <trkpt lat="54.27249" lon="18.58195">
        <ele>66.010394</ele>
        <time>2024-08-04T10:05:28.960Z</time>
      </trkpt>
      <trkpt lat="54.27258" lon="18.58205">
        <ele>66.278979</ele>
        <time>2024-08-04T10:05:32.946Z</time>
      </trkpt>
      <trkpt lat="54.27268" lon="18.58213">
        <ele>66.539446</ele>
        <time>2024-08-04T10:05:36.942Z</time>
      </trkpt>
      <trkpt lat="54.27278" lon="18.58221">
        <ele>66.811838</ele>
        <time>2024-08-04T10:05:40.968Z</time>
      </trkpt>
      <trkpt lat="54.2729" lon="18.58227">
        <ele>67.096156</ele>
        <time>2024-08-04T10:05:44.943Z</time>
      </trkpt>
      <trkpt lat="54.27301" lon="18.58233">
        <ele>67.382399</ele>
        <time>2024-08-04T10:05:48.960Z</time>
      </trkpt>
      <trkpt lat="54.27312" lon="18.58238">
        <ele>67.808198</ele>
        <time>2024-08-04T10:05:52.945Z</time>
      </trkpt>
      <trkpt lat="54.27323" lon="18.58246">
        <ele>68.256195</ele>
        <time>2024-08-04T10:05:56.959Z</time>
      </trkpt>
      <trkpt lat="54.27333" lon="18.58253">
        <ele>68.706156</ele>
        <time>2024-08-04T10:06:00.950Z</time>
      </trkpt>
      <trkpt lat="54.27344" lon="18.58258">
        <ele>69.149841</ele>
        <time>2024-08-04T10:06:04.951Z</time>
      </trkpt>
      <trkpt lat="54.27353" lon="18.58264">
        <ele>69.522348</ele>
        <time>2024-08-04T10:06:07.968Z</time>
      </trkpt>
      <trkpt lat="54.27361" lon="18.58268">
        <ele>69.878528</ele>
        <time>2024-08-04T10:06:10.950Z</time>
      </trkpt>
      <trkpt lat="54.27372" lon="18.58274">
        <ele>70.317748</ele>
        <time>2024-08-04T10:06:14.952Z</time>
      </trkpt>
      <trkpt lat="54.27383" lon="18.58281">
        <ele>70.772645</ele>
        <time>2024-08-04T10:06:18.944Z</time>
      </trkpt>
      <trkpt lat="54.27394" lon="18.58288">
        <ele>71.231253</ele>
        <time>2024-08-04T10:06:22.947Z</time>
      </trkpt>
      <trkpt lat="54.27403" lon="18.58293">
        <ele>71.597789</ele>
        <time>2024-08-04T10:06:25.942Z</time>
      </trkpt>
      <trkpt lat="54.27414" lon="18.58297">
        <ele>72.06945</ele>
        <time>2024-08-04T10:06:29.955Z</time>
      </trkpt>
      <trkpt lat="54.27425" lon="18.58302">
        <ele>72.519966</ele>
        <time>2024-08-04T10:06:33.942Z</time>
      </trkpt>
      <trkpt lat="54.27437" lon="18.58307">
        <ele>72.988454</ele>
        <time>2024-08-04T10:06:37.948Z</time>
      </trkpt>
      <trkpt lat="54.27446" lon="18.58312">
        <ele>73.355723</ele>
        <time>2024-08-04T10:06:40.965Z</time>
      </trkpt>
      <trkpt lat="54.27457" lon="18.58319">
        <ele>73.826268</ele>
        <time>2024-08-04T10:06:44.946Z</time>
      </trkpt>
      <trkpt lat="54.27468" lon="18.58325">
        <ele>74.27959</ele>
        <time>2024-08-04T10:06:48.946Z</time>
      </trkpt>
      <trkpt lat="54.27478" lon="18.58333">
        <ele>74.563317</ele>
        <time>2024-08-04T10:06:52.953Z</time>
      </trkpt>
      <trkpt lat="54.27489" lon="18.58342">
        <ele>74.61082</ele>
        <time>2024-08-04T10:06:56.951Z</time>
      </trkpt>
      <trkpt lat="54.27499" lon="18.5835">
        <ele>74.655593</ele>
        <time>2024-08-04T10:07:00.963Z</time>
      </trkpt>
      <trkpt lat="54.27507" lon="18.58357">
        <ele>74.691264</ele>
        <time>2024-08-04T10:07:03.959Z</time>
      </trkpt>
      <trkpt lat="54.27516" lon="18.58364">
        <ele>74.728347</ele>
        <time>2024-08-04T10:07:06.944Z</time>
      </trkpt>
      <trkpt lat="54.27526" lon="18.58374">
        <ele>74.773618</ele>
        <time>2024-08-04T10:07:10.948Z</time>
      </trkpt>
      <trkpt lat="54.27536" lon="18.58385">
        <ele>74.820421</ele>
        <time>2024-08-04T10:07:14.948Z</time>
      </trkpt>
      <trkpt lat="54.27544" lon="18.58393">
        <ele>74.856413</ele>
        <time>2024-08-04T10:07:17.940Z</time>
      </trkpt>
      <trkpt lat="54.27553" lon="18.58406">
        <ele>74.903172</ele>
        <time>2024-08-04T10:07:21.944Z</time>
      </trkpt>
      <trkpt lat="54.27559" lon="18.58417">
        <ele>74.941053</ele>
        <time>2024-08-04T10:07:25.951Z</time>
      </trkpt>
      <trkpt lat="54.27565" lon="18.58432">
        <ele>74.98149</ele>
        <time>2024-08-04T10:07:29.936Z</time>
      </trkpt>
      <trkpt lat="54.27571" lon="18.58448">
        <ele>75.02594</ele>
        <time>2024-08-04T10:07:33.950Z</time>
      </trkpt>
      <trkpt lat="54.27576" lon="18.58465">
        <ele>75.070723</ele>
        <time>2024-08-04T10:07:37.932Z</time>
      </trkpt>
      <trkpt lat="54.27581" lon="18.58483">
        <ele>75.114874</ele>
        <time>2024-08-04T10:07:41.966Z</time>
      </trkpt>
      <trkpt lat="54.27583" lon="18.58498">
        <ele>75.151929</ele>
        <time>2024-08-04T10:07:44.940Z</time>
      </trkpt>
      <trkpt lat="54.27586" lon="18.58517">
        <ele>75.196529</ele>
        <time>2024-08-04T10:07:48.944Z</time>
      </trkpt>
      <trkpt lat="54.27591" lon="18.58534">
        <ele>75.240975</ele>
        <time>2024-08-04T10:07:52.951Z</time>
      </trkpt>
      <trkpt lat="54.27594" lon="18.58549">
        <ele>75.42621</ele>
        <time>2024-08-04T10:07:55.959Z</time>
      </trkpt>
      <trkpt lat="54.27596" lon="18.58564">
        <ele>75.711156</ele>
        <time>2024-08-04T10:07:58.945Z</time>
      </trkpt>
      <trkpt lat="54.27599" lon="18.58579">
        <ele>75.997534</ele>
        <time>2024-08-04T10:08:01.956Z</time>
      </trkpt>
      <trkpt lat="54.27602" lon="18.58599">
        <ele>76.374918</ele>
        <time>2024-08-04T10:08:05.947Z</time>
      </trkpt>
      <trkpt lat="54.27605" lon="18.58614">
        <ele>76.661723</ele>
        <time>2024-08-04T10:08:08.951Z</time>
      </trkpt>
      <trkpt lat="54.27609" lon="18.58629">
        <ele>76.967938</ele>
        <time>2024-08-04T10:08:11.951Z</time>
      </trkpt>
      <trkpt lat="54.27614" lon="18.58647">
        <ele>77.332092</ele>
        <time>2024-08-04T10:08:15.965Z</time>
      </trkpt>
      <trkpt lat="54.2762" lon="18.58664">
        <ele>77.705592</ele>
        <time>2024-08-04T10:08:19.951Z</time>
      </trkpt>
      <trkpt lat="54.27626" lon="18.58677">
        <ele>77.99958</ele>
        <time>2024-08-04T10:08:22.949Z</time>
      </trkpt>
      <trkpt lat="54.27632" lon="18.58689">
        <ele>78.287311</ele>
        <time>2024-08-04T10:08:25.942Z</time>
      </trkpt>
      <trkpt lat="54.2764" lon="18.58703">
        <ele>78.654642</ele>
        <time>2024-08-04T10:08:29.951Z</time>
      </trkpt>
      <trkpt lat="54.2765" lon="18.58716">
        <ele>79.025343</ele>
        <time>2024-08-04T10:08:33.951Z</time>
      </trkpt>
      <trkpt lat="54.27659" lon="18.58728">
        <ele>79.388971</ele>
        <time>2024-08-04T10:08:37.953Z</time>
      </trkpt>
      <trkpt lat="54.27666" lon="18.58737">
        <ele>79.681029</ele>
        <time>2024-08-04T10:08:40.961Z</time>
      </trkpt>
      <trkpt lat="54.27673" lon="18.58746">
        <ele>79.962227</ele>
        <time>2024-08-04T10:08:43.949Z</time>
      </trkpt>
      <trkpt lat="54.27682" lon="18.58755">
        <ele>80.260336</ele>
        <time>2024-08-04T10:08:46.952Z</time>
      </trkpt>
      <trkpt lat="54.27689" lon="18.58764">
        <ele>80.545153</ele>
        <time>2024-08-04T10:08:49.951Z</time>
      </trkpt>
      <trkpt lat="54.27696" lon="18.58773">
        <ele>80.827417</ele>
        <time>2024-08-04T10:08:52.948Z</time>
      </trkpt>
      <trkpt lat="54.27704" lon="18.58781">
        <ele>81.036878</ele>
        <time>2024-08-04T10:08:55.946Z</time>
      </trkpt>
      <trkpt lat="54.27714" lon="18.58792">
        <ele>81.269574</ele>
        <time>2024-08-04T10:08:59.952Z</time>
      </trkpt>
      <trkpt lat="54.27724" lon="18.58802">
        <ele>81.508892</ele>
        <time>2024-08-04T10:09:03.927Z</time>
      </trkpt>
      <trkpt lat="54.27734" lon="18.58812">
        <ele>81.736765</ele>
        <time>2024-08-04T10:09:07.950Z</time>
      </trkpt>
      <trkpt lat="54.27743" lon="18.58822">
        <ele>81.951381</ele>
        <time>2024-08-04T10:09:11.974Z</time>
      </trkpt>
      <trkpt lat="54.27751" lon="18.58834">
        <ele>82.162449</ele>
        <time>2024-08-04T10:09:15.964Z</time>
      </trkpt>
      <trkpt lat="54.27761" lon="18.58844">
        <ele>82.389681</ele>
        <time>2024-08-04T10:09:19.941Z</time>
      </trkpt>
      <trkpt lat="54.27771" lon="18.58854">
        <ele>82.615806</ele>
        <time>2024-08-04T10:09:23.966Z</time>
      </trkpt>
      <trkpt lat="54.27779" lon="18.58866">
        <ele>82.835429</ele>
        <time>2024-08-04T10:09:27.968Z</time>
      </trkpt>
      <trkpt lat="54.27788" lon="18.58877">
        <ele>83.062789</ele>
        <time>2024-08-04T10:09:31.967Z</time>
      </trkpt>
      <trkpt lat="54.27797" lon="18.58888">
        <ele>83.269937</ele>
        <time>2024-08-04T10:09:35.949Z</time>
      </trkpt>
      <trkpt lat="54.27805" lon="18.58899">
        <ele>83.478277</ele>
        <time>2024-08-04T10:09:39.946Z</time>
      </trkpt>
      <trkpt lat="54.27814" lon="18.58911">
        <ele>83.700686</ele>
        <time>2024-08-04T10:09:43.946Z</time>
      </trkpt>
      <trkpt lat="54.27821" lon="18.58924">
        <ele>83.914068</ele>
        <time>2024-08-04T10:09:47.942Z</time>
      </trkpt>
      <trkpt lat="54.27828" lon="18.58934">
        <ele>84.097988</ele>
        <time>2024-08-04T10:09:51.945Z</time>
      </trkpt>
      <trkpt lat="54.27837" lon="18.58944">
        <ele>84.29783</ele>
        <time>2024-08-04T10:09:55.936Z</time>
      </trkpt>
      <trkpt lat="54.27844" lon="18.58956">
        <ele>84.510391</ele>
        <time>2024-08-04T10:09:59.939Z</time>
      </trkpt>
      <trkpt lat="54.27851" lon="18.58969">
        <ele>84.908388</ele>
        <time>2024-08-04T10:10:03.945Z</time>
      </trkpt>
      <trkpt lat="54.27859" lon="18.5898">
        <ele>85.302247</ele>
        <time>2024-08-04T10:10:07.940Z</time>
      </trkpt>
      <trkpt lat="54.27867" lon="18.58989">
        <ele>85.650344</ele>
        <time>2024-08-04T10:10:10.947Z</time>
      </trkpt>
      <trkpt lat="54.27873" lon="18.58999">
        <ele>85.992431</ele>
        <time>2024-08-04T10:10:13.945Z</time>
      </trkpt>
      <trkpt lat="54.27879" lon="18.59017">
        <ele>86.438269</ele>
        <time>2024-08-04T10:10:17.948Z</time>
      </trkpt>
      <trkpt lat="54.27886" lon="18.59034">
        <ele>86.892969</ele>
        <time>2024-08-04T10:10:21.971Z</time>
      </trkpt>
      <trkpt lat="54.27894" lon="18.59047">
        <ele>87.301019</ele>
        <time>2024-08-04T10:10:25.944Z</time>
      </trkpt>
      <trkpt lat="54.27903" lon="18.59055">
        <ele>87.705152</ele>
        <time>2024-08-04T10:10:46.937Z</time>
      </trkpt>
      <trkpt lat="54.27911" lon="18.59063">
        <ele>88.069121</ele>
        <time>2024-08-04T10:10:50.950Z</time>
      </trkpt>
      <trkpt lat="54.2792" lon="18.59074">
        <ele>88.46241</ele>
        <time>2024-08-04T10:10:54.948Z</time>
      </trkpt>
      <trkpt lat="54.27929" lon="18.59086">
        <ele>88.900689</ele>
        <time>2024-08-04T10:10:58.966Z</time>
      </trkpt>
      <trkpt lat="54.27938" lon="18.59095">
        <ele>89.293994</ele>
        <time>2024-08-04T10:11:02.949Z</time>
      </trkpt>
      <trkpt lat="54.27947" lon="18.59106">
        <ele>89.725974</ele>
        <time>2024-08-04T10:11:06.952Z</time>
      </trkpt>
      <trkpt lat="54.27956" lon="18.59117">
        <ele>90.151803</ele>
        <time>2024-08-04T10:11:10.955Z</time>
      </trkpt>
      <trkpt lat="54.27965" lon="18.59127">
        <ele>90.549367</ele>
        <time>2024-08-04T10:11:14.918Z</time>
      </trkpt>
      <trkpt lat="54.27974" lon="18.59138">
        <ele>90.95901</ele>
        <time>2024-08-04T10:11:18.950Z</time>
      </trkpt>
      <trkpt lat="54.27982" lon="18.59149">
        <ele>91.316184</ele>
        <time>2024-08-04T10:11:22.944Z</time>
      </trkpt>
      <trkpt lat="54.27991" lon="18.59159">
        <ele>91.372775</ele>
        <time>2024-08-04T10:11:26.953Z</time>
      </trkpt>
      <trkpt lat="54.28001" lon="18.59168">
        <ele>91.43241</ele>
        <time>2024-08-04T10:11:30.948Z</time>
      </trkpt>
      <trkpt lat="54.28009" lon="18.59179">
        <ele>91.489989</ele>
        <time>2024-08-04T10:11:34.954Z</time>
      </trkpt>
      <trkpt lat="54.28018" lon="18.5919">
        <ele>91.546335</ele>
        <time>2024-08-04T10:11:38.955Z</time>
      </trkpt>
      <trkpt lat="54.28027" lon="18.59199">
        <ele>91.602263</ele>
        <time>2024-08-04T10:11:42.946Z</time>
      </trkpt>
      <trkpt lat="54.28035" lon="18.59209">
        <ele>91.655104</ele>
        <time>2024-08-04T10:11:46.955Z</time>
      </trkpt>
      <trkpt lat="54.28043" lon="18.59219">
        <ele>91.708419</ele>
        <time>2024-08-04T10:11:50.956Z</time>
      </trkpt>
      <trkpt lat="54.28051" lon="18.59229">
        <ele>91.762696</ele>
        <time>2024-08-04T10:11:54.960Z</time>
      </trkpt>
      <trkpt lat="54.2806" lon="18.59238">
        <ele>91.819119</ele>
        <time>2024-08-04T10:11:58.952Z</time>
      </trkpt>
      <trkpt lat="54.2807" lon="18.59249">
        <ele>91.878702</ele>
        <time>2024-08-04T10:12:02.947Z</time>
      </trkpt>
      <trkpt lat="54.28077" lon="18.59258">
        <ele>91.929154</ele>
        <time>2024-08-04T10:12:05.965Z</time>
      </trkpt>
      <trkpt lat="54.28086" lon="18.59266">
        <ele>91.983368</ele>
        <time>2024-08-04T10:12:08.951Z</time>
      </trkpt>
      <trkpt lat="54.28097" lon="18.59278">
        <ele>92.05339</ele>
        <time>2024-08-04T10:12:11.926Z</time>
      </trkpt>
      <trkpt lat="54.28109" lon="18.59289">
        <ele>92.126777</ele>
        <time>2024-08-04T10:12:14.952Z</time>
      </trkpt>
      <trkpt lat="54.28118" lon="18.59297">
        <ele>92.179601</ele>
        <time>2024-08-04T10:12:16.943Z</time>
      </trkpt>
      <trkpt lat="54.28127" lon="18.59305">
        <ele>92.235057</ele>
        <time>2024-08-04T10:12:18.947Z</time>
      </trkpt>
      <trkpt lat="54.28137" lon="18.59312">
        <ele>92.236171</ele>
        <time>2024-08-04T10:12:20.968Z</time>
      </trkpt>
      <trkpt lat="54.28147" lon="18.59322">
        <ele>92.132858</ele>
        <time>2024-08-04T10:12:22.951Z</time>
      </trkpt>
      <trkpt lat="54.28158" lon="18.59331">
        <ele>92.029041</ele>
        <time>2024-08-04T10:12:24.955Z</time>
      </trkpt>
      <trkpt lat="54.28167" lon="18.59341">
        <ele>91.932515</ele>
        <time>2024-08-04T10:12:26.951Z</time>
      </trkpt>
      <trkpt lat="54.28176" lon="18.5935">
        <ele>91.835417</ele>
        <time>2024-08-04T10:12:28.963Z</time>
      </trkpt>
      <trkpt lat="54.28185" lon="18.59365">
        <ele>91.726755</ele>
        <time>2024-08-04T10:12:31.965Z</time>
      </trkpt>
      <trkpt lat="54.28184" lon="18.59383">
        <ele>91.631693</ele>
        <time>2024-08-04T10:12:37.938Z</time>
      </trkpt>
      <trkpt lat="54.2818" lon="18.59399">
        <ele>91.54023</ele>
        <time>2024-08-04T10:12:41.950Z</time>
      </trkpt>
      <trkpt lat="54.28179" lon="18.59415">
        <ele>91.452047</ele>
        <time>2024-08-04T10:12:45.966Z</time>
      </trkpt>
      <trkpt lat="54.28182" lon="18.59431">
        <ele>91.362383</ele>
        <time>2024-08-04T10:12:49.954Z</time>
      </trkpt>
      <trkpt lat="54.28187" lon="18.59445">
        <ele>91.27492</ele>
        <time>2024-08-04T10:12:53.949Z</time>
      </trkpt>
      <trkpt lat="54.28198" lon="18.59451">
        <ele>91.178407</ele>
        <time>2024-08-04T10:12:57.947Z</time>
      </trkpt>
      <trkpt lat="54.28207" lon="18.59453">
        <ele>91.096374</ele>
        <time>2024-08-04T10:13:00.946Z</time>
      </trkpt>
      <trkpt lat="54.28219" lon="18.59451">
        <ele>90.988059</ele>
        <time>2024-08-04T10:13:04.950Z</time>
      </trkpt>
      <trkpt lat="54.28228" lon="18.59461">
        <ele>90.892766</ele>
        <time>2024-08-04T10:13:07.940Z</time>
      </trkpt>
      <trkpt lat="54.28235" lon="18.59473">
        <ele>90.798848</ele>
        <time>2024-08-04T10:13:10.942Z</time>
      </trkpt>
      <trkpt lat="54.28243" lon="18.59487">
        <ele>90.699764</ele>
        <time>2024-08-04T10:13:13.965Z</time>
      </trkpt>
      <trkpt lat="54.28251" lon="18.59503">
        <ele>90.604151</ele>
        <time>2024-08-04T10:13:16.958Z</time>
      </trkpt>
      <trkpt lat="54.28258" lon="18.59517">
        <ele>90.526142</ele>
        <time>2024-08-04T10:13:19.959Z</time>
      </trkpt>
      <trkpt lat="54.28267" lon="18.59526">
        <ele>90.45211</ele>
        <time>2024-08-04T10:13:22.951Z</time>
      </trkpt>
      <trkpt lat="54.28276" lon="18.59534">
        <ele>90.382316</ele>
        <time>2024-08-04T10:13:25.970Z</time>
      </trkpt>
      <trkpt lat="54.28284" lon="18.59542">
        <ele>90.315429</ele>
        <time>2024-08-04T10:13:32.949Z</time>
      </trkpt>
      <trkpt lat="54.2829" lon="18.59531">
        <ele>90.250678</ele>
        <time>2024-08-04T10:13:39.938Z</time>
      </trkpt>
      <trkpt lat="54.28298" lon="18.59524">
        <ele>90.186009</ele>
        <time>2024-08-04T10:13:43.935Z</time>
      </trkpt>
      <trkpt lat="54.28306" lon="18.59537">
        <ele>90.110618</ele>
        <time>2024-08-04T10:13:46.967Z</time>
      </trkpt>
      <trkpt lat="54.28315" lon="18.59547">
        <ele>90.032967</ele>
        <time>2024-08-04T10:13:49.943Z</time>
      </trkpt>
      <trkpt lat="54.28322" lon="18.5956">
        <ele>89.961355</ele>
        <time>2024-08-04T10:13:52.947Z</time>
      </trkpt>
      <trkpt lat="54.2833" lon="18.59574">
        <ele>89.882425</ele>
        <time>2024-08-04T10:13:55.960Z</time>
      </trkpt>
      <trkpt lat="54.2834" lon="18.59587">
        <ele>89.793127</ele>
        <time>2024-08-04T10:13:58.948Z</time>
      </trkpt>
      <trkpt lat="54.28348" lon="18.59594">
        <ele>89.727184</ele>
        <time>2024-08-04T10:14:00.943Z</time>
      </trkpt>
      <trkpt lat="54.28356" lon="18.596">
        <ele>89.661862</ele>
        <time>2024-08-04T10:14:02.948Z</time>
      </trkpt>
      <trkpt lat="54.28365" lon="18.59606">
        <ele>89.593409</ele>
        <time>2024-08-04T10:14:04.954Z</time>
      </trkpt>
      <trkpt lat="54.28375" lon="18.59611">
        <ele>89.521729</ele>
        <time>2024-08-04T10:14:06.947Z</time>
      </trkpt>
      <trkpt lat="54.28385" lon="18.59618">
        <ele>89.448345</ele>
        <time>2024-08-04T10:14:08.936Z</time>
      </trkpt>
      <trkpt lat="54.28395" lon="18.59623">
        <ele>89.371821</ele>
        <time>2024-08-04T10:14:10.959Z</time>
      </trkpt>
      <trkpt lat="54.28404" lon="18.59629">
        <ele>89.259525</ele>
        <time>2024-08-04T10:14:12.946Z</time>
      </trkpt>
      <trkpt lat="54.28413" lon="18.59634">
        <ele>89.147022</ele>
        <time>2024-08-04T10:14:14.956Z</time>
      </trkpt>
      <trkpt lat="54.28423" lon="18.5964">
        <ele>89.028586</ele>
        <time>2024-08-04T10:14:16.960Z</time>
      </trkpt>
      <trkpt lat="54.28433" lon="18.59645">
        <ele>88.914993</ele>
        <time>2024-08-04T10:14:18.944Z</time>
      </trkpt>
      <trkpt lat="54.28442" lon="18.59647">
        <ele>88.804889</ele>
        <time>2024-08-04T10:14:20.947Z</time>
      </trkpt>
      <trkpt lat="54.28452" lon="18.59649">
        <ele>88.699917</ele>
        <time>2024-08-04T10:14:22.938Z</time>
      </trkpt>
      <trkpt lat="54.28465" lon="18.5965">
        <ele>88.543847</ele>
        <time>2024-08-04T10:14:25.949Z</time>
      </trkpt>
      <trkpt lat="54.28475" lon="18.59656">
        <ele>88.424948</ele>
        <time>2024-08-04T10:14:27.947Z</time>
      </trkpt>
      <trkpt lat="54.28484" lon="18.59663">
        <ele>88.311992</ele>
        <time>2024-08-04T10:14:29.963Z</time>
      </trkpt>
      <trkpt lat="54.28492" lon="18.59673">
        <ele>88.198424</ele>
        <time>2024-08-04T10:14:31.975Z</time>
      </trkpt>
      <trkpt lat="54.28501" lon="18.59683">
        <ele>88.076332</ele>
        <time>2024-08-04T10:14:33.959Z</time>
      </trkpt>
      <trkpt lat="54.28511" lon="18.59691">
        <ele>87.95711</ele>
        <time>2024-08-04T10:14:35.947Z</time>
      </trkpt>
      <trkpt lat="54.2852" lon="18.59699">
        <ele>87.841095</ele>
        <time>2024-08-04T10:14:37.959Z</time>
      </trkpt>
      <trkpt lat="54.28529" lon="18.59706">
        <ele>87.726751</ele>
        <time>2024-08-04T10:14:39.961Z</time>
      </trkpt>
      <trkpt lat="54.28539" lon="18.59712">
        <ele>87.609546</ele>
        <time>2024-08-04T10:14:41.963Z</time>
      </trkpt>
      <trkpt lat="54.28548" lon="18.59719">
        <ele>87.492177</ele>
        <time>2024-08-04T10:14:43.954Z</time>
      </trkpt>
      <trkpt lat="54.28558" lon="18.59724">
        <ele>87.373755</ele>
        <time>2024-08-04T10:14:45.949Z</time>
      </trkpt>
      <trkpt lat="54.28568" lon="18.59729">
        <ele>87.391231</ele>
        <time>2024-08-04T10:14:47.949Z</time>
      </trkpt>
      <trkpt lat="54.28578" lon="18.59731">
        <ele>87.46889</ele>
        <time>2024-08-04T10:14:49.942Z</time>
      </trkpt>
      <trkpt lat="54.28589" lon="18.59734">
        <ele>87.547289</ele>
        <time>2024-08-04T10:14:51.963Z</time>
      </trkpt>
      <trkpt lat="54.28599" lon="18.59735">
        <ele>87.626927</ele>
        <time>2024-08-04T10:14:53.935Z</time>
      </trkpt>
      <trkpt lat="54.28609" lon="18.59736">
        <ele>87.700976</ele>
        <time>2024-08-04T10:14:55.946Z</time>
      </trkpt>
      <trkpt lat="54.2862" lon="18.59736">
        <ele>87.780255</ele>
        <time>2024-08-04T10:14:57.944Z</time>
      </trkpt>
      <trkpt lat="54.2863" lon="18.59737">
        <ele>87.856576</ele>
        <time>2024-08-04T10:14:59.970Z</time>
      </trkpt>
      <trkpt lat="54.2864" lon="18.59739">
        <ele>87.932751</ele>
        <time>2024-08-04T10:15:01.963Z</time>
      </trkpt>
      <trkpt lat="54.2865" lon="18.5974">
        <ele>88.006896</ele>
        <time>2024-08-04T10:15:03.951Z</time>
      </trkpt>
      <trkpt lat="54.2866" lon="18.59741">
        <ele>88.081742</ele>
        <time>2024-08-04T10:15:05.959Z</time>
      </trkpt>
      <trkpt lat="54.2867" lon="18.59741">
        <ele>88.152773</ele>
        <time>2024-08-04T10:15:07.949Z</time>
      </trkpt>
      <trkpt lat="54.28679" lon="18.59741">
        <ele>88.225295</ele>
        <time>2024-08-04T10:15:09.946Z</time>
      </trkpt>
      <trkpt lat="54.28689" lon="18.59742">
        <ele>88.299357</ele>
        <time>2024-08-04T10:15:11.975Z</time>
      </trkpt>
      <trkpt lat="54.28703" lon="18.5974">
        <ele>88.398955</ele>
        <time>2024-08-04T10:15:14.947Z</time>
      </trkpt>
      <trkpt lat="54.28713" lon="18.5974">
        <ele>88.473719</ele>
        <time>2024-08-04T10:15:16.949Z</time>
      </trkpt>
      <trkpt lat="54.28722" lon="18.59741">
        <ele>88.545577</ele>
        <time>2024-08-04T10:15:18.960Z</time>
      </trkpt>
      <trkpt lat="54.28732" lon="18.59741">
        <ele>88.618851</ele>
        <time>2024-08-04T10:15:20.964Z</time>
      </trkpt>
      <trkpt lat="54.28741" lon="18.59741">
        <ele>88.694473</ele>
        <time>2024-08-04T10:15:22.952Z</time>
      </trkpt>
      <trkpt lat="54.2875" lon="18.59741">
        <ele>88.938718</ele>
        <time>2024-08-04T10:15:24.964Z</time>
      </trkpt>
      <trkpt lat="54.28763" lon="18.59742">
        <ele>89.289154</ele>
        <time>2024-08-04T10:15:27.963Z</time>
      </trkpt>
      <trkpt lat="54.28776" lon="18.59742">
        <ele>89.636533</ele>
        <time>2024-08-04T10:15:30.967Z</time>
      </trkpt>
      <trkpt lat="54.28787" lon="18.59742">
        <ele>89.948618</ele>
        <time>2024-08-04T10:15:33.966Z</time>
      </trkpt>
      <trkpt lat="54.28799" lon="18.59742">
        <ele>90.271559</ele>
        <time>2024-08-04T10:15:36.949Z</time>
      </trkpt>
      <trkpt lat="54.28811" lon="18.59741">
        <ele>90.597459</ele>
        <time>2024-08-04T10:15:39.963Z</time>
      </trkpt>
      <trkpt lat="54.28821" lon="18.59742">
        <ele>90.879804</ele>
        <time>2024-08-04T10:15:42.954Z</time>
      </trkpt>
      <trkpt lat="54.28832" lon="18.59742">
        <ele>91.167482</ele>
        <time>2024-08-04T10:15:45.962Z</time>
      </trkpt>
      <trkpt lat="54.28842" lon="18.59741">
        <ele>91.447163</ele>
        <time>2024-08-04T10:15:48.947Z</time>
      </trkpt>
      <trkpt lat="54.28852" lon="18.59741">
        <ele>91.72126</ele>
        <time>2024-08-04T10:15:51.952Z</time>
      </trkpt>
      <trkpt lat="54.28862" lon="18.59741">
        <ele>91.981827</ele>
        <time>2024-08-04T10:15:54.952Z</time>
      </trkpt>
      <trkpt lat="54.28871" lon="18.59741">
        <ele>92.23162</ele>
        <time>2024-08-04T10:15:57.950Z</time>
      </trkpt>
      <trkpt lat="54.2888" lon="18.59733">
        <ele>92.503222</ele>
        <time>2024-08-04T10:16:01.962Z</time>
      </trkpt>
      <trkpt lat="54.28891" lon="18.59738">
        <ele>92.801479</ele>
        <time>2024-08-04T10:16:06.934Z</time>
      </trkpt>
      <trkpt lat="54.289" lon="18.59739">
        <ele>93.057537</ele>
        <time>2024-08-04T10:16:10.941Z</time>
      </trkpt>
      <trkpt lat="54.28911" lon="18.5974">
        <ele>93.337276</ele>
        <time>2024-08-04T10:16:14.951Z</time>
      </trkpt>
      <trkpt lat="54.28921" lon="18.5974">
        <ele>93.596631</ele>
        <time>2024-08-04T10:16:18.965Z</time>
      </trkpt>
      <trkpt lat="54.28932" lon="18.5974">
        <ele>93.759042</ele>
        <time>2024-08-04T10:16:22.951Z</time>
      </trkpt>
      <trkpt lat="54.28944" lon="18.59739">
        <ele>93.920058</ele>
        <time>2024-08-04T10:16:26.948Z</time>
      </trkpt>
      <trkpt lat="54.28955" lon="18.5974">
        <ele>94.088231</ele>
        <time>2024-08-04T10:16:30.963Z</time>
      </trkpt>
      <trkpt lat="54.28966" lon="18.59739">
        <ele>94.249157</ele>
        <time>2024-08-04T10:16:34.947Z</time>
      </trkpt>
      <trkpt lat="54.28977" lon="18.59739">
        <ele>94.399938</ele>
        <time>2024-08-04T10:16:38.950Z</time>
      </trkpt>
      <trkpt lat="54.28986" lon="18.59739">
        <ele>94.53911</ele>
        <time>2024-08-04T10:16:42.955Z</time>
      </trkpt>
      <trkpt lat="54.28998" lon="18.59739">
        <ele>94.7044</ele>
        <time>2024-08-04T10:16:46.949Z</time>
      </trkpt>
      <trkpt lat="54.29009" lon="18.59739">
        <ele>94.863859</ele>
        <time>2024-08-04T10:16:50.946Z</time>
      </trkpt>
      <trkpt lat="54.29019" lon="18.5974">
        <ele>95.010467</ele>
        <time>2024-08-04T10:16:54.955Z</time>
      </trkpt>
      <trkpt lat="54.29029" lon="18.59741">
        <ele>95.164209</ele>
        <time>2024-08-04T10:16:58.955Z</time>
      </trkpt>
      <trkpt lat="54.29041" lon="18.59741">
        <ele>95.33818</ele>
        <time>2024-08-04T10:17:02.961Z</time>
      </trkpt>
      <trkpt lat="54.29051" lon="18.59742">
        <ele>95.48205</ele>
        <time>2024-08-04T10:17:05.964Z</time>
      </trkpt>
      <trkpt lat="54.29061" lon="18.59743">
        <ele>95.628704</ele>
        <time>2024-08-04T10:17:08.951Z</time>
      </trkpt>
      <trkpt lat="54.29072" lon="18.59744">
        <ele>95.776806</ele>
        <time>2024-08-04T10:17:11.947Z</time>
      </trkpt>
      <trkpt lat="54.29081" lon="18.59747">
        <ele>95.914574</ele>
        <time>2024-08-04T10:17:14.956Z</time>
      </trkpt>
      <trkpt lat="54.29091" lon="18.59751">
        <ele>96.060472</ele>
        <time>2024-08-04T10:17:21.953Z</time>
      </trkpt>
      <trkpt lat="54.291" lon="18.59755">
        <ele>96.118518</ele>
        <time>2024-08-04T10:17:27.940Z</time>
      </trkpt>
      <trkpt lat="54.2911" lon="18.59759">
        <ele>95.837954</ele>
        <time>2024-08-04T10:17:31.948Z</time>
      </trkpt>
      <trkpt lat="54.29119" lon="18.59763">
        <ele>95.592957</ele>
        <time>2024-08-04T10:17:34.960Z</time>
      </trkpt>
      <trkpt lat="54.29128" lon="18.59769">
        <ele>95.324141</ele>
        <time>2024-08-04T10:17:37.955Z</time>
      </trkpt>
      <trkpt lat="54.29139" lon="18.59777">
        <ele>95.010038</ele>
        <time>2024-08-04T10:17:40.955Z</time>
      </trkpt>
      <trkpt lat="54.29149" lon="18.59785">
        <ele>94.714624</ele>
        <time>2024-08-04T10:17:43.952Z</time>
      </trkpt>
      <trkpt lat="54.29158" lon="18.59789">
        <ele>94.445656</ele>
        <time>2024-08-04T10:17:46.964Z</time>
      </trkpt>
      <trkpt lat="54.29168" lon="18.59784">
        <ele>94.162033</ele>
        <time>2024-08-04T10:17:49.940Z</time>
      </trkpt>
      <trkpt lat="54.29178" lon="18.59787">
        <ele>93.905339</ele>
        <time>2024-08-04T10:17:53.936Z</time>
      </trkpt>
      <trkpt lat="54.29175" lon="18.59807">
        <ele>93.581257</ele>
        <time>2024-08-04T10:17:57.942Z</time>
      </trkpt>
      <trkpt lat="54.29183" lon="18.59824">
        <ele>93.238876</ele>
        <time>2024-08-04T10:18:00.956Z</time>
      </trkpt>
      <trkpt lat="54.29193" lon="18.59839">
        <ele>92.867028</ele>
        <time>2024-08-04T10:18:03.939Z</time>
      </trkpt>
      <trkpt lat="54.29201" lon="18.59852">
        <ele>92.570863</ele>
        <time>2024-08-04T10:18:05.954Z</time>
      </trkpt>
      <trkpt lat="54.2921" lon="18.59866">
        <ele>92.243007</ele>
        <time>2024-08-04T10:18:07.958Z</time>
      </trkpt>
      <trkpt lat="54.2922" lon="18.59881">
        <ele>91.885744</ele>
        <time>2024-08-04T10:18:09.967Z</time>
      </trkpt>
      <trkpt lat="54.29231" lon="18.59896">
        <ele>91.517222</ele>
        <time>2024-08-04T10:18:11.951Z</time>
      </trkpt>
      <trkpt lat="54.29241" lon="18.59913">
        <ele>91.271582</ele>
        <time>2024-08-04T10:18:13.947Z</time>
      </trkpt>
      <trkpt lat="54.29252" lon="18.59931">
        <ele>91.167387</ele>
        <time>2024-08-04T10:18:15.929Z</time>
      </trkpt>
      <trkpt lat="54.29264" lon="18.5995">
        <ele>91.05827</ele>
        <time>2024-08-04T10:18:17.953Z</time>
      </trkpt>
      <trkpt lat="54.29276" lon="18.59968">
        <ele>90.945866</ele>
        <time>2024-08-04T10:18:19.948Z</time>
      </trkpt>
      <trkpt lat="54.29289" lon="18.59987">
        <ele>90.832868</ele>
        <time>2024-08-04T10:18:21.972Z</time>
      </trkpt>
      <trkpt lat="54.29301" lon="18.60005">
        <ele>90.721766</ele>
        <time>2024-08-04T10:18:23.953Z</time>
      </trkpt>
      <trkpt lat="54.29313" lon="18.60022">
        <ele>90.611568</ele>
        <time>2024-08-04T10:18:25.961Z</time>
      </trkpt>
      <trkpt lat="54.29325" lon="18.60038">
        <ele>90.506143</ele>
        <time>2024-08-04T10:18:27.942Z</time>
      </trkpt>
      <trkpt lat="54.29336" lon="18.60056">
        <ele>90.406798</ele>
        <time>2024-08-04T10:18:29.945Z</time>
      </trkpt>
      <trkpt lat="54.29345" lon="18.60072">
        <ele>90.315025</ele>
        <time>2024-08-04T10:18:31.968Z</time>
      </trkpt>
      <trkpt lat="54.29354" lon="18.60087">
        <ele>90.22774</ele>
        <time>2024-08-04T10:18:33.951Z</time>
      </trkpt>
      <trkpt lat="54.29363" lon="18.60101">
        <ele>90.146264</ele>
        <time>2024-08-04T10:18:35.955Z</time>
      </trkpt>
      <trkpt lat="54.2937" lon="18.60114">
        <ele>90.121796</ele>
        <time>2024-08-04T10:18:37.946Z</time>
      </trkpt>
      <trkpt lat="54.29377" lon="18.60126">
        <ele>90.317811</ele>
        <time>2024-08-04T10:18:39.949Z</time>
      </trkpt>
      <trkpt lat="54.29384" lon="18.60137">
        <ele>90.506019</ele>
        <time>2024-08-04T10:18:41.964Z</time>
      </trkpt>
      <trkpt lat="54.29391" lon="18.60149">
        <ele>90.696665</ele>
        <time>2024-08-04T10:18:43.940Z</time>
      </trkpt>
      <trkpt lat="54.29398" lon="18.6016">
        <ele>90.882867</ele>
        <time>2024-08-04T10:18:45.958Z</time>
      </trkpt>
      <trkpt lat="54.29407" lon="18.60173">
        <ele>91.122666</ele>
        <time>2024-08-04T10:18:48.947Z</time>
      </trkpt>
      <trkpt lat="54.29416" lon="18.60187">
        <ele>91.356693</ele>
        <time>2024-08-04T10:18:51.954Z</time>
      </trkpt>
      <trkpt lat="54.29424" lon="18.60199">
        <ele>91.563696</ele>
        <time>2024-08-04T10:18:54.952Z</time>
      </trkpt>
      <trkpt lat="54.29431" lon="18.60212">
        <ele>91.760416</ele>
        <time>2024-08-04T10:18:57.951Z</time>
      </trkpt>
      <trkpt lat="54.29438" lon="18.60223">
        <ele>91.954413</ele>
        <time>2024-08-04T10:19:00.950Z</time>
      </trkpt>
      <trkpt lat="54.29445" lon="18.60235">
        <ele>92.147903</ele>
        <time>2024-08-04T10:19:03.966Z</time>
      </trkpt>
      <trkpt lat="54.29453" lon="18.60246">
        <ele>92.34363</ele>
        <time>2024-08-04T10:19:06.951Z</time>
      </trkpt>
      <trkpt lat="54.29459" lon="18.60256">
        <ele>92.52072</ele>
        <time>2024-08-04T10:19:09.940Z</time>
      </trkpt>
      <trkpt lat="54.29467" lon="18.60267">
        <ele>92.721804</ele>
        <time>2024-08-04T10:19:12.931Z</time>
      </trkpt>
      <trkpt lat="54.29475" lon="18.60278">
        <ele>92.919811</ele>
        <time>2024-08-04T10:19:15.934Z</time>
      </trkpt>
      <trkpt lat="54.29484" lon="18.60289">
        <ele>93.126557</ele>
        <time>2024-08-04T10:19:18.945Z</time>
      </trkpt>
      <trkpt lat="54.29492" lon="18.60299">
        <ele>93.328642</ele>
        <time>2024-08-04T10:19:21.956Z</time>
      </trkpt>
      <trkpt lat="54.29501" lon="18.60309">
        <ele>93.539934</ele>
        <time>2024-08-04T10:19:24.964Z</time>
      </trkpt>
      <trkpt lat="54.2951" lon="18.60319">
        <ele>93.697325</ele>
        <time>2024-08-04T10:19:27.934Z</time>
      </trkpt>
      <trkpt lat="54.29519" lon="18.60328">
        <ele>93.808635</ele>
        <time>2024-08-04T10:19:30.950Z</time>
      </trkpt>
      <trkpt lat="54.29524" lon="18.60316">
        <ele>93.910395</ele>
        <time>2024-08-04T10:19:36.945Z</time>
      </trkpt>
      <trkpt lat="54.29534" lon="18.60315">
        <ele>94.01387</ele>
        <time>2024-08-04T10:19:42.945Z</time>
      </trkpt>
      <trkpt lat="54.29543" lon="18.60317">
        <ele>94.115523</ele>
        <time>2024-08-04T10:19:50.951Z</time>
      </trkpt>
      <trkpt lat="54.2954" lon="18.60305">
        <ele>94.19747</ele>
        <time>2024-08-04T10:20:35.081Z</time>
      </trkpt>
      <trkpt lat="54.29529" lon="18.60311">
        <ele>94.31584</ele>
        <time>2024-08-04T10:46:47.949Z</time>
      </trkpt>
      <trkpt lat="54.29523" lon="18.60323">
        <ele>94.421745</ele>
        <time>2024-08-04T10:46:57.942Z</time>
      </trkpt>
      <trkpt lat="54.2953" lon="18.60336">
        <ele>94.530806</ele>
        <time>2024-08-04T10:47:57.943Z</time>
      </trkpt>
      <trkpt lat="54.29538" lon="18.60341">
        <ele>94.631724</ele>
        <time>2024-08-04T10:48:01.931Z</time>
      </trkpt>
      <trkpt lat="54.29548" lon="18.60349">
        <ele>94.753553</ele>
        <time>2024-08-04T10:48:05.947Z</time>
      </trkpt>
      <trkpt lat="54.29557" lon="18.60355">
        <ele>94.859832</ele>
        <time>2024-08-04T10:48:08.948Z</time>
      </trkpt>
      <trkpt lat="54.29566" lon="18.6036">
        <ele>94.96811</ele>
        <time>2024-08-04T10:48:11.996Z</time>
      </trkpt>
      <trkpt lat="54.29576" lon="18.60367">
        <ele>95.084819</ele>
        <time>2024-08-04T10:48:14.945Z</time>
      </trkpt>
      <trkpt lat="54.29587" lon="18.60374">
        <ele>95.2128</ele>
        <time>2024-08-04T10:48:17.966Z</time>
      </trkpt>
      <trkpt lat="54.29597" lon="18.60382">
        <ele>95.34151</ele>
        <time>2024-08-04T10:48:20.950Z</time>
      </trkpt>
      <trkpt lat="54.29608" lon="18.6039">
        <ele>95.473535</ele>
        <time>2024-08-04T10:48:23.964Z</time>
      </trkpt>
      <trkpt lat="54.2962" lon="18.60399">
        <ele>95.611951</ele>
        <time>2024-08-04T10:48:26.961Z</time>
      </trkpt>
      <trkpt lat="54.29631" lon="18.60407">
        <ele>95.644303</ele>
        <time>2024-08-04T10:48:29.947Z</time>
      </trkpt>
      <trkpt lat="54.29643" lon="18.60414">
        <ele>95.666231</ele>
        <time>2024-08-04T10:48:32.967Z</time>
      </trkpt>
      <trkpt lat="54.29655" lon="18.60421">
        <ele>95.689222</ele>
        <time>2024-08-04T10:48:35.963Z</time>
      </trkpt>
      <trkpt lat="54.29668" lon="18.60429">
        <ele>95.712273</ele>
        <time>2024-08-04T10:48:38.953Z</time>
      </trkpt>
      <trkpt lat="54.2968" lon="18.60437">
        <ele>95.734999</ele>
        <time>2024-08-04T10:48:41.961Z</time>
      </trkpt>
      <trkpt lat="54.29692" lon="18.60445">
        <ele>95.758653</ele>
        <time>2024-08-04T10:48:44.957Z</time>
      </trkpt>
      <trkpt lat="54.29705" lon="18.60453">
        <ele>95.782043</ele>
        <time>2024-08-04T10:48:47.953Z</time>
      </trkpt>
      <trkpt lat="54.29714" lon="18.60458">
        <ele>95.798257</ele>
        <time>2024-08-04T10:48:49.931Z</time>
      </trkpt>
      <trkpt lat="54.29722" lon="18.60463">
        <ele>95.814769</ele>
        <time>2024-08-04T10:48:51.995Z</time>
      </trkpt>
      <trkpt lat="54.29731" lon="18.60469">
        <ele>95.831289</ele>
        <time>2024-08-04T10:48:53.943Z</time>
      </trkpt>
      <trkpt lat="54.29744" lon="18.60475">
        <ele>95.854254</ele>
        <time>2024-08-04T10:48:56.956Z</time>
      </trkpt>
      <trkpt lat="54.29754" lon="18.60477">
        <ele>95.873017</ele>
        <time>2024-08-04T10:48:59.965Z</time>
      </trkpt>
      <trkpt lat="54.29765" lon="18.60475">
        <ele>95.890883</ele>
        <time>2024-08-04T10:49:04.965Z</time>
      </trkpt>
      <trkpt lat="54.29765" lon="18.60492">
        <ele>95.908407</ele>
        <time>2024-08-04T10:49:19.951Z</time>
      </trkpt>
      <trkpt lat="54.29758" lon="18.60503">
        <ele>95.925224</ele>
        <time>2024-08-04T10:49:22.950Z</time>
      </trkpt>
      <trkpt lat="54.29756" lon="18.6052">
        <ele>95.919671</ele>
        <time>2024-08-04T10:49:25.971Z</time>
      </trkpt>
      <trkpt lat="54.2976" lon="18.60537">
        <ele>95.770183</ele>
        <time>2024-08-04T10:49:28.952Z</time>
      </trkpt>
      <trkpt lat="54.29759" lon="18.60558">
        <ele>95.59612</ele>
        <time>2024-08-04T10:49:31.989Z</time>
      </trkpt>
      <trkpt lat="54.29755" lon="18.60579">
        <ele>95.41577</ele>
        <time>2024-08-04T10:49:34.953Z</time>
      </trkpt>
      <trkpt lat="54.29749" lon="18.60593">
        <ele>95.270292</ele>
        <time>2024-08-04T10:49:36.950Z</time>
      </trkpt>
      <trkpt lat="54.29742" lon="18.6061">
        <ele>95.09716</ele>
        <time>2024-08-04T10:49:38.948Z</time>
      </trkpt>
      <trkpt lat="54.29734" lon="18.60628">
        <ele>94.910644</ele>
        <time>2024-08-04T10:49:40.966Z</time>
      </trkpt>
      <trkpt lat="54.29726" lon="18.60646">
        <ele>94.720123</ele>
        <time>2024-08-04T10:49:42.955Z</time>
      </trkpt>
      <trkpt lat="54.29718" lon="18.60666">
        <ele>94.522162</ele>
        <time>2024-08-04T10:49:44.972Z</time>
      </trkpt>
      <trkpt lat="54.29709" lon="18.60686">
        <ele>94.313395</ele>
        <time>2024-08-04T10:49:46.967Z</time>
      </trkpt>
      <trkpt lat="54.297" lon="18.60705">
        <ele>94.112264</ele>
        <time>2024-08-04T10:49:48.946Z</time>
      </trkpt>
      <trkpt lat="54.29692" lon="18.60725">
        <ele>93.907795</ele>
        <time>2024-08-04T10:49:50.955Z</time>
      </trkpt>
      <trkpt lat="54.29683" lon="18.60745">
        <ele>93.704508</ele>
        <time>2024-08-04T10:49:52.949Z</time>
      </trkpt>
      <trkpt lat="54.29675" lon="18.60765">
        <ele>93.498579</ele>
        <time>2024-08-04T10:49:54.941Z</time>
      </trkpt>
      <trkpt lat="54.29667" lon="18.60785">
        <ele>93.213763</ele>
        <time>2024-08-04T10:49:56.953Z</time>
      </trkpt>
      <trkpt lat="54.29659" lon="18.60804">
        <ele>92.872178</ele>
        <time>2024-08-04T10:49:58.953Z</time>
      </trkpt>
      <trkpt lat="54.29652" lon="18.60822">
        <ele>92.539786</ele>
        <time>2024-08-04T10:50:00.954Z</time>
      </trkpt>
      <trkpt lat="54.29644" lon="18.60839">
        <ele>92.220607</ele>
        <time>2024-08-04T10:50:02.957Z</time>
      </trkpt>
      <trkpt lat="54.29637" lon="18.60854">
        <ele>91.919923</ele>
        <time>2024-08-04T10:50:04.963Z</time>
      </trkpt>
      <trkpt lat="54.29629" lon="18.6087">
        <ele>91.607958</ele>
        <time>2024-08-04T10:50:06.962Z</time>
      </trkpt>
      <trkpt lat="54.29622" lon="18.60886">
        <ele>91.304721</ele>
        <time>2024-08-04T10:50:08.964Z</time>
      </trkpt>
      <trkpt lat="54.29615" lon="18.60902">
        <ele>90.988765</ele>
        <time>2024-08-04T10:50:10.947Z</time>
      </trkpt>
      <trkpt lat="54.29608" lon="18.60919">
        <ele>90.672001</ele>
        <time>2024-08-04T10:50:12.950Z</time>
      </trkpt>
      <trkpt lat="54.296" lon="18.60934">
        <ele>90.370771</ele>
        <time>2024-08-04T10:50:14.970Z</time>
      </trkpt>
      <trkpt lat="54.29593" lon="18.6095">
        <ele>90.067978</ele>
        <time>2024-08-04T10:50:16.958Z</time>
      </trkpt>
      <trkpt lat="54.29586" lon="18.60966">
        <ele>89.762793</ele>
        <time>2024-08-04T10:50:18.950Z</time>
      </trkpt>
      <trkpt lat="54.29579" lon="18.60981">
        <ele>89.475327</ele>
        <time>2024-08-04T10:50:20.951Z</time>
      </trkpt>
      <trkpt lat="54.29572" lon="18.60996">
        <ele>89.190434</ele>
        <time>2024-08-04T10:50:22.957Z</time>
      </trkpt>
      <trkpt lat="54.29565" lon="18.61014">
        <ele>88.847598</ele>
        <time>2024-08-04T10:50:24.958Z</time>
      </trkpt>
      <trkpt lat="54.29556" lon="18.61035">
        <ele>88.146549</ele>
        <time>2024-08-04T10:50:26.947Z</time>
      </trkpt>
      <trkpt lat="54.29547" lon="18.61057">
        <ele>87.219833</ele>
        <time>2024-08-04T10:50:28.966Z</time>
      </trkpt>
      <trkpt lat="54.29538" lon="18.61077">
        <ele>86.3691</ele>
        <time>2024-08-04T10:50:30.948Z</time>
      </trkpt>
      <trkpt lat="54.29529" lon="18.61096">
        <ele>85.551753</ele>
        <time>2024-08-04T10:50:32.947Z</time>
      </trkpt>
      <trkpt lat="54.29521" lon="18.61112">
        <ele>84.85731</ele>
        <time>2024-08-04T10:50:34.955Z</time>
      </trkpt>
      <trkpt lat="54.29515" lon="18.61127">
        <ele>84.221541</ele>
        <time>2024-08-04T10:50:36.950Z</time>
      </trkpt>
      <trkpt lat="54.29508" lon="18.61146">
        <ele>83.457273</ele>
        <time>2024-08-04T10:50:38.948Z</time>
      </trkpt>
      <trkpt lat="54.29498" lon="18.61166">
        <ele>82.598069</ele>
        <time>2024-08-04T10:50:40.949Z</time>
      </trkpt>
      <trkpt lat="54.29489" lon="18.61189">
        <ele>81.647641</ele>
        <time>2024-08-04T10:50:42.959Z</time>
      </trkpt>
      <trkpt lat="54.29478" lon="18.61211">
        <ele>80.677983</ele>
        <time>2024-08-04T10:50:44.956Z</time>
      </trkpt>
      <trkpt lat="54.29467" lon="18.61234">
        <ele>79.689895</ele>
        <time>2024-08-04T10:50:46.959Z</time>
      </trkpt>
      <trkpt lat="54.29457" lon="18.61255">
        <ele>78.768867</ele>
        <time>2024-08-04T10:50:48.964Z</time>
      </trkpt>
      <trkpt lat="54.29448" lon="18.61273">
        <ele>78.210301</ele>
        <time>2024-08-04T10:50:50.965Z</time>
      </trkpt>
      <trkpt lat="54.29439" lon="18.61292">
        <ele>78.005254</ele>
        <time>2024-08-04T10:50:52.949Z</time>
      </trkpt>
      <trkpt lat="54.29431" lon="18.61311">
        <ele>77.808449</ele>
        <time>2024-08-04T10:50:54.957Z</time>
      </trkpt>
      <trkpt lat="54.29423" lon="18.61329">
        <ele>77.620186</ele>
        <time>2024-08-04T10:50:56.955Z</time>
      </trkpt>
      <trkpt lat="54.29416" lon="18.61347">
        <ele>77.443285</ele>
        <time>2024-08-04T10:50:58.950Z</time>
      </trkpt>
      <trkpt lat="54.29408" lon="18.61362">
        <ele>77.271226</ele>
        <time>2024-08-04T10:51:00.948Z</time>
      </trkpt>
      <trkpt lat="54.294" lon="18.61377">
        <ele>77.109734</ele>
        <time>2024-08-04T10:51:02.953Z</time>
      </trkpt>
      <trkpt lat="54.29393" lon="18.61391">
        <ele>76.959062</ele>
        <time>2024-08-04T10:51:04.946Z</time>
      </trkpt>
      <trkpt lat="54.29388" lon="18.61404">
        <ele>76.827295</ele>
        <time>2024-08-04T10:51:06.971Z</time>
      </trkpt>
      <trkpt lat="54.29383" lon="18.61421">
        <ele>76.667251</ele>
        <time>2024-08-04T10:51:09.962Z</time>
      </trkpt>
      <trkpt lat="54.29376" lon="18.61431">
        <ele>76.534915</ele>
        <time>2024-08-04T10:51:12.939Z</time>
      </trkpt>
      <trkpt lat="54.2937" lon="18.61444">
        <ele>76.402798</ele>
        <time>2024-08-04T10:51:15.949Z</time>
      </trkpt>
      <trkpt lat="54.29365" lon="18.61457">
        <ele>76.271031</ele>
        <time>2024-08-04T10:51:19.947Z</time>
      </trkpt>
      <trkpt lat="54.29358" lon="18.61469">
        <ele>76.134256</ele>
        <time>2024-08-04T10:51:23.958Z</time>
      </trkpt>
      <trkpt lat="54.29351" lon="18.61479">
        <ele>76.003483</ele>
        <time>2024-08-04T10:51:26.949Z</time>
      </trkpt>
      <trkpt lat="54.29344" lon="18.61491">
        <ele>75.85989</ele>
        <time>2024-08-04T10:51:29.951Z</time>
      </trkpt>
      <trkpt lat="54.29335" lon="18.61505">
        <ele>75.716245</ele>
        <time>2024-08-04T10:51:32.962Z</time>
      </trkpt>
      <trkpt lat="54.29327" lon="18.6152">
        <ele>75.629673</ele>
        <time>2024-08-04T10:51:35.957Z</time>
      </trkpt>
      <trkpt lat="54.29319" lon="18.61533">
        <ele>75.549711</ele>
        <time>2024-08-04T10:51:38.961Z</time>
      </trkpt>
      <trkpt lat="54.2931" lon="18.61546">
        <ele>75.467627</ele>
        <time>2024-08-04T10:51:41.954Z</time>
      </trkpt>
      <trkpt lat="54.29302" lon="18.61557">
        <ele>75.394688</ele>
        <time>2024-08-04T10:51:44.955Z</time>
      </trkpt>
      <trkpt lat="54.29295" lon="18.61566">
        <ele>75.329253</ele>
        <time>2024-08-04T10:51:47.945Z</time>
      </trkpt>
      <trkpt lat="54.29289" lon="18.61579">
        <ele>75.264512</ele>
        <time>2024-08-04T10:51:50.937Z</time>
      </trkpt>
      <trkpt lat="54.29292" lon="18.61594">
        <ele>75.196039</ele>
        <time>2024-08-04T10:51:54.964Z</time>
      </trkpt>
      <trkpt lat="54.29303" lon="18.61601">
        <ele>75.115772</ele>
        <time>2024-08-04T10:52:56.942Z</time>
      </trkpt>
      <trkpt lat="54.29312" lon="18.6161">
        <ele>75.04332</ele>
        <time>2024-08-04T10:53:00.938Z</time>
      </trkpt>
      <trkpt lat="54.29322" lon="18.6162">
        <ele>74.960142</ele>
        <time>2024-08-04T10:53:04.961Z</time>
      </trkpt>
      <trkpt lat="54.2933" lon="18.61626">
        <ele>74.895077</ele>
        <time>2024-08-04T10:53:07.943Z</time>
      </trkpt>
      <trkpt lat="54.29338" lon="18.61634">
        <ele>74.829007</ele>
        <time>2024-08-04T10:53:10.954Z</time>
      </trkpt>
      <trkpt lat="54.29347" lon="18.61642">
        <ele>74.761693</ele>
        <time>2024-08-04T10:53:13.943Z</time>
      </trkpt>
      <trkpt lat="54.29355" lon="18.6165">
        <ele>74.693358</ele>
        <time>2024-08-04T10:53:16.919Z</time>
      </trkpt>
      <trkpt lat="54.29362" lon="18.61659">
        <ele>74.627855</ele>
        <time>2024-08-04T10:53:19.948Z</time>
      </trkpt>
      <trkpt lat="54.2937" lon="18.61667">
        <ele>74.562404</ele>
        <time>2024-08-04T10:53:22.971Z</time>
      </trkpt>
      <trkpt lat="54.29378" lon="18.61676">
        <ele>74.495687</ele>
        <time>2024-08-04T10:53:25.947Z</time>
      </trkpt>
      <trkpt lat="54.29386" lon="18.61685">
        <ele>74.544101</ele>
        <time>2024-08-04T10:53:28.966Z</time>
      </trkpt>
      <trkpt lat="54.29394" lon="18.61695">
        <ele>74.735605</ele>
        <time>2024-08-04T10:53:31.996Z</time>
      </trkpt>
      <trkpt lat="54.29403" lon="18.61708">
        <ele>74.972701</ele>
        <time>2024-08-04T10:53:35.944Z</time>
      </trkpt>
      <trkpt lat="54.2941" lon="18.61717">
        <ele>75.151631</ele>
        <time>2024-08-04T10:53:38.955Z</time>
      </trkpt>
      <trkpt lat="54.29419" lon="18.6173">
        <ele>75.380458</ele>
        <time>2024-08-04T10:53:42.964Z</time>
      </trkpt>
      <trkpt lat="54.29427" lon="18.61742">
        <ele>75.59048</ele>
        <time>2024-08-04T10:53:46.954Z</time>
      </trkpt>
      <trkpt lat="54.29437" lon="18.61754">
        <ele>75.829222</ele>
        <time>2024-08-04T10:57:07.960Z</time>
      </trkpt>
      <trkpt lat="54.29446" lon="18.61767">
        <ele>76.055767</ele>
        <time>2024-08-04T10:57:12.947Z</time>
      </trkpt>
      <trkpt lat="54.29455" lon="18.6178">
        <ele>76.28986</ele>
        <time>2024-08-04T10:57:16.956Z</time>
      </trkpt>
      <trkpt lat="54.29464" lon="18.61792">
        <ele>76.528354</ele>
        <time>2024-08-04T10:57:20.963Z</time>
      </trkpt>
      <trkpt lat="54.29472" lon="18.61801">
        <ele>76.70787</ele>
        <time>2024-08-04T10:57:23.954Z</time>
      </trkpt>
      <trkpt lat="54.29479" lon="18.61811">
        <ele>76.893953</ele>
        <time>2024-08-04T10:57:26.966Z</time>
      </trkpt>
      <trkpt lat="54.29487" lon="18.61824">
        <ele>77.115515</ele>
        <time>2024-08-04T10:57:30.947Z</time>
      </trkpt>
      <trkpt lat="54.29496" lon="18.61837">
        <ele>77.340642</ele>
        <time>2024-08-04T10:57:34.949Z</time>
      </trkpt>
      <trkpt lat="54.29504" lon="18.6185">
        <ele>77.560385</ele>
        <time>2024-08-04T10:57:38.949Z</time>
      </trkpt>
      <trkpt lat="54.29511" lon="18.61865">
        <ele>77.78842</ele>
        <time>2024-08-04T10:57:42.963Z</time>
      </trkpt>
      <trkpt lat="54.29517" lon="18.61881">
        <ele>78.007279</ele>
        <time>2024-08-04T10:57:46.954Z</time>
      </trkpt>
      <trkpt lat="54.29524" lon="18.61896">
        <ele>77.847446</ele>
        <time>2024-08-04T10:57:50.956Z</time>
      </trkpt>
      <trkpt lat="54.2953" lon="18.6191">
        <ele>77.662786</ele>
        <time>2024-08-04T10:57:54.951Z</time>
      </trkpt>
      <trkpt lat="54.29536" lon="18.61926">
        <ele>77.470096</ele>
        <time>2024-08-04T10:57:59.957Z</time>
      </trkpt>
      <trkpt lat="54.29542" lon="18.61939">
        <ele>77.30455</ele>
        <time>2024-08-04T10:58:03.954Z</time>
      </trkpt>
      <trkpt lat="54.29548" lon="18.61953">
        <ele>77.134907</ele>
        <time>2024-08-04T10:58:07.947Z</time>
      </trkpt>
      <trkpt lat="54.29553" lon="18.6197">
        <ele>76.929758</ele>
        <time>2024-08-04T10:58:11.972Z</time>
      </trkpt>
      <trkpt lat="54.29557" lon="18.61985">
        <ele>76.765358</ele>
        <time>2024-08-04T10:58:14.965Z</time>
      </trkpt>
      <trkpt lat="54.2956" lon="18.62001">
        <ele>76.59135</ele>
        <time>2024-08-04T10:58:17.953Z</time>
      </trkpt>
      <trkpt lat="54.29562" lon="18.62017">
        <ele>76.426115</ele>
        <time>2024-08-04T10:58:20.967Z</time>
      </trkpt>
      <trkpt lat="54.29564" lon="18.62032">
        <ele>76.268849</ele>
        <time>2024-08-04T10:58:23.956Z</time>
      </trkpt>
      <trkpt lat="54.29566" lon="18.62047">
        <ele>76.111206</ele>
        <time>2024-08-04T10:58:26.961Z</time>
      </trkpt>
      <trkpt lat="54.29568" lon="18.62064">
        <ele>75.942461</ele>
        <time>2024-08-04T10:58:29.955Z</time>
      </trkpt>
      <trkpt lat="54.29568" lon="18.62081">
        <ele>75.762046</ele>
        <time>2024-08-04T10:58:32.954Z</time>
      </trkpt>
      <trkpt lat="54.29568" lon="18.62101">
        <ele>75.566376</ele>
        <time>2024-08-04T10:58:35.951Z</time>
      </trkpt>
      <trkpt lat="54.29568" lon="18.62117">
        <ele>75.397335</ele>
        <time>2024-08-04T10:58:38.960Z</time>
      </trkpt>
      <trkpt lat="54.29566" lon="18.62137">
        <ele>75.190432</ele>
        <time>2024-08-04T10:58:42.965Z</time>
      </trkpt>
      <trkpt lat="54.29565" lon="18.62153">
        <ele>75.028735</ele>
        <time>2024-08-04T10:58:45.943Z</time>
      </trkpt>
      <trkpt lat="54.29565" lon="18.6217">
        <ele>74.791843</ele>
        <time>2024-08-04T10:58:48.953Z</time>
      </trkpt>
      <trkpt lat="54.29565" lon="18.62186">
        <ele>74.297968</ele>
        <time>2024-08-04T10:58:51.963Z</time>
      </trkpt>
      <trkpt lat="54.29563" lon="18.62202">
        <ele>73.818382</ele>
        <time>2024-08-04T10:58:54.968Z</time>
      </trkpt>
      <trkpt lat="54.29563" lon="18.62222">
        <ele>73.207143</ele>
        <time>2024-08-04T10:58:58.958Z</time>
      </trkpt>
      <trkpt lat="54.29561" lon="18.62239">
        <ele>72.659306</ele>
        <time>2024-08-04T10:59:02.928Z</time>
      </trkpt>
      <trkpt lat="54.29558" lon="18.62258">
        <ele>72.063261</ele>
        <time>2024-08-04T10:59:06.948Z</time>
      </trkpt>
      <trkpt lat="54.29555" lon="18.62277">
        <ele>71.458163</ele>
        <time>2024-08-04T10:59:10.959Z</time>
      </trkpt>
      <trkpt lat="54.2955" lon="18.62293">
        <ele>70.916802</ele>
        <time>2024-08-04T10:59:14.946Z</time>
      </trkpt>
      <trkpt lat="54.29545" lon="18.62307">
        <ele>70.39514</ele>
        <time>2024-08-04T10:59:18.961Z</time>
      </trkpt>
      <trkpt lat="54.29542" lon="18.62325">
        <ele>69.824143</ele>
        <time>2024-08-04T10:59:23.962Z</time>
      </trkpt>
      <trkpt lat="54.29536" lon="18.62344">
        <ele>69.180455</ele>
        <time>2024-08-04T10:59:27.955Z</time>
      </trkpt>
      <trkpt lat="54.29531" lon="18.62364">
        <ele>68.488688</ele>
        <time>2024-08-04T10:59:30.951Z</time>
      </trkpt>
      <trkpt lat="54.29527" lon="18.62381">
        <ele>67.951469</ele>
        <time>2024-08-04T10:59:32.954Z</time>
      </trkpt>
      <trkpt lat="54.29525" lon="18.62399">
        <ele>67.372521</ele>
        <time>2024-08-04T10:59:34.957Z</time>
      </trkpt>
      <trkpt lat="54.29525" lon="18.62419">
        <ele>66.767945</ele>
        <time>2024-08-04T10:59:36.959Z</time>
      </trkpt>
      <trkpt lat="54.29526" lon="18.62439">
        <ele>66.138401</ele>
        <time>2024-08-04T10:59:38.949Z</time>
      </trkpt>
      <trkpt lat="54.2953" lon="18.62459">
        <ele>65.493764</ele>
        <time>2024-08-04T10:59:40.962Z</time>
      </trkpt>
      <trkpt lat="54.29534" lon="18.62479">
        <ele>65.060278</ele>
        <time>2024-08-04T10:59:42.945Z</time>
      </trkpt>
      <trkpt lat="54.29538" lon="18.62498">
        <ele>64.649956</ele>
        <time>2024-08-04T10:59:44.946Z</time>
      </trkpt>
      <trkpt lat="54.29543" lon="18.62521">
        <ele>64.175402</ele>
        <time>2024-08-04T10:59:46.958Z</time>
      </trkpt>
      <trkpt lat="54.29547" lon="18.62547">
        <ele>63.640442</ele>
        <time>2024-08-04T10:59:48.941Z</time>
      </trkpt>
      <trkpt lat="54.29551" lon="18.62576">
        <ele>63.061548</ele>
        <time>2024-08-04T10:59:50.960Z</time>
      </trkpt>
      <trkpt lat="54.29554" lon="18.62607">
        <ele>62.435272</ele>
        <time>2024-08-04T10:59:52.961Z</time>
      </trkpt>
      <trkpt lat="54.29555" lon="18.62624">
        <ele>62.097951</ele>
        <time>2024-08-04T10:59:53.956Z</time>
      </trkpt>
      <trkpt lat="54.29556" lon="18.62641">
        <ele>61.754725</ele>
        <time>2024-08-04T10:59:54.960Z</time>
      </trkpt>
      <trkpt lat="54.29556" lon="18.62659">
        <ele>61.413753</ele>
        <time>2024-08-04T10:59:55.943Z</time>
      </trkpt>
      <trkpt lat="54.29558" lon="18.62676">
        <ele>61.0734</ele>
        <time>2024-08-04T10:59:56.965Z</time>
      </trkpt>
      <trkpt lat="54.29559" lon="18.62692">
        <ele>60.750664</ele>
        <time>2024-08-04T10:59:57.943Z</time>
      </trkpt>
      <trkpt lat="54.29561" lon="18.62707">
        <ele>60.446575</ele>
        <time>2024-08-04T10:59:58.967Z</time>
      </trkpt>
      <trkpt lat="54.29564" lon="18.62735">
        <ele>59.874645</ele>
        <time>2024-08-04T11:00:00.947Z</time>
      </trkpt>
      <trkpt lat="54.2957" lon="18.6276">
        <ele>59.34717</ele>
        <time>2024-08-04T11:00:02.949Z</time>
      </trkpt>
      <trkpt lat="54.29577" lon="18.62783">
        <ele>58.715336</ele>
        <time>2024-08-04T11:00:04.940Z</time>
      </trkpt>
      <trkpt lat="54.29584" lon="18.62803">
        <ele>58.116331</ele>
        <time>2024-08-04T11:00:06.946Z</time>
      </trkpt>
      <trkpt lat="54.29592" lon="18.62822">
        <ele>57.523691</ele>
        <time>2024-08-04T11:00:08.930Z</time>
      </trkpt>
      <trkpt lat="54.296" lon="18.62842">
        <ele>56.909448</ele>
        <time>2024-08-04T11:00:10.945Z</time>
      </trkpt>
      <trkpt lat="54.2961" lon="18.62864">
        <ele>56.252943</ele>
        <time>2024-08-04T11:00:12.950Z</time>
      </trkpt>
      <trkpt lat="54.2962" lon="18.62885">
        <ele>55.576811</ele>
        <time>2024-08-04T11:00:14.947Z</time>
      </trkpt>
      <trkpt lat="54.29629" lon="18.62908">
        <ele>54.860803</ele>
        <time>2024-08-04T11:00:16.946Z</time>
      </trkpt>
      <trkpt lat="54.29639" lon="18.62931">
        <ele>54.153372</ele>
        <time>2024-08-04T11:00:18.956Z</time>
      </trkpt>
      <trkpt lat="54.2965" lon="18.62955">
        <ele>53.399956</ele>
        <time>2024-08-04T11:00:20.951Z</time>
      </trkpt>
      <trkpt lat="54.29655" lon="18.62968">
        <ele>53.014523</ele>
        <time>2024-08-04T11:00:21.955Z</time>
      </trkpt>
      <trkpt lat="54.29665" lon="18.62993">
        <ele>52.242106</ele>
        <time>2024-08-04T11:00:23.948Z</time>
      </trkpt>
      <trkpt lat="54.29671" lon="18.63006">
        <ele>51.832989</ele>
        <time>2024-08-04T11:00:24.951Z</time>
      </trkpt>
      <trkpt lat="54.29676" lon="18.63019">
        <ele>51.308376</ele>
        <time>2024-08-04T11:00:25.955Z</time>
      </trkpt>
      <trkpt lat="54.29682" lon="18.63033">
        <ele>50.678438</ele>
        <time>2024-08-04T11:00:26.944Z</time>
      </trkpt>
      <trkpt lat="54.29688" lon="18.63047">
        <ele>50.042346</ele>
        <time>2024-08-04T11:00:27.967Z</time>
      </trkpt>
      <trkpt lat="54.29694" lon="18.63061">
        <ele>49.39326</ele>
        <time>2024-08-04T11:00:28.953Z</time>
      </trkpt>
      <trkpt lat="54.29699" lon="18.63075">
        <ele>48.744175</ele>
        <time>2024-08-04T11:00:29.940Z</time>
      </trkpt>
      <trkpt lat="54.29706" lon="18.63089">
        <ele>48.077084</ele>
        <time>2024-08-04T11:00:30.942Z</time>
      </trkpt>
      <trkpt lat="54.29712" lon="18.63103">
        <ele>47.416059</ele>
        <time>2024-08-04T11:00:31.944Z</time>
      </trkpt>
      <trkpt lat="54.29717" lon="18.63117">
        <ele>46.783037</ele>
        <time>2024-08-04T11:00:32.935Z</time>
      </trkpt>
      <trkpt lat="54.29723" lon="18.63131">
        <ele>46.159258</ele>
        <time>2024-08-04T11:00:33.957Z</time>
      </trkpt>
      <trkpt lat="54.29729" lon="18.63144">
        <ele>45.531718</ele>
        <time>2024-08-04T11:00:34.949Z</time>
      </trkpt>
      <trkpt lat="54.29734" lon="18.63157">
        <ele>44.938235</ele>
        <time>2024-08-04T11:00:35.948Z</time>
      </trkpt>
      <trkpt lat="54.2974" lon="18.63169">
        <ele>44.347736</ele>
        <time>2024-08-04T11:00:36.938Z</time>
      </trkpt>
      <trkpt lat="54.29751" lon="18.63192">
        <ele>43.198483</ele>
        <time>2024-08-04T11:00:38.937Z</time>
      </trkpt>
      <trkpt lat="54.29759" lon="18.63201">
        <ele>42.618191</ele>
        <time>2024-08-04T11:00:39.939Z</time>
      </trkpt>
      <trkpt lat="54.29775" lon="18.63207">
        <ele>41.576195</ele>
        <time>2024-08-04T11:00:41.944Z</time>
      </trkpt>
      <trkpt lat="54.29788" lon="18.63201">
        <ele>40.668985</ele>
        <time>2024-08-04T11:00:43.945Z</time>
      </trkpt>
      <trkpt lat="54.298" lon="18.63196">
        <ele>40.060618</ele>
        <time>2024-08-04T11:00:45.939Z</time>
      </trkpt>
      <trkpt lat="54.2981" lon="18.63194">
        <ele>40.098093</ele>
        <time>2024-08-04T11:00:48.920Z</time>
      </trkpt>
      <trkpt lat="54.29819" lon="18.63205">
        <ele>40.14143</ele>
        <time>2024-08-04T11:01:05.945Z</time>
      </trkpt>
      <trkpt lat="54.29827" lon="18.63216">
        <ele>40.182104</ele>
        <time>2024-08-04T11:01:09.943Z</time>
      </trkpt>
      <trkpt lat="54.29836" lon="18.6321">
        <ele>40.217526</ele>
        <time>2024-08-04T11:01:12.941Z</time>
      </trkpt>
      <trkpt lat="54.29846" lon="18.63202">
        <ele>40.259571</ele>
        <time>2024-08-04T11:01:15.952Z</time>
      </trkpt>
      <trkpt lat="54.29857" lon="18.63194">
        <ele>40.30588</ele>
        <time>2024-08-04T11:01:18.945Z</time>
      </trkpt>
      <trkpt lat="54.29869" lon="18.63185">
        <ele>40.354756</ele>
        <time>2024-08-04T11:01:22.003Z</time>
      </trkpt>
      <trkpt lat="54.29881" lon="18.63177">
        <ele>40.404747</ele>
        <time>2024-08-04T11:01:24.942Z</time>
      </trkpt>
      <trkpt lat="54.2989" lon="18.63173">
        <ele>40.440424</ele>
        <time>2024-08-04T11:01:26.946Z</time>
      </trkpt>
      <trkpt lat="54.29899" lon="18.63168">
        <ele>40.477199</ele>
        <time>2024-08-04T11:01:28.966Z</time>
      </trkpt>
      <trkpt lat="54.29909" lon="18.63165">
        <ele>40.515266</ele>
        <time>2024-08-04T11:01:30.951Z</time>
      </trkpt>
      <trkpt lat="54.29919" lon="18.63162">
        <ele>40.554164</ele>
        <time>2024-08-04T11:01:32.947Z</time>
      </trkpt>
      <trkpt lat="54.29929" lon="18.6316">
        <ele>40.592336</ele>
        <time>2024-08-04T11:01:34.961Z</time>
      </trkpt>
      <trkpt lat="54.29939" lon="18.63158">
        <ele>40.632329</ele>
        <time>2024-08-04T11:01:36.957Z</time>
      </trkpt>
      <trkpt lat="54.2995" lon="18.63155">
        <ele>40.672278</ele>
        <time>2024-08-04T11:01:38.960Z</time>
      </trkpt>
      <trkpt lat="54.2996" lon="18.63152">
        <ele>40.712266</ele>
        <time>2024-08-04T11:01:40.952Z</time>
      </trkpt>
      <trkpt lat="54.2997" lon="18.63149">
        <ele>40.714607</ele>
        <time>2024-08-04T11:01:42.953Z</time>
      </trkpt>
      <trkpt lat="54.2998" lon="18.63145">
        <ele>40.649308</ele>
        <time>2024-08-04T11:01:44.952Z</time>
      </trkpt>
      <trkpt lat="54.2999" lon="18.63142">
        <ele>40.58388</ele>
        <time>2024-08-04T11:01:46.964Z</time>
      </trkpt>
      <trkpt lat="54.3" lon="18.63139">
        <ele>40.520271</ele>
        <time>2024-08-04T11:01:48.950Z</time>
      </trkpt>
      <trkpt lat="54.3001" lon="18.63136">
        <ele>40.459373</ele>
        <time>2024-08-04T11:01:50.951Z</time>
      </trkpt>
      <trkpt lat="54.30019" lon="18.63134">
        <ele>40.397501</ele>
        <time>2024-08-04T11:01:52.966Z</time>
      </trkpt>
      <trkpt lat="54.30029" lon="18.63133">
        <ele>40.336035</ele>
        <time>2024-08-04T11:01:54.947Z</time>
      </trkpt>
      <trkpt lat="54.30038" lon="18.6313">
        <ele>40.275318</ele>
        <time>2024-08-04T11:01:56.965Z</time>
      </trkpt>
      <trkpt lat="54.30047" lon="18.63128">
        <ele>40.215974</ele>
        <time>2024-08-04T11:01:58.957Z</time>
      </trkpt>
      <trkpt lat="54.30057" lon="18.63126">
        <ele>40.15695</ele>
        <time>2024-08-04T11:02:00.938Z</time>
      </trkpt>
      <trkpt lat="54.30066" lon="18.63122">
        <ele>40.092027</ele>
        <time>2024-08-04T11:02:02.960Z</time>
      </trkpt>
      <trkpt lat="54.30076" lon="18.63119">
        <ele>40.028756</ele>
        <time>2024-08-04T11:02:04.951Z</time>
      </trkpt>
      <trkpt lat="54.30086" lon="18.63117">
        <ele>39.963942</ele>
        <time>2024-08-04T11:02:06.951Z</time>
      </trkpt>
      <trkpt lat="54.30096" lon="18.63116">
        <ele>39.89873</ele>
        <time>2024-08-04T11:02:08.960Z</time>
      </trkpt>
      <trkpt lat="54.30106" lon="18.63115">
        <ele>39.835991</ele>
        <time>2024-08-04T11:02:10.957Z</time>
      </trkpt>
      <trkpt lat="54.30116" lon="18.63113">
        <ele>39.776294</ele>
        <time>2024-08-04T11:02:12.946Z</time>
      </trkpt>
      <trkpt lat="54.30125" lon="18.63113">
        <ele>39.717529</ele>
        <time>2024-08-04T11:02:14.947Z</time>
      </trkpt>
      <trkpt lat="54.30134" lon="18.63111">
        <ele>39.658576</ele>
        <time>2024-08-04T11:02:16.964Z</time>
      </trkpt>
      <trkpt lat="54.30147" lon="18.63109">
        <ele>39.524798</ele>
        <time>2024-08-04T11:02:19.944Z</time>
      </trkpt>
      <trkpt lat="54.30159" lon="18.63107">
        <ele>39.180221</ele>
        <time>2024-08-04T11:02:22.954Z</time>
      </trkpt>
      <trkpt lat="54.30169" lon="18.63105">
        <ele>38.878313</ele>
        <time>2024-08-04T11:02:25.947Z</time>
      </trkpt>
      <trkpt lat="54.30179" lon="18.63103">
        <ele>38.593715</ele>
        <time>2024-08-04T11:02:28.950Z</time>
      </trkpt>
      <trkpt lat="54.30188" lon="18.631">
        <ele>38.331391</ele>
        <time>2024-08-04T11:02:31.990Z</time>
      </trkpt>
      <trkpt lat="54.30196" lon="18.63098">
        <ele>38.069337</ele>
        <time>2024-08-04T11:02:34.945Z</time>
      </trkpt>
      <trkpt lat="54.3021" lon="18.63094">
        <ele>37.661957</ele>
        <time>2024-08-04T11:02:58.976Z</time>
      </trkpt>
      <trkpt lat="54.3022" lon="18.63091">
        <ele>37.378992</ele>
        <time>2024-08-04T11:03:02.957Z</time>
      </trkpt>
      <trkpt lat="54.3023" lon="18.63095">
        <ele>37.073466</ele>
        <time>2024-08-04T11:03:07.971Z</time>
      </trkpt>
      <trkpt lat="54.30239" lon="18.63094">
        <ele>36.80192</ele>
        <time>2024-08-04T11:03:11.946Z</time>
      </trkpt>
      <trkpt lat="54.3025" lon="18.63095">
        <ele>36.501389</ele>
        <time>2024-08-04T11:03:25.937Z</time>
      </trkpt>
      <trkpt lat="54.30259" lon="18.63092">
        <ele>36.23185</ele>
        <time>2024-08-04T11:03:29.939Z</time>
      </trkpt>
      <trkpt lat="54.30268" lon="18.63089">
        <ele>35.963787</ele>
        <time>2024-08-04T11:03:33.947Z</time>
      </trkpt>
      <trkpt lat="54.30273" lon="18.63106">
        <ele>35.645021</ele>
        <time>2024-08-04T11:03:46.949Z</time>
      </trkpt>
      <trkpt lat="54.30264" lon="18.63111">
        <ele>35.38224</ele>
        <time>2024-08-04T11:03:50.936Z</time>
      </trkpt>
      <trkpt lat="54.30253" lon="18.63114">
        <ele>35.050384</ele>
        <time>2024-08-04T11:03:54.948Z</time>
      </trkpt>
      <trkpt lat="54.30242" lon="18.63117">
        <ele>34.717787</ele>
        <time>2024-08-04T11:03:58.956Z</time>
      </trkpt>
      <trkpt lat="54.30233" lon="18.63124">
        <ele>34.453557</ele>
        <time>2024-08-04T11:04:03.932Z</time>
      </trkpt>
      <trkpt lat="54.30233" lon="18.63141">
        <ele>34.257777</ele>
        <time>2024-08-04T11:04:07.953Z</time>
      </trkpt>
      <trkpt lat="54.30231" lon="18.63161">
        <ele>34.079919</ele>
        <time>2024-08-04T11:04:11.946Z</time>
      </trkpt>
      <trkpt lat="54.3023" lon="18.63177">
        <ele>33.933035</ele>
        <time>2024-08-04T11:04:14.946Z</time>
      </trkpt>
      <trkpt lat="54.3023" lon="18.63194">
        <ele>33.789035</ele>
        <time>2024-08-04T11:04:17.947Z</time>
      </trkpt>
      <trkpt lat="54.30228" lon="18.63213">
        <ele>33.615964</ele>
        <time>2024-08-04T11:04:21.960Z</time>
      </trkpt>
      <trkpt lat="54.30226" lon="18.63228">
        <ele>33.477986</ele>
        <time>2024-08-04T11:04:24.932Z</time>
      </trkpt>
      <trkpt lat="54.30227" lon="18.63247">
        <ele>33.306442</ele>
        <time>2024-08-04T11:04:27.940Z</time>
      </trkpt>
      <trkpt lat="54.3023" lon="18.63267">
        <ele>33.12935</ele>
        <time>2024-08-04T11:04:30.951Z</time>
      </trkpt>
      <trkpt lat="54.30232" lon="18.63283">
        <ele>32.989244</ele>
        <time>2024-08-04T11:04:32.944Z</time>
      </trkpt>
      <trkpt lat="54.30233" lon="18.63299">
        <ele>32.843357</ele>
        <time>2024-08-04T11:04:34.967Z</time>
      </trkpt>
      <trkpt lat="54.30235" lon="18.63315">
        <ele>32.699205</ele>
        <time>2024-08-04T11:04:36.950Z</time>
      </trkpt>
      <trkpt lat="54.30237" lon="18.63332">
        <ele>32.544107</ele>
        <time>2024-08-04T11:04:38.956Z</time>
      </trkpt>
      <trkpt lat="54.30239" lon="18.6335">
        <ele>32.384971</ele>
        <time>2024-08-04T11:04:40.964Z</time>
      </trkpt>
      <trkpt lat="54.30241" lon="18.63368">
        <ele>32.22065</ele>
        <time>2024-08-04T11:04:42.950Z</time>
      </trkpt>
      <trkpt lat="54.30244" lon="18.63387">
        <ele>32.049048</ele>
        <time>2024-08-04T11:04:44.942Z</time>
      </trkpt>
      <trkpt lat="54.30246" lon="18.63406">
        <ele>31.878948</ele>
        <time>2024-08-04T11:04:46.952Z</time>
      </trkpt>
      <trkpt lat="54.30248" lon="18.63426">
        <ele>31.705108</ele>
        <time>2024-08-04T11:04:48.960Z</time>
      </trkpt>
      <trkpt lat="54.3025" lon="18.63444">
        <ele>31.592626</ele>
        <time>2024-08-04T11:04:50.951Z</time>
      </trkpt>
      <trkpt lat="54.30253" lon="18.63462">
        <ele>31.515338</ele>
        <time>2024-08-04T11:04:52.957Z</time>
      </trkpt>
      <trkpt lat="54.30255" lon="18.63478">
        <ele>31.44472</ele>
        <time>2024-08-04T11:04:54.958Z</time>
      </trkpt>
      <trkpt lat="54.30257" lon="18.63494">
        <ele>31.377562</ele>
        <time>2024-08-04T11:04:56.933Z</time>
      </trkpt>
      <trkpt lat="54.30259" lon="18.63515">
        <ele>31.284385</ele>
        <time>2024-08-04T11:04:59.954Z</time>
      </trkpt>
      <trkpt lat="54.30261" lon="18.63535">
        <ele>31.199077</ele>
        <time>2024-08-04T11:05:02.960Z</time>
      </trkpt>
      <trkpt lat="54.30263" lon="18.63554">
        <ele>31.117814</ele>
        <time>2024-08-04T11:05:05.954Z</time>
      </trkpt>
      <trkpt lat="54.30265" lon="18.6357">
        <ele>31.047349</ele>
        <time>2024-08-04T11:05:08.958Z</time>
      </trkpt>
      <trkpt lat="54.30267" lon="18.63589">
        <ele>30.969672</ele>
        <time>2024-08-04T11:05:12.007Z</time>
      </trkpt>
      <trkpt lat="54.3027" lon="18.6361">
        <ele>30.876478</ele>
        <time>2024-08-04T11:05:14.951Z</time>
      </trkpt>
      <trkpt lat="54.30271" lon="18.63626">
        <ele>30.809341</ele>
        <time>2024-08-04T11:05:16.955Z</time>
      </trkpt>
      <trkpt lat="54.30273" lon="18.63643">
        <ele>30.735699</ele>
        <time>2024-08-04T11:05:18.950Z</time>
      </trkpt>
      <trkpt lat="54.30275" lon="18.63661">
        <ele>30.657898</ele>
        <time>2024-08-04T11:05:20.969Z</time>
      </trkpt>
      <trkpt lat="54.30278" lon="18.63679">
        <ele>30.576984</ele>
        <time>2024-08-04T11:05:22.960Z</time>
      </trkpt>
      <trkpt lat="54.3028" lon="18.63699">
        <ele>30.494343</ele>
        <time>2024-08-04T11:05:24.952Z</time>
      </trkpt>
      <trkpt lat="54.30282" lon="18.63716">
        <ele>30.41876</ele>
        <time>2024-08-04T11:05:26.964Z</time>
      </trkpt>
      <trkpt lat="54.30284" lon="18.63733">
        <ele>30.344522</ele>
        <time>2024-08-04T11:05:28.950Z</time>
      </trkpt>
      <trkpt lat="54.30286" lon="18.63749">
        <ele>30.285686</ele>
        <time>2024-08-04T11:05:30.957Z</time>
      </trkpt>
      <trkpt lat="54.30288" lon="18.63765">
        <ele>30.224671</ele>
        <time>2024-08-04T11:05:32.955Z</time>
      </trkpt>
      <trkpt lat="54.3029" lon="18.63781">
        <ele>30.165603</ele>
        <time>2024-08-04T11:05:34.952Z</time>
      </trkpt>
      <trkpt lat="54.30292" lon="18.63797">
        <ele>30.106149</ele>
        <time>2024-08-04T11:05:36.965Z</time>
      </trkpt>
      <trkpt lat="54.30295" lon="18.63819">
        <ele>30.02416</ele>
        <time>2024-08-04T11:05:39.954Z</time>
      </trkpt>
      <trkpt lat="54.30297" lon="18.63841">
        <ele>29.943135</ele>
        <time>2024-08-04T11:05:42.971Z</time>
      </trkpt>
      <trkpt lat="54.303" lon="18.63862">
        <ele>29.864487</ele>
        <time>2024-08-04T11:05:45.951Z</time>
      </trkpt>
      <trkpt lat="54.30303" lon="18.63882">
        <ele>29.790896</ele>
        <time>2024-08-04T11:05:48.964Z</time>
      </trkpt>
      <trkpt lat="54.30305" lon="18.63903">
        <ele>29.712374</ele>
        <time>2024-08-04T11:05:51.990Z</time>
      </trkpt>
      <trkpt lat="54.3031" lon="18.63922">
        <ele>29.637354</ele>
        <time>2024-08-04T11:05:54.951Z</time>
      </trkpt>
      <trkpt lat="54.30314" lon="18.63938">
        <ele>29.571591</ele>
        <time>2024-08-04T11:05:57.960Z</time>
      </trkpt>
      <trkpt lat="54.30316" lon="18.63955">
        <ele>29.508939</ele>
        <time>2024-08-04T11:06:00.944Z</time>
      </trkpt>
      <trkpt lat="54.30318" lon="18.6397">
        <ele>29.451534</ele>
        <time>2024-08-04T11:06:03.952Z</time>
      </trkpt>
      <trkpt lat="54.3032" lon="18.6399">
        <ele>29.37979</ele>
        <time>2024-08-04T11:06:07.957Z</time>
      </trkpt>
      <trkpt lat="54.30322" lon="18.64008">
        <ele>29.30925</ele>
        <time>2024-08-04T11:06:11.947Z</time>
      </trkpt>
      <trkpt lat="54.30325" lon="18.64028">
        <ele>29.237283</ele>
        <time>2024-08-04T11:06:15.956Z</time>
      </trkpt>
      <trkpt lat="54.30328" lon="18.64047">
        <ele>29.149155</ele>
        <time>2024-08-04T11:06:19.945Z</time>
      </trkpt>
      <trkpt lat="54.3033" lon="18.64064">
        <ele>29.070417</ele>
        <time>2024-08-04T11:06:22.949Z</time>
      </trkpt>
      <trkpt lat="54.30332" lon="18.64081">
        <ele>28.991923</ele>
        <time>2024-08-04T11:06:25.958Z</time>
      </trkpt>
      <trkpt lat="54.30334" lon="18.64097">
        <ele>28.91708</ele>
        <time>2024-08-04T11:06:28.959Z</time>
      </trkpt>
      <trkpt lat="54.30336" lon="18.64113">
        <ele>28.839985</ele>
        <time>2024-08-04T11:06:31.968Z</time>
      </trkpt>
      <trkpt lat="54.30339" lon="18.64132">
        <ele>28.749076</ele>
        <time>2024-08-04T11:06:35.962Z</time>
      </trkpt>
      <trkpt lat="54.30341" lon="18.64151">
        <ele>28.657494</ele>
        <time>2024-08-04T11:06:39.949Z</time>
      </trkpt>
      <trkpt lat="54.30344" lon="18.64168">
        <ele>28.577687</ele>
        <time>2024-08-04T11:06:42.947Z</time>
      </trkpt>
      <trkpt lat="54.30346" lon="18.64187">
        <ele>28.488453</ele>
        <time>2024-08-04T11:06:45.969Z</time>
      </trkpt>
      <trkpt lat="54.30348" lon="18.64204">
        <ele>28.409502</ele>
        <time>2024-08-04T11:06:48.947Z</time>
      </trkpt>
      <trkpt lat="54.3035" lon="18.64219">
        <ele>28.337359</ele>
        <time>2024-08-04T11:06:51.992Z</time>
      </trkpt>
      <trkpt lat="54.30352" lon="18.64237">
        <ele>28.25325</ele>
        <time>2024-08-04T11:06:55.952Z</time>
      </trkpt>
      <trkpt lat="54.30355" lon="18.64252">
        <ele>28.18186</ele>
        <time>2024-08-04T11:06:58.954Z</time>
      </trkpt>
      <trkpt lat="54.30357" lon="18.64268">
        <ele>28.10268</ele>
        <time>2024-08-04T11:07:01.970Z</time>
      </trkpt>
      <trkpt lat="54.3036" lon="18.64284">
        <ele>28.025677</ele>
        <time>2024-08-04T11:07:04.950Z</time>
      </trkpt>
      <trkpt lat="54.30362" lon="18.643">
        <ele>27.950266</ele>
        <time>2024-08-04T11:07:07.968Z</time>
      </trkpt>
      <trkpt lat="54.30364" lon="18.64321">
        <ele>27.854152</ele>
        <time>2024-08-04T11:07:11.951Z</time>
      </trkpt>
      <trkpt lat="54.30366" lon="18.64338">
        <ele>27.800589</ele>
        <time>2024-08-04T11:07:14.976Z</time>
      </trkpt>
      <trkpt lat="54.30368" lon="18.64354">
        <ele>27.849498</ele>
        <time>2024-08-04T11:07:18.007Z</time>
      </trkpt>
      <trkpt lat="54.3037" lon="18.64369">
        <ele>27.896849</ele>
        <time>2024-08-04T11:07:20.937Z</time>
      </trkpt>
      <trkpt lat="54.30372" lon="18.64386">
        <ele>27.947803</ele>
        <time>2024-08-04T11:07:23.949Z</time>
      </trkpt>
      <trkpt lat="54.30375" lon="18.64402">
        <ele>27.997899</ele>
        <time>2024-08-04T11:07:26.968Z</time>
      </trkpt>
      <trkpt lat="54.30377" lon="18.64419">
        <ele>28.049586</ele>
        <time>2024-08-04T11:07:29.954Z</time>
      </trkpt>
      <trkpt lat="54.30379" lon="18.64436">
        <ele>28.100609</ele>
        <time>2024-08-04T11:07:32.961Z</time>
      </trkpt>
      <trkpt lat="54.30382" lon="18.64452">
        <ele>28.151128</ele>
        <time>2024-08-04T11:07:35.950Z</time>
      </trkpt>
      <trkpt lat="54.30385" lon="18.64469">
        <ele>28.202286</ele>
        <time>2024-08-04T11:07:38.958Z</time>
      </trkpt>
      <trkpt lat="54.30386" lon="18.64485">
        <ele>28.24953</ele>
        <time>2024-08-04T11:07:41.975Z</time>
      </trkpt>
      <trkpt lat="54.30388" lon="18.64501">
        <ele>28.300071</ele>
        <time>2024-08-04T11:07:44.935Z</time>
      </trkpt>
      <trkpt lat="54.30391" lon="18.64517">
        <ele>28.347772</ele>
        <time>2024-08-04T11:07:47.952Z</time>
      </trkpt>
      <trkpt lat="54.30393" lon="18.64532">
        <ele>28.394368</ele>
        <time>2024-08-04T11:07:50.954Z</time>
      </trkpt>
      <trkpt lat="54.30395" lon="18.64548">
        <ele>28.441541</ele>
        <time>2024-08-04T11:07:53.957Z</time>
      </trkpt>
      <trkpt lat="54.30397" lon="18.64564">
        <ele>28.489871</ele>
        <time>2024-08-04T11:07:56.962Z</time>
      </trkpt>
      <trkpt lat="54.30399" lon="18.64581">
        <ele>28.543127</ele>
        <time>2024-08-04T11:07:59.934Z</time>
      </trkpt>
      <trkpt lat="54.30401" lon="18.64598">
        <ele>28.594552</ele>
        <time>2024-08-04T11:08:02.963Z</time>
      </trkpt>
      <trkpt lat="54.30403" lon="18.64614">
        <ele>28.64337</ele>
        <time>2024-08-04T11:08:05.955Z</time>
      </trkpt>
      <trkpt lat="54.30407" lon="18.64629">
        <ele>28.691172</ele>
        <time>2024-08-04T11:08:08.944Z</time>
      </trkpt>
      <trkpt lat="54.3041" lon="18.64645">
        <ele>28.765651</ele>
        <time>2024-08-04T11:08:11.999Z</time>
      </trkpt>
      <trkpt lat="54.30414" lon="18.6466">
        <ele>28.85153</ele>
        <time>2024-08-04T11:08:14.962Z</time>
      </trkpt>
      <trkpt lat="54.30418" lon="18.64675">
        <ele>28.937155</ele>
        <time>2024-08-04T11:08:17.958Z</time>
      </trkpt>
      <trkpt lat="54.30422" lon="18.6469">
        <ele>29.022202</ele>
        <time>2024-08-04T11:08:20.972Z</time>
      </trkpt>
      <trkpt lat="54.30428" lon="18.64703">
        <ele>29.103623</ele>
        <time>2024-08-04T11:08:23.945Z</time>
      </trkpt>
      <trkpt lat="54.30432" lon="18.64718">
        <ele>29.189036</ele>
        <time>2024-08-04T11:08:26.976Z</time>
      </trkpt>
      <trkpt lat="54.30433" lon="18.64735">
        <ele>29.275045</ele>
        <time>2024-08-04T11:08:29.952Z</time>
      </trkpt>
      <trkpt lat="54.30435" lon="18.6475">
        <ele>29.35702</ele>
        <time>2024-08-04T11:08:32.944Z</time>
      </trkpt>
      <trkpt lat="54.30438" lon="18.64766">
        <ele>29.440283</ele>
        <time>2024-08-04T11:08:35.953Z</time>
      </trkpt>
      <trkpt lat="54.30441" lon="18.64782">
        <ele>29.525716</ele>
        <time>2024-08-04T11:08:38.963Z</time>
      </trkpt>
      <trkpt lat="54.30444" lon="18.64799">
        <ele>29.616548</ele>
        <time>2024-08-04T11:08:41.948Z</time>
      </trkpt>
      <trkpt lat="54.30448" lon="18.64818">
        <ele>29.72449</ele>
        <time>2024-08-04T11:08:44.952Z</time>
      </trkpt>
      <trkpt lat="54.30452" lon="18.6484">
        <ele>29.839885</ele>
        <time>2024-08-04T11:08:47.960Z</time>
      </trkpt>
      <trkpt lat="54.30456" lon="18.64861">
        <ele>29.953133</ele>
        <time>2024-08-04T11:08:50.964Z</time>
      </trkpt>
      <trkpt lat="54.3046" lon="18.64882">
        <ele>30.066496</ele>
        <time>2024-08-04T11:08:53.953Z</time>
      </trkpt>
      <trkpt lat="54.30465" lon="18.64901">
        <ele>30.175151</ele>
        <time>2024-08-04T11:08:56.966Z</time>
      </trkpt>
      <trkpt lat="54.30471" lon="18.64917">
        <ele>30.273168</ele>
        <time>2024-08-04T11:08:59.952Z</time>
      </trkpt>
      <trkpt lat="54.30479" lon="18.64931">
        <ele>30.374719</ele>
        <time>2024-08-04T11:09:02.961Z</time>
      </trkpt>
      <trkpt lat="54.30485" lon="18.64942">
        <ele>30.463139</ele>
        <time>2024-08-04T11:09:05.969Z</time>
      </trkpt>
      <trkpt lat="54.30495" lon="18.64955">
        <ele>30.573636</ele>
        <time>2024-08-04T11:09:09.942Z</time>
      </trkpt>
      <trkpt lat="54.30502" lon="18.64964">
        <ele>30.658893</ele>
        <time>2024-08-04T11:09:13.967Z</time>
      </trkpt>
      <trkpt lat="54.30503" lon="18.64981">
        <ele>30.750314</ele>
        <time>2024-08-04T11:09:31.928Z</time>
      </trkpt>
      <trkpt lat="54.30497" lon="18.64995">
        <ele>30.847292</ele>
        <time>2024-08-04T11:09:36.953Z</time>
      </trkpt>
      <trkpt lat="54.30491" lon="18.65009">
        <ele>30.945957</ele>
        <time>2024-08-04T11:09:41.963Z</time>
      </trkpt>
      <trkpt lat="54.30482" lon="18.65019">
        <ele>31.044626</ele>
        <time>2024-08-04T11:10:22.008Z</time>
      </trkpt>
      <trkpt lat="54.30474" lon="18.65029">
        <ele>31.136776</ele>
        <time>2024-08-04T11:10:24.938Z</time>
      </trkpt>
      <trkpt lat="54.30467" lon="18.65039">
        <ele>31.221583</ele>
        <time>2024-08-04T11:10:27.940Z</time>
      </trkpt>
      <trkpt lat="54.30458" lon="18.65052">
        <ele>31.335232</ele>
        <time>2024-08-04T11:10:31.960Z</time>
      </trkpt>
      <trkpt lat="54.30451" lon="18.65061">
        <ele>31.420489</ele>
        <time>2024-08-04T11:10:34.952Z</time>
      </trkpt>
      <trkpt lat="54.30442" lon="18.65073">
        <ele>31.521835</ele>
        <time>2024-08-04T11:10:38.951Z</time>
      </trkpt>
      <trkpt lat="54.30439" lon="18.65087">
        <ele>31.607923</ele>
        <time>2024-08-04T11:10:42.953Z</time>
      </trkpt>
      <trkpt lat="54.30446" lon="18.65104">
        <ele>31.721161</ele>
        <time>2024-08-04T11:10:46.976Z</time>
      </trkpt>
      <trkpt lat="54.30453" lon="18.65118">
        <ele>31.822098</ele>
        <time>2024-08-04T11:10:49.969Z</time>
      </trkpt>
      <trkpt lat="54.3046" lon="18.65131">
        <ele>31.917274</ele>
        <time>2024-08-04T11:10:52.955Z</time>
      </trkpt>
      <trkpt lat="54.30467" lon="18.65144">
        <ele>31.975372</ele>
        <time>2024-08-04T11:10:55.963Z</time>
      </trkpt>
      <trkpt lat="54.30474" lon="18.6516">
        <ele>31.980837</ele>
        <time>2024-08-04T11:10:58.963Z</time>
      </trkpt>
      <trkpt lat="54.30482" lon="18.65175">
        <ele>31.986399</ele>
        <time>2024-08-04T11:11:01.999Z</time>
      </trkpt>
      <trkpt lat="54.30489" lon="18.65191">
        <ele>31.991981</ele>
        <time>2024-08-04T11:11:04.958Z</time>
      </trkpt>
      <trkpt lat="54.30497" lon="18.65208">
        <ele>31.997994</ele>
        <time>2024-08-04T11:11:07.962Z</time>
      </trkpt>
      <trkpt lat="54.30506" lon="18.65224">
        <ele>32.004137</ele>
        <time>2024-08-04T11:11:10.962Z</time>
      </trkpt>
      <trkpt lat="54.30514" lon="18.6524">
        <ele>32.01</ele>
        <time>2024-08-04T11:11:13.961Z</time>
      </trkpt>
      <trkpt lat="54.30519" lon="18.65253">
        <ele>32.014391</ele>
        <time>2024-08-04T11:11:15.971Z</time>
      </trkpt>
      <trkpt lat="54.30525" lon="18.65265">
        <ele>32.018797</ele>
        <time>2024-08-04T11:11:17.959Z</time>
      </trkpt>
      <trkpt lat="54.3053" lon="18.65278">
        <ele>32.02311</ele>
        <time>2024-08-04T11:11:19.955Z</time>
      </trkpt>
      <trkpt lat="54.30536" lon="18.6529">
        <ele>32.027519</ele>
        <time>2024-08-04T11:11:22.009Z</time>
      </trkpt>
      <trkpt lat="54.30543" lon="18.65303">
        <ele>32.032169</ele>
        <time>2024-08-04T11:11:23.955Z</time>
      </trkpt>
      <trkpt lat="54.30549" lon="18.65316">
        <ele>32.036853</ele>
        <time>2024-08-04T11:11:25.960Z</time>
      </trkpt>
      <trkpt lat="54.30555" lon="18.65329">
        <ele>32.041529</ele>
        <time>2024-08-04T11:11:27.950Z</time>
      </trkpt>
      <trkpt lat="54.30561" lon="18.65341">
        <ele>32.045883</ele>
        <time>2024-08-04T11:11:29.941Z</time>
      </trkpt>
      <trkpt lat="54.30567" lon="18.65354">
        <ele>32.050464</ele>
        <time>2024-08-04T11:11:31.991Z</time>
      </trkpt>
      <trkpt lat="54.30572" lon="18.65366">
        <ele>32.054843</ele>
        <time>2024-08-04T11:11:33.968Z</time>
      </trkpt>
      <trkpt lat="54.30578" lon="18.65379">
        <ele>32.057398</ele>
        <time>2024-08-04T11:11:35.957Z</time>
      </trkpt>
      <trkpt lat="54.30584" lon="18.65391">
        <ele>32.045388</ele>
        <time>2024-08-04T11:11:37.951Z</time>
      </trkpt>
      <trkpt lat="54.30591" lon="18.65404">
        <ele>32.032617</ele>
        <time>2024-08-04T11:11:39.948Z</time>
      </trkpt>
      <trkpt lat="54.30597" lon="18.65417">
        <ele>32.019945</ele>
        <time>2024-08-04T11:11:41.977Z</time>
      </trkpt>
      <trkpt lat="54.30603" lon="18.6543">
        <ele>32.007506</ele>
        <time>2024-08-04T11:11:43.943Z</time>
      </trkpt>
      <trkpt lat="54.30609" lon="18.65443">
        <ele>31.994738</ele>
        <time>2024-08-04T11:11:45.964Z</time>
      </trkpt>
      <trkpt lat="54.30615" lon="18.65456">
        <ele>31.982845</ele>
        <time>2024-08-04T11:11:47.966Z</time>
      </trkpt>
      <trkpt lat="54.30623" lon="18.65474">
        <ele>31.965637</ele>
        <time>2024-08-04T11:11:50.970Z</time>
      </trkpt>
      <trkpt lat="54.3063" lon="18.65487">
        <ele>31.952895</ele>
        <time>2024-08-04T11:11:52.969Z</time>
      </trkpt>
      <trkpt lat="54.30636" lon="18.65499">
        <ele>31.940573</ele>
        <time>2024-08-04T11:11:54.956Z</time>
      </trkpt>
      <trkpt lat="54.30642" lon="18.65512">
        <ele>31.928491</ele>
        <time>2024-08-04T11:11:56.973Z</time>
      </trkpt>
      <trkpt lat="54.30647" lon="18.65525">
        <ele>31.916548</ele>
        <time>2024-08-04T11:11:58.959Z</time>
      </trkpt>
      <trkpt lat="54.30653" lon="18.65537">
        <ele>31.904861</ele>
        <time>2024-08-04T11:12:00.954Z</time>
      </trkpt>
      <trkpt lat="54.30659" lon="18.65549">
        <ele>31.893245</ele>
        <time>2024-08-04T11:12:02.953Z</time>
      </trkpt>
      <trkpt lat="54.30664" lon="18.65562">
        <ele>31.880959</ele>
        <time>2024-08-04T11:12:04.964Z</time>
      </trkpt>
      <trkpt lat="54.3067" lon="18.65575">
        <ele>31.868915</ele>
        <time>2024-08-04T11:12:06.954Z</time>
      </trkpt>
      <trkpt lat="54.30676" lon="18.65588">
        <ele>31.85681</ele>
        <time>2024-08-04T11:12:08.958Z</time>
      </trkpt>
      <trkpt lat="54.30682" lon="18.656">
        <ele>31.844708</ele>
        <time>2024-08-04T11:12:10.944Z</time>
      </trkpt>
      <trkpt lat="54.30687" lon="18.65614">
        <ele>31.83259</ele>
        <time>2024-08-04T11:12:12.964Z</time>
      </trkpt>
      <trkpt lat="54.30693" lon="18.65627">
        <ele>31.818592</ele>
        <time>2024-08-04T11:12:14.959Z</time>
      </trkpt>
      <trkpt lat="54.30698" lon="18.65641">
        <ele>31.804354</ele>
        <time>2024-08-04T11:12:16.959Z</time>
      </trkpt>
      <trkpt lat="54.30703" lon="18.65655">
        <ele>31.789584</ele>
        <time>2024-08-04T11:12:18.970Z</time>
      </trkpt>
      <trkpt lat="54.30706" lon="18.6567">
        <ele>31.775023</ele>
        <time>2024-08-04T11:12:20.952Z</time>
      </trkpt>
      <trkpt lat="54.30709" lon="18.65686">
        <ele>31.760554</ele>
        <time>2024-08-04T11:12:22.945Z</time>
      </trkpt>
      <trkpt lat="54.30711" lon="18.65702">
        <ele>31.745867</ele>
        <time>2024-08-04T11:12:24.953Z</time>
      </trkpt>
      <trkpt lat="54.30713" lon="18.65719">
        <ele>31.730656</ele>
        <time>2024-08-04T11:12:26.951Z</time>
      </trkpt>
      <trkpt lat="54.30714" lon="18.65736">
        <ele>31.715368</ele>
        <time>2024-08-04T11:12:28.940Z</time>
      </trkpt>
      <trkpt lat="54.30714" lon="18.65754">
        <ele>31.69949</ele>
        <time>2024-08-04T11:12:30.968Z</time>
      </trkpt>
      <trkpt lat="54.30714" lon="18.65772">
        <ele>31.683627</ele>
        <time>2024-08-04T11:12:32.941Z</time>
      </trkpt>
      <trkpt lat="54.30713" lon="18.65789">
        <ele>31.6684</ele>
        <time>2024-08-04T11:12:34.952Z</time>
      </trkpt>
      <trkpt lat="54.30711" lon="18.65806">
        <ele>31.652977</ele>
        <time>2024-08-04T11:12:36.955Z</time>
      </trkpt>
      <trkpt lat="54.30708" lon="18.65823">
        <ele>31.637537</ele>
        <time>2024-08-04T11:12:38.952Z</time>
      </trkpt>
      <trkpt lat="54.30704" lon="18.65839">
        <ele>31.622418</ele>
        <time>2024-08-04T11:12:40.948Z</time>
      </trkpt>
      <trkpt lat="54.30699" lon="18.65853">
        <ele>31.607493</ele>
        <time>2024-08-04T11:12:42.950Z</time>
      </trkpt>
      <trkpt lat="54.30694" lon="18.65867">
        <ele>31.592538</ele>
        <time>2024-08-04T11:12:44.946Z</time>
      </trkpt>
      <trkpt lat="54.30687" lon="18.6588">
        <ele>31.57717</ele>
        <time>2024-08-04T11:12:46.951Z</time>
      </trkpt>
      <trkpt lat="54.3068" lon="18.65892">
        <ele>31.561992</ele>
        <time>2024-08-04T11:12:48.960Z</time>
      </trkpt>
      <trkpt lat="54.30672" lon="18.65903">
        <ele>31.559013</ele>
        <time>2024-08-04T11:12:50.948Z</time>
      </trkpt>
      <trkpt lat="54.30665" lon="18.65915">
        <ele>31.567249</ele>
        <time>2024-08-04T11:12:52.949Z</time>
      </trkpt>
      <trkpt lat="54.30658" lon="18.65927">
        <ele>31.575685</ele>
        <time>2024-08-04T11:12:54.951Z</time>
      </trkpt>
      <trkpt lat="54.3065" lon="18.65939">
        <ele>31.583885</ele>
        <time>2024-08-04T11:12:56.963Z</time>
      </trkpt>
      <trkpt lat="54.30644" lon="18.6595">
        <ele>31.591765</ele>
        <time>2024-08-04T11:12:58.962Z</time>
      </trkpt>
      <trkpt lat="54.30637" lon="18.65961">
        <ele>31.599562</ele>
        <time>2024-08-04T11:13:00.961Z</time>
      </trkpt>
      <trkpt lat="54.30629" lon="18.65973">
        <ele>31.607798</ele>
        <time>2024-08-04T11:13:02.965Z</time>
      </trkpt>
      <trkpt lat="54.30622" lon="18.65984">
        <ele>31.615821</ele>
        <time>2024-08-04T11:13:04.955Z</time>
      </trkpt>
      <trkpt lat="54.30616" lon="18.65996">
        <ele>31.623712</ele>
        <time>2024-08-04T11:13:06.991Z</time>
      </trkpt>
      <trkpt lat="54.30609" lon="18.66008">
        <ele>31.632056</ele>
        <time>2024-08-04T11:13:08.957Z</time>
      </trkpt>
      <trkpt lat="54.30602" lon="18.66021">
        <ele>31.640139</ele>
        <time>2024-08-04T11:13:10.950Z</time>
      </trkpt>
      <trkpt lat="54.30596" lon="18.66034">
        <ele>31.648105</ele>
        <time>2024-08-04T11:13:12.950Z</time>
      </trkpt>
      <trkpt lat="54.30592" lon="18.66048">
        <ele>31.656069</ele>
        <time>2024-08-04T11:13:14.963Z</time>
      </trkpt>
      <trkpt lat="54.30587" lon="18.66063">
        <ele>31.664325</ele>
        <time>2024-08-04T11:13:16.955Z</time>
      </trkpt>
      <trkpt lat="54.30582" lon="18.66078">
        <ele>31.672709</ele>
        <time>2024-08-04T11:13:18.950Z</time>
      </trkpt>
      <trkpt lat="54.30577" lon="18.66092">
        <ele>31.680759</ele>
        <time>2024-08-04T11:13:20.946Z</time>
      </trkpt>
      <trkpt lat="54.30571" lon="18.66107">
        <ele>31.689183</ele>
        <time>2024-08-04T11:13:22.970Z</time>
      </trkpt>
      <trkpt lat="54.30566" lon="18.66122">
        <ele>31.697358</ele>
        <time>2024-08-04T11:13:24.959Z</time>
      </trkpt>
      <trkpt lat="54.30561" lon="18.66136">
        <ele>31.703306</ele>
        <time>2024-08-04T11:13:26.974Z</time>
      </trkpt>
      <trkpt lat="54.30556" lon="18.66151">
        <ele>31.702688</ele>
        <time>2024-08-04T11:13:28.950Z</time>
      </trkpt>
      <trkpt lat="54.3055" lon="18.66165">
        <ele>31.702069</ele>
        <time>2024-08-04T11:13:30.936Z</time>
      </trkpt>
      <trkpt lat="54.30545" lon="18.66178">
        <ele>31.701453</ele>
        <time>2024-08-04T11:13:32.946Z</time>
      </trkpt>
      <trkpt lat="54.30539" lon="18.66192">
        <ele>31.700832</ele>
        <time>2024-08-04T11:13:34.953Z</time>
      </trkpt>
      <trkpt lat="54.30533" lon="18.66207">
        <ele>31.700183</ele>
        <time>2024-08-04T11:13:36.951Z</time>
      </trkpt>
      <trkpt lat="54.30527" lon="18.66221">
        <ele>31.699541</ele>
        <time>2024-08-04T11:13:38.940Z</time>
      </trkpt>
      <trkpt lat="54.30521" lon="18.66234">
        <ele>31.698934</ele>
        <time>2024-08-04T11:13:40.929Z</time>
      </trkpt>
      <trkpt lat="54.30516" lon="18.66248">
        <ele>31.698329</ele>
        <time>2024-08-04T11:13:42.951Z</time>
      </trkpt>
      <trkpt lat="54.3051" lon="18.66261">
        <ele>31.697712</ele>
        <time>2024-08-04T11:13:44.949Z</time>
      </trkpt>
      <trkpt lat="54.30505" lon="18.66276">
        <ele>31.697087</ele>
        <time>2024-08-04T11:13:46.952Z</time>
      </trkpt>
      <trkpt lat="54.305" lon="18.6629">
        <ele>31.696482</ele>
        <time>2024-08-04T11:13:48.958Z</time>
      </trkpt>
      <trkpt lat="54.30495" lon="18.66305">
        <ele>31.695859</ele>
        <time>2024-08-04T11:13:50.956Z</time>
      </trkpt>
      <trkpt lat="54.30491" lon="18.6632">
        <ele>31.695255</ele>
        <time>2024-08-04T11:13:52.963Z</time>
      </trkpt>
      <trkpt lat="54.30488" lon="18.66336">
        <ele>31.694629</ele>
        <time>2024-08-04T11:13:54.959Z</time>
      </trkpt>
      <trkpt lat="54.30484" lon="18.66352">
        <ele>31.694021</ele>
        <time>2024-08-04T11:13:56.945Z</time>
      </trkpt>
      <trkpt lat="54.30483" lon="18.66368">
        <ele>31.693398</ele>
        <time>2024-08-04T11:13:58.966Z</time>
      </trkpt>
      <trkpt lat="54.30481" lon="18.66385">
        <ele>31.692764</ele>
        <time>2024-08-04T11:14:00.952Z</time>
      </trkpt>
      <trkpt lat="54.3048" lon="18.66402">
        <ele>31.692339</ele>
        <time>2024-08-04T11:14:02.941Z</time>
      </trkpt>
      <trkpt lat="54.30478" lon="18.66419">
        <ele>31.700143</ele>
        <time>2024-08-04T11:14:04.950Z</time>
      </trkpt>
      <trkpt lat="54.30477" lon="18.66435">
        <ele>31.70764</ele>
        <time>2024-08-04T11:14:06.943Z</time>
      </trkpt>
      <trkpt lat="54.30475" lon="18.66451">
        <ele>31.71515</ele>
        <time>2024-08-04T11:14:08.959Z</time>
      </trkpt>
      <trkpt lat="54.30473" lon="18.66467">
        <ele>31.722764</ele>
        <time>2024-08-04T11:14:10.947Z</time>
      </trkpt>
      <trkpt lat="54.30471" lon="18.66484">
        <ele>31.730528</ele>
        <time>2024-08-04T11:14:12.944Z</time>
      </trkpt>
      <trkpt lat="54.30469" lon="18.665">
        <ele>31.738266</ele>
        <time>2024-08-04T11:14:14.922Z</time>
      </trkpt>
      <trkpt lat="54.30467" lon="18.66516">
        <ele>31.745951</ele>
        <time>2024-08-04T11:14:16.948Z</time>
      </trkpt>
      <trkpt lat="54.30464" lon="18.66532">
        <ele>31.753306</ele>
        <time>2024-08-04T11:14:18.977Z</time>
      </trkpt>
      <trkpt lat="54.30462" lon="18.66548">
        <ele>31.760878</ele>
        <time>2024-08-04T11:14:20.951Z</time>
      </trkpt>
      <trkpt lat="54.30459" lon="18.66564">
        <ele>31.768824</ele>
        <time>2024-08-04T11:14:22.954Z</time>
      </trkpt>
      <trkpt lat="54.30456" lon="18.6658">
        <ele>31.776549</ele>
        <time>2024-08-04T11:14:24.951Z</time>
      </trkpt>
      <trkpt lat="54.30453" lon="18.66597">
        <ele>31.784318</ele>
        <time>2024-08-04T11:14:26.959Z</time>
      </trkpt>
      <trkpt lat="54.30451" lon="18.66613">
        <ele>31.79233</ele>
        <time>2024-08-04T11:14:28.949Z</time>
      </trkpt>
      <trkpt lat="54.30449" lon="18.6663">
        <ele>31.800079</ele>
        <time>2024-08-04T11:14:30.955Z</time>
      </trkpt>
      <trkpt lat="54.30447" lon="18.66646">
        <ele>31.807768</ele>
        <time>2024-08-04T11:14:32.929Z</time>
      </trkpt>
      <trkpt lat="54.30444" lon="18.66663">
        <ele>31.815627</ele>
        <time>2024-08-04T11:14:34.954Z</time>
      </trkpt>
      <trkpt lat="54.30442" lon="18.66679">
        <ele>31.823451</ele>
        <time>2024-08-04T11:14:36.943Z</time>
      </trkpt>
      <trkpt lat="54.30441" lon="18.66696">
        <ele>31.831209</ele>
        <time>2024-08-04T11:14:38.948Z</time>
      </trkpt>
      <trkpt lat="54.30439" lon="18.66714">
        <ele>31.806924</ele>
        <time>2024-08-04T11:14:40.959Z</time>
      </trkpt>
      <trkpt lat="54.30437" lon="18.66731">
        <ele>31.7685</ele>
        <time>2024-08-04T11:14:42.942Z</time>
      </trkpt>
      <trkpt lat="54.30436" lon="18.66748">
        <ele>31.729708</ele>
        <time>2024-08-04T11:14:44.918Z</time>
      </trkpt>
      <trkpt lat="54.30435" lon="18.66764">
        <ele>31.692031</ele>
        <time>2024-08-04T11:14:46.964Z</time>
      </trkpt>
      <trkpt lat="54.30433" lon="18.66781">
        <ele>31.655073</ele>
        <time>2024-08-04T11:14:48.948Z</time>
      </trkpt>
      <trkpt lat="54.30432" lon="18.66797">
        <ele>31.617788</ele>
        <time>2024-08-04T11:14:50.951Z</time>
      </trkpt>
      <trkpt lat="54.30431" lon="18.66813">
        <ele>31.581743</ele>
        <time>2024-08-04T11:14:52.959Z</time>
      </trkpt>
      <trkpt lat="54.30432" lon="18.66829">
        <ele>31.545874</ele>
        <time>2024-08-04T11:14:54.956Z</time>
      </trkpt>
      <trkpt lat="54.30432" lon="18.66846">
        <ele>31.508082</ele>
        <time>2024-08-04T11:14:56.939Z</time>
      </trkpt>
      <trkpt lat="54.30433" lon="18.66862">
        <ele>31.472064</ele>
        <time>2024-08-04T11:14:58.958Z</time>
      </trkpt>
      <trkpt lat="54.30435" lon="18.66878">
        <ele>31.434892</ele>
        <time>2024-08-04T11:15:00.951Z</time>
      </trkpt>
      <trkpt lat="54.30438" lon="18.66894">
        <ele>31.396662</ele>
        <time>2024-08-04T11:15:02.964Z</time>
      </trkpt>
      <trkpt lat="54.3044" lon="18.6691">
        <ele>31.35995</ele>
        <time>2024-08-04T11:15:04.964Z</time>
      </trkpt>
      <trkpt lat="54.30443" lon="18.66926">
        <ele>31.322664</ele>
        <time>2024-08-04T11:15:06.964Z</time>
      </trkpt>
      <trkpt lat="54.30447" lon="18.66941">
        <ele>31.285067</ele>
        <time>2024-08-04T11:15:08.961Z</time>
      </trkpt>
      <trkpt lat="54.30451" lon="18.66957">
        <ele>31.247538</ele>
        <time>2024-08-04T11:15:10.953Z</time>
      </trkpt>
      <trkpt lat="54.30454" lon="18.66972">
        <ele>31.211548</ele>
        <time>2024-08-04T11:15:12.954Z</time>
      </trkpt>
      <trkpt lat="54.30458" lon="18.66987">
        <ele>31.174229</ele>
        <time>2024-08-04T11:15:14.963Z</time>
      </trkpt>
      <trkpt lat="54.3046" lon="18.67002">
        <ele>31.141923</ele>
        <time>2024-08-04T11:15:16.964Z</time>
      </trkpt>
      <trkpt lat="54.30462" lon="18.67019">
        <ele>31.169676</ele>
        <time>2024-08-04T11:15:18.950Z</time>
      </trkpt>
      <trkpt lat="54.30464" lon="18.67037">
        <ele>31.19744</ele>
        <time>2024-08-04T11:15:20.962Z</time>
      </trkpt>
      <trkpt lat="54.30466" lon="18.67053">
        <ele>31.223793</ele>
        <time>2024-08-04T11:15:22.952Z</time>
      </trkpt>
      <trkpt lat="54.30468" lon="18.6707">
        <ele>31.249992</ele>
        <time>2024-08-04T11:15:24.952Z</time>
      </trkpt>
      <trkpt lat="54.30469" lon="18.67086">
        <ele>31.276116</ele>
        <time>2024-08-04T11:15:26.951Z</time>
      </trkpt>
      <trkpt lat="54.30471" lon="18.67102">
        <ele>31.301969</ele>
        <time>2024-08-04T11:15:28.949Z</time>
      </trkpt>
      <trkpt lat="54.30472" lon="18.67119">
        <ele>31.328333</ele>
        <time>2024-08-04T11:15:30.957Z</time>
      </trkpt>
      <trkpt lat="54.30473" lon="18.67135">
        <ele>31.354964</ele>
        <time>2024-08-04T11:15:32.945Z</time>
      </trkpt>
      <trkpt lat="54.30475" lon="18.67152">
        <ele>31.381129</ele>
        <time>2024-08-04T11:15:34.950Z</time>
      </trkpt>
      <trkpt lat="54.30476" lon="18.67168">
        <ele>31.407092</ele>
        <time>2024-08-04T11:15:36.959Z</time>
      </trkpt>
      <trkpt lat="54.30477" lon="18.67185">
        <ele>31.432897</ele>
        <time>2024-08-04T11:15:38.952Z</time>
      </trkpt>
      <trkpt lat="54.30474" lon="18.67201">
        <ele>31.460189</ele>
        <time>2024-08-04T11:15:41.938Z</time>
      </trkpt>
      <trkpt lat="54.30474" lon="18.67229">
        <ele>31.503533</ele>
        <time>2024-08-04T11:16:15.936Z</time>
      </trkpt>
      <trkpt lat="54.30472" lon="18.67248">
        <ele>31.53506</ele>
        <time>2024-08-04T11:16:19.959Z</time>
      </trkpt>
      <trkpt lat="54.30469" lon="18.67266">
        <ele>31.563205</ele>
        <time>2024-08-04T11:16:22.954Z</time>
      </trkpt>
      <trkpt lat="54.30466" lon="18.67285">
        <ele>31.594704</ele>
        <time>2024-08-04T11:16:25.964Z</time>
      </trkpt>
      <trkpt lat="54.30464" lon="18.67304">
        <ele>31.62531</ele>
        <time>2024-08-04T11:16:28.951Z</time>
      </trkpt>
      <trkpt lat="54.3046" lon="18.67324">
        <ele>31.605176</ele>
        <time>2024-08-04T11:16:31.946Z</time>
      </trkpt>
      <trkpt lat="54.30457" lon="18.67345">
        <ele>31.582146</ele>
        <time>2024-08-04T11:16:34.949Z</time>
      </trkpt>
      <trkpt lat="54.30455" lon="18.67365">
        <ele>31.560162</ele>
        <time>2024-08-04T11:16:37.951Z</time>
      </trkpt>
      <trkpt lat="54.30452" lon="18.67387">
        <ele>31.536432</ele>
        <time>2024-08-04T11:16:40.960Z</time>
      </trkpt>
      <trkpt lat="54.3045" lon="18.67409">
        <ele>31.512186</ele>
        <time>2024-08-04T11:16:43.949Z</time>
      </trkpt>
      <trkpt lat="54.30448" lon="18.67432">
        <ele>31.487793</ele>
        <time>2024-08-04T11:16:46.947Z</time>
      </trkpt>
      <trkpt lat="54.30447" lon="18.67448">
        <ele>31.470262</ele>
        <time>2024-08-04T11:16:48.944Z</time>
      </trkpt>
      <trkpt lat="54.30447" lon="18.67464">
        <ele>31.45319</ele>
        <time>2024-08-04T11:16:50.963Z</time>
      </trkpt>
      <trkpt lat="54.30447" lon="18.67481">
        <ele>31.435647</ele>
        <time>2024-08-04T11:16:52.952Z</time>
      </trkpt>
      <trkpt lat="54.30446" lon="18.67497">
        <ele>31.418208</ele>
        <time>2024-08-04T11:16:54.961Z</time>
      </trkpt>
      <trkpt lat="54.30448" lon="18.67514">
        <ele>31.400536</ele>
        <time>2024-08-04T11:16:56.949Z</time>
      </trkpt>
      <trkpt lat="54.30452" lon="18.67529">
        <ele>31.383527</ele>
        <time>2024-08-04T11:16:58.962Z</time>
      </trkpt>
      <trkpt lat="54.30457" lon="18.67542">
        <ele>31.366329</ele>
        <time>2024-08-04T11:17:00.949Z</time>
      </trkpt>
      <trkpt lat="54.30465" lon="18.67559">
        <ele>31.342528</ele>
        <time>2024-08-04T11:17:03.940Z</time>
      </trkpt>
      <trkpt lat="54.30475" lon="18.67573">
        <ele>31.319561</ele>
        <time>2024-08-04T11:17:06.930Z</time>
      </trkpt>
      <trkpt lat="54.30486" lon="18.67585">
        <ele>31.304076</ele>
        <time>2024-08-04T11:17:09.950Z</time>
      </trkpt>
      <trkpt lat="54.30497" lon="18.67596">
        <ele>31.35419</ele>
        <time>2024-08-04T11:17:12.947Z</time>
      </trkpt>
      <trkpt lat="54.30509" lon="18.67602">
        <ele>31.404186</ele>
        <time>2024-08-04T11:17:15.950Z</time>
      </trkpt>
      <trkpt lat="54.30522" lon="18.67606">
        <ele>31.455923</ele>
        <time>2024-08-04T11:17:18.961Z</time>
      </trkpt>
      <trkpt lat="54.30535" lon="18.67608">
        <ele>31.507209</ele>
        <time>2024-08-04T11:17:21.929Z</time>
      </trkpt>
      <trkpt lat="54.30545" lon="18.6761">
        <ele>31.543992</ele>
        <time>2024-08-04T11:17:23.950Z</time>
      </trkpt>
      <trkpt lat="54.30554" lon="18.67614">
        <ele>31.579835</ele>
        <time>2024-08-04T11:17:25.943Z</time>
      </trkpt>
      <trkpt lat="54.30567" lon="18.67621">
        <ele>31.632229</ele>
        <time>2024-08-04T11:17:28.955Z</time>
      </trkpt>
      <trkpt lat="54.30575" lon="18.67628">
        <ele>31.667502</ele>
        <time>2024-08-04T11:17:30.928Z</time>
      </trkpt>
      <trkpt lat="54.30586" lon="18.6764">
        <ele>31.720772</ele>
        <time>2024-08-04T11:17:33.963Z</time>
      </trkpt>
      <trkpt lat="54.30594" lon="18.6765">
        <ele>31.757056</ele>
        <time>2024-08-04T11:17:35.946Z</time>
      </trkpt>
      <trkpt lat="54.30601" lon="18.67659">
        <ele>31.792462</ele>
        <time>2024-08-04T11:17:37.951Z</time>
      </trkpt>
      <trkpt lat="54.30608" lon="18.6767">
        <ele>31.829082</ele>
        <time>2024-08-04T11:17:39.954Z</time>
      </trkpt>
      <trkpt lat="54.30617" lon="18.67686">
        <ele>31.880622</ele>
        <time>2024-08-04T11:17:42.953Z</time>
      </trkpt>
      <trkpt lat="54.30624" lon="18.67698">
        <ele>31.917877</ele>
        <time>2024-08-04T11:17:44.951Z</time>
      </trkpt>
      <trkpt lat="54.3063" lon="18.67711">
        <ele>31.955769</ele>
        <time>2024-08-04T11:17:46.947Z</time>
      </trkpt>
      <trkpt lat="54.30635" lon="18.67724">
        <ele>31.993418</ele>
        <time>2024-08-04T11:17:48.949Z</time>
      </trkpt>
      <trkpt lat="54.30641" lon="18.67738">
        <ele>31.973122</ele>
        <time>2024-08-04T11:17:50.971Z</time>
      </trkpt>
      <trkpt lat="54.30646" lon="18.67751">
        <ele>31.941189</ele>
        <time>2024-08-04T11:17:52.945Z</time>
      </trkpt>
      <trkpt lat="54.30651" lon="18.67764">
        <ele>31.909027</ele>
        <time>2024-08-04T11:17:54.957Z</time>
      </trkpt>
      <trkpt lat="54.30655" lon="18.67778">
        <ele>31.877109</ele>
        <time>2024-08-04T11:17:56.949Z</time>
      </trkpt>
      <trkpt lat="54.30661" lon="18.67791">
        <ele>31.844803</ele>
        <time>2024-08-04T11:17:58.966Z</time>
      </trkpt>
      <trkpt lat="54.30665" lon="18.67805">
        <ele>31.81271</ele>
        <time>2024-08-04T11:18:00.955Z</time>
      </trkpt>
      <trkpt lat="54.3067" lon="18.67819">
        <ele>31.780605</ele>
        <time>2024-08-04T11:18:02.934Z</time>
      </trkpt>
      <trkpt lat="54.30675" lon="18.67832">
        <ele>31.747886</ele>
        <time>2024-08-04T11:18:04.969Z</time>
      </trkpt>
      <trkpt lat="54.30681" lon="18.67845">
        <ele>31.71553</ele>
        <time>2024-08-04T11:18:06.960Z</time>
      </trkpt>
      <trkpt lat="54.30686" lon="18.67858">
        <ele>31.683536</ele>
        <time>2024-08-04T11:18:08.958Z</time>
      </trkpt>
      <trkpt lat="54.30691" lon="18.67871">
        <ele>31.65164</ele>
        <time>2024-08-04T11:18:10.953Z</time>
      </trkpt>
      <trkpt lat="54.30697" lon="18.67884">
        <ele>31.61901</ele>
        <time>2024-08-04T11:18:12.955Z</time>
      </trkpt>
      <trkpt lat="54.30702" lon="18.67897">
        <ele>31.587681</ele>
        <time>2024-08-04T11:18:14.958Z</time>
      </trkpt>
      <trkpt lat="54.30708" lon="18.67909">
        <ele>31.555744</ele>
        <time>2024-08-04T11:18:16.951Z</time>
      </trkpt>
      <trkpt lat="54.30713" lon="18.67922">
        <ele>31.524542</ele>
        <time>2024-08-04T11:18:18.945Z</time>
      </trkpt>
      <trkpt lat="54.30718" lon="18.67935">
        <ele>31.492609</ele>
        <time>2024-08-04T11:18:20.955Z</time>
      </trkpt>
      <trkpt lat="54.30722" lon="18.67949">
        <ele>31.460483</ele>
        <time>2024-08-04T11:18:22.943Z</time>
      </trkpt>
      <trkpt lat="54.30726" lon="18.67964">
        <ele>31.427691</ele>
        <time>2024-08-04T11:18:24.939Z</time>
      </trkpt>
      <trkpt lat="54.30729" lon="18.6798">
        <ele>31.394031</ele>
        <time>2024-08-04T11:18:26.950Z</time>
      </trkpt>
      <trkpt lat="54.30732" lon="18.67995">
        <ele>31.367377</ele>
        <time>2024-08-04T11:18:28.934Z</time>
      </trkpt>
      <trkpt lat="54.30734" lon="18.6801">
        <ele>31.346871</ele>
        <time>2024-08-04T11:18:30.953Z</time>
      </trkpt>
      <trkpt lat="54.30737" lon="18.68026">
        <ele>31.32552</ele>
        <time>2024-08-04T11:18:32.950Z</time>
      </trkpt>
      <trkpt lat="54.30739" lon="18.68041">
        <ele>31.305078</ele>
        <time>2024-08-04T11:18:34.947Z</time>
      </trkpt>
      <trkpt lat="54.30741" lon="18.68057">
        <ele>31.283801</ele>
        <time>2024-08-04T11:18:36.942Z</time>
      </trkpt>
      <trkpt lat="54.30743" lon="18.68073">
        <ele>31.262295</ele>
        <time>2024-08-04T11:18:38.943Z</time>
      </trkpt>
      <trkpt lat="54.30744" lon="18.68089">
        <ele>31.241483</ele>
        <time>2024-08-04T11:18:40.936Z</time>
      </trkpt>
      <trkpt lat="54.30743" lon="18.68105">
        <ele>31.220178</ele>
        <time>2024-08-04T11:18:42.947Z</time>
      </trkpt>
      <trkpt lat="54.30742" lon="18.68121">
        <ele>31.198974</ele>
        <time>2024-08-04T11:18:44.952Z</time>
      </trkpt>
      <trkpt lat="54.30741" lon="18.68137">
        <ele>31.177933</ele>
        <time>2024-08-04T11:18:46.950Z</time>
      </trkpt>
      <trkpt lat="54.30739" lon="18.68152">
        <ele>31.15754</ele>
        <time>2024-08-04T11:18:48.951Z</time>
      </trkpt>
      <trkpt lat="54.30738" lon="18.68167">
        <ele>31.137147</ele>
        <time>2024-08-04T11:18:50.939Z</time>
      </trkpt>
      <trkpt lat="54.30738" lon="18.68183">
        <ele>31.115941</ele>
        <time>2024-08-04T11:18:52.935Z</time>
      </trkpt>
      <trkpt lat="54.30738" lon="18.68199">
        <ele>31.094891</ele>
        <time>2024-08-04T11:18:54.945Z</time>
      </trkpt>
      <trkpt lat="54.3074" lon="18.68215">
        <ele>31.073119</ele>
        <time>2024-08-04T11:18:56.940Z</time>
      </trkpt>
      <trkpt lat="54.30745" lon="18.6823">
        <ele>31.051655</ele>
        <time>2024-08-04T11:18:58.947Z</time>
      </trkpt>
      <trkpt lat="54.30751" lon="18.68243">
        <ele>31.029796</ele>
        <time>2024-08-04T11:19:00.934Z</time>
      </trkpt>
      <trkpt lat="54.30757" lon="18.68256">
        <ele>31.008621</ele>
        <time>2024-08-04T11:19:02.948Z</time>
      </trkpt>
      <trkpt lat="54.30764" lon="18.68267">
        <ele>30.986593</ele>
        <time>2024-08-04T11:19:04.964Z</time>
      </trkpt>
      <trkpt lat="54.30771" lon="18.68277">
        <ele>30.988046</ele>
        <time>2024-08-04T11:19:06.949Z</time>
      </trkpt>
      <trkpt lat="54.30778" lon="18.68286">
        <ele>31.03908</ele>
        <time>2024-08-04T11:19:08.949Z</time>
      </trkpt>
      <trkpt lat="54.30787" lon="18.68293">
        <ele>31.091404</ele>
        <time>2024-08-04T11:19:10.938Z</time>
      </trkpt>
      <trkpt lat="54.30795" lon="18.683">
        <ele>31.146669</ele>
        <time>2024-08-04T11:19:12.930Z</time>
      </trkpt>
      <trkpt lat="54.30804" lon="18.68306">
        <ele>31.198987</ele>
        <time>2024-08-04T11:19:14.947Z</time>
      </trkpt>
      <trkpt lat="54.30818" lon="18.68309">
        <ele>31.275666</ele>
        <time>2024-08-04T11:19:17.943Z</time>
      </trkpt>
      <trkpt lat="54.30827" lon="18.68307">
        <ele>31.325981</ele>
        <time>2024-08-04T11:19:19.936Z</time>
      </trkpt>
      <trkpt lat="54.30839" lon="18.68299">
        <ele>31.401687</ele>
        <time>2024-08-04T11:19:22.944Z</time>
      </trkpt>
      <trkpt lat="54.30846" lon="18.6829">
        <ele>31.451929</ele>
        <time>2024-08-04T11:19:24.946Z</time>
      </trkpt>
      <trkpt lat="54.30857" lon="18.68276">
        <ele>31.526344</ele>
        <time>2024-08-04T11:19:27.963Z</time>
      </trkpt>
      <trkpt lat="54.30867" lon="18.68262">
        <ele>31.600186</ele>
        <time>2024-08-04T11:19:30.965Z</time>
      </trkpt>
      <trkpt lat="54.30874" lon="18.68252">
        <ele>31.650633</ele>
        <time>2024-08-04T11:19:32.955Z</time>
      </trkpt>
      <trkpt lat="54.30885" lon="18.68239">
        <ele>31.726796</ele>
        <time>2024-08-04T11:19:35.928Z</time>
      </trkpt>
      <trkpt lat="54.30893" lon="18.68232">
        <ele>31.778163</ele>
        <time>2024-08-04T11:19:37.952Z</time>
      </trkpt>
      <trkpt lat="54.30905" lon="18.68224">
        <ele>31.85219</ele>
        <time>2024-08-04T11:19:40.953Z</time>
      </trkpt>
      <trkpt lat="54.30919" lon="18.68222">
        <ele>31.928004</ele>
        <time>2024-08-04T11:19:43.931Z</time>
      </trkpt>
      <trkpt lat="54.30928" lon="18.68224">
        <ele>31.979888</ele>
        <time>2024-08-04T11:19:45.939Z</time>
      </trkpt>
      <trkpt lat="54.30941" lon="18.6823">
        <ele>31.938339</ele>
        <time>2024-08-04T11:19:48.959Z</time>
      </trkpt>
      <trkpt lat="54.3095" lon="18.68236">
        <ele>31.904313</ele>
        <time>2024-08-04T11:19:50.949Z</time>
      </trkpt>
      <trkpt lat="54.30962" lon="18.68245">
        <ele>31.854929</ele>
        <time>2024-08-04T11:19:53.945Z</time>
      </trkpt>
      <trkpt lat="54.3097" lon="18.68254">
        <ele>31.820642</ele>
        <time>2024-08-04T11:19:55.929Z</time>
      </trkpt>
      <trkpt lat="54.30977" lon="18.68262">
        <ele>31.78698</ele>
        <time>2024-08-04T11:19:57.937Z</time>
      </trkpt>
      <trkpt lat="54.30985" lon="18.68272">
        <ele>31.752646</ele>
        <time>2024-08-04T11:19:59.945Z</time>
      </trkpt>
      <trkpt lat="54.30995" lon="18.68287">
        <ele>31.703325</ele>
        <time>2024-08-04T11:20:02.959Z</time>
      </trkpt>
      <trkpt lat="54.31004" lon="18.68304">
        <ele>31.653212</ele>
        <time>2024-08-04T11:20:05.957Z</time>
      </trkpt>
      <trkpt lat="54.3101" lon="18.68316">
        <ele>31.618695</ele>
        <time>2024-08-04T11:20:07.949Z</time>
      </trkpt>
      <trkpt lat="54.31016" lon="18.68329">
        <ele>31.584689</ele>
        <time>2024-08-04T11:20:09.955Z</time>
      </trkpt>
      <trkpt lat="54.31024" lon="18.68347">
        <ele>31.535064</ele>
        <time>2024-08-04T11:20:12.946Z</time>
      </trkpt>
      <trkpt lat="54.31029" lon="18.68361">
        <ele>31.500033</ele>
        <time>2024-08-04T11:20:14.946Z</time>
      </trkpt>
      <trkpt lat="54.31034" lon="18.68373">
        <ele>31.466454</ele>
        <time>2024-08-04T11:20:16.954Z</time>
      </trkpt>
      <trkpt lat="54.31039" lon="18.68386">
        <ele>31.433085</ele>
        <time>2024-08-04T11:20:18.961Z</time>
      </trkpt>
      <trkpt lat="54.31045" lon="18.68399">
        <ele>31.398687</ele>
        <time>2024-08-04T11:20:20.956Z</time>
      </trkpt>
      <trkpt lat="54.3105" lon="18.68412">
        <ele>31.364071</ele>
        <time>2024-08-04T11:20:22.946Z</time>
      </trkpt>
      <trkpt lat="54.31059" lon="18.6843">
        <ele>31.311587</ele>
        <time>2024-08-04T11:20:25.946Z</time>
      </trkpt>
      <trkpt lat="54.31066" lon="18.68448">
        <ele>31.22822</ele>
        <time>2024-08-04T11:20:28.954Z</time>
      </trkpt>
      <trkpt lat="54.31074" lon="18.68465">
        <ele>31.147046</ele>
        <time>2024-08-04T11:20:31.960Z</time>
      </trkpt>
      <trkpt lat="54.31079" lon="18.68483">
        <ele>31.073679</ele>
        <time>2024-08-04T11:20:34.970Z</time>
      </trkpt>
      <trkpt lat="54.31082" lon="18.68499">
        <ele>31.011048</ele>
        <time>2024-08-04T11:20:37.944Z</time>
      </trkpt>
      <trkpt lat="54.3109" lon="18.6851">
        <ele>30.944515</ele>
        <time>2024-08-04T11:20:42.948Z</time>
      </trkpt>
      <trkpt lat="54.311" lon="18.68516">
        <ele>30.876099</ele>
        <time>2024-08-04T11:20:46.948Z</time>
      </trkpt>
      <trkpt lat="54.3111" lon="18.68527">
        <ele>30.797303</ele>
        <time>2024-08-04T11:20:50.945Z</time>
      </trkpt>
      <trkpt lat="54.31119" lon="18.68537">
        <ele>30.729322</ele>
        <time>2024-08-04T11:20:53.961Z</time>
      </trkpt>
      <trkpt lat="54.31127" lon="18.68548">
        <ele>30.661051</ele>
        <time>2024-08-04T11:20:56.948Z</time>
      </trkpt>
      <trkpt lat="54.31136" lon="18.68559">
        <ele>30.590216</ele>
        <time>2024-08-04T11:20:59.944Z</time>
      </trkpt>
      <trkpt lat="54.31146" lon="18.6857">
        <ele>30.515777</ele>
        <time>2024-08-04T11:21:02.950Z</time>
      </trkpt>
      <trkpt lat="54.31157" lon="18.68582">
        <ele>30.435452</ele>
        <time>2024-08-04T11:21:05.929Z</time>
      </trkpt>
      <trkpt lat="54.31167" lon="18.68594">
        <ele>30.355924</ele>
        <time>2024-08-04T11:21:08.958Z</time>
      </trkpt>
      <trkpt lat="54.31178" lon="18.68605">
        <ele>30.275109</ele>
        <time>2024-08-04T11:21:12.007Z</time>
      </trkpt>
      <trkpt lat="54.31188" lon="18.68615">
        <ele>30.197802</ele>
        <time>2024-08-04T11:21:14.957Z</time>
      </trkpt>
      <trkpt lat="54.31198" lon="18.68624">
        <ele>30.245343</ele>
        <time>2024-08-04T11:21:17.949Z</time>
      </trkpt>
      <trkpt lat="54.31207" lon="18.6863">
        <ele>30.368155</ele>
        <time>2024-08-04T11:21:20.944Z</time>
      </trkpt>
      <trkpt lat="54.31216" lon="18.68637">
        <ele>30.491263</ele>
        <time>2024-08-04T11:21:23.946Z</time>
      </trkpt>
      <trkpt lat="54.31225" lon="18.68644">
        <ele>30.617889</ele>
        <time>2024-08-04T11:21:26.949Z</time>
      </trkpt>
      <trkpt lat="54.31235" lon="18.68652">
        <ele>30.75619</ele>
        <time>2024-08-04T11:21:29.951Z</time>
      </trkpt>
      <trkpt lat="54.31244" lon="18.68659">
        <ele>30.88686</ele>
        <time>2024-08-04T11:21:32.942Z</time>
      </trkpt>
      <trkpt lat="54.31253" lon="18.68666">
        <ele>31.01442</ele>
        <time>2024-08-04T11:21:35.952Z</time>
      </trkpt>
      <trkpt lat="54.31262" lon="18.68673">
        <ele>31.138984</ele>
        <time>2024-08-04T11:21:38.944Z</time>
      </trkpt>
      <trkpt lat="54.31271" lon="18.68679">
        <ele>31.253649</ele>
        <time>2024-08-04T11:21:41.958Z</time>
      </trkpt>
      <trkpt lat="54.31281" lon="18.68687">
        <ele>31.39743</ele>
        <time>2024-08-04T11:21:45.960Z</time>
      </trkpt>
      <trkpt lat="54.31291" lon="18.68692">
        <ele>31.524287</ele>
        <time>2024-08-04T11:21:49.968Z</time>
      </trkpt>
      <trkpt lat="54.31299" lon="18.68699">
        <ele>31.643115</ele>
        <time>2024-08-04T11:21:53.944Z</time>
      </trkpt>
      <trkpt lat="54.31309" lon="18.68705">
        <ele>31.77418</ele>
        <time>2024-08-04T11:21:58.947Z</time>
      </trkpt>
      <trkpt lat="54.31313" lon="18.68714">
        <ele>31.858755</ele>
        <time>2024-08-04T11:22:14.334Z</time>
      </trkpt>
      <trkpt lat="54.31309" lon="18.68729">
        <ele>31.9827</ele>
        <time>2024-08-04T11:33:12.951Z</time>
      </trkpt>
      <trkpt lat="54.31309" lon="18.68753">
        <ele>32.156338</ele>
        <time>2024-08-04T11:33:39.951Z</time>
      </trkpt>
      <trkpt lat="54.31309" lon="18.6877">
        <ele>32.282165</ele>
        <time>2024-08-04T11:33:45.940Z</time>
      </trkpt>
      <trkpt lat="54.3131" lon="18.68788">
        <ele>32.420004</ele>
        <time>2024-08-04T11:33:51.945Z</time>
      </trkpt>
      <trkpt lat="54.31312" lon="18.68806">
        <ele>32.377866</ele>
        <time>2024-08-04T11:33:55.935Z</time>
      </trkpt>
      <trkpt lat="54.31313" lon="18.68826">
        <ele>32.292118</ele>
        <time>2024-08-04T11:33:59.947Z</time>
      </trkpt>
      <trkpt lat="54.31313" lon="18.68842">
        <ele>32.218434</ele>
        <time>2024-08-04T11:34:02.965Z</time>
      </trkpt>
      <trkpt lat="54.3131" lon="18.68859">
        <ele>32.139757</ele>
        <time>2024-08-04T11:34:05.931Z</time>
      </trkpt>
      <trkpt lat="54.31307" lon="18.68881">
        <ele>32.042181</ele>
        <time>2024-08-04T11:34:08.955Z</time>
      </trkpt>
      <trkpt lat="54.31304" lon="18.689">
        <ele>31.953224</ele>
        <time>2024-08-04T11:34:12.007Z</time>
      </trkpt>
      <trkpt lat="54.31302" lon="18.68919">
        <ele>31.866811</ele>
        <time>2024-08-04T11:34:14.963Z</time>
      </trkpt>
      <trkpt lat="54.313" lon="18.68938">
        <ele>31.784348</ele>
        <time>2024-08-04T11:34:17.957Z</time>
      </trkpt>
      <trkpt lat="54.313" lon="18.68956">
        <ele>31.70126</ele>
        <time>2024-08-04T11:34:20.957Z</time>
      </trkpt>
      <trkpt lat="54.313" lon="18.68977">
        <ele>31.611158</ele>
        <time>2024-08-04T11:34:23.947Z</time>
      </trkpt>
      <trkpt lat="54.31301" lon="18.68996">
        <ele>31.526105</ele>
        <time>2024-08-04T11:34:26.949Z</time>
      </trkpt>
      <trkpt lat="54.31303" lon="18.69014">
        <ele>31.444042</ele>
        <time>2024-08-04T11:34:29.956Z</time>
      </trkpt>
      <trkpt lat="54.31306" lon="18.69033">
        <ele>31.355839</ele>
        <time>2024-08-04T11:34:32.951Z</time>
      </trkpt>
      <trkpt lat="54.31309" lon="18.69053">
        <ele>31.263857</ele>
        <time>2024-08-04T11:34:35.960Z</time>
      </trkpt>
      <trkpt lat="54.31312" lon="18.69074">
        <ele>31.170047</ele>
        <time>2024-08-04T11:34:38.935Z</time>
      </trkpt>
      <trkpt lat="54.31315" lon="18.69093">
        <ele>31.081412</ele>
        <time>2024-08-04T11:34:41.927Z</time>
      </trkpt>
      <trkpt lat="54.31319" lon="18.69112">
        <ele>31.04031</ele>
        <time>2024-08-04T11:34:44.955Z</time>
      </trkpt>
      <trkpt lat="54.31323" lon="18.69131">
        <ele>31.003259</ele>
        <time>2024-08-04T11:34:47.947Z</time>
      </trkpt>
      <trkpt lat="54.31327" lon="18.69151">
        <ele>30.963299</ele>
        <time>2024-08-04T11:34:50.957Z</time>
      </trkpt>
      <trkpt lat="54.31331" lon="18.69171">
        <ele>30.92314</ele>
        <time>2024-08-04T11:34:53.948Z</time>
      </trkpt>
      <trkpt lat="54.31335" lon="18.69192">
        <ele>30.881515</ele>
        <time>2024-08-04T11:34:56.962Z</time>
      </trkpt>
      <trkpt lat="54.31339" lon="18.69212">
        <ele>30.843131</ele>
        <time>2024-08-04T11:34:59.951Z</time>
      </trkpt>
      <trkpt lat="54.31345" lon="18.69229">
        <ele>30.807528</ele>
        <time>2024-08-04T11:35:02.952Z</time>
      </trkpt>
      <trkpt lat="54.31351" lon="18.69244">
        <ele>30.77189</ele>
        <time>2024-08-04T11:35:05.946Z</time>
      </trkpt>
      <trkpt lat="54.31358" lon="18.69259">
        <ele>30.736932</ele>
        <time>2024-08-04T11:35:08.948Z</time>
      </trkpt>
      <trkpt lat="54.31365" lon="18.69274">
        <ele>30.700388</ele>
        <time>2024-08-04T11:35:11.978Z</time>
      </trkpt>
      <trkpt lat="54.3137" lon="18.6929">
        <ele>30.668017</ele>
        <time>2024-08-04T11:35:14.943Z</time>
      </trkpt>
      <trkpt lat="54.31373" lon="18.69308">
        <ele>30.631341</ele>
        <time>2024-08-04T11:35:17.939Z</time>
      </trkpt>
      <trkpt lat="54.31378" lon="18.69327">
        <ele>30.593228</ele>
        <time>2024-08-04T11:35:20.942Z</time>
      </trkpt>
      <trkpt lat="54.31383" lon="18.69347">
        <ele>30.553102</ele>
        <time>2024-08-04T11:35:23.950Z</time>
      </trkpt>
      <trkpt lat="54.31388" lon="18.69366">
        <ele>30.513269</ele>
        <time>2024-08-04T11:35:26.944Z</time>
      </trkpt>
      <trkpt lat="54.31394" lon="18.69384">
        <ele>30.465568</ele>
        <time>2024-08-04T11:35:29.960Z</time>
      </trkpt>
      <trkpt lat="54.31399" lon="18.69401">
        <ele>30.414022</ele>
        <time>2024-08-04T11:35:32.949Z</time>
      </trkpt>
      <trkpt lat="54.31404" lon="18.69419">
        <ele>30.362039</ele>
        <time>2024-08-04T11:35:35.957Z</time>
      </trkpt>
      <trkpt lat="54.31408" lon="18.69438">
        <ele>30.30883</ele>
        <time>2024-08-04T11:35:38.964Z</time>
      </trkpt>
      <trkpt lat="54.3141" lon="18.69457">
        <ele>30.256</ele>
        <time>2024-08-04T11:35:41.973Z</time>
      </trkpt>
      <trkpt lat="54.31413" lon="18.69476">
        <ele>30.203903</ele>
        <time>2024-08-04T11:35:44.955Z</time>
      </trkpt>
      <trkpt lat="54.31415" lon="18.69496">
        <ele>30.150517</ele>
        <time>2024-08-04T11:35:47.939Z</time>
      </trkpt>
      <trkpt lat="54.31418" lon="18.69514">
        <ele>30.100383</ele>
        <time>2024-08-04T11:35:50.942Z</time>
      </trkpt>
      <trkpt lat="54.31422" lon="18.69532">
        <ele>30.05084</ele>
        <time>2024-08-04T11:35:53.957Z</time>
      </trkpt>
      <trkpt lat="54.31425" lon="18.6955">
        <ele>29.999896</ele>
        <time>2024-08-04T11:35:56.954Z</time>
      </trkpt>
      <trkpt lat="54.31429" lon="18.69568">
        <ele>29.94825</ele>
        <time>2024-08-04T11:35:59.963Z</time>
      </trkpt>
      <trkpt lat="54.31434" lon="18.69588">
        <ele>29.892167</ele>
        <time>2024-08-04T11:36:02.949Z</time>
      </trkpt>
      <trkpt lat="54.31438" lon="18.69606">
        <ele>29.840324</ele>
        <time>2024-08-04T11:36:05.951Z</time>
      </trkpt>
      <trkpt lat="54.31441" lon="18.69625">
        <ele>29.78938</ele>
        <time>2024-08-04T11:36:08.941Z</time>
      </trkpt>
      <trkpt lat="54.31444" lon="18.69644">
        <ele>29.737647</ele>
        <time>2024-08-04T11:36:12.002Z</time>
      </trkpt>
      <trkpt lat="54.31445" lon="18.69663">
        <ele>29.685492</ele>
        <time>2024-08-04T11:36:14.958Z</time>
      </trkpt>
      <trkpt lat="54.31445" lon="18.69683">
        <ele>29.757409</ele>
        <time>2024-08-04T11:36:17.960Z</time>
      </trkpt>
      <trkpt lat="54.31445" lon="18.69701">
        <ele>29.828068</ele>
        <time>2024-08-04T11:36:20.956Z</time>
      </trkpt>
      <trkpt lat="54.31443" lon="18.69719">
        <ele>29.898244</ele>
        <time>2024-08-04T11:36:23.968Z</time>
      </trkpt>
      <trkpt lat="54.31441" lon="18.69736">
        <ele>29.96799</ele>
        <time>2024-08-04T11:36:26.958Z</time>
      </trkpt>
      <trkpt lat="54.3144" lon="18.69754">
        <ele>30.03679</ele>
        <time>2024-08-04T11:36:29.938Z</time>
      </trkpt>
      <trkpt lat="54.31439" lon="18.69771">
        <ele>30.104738</ele>
        <time>2024-08-04T11:36:32.937Z</time>
      </trkpt>
      <trkpt lat="54.31438" lon="18.69791">
        <ele>30.180211</ele>
        <time>2024-08-04T11:36:35.956Z</time>
      </trkpt>
      <trkpt lat="54.31438" lon="18.69809">
        <ele>30.25237</ele>
        <time>2024-08-04T11:36:38.938Z</time>
      </trkpt>
      <trkpt lat="54.31438" lon="18.69829">
        <ele>30.329159</ele>
        <time>2024-08-04T11:36:41.991Z</time>
      </trkpt>
      <trkpt lat="54.3144" lon="18.69848">
        <ele>30.403659</ele>
        <time>2024-08-04T11:36:44.931Z</time>
      </trkpt>
      <trkpt lat="54.31442" lon="18.69868">
        <ele>30.482734</ele>
        <time>2024-08-04T11:36:47.947Z</time>
      </trkpt>
      <trkpt lat="54.31444" lon="18.69888">
        <ele>30.560901</ele>
        <time>2024-08-04T11:36:50.951Z</time>
      </trkpt>
      <trkpt lat="54.31445" lon="18.69907">
        <ele>30.634964</ele>
        <time>2024-08-04T11:36:53.960Z</time>
      </trkpt>
      <trkpt lat="54.31446" lon="18.69926">
        <ele>30.707016</ele>
        <time>2024-08-04T11:36:56.947Z</time>
      </trkpt>
      <trkpt lat="54.31446" lon="18.69945">
        <ele>30.783027</ele>
        <time>2024-08-04T11:36:59.950Z</time>
      </trkpt>
      <trkpt lat="54.31446" lon="18.69965">
        <ele>30.861389</ele>
        <time>2024-08-04T11:37:02.954Z</time>
      </trkpt>
      <trkpt lat="54.31446" lon="18.69986">
        <ele>30.845816</ele>
        <time>2024-08-04T11:37:05.942Z</time>
      </trkpt>
      <trkpt lat="54.31444" lon="18.70006">
        <ele>30.801225</ele>
        <time>2024-08-04T11:37:08.948Z</time>
      </trkpt>
      <trkpt lat="54.31442" lon="18.70024">
        <ele>30.75948</ele>
        <time>2024-08-04T11:37:11.931Z</time>
      </trkpt>
      <trkpt lat="54.31439" lon="18.70044">
        <ele>30.715834</ele>
        <time>2024-08-04T11:37:14.964Z</time>
      </trkpt>
      <trkpt lat="54.31437" lon="18.70063">
        <ele>30.672924</ele>
        <time>2024-08-04T11:37:17.945Z</time>
      </trkpt>
      <trkpt lat="54.31436" lon="18.70081">
        <ele>30.632255</ele>
        <time>2024-08-04T11:37:20.949Z</time>
      </trkpt>
      <trkpt lat="54.31437" lon="18.70099">
        <ele>30.593384</ele>
        <time>2024-08-04T11:37:23.938Z</time>
      </trkpt>
      <trkpt lat="54.31439" lon="18.70116">
        <ele>30.554233</ele>
        <time>2024-08-04T11:37:26.941Z</time>
      </trkpt>
      <trkpt lat="54.31443" lon="18.70132">
        <ele>30.516446</ele>
        <time>2024-08-04T11:37:29.946Z</time>
      </trkpt>
      <trkpt lat="54.31447" lon="18.70148">
        <ele>30.478111</ele>
        <time>2024-08-04T11:37:32.947Z</time>
      </trkpt>
      <trkpt lat="54.3145" lon="18.70165">
        <ele>30.438444</ele>
        <time>2024-08-04T11:37:35.951Z</time>
      </trkpt>
      <trkpt lat="54.31453" lon="18.70185">
        <ele>30.3937</ele>
        <time>2024-08-04T11:37:38.955Z</time>
      </trkpt>
      <trkpt lat="54.31456" lon="18.70206">
        <ele>30.345826</ele>
        <time>2024-08-04T11:37:41.991Z</time>
      </trkpt>
      <trkpt lat="54.31458" lon="18.70226">
        <ele>30.300679</ele>
        <time>2024-08-04T11:37:44.948Z</time>
      </trkpt>
      <trkpt lat="54.31456" lon="18.70244">
        <ele>30.260058</ele>
        <time>2024-08-04T11:37:47.964Z</time>
      </trkpt>
      <trkpt lat="54.31451" lon="18.70257">
        <ele>30.225291</ele>
        <time>2024-08-04T11:37:50.939Z</time>
      </trkpt>
      <trkpt lat="54.31441" lon="18.70268">
        <ele>30.225992</ele>
        <time>2024-08-04T11:37:54.950Z</time>
      </trkpt>
      <trkpt lat="54.31432" lon="18.7027">
        <ele>30.274881</ele>
        <time>2024-08-04T11:37:57.941Z</time>
      </trkpt>
      <trkpt lat="54.31422" lon="18.70271">
        <ele>30.324731</ele>
        <time>2024-08-04T11:38:00.953Z</time>
      </trkpt>
      <trkpt lat="54.31412" lon="18.70272">
        <ele>30.378495</ele>
        <time>2024-08-04T11:38:03.960Z</time>
      </trkpt>
      <trkpt lat="54.31401" lon="18.70275">
        <ele>30.435815</ele>
        <time>2024-08-04T11:38:06.947Z</time>
      </trkpt>
      <trkpt lat="54.3139" lon="18.70278">
        <ele>30.490622</ele>
        <time>2024-08-04T11:38:09.945Z</time>
      </trkpt>
      <trkpt lat="54.31379" lon="18.7028">
        <ele>30.547749</ele>
        <time>2024-08-04T11:38:12.967Z</time>
      </trkpt>
      <trkpt lat="54.31367" lon="18.70282">
        <ele>30.607046</ele>
        <time>2024-08-04T11:38:15.966Z</time>
      </trkpt>
      <trkpt lat="54.31356" lon="18.70286">
        <ele>30.665986</ele>
        <time>2024-08-04T11:38:18.965Z</time>
      </trkpt>
      <trkpt lat="54.31346" lon="18.70291">
        <ele>30.721952</ele>
        <time>2024-08-04T11:38:21.969Z</time>
      </trkpt>
      <trkpt lat="54.31335" lon="18.70296">
        <ele>30.779128</ele>
        <time>2024-08-04T11:38:24.949Z</time>
      </trkpt>
      <trkpt lat="54.31324" lon="18.70303">
        <ele>30.835971</ele>
        <time>2024-08-04T11:38:27.958Z</time>
      </trkpt>
      <trkpt lat="54.31314" lon="18.7031">
        <ele>30.895955</ele>
        <time>2024-08-04T11:38:30.973Z</time>
      </trkpt>
      <trkpt lat="54.31304" lon="18.7032">
        <ele>30.954922</ele>
        <time>2024-08-04T11:38:33.952Z</time>
      </trkpt>
      <trkpt lat="54.31295" lon="18.70331">
        <ele>31.009728</ele>
        <time>2024-08-04T11:38:36.940Z</time>
      </trkpt>
      <trkpt lat="54.31288" lon="18.70343">
        <ele>31.059895</ele>
        <time>2024-08-04T11:38:39.963Z</time>
      </trkpt>
      <trkpt lat="54.31281" lon="18.70356">
        <ele>31.111605</ele>
        <time>2024-08-04T11:38:42.953Z</time>
      </trkpt>
      <trkpt lat="54.31275" lon="18.7037">
        <ele>31.163866</ele>
        <time>2024-08-04T11:38:45.947Z</time>
      </trkpt>
      <trkpt lat="54.31269" lon="18.70386">
        <ele>31.215617</ele>
        <time>2024-08-04T11:38:48.952Z</time>
      </trkpt>
      <trkpt lat="54.31264" lon="18.70401">
        <ele>31.266095</ele>
        <time>2024-08-04T11:38:51.968Z</time>
      </trkpt>
      <trkpt lat="54.31261" lon="18.70417">
        <ele>31.313741</ele>
        <time>2024-08-04T11:38:54.956Z</time>
      </trkpt>
      <trkpt lat="54.31258" lon="18.70434">
        <ele>31.363718</ele>
        <time>2024-08-04T11:38:57.946Z</time>
      </trkpt>
      <trkpt lat="54.31257" lon="18.7045">
        <ele>31.411747</ele>
        <time>2024-08-04T11:39:00.943Z</time>
      </trkpt>
      <trkpt lat="54.31255" lon="18.70468">
        <ele>31.462319</ele>
        <time>2024-08-04T11:39:03.943Z</time>
      </trkpt>
      <trkpt lat="54.31254" lon="18.70486">
        <ele>31.513296</ele>
        <time>2024-08-04T11:39:06.942Z</time>
      </trkpt>
      <trkpt lat="54.31254" lon="18.70504">
        <ele>31.565081</ele>
        <time>2024-08-04T11:39:09.960Z</time>
      </trkpt>
      <trkpt lat="54.31253" lon="18.70521">
        <ele>31.615312</ele>
        <time>2024-08-04T11:39:12.914Z</time>
      </trkpt>
      <trkpt lat="54.31252" lon="18.70539">
        <ele>31.666773</ele>
        <time>2024-08-04T11:39:15.928Z</time>
      </trkpt>
      <trkpt lat="54.31252" lon="18.70556">
        <ele>31.714382</ele>
        <time>2024-08-04T11:39:18.923Z</time>
      </trkpt>
      <trkpt lat="54.31252" lon="18.70574">
        <ele>31.764614</ele>
        <time>2024-08-04T11:39:21.918Z</time>
      </trkpt>
      <trkpt lat="54.31251" lon="18.70593">
        <ele>31.818316</ele>
        <time>2024-08-04T11:39:24.914Z</time>
      </trkpt>
      <trkpt lat="54.31251" lon="18.7061">
        <ele>31.867635</ele>
        <time>2024-08-04T11:39:27.923Z</time>
      </trkpt>
      <trkpt lat="54.31251" lon="18.70626">
        <ele>31.914674</ele>
        <time>2024-08-04T11:39:30.925Z</time>
      </trkpt>
      <trkpt lat="54.31251" lon="18.70644">
        <ele>31.964315</ele>
        <time>2024-08-04T11:39:33.923Z</time>
      </trkpt>
      <trkpt lat="54.31253" lon="18.70661">
        <ele>31.986077</ele>
        <time>2024-08-04T11:39:36.921Z</time>
      </trkpt>
      <trkpt lat="54.31255" lon="18.70677">
        <ele>31.939572</ele>
        <time>2024-08-04T11:39:39.924Z</time>
      </trkpt>
      <trkpt lat="54.31257" lon="18.70694">
        <ele>31.890638</ele>
        <time>2024-08-04T11:39:42.919Z</time>
      </trkpt>
      <trkpt lat="54.3126" lon="18.70711">
        <ele>31.840929</ele>
        <time>2024-08-04T11:39:45.919Z</time>
      </trkpt>
      <trkpt lat="54.31262" lon="18.70728">
        <ele>31.790552</ele>
        <time>2024-08-04T11:39:48.912Z</time>
      </trkpt>
      <trkpt lat="54.31264" lon="18.70745">
        <ele>31.741672</ele>
        <time>2024-08-04T11:39:51.914Z</time>
      </trkpt>
      <trkpt lat="54.31266" lon="18.70761">
        <ele>31.694152</ele>
        <time>2024-08-04T11:39:54.916Z</time>
      </trkpt>
      <trkpt lat="54.31269" lon="18.70778">
        <ele>31.645824</ele>
        <time>2024-08-04T11:39:57.921Z</time>
      </trkpt>
      <trkpt lat="54.31272" lon="18.70793">
        <ele>31.598894</ele>
        <time>2024-08-04T11:40:00.915Z</time>
      </trkpt>
      <trkpt lat="54.31275" lon="18.70808">
        <ele>31.554175</ele>
        <time>2024-08-04T11:40:03.909Z</time>
      </trkpt>
      <trkpt lat="54.31279" lon="18.70823">
        <ele>31.505486</ele>
        <time>2024-08-04T11:40:07.919Z</time>
      </trkpt>
      <trkpt lat="54.31285" lon="18.70838">
        <ele>31.456029</ele>
        <time>2024-08-04T11:40:11.922Z</time>
      </trkpt>
      <trkpt lat="54.31292" lon="18.70855">
        <ele>31.396427</ele>
        <time>2024-08-04T11:42:48.952Z</time>
      </trkpt>
      <trkpt lat="54.31297" lon="18.70871">
        <ele>31.344818</ele>
        <time>2024-08-04T11:42:52.948Z</time>
      </trkpt>
      <trkpt lat="54.313" lon="18.70886">
        <ele>31.298112</ele>
        <time>2024-08-04T11:42:55.943Z</time>
      </trkpt>
      <trkpt lat="54.31302" lon="18.70902">
        <ele>31.252441</ele>
        <time>2024-08-04T11:42:58.944Z</time>
      </trkpt>
      <trkpt lat="54.31304" lon="18.70918">
        <ele>31.206742</ele>
        <time>2024-08-04T11:43:01.955Z</time>
      </trkpt>
      <trkpt lat="54.31305" lon="18.70935">
        <ele>31.158979</ele>
        <time>2024-08-04T11:43:04.941Z</time>
      </trkpt>
      <trkpt lat="54.31306" lon="18.70952">
        <ele>31.108341</ele>
        <time>2024-08-04T11:43:07.945Z</time>
      </trkpt>
      <trkpt lat="54.31308" lon="18.7097">
        <ele>31.053678</ele>
        <time>2024-08-04T11:43:10.956Z</time>
      </trkpt>
      <trkpt lat="54.31308" lon="18.70988">
        <ele>30.995962</ele>
        <time>2024-08-04T11:43:13.949Z</time>
      </trkpt>
      <trkpt lat="54.31311" lon="18.71009">
        <ele>30.931527</ele>
        <time>2024-08-04T11:43:16.949Z</time>
      </trkpt>
      <trkpt lat="54.31314" lon="18.7103">
        <ele>30.864879</ele>
        <time>2024-08-04T11:43:19.959Z</time>
      </trkpt>
      <trkpt lat="54.31318" lon="18.71049">
        <ele>30.803148</ele>
        <time>2024-08-04T11:43:22.947Z</time>
      </trkpt>
      <trkpt lat="54.31321" lon="18.71069">
        <ele>30.739181</ele>
        <time>2024-08-04T11:43:25.943Z</time>
      </trkpt>
      <trkpt lat="54.31324" lon="18.71089">
        <ele>30.67636</ele>
        <time>2024-08-04T11:43:28.947Z</time>
      </trkpt>
      <trkpt lat="54.31326" lon="18.71109">
        <ele>30.613998</ele>
        <time>2024-08-04T11:43:31.955Z</time>
      </trkpt>
      <trkpt lat="54.31326" lon="18.71128">
        <ele>30.554992</ele>
        <time>2024-08-04T11:43:34.944Z</time>
      </trkpt>
      <trkpt lat="54.31326" lon="18.71147">
        <ele>30.497874</ele>
        <time>2024-08-04T11:43:37.962Z</time>
      </trkpt>
      <trkpt lat="54.31323" lon="18.71165">
        <ele>30.442108</ele>
        <time>2024-08-04T11:43:40.943Z</time>
      </trkpt>
      <trkpt lat="54.31321" lon="18.71184">
        <ele>30.382218</ele>
        <time>2024-08-04T11:43:44.945Z</time>
      </trkpt>
      <trkpt lat="54.31318" lon="18.712">
        <ele>30.330367</ele>
        <time>2024-08-04T11:43:47.966Z</time>
      </trkpt>
      <trkpt lat="54.31315" lon="18.71218">
        <ele>30.272757</ele>
        <time>2024-08-04T11:43:50.944Z</time>
      </trkpt>
      <trkpt lat="54.31312" lon="18.71238">
        <ele>30.209688</ele>
        <time>2024-08-04T11:43:53.944Z</time>
      </trkpt>
      <trkpt lat="54.3131" lon="18.71258">
        <ele>30.177973</ele>
        <time>2024-08-04T11:43:56.955Z</time>
      </trkpt>
      <trkpt lat="54.31307" lon="18.71277">
        <ele>30.178816</ele>
        <time>2024-08-04T11:43:59.950Z</time>
      </trkpt>
      <trkpt lat="54.31305" lon="18.71299">
        <ele>30.179732</ele>
        <time>2024-08-04T11:44:02.947Z</time>
      </trkpt>
      <trkpt lat="54.31303" lon="18.7132">
        <ele>30.180641</ele>
        <time>2024-08-04T11:44:05.947Z</time>
      </trkpt>
      <trkpt lat="54.31301" lon="18.7134">
        <ele>30.181515</ele>
        <time>2024-08-04T11:44:08.945Z</time>
      </trkpt>
      <trkpt lat="54.31299" lon="18.71361">
        <ele>30.182397</ele>
        <time>2024-08-04T11:44:11.945Z</time>
      </trkpt>
      <trkpt lat="54.31298" lon="18.71381">
        <ele>30.183245</ele>
        <time>2024-08-04T11:44:14.961Z</time>
      </trkpt>
      <trkpt lat="54.31299" lon="18.714">
        <ele>30.184065</ele>
        <time>2024-08-04T11:44:17.929Z</time>
      </trkpt>
      <trkpt lat="54.31301" lon="18.71419">
        <ele>30.184881</ele>
        <time>2024-08-04T11:44:20.964Z</time>
      </trkpt>
      <trkpt lat="54.31304" lon="18.71438">
        <ele>30.185738</ele>
        <time>2024-08-04T11:44:23.943Z</time>
      </trkpt>
      <trkpt lat="54.31307" lon="18.71459">
        <ele>30.186629</ele>
        <time>2024-08-04T11:44:26.958Z</time>
      </trkpt>
      <trkpt lat="54.3131" lon="18.71478">
        <ele>30.187473</ele>
        <time>2024-08-04T11:44:29.936Z</time>
      </trkpt>
      <trkpt lat="54.31313" lon="18.71496">
        <ele>30.188251</ele>
        <time>2024-08-04T11:44:32.944Z</time>
      </trkpt>
      <trkpt lat="54.31309" lon="18.71511">
        <ele>30.188937</ele>
        <time>2024-08-04T11:44:35.933Z</time>
      </trkpt>
      <trkpt lat="54.31298" lon="18.71518">
        <ele>30.189799</ele>
        <time>2024-08-04T11:44:39.948Z</time>
      </trkpt>
      <trkpt lat="54.31288" lon="18.71522">
        <ele>30.190603</ele>
        <time>2024-08-04T11:44:42.947Z</time>
      </trkpt>
      <trkpt lat="54.31277" lon="18.71527">
        <ele>30.16736</ele>
        <time>2024-08-04T11:44:45.945Z</time>
      </trkpt>
      <trkpt lat="54.31265" lon="18.71531">
        <ele>30.142001</ele>
        <time>2024-08-04T11:44:48.952Z</time>
      </trkpt>
      <trkpt lat="54.31254" lon="18.71536">
        <ele>30.11739</ele>
        <time>2024-08-04T11:44:51.953Z</time>
      </trkpt>
      <trkpt lat="54.31242" lon="18.7154">
        <ele>30.090876</ele>
        <time>2024-08-04T11:44:54.939Z</time>
      </trkpt>
      <trkpt lat="54.3123" lon="18.71544">
        <ele>30.06386</ele>
        <time>2024-08-04T11:44:57.926Z</time>
      </trkpt>
      <trkpt lat="54.31217" lon="18.71549">
        <ele>30.036236</ele>
        <time>2024-08-04T11:45:00.947Z</time>
      </trkpt>
      <trkpt lat="54.31205" lon="18.71554">
        <ele>30.008264</ele>
        <time>2024-08-04T11:45:03.943Z</time>
      </trkpt>
      <trkpt lat="54.31196" lon="18.71557">
        <ele>29.988671</ele>
        <time>2024-08-04T11:45:05.945Z</time>
      </trkpt>
      <trkpt lat="54.31183" lon="18.71562">
        <ele>29.959742</ele>
        <time>2024-08-04T11:45:08.949Z</time>
      </trkpt>
      <trkpt lat="54.3117" lon="18.71567">
        <ele>29.931503</ele>
        <time>2024-08-04T11:45:11.989Z</time>
      </trkpt>
      <trkpt lat="54.31157" lon="18.71573">
        <ele>29.902123</ele>
        <time>2024-08-04T11:45:14.965Z</time>
      </trkpt>
      <trkpt lat="54.31144" lon="18.71578">
        <ele>29.873463</ele>
        <time>2024-08-04T11:45:17.942Z</time>
      </trkpt>
      <trkpt lat="54.31132" lon="18.71583">
        <ele>29.846208</ele>
        <time>2024-08-04T11:45:20.954Z</time>
      </trkpt>
      <trkpt lat="54.3112" lon="18.71587">
        <ele>29.819007</ele>
        <time>2024-08-04T11:45:23.955Z</time>
      </trkpt>
      <trkpt lat="54.31108" lon="18.71593">
        <ele>29.823883</ele>
        <time>2024-08-04T11:45:26.954Z</time>
      </trkpt>
      <trkpt lat="54.31096" lon="18.71596">
        <ele>29.888829</ele>
        <time>2024-08-04T11:45:29.952Z</time>
      </trkpt>
      <trkpt lat="54.31084" lon="18.716">
        <ele>29.953077</ele>
        <time>2024-08-04T11:45:32.948Z</time>
      </trkpt>
      <trkpt lat="54.31072" lon="18.71605">
        <ele>30.018468</ele>
        <time>2024-08-04T11:45:35.942Z</time>
      </trkpt>
      <trkpt lat="54.3106" lon="18.71609">
        <ele>30.082678</ele>
        <time>2024-08-04T11:45:38.947Z</time>
      </trkpt>
      <trkpt lat="54.31048" lon="18.71614">
        <ele>30.149254</ele>
        <time>2024-08-04T11:45:42.011Z</time>
      </trkpt>
      <trkpt lat="54.31036" lon="18.71619">
        <ele>30.219396</ele>
        <time>2024-08-04T11:45:44.965Z</time>
      </trkpt>
      <trkpt lat="54.31027" lon="18.71623">
        <ele>30.268798</ele>
        <time>2024-08-04T11:45:46.958Z</time>
      </trkpt>
      <trkpt lat="54.31015" lon="18.71625">
        <ele>30.329835</ele>
        <time>2024-08-04T11:45:49.949Z</time>
      </trkpt>
      <trkpt lat="54.31006" lon="18.71628">
        <ele>30.378708</ele>
        <time>2024-08-04T11:45:52.953Z</time>
      </trkpt>
      <trkpt lat="54.31001" lon="18.71643">
        <ele>30.435217</ele>
        <time>2024-08-04T11:45:56.949Z</time>
      </trkpt>
      <trkpt lat="54.30999" lon="18.71658">
        <ele>30.484748</ele>
        <time>2024-08-04T11:46:00.965Z</time>
      </trkpt>
      <trkpt lat="54.30998" lon="18.71674">
        <ele>30.534614</ele>
        <time>2024-08-04T11:46:04.947Z</time>
      </trkpt>
      <trkpt lat="54.30998" lon="18.71693">
        <ele>30.593429</ele>
        <time>2024-08-04T11:46:09.966Z</time>
      </trkpt>
      <trkpt lat="54.31" lon="18.71721">
        <ele>30.681584</ele>
        <time>2024-08-04T11:50:03.941Z</time>
      </trkpt>
      <trkpt lat="54.30999" lon="18.71744">
        <ele>30.75305</ele>
        <time>2024-08-04T11:50:06.954Z</time>
      </trkpt>
      <trkpt lat="54.30998" lon="18.71762">
        <ele>30.707972</ele>
        <time>2024-08-04T11:50:08.950Z</time>
      </trkpt>
      <trkpt lat="54.30997" lon="18.71783">
        <ele>30.623205</ele>
        <time>2024-08-04T11:50:12.005Z</time>
      </trkpt>
      <trkpt lat="54.30997" lon="18.71799">
        <ele>30.556024</ele>
        <time>2024-08-04T11:50:14.962Z</time>
      </trkpt>
      <trkpt lat="54.30997" lon="18.71818">
        <ele>30.479035</ele>
        <time>2024-08-04T11:50:18.946Z</time>
      </trkpt>
      <trkpt lat="54.30996" lon="18.71837">
        <ele>30.400169</ele>
        <time>2024-08-04T11:50:22.948Z</time>
      </trkpt>
      <trkpt lat="54.30996" lon="18.71853">
        <ele>30.333429</ele>
        <time>2024-08-04T11:50:25.950Z</time>
      </trkpt>
      <trkpt lat="54.30996" lon="18.7187">
        <ele>30.266266</ele>
        <time>2024-08-04T11:50:28.950Z</time>
      </trkpt>
      <trkpt lat="54.30995" lon="18.71886">
        <ele>30.200695</ele>
        <time>2024-08-04T11:50:31.960Z</time>
      </trkpt>
      <trkpt lat="54.30995" lon="18.71902">
        <ele>30.133941</ele>
        <time>2024-08-04T11:50:34.958Z</time>
      </trkpt>
      <trkpt lat="54.30995" lon="18.71918">
        <ele>30.068805</ele>
        <time>2024-08-04T11:50:37.963Z</time>
      </trkpt>
      <trkpt lat="54.30995" lon="18.71938">
        <ele>29.986094</ele>
        <time>2024-08-04T11:50:41.971Z</time>
      </trkpt>
      <trkpt lat="54.30995" lon="18.71958">
        <ele>29.902556</ele>
        <time>2024-08-04T11:50:45.965Z</time>
      </trkpt>
      <trkpt lat="54.30994" lon="18.71978">
        <ele>29.821437</ele>
        <time>2024-08-04T11:50:49.970Z</time>
      </trkpt>
      <trkpt lat="54.30994" lon="18.71997">
        <ele>29.744459</ele>
        <time>2024-08-04T11:50:53.950Z</time>
      </trkpt>
      <trkpt lat="54.30994" lon="18.72017">
        <ele>29.664568</ele>
        <time>2024-08-04T11:50:57.947Z</time>
      </trkpt>
      <trkpt lat="54.30993" lon="18.72035">
        <ele>29.587477</ele>
        <time>2024-08-04T11:51:01.967Z</time>
      </trkpt>
      <trkpt lat="54.30993" lon="18.72056">
        <ele>29.504253</ele>
        <time>2024-08-04T11:51:05.950Z</time>
      </trkpt>
      <trkpt lat="54.30992" lon="18.72074">
        <ele>29.526191</ele>
        <time>2024-08-04T11:51:09.944Z</time>
      </trkpt>
      <trkpt lat="54.30992" lon="18.72094">
        <ele>29.549738</ele>
        <time>2024-08-04T11:51:13.948Z</time>
      </trkpt>
      <trkpt lat="54.30992" lon="18.72114">
        <ele>29.574148</ele>
        <time>2024-08-04T11:51:17.958Z</time>
      </trkpt>
      <trkpt lat="54.30992" lon="18.72134">
        <ele>29.59843</ele>
        <time>2024-08-04T11:51:21.961Z</time>
      </trkpt>
      <trkpt lat="54.30991" lon="18.72153">
        <ele>29.622132</ele>
        <time>2024-08-04T11:51:25.948Z</time>
      </trkpt>
      <trkpt lat="54.30991" lon="18.72172">
        <ele>29.645558</ele>
        <time>2024-08-04T11:51:29.948Z</time>
      </trkpt>
      <trkpt lat="54.3099" lon="18.72188">
        <ele>29.664997</ele>
        <time>2024-08-04T11:51:32.966Z</time>
      </trkpt>
      <trkpt lat="54.3099" lon="18.72205">
        <ele>29.685268</ele>
        <time>2024-08-04T11:51:35.962Z</time>
      </trkpt>
      <trkpt lat="54.30989" lon="18.72225">
        <ele>29.709813</ele>
        <time>2024-08-04T11:51:39.951Z</time>
      </trkpt>
      <trkpt lat="54.30989" lon="18.72242">
        <ele>29.731287</ele>
        <time>2024-08-04T11:51:42.949Z</time>
      </trkpt>
      <trkpt lat="54.30989" lon="18.72261">
        <ele>29.754227</ele>
        <time>2024-08-04T11:51:45.953Z</time>
      </trkpt>
      <trkpt lat="54.30989" lon="18.72279">
        <ele>29.776457</ele>
        <time>2024-08-04T11:51:48.957Z</time>
      </trkpt>
      <trkpt lat="54.30988" lon="18.72297">
        <ele>29.798467</ele>
        <time>2024-08-04T11:51:51.968Z</time>
      </trkpt>
      <trkpt lat="54.30988" lon="18.72314">
        <ele>29.818607</ele>
        <time>2024-08-04T11:51:54.948Z</time>
      </trkpt>
      <trkpt lat="54.30987" lon="18.72331">
        <ele>29.839358</ele>
        <time>2024-08-04T11:51:57.942Z</time>
      </trkpt>
      <trkpt lat="54.30987" lon="18.72348">
        <ele>29.859611</ele>
        <time>2024-08-04T11:52:00.955Z</time>
      </trkpt>
      <trkpt lat="54.30987" lon="18.72364">
        <ele>29.879659</ele>
        <time>2024-08-04T11:52:03.948Z</time>
      </trkpt>
      <trkpt lat="54.30986" lon="18.7238">
        <ele>29.881162</ele>
        <time>2024-08-04T11:52:06.955Z</time>
      </trkpt>
      <trkpt lat="54.30985" lon="18.72396">
        <ele>29.882687</ele>
        <time>2024-08-04T11:52:09.954Z</time>
      </trkpt>
      <trkpt lat="54.30982" lon="18.72413">
        <ele>29.88444</ele>
        <time>2024-08-04T11:52:13.959Z</time>
      </trkpt>
      <trkpt lat="54.30978" lon="18.72432">
        <ele>29.886377</ele>
        <time>2024-08-04T11:52:17.955Z</time>
      </trkpt>
      <trkpt lat="54.30974" lon="18.72452">
        <ele>29.888342</ele>
        <time>2024-08-04T11:52:21.969Z</time>
      </trkpt>
      <trkpt lat="54.30971" lon="18.72466">
        <ele>29.889855</ele>
        <time>2024-08-04T11:52:24.946Z</time>
      </trkpt>
      <trkpt lat="54.30968" lon="18.72482">
        <ele>29.891371</ele>
        <time>2024-08-04T11:52:27.961Z</time>
      </trkpt>
      <trkpt lat="54.30967" lon="18.72498">
        <ele>29.892946</ele>
        <time>2024-08-04T11:52:30.965Z</time>
      </trkpt>
      <trkpt lat="54.30965" lon="18.72515">
        <ele>29.894644</ele>
        <time>2024-08-04T11:52:33.962Z</time>
      </trkpt>
      <trkpt lat="54.30964" lon="18.72532">
        <ele>29.896276</ele>
        <time>2024-08-04T11:52:36.949Z</time>
      </trkpt>
      <trkpt lat="54.30962" lon="18.72548">
        <ele>29.897862</ele>
        <time>2024-08-04T11:52:39.960Z</time>
      </trkpt>
      <trkpt lat="54.30961" lon="18.72565">
        <ele>29.899503</ele>
        <time>2024-08-04T11:52:42.945Z</time>
      </trkpt>
      <trkpt lat="54.30959" lon="18.72583">
        <ele>29.901199</ele>
        <time>2024-08-04T11:52:45.945Z</time>
      </trkpt>
      <trkpt lat="54.30958" lon="18.726">
        <ele>29.90283</ele>
        <time>2024-08-04T11:52:48.955Z</time>
      </trkpt>
      <trkpt lat="54.30957" lon="18.7262">
        <ele>29.904812</ele>
        <time>2024-08-04T11:52:52.952Z</time>
      </trkpt>
      <trkpt lat="54.30956" lon="18.72637">
        <ele>29.906452</ele>
        <time>2024-08-04T11:52:55.956Z</time>
      </trkpt>
      <trkpt lat="54.30955" lon="18.72654">
        <ele>29.908038</ele>
        <time>2024-08-04T11:52:58.951Z</time>
      </trkpt>
      <trkpt lat="54.30956" lon="18.72671">
        <ele>29.91605</ele>
        <time>2024-08-04T11:53:02.000Z</time>
      </trkpt>
      <trkpt lat="54.30956" lon="18.7269">
        <ele>29.939467</ele>
        <time>2024-08-04T11:53:04.954Z</time>
      </trkpt>
      <trkpt lat="54.30957" lon="18.7271">
        <ele>29.964606</ele>
        <time>2024-08-04T11:53:07.943Z</time>
      </trkpt>
      <trkpt lat="54.30959" lon="18.72728">
        <ele>29.988694</ele>
        <time>2024-08-04T11:53:10.962Z</time>
      </trkpt>
      <trkpt lat="54.3096" lon="18.72745">
        <ele>30.009952</ele>
        <time>2024-08-04T11:53:13.954Z</time>
      </trkpt>
      <trkpt lat="54.30962" lon="18.72762">
        <ele>30.031641</ele>
        <time>2024-08-04T11:53:16.944Z</time>
      </trkpt>
      <trkpt lat="54.30965" lon="18.72778">
        <ele>30.052538</ele>
        <time>2024-08-04T11:53:19.955Z</time>
      </trkpt>
      <trkpt lat="54.30967" lon="18.72793">
        <ele>30.072945</ele>
        <time>2024-08-04T11:53:22.955Z</time>
      </trkpt>
      <trkpt lat="54.3097" lon="18.72813">
        <ele>30.098347</ele>
        <time>2024-08-04T11:53:26.953Z</time>
      </trkpt>
      <trkpt lat="54.30971" lon="18.72828">
        <ele>30.117874</ele>
        <time>2024-08-04T11:53:29.952Z</time>
      </trkpt>
      <trkpt lat="54.30973" lon="18.72844">
        <ele>30.138078</ele>
        <time>2024-08-04T11:53:32.964Z</time>
      </trkpt>
      <trkpt lat="54.30978" lon="18.72861">
        <ele>30.162176</ele>
        <time>2024-08-04T11:53:36.944Z</time>
      </trkpt>
      <trkpt lat="54.30985" lon="18.72872">
        <ele>30.18235</ele>
        <time>2024-08-04T11:53:39.931Z</time>
      </trkpt>
      <trkpt lat="54.30993" lon="18.7288">
        <ele>30.202459</ele>
        <time>2024-08-04T11:53:43.937Z</time>
      </trkpt>
      <trkpt lat="54.31" lon="18.72891">
        <ele>30.222873</ele>
        <time>2024-08-04T11:53:48.925Z</time>
      </trkpt>
      <trkpt lat="54.31008" lon="18.72902">
        <ele>30.246118</ele>
        <time>2024-08-04T11:53:54.947Z</time>
      </trkpt>
      <trkpt lat="54.31014" lon="18.72923">
        <ele>30.275696</ele>
        <time>2024-08-04T11:55:57.937Z</time>
      </trkpt>
      <trkpt lat="54.31008" lon="18.72939">
        <ele>30.297475</ele>
        <time>2024-08-04T11:56:02.943Z</time>
      </trkpt>
      <trkpt lat="54.30999" lon="18.72949">
        <ele>30.257197</ele>
        <time>2024-08-04T11:56:06.944Z</time>
      </trkpt>
      <trkpt lat="54.3099" lon="18.72959">
        <ele>30.216003</ele>
        <time>2024-08-04T11:56:10.939Z</time>
      </trkpt>
      <trkpt lat="54.3098" lon="18.7297">
        <ele>30.173888</ele>
        <time>2024-08-04T11:56:14.936Z</time>
      </trkpt>
      <trkpt lat="54.30972" lon="18.72977">
        <ele>30.138599</ele>
        <time>2024-08-04T11:56:18.947Z</time>
      </trkpt>
      <trkpt lat="54.30964" lon="18.72988">
        <ele>30.10092</ele>
        <time>2024-08-04T11:56:22.948Z</time>
      </trkpt>
      <trkpt lat="54.30955" lon="18.72997">
        <ele>30.064358</ele>
        <time>2024-08-04T11:56:26.957Z</time>
      </trkpt>
      <trkpt lat="54.30946" lon="18.73008">
        <ele>30.021764</ele>
        <time>2024-08-04T11:56:30.962Z</time>
      </trkpt>
      <trkpt lat="54.30937" lon="18.73017">
        <ele>29.984684</ele>
        <time>2024-08-04T11:56:33.938Z</time>
      </trkpt>
      <trkpt lat="54.30929" lon="18.73027">
        <ele>29.946671</ele>
        <time>2024-08-04T11:56:36.977Z</time>
      </trkpt>
      <trkpt lat="54.3092" lon="18.73037">
        <ele>29.906888</ele>
        <time>2024-08-04T11:56:39.941Z</time>
      </trkpt>
      <trkpt lat="54.30913" lon="18.73047">
        <ele>29.871554</ele>
        <time>2024-08-04T11:56:42.945Z</time>
      </trkpt>
      <trkpt lat="54.30906" lon="18.73059">
        <ele>29.836692</ele>
        <time>2024-08-04T11:56:45.954Z</time>
      </trkpt>
      <trkpt lat="54.30904" lon="18.73074">
        <ele>29.802359</ele>
        <time>2024-08-04T11:56:48.951Z</time>
      </trkpt>
      <trkpt lat="54.30903" lon="18.73092">
        <ele>29.763475</ele>
        <time>2024-08-04T11:56:51.962Z</time>
      </trkpt>
      <trkpt lat="54.30899" lon="18.73108">
        <ele>29.725346</ele>
        <time>2024-08-04T11:56:54.935Z</time>
      </trkpt>
      <trkpt lat="54.30894" lon="18.73121">
        <ele>29.690578</ele>
        <time>2024-08-04T11:56:57.957Z</time>
      </trkpt>
      <trkpt lat="54.30888" lon="18.73133">
        <ele>29.656728</ele>
        <time>2024-08-04T11:57:00.952Z</time>
      </trkpt>
      <trkpt lat="54.30883" lon="18.73146">
        <ele>29.621433</ele>
        <time>2024-08-04T11:57:03.959Z</time>
      </trkpt>
      <trkpt lat="54.30879" lon="18.7316">
        <ele>29.580211</ele>
        <time>2024-08-04T11:57:07.954Z</time>
      </trkpt>
      <trkpt lat="54.30888" lon="18.73191">
        <ele>29.490885</ele>
        <time>2024-08-04T11:57:55.948Z</time>
      </trkpt>
      <trkpt lat="54.30892" lon="18.73208">
        <ele>29.442828</ele>
        <time>2024-08-04T11:57:58.960Z</time>
      </trkpt>
      <trkpt lat="54.30901" lon="18.7322">
        <ele>29.389908</ele>
        <time>2024-08-04T11:58:01.947Z</time>
      </trkpt>
      <trkpt lat="54.30911" lon="18.73233">
        <ele>29.331873</ele>
        <time>2024-08-04T11:58:04.955Z</time>
      </trkpt>
      <trkpt lat="54.30922" lon="18.73246">
        <ele>29.272858</ele>
        <time>2024-08-04T11:58:07.954Z</time>
      </trkpt>
      <trkpt lat="54.30932" lon="18.7326">
        <ele>29.213539</ele>
        <time>2024-08-04T11:58:10.949Z</time>
      </trkpt>
      <trkpt lat="54.30939" lon="18.73269">
        <ele>29.172487</ele>
        <time>2024-08-04T11:58:12.963Z</time>
      </trkpt>
      <trkpt lat="54.30951" lon="18.73275">
        <ele>29.117197</ele>
        <time>2024-08-04T11:58:15.938Z</time>
      </trkpt>
      <trkpt lat="54.3096" lon="18.73289">
        <ele>29.061172</ele>
        <time>2024-08-04T11:58:18.947Z</time>
      </trkpt>
      <trkpt lat="54.3097" lon="18.73304">
        <ele>29.002055</ele>
        <time>2024-08-04T11:58:21.968Z</time>
      </trkpt>
      <trkpt lat="54.3098" lon="18.73319">
        <ele>28.941731</ele>
        <time>2024-08-04T11:58:24.961Z</time>
      </trkpt>
      <trkpt lat="54.3099" lon="18.73334">
        <ele>28.881582</ele>
        <time>2024-08-04T11:58:27.947Z</time>
      </trkpt>
      <trkpt lat="54.31" lon="18.73348">
        <ele>28.820891</ele>
        <time>2024-08-04T11:58:30.964Z</time>
      </trkpt>
      <trkpt lat="54.31008" lon="18.73358">
        <ele>28.782868</ele>
        <time>2024-08-04T11:58:32.951Z</time>
      </trkpt>
      <trkpt lat="54.31015" lon="18.73368">
        <ele>28.746</ele>
        <time>2024-08-04T11:58:34.946Z</time>
      </trkpt>
      <trkpt lat="54.31022" lon="18.73379">
        <ele>28.709768</ele>
        <time>2024-08-04T11:58:36.950Z</time>
      </trkpt>
      <trkpt lat="54.31029" lon="18.73388">
        <ele>28.67318</ele>
        <time>2024-08-04T11:58:38.946Z</time>
      </trkpt>
      <trkpt lat="54.3104" lon="18.73403">
        <ele>28.620385</ele>
        <time>2024-08-04T11:58:41.970Z</time>
      </trkpt>
      <trkpt lat="54.31047" lon="18.73412">
        <ele>28.585251</ele>
        <time>2024-08-04T11:58:43.965Z</time>
      </trkpt>
      <trkpt lat="54.31057" lon="18.73426">
        <ele>28.533624</ele>
        <time>2024-08-04T11:58:46.947Z</time>
      </trkpt>
      <trkpt lat="54.31068" lon="18.7344">
        <ele>28.481726</ele>
        <time>2024-08-04T11:58:49.954Z</time>
      </trkpt>
      <trkpt lat="54.31078" lon="18.73454">
        <ele>28.429409</ele>
        <time>2024-08-04T11:58:52.942Z</time>
      </trkpt>
      <trkpt lat="54.31089" lon="18.73467">
        <ele>28.378625</ele>
        <time>2024-08-04T11:58:55.943Z</time>
      </trkpt>
      <trkpt lat="54.31098" lon="18.73481">
        <ele>28.328219</ele>
        <time>2024-08-04T11:58:58.967Z</time>
      </trkpt>
      <trkpt lat="54.31108" lon="18.73496">
        <ele>28.277219</ele>
        <time>2024-08-04T11:59:01.962Z</time>
      </trkpt>
      <trkpt lat="54.31115" lon="18.73505">
        <ele>28.241577</ele>
        <time>2024-08-04T11:59:03.945Z</time>
      </trkpt>
      <trkpt lat="54.31122" lon="18.73516">
        <ele>28.205923</ele>
        <time>2024-08-04T11:59:05.963Z</time>
      </trkpt>
      <trkpt lat="54.3113" lon="18.73526">
        <ele>28.168014</ele>
        <time>2024-08-04T11:59:07.959Z</time>
      </trkpt>
      <trkpt lat="54.3114" lon="18.7354">
        <ele>28.115737</ele>
        <time>2024-08-04T11:59:10.954Z</time>
      </trkpt>
      <trkpt lat="54.3115" lon="18.73552">
        <ele>28.086391</ele>
        <time>2024-08-04T11:59:13.941Z</time>
      </trkpt>
      <trkpt lat="54.3116" lon="18.73566">
        <ele>28.059548</ele>
        <time>2024-08-04T11:59:16.946Z</time>
      </trkpt>
      <trkpt lat="54.31167" lon="18.73575">
        <ele>28.040082</ele>
        <time>2024-08-04T11:59:18.945Z</time>
      </trkpt>
      <trkpt lat="54.31178" lon="18.73589">
        <ele>28.010778</ele>
        <time>2024-08-04T11:59:22.003Z</time>
      </trkpt>
      <trkpt lat="54.31188" lon="18.73604">
        <ele>27.981564</ele>
        <time>2024-08-04T11:59:24.943Z</time>
      </trkpt>
      <trkpt lat="54.31199" lon="18.73618">
        <ele>27.952321</ele>
        <time>2024-08-04T11:59:27.945Z</time>
      </trkpt>
      <trkpt lat="54.31209" lon="18.73632">
        <ele>27.924974</ele>
        <time>2024-08-04T11:59:30.963Z</time>
      </trkpt>
      <trkpt lat="54.31219" lon="18.73645">
        <ele>27.898598</ele>
        <time>2024-08-04T11:59:33.945Z</time>
      </trkpt>
      <trkpt lat="54.31228" lon="18.73658">
        <ele>27.872246</ele>
        <time>2024-08-04T11:59:36.942Z</time>
      </trkpt>
      <trkpt lat="54.31239" lon="18.73671">
        <ele>27.845088</ele>
        <time>2024-08-04T11:59:39.960Z</time>
      </trkpt>
      <trkpt lat="54.31249" lon="18.73685">
        <ele>27.816925</ele>
        <time>2024-08-04T11:59:42.943Z</time>
      </trkpt>
      <trkpt lat="54.31256" lon="18.73694">
        <ele>27.797481</ele>
        <time>2024-08-04T11:59:44.952Z</time>
      </trkpt>
      <trkpt lat="54.31267" lon="18.73709">
        <ele>27.768355</ele>
        <time>2024-08-04T11:59:47.964Z</time>
      </trkpt>
      <trkpt lat="54.31277" lon="18.73723">
        <ele>27.739453</ele>
        <time>2024-08-04T11:59:50.962Z</time>
      </trkpt>
      <trkpt lat="54.31288" lon="18.73737">
        <ele>27.756923</ele>
        <time>2024-08-04T11:59:53.936Z</time>
      </trkpt>
      <trkpt lat="54.31297" lon="18.73752">
        <ele>27.848311</ele>
        <time>2024-08-04T11:59:56.947Z</time>
      </trkpt>
      <trkpt lat="54.31305" lon="18.73769">
        <ele>27.938876</ele>
        <time>2024-08-04T11:59:59.939Z</time>
      </trkpt>
      <trkpt lat="54.31312" lon="18.73788">
        <ele>28.028188</ele>
        <time>2024-08-04T12:00:02.943Z</time>
      </trkpt>
      <trkpt lat="54.31317" lon="18.73807">
        <ele>28.112001</ele>
        <time>2024-08-04T12:00:05.939Z</time>
      </trkpt>
      <trkpt lat="54.31322" lon="18.73819">
        <ele>28.175727</ele>
        <time>2024-08-04T12:00:08.951Z</time>
      </trkpt>
      <trkpt lat="54.31331" lon="18.73818">
        <ele>28.240717</ele>
        <time>2024-08-04T12:00:12.943Z</time>
      </trkpt>
      <trkpt lat="54.31334" lon="18.73834">
        <ele>28.310652</ele>
        <time>2024-08-04T12:00:17.943Z</time>
      </trkpt>
      <trkpt lat="54.31338" lon="18.73853">
        <ele>28.393518</ele>
        <time>2024-08-04T12:00:21.980Z</time>
      </trkpt>
      <trkpt lat="54.3134" lon="18.73873">
        <ele>28.475423</ele>
        <time>2024-08-04T12:00:24.946Z</time>
      </trkpt>
      <trkpt lat="54.31342" lon="18.73893">
        <ele>28.557739</ele>
        <time>2024-08-04T12:00:27.944Z</time>
      </trkpt>
      <trkpt lat="54.31343" lon="18.73914">
        <ele>28.645934</ele>
        <time>2024-08-04T12:00:30.953Z</time>
      </trkpt>
      <trkpt lat="54.31344" lon="18.73936">
        <ele>28.737056</ele>
        <time>2024-08-04T12:00:33.963Z</time>
      </trkpt>
      <trkpt lat="54.31345" lon="18.73952">
        <ele>28.802254</ele>
        <time>2024-08-04T12:00:35.958Z</time>
      </trkpt>
      <trkpt lat="54.31346" lon="18.73975">
        <ele>28.895507</ele>
        <time>2024-08-04T12:00:38.956Z</time>
      </trkpt>
      <trkpt lat="54.31346" lon="18.7399">
        <ele>28.959234</ele>
        <time>2024-08-04T12:00:40.955Z</time>
      </trkpt>
      <trkpt lat="54.31347" lon="18.74014">
        <ele>28.932344</ele>
        <time>2024-08-04T12:00:43.954Z</time>
      </trkpt>
      <trkpt lat="54.31349" lon="18.74036">
        <ele>28.858985</ele>
        <time>2024-08-04T12:00:46.959Z</time>
      </trkpt>
      <trkpt lat="54.3135" lon="18.74057">
        <ele>28.789548</ele>
        <time>2024-08-04T12:00:49.951Z</time>
      </trkpt>
      <trkpt lat="54.31352" lon="18.74077">
        <ele>28.726142</ele>
        <time>2024-08-04T12:00:52.953Z</time>
      </trkpt>
      <trkpt lat="54.31353" lon="18.74095">
        <ele>28.666542</ele>
        <time>2024-08-04T12:00:55.955Z</time>
      </trkpt>
      <trkpt lat="54.31355" lon="18.74113">
        <ele>28.608401</ele>
        <time>2024-08-04T12:00:58.951Z</time>
      </trkpt>
      <trkpt lat="54.31356" lon="18.74128">
        <ele>28.556998</ele>
        <time>2024-08-04T12:01:01.955Z</time>
      </trkpt>
      <trkpt lat="54.31358" lon="18.74144">
        <ele>28.505849</ele>
        <time>2024-08-04T12:01:04.953Z</time>
      </trkpt>
      <trkpt lat="54.31359" lon="18.74163">
        <ele>28.445151</ele>
        <time>2024-08-04T12:01:08.945Z</time>
      </trkpt>
      <trkpt lat="54.31361" lon="18.74182">
        <ele>28.382777</ele>
        <time>2024-08-04T12:01:12.954Z</time>
      </trkpt>
      <trkpt lat="54.3136" lon="18.74199">
        <ele>28.326288</ele>
        <time>2024-08-04T12:01:16.951Z</time>
      </trkpt>
      <trkpt lat="54.31361" lon="18.74216">
        <ele>28.269835</ele>
        <time>2024-08-04T12:01:20.937Z</time>
      </trkpt>
      <trkpt lat="54.31363" lon="18.74232">
        <ele>28.218113</ele>
        <time>2024-08-04T12:01:23.956Z</time>
      </trkpt>
      <trkpt lat="54.31364" lon="18.74249">
        <ele>28.161659</ele>
        <time>2024-08-04T12:01:26.945Z</time>
      </trkpt>
      <trkpt lat="54.31366" lon="18.74267">
        <ele>28.103309</ele>
        <time>2024-08-04T12:01:29.949Z</time>
      </trkpt>
      <trkpt lat="54.31368" lon="18.74287">
        <ele>28.039347</ele>
        <time>2024-08-04T12:01:32.951Z</time>
      </trkpt>
      <trkpt lat="54.31371" lon="18.74306">
        <ele>27.986237</ele>
        <time>2024-08-04T12:01:35.963Z</time>
      </trkpt>
      <trkpt lat="54.31373" lon="18.74327">
        <ele>27.974671</ele>
        <time>2024-08-04T12:01:38.947Z</time>
      </trkpt>
      <trkpt lat="54.31375" lon="18.74347">
        <ele>27.962939</ele>
        <time>2024-08-04T12:01:41.955Z</time>
      </trkpt>
      <trkpt lat="54.31377" lon="18.74369">
        <ele>27.950619</ele>
        <time>2024-08-04T12:01:44.943Z</time>
      </trkpt>
      <trkpt lat="54.31379" lon="18.74392">
        <ele>27.938143</ele>
        <time>2024-08-04T12:01:47.948Z</time>
      </trkpt>
      <trkpt lat="54.31382" lon="18.74414">
        <ele>27.925614</ele>
        <time>2024-08-04T12:01:50.953Z</time>
      </trkpt>
      <trkpt lat="54.31384" lon="18.7443">
        <ele>27.916652</ele>
        <time>2024-08-04T12:01:52.945Z</time>
      </trkpt>
      <trkpt lat="54.31387" lon="18.74452">
        <ele>27.903967</ele>
        <time>2024-08-04T12:01:55.960Z</time>
      </trkpt>
      <trkpt lat="54.31389" lon="18.74467">
        <ele>27.895258</ele>
        <time>2024-08-04T12:01:57.943Z</time>
      </trkpt>
      <trkpt lat="54.31392" lon="18.74483">
        <ele>27.886198</ele>
        <time>2024-08-04T12:01:59.954Z</time>
      </trkpt>
      <trkpt lat="54.31395" lon="18.74498">
        <ele>27.877345</ele>
        <time>2024-08-04T12:02:01.941Z</time>
      </trkpt>
      <trkpt lat="54.31398" lon="18.74513">
        <ele>27.868748</ele>
        <time>2024-08-04T12:02:03.951Z</time>
      </trkpt>
      <trkpt lat="54.31401" lon="18.74527">
        <ele>27.860033</ele>
        <time>2024-08-04T12:02:05.966Z</time>
      </trkpt>
      <trkpt lat="54.31407" lon="18.74547">
        <ele>27.847816</ele>
        <time>2024-08-04T12:02:08.955Z</time>
      </trkpt>
      <trkpt lat="54.31412" lon="18.74566">
        <ele>27.836473</ele>
        <time>2024-08-04T12:02:11.926Z</time>
      </trkpt>
      <trkpt lat="54.31415" lon="18.74585">
        <ele>27.825328</ele>
        <time>2024-08-04T12:02:14.948Z</time>
      </trkpt>
      <trkpt lat="54.3142" lon="18.74603">
        <ele>27.899101</ele>
        <time>2024-08-04T12:02:17.947Z</time>
      </trkpt>
      <trkpt lat="54.31425" lon="18.74622">
        <ele>28.133967</ele>
        <time>2024-08-04T12:02:20.939Z</time>
      </trkpt>
      <trkpt lat="54.3143" lon="18.7464">
        <ele>28.373796</ele>
        <time>2024-08-04T12:02:23.959Z</time>
      </trkpt>
      <trkpt lat="54.31434" lon="18.7466">
        <ele>28.628239</ele>
        <time>2024-08-04T12:02:26.962Z</time>
      </trkpt>
      <trkpt lat="54.31439" lon="18.74679">
        <ele>28.881436</ele>
        <time>2024-08-04T12:02:29.943Z</time>
      </trkpt>
      <trkpt lat="54.31443" lon="18.74699">
        <ele>29.127825</ele>
        <time>2024-08-04T12:02:32.949Z</time>
      </trkpt>
      <trkpt lat="54.31448" lon="18.74716">
        <ele>29.356617</ele>
        <time>2024-08-04T12:02:35.941Z</time>
      </trkpt>
      <trkpt lat="54.31453" lon="18.74733">
        <ele>29.581119</ele>
        <time>2024-08-04T12:02:38.935Z</time>
      </trkpt>
      <trkpt lat="54.31458" lon="18.74752">
        <ele>29.828651</ele>
        <time>2024-08-04T12:02:41.995Z</time>
      </trkpt>
      <trkpt lat="54.31463" lon="18.7477">
        <ele>30.062527</ele>
        <time>2024-08-04T12:02:44.964Z</time>
      </trkpt>
      <trkpt lat="54.31468" lon="18.74788">
        <ele>30.294802</ele>
        <time>2024-08-04T12:02:47.943Z</time>
      </trkpt>
      <trkpt lat="54.31472" lon="18.74806">
        <ele>30.534485</ele>
        <time>2024-08-04T12:02:50.962Z</time>
      </trkpt>
      <trkpt lat="54.31478" lon="18.74824">
        <ele>30.768683</ele>
        <time>2024-08-04T12:02:53.960Z</time>
      </trkpt>
      <trkpt lat="54.31483" lon="18.7484">
        <ele>30.993545</ele>
        <time>2024-08-04T12:02:56.946Z</time>
      </trkpt>
      <trkpt lat="54.31489" lon="18.74855">
        <ele>31.211873</ele>
        <time>2024-08-04T12:02:59.951Z</time>
      </trkpt>
      <trkpt lat="54.31495" lon="18.74869">
        <ele>31.412867</ele>
        <time>2024-08-04T12:03:02.961Z</time>
      </trkpt>
      <trkpt lat="54.31502" lon="18.74881">
        <ele>31.685568</ele>
        <time>2024-08-04T12:03:05.942Z</time>
      </trkpt>
      <trkpt lat="54.31508" lon="18.74893">
        <ele>31.995589</ele>
        <time>2024-08-04T12:03:08.964Z</time>
      </trkpt>
      <trkpt lat="54.31517" lon="18.749">
        <ele>32.302565</ele>
        <time>2024-08-04T12:03:11.945Z</time>
      </trkpt>
      <trkpt lat="54.31526" lon="18.74902">
        <ele>32.61087</ele>
        <time>2024-08-04T12:03:14.961Z</time>
      </trkpt>
      <trkpt lat="54.31536" lon="18.74903">
        <ele>32.924365</ele>
        <time>2024-08-04T12:03:17.930Z</time>
      </trkpt>
      <trkpt lat="54.31545" lon="18.74895">
        <ele>33.258914</ele>
        <time>2024-08-04T12:03:20.940Z</time>
      </trkpt>
      <trkpt lat="54.31553" lon="18.74884">
        <ele>33.586929</ele>
        <time>2024-08-04T12:03:23.934Z</time>
      </trkpt>
      <trkpt lat="54.3156" lon="18.74875">
        <ele>33.89395</ele>
        <time>2024-08-04T12:03:26.945Z</time>
      </trkpt>
      <trkpt lat="54.31568" lon="18.74865">
        <ele>34.211165</ele>
        <time>2024-08-04T12:03:29.945Z</time>
      </trkpt>
      <trkpt lat="54.31577" lon="18.74857">
        <ele>34.519739</ele>
        <time>2024-08-04T12:03:32.958Z</time>
      </trkpt>
      <trkpt lat="54.31585" lon="18.74849">
        <ele>34.825565</ele>
        <time>2024-08-04T12:03:35.960Z</time>
      </trkpt>
      <trkpt lat="54.31593" lon="18.74842">
        <ele>35.132938</ele>
        <time>2024-08-04T12:03:38.938Z</time>
      </trkpt>
      <trkpt lat="54.31603" lon="18.74835">
        <ele>35.481989</ele>
        <time>2024-08-04T12:03:42.949Z</time>
      </trkpt>
      <trkpt lat="54.31613" lon="18.74828">
        <ele>35.822159</ele>
        <time>2024-08-04T12:03:46.961Z</time>
      </trkpt>
      <trkpt lat="54.31623" lon="18.74823">
        <ele>36.164304</ele>
        <time>2024-08-04T12:03:50.951Z</time>
      </trkpt>
      <trkpt lat="54.31633" lon="18.74819">
        <ele>36.504456</ele>
        <time>2024-08-04T12:03:54.963Z</time>
      </trkpt>
      <trkpt lat="54.31644" lon="18.74815">
        <ele>36.857838</ele>
        <time>2024-08-04T12:03:58.956Z</time>
      </trkpt>
      <trkpt lat="54.31653" lon="18.74812">
        <ele>37.155334</ele>
        <time>2024-08-04T12:04:02.962Z</time>
      </trkpt>
      <trkpt lat="54.31661" lon="18.74808">
        <ele>37.29458</ele>
        <time>2024-08-04T12:04:06.948Z</time>
      </trkpt>
      <trkpt lat="54.31671" lon="18.74806">
        <ele>37.151149</ele>
        <time>2024-08-04T12:04:10.956Z</time>
      </trkpt>
      <trkpt lat="54.31681" lon="18.74803">
        <ele>36.996087</ele>
        <time>2024-08-04T12:04:16.954Z</time>
      </trkpt>
      <trkpt lat="54.31691" lon="18.748">
        <ele>36.83584</ele>
        <time>2024-08-04T12:04:24.943Z</time>
      </trkpt>
      <trkpt lat="54.31704" lon="18.74795">
        <ele>36.633544</ele>
        <time>2024-08-04T12:05:13.967Z</time>
      </trkpt>
      <trkpt lat="54.31715" lon="18.74792">
        <ele>36.460025</ele>
        <time>2024-08-04T12:05:17.960Z</time>
      </trkpt>
      <trkpt lat="54.31726" lon="18.7479">
        <ele>36.290076</ele>
        <time>2024-08-04T12:05:20.955Z</time>
      </trkpt>
      <trkpt lat="54.31738" lon="18.74787">
        <ele>36.099857</ele>
        <time>2024-08-04T12:05:23.955Z</time>
      </trkpt>
      <trkpt lat="54.31747" lon="18.74784">
        <ele>35.96154</ele>
        <time>2024-08-04T12:05:25.962Z</time>
      </trkpt>
      <trkpt lat="54.31756" lon="18.74781">
        <ele>35.813777</ele>
        <time>2024-08-04T12:05:27.946Z</time>
      </trkpt>
      <trkpt lat="54.31766" lon="18.74778">
        <ele>35.651145</ele>
        <time>2024-08-04T12:05:29.967Z</time>
      </trkpt>
      <trkpt lat="54.31777" lon="18.74774">
        <ele>35.478412</ele>
        <time>2024-08-04T12:05:31.951Z</time>
      </trkpt>
      <trkpt lat="54.31789" lon="18.7477">
        <ele>35.285931</ele>
        <time>2024-08-04T12:05:33.946Z</time>
      </trkpt>
      <trkpt lat="54.31802" lon="18.74765">
        <ele>35.088727</ele>
        <time>2024-08-04T12:05:35.955Z</time>
      </trkpt>
      <trkpt lat="54.31814" lon="18.74758">
        <ele>34.885509</ele>
        <time>2024-08-04T12:05:37.951Z</time>
      </trkpt>
      <trkpt lat="54.31825" lon="18.74748">
        <ele>34.697135</ele>
        <time>2024-08-04T12:05:39.943Z</time>
      </trkpt>
      <trkpt lat="54.31832" lon="18.74734">
        <ele>34.510668</ele>
        <time>2024-08-04T12:05:41.936Z</time>
      </trkpt>
      <trkpt lat="54.31842" lon="18.74726">
        <ele>34.292906</ele>
        <time>2024-08-04T12:05:43.950Z</time>
      </trkpt>
      <trkpt lat="54.31852" lon="18.74728">
        <ele>34.081107</ele>
        <time>2024-08-04T12:05:45.952Z</time>
      </trkpt>
      <trkpt lat="54.31862" lon="18.74737">
        <ele>33.85418</ele>
        <time>2024-08-04T12:05:47.935Z</time>
      </trkpt>
      <trkpt lat="54.31871" lon="18.74743">
        <ele>33.641082</ele>
        <time>2024-08-04T12:05:49.952Z</time>
      </trkpt>
      <trkpt lat="54.31882" lon="18.74744">
        <ele>33.417527</ele>
        <time>2024-08-04T12:05:51.938Z</time>
      </trkpt>
      <trkpt lat="54.31893" lon="18.74743">
        <ele>33.195761</ele>
        <time>2024-08-04T12:05:53.946Z</time>
      </trkpt>
      <trkpt lat="54.31903" lon="18.74742">
        <ele>32.992579</ele>
        <time>2024-08-04T12:05:55.946Z</time>
      </trkpt>
      <trkpt lat="54.31912" lon="18.74742">
        <ele>32.796022</ele>
        <time>2024-08-04T12:05:57.942Z</time>
      </trkpt>
      <trkpt lat="54.31922" lon="18.7474">
        <ele>32.584322</ele>
        <time>2024-08-04T12:05:59.947Z</time>
      </trkpt>
      <trkpt lat="54.31932" lon="18.74738">
        <ele>32.38247</ele>
        <time>2024-08-04T12:06:02.000Z</time>
      </trkpt>
      <trkpt lat="54.31942" lon="18.74737">
        <ele>32.181269</ele>
        <time>2024-08-04T12:06:03.941Z</time>
      </trkpt>
      <trkpt lat="54.31952" lon="18.74736">
        <ele>31.975543</ele>
        <time>2024-08-04T12:06:05.947Z</time>
      </trkpt>
      <trkpt lat="54.31962" lon="18.74734">
        <ele>31.76122</ele>
        <time>2024-08-04T12:06:07.959Z</time>
      </trkpt>
      <trkpt lat="54.31972" lon="18.74732">
        <ele>31.555495</ele>
        <time>2024-08-04T12:06:09.960Z</time>
      </trkpt>
      <trkpt lat="54.31983" lon="18.74729">
        <ele>31.329517</ele>
        <time>2024-08-04T12:06:11.962Z</time>
      </trkpt>
      <trkpt lat="54.31993" lon="18.74726">
        <ele>31.109523</ele>
        <time>2024-08-04T12:06:13.942Z</time>
      </trkpt>
      <trkpt lat="54.32003" lon="18.74721">
        <ele>30.887615</ele>
        <time>2024-08-04T12:06:15.958Z</time>
      </trkpt>
      <trkpt lat="54.32015" lon="18.74719">
        <ele>30.731481</ele>
        <time>2024-08-04T12:06:17.959Z</time>
      </trkpt>
      <trkpt lat="54.32025" lon="18.74717">
        <ele>30.606768</ele>
        <time>2024-08-04T12:06:19.960Z</time>
      </trkpt>
      <trkpt lat="54.32036" lon="18.74713">
        <ele>30.47805</ele>
        <time>2024-08-04T12:06:21.961Z</time>
      </trkpt>
      <trkpt lat="54.32046" lon="18.74709">
        <ele>30.351643</ele>
        <time>2024-08-04T12:06:23.946Z</time>
      </trkpt>
      <trkpt lat="54.32057" lon="18.74706">
        <ele>30.224935</ele>
        <time>2024-08-04T12:06:25.944Z</time>
      </trkpt>
      <trkpt lat="54.32067" lon="18.74703">
        <ele>30.09869</ele>
        <time>2024-08-04T12:06:27.954Z</time>
      </trkpt>
      <trkpt lat="54.32077" lon="18.747">
        <ele>29.980648</ele>
        <time>2024-08-04T12:06:29.955Z</time>
      </trkpt>
      <trkpt lat="54.32087" lon="18.74698">
        <ele>29.858966</ele>
        <time>2024-08-04T12:06:31.967Z</time>
      </trkpt>
      <trkpt lat="54.32097" lon="18.74695">
        <ele>29.737913</ele>
        <time>2024-08-04T12:06:33.943Z</time>
      </trkpt>
      <trkpt lat="54.32107" lon="18.74692">
        <ele>29.619209</ele>
        <time>2024-08-04T12:06:35.962Z</time>
      </trkpt>
      <trkpt lat="54.32117" lon="18.74689">
        <ele>29.49945</ele>
        <time>2024-08-04T12:06:37.945Z</time>
      </trkpt>
      <trkpt lat="54.32126" lon="18.74686">
        <ele>29.384266</ele>
        <time>2024-08-04T12:06:39.956Z</time>
      </trkpt>
      <trkpt lat="54.32136" lon="18.74683">
        <ele>29.260744</ele>
        <time>2024-08-04T12:06:41.958Z</time>
      </trkpt>
      <trkpt lat="54.32146" lon="18.74679">
        <ele>29.142431</ele>
        <time>2024-08-04T12:06:43.950Z</time>
      </trkpt>
      <trkpt lat="54.32156" lon="18.74675">
        <ele>29.024646</ele>
        <time>2024-08-04T12:06:45.955Z</time>
      </trkpt>
      <trkpt lat="54.32166" lon="18.74673">
        <ele>28.906604</ele>
        <time>2024-08-04T12:06:47.949Z</time>
      </trkpt>
      <trkpt lat="54.32175" lon="18.74669">
        <ele>28.786948</ele>
        <time>2024-08-04T12:06:49.944Z</time>
      </trkpt>
      <trkpt lat="54.32186" lon="18.74665">
        <ele>28.721616</ele>
        <time>2024-08-04T12:06:51.962Z</time>
      </trkpt>
      <trkpt lat="54.32195" lon="18.74662">
        <ele>28.785106</ele>
        <time>2024-08-04T12:06:53.949Z</time>
      </trkpt>
      <trkpt lat="54.32205" lon="18.74659">
        <ele>28.848658</ele>
        <time>2024-08-04T12:06:55.949Z</time>
      </trkpt>
      <trkpt lat="54.32215" lon="18.74656">
        <ele>28.912482</ele>
        <time>2024-08-04T12:06:57.954Z</time>
      </trkpt>
      <trkpt lat="54.32224" lon="18.74653">
        <ele>28.971457</ele>
        <time>2024-08-04T12:06:59.966Z</time>
      </trkpt>
      <trkpt lat="54.32233" lon="18.7465">
        <ele>29.030747</ele>
        <time>2024-08-04T12:07:02.006Z</time>
      </trkpt>
      <trkpt lat="54.32242" lon="18.74647">
        <ele>29.089338</ele>
        <time>2024-08-04T12:07:03.952Z</time>
      </trkpt>
      <trkpt lat="54.32252" lon="18.74644">
        <ele>29.150185</ele>
        <time>2024-08-04T12:07:05.944Z</time>
      </trkpt>
      <trkpt lat="54.32261" lon="18.74641">
        <ele>29.209832</ele>
        <time>2024-08-04T12:07:07.948Z</time>
      </trkpt>
      <trkpt lat="54.32274" lon="18.74637">
        <ele>29.293408</ele>
        <time>2024-08-04T12:07:10.948Z</time>
      </trkpt>
      <trkpt lat="54.32287" lon="18.74631">
        <ele>29.379963</ele>
        <time>2024-08-04T12:07:13.948Z</time>
      </trkpt>
      <trkpt lat="54.32295" lon="18.74627">
        <ele>29.437429</ele>
        <time>2024-08-04T12:07:15.943Z</time>
      </trkpt>
      <trkpt lat="54.32308" lon="18.74623">
        <ele>29.519751</ele>
        <time>2024-08-04T12:07:18.943Z</time>
      </trkpt>
      <trkpt lat="54.3232" lon="18.74617">
        <ele>29.59718</ele>
        <time>2024-08-04T12:07:21.934Z</time>
      </trkpt>
      <trkpt lat="54.32332" lon="18.74612">
        <ele>29.68133</ele>
        <time>2024-08-04T12:07:24.961Z</time>
      </trkpt>
      <trkpt lat="54.32345" lon="18.7461">
        <ele>29.760399</ele>
        <time>2024-08-04T12:07:27.943Z</time>
      </trkpt>
      <trkpt lat="54.32357" lon="18.74607">
        <ele>29.842226</ele>
        <time>2024-08-04T12:07:30.951Z</time>
      </trkpt>
      <trkpt lat="54.3237" lon="18.74604">
        <ele>29.833813</ele>
        <time>2024-08-04T12:07:33.945Z</time>
      </trkpt>
      <trkpt lat="54.32383" lon="18.746">
        <ele>29.816115</ele>
        <time>2024-08-04T12:07:36.946Z</time>
      </trkpt>
      <trkpt lat="54.32396" lon="18.74595">
        <ele>29.797941</ele>
        <time>2024-08-04T12:07:39.943Z</time>
      </trkpt>
      <trkpt lat="54.32409" lon="18.74589">
        <ele>29.779823</ele>
        <time>2024-08-04T12:07:42.943Z</time>
      </trkpt>
      <trkpt lat="54.32421" lon="18.74585">
        <ele>29.763116</ele>
        <time>2024-08-04T12:07:45.958Z</time>
      </trkpt>
      <trkpt lat="54.32432" lon="18.7458">
        <ele>29.74712</ele>
        <time>2024-08-04T12:07:48.957Z</time>
      </trkpt>
      <trkpt lat="54.32444" lon="18.74574">
        <ele>29.730644</ele>
        <time>2024-08-04T12:07:51.967Z</time>
      </trkpt>
      <trkpt lat="54.32455" lon="18.74568">
        <ele>29.714562</ele>
        <time>2024-08-04T12:07:54.948Z</time>
      </trkpt>
      <trkpt lat="54.32467" lon="18.74561">
        <ele>29.697534</ele>
        <time>2024-08-04T12:07:57.942Z</time>
      </trkpt>
      <trkpt lat="54.32477" lon="18.74554">
        <ele>29.681908</ele>
        <time>2024-08-04T12:08:00.944Z</time>
      </trkpt>
      <trkpt lat="54.32487" lon="18.74547">
        <ele>29.66726</ele>
        <time>2024-08-04T12:08:03.958Z</time>
      </trkpt>
      <trkpt lat="54.32499" lon="18.74542">
        <ele>29.651458</ele>
        <time>2024-08-04T12:08:06.944Z</time>
      </trkpt>
      <trkpt lat="54.3251" lon="18.74537">
        <ele>29.635745</ele>
        <time>2024-08-04T12:08:09.940Z</time>
      </trkpt>
      <trkpt lat="54.3252" lon="18.74531">
        <ele>29.620892</ele>
        <time>2024-08-04T12:08:12.955Z</time>
      </trkpt>
      <trkpt lat="54.32532" lon="18.74522">
        <ele>29.60184</ele>
        <time>2024-08-04T12:08:45.947Z</time>
      </trkpt>
      <trkpt lat="54.32542" lon="18.74516">
        <ele>29.576838</ele>
        <time>2024-08-04T12:08:49.942Z</time>
      </trkpt>
      <trkpt lat="54.32551" lon="18.7451">
        <ele>29.553834</ele>
        <time>2024-08-04T12:08:52.948Z</time>
      </trkpt>
      <trkpt lat="54.32561" lon="18.74505">
        <ele>29.528956</ele>
        <time>2024-08-04T12:08:55.939Z</time>
      </trkpt>
      <trkpt lat="54.32571" lon="18.745">
        <ele>29.503848</ele>
        <time>2024-08-04T12:08:58.959Z</time>
      </trkpt>
      <trkpt lat="54.32581" lon="18.74495">
        <ele>29.479591</ele>
        <time>2024-08-04T12:09:01.991Z</time>
      </trkpt>
      <trkpt lat="54.32591" lon="18.7449">
        <ele>29.454102</ele>
        <time>2024-08-04T12:09:04.962Z</time>
      </trkpt>
      <trkpt lat="54.32602" lon="18.74485">
        <ele>29.425258</ele>
        <time>2024-08-04T12:09:07.959Z</time>
      </trkpt>
      <trkpt lat="54.32615" lon="18.74478">
        <ele>29.393143</ele>
        <time>2024-08-04T12:09:10.949Z</time>
      </trkpt>
      <trkpt lat="54.32628" lon="18.74472">
        <ele>29.360953</ele>
        <time>2024-08-04T12:09:13.942Z</time>
      </trkpt>
      <trkpt lat="54.32639" lon="18.74467">
        <ele>29.334074</ele>
        <time>2024-08-04T12:09:16.947Z</time>
      </trkpt>
      <trkpt lat="54.32647" lon="18.74474">
        <ele>29.311678</ele>
        <time>2024-08-04T12:09:23.935Z</time>
      </trkpt>
      <trkpt lat="54.32649" lon="18.7449">
        <ele>29.288387</ele>
        <time>2024-08-04T12:09:27.936Z</time>
      </trkpt>
      <trkpt lat="54.32663" lon="18.74495">
        <ele>29.254262</ele>
        <time>2024-08-04T12:10:12.937Z</time>
      </trkpt>
      <trkpt lat="54.32673" lon="18.74502">
        <ele>29.227167</ele>
        <time>2024-08-04T12:10:16.943Z</time>
      </trkpt>
      <trkpt lat="54.32674" lon="18.74519">
        <ele>29.203303</ele>
        <time>2024-08-04T12:10:19.937Z</time>
      </trkpt>
      <trkpt lat="54.32673" lon="18.7454">
        <ele>29.174318</ele>
        <time>2024-08-04T12:10:22.939Z</time>
      </trkpt>
      <trkpt lat="54.32674" lon="18.74562">
        <ele>29.127666</ele>
        <time>2024-08-04T12:10:25.955Z</time>
      </trkpt>
      <trkpt lat="54.32675" lon="18.74585">
        <ele>29.077516</ele>
        <time>2024-08-04T12:10:28.964Z</time>
      </trkpt>
      <trkpt lat="54.32676" lon="18.746">
        <ele>29.043889</ele>
        <time>2024-08-04T12:10:30.948Z</time>
      </trkpt>
      <trkpt lat="54.32679" lon="18.74615">
        <ele>29.009844</ele>
        <time>2024-08-04T12:10:32.945Z</time>
      </trkpt>
      <trkpt lat="54.3268" lon="18.74631">
        <ele>28.974863</ele>
        <time>2024-08-04T12:10:34.955Z</time>
      </trkpt>
      <trkpt lat="54.32682" lon="18.74646">
        <ele>28.940811</ele>
        <time>2024-08-04T12:10:36.959Z</time>
      </trkpt>
      <trkpt lat="54.32684" lon="18.74662">
        <ele>28.906319</ele>
        <time>2024-08-04T12:10:38.947Z</time>
      </trkpt>
      <trkpt lat="54.32685" lon="18.74679">
        <ele>28.870139</ele>
        <time>2024-08-04T12:10:40.943Z</time>
      </trkpt>
      <trkpt lat="54.32687" lon="18.74695">
        <ele>28.834526</ele>
        <time>2024-08-04T12:10:42.951Z</time>
      </trkpt>
      <trkpt lat="54.32689" lon="18.74711">
        <ele>28.797948</ele>
        <time>2024-08-04T12:10:44.949Z</time>
      </trkpt>
      <trkpt lat="54.32691" lon="18.74728">
        <ele>28.761623</ele>
        <time>2024-08-04T12:10:46.952Z</time>
      </trkpt>
      <trkpt lat="54.32692" lon="18.74745">
        <ele>28.724776</ele>
        <time>2024-08-04T12:10:48.960Z</time>
      </trkpt>
      <trkpt lat="54.32694" lon="18.74761">
        <ele>28.689484</ele>
        <time>2024-08-04T12:10:50.951Z</time>
      </trkpt>
      <trkpt lat="54.32695" lon="18.74777">
        <ele>28.652793</ele>
        <time>2024-08-04T12:10:52.964Z</time>
      </trkpt>
      <trkpt lat="54.32697" lon="18.74794">
        <ele>28.615888</ele>
        <time>2024-08-04T12:10:54.944Z</time>
      </trkpt>
      <trkpt lat="54.32698" lon="18.74811">
        <ele>28.579897</ele>
        <time>2024-08-04T12:10:56.961Z</time>
      </trkpt>
      <trkpt lat="54.327" lon="18.74828">
        <ele>28.540597</ele>
        <time>2024-08-04T12:10:58.940Z</time>
      </trkpt>
      <trkpt lat="54.32702" lon="18.74845">
        <ele>28.503423</ele>
        <time>2024-08-04T12:11:00.958Z</time>
      </trkpt>
      <trkpt lat="54.32704" lon="18.74862">
        <ele>28.47557</ele>
        <time>2024-08-04T12:11:02.952Z</time>
      </trkpt>
      <trkpt lat="54.32706" lon="18.74879">
        <ele>28.447034</ele>
        <time>2024-08-04T12:11:04.953Z</time>
      </trkpt>
      <trkpt lat="54.32708" lon="18.74897">
        <ele>28.417386</ele>
        <time>2024-08-04T12:11:06.961Z</time>
      </trkpt>
      <trkpt lat="54.32709" lon="18.74914">
        <ele>28.389146</ele>
        <time>2024-08-04T12:11:08.947Z</time>
      </trkpt>
      <trkpt lat="54.32711" lon="18.74931">
        <ele>28.361387</ele>
        <time>2024-08-04T12:11:10.965Z</time>
      </trkpt>
      <trkpt lat="54.32713" lon="18.74948">
        <ele>28.333746</ele>
        <time>2024-08-04T12:11:12.950Z</time>
      </trkpt>
      <trkpt lat="54.32715" lon="18.74965">
        <ele>28.305585</ele>
        <time>2024-08-04T12:11:14.945Z</time>
      </trkpt>
      <trkpt lat="54.32716" lon="18.74984">
        <ele>28.275376</ele>
        <time>2024-08-04T12:11:16.940Z</time>
      </trkpt>
      <trkpt lat="54.32718" lon="18.75001">
        <ele>28.246471</ele>
        <time>2024-08-04T12:11:18.959Z</time>
      </trkpt>
      <trkpt lat="54.3272" lon="18.75019">
        <ele>28.217547</ele>
        <time>2024-08-04T12:11:20.954Z</time>
      </trkpt>
      <trkpt lat="54.32721" lon="18.75036">
        <ele>28.188986</ele>
        <time>2024-08-04T12:11:22.935Z</time>
      </trkpt>
      <trkpt lat="54.32723" lon="18.75054">
        <ele>28.159697</ele>
        <time>2024-08-04T12:11:24.964Z</time>
      </trkpt>
      <trkpt lat="54.32725" lon="18.75072">
        <ele>28.129834</ele>
        <time>2024-08-04T12:11:26.949Z</time>
      </trkpt>
      <trkpt lat="54.32727" lon="18.7509">
        <ele>28.100387</ele>
        <time>2024-08-04T12:11:28.957Z</time>
      </trkpt>
      <trkpt lat="54.3273" lon="18.75107">
        <ele>28.071288</ele>
        <time>2024-08-04T12:11:30.948Z</time>
      </trkpt>
      <trkpt lat="54.32732" lon="18.75125">
        <ele>28.041742</ele>
        <time>2024-08-04T12:11:32.926Z</time>
      </trkpt>
      <trkpt lat="54.32733" lon="18.75143">
        <ele>28.012677</ele>
        <time>2024-08-04T12:11:34.962Z</time>
      </trkpt>
      <trkpt lat="54.32735" lon="18.7516">
        <ele>27.968801</ele>
        <time>2024-08-04T12:11:36.948Z</time>
      </trkpt>
      <trkpt lat="54.32736" lon="18.75178">
        <ele>27.917715</ele>
        <time>2024-08-04T12:11:38.957Z</time>
      </trkpt>
      <trkpt lat="54.32738" lon="18.75196">
        <ele>27.866561</ele>
        <time>2024-08-04T12:11:40.948Z</time>
      </trkpt>
      <trkpt lat="54.3274" lon="18.75215">
        <ele>27.811087</ele>
        <time>2024-08-04T12:11:42.949Z</time>
      </trkpt>
      <trkpt lat="54.32742" lon="18.75233">
        <ele>27.759334</ele>
        <time>2024-08-04T12:11:44.946Z</time>
      </trkpt>
      <trkpt lat="54.32744" lon="18.7525">
        <ele>27.709376</ele>
        <time>2024-08-04T12:11:46.955Z</time>
      </trkpt>
      <trkpt lat="54.32745" lon="18.75269">
        <ele>27.656227</ele>
        <time>2024-08-04T12:11:48.951Z</time>
      </trkpt>
      <trkpt lat="54.32747" lon="18.75287">
        <ele>27.602885</ele>
        <time>2024-08-04T12:11:50.945Z</time>
      </trkpt>
      <trkpt lat="54.32749" lon="18.75305">
        <ele>27.551885</ele>
        <time>2024-08-04T12:11:52.944Z</time>
      </trkpt>
      <trkpt lat="54.32751" lon="18.75323">
        <ele>27.500502</ele>
        <time>2024-08-04T12:11:54.944Z</time>
      </trkpt>
      <trkpt lat="54.32753" lon="18.75339">
        <ele>27.452665</ele>
        <time>2024-08-04T12:11:56.952Z</time>
      </trkpt>
      <trkpt lat="54.32754" lon="18.75357">
        <ele>27.402356</ele>
        <time>2024-08-04T12:11:58.934Z</time>
      </trkpt>
      <trkpt lat="54.32756" lon="18.75374">
        <ele>27.351447</ele>
        <time>2024-08-04T12:12:00.942Z</time>
      </trkpt>
      <trkpt lat="54.32758" lon="18.75392">
        <ele>27.298819</ele>
        <time>2024-08-04T12:12:02.946Z</time>
      </trkpt>
      <trkpt lat="54.3276" lon="18.7541">
        <ele>27.248509</ele>
        <time>2024-08-04T12:12:04.956Z</time>
      </trkpt>
      <trkpt lat="54.32762" lon="18.75428">
        <ele>27.195361</ele>
        <time>2024-08-04T12:12:06.946Z</time>
      </trkpt>
      <trkpt lat="54.32764" lon="18.75447">
        <ele>27.141933</ele>
        <time>2024-08-04T12:12:08.954Z</time>
      </trkpt>
      <trkpt lat="54.32765" lon="18.75464">
        <ele>27.113586</ele>
        <time>2024-08-04T12:12:10.947Z</time>
      </trkpt>
      <trkpt lat="54.32767" lon="18.75482">
        <ele>27.09499</ele>
        <time>2024-08-04T12:12:12.956Z</time>
      </trkpt>
      <trkpt lat="54.32769" lon="18.755">
        <ele>27.075742</ele>
        <time>2024-08-04T12:12:14.954Z</time>
      </trkpt>
      <trkpt lat="54.32771" lon="18.75518">
        <ele>27.057475</ele>
        <time>2024-08-04T12:12:16.953Z</time>
      </trkpt>
      <trkpt lat="54.32772" lon="18.75535">
        <ele>27.03996</ele>
        <time>2024-08-04T12:12:18.946Z</time>
      </trkpt>
      <trkpt lat="54.32774" lon="18.75552">
        <ele>27.022373</ele>
        <time>2024-08-04T12:12:20.944Z</time>
      </trkpt>
      <trkpt lat="54.32776" lon="18.75569">
        <ele>27.004495</ele>
        <time>2024-08-04T12:12:22.950Z</time>
      </trkpt>
      <trkpt lat="54.32778" lon="18.75586">
        <ele>26.986886</ele>
        <time>2024-08-04T12:12:24.939Z</time>
      </trkpt>
      <trkpt lat="54.3278" lon="18.75603">
        <ele>26.969299</ele>
        <time>2024-08-04T12:12:26.966Z</time>
      </trkpt>
      <trkpt lat="54.32782" lon="18.75619">
        <ele>26.952022</ele>
        <time>2024-08-04T12:12:28.940Z</time>
      </trkpt>
      <trkpt lat="54.32783" lon="18.75636">
        <ele>26.934534</ele>
        <time>2024-08-04T12:12:30.949Z</time>
      </trkpt>
      <trkpt lat="54.32785" lon="18.75653">
        <ele>26.917122</ele>
        <time>2024-08-04T12:12:32.940Z</time>
      </trkpt>
      <trkpt lat="54.32787" lon="18.7567">
        <ele>26.898961</ele>
        <time>2024-08-04T12:12:34.945Z</time>
      </trkpt>
      <trkpt lat="54.32789" lon="18.75688">
        <ele>26.880881</ele>
        <time>2024-08-04T12:12:36.953Z</time>
      </trkpt>
      <trkpt lat="54.32791" lon="18.75704">
        <ele>26.863794</ele>
        <time>2024-08-04T12:12:38.943Z</time>
      </trkpt>
      <trkpt lat="54.32793" lon="18.75721">
        <ele>26.846587</ele>
        <time>2024-08-04T12:12:40.953Z</time>
      </trkpt>
      <trkpt lat="54.32793" lon="18.75738">
        <ele>26.829203</ele>
        <time>2024-08-04T12:12:42.961Z</time>
      </trkpt>
      <trkpt lat="54.32795" lon="18.75755">
        <ele>26.811626</ele>
        <time>2024-08-04T12:12:44.947Z</time>
      </trkpt>
      <trkpt lat="54.32797" lon="18.75771">
        <ele>26.831423</ele>
        <time>2024-08-04T12:12:46.928Z</time>
      </trkpt>
      <trkpt lat="54.32799" lon="18.75787">
        <ele>26.854273</ele>
        <time>2024-08-04T12:12:48.942Z</time>
      </trkpt>
      <trkpt lat="54.32801" lon="18.75803">
        <ele>26.87634</ele>
        <time>2024-08-04T12:12:50.953Z</time>
      </trkpt>
      <trkpt lat="54.32803" lon="18.75819">
        <ele>26.899129</ele>
        <time>2024-08-04T12:12:52.963Z</time>
      </trkpt>
      <trkpt lat="54.32804" lon="18.75835">
        <ele>26.921179</ele>
        <time>2024-08-04T12:12:54.961Z</time>
      </trkpt>
      <trkpt lat="54.32806" lon="18.7585">
        <ele>26.943357</ele>
        <time>2024-08-04T12:12:56.949Z</time>
      </trkpt>
      <trkpt lat="54.32808" lon="18.75866">
        <ele>26.96579</ele>
        <time>2024-08-04T12:12:58.953Z</time>
      </trkpt>
      <trkpt lat="54.3281" lon="18.75883">
        <ele>26.989302</ele>
        <time>2024-08-04T12:13:00.947Z</time>
      </trkpt>
      <trkpt lat="54.32811" lon="18.75899">
        <ele>27.011368</ele>
        <time>2024-08-04T12:13:02.921Z</time>
      </trkpt>
      <trkpt lat="54.32813" lon="18.75915">
        <ele>27.033249</ele>
        <time>2024-08-04T12:13:04.955Z</time>
      </trkpt>
      <trkpt lat="54.32815" lon="18.75937">
        <ele>27.065534</ele>
        <time>2024-08-04T12:13:07.930Z</time>
      </trkpt>
      <trkpt lat="54.32817" lon="18.75954">
        <ele>27.088165</ele>
        <time>2024-08-04T12:13:09.962Z</time>
      </trkpt>
      <trkpt lat="54.32818" lon="18.7597">
        <ele>27.110796</ele>
        <time>2024-08-04T12:13:11.958Z</time>
      </trkpt>
      <trkpt lat="54.3282" lon="18.75986">
        <ele>27.133501</ele>
        <time>2024-08-04T12:13:13.942Z</time>
      </trkpt>
      <trkpt lat="54.32822" lon="18.76001">
        <ele>27.155221</ele>
        <time>2024-08-04T12:13:15.941Z</time>
      </trkpt>
      <trkpt lat="54.32823" lon="18.76017">
        <ele>27.177559</ele>
        <time>2024-08-04T12:13:17.939Z</time>
      </trkpt>
      <trkpt lat="54.32825" lon="18.76033">
        <ele>27.200076</ele>
        <time>2024-08-04T12:13:19.950Z</time>
      </trkpt>
      <trkpt lat="54.32827" lon="18.7605">
        <ele>27.223599</ele>
        <time>2024-08-04T12:13:21.958Z</time>
      </trkpt>
      <trkpt lat="54.32829" lon="18.76066">
        <ele>27.259688</ele>
        <time>2024-08-04T12:13:23.953Z</time>
      </trkpt>
      <trkpt lat="54.32831" lon="18.76083">
        <ele>27.315079</ele>
        <time>2024-08-04T12:13:25.941Z</time>
      </trkpt>
      <trkpt lat="54.32832" lon="18.761">
        <ele>27.367409</ele>
        <time>2024-08-04T12:13:27.946Z</time>
      </trkpt>
      <trkpt lat="54.32834" lon="18.76116">
        <ele>27.421126</ele>
        <time>2024-08-04T12:13:29.941Z</time>
      </trkpt>
      <trkpt lat="54.32835" lon="18.76133">
        <ele>27.475473</ele>
        <time>2024-08-04T12:13:31.940Z</time>
      </trkpt>
      <trkpt lat="54.32837" lon="18.7615">
        <ele>27.531284</ele>
        <time>2024-08-04T12:13:33.946Z</time>
      </trkpt>
      <trkpt lat="54.32839" lon="18.76166">
        <ele>27.585218</ele>
        <time>2024-08-04T12:13:35.957Z</time>
      </trkpt>
      <trkpt lat="54.32841" lon="18.76183">
        <ele>27.638306</ele>
        <time>2024-08-04T12:13:37.944Z</time>
      </trkpt>
      <trkpt lat="54.32843" lon="18.76199">
        <ele>27.690766</ele>
        <time>2024-08-04T12:13:39.930Z</time>
      </trkpt>
      <trkpt lat="54.32845" lon="18.76215">
        <ele>27.744272</ele>
        <time>2024-08-04T12:13:41.956Z</time>
      </trkpt>
      <trkpt lat="54.32846" lon="18.76232">
        <ele>27.799062</ele>
        <time>2024-08-04T12:13:43.961Z</time>
      </trkpt>
      <trkpt lat="54.32848" lon="18.76249">
        <ele>27.854002</ele>
        <time>2024-08-04T12:13:45.936Z</time>
      </trkpt>
      <trkpt lat="54.32849" lon="18.76266">
        <ele>27.907441</ele>
        <time>2024-08-04T12:13:47.945Z</time>
      </trkpt>
      <trkpt lat="54.32851" lon="18.76283">
        <ele>27.962832</ele>
        <time>2024-08-04T12:13:49.933Z</time>
      </trkpt>
      <trkpt lat="54.32853" lon="18.763">
        <ele>28.017909</ele>
        <time>2024-08-04T12:13:51.955Z</time>
      </trkpt>
      <trkpt lat="54.32855" lon="18.76316">
        <ele>28.072358</ele>
        <time>2024-08-04T12:13:53.949Z</time>
      </trkpt>
      <trkpt lat="54.32857" lon="18.76333">
        <ele>28.12576</ele>
        <time>2024-08-04T12:13:55.941Z</time>
      </trkpt>
      <trkpt lat="54.32858" lon="18.76349">
        <ele>28.178971</ele>
        <time>2024-08-04T12:13:57.944Z</time>
      </trkpt>
      <trkpt lat="54.3286" lon="18.76366">
        <ele>28.226488</ele>
        <time>2024-08-04T12:13:59.932Z</time>
      </trkpt>
      <trkpt lat="54.32862" lon="18.76383">
        <ele>28.244293</ele>
        <time>2024-08-04T12:14:01.932Z</time>
      </trkpt>
      <trkpt lat="54.32864" lon="18.76399">
        <ele>28.261785</ele>
        <time>2024-08-04T12:14:03.954Z</time>
      </trkpt>
      <trkpt lat="54.32866" lon="18.76417">
        <ele>28.280521</ele>
        <time>2024-08-04T12:14:05.942Z</time>
      </trkpt>
      <trkpt lat="54.32867" lon="18.76434">
        <ele>28.297968</ele>
        <time>2024-08-04T12:14:07.937Z</time>
      </trkpt>
      <trkpt lat="54.32869" lon="18.76451">
        <ele>28.31573</ele>
        <time>2024-08-04T12:14:09.952Z</time>
      </trkpt>
      <trkpt lat="54.32871" lon="18.76468">
        <ele>28.333659</ele>
        <time>2024-08-04T12:14:12.000Z</time>
      </trkpt>
      <trkpt lat="54.32872" lon="18.76484">
        <ele>28.350522</ele>
        <time>2024-08-04T12:14:13.942Z</time>
      </trkpt>
      <trkpt lat="54.32874" lon="18.76502">
        <ele>28.368721</ele>
        <time>2024-08-04T12:14:15.955Z</time>
      </trkpt>
      <trkpt lat="54.32875" lon="18.76518">
        <ele>28.385775</ele>
        <time>2024-08-04T12:14:17.942Z</time>
      </trkpt>
      <trkpt lat="54.32877" lon="18.76535">
        <ele>28.403234</ele>
        <time>2024-08-04T12:14:19.943Z</time>
      </trkpt>
      <trkpt lat="54.32879" lon="18.76551">
        <ele>28.420358</ele>
        <time>2024-08-04T12:14:21.965Z</time>
      </trkpt>
      <trkpt lat="54.32881" lon="18.76568">
        <ele>28.437381</ele>
        <time>2024-08-04T12:14:23.950Z</time>
      </trkpt>
      <trkpt lat="54.32882" lon="18.76583">
        <ele>28.453999</ele>
        <time>2024-08-04T12:14:25.962Z</time>
      </trkpt>
      <trkpt lat="54.32884" lon="18.76599">
        <ele>28.470383</ele>
        <time>2024-08-04T12:14:27.953Z</time>
      </trkpt>
      <trkpt lat="54.32886" lon="18.76616">
        <ele>28.487673</ele>
        <time>2024-08-04T12:14:29.957Z</time>
      </trkpt>
      <trkpt lat="54.32888" lon="18.76633">
        <ele>28.505401</ele>
        <time>2024-08-04T12:14:31.992Z</time>
      </trkpt>
      <trkpt lat="54.3289" lon="18.76648">
        <ele>28.521684</ele>
        <time>2024-08-04T12:14:33.956Z</time>
      </trkpt>
      <trkpt lat="54.32891" lon="18.76664">
        <ele>28.538373</ele>
        <time>2024-08-04T12:14:35.943Z</time>
      </trkpt>
      <trkpt lat="54.32893" lon="18.76679">
        <ele>28.559798</ele>
        <time>2024-08-04T12:14:37.955Z</time>
      </trkpt>
      <trkpt lat="54.32895" lon="18.76695">
        <ele>28.583023</ele>
        <time>2024-08-04T12:14:39.952Z</time>
      </trkpt>
      <trkpt lat="54.32897" lon="18.76711">
        <ele>28.606722</ele>
        <time>2024-08-04T12:14:41.954Z</time>
      </trkpt>
      <trkpt lat="54.32898" lon="18.76728">
        <ele>28.630726</ele>
        <time>2024-08-04T12:14:43.941Z</time>
      </trkpt>
      <trkpt lat="54.329" lon="18.76744">
        <ele>28.654056</ele>
        <time>2024-08-04T12:14:45.921Z</time>
      </trkpt>
      <trkpt lat="54.32901" lon="18.7676">
        <ele>28.677894</ele>
        <time>2024-08-04T12:14:47.944Z</time>
      </trkpt>
      <trkpt lat="54.32903" lon="18.76776">
        <ele>28.701123</ele>
        <time>2024-08-04T12:14:49.951Z</time>
      </trkpt>
      <trkpt lat="54.32905" lon="18.76792">
        <ele>28.724789</ele>
        <time>2024-08-04T12:14:51.955Z</time>
      </trkpt>
      <trkpt lat="54.32907" lon="18.76808">
        <ele>28.748486</ele>
        <time>2024-08-04T12:14:53.957Z</time>
      </trkpt>
      <trkpt lat="54.32908" lon="18.76824">
        <ele>28.772062</ele>
        <time>2024-08-04T12:14:55.953Z</time>
      </trkpt>
      <trkpt lat="54.3291" lon="18.7684">
        <ele>28.795007</ele>
        <time>2024-08-04T12:14:57.928Z</time>
      </trkpt>
      <trkpt lat="54.32911" lon="18.76855">
        <ele>28.817161</ele>
        <time>2024-08-04T12:14:59.943Z</time>
      </trkpt>
      <trkpt lat="54.32913" lon="18.76871">
        <ele>28.840578</ele>
        <time>2024-08-04T12:15:01.961Z</time>
      </trkpt>
      <trkpt lat="54.32915" lon="18.76887">
        <ele>28.864274</ele>
        <time>2024-08-04T12:15:03.947Z</time>
      </trkpt>
      <trkpt lat="54.32916" lon="18.76904">
        <ele>28.888031</ele>
        <time>2024-08-04T12:15:05.945Z</time>
      </trkpt>
      <trkpt lat="54.32918" lon="18.7692">
        <ele>28.911869</ele>
        <time>2024-08-04T12:15:07.944Z</time>
      </trkpt>
      <trkpt lat="54.3292" lon="18.76936">
        <ele>28.935094</ele>
        <time>2024-08-04T12:15:09.960Z</time>
      </trkpt>
      <trkpt lat="54.32921" lon="18.76952">
        <ele>28.959064</ele>
        <time>2024-08-04T12:15:11.954Z</time>
      </trkpt>
      <trkpt lat="54.32924" lon="18.76969">
        <ele>28.98315</ele>
        <time>2024-08-04T12:15:13.943Z</time>
      </trkpt>
      <trkpt lat="54.32925" lon="18.76985">
        <ele>28.98776</ele>
        <time>2024-08-04T12:15:15.922Z</time>
      </trkpt>
      <trkpt lat="54.32926" lon="18.77002">
        <ele>28.990977</ele>
        <time>2024-08-04T12:15:17.943Z</time>
      </trkpt>
      <trkpt lat="54.32928" lon="18.77018">
        <ele>28.994068</ele>
        <time>2024-08-04T12:15:19.964Z</time>
      </trkpt>
      <trkpt lat="54.3293" lon="18.77034">
        <ele>28.997304</ele>
        <time>2024-08-04T12:15:21.939Z</time>
      </trkpt>
      <trkpt lat="54.32932" lon="18.7705">
        <ele>29.000407</ele>
        <time>2024-08-04T12:15:23.943Z</time>
      </trkpt>
      <trkpt lat="54.32934" lon="18.77067">
        <ele>29.003579</ele>
        <time>2024-08-04T12:15:25.943Z</time>
      </trkpt>
      <trkpt lat="54.32936" lon="18.77083">
        <ele>29.006841</ele>
        <time>2024-08-04T12:15:27.944Z</time>
      </trkpt>
      <trkpt lat="54.32938" lon="18.771">
        <ele>29.010119</ele>
        <time>2024-08-04T12:15:29.952Z</time>
      </trkpt>
      <trkpt lat="54.3294" lon="18.77116">
        <ele>29.013254</ele>
        <time>2024-08-04T12:15:31.968Z</time>
      </trkpt>
      <trkpt lat="54.32941" lon="18.77133">
        <ele>29.016444</ele>
        <time>2024-08-04T12:15:33.952Z</time>
      </trkpt>
      <trkpt lat="54.32943" lon="18.77149">
        <ele>29.019642</ele>
        <time>2024-08-04T12:15:35.941Z</time>
      </trkpt>
      <trkpt lat="54.32944" lon="18.77167">
        <ele>29.022972</ele>
        <time>2024-08-04T12:15:37.939Z</time>
      </trkpt>
      <trkpt lat="54.32946" lon="18.77183">
        <ele>29.026112</ele>
        <time>2024-08-04T12:15:39.946Z</time>
      </trkpt>
      <trkpt lat="54.32948" lon="18.77199">
        <ele>29.02929</ele>
        <time>2024-08-04T12:15:41.991Z</time>
      </trkpt>
      <trkpt lat="54.3295" lon="18.77222">
        <ele>29.033714</ele>
        <time>2024-08-04T12:15:44.946Z</time>
      </trkpt>
      <trkpt lat="54.32953" lon="18.77244">
        <ele>29.038043</ele>
        <time>2024-08-04T12:15:47.959Z</time>
      </trkpt>
      <trkpt lat="54.32955" lon="18.77266">
        <ele>29.042324</ele>
        <time>2024-08-04T12:15:50.940Z</time>
      </trkpt>
      <trkpt lat="54.32957" lon="18.77288">
        <ele>29.094078</ele>
        <time>2024-08-04T12:15:53.941Z</time>
      </trkpt>
      <trkpt lat="54.32959" lon="18.77309">
        <ele>29.167937</ele>
        <time>2024-08-04T12:15:56.943Z</time>
      </trkpt>
      <trkpt lat="54.32961" lon="18.7733">
        <ele>29.238717</ele>
        <time>2024-08-04T12:15:59.962Z</time>
      </trkpt>
      <trkpt lat="54.32963" lon="18.77351">
        <ele>29.31074</ele>
        <time>2024-08-04T12:16:02.939Z</time>
      </trkpt>
      <trkpt lat="54.32965" lon="18.77373">
        <ele>29.383349</ele>
        <time>2024-08-04T12:16:05.943Z</time>
      </trkpt>
      <trkpt lat="54.32966" lon="18.77395">
        <ele>29.458701</ele>
        <time>2024-08-04T12:16:08.941Z</time>
      </trkpt>
      <trkpt lat="54.32968" lon="18.77418">
        <ele>29.535838</ele>
        <time>2024-08-04T12:16:11.956Z</time>
      </trkpt>
      <trkpt lat="54.32969" lon="18.7744">
        <ele>29.611851</ele>
        <time>2024-08-04T12:16:14.941Z</time>
      </trkpt>
      <trkpt lat="54.3297" lon="18.77463">
        <ele>29.687863</ele>
        <time>2024-08-04T12:16:17.956Z</time>
      </trkpt>
      <trkpt lat="54.32971" lon="18.77485">
        <ele>29.764019</ele>
        <time>2024-08-04T12:16:20.945Z</time>
      </trkpt>
      <trkpt lat="54.32972" lon="18.77507">
        <ele>29.837199</ele>
        <time>2024-08-04T12:16:23.945Z</time>
      </trkpt>
      <trkpt lat="54.32974" lon="18.77528">
        <ele>29.908864</ele>
        <time>2024-08-04T12:16:26.948Z</time>
      </trkpt>
      <trkpt lat="54.32974" lon="18.7755">
        <ele>29.982263</ele>
        <time>2024-08-04T12:16:29.944Z</time>
      </trkpt>
      <trkpt lat="54.32975" lon="18.77572">
        <ele>30.056406</ele>
        <time>2024-08-04T12:16:32.964Z</time>
      </trkpt>
      <trkpt lat="54.32977" lon="18.77594">
        <ele>30.036796</ele>
        <time>2024-08-04T12:16:35.919Z</time>
      </trkpt>
      <trkpt lat="54.32978" lon="18.77617">
        <ele>29.970293</ele>
        <time>2024-08-04T12:16:38.943Z</time>
      </trkpt>
      <trkpt lat="54.3298" lon="18.77639">
        <ele>29.907001</ele>
        <time>2024-08-04T12:16:41.916Z</time>
      </trkpt>
      <trkpt lat="54.32981" lon="18.77661">
        <ele>29.842727</ele>
        <time>2024-08-04T12:16:44.954Z</time>
      </trkpt>
      <trkpt lat="54.32981" lon="18.77684">
        <ele>29.776268</ele>
        <time>2024-08-04T12:16:47.950Z</time>
      </trkpt>
      <trkpt lat="54.32981" lon="18.77707">
        <ele>29.711236</ele>
        <time>2024-08-04T12:16:50.942Z</time>
      </trkpt>
      <trkpt lat="54.32982" lon="18.77722">
        <ele>29.666111</ele>
        <time>2024-08-04T12:16:52.941Z</time>
      </trkpt>
      <trkpt lat="54.32982" lon="18.77744">
        <ele>29.603996</ele>
        <time>2024-08-04T12:16:55.940Z</time>
      </trkpt>
      <trkpt lat="54.32982" lon="18.77767">
        <ele>29.538137</ele>
        <time>2024-08-04T12:16:58.939Z</time>
      </trkpt>
      <trkpt lat="54.32983" lon="18.77783">
        <ele>29.49219</ele>
        <time>2024-08-04T12:17:00.957Z</time>
      </trkpt>
      <trkpt lat="54.32983" lon="18.77798">
        <ele>29.446834</ele>
        <time>2024-08-04T12:17:02.950Z</time>
      </trkpt>
      <trkpt lat="54.32983" lon="18.77814">
        <ele>29.401197</ele>
        <time>2024-08-04T12:17:04.952Z</time>
      </trkpt>
      <trkpt lat="54.32983" lon="18.7783">
        <ele>29.355539</ele>
        <time>2024-08-04T12:17:06.958Z</time>
      </trkpt>
      <trkpt lat="54.32983" lon="18.77846">
        <ele>29.309038</ele>
        <time>2024-08-04T12:17:08.938Z</time>
      </trkpt>
      <trkpt lat="54.32983" lon="18.77862">
        <ele>29.263693</ele>
        <time>2024-08-04T12:17:10.948Z</time>
      </trkpt>
      <trkpt lat="54.32984" lon="18.77878">
        <ele>29.21688</ele>
        <time>2024-08-04T12:17:12.957Z</time>
      </trkpt>
      <trkpt lat="54.32983" lon="18.77894">
        <ele>29.206053</ele>
        <time>2024-08-04T12:17:14.948Z</time>
      </trkpt>
      <trkpt lat="54.32984" lon="18.77917">
        <ele>29.265669</ele>
        <time>2024-08-04T12:17:17.938Z</time>
      </trkpt>
      <trkpt lat="54.32984" lon="18.77932">
        <ele>29.306443</ele>
        <time>2024-08-04T12:17:19.939Z</time>
      </trkpt>
      <trkpt lat="54.32983" lon="18.77949">
        <ele>29.34988</ele>
        <time>2024-08-04T12:17:21.961Z</time>
      </trkpt>
      <trkpt lat="54.32983" lon="18.77965">
        <ele>29.390922</ele>
        <time>2024-08-04T12:17:23.948Z</time>
      </trkpt>
      <trkpt lat="54.32983" lon="18.77982">
        <ele>29.433764</ele>
        <time>2024-08-04T12:17:25.940Z</time>
      </trkpt>
      <trkpt lat="54.32983" lon="18.77999">
        <ele>29.477379</ele>
        <time>2024-08-04T12:17:27.942Z</time>
      </trkpt>
      <trkpt lat="54.32984" lon="18.78015">
        <ele>29.520558</ele>
        <time>2024-08-04T12:17:29.949Z</time>
      </trkpt>
      <trkpt lat="54.32984" lon="18.78032">
        <ele>29.564485</ele>
        <time>2024-08-04T12:17:31.960Z</time>
      </trkpt>
      <trkpt lat="54.32984" lon="18.78049">
        <ele>29.607861</ele>
        <time>2024-08-04T12:17:33.938Z</time>
      </trkpt>
      <trkpt lat="54.32983" lon="18.78066">
        <ele>29.650463</ele>
        <time>2024-08-04T12:17:35.961Z</time>
      </trkpt>
      <trkpt lat="54.32983" lon="18.78082">
        <ele>29.693854</ele>
        <time>2024-08-04T12:17:37.952Z</time>
      </trkpt>
      <trkpt lat="54.32983" lon="18.78099">
        <ele>29.737761</ele>
        <time>2024-08-04T12:17:39.939Z</time>
      </trkpt>
      <trkpt lat="54.32983" lon="18.78117">
        <ele>29.78272</ele>
        <time>2024-08-04T12:17:41.961Z</time>
      </trkpt>
      <trkpt lat="54.32983" lon="18.78134">
        <ele>29.825819</ele>
        <time>2024-08-04T12:17:43.939Z</time>
      </trkpt>
      <trkpt lat="54.32983" lon="18.78151">
        <ele>29.870209</ele>
        <time>2024-08-04T12:17:45.947Z</time>
      </trkpt>
      <trkpt lat="54.32983" lon="18.78167">
        <ele>29.913342</ele>
        <time>2024-08-04T12:17:47.950Z</time>
      </trkpt>
      <trkpt lat="54.32983" lon="18.78186">
        <ele>29.961859</ele>
        <time>2024-08-04T12:17:49.958Z</time>
      </trkpt>
      <trkpt lat="54.32984" lon="18.78204">
        <ele>29.978632</ele>
        <time>2024-08-04T12:17:51.950Z</time>
      </trkpt>
      <trkpt lat="54.32986" lon="18.78221">
        <ele>29.964092</ele>
        <time>2024-08-04T12:17:53.950Z</time>
      </trkpt>
      <trkpt lat="54.32987" lon="18.78237">
        <ele>29.950491</ele>
        <time>2024-08-04T12:17:55.945Z</time>
      </trkpt>
      <trkpt lat="54.32986" lon="18.78253">
        <ele>29.937022</ele>
        <time>2024-08-04T12:17:57.956Z</time>
      </trkpt>
      <trkpt lat="54.32986" lon="18.78269">
        <ele>29.923264</ele>
        <time>2024-08-04T12:17:59.923Z</time>
      </trkpt>
      <trkpt lat="54.32984" lon="18.78292">
        <ele>29.903731</ele>
        <time>2024-08-04T12:18:02.946Z</time>
      </trkpt>
      <trkpt lat="54.32984" lon="18.78315">
        <ele>29.883993</ele>
        <time>2024-08-04T12:18:05.954Z</time>
      </trkpt>
      <trkpt lat="54.32986" lon="18.78336">
        <ele>29.866544</ele>
        <time>2024-08-04T12:18:08.933Z</time>
      </trkpt>
      <trkpt lat="54.32983" lon="18.78356">
        <ele>29.849099</ele>
        <time>2024-08-04T12:18:11.933Z</time>
      </trkpt>
      <trkpt lat="54.32982" lon="18.78371">
        <ele>29.835715</ele>
        <time>2024-08-04T12:18:13.930Z</time>
      </trkpt>
      <trkpt lat="54.32983" lon="18.78394">
        <ele>29.816142</ele>
        <time>2024-08-04T12:18:16.942Z</time>
      </trkpt>
      <trkpt lat="54.32983" lon="18.7841">
        <ele>29.802676</ele>
        <time>2024-08-04T12:18:18.949Z</time>
      </trkpt>
      <trkpt lat="54.32983" lon="18.78427">
        <ele>29.788779</ele>
        <time>2024-08-04T12:18:20.952Z</time>
      </trkpt>
      <trkpt lat="54.32984" lon="18.78444">
        <ele>29.774539</ele>
        <time>2024-08-04T12:18:22.954Z</time>
      </trkpt>
      <trkpt lat="54.32984" lon="18.78461">
        <ele>29.760141</ele>
        <time>2024-08-04T12:18:24.944Z</time>
      </trkpt>
      <trkpt lat="54.32983" lon="18.78478">
        <ele>29.745229</ele>
        <time>2024-08-04T12:18:26.939Z</time>
      </trkpt>
      <trkpt lat="54.32983" lon="18.78496">
        <ele>29.730321</ele>
        <time>2024-08-04T12:18:28.953Z</time>
      </trkpt>
      <trkpt lat="54.32983" lon="18.78513">
        <ele>29.721962</ele>
        <time>2024-08-04T12:18:30.947Z</time>
      </trkpt>
      <trkpt lat="54.32983" lon="18.78529">
        <ele>29.717927</ele>
        <time>2024-08-04T12:18:32.953Z</time>
      </trkpt>
      <trkpt lat="54.32984" lon="18.78547">
        <ele>29.713498</ele>
        <time>2024-08-04T12:18:34.946Z</time>
      </trkpt>
      <trkpt lat="54.32983" lon="18.78564">
        <ele>29.709311</ele>
        <time>2024-08-04T12:18:36.944Z</time>
      </trkpt>
      <trkpt lat="54.32983" lon="18.78582">
        <ele>29.70503</ele>
        <time>2024-08-04T12:18:38.949Z</time>
      </trkpt>
      <trkpt lat="54.32983" lon="18.78599">
        <ele>29.700795</ele>
        <time>2024-08-04T12:18:40.956Z</time>
      </trkpt>
      <trkpt lat="54.32983" lon="18.78617">
        <ele>29.696465</ele>
        <time>2024-08-04T12:18:42.954Z</time>
      </trkpt>
      <trkpt lat="54.32984" lon="18.78634">
        <ele>29.692181</ele>
        <time>2024-08-04T12:18:44.959Z</time>
      </trkpt>
      <trkpt lat="54.32984" lon="18.78652">
        <ele>29.687851</ele>
        <time>2024-08-04T12:18:46.941Z</time>
      </trkpt>
      <trkpt lat="54.32984" lon="18.78669">
        <ele>29.68352</ele>
        <time>2024-08-04T12:18:48.945Z</time>
      </trkpt>
      <trkpt lat="54.32984" lon="18.78687">
        <ele>29.679261</ele>
        <time>2024-08-04T12:18:50.959Z</time>
      </trkpt>
      <trkpt lat="54.32984" lon="18.78704">
        <ele>29.675029</ele>
        <time>2024-08-04T12:18:52.947Z</time>
      </trkpt>
      <trkpt lat="54.32984" lon="18.78721">
        <ele>29.670698</ele>
        <time>2024-08-04T12:18:54.950Z</time>
      </trkpt>
      <trkpt lat="54.32984" lon="18.78738">
        <ele>29.666491</ele>
        <time>2024-08-04T12:18:56.953Z</time>
      </trkpt>
      <trkpt lat="54.32984" lon="18.78755">
        <ele>29.662528</ele>
        <time>2024-08-04T12:18:58.949Z</time>
      </trkpt>
      <trkpt lat="54.32984" lon="18.7877">
        <ele>29.658664</ele>
        <time>2024-08-04T12:19:00.948Z</time>
      </trkpt>
      <trkpt lat="54.32984" lon="18.78786">
        <ele>29.654826</ele>
        <time>2024-08-04T12:19:02.948Z</time>
      </trkpt>
      <trkpt lat="54.32985" lon="18.78802">
        <ele>29.65092</ele>
        <time>2024-08-04T12:19:04.942Z</time>
      </trkpt>
      <trkpt lat="54.32985" lon="18.78817">
        <ele>29.615677</ele>
        <time>2024-08-04T12:19:06.943Z</time>
      </trkpt>
      <trkpt lat="54.32988" lon="18.78837">
        <ele>29.509285</ele>
        <time>2024-08-04T12:19:09.925Z</time>
      </trkpt>
      <trkpt lat="54.3299" lon="18.78856">
        <ele>29.409485</ele>
        <time>2024-08-04T12:19:12.948Z</time>
      </trkpt>
      <trkpt lat="54.32984" lon="18.78873">
        <ele>29.311987</ele>
        <time>2024-08-04T12:19:15.945Z</time>
      </trkpt>
      <trkpt lat="54.32984" lon="18.78893">
        <ele>29.205826</ele>
        <time>2024-08-04T12:19:18.958Z</time>
      </trkpt>
      <trkpt lat="54.32984" lon="18.78915">
        <ele>29.09506</ele>
        <time>2024-08-04T12:19:21.931Z</time>
      </trkpt>
      <trkpt lat="54.32983" lon="18.78931">
        <ele>29.013069</ele>
        <time>2024-08-04T12:19:23.940Z</time>
      </trkpt>
      <trkpt lat="54.32983" lon="18.78953">
        <ele>28.896633</ele>
        <time>2024-08-04T12:19:26.943Z</time>
      </trkpt>
      <trkpt lat="54.32983" lon="18.7897">
        <ele>28.808021</ele>
        <time>2024-08-04T12:19:28.954Z</time>
      </trkpt>
      <trkpt lat="54.32984" lon="18.78988">
        <ele>28.718854</ele>
        <time>2024-08-04T12:19:30.946Z</time>
      </trkpt>
      <trkpt lat="54.32984" lon="18.79005">
        <ele>28.631231</ele>
        <time>2024-08-04T12:19:32.955Z</time>
      </trkpt>
      <trkpt lat="54.32984" lon="18.79021">
        <ele>28.545637</ele>
        <time>2024-08-04T12:19:34.942Z</time>
      </trkpt>
      <trkpt lat="54.32984" lon="18.79038">
        <ele>28.458051</ele>
        <time>2024-08-04T12:19:36.942Z</time>
      </trkpt>
      <trkpt lat="54.32984" lon="18.79056">
        <ele>28.366845</ele>
        <time>2024-08-04T12:19:38.937Z</time>
      </trkpt>
      <trkpt lat="54.32984" lon="18.79073">
        <ele>28.278744</ele>
        <time>2024-08-04T12:19:40.948Z</time>
      </trkpt>
      <trkpt lat="54.32984" lon="18.7909">
        <ele>28.189612</ele>
        <time>2024-08-04T12:19:42.947Z</time>
      </trkpt>
      <trkpt lat="54.32984" lon="18.79109">
        <ele>28.095843</ele>
        <time>2024-08-04T12:19:44.949Z</time>
      </trkpt>
      <trkpt lat="54.32984" lon="18.79127">
        <ele>28.092729</ele>
        <time>2024-08-04T12:19:46.950Z</time>
      </trkpt>
      <trkpt lat="54.32984" lon="18.79144">
        <ele>28.146961</ele>
        <time>2024-08-04T12:19:48.935Z</time>
      </trkpt>
      <trkpt lat="54.32984" lon="18.79162">
        <ele>28.199666</ele>
        <time>2024-08-04T12:19:50.946Z</time>
      </trkpt>
      <trkpt lat="54.32984" lon="18.79179">
        <ele>28.253007</ele>
        <time>2024-08-04T12:19:52.946Z</time>
      </trkpt>
      <trkpt lat="54.32984" lon="18.79198">
        <ele>28.308731</ele>
        <time>2024-08-04T12:19:54.944Z</time>
      </trkpt>
      <trkpt lat="54.32984" lon="18.79215">
        <ele>28.361215</ele>
        <time>2024-08-04T12:19:56.954Z</time>
      </trkpt>
      <trkpt lat="54.32984" lon="18.79233">
        <ele>28.414841</ele>
        <time>2024-08-04T12:19:58.955Z</time>
      </trkpt>
      <trkpt lat="54.32984" lon="18.79251">
        <ele>28.468448</ele>
        <time>2024-08-04T12:20:00.955Z</time>
      </trkpt>
      <trkpt lat="54.32984" lon="18.79268">
        <ele>28.522354</ele>
        <time>2024-08-04T12:20:02.937Z</time>
      </trkpt>
      <trkpt lat="54.32984" lon="18.79286">
        <ele>28.57626</ele>
        <time>2024-08-04T12:20:04.945Z</time>
      </trkpt>
      <trkpt lat="54.32984" lon="18.79303">
        <ele>28.628349</ele>
        <time>2024-08-04T12:20:06.946Z</time>
      </trkpt>
      <trkpt lat="54.32984" lon="18.7932">
        <ele>28.679833</ele>
        <time>2024-08-04T12:20:08.940Z</time>
      </trkpt>
      <trkpt lat="54.32984" lon="18.79337">
        <ele>28.73163</ele>
        <time>2024-08-04T12:20:10.949Z</time>
      </trkpt>
      <trkpt lat="54.32984" lon="18.79354">
        <ele>28.780413</ele>
        <time>2024-08-04T12:20:12.952Z</time>
      </trkpt>
      <trkpt lat="54.32984" lon="18.79369">
        <ele>28.828635</ele>
        <time>2024-08-04T12:20:14.946Z</time>
      </trkpt>
      <trkpt lat="54.32984" lon="18.79385">
        <ele>28.87653</ele>
        <time>2024-08-04T12:20:16.952Z</time>
      </trkpt>
      <trkpt lat="54.32984" lon="18.79408">
        <ele>28.946494</ele>
        <time>2024-08-04T12:20:19.940Z</time>
      </trkpt>
      <trkpt lat="54.32984" lon="18.79424">
        <ele>28.993133</ele>
        <time>2024-08-04T12:20:21.955Z</time>
      </trkpt>
      <trkpt lat="54.32984" lon="18.79439">
        <ele>29.030472</ele>
        <time>2024-08-04T12:20:23.953Z</time>
      </trkpt>
      <trkpt lat="54.32985" lon="18.79462">
        <ele>29.083589</ele>
        <time>2024-08-04T12:20:26.945Z</time>
      </trkpt>
      <trkpt lat="54.32985" lon="18.79483">
        <ele>29.135355</ele>
        <time>2024-08-04T12:20:29.947Z</time>
      </trkpt>
      <trkpt lat="54.32986" lon="18.79505">
        <ele>29.186748</ele>
        <time>2024-08-04T12:20:32.949Z</time>
      </trkpt>
      <trkpt lat="54.32987" lon="18.79527">
        <ele>29.238985</ele>
        <time>2024-08-04T12:20:35.936Z</time>
      </trkpt>
      <trkpt lat="54.32989" lon="18.79549">
        <ele>29.292162</ele>
        <time>2024-08-04T12:20:38.943Z</time>
      </trkpt>
      <trkpt lat="54.32989" lon="18.79571">
        <ele>29.344922</ele>
        <time>2024-08-04T12:20:41.954Z</time>
      </trkpt>
      <trkpt lat="54.3299" lon="18.79593">
        <ele>29.399261</ele>
        <time>2024-08-04T12:20:44.947Z</time>
      </trkpt>
      <trkpt lat="54.32991" lon="18.79609">
        <ele>29.437034</ele>
        <time>2024-08-04T12:20:46.916Z</time>
      </trkpt>
      <trkpt lat="54.32992" lon="18.79625">
        <ele>29.475105</ele>
        <time>2024-08-04T12:20:48.951Z</time>
      </trkpt>
      <trkpt lat="54.32994" lon="18.79648">
        <ele>29.529938</ele>
        <time>2024-08-04T12:20:51.964Z</time>
      </trkpt>
      <trkpt lat="54.32996" lon="18.79663">
        <ele>29.567094</ele>
        <time>2024-08-04T12:20:53.936Z</time>
      </trkpt>
      <trkpt lat="54.32997" lon="18.79686">
        <ele>29.621507</ele>
        <time>2024-08-04T12:20:56.961Z</time>
      </trkpt>
      <trkpt lat="54.32999" lon="18.79707">
        <ele>29.672911</ele>
        <time>2024-08-04T12:20:59.947Z</time>
      </trkpt>
      <trkpt lat="54.33002" lon="18.79729">
        <ele>29.726158</ele>
        <time>2024-08-04T12:21:02.939Z</time>
      </trkpt>
      <trkpt lat="54.33003" lon="18.79745">
        <ele>29.737254</ele>
        <time>2024-08-04T12:21:04.956Z</time>
      </trkpt>
      <trkpt lat="54.33004" lon="18.79761">
        <ele>29.745339</ele>
        <time>2024-08-04T12:21:06.942Z</time>
      </trkpt>
      <trkpt lat="54.33006" lon="18.79776">
        <ele>29.753449</ele>
        <time>2024-08-04T12:21:08.956Z</time>
      </trkpt>
      <trkpt lat="54.33007" lon="18.79793">
        <ele>29.761944</ele>
        <time>2024-08-04T12:21:10.954Z</time>
      </trkpt>
      <trkpt lat="54.33009" lon="18.79808">
        <ele>29.770173</ele>
        <time>2024-08-04T12:21:12.946Z</time>
      </trkpt>
      <trkpt lat="54.33011" lon="18.79824">
        <ele>29.778776</ele>
        <time>2024-08-04T12:21:14.943Z</time>
      </trkpt>
      <trkpt lat="54.33013" lon="18.7984">
        <ele>29.787181</ele>
        <time>2024-08-04T12:21:16.942Z</time>
      </trkpt>
      <trkpt lat="54.33014" lon="18.79856">
        <ele>29.795549</ele>
        <time>2024-08-04T12:21:18.947Z</time>
      </trkpt>
      <trkpt lat="54.33017" lon="18.79871">
        <ele>29.803581</ele>
        <time>2024-08-04T12:21:20.945Z</time>
      </trkpt>
      <trkpt lat="54.33019" lon="18.79887">
        <ele>29.812061</ele>
        <time>2024-08-04T12:21:22.947Z</time>
      </trkpt>
      <trkpt lat="54.33023" lon="18.7991">
        <ele>29.824413</ele>
        <time>2024-08-04T12:21:25.941Z</time>
      </trkpt>
      <trkpt lat="54.33025" lon="18.79926">
        <ele>29.83265</ele>
        <time>2024-08-04T12:21:27.954Z</time>
      </trkpt>
      <trkpt lat="54.33027" lon="18.79942">
        <ele>29.840981</ele>
        <time>2024-08-04T12:21:29.962Z</time>
      </trkpt>
      <trkpt lat="54.3303" lon="18.79958">
        <ele>29.850028</ele>
        <time>2024-08-04T12:21:31.974Z</time>
      </trkpt>
      <trkpt lat="54.33033" lon="18.79975">
        <ele>29.858889</ele>
        <time>2024-08-04T12:21:33.937Z</time>
      </trkpt>
      <trkpt lat="54.33037" lon="18.79991">
        <ele>29.868082</ele>
        <time>2024-08-04T12:21:35.935Z</time>
      </trkpt>
      <trkpt lat="54.33041" lon="18.80007">
        <ele>29.876798</ele>
        <time>2024-08-04T12:21:37.954Z</time>
      </trkpt>
      <trkpt lat="54.33044" lon="18.80023">
        <ele>29.885477</ele>
        <time>2024-08-04T12:21:39.941Z</time>
      </trkpt>
      <trkpt lat="54.33046" lon="18.80039">
        <ele>29.861282</ele>
        <time>2024-08-04T12:21:41.954Z</time>
      </trkpt>
      <trkpt lat="54.33047" lon="18.80055">
        <ele>29.817935</ele>
        <time>2024-08-04T12:21:43.939Z</time>
      </trkpt>
      <trkpt lat="54.33049" lon="18.80076">
        <ele>29.760862</ele>
        <time>2024-08-04T12:21:46.939Z</time>
      </trkpt>
      <trkpt lat="54.33054" lon="18.80093">
        <ele>29.708913</ele>
        <time>2024-08-04T12:21:49.946Z</time>
      </trkpt>
      <trkpt lat="54.33062" lon="18.80104">
        <ele>29.661737</ele>
        <time>2024-08-04T12:21:52.941Z</time>
      </trkpt>
      <trkpt lat="54.33064" lon="18.80122">
        <ele>29.612531</ele>
        <time>2024-08-04T12:21:55.935Z</time>
      </trkpt>
      <trkpt lat="54.33062" lon="18.80138">
        <ele>29.568352</ele>
        <time>2024-08-04T12:21:58.934Z</time>
      </trkpt>
      <trkpt lat="54.33064" lon="18.80156">
        <ele>29.519146</ele>
        <time>2024-08-04T12:22:01.956Z</time>
      </trkpt>
      <trkpt lat="54.33069" lon="18.80173">
        <ele>29.466391</ele>
        <time>2024-08-04T12:22:04.942Z</time>
      </trkpt>
      <trkpt lat="54.33073" lon="18.80193">
        <ele>29.408498</ele>
        <time>2024-08-04T12:22:07.942Z</time>
      </trkpt>
      <trkpt lat="54.33078" lon="18.80212">
        <ele>29.354696</ele>
        <time>2024-08-04T12:22:10.939Z</time>
      </trkpt>
      <trkpt lat="54.33081" lon="18.80231">
        <ele>29.299464</ele>
        <time>2024-08-04T12:22:13.926Z</time>
      </trkpt>
      <trkpt lat="54.33085" lon="18.80252">
        <ele>29.240733</ele>
        <time>2024-08-04T12:22:16.953Z</time>
      </trkpt>
      <trkpt lat="54.33089" lon="18.80273">
        <ele>29.179772</ele>
        <time>2024-08-04T12:22:19.959Z</time>
      </trkpt>
      <trkpt lat="54.33093" lon="18.80295">
        <ele>29.119357</ele>
        <time>2024-08-04T12:22:22.962Z</time>
      </trkpt>
      <trkpt lat="54.33097" lon="18.80316">
        <ele>29.058857</ele>
        <time>2024-08-04T12:22:25.943Z</time>
      </trkpt>
      <trkpt lat="54.33102" lon="18.80337">
        <ele>29.05208</ele>
        <time>2024-08-04T12:22:28.960Z</time>
      </trkpt>
      <trkpt lat="54.33106" lon="18.80358">
        <ele>29.047984</ele>
        <time>2024-08-04T12:22:31.950Z</time>
      </trkpt>
      <trkpt lat="54.33109" lon="18.80373">
        <ele>29.04515</ele>
        <time>2024-08-04T12:22:33.941Z</time>
      </trkpt>
      <trkpt lat="54.33113" lon="18.80395">
        <ele>29.040966</ele>
        <time>2024-08-04T12:22:36.949Z</time>
      </trkpt>
      <trkpt lat="54.33118" lon="18.80417">
        <ele>29.036804</ele>
        <time>2024-08-04T12:22:39.940Z</time>
      </trkpt>
      <trkpt lat="54.33121" lon="18.80431">
        <ele>29.033962</ele>
        <time>2024-08-04T12:22:41.969Z</time>
      </trkpt>
      <trkpt lat="54.33124" lon="18.80447">
        <ele>29.030973</ele>
        <time>2024-08-04T12:22:43.929Z</time>
      </trkpt>
      <trkpt lat="54.33127" lon="18.80462">
        <ele>29.02804</ele>
        <time>2024-08-04T12:22:45.946Z</time>
      </trkpt>
      <trkpt lat="54.3313" lon="18.80477">
        <ele>29.025216</ele>
        <time>2024-08-04T12:22:47.938Z</time>
      </trkpt>
      <trkpt lat="54.33134" lon="18.80492">
        <ele>29.022199</ele>
        <time>2024-08-04T12:22:49.952Z</time>
      </trkpt>
      <trkpt lat="54.33137" lon="18.80509">
        <ele>29.019087</ele>
        <time>2024-08-04T12:22:51.958Z</time>
      </trkpt>
      <trkpt lat="54.3314" lon="18.80524">
        <ele>29.016041</ele>
        <time>2024-08-04T12:22:53.944Z</time>
      </trkpt>
      <trkpt lat="54.33143" lon="18.8054">
        <ele>29.013017</ele>
        <time>2024-08-04T12:22:55.941Z</time>
      </trkpt>
      <trkpt lat="54.33146" lon="18.80556">
        <ele>29.010097</ele>
        <time>2024-08-04T12:22:57.959Z</time>
      </trkpt>
      <trkpt lat="54.33149" lon="18.80571">
        <ele>29.00714</ele>
        <time>2024-08-04T12:22:59.958Z</time>
      </trkpt>
      <trkpt lat="54.33152" lon="18.80586">
        <ele>29.004313</ele>
        <time>2024-08-04T12:23:01.960Z</time>
      </trkpt>
      <trkpt lat="54.33157" lon="18.80608">
        <ele>29.000065</ele>
        <time>2024-08-04T12:23:04.947Z</time>
      </trkpt>
      <trkpt lat="54.3316" lon="18.80623">
        <ele>28.96477</ele>
        <time>2024-08-04T12:23:06.932Z</time>
      </trkpt>
      <trkpt lat="54.33163" lon="18.80639">
        <ele>28.929009</ele>
        <time>2024-08-04T12:23:08.949Z</time>
      </trkpt>
      <trkpt lat="54.33166" lon="18.80654">
        <ele>28.892651</ele>
        <time>2024-08-04T12:23:10.954Z</time>
      </trkpt>
      <trkpt lat="54.33169" lon="18.80669">
        <ele>28.85745</ele>
        <time>2024-08-04T12:23:12.947Z</time>
      </trkpt>
      <trkpt lat="54.33173" lon="18.80685">
        <ele>28.822044</ele>
        <time>2024-08-04T12:23:14.952Z</time>
      </trkpt>
      <trkpt lat="54.33176" lon="18.807">
        <ele>28.786142</ele>
        <time>2024-08-04T12:23:16.954Z</time>
      </trkpt>
      <trkpt lat="54.33179" lon="18.80715">
        <ele>28.750894</ele>
        <time>2024-08-04T12:23:18.949Z</time>
      </trkpt>
      <trkpt lat="54.33182" lon="18.8073">
        <ele>28.715412</ele>
        <time>2024-08-04T12:23:20.941Z</time>
      </trkpt>
      <trkpt lat="54.33185" lon="18.80746">
        <ele>28.678889</ele>
        <time>2024-08-04T12:23:22.954Z</time>
      </trkpt>
      <trkpt lat="54.33188" lon="18.80762">
        <ele>28.642066</ele>
        <time>2024-08-04T12:23:24.935Z</time>
      </trkpt>
      <trkpt lat="54.33192" lon="18.80777">
        <ele>28.607071</ele>
        <time>2024-08-04T12:23:26.950Z</time>
      </trkpt>
      <trkpt lat="54.33195" lon="18.80792">
        <ele>28.57133</ele>
        <time>2024-08-04T12:23:28.931Z</time>
      </trkpt>
      <trkpt lat="54.33198" lon="18.80809">
        <ele>28.534064</ele>
        <time>2024-08-04T12:23:30.924Z</time>
      </trkpt>
      <trkpt lat="54.33201" lon="18.80824">
        <ele>28.497674</ele>
        <time>2024-08-04T12:23:32.943Z</time>
      </trkpt>
      <trkpt lat="54.33204" lon="18.8084">
        <ele>28.460848</ele>
        <time>2024-08-04T12:23:34.950Z</time>
      </trkpt>
      <trkpt lat="54.33207" lon="18.80856">
        <ele>28.425154</ele>
        <time>2024-08-04T12:23:36.924Z</time>
      </trkpt>
      <trkpt lat="54.3321" lon="18.80871">
        <ele>28.389812</ele>
        <time>2024-08-04T12:23:38.942Z</time>
      </trkpt>
      <trkpt lat="54.33214" lon="18.80885">
        <ele>28.355913</ele>
        <time>2024-08-04T12:23:40.961Z</time>
      </trkpt>
      <trkpt lat="54.33217" lon="18.80902">
        <ele>28.319972</ele>
        <time>2024-08-04T12:23:42.957Z</time>
      </trkpt>
      <trkpt lat="54.3322" lon="18.80917">
        <ele>28.293451</ele>
        <time>2024-08-04T12:23:44.960Z</time>
      </trkpt>
      <trkpt lat="54.33223" lon="18.80933">
        <ele>28.267422</ele>
        <time>2024-08-04T12:23:46.958Z</time>
      </trkpt>
      <trkpt lat="54.33226" lon="18.80949">
        <ele>28.241345</ele>
        <time>2024-08-04T12:23:48.953Z</time>
      </trkpt>
      <trkpt lat="54.3323" lon="18.80964">
        <ele>28.216005</ele>
        <time>2024-08-04T12:23:50.942Z</time>
      </trkpt>
      <trkpt lat="54.33233" lon="18.80979">
        <ele>28.190404</ele>
        <time>2024-08-04T12:23:52.954Z</time>
      </trkpt>
      <trkpt lat="54.33236" lon="18.80994">
        <ele>28.165212</ele>
        <time>2024-08-04T12:23:54.942Z</time>
      </trkpt>
      <trkpt lat="54.33239" lon="18.81009">
        <ele>28.140379</ele>
        <time>2024-08-04T12:23:56.946Z</time>
      </trkpt>
      <trkpt lat="54.33242" lon="18.81025">
        <ele>28.114183</ele>
        <time>2024-08-04T12:23:58.941Z</time>
      </trkpt>
      <trkpt lat="54.33245" lon="18.81041">
        <ele>28.088072</ele>
        <time>2024-08-04T12:24:00.953Z</time>
      </trkpt>
      <trkpt lat="54.33248" lon="18.81056">
        <ele>28.062574</ele>
        <time>2024-08-04T12:24:02.947Z</time>
      </trkpt>
      <trkpt lat="54.33251" lon="18.81072">
        <ele>28.036164</ele>
        <time>2024-08-04T12:24:04.925Z</time>
      </trkpt>
      <trkpt lat="54.33254" lon="18.81088">
        <ele>28.009985</ele>
        <time>2024-08-04T12:24:06.955Z</time>
      </trkpt>
      <trkpt lat="54.33257" lon="18.81104">
        <ele>27.983815</ele>
        <time>2024-08-04T12:24:08.965Z</time>
      </trkpt>
      <trkpt lat="54.33261" lon="18.81119">
        <ele>27.958233</ele>
        <time>2024-08-04T12:24:10.950Z</time>
      </trkpt>
      <trkpt lat="54.33264" lon="18.81135">
        <ele>27.93159</ele>
        <time>2024-08-04T12:24:12.938Z</time>
      </trkpt>
      <trkpt lat="54.33267" lon="18.81151">
        <ele>27.905471</ele>
        <time>2024-08-04T12:24:14.959Z</time>
      </trkpt>
      <trkpt lat="54.33271" lon="18.81166">
        <ele>27.879595</ele>
        <time>2024-08-04T12:24:16.957Z</time>
      </trkpt>
      <trkpt lat="54.33274" lon="18.81182">
        <ele>27.853666</ele>
        <time>2024-08-04T12:24:18.947Z</time>
      </trkpt>
      <trkpt lat="54.33277" lon="18.81197">
        <ele>27.839508</ele>
        <time>2024-08-04T12:24:20.957Z</time>
      </trkpt>
      <trkpt lat="54.3328" lon="18.81213">
        <ele>27.839664</ele>
        <time>2024-08-04T12:24:22.950Z</time>
      </trkpt>
      <trkpt lat="54.33284" lon="18.81229">
        <ele>27.839819</ele>
        <time>2024-08-04T12:24:24.941Z</time>
      </trkpt>
      <trkpt lat="54.33287" lon="18.81244">
        <ele>27.839969</ele>
        <time>2024-08-04T12:24:26.963Z</time>
      </trkpt>
      <trkpt lat="54.3329" lon="18.8126">
        <ele>27.840126</ele>
        <time>2024-08-04T12:24:28.936Z</time>
      </trkpt>
      <trkpt lat="54.33293" lon="18.81276">
        <ele>27.840281</ele>
        <time>2024-08-04T12:24:30.957Z</time>
      </trkpt>
      <trkpt lat="54.33296" lon="18.81292">
        <ele>27.840432</ele>
        <time>2024-08-04T12:24:32.951Z</time>
      </trkpt>
      <trkpt lat="54.333" lon="18.81307">
        <ele>27.840585</ele>
        <time>2024-08-04T12:24:34.912Z</time>
      </trkpt>
      <trkpt lat="54.33303" lon="18.81323">
        <ele>27.840735</ele>
        <time>2024-08-04T12:24:36.943Z</time>
      </trkpt>
      <trkpt lat="54.33306" lon="18.81338">
        <ele>27.840883</ele>
        <time>2024-08-04T12:24:38.945Z</time>
      </trkpt>
      <trkpt lat="54.33309" lon="18.81354">
        <ele>27.841035</ele>
        <time>2024-08-04T12:24:40.940Z</time>
      </trkpt>
      <trkpt lat="54.33312" lon="18.8137">
        <ele>27.841191</ele>
        <time>2024-08-04T12:24:42.948Z</time>
      </trkpt>
      <trkpt lat="54.33316" lon="18.81385">
        <ele>27.841339</ele>
        <time>2024-08-04T12:24:44.964Z</time>
      </trkpt>
      <trkpt lat="54.33319" lon="18.814">
        <ele>27.841492</ele>
        <time>2024-08-04T12:24:46.945Z</time>
      </trkpt>
      <trkpt lat="54.33322" lon="18.81416">
        <ele>27.841645</ele>
        <time>2024-08-04T12:24:48.951Z</time>
      </trkpt>
      <trkpt lat="54.33325" lon="18.81432">
        <ele>27.841795</ele>
        <time>2024-08-04T12:24:50.942Z</time>
      </trkpt>
      <trkpt lat="54.33328" lon="18.81447">
        <ele>27.841943</ele>
        <time>2024-08-04T12:24:52.957Z</time>
      </trkpt>
      <trkpt lat="54.33331" lon="18.81462">
        <ele>27.842089</ele>
        <time>2024-08-04T12:24:54.967Z</time>
      </trkpt>
      <trkpt lat="54.33333" lon="18.81477">
        <ele>27.842234</ele>
        <time>2024-08-04T12:24:56.953Z</time>
      </trkpt>
      <trkpt lat="54.33337" lon="18.81492">
        <ele>27.834274</ele>
        <time>2024-08-04T12:24:58.941Z</time>
      </trkpt>
      <trkpt lat="54.3334" lon="18.81507">
        <ele>27.823315</ele>
        <time>2024-08-04T12:25:00.954Z</time>
      </trkpt>
      <trkpt lat="54.33343" lon="18.81523">
        <ele>27.812014</ele>
        <time>2024-08-04T12:25:02.926Z</time>
      </trkpt>
      <trkpt lat="54.33346" lon="18.81538">
        <ele>27.800807</ele>
        <time>2024-08-04T12:25:04.932Z</time>
      </trkpt>
      <trkpt lat="54.33349" lon="18.81553">
        <ele>27.789901</ele>
        <time>2024-08-04T12:25:06.952Z</time>
      </trkpt>
      <trkpt lat="54.33354" lon="18.81575">
        <ele>27.773637</ele>
        <time>2024-08-04T12:25:09.952Z</time>
      </trkpt>
      <trkpt lat="54.33356" lon="18.81589">
        <ele>27.762906</ele>
        <time>2024-08-04T12:25:11.948Z</time>
      </trkpt>
      <trkpt lat="54.3336" lon="18.81604">
        <ele>27.752012</ele>
        <time>2024-08-04T12:25:13.940Z</time>
      </trkpt>
      <trkpt lat="54.33364" lon="18.81626">
        <ele>27.736153</ele>
        <time>2024-08-04T12:25:16.942Z</time>
      </trkpt>
      <trkpt lat="54.33369" lon="18.81646">
        <ele>27.720922</ele>
        <time>2024-08-04T12:25:19.936Z</time>
      </trkpt>
      <trkpt lat="54.33374" lon="18.81667">
        <ele>27.704954</ele>
        <time>2024-08-04T12:25:22.935Z</time>
      </trkpt>
      <trkpt lat="54.33377" lon="18.81682">
        <ele>27.694168</ele>
        <time>2024-08-04T12:25:24.945Z</time>
      </trkpt>
      <trkpt lat="54.33383" lon="18.81702">
        <ele>27.678827</ele>
        <time>2024-08-04T12:25:27.940Z</time>
      </trkpt>
      <trkpt lat="54.33388" lon="18.81722">
        <ele>27.663252</ele>
        <time>2024-08-04T12:25:30.941Z</time>
      </trkpt>
      <trkpt lat="54.33394" lon="18.81743">
        <ele>27.647265</ele>
        <time>2024-08-04T12:25:33.947Z</time>
      </trkpt>
      <trkpt lat="54.33399" lon="18.81763">
        <ele>27.632266</ele>
        <time>2024-08-04T12:25:36.946Z</time>
      </trkpt>
      <trkpt lat="54.33405" lon="18.81783">
        <ele>27.667111</ele>
        <time>2024-08-04T12:25:39.945Z</time>
      </trkpt>
      <trkpt lat="54.33411" lon="18.81802">
        <ele>27.719366</ele>
        <time>2024-08-04T12:25:42.949Z</time>
      </trkpt>
      <trkpt lat="54.33416" lon="18.81821">
        <ele>27.76918</ele>
        <time>2024-08-04T12:25:45.952Z</time>
      </trkpt>
      <trkpt lat="54.33422" lon="18.8184">
        <ele>27.820747</ele>
        <time>2024-08-04T12:25:48.956Z</time>
      </trkpt>
      <trkpt lat="54.33428" lon="18.81859">
        <ele>27.872577</ele>
        <time>2024-08-04T12:25:51.961Z</time>
      </trkpt>
      <trkpt lat="54.33435" lon="18.81878">
        <ele>27.925166</ele>
        <time>2024-08-04T12:25:54.944Z</time>
      </trkpt>
      <trkpt lat="54.33442" lon="18.81897">
        <ele>27.978659</ele>
        <time>2024-08-04T12:25:57.932Z</time>
      </trkpt>
      <trkpt lat="54.33448" lon="18.81916">
        <ele>28.03105</ele>
        <time>2024-08-04T12:26:00.954Z</time>
      </trkpt>
      <trkpt lat="54.33454" lon="18.81934">
        <ele>28.081581</ele>
        <time>2024-08-04T12:26:03.934Z</time>
      </trkpt>
      <trkpt lat="54.33461" lon="18.81952">
        <ele>28.132338</ele>
        <time>2024-08-04T12:26:06.940Z</time>
      </trkpt>
      <trkpt lat="54.33467" lon="18.8197">
        <ele>28.182879</ele>
        <time>2024-08-04T12:26:09.936Z</time>
      </trkpt>
      <trkpt lat="54.33474" lon="18.81988">
        <ele>28.234526</ele>
        <time>2024-08-04T12:26:12.944Z</time>
      </trkpt>
      <trkpt lat="54.33481" lon="18.82006">
        <ele>28.286148</ele>
        <time>2024-08-04T12:26:15.933Z</time>
      </trkpt>
      <trkpt lat="54.33489" lon="18.82023">
        <ele>28.337039</ele>
        <time>2024-08-04T12:26:18.945Z</time>
      </trkpt>
      <trkpt lat="54.33496" lon="18.8204">
        <ele>28.378123</ele>
        <time>2024-08-04T12:26:21.962Z</time>
      </trkpt>
      <trkpt lat="54.33504" lon="18.82057">
        <ele>28.407927</ele>
        <time>2024-08-04T12:26:24.952Z</time>
      </trkpt>
      <trkpt lat="54.33511" lon="18.82074">
        <ele>28.437662</ele>
        <time>2024-08-04T12:26:27.941Z</time>
      </trkpt>
      <trkpt lat="54.3352" lon="18.8209">
        <ele>28.467846</ele>
        <time>2024-08-04T12:26:30.954Z</time>
      </trkpt>
      <trkpt lat="54.33527" lon="18.82108">
        <ele>28.498568</ele>
        <time>2024-08-04T12:26:33.942Z</time>
      </trkpt>
      <trkpt lat="54.33535" lon="18.82124">
        <ele>28.528391</ele>
        <time>2024-08-04T12:26:36.944Z</time>
      </trkpt>
      <trkpt lat="54.33543" lon="18.8214">
        <ele>28.557478</ele>
        <time>2024-08-04T12:26:39.951Z</time>
      </trkpt>
      <trkpt lat="54.33551" lon="18.82156">
        <ele>28.585786</ele>
        <time>2024-08-04T12:26:42.955Z</time>
      </trkpt>
      <trkpt lat="54.33558" lon="18.82171">
        <ele>28.612733</ele>
        <time>2024-08-04T12:26:45.954Z</time>
      </trkpt>
      <trkpt lat="54.33565" lon="18.82186">
        <ele>28.639976</ele>
        <time>2024-08-04T12:26:48.946Z</time>
      </trkpt>
      <trkpt lat="54.33573" lon="18.82201">
        <ele>28.668697</ele>
        <time>2024-08-04T12:26:51.962Z</time>
      </trkpt>
      <trkpt lat="54.33581" lon="18.82216">
        <ele>28.69777</ele>
        <time>2024-08-04T12:26:54.942Z</time>
      </trkpt>
      <trkpt lat="54.33591" lon="18.8223">
        <ele>28.728025</ele>
        <time>2024-08-04T12:26:57.929Z</time>
      </trkpt>
      <trkpt lat="54.33602" lon="18.82241">
        <ele>28.75718</ele>
        <time>2024-08-04T12:27:00.954Z</time>
      </trkpt>
      <trkpt lat="54.33612" lon="18.82249">
        <ele>28.784664</ele>
        <time>2024-08-04T12:27:03.938Z</time>
      </trkpt>
      <trkpt lat="54.33623" lon="18.82254">
        <ele>28.867508</ele>
        <time>2024-08-04T12:27:06.951Z</time>
      </trkpt>
      <trkpt lat="54.33633" lon="18.82258">
        <ele>28.974845</ele>
        <time>2024-08-04T12:27:09.937Z</time>
      </trkpt>
      <trkpt lat="54.33642" lon="18.82253">
        <ele>29.072813</ele>
        <time>2024-08-04T12:27:13.941Z</time>
      </trkpt>
      <trkpt lat="54.33651" lon="18.82247">
        <ele>29.168836</ele>
        <time>2024-08-04T12:27:19.922Z</time>
      </trkpt>
      <trkpt lat="54.33652" lon="18.82241">
        <ele>29.206606</ele>
        <time>2024-08-04T12:27:30.438Z</time>
      </trkpt>
      <trkpt lat="54.3366" lon="18.82263">
        <ele>29.362788</ele>
        <time>2024-08-04T12:30:03.923Z</time>
      </trkpt>
      <trkpt lat="54.33666" lon="18.82276">
        <ele>29.457278</ele>
        <time>2024-08-04T12:30:06.972Z</time>
      </trkpt>
      <trkpt lat="54.33677" lon="18.8228">
        <ele>29.578852</ele>
        <time>2024-08-04T12:30:09.936Z</time>
      </trkpt>
      <trkpt lat="54.33689" lon="18.82282">
        <ele>29.704063</ele>
        <time>2024-08-04T12:30:12.949Z</time>
      </trkpt>
      <trkpt lat="54.33703" lon="18.82288">
        <ele>29.842635</ele>
        <time>2024-08-04T12:30:15.951Z</time>
      </trkpt>
      <trkpt lat="54.33716" lon="18.82291">
        <ele>29.98237</ele>
        <time>2024-08-04T12:30:18.957Z</time>
      </trkpt>
      <trkpt lat="54.33729" lon="18.82297">
        <ele>30.120817</ele>
        <time>2024-08-04T12:30:21.963Z</time>
      </trkpt>
      <trkpt lat="54.33742" lon="18.82302">
        <ele>30.260122</ele>
        <time>2024-08-04T12:30:24.959Z</time>
      </trkpt>
      <trkpt lat="54.33755" lon="18.82307">
        <ele>30.391497</ele>
        <time>2024-08-04T12:30:27.935Z</time>
      </trkpt>
      <trkpt lat="54.33767" lon="18.82312">
        <ele>30.521677</ele>
        <time>2024-08-04T12:30:30.945Z</time>
      </trkpt>
      <trkpt lat="54.33779" lon="18.82316">
        <ele>30.646524</ele>
        <time>2024-08-04T12:30:33.952Z</time>
      </trkpt>
      <trkpt lat="54.33791" lon="18.8232">
        <ele>30.73818</ele>
        <time>2024-08-04T12:30:36.946Z</time>
      </trkpt>
      <trkpt lat="54.33802" lon="18.82324">
        <ele>30.823037</ele>
        <time>2024-08-04T12:30:39.953Z</time>
      </trkpt>
      <trkpt lat="54.33814" lon="18.82329">
        <ele>30.914675</ele>
        <time>2024-08-04T12:30:42.955Z</time>
      </trkpt>
      <trkpt lat="54.33826" lon="18.82333">
        <ele>31.005389</ele>
        <time>2024-08-04T12:30:45.938Z</time>
      </trkpt>
      <trkpt lat="54.33837" lon="18.82336">
        <ele>31.091408</ele>
        <time>2024-08-04T12:30:48.953Z</time>
      </trkpt>
      <trkpt lat="54.33849" lon="18.8234">
        <ele>31.181506</ele>
        <time>2024-08-04T12:30:51.929Z</time>
      </trkpt>
      <trkpt lat="54.33861" lon="18.82343">
        <ele>31.276225</ele>
        <time>2024-08-04T12:30:54.944Z</time>
      </trkpt>
      <trkpt lat="54.33874" lon="18.82349">
        <ele>31.372231</ele>
        <time>2024-08-04T12:30:57.956Z</time>
      </trkpt>
      <trkpt lat="54.33885" lon="18.82354">
        <ele>31.462184</ele>
        <time>2024-08-04T12:31:00.956Z</time>
      </trkpt>
      <trkpt lat="54.33896" lon="18.82359">
        <ele>31.548711</ele>
        <time>2024-08-04T12:31:03.938Z</time>
      </trkpt>
      <trkpt lat="54.33908" lon="18.82357">
        <ele>31.633836</ele>
        <time>2024-08-04T12:31:06.939Z</time>
      </trkpt>
      <trkpt lat="54.33917" lon="18.82354">
        <ele>31.706942</ele>
        <time>2024-08-04T12:31:09.931Z</time>
      </trkpt>
      <trkpt lat="54.33928" lon="18.8236">
        <ele>31.792</ele>
        <time>2024-08-04T12:31:12.945Z</time>
      </trkpt>
      <trkpt lat="54.33938" lon="18.82361">
        <ele>31.871893</ele>
        <time>2024-08-04T12:31:15.942Z</time>
      </trkpt>
      <trkpt lat="54.3395" lon="18.82356">
        <ele>31.964379</ele>
        <time>2024-08-04T12:31:18.955Z</time>
      </trkpt>
      <trkpt lat="54.33961" lon="18.82352">
        <ele>32.048224</ele>
        <time>2024-08-04T12:31:21.960Z</time>
      </trkpt>
      <trkpt lat="54.33972" lon="18.82347">
        <ele>32.142664</ele>
        <time>2024-08-04T12:31:24.943Z</time>
      </trkpt>
      <trkpt lat="54.33984" lon="18.82341">
        <ele>32.240475</ele>
        <time>2024-08-04T12:31:27.953Z</time>
      </trkpt>
      <trkpt lat="54.33995" lon="18.82335">
        <ele>32.335014</ele>
        <time>2024-08-04T12:31:30.956Z</time>
      </trkpt>
      <trkpt lat="54.34007" lon="18.82333">
        <ele>32.433064</ele>
        <time>2024-08-04T12:31:33.947Z</time>
      </trkpt>
      <trkpt lat="54.3402" lon="18.82331">
        <ele>32.536782</ele>
        <time>2024-08-04T12:31:36.943Z</time>
      </trkpt>
      <trkpt lat="54.34032" lon="18.82333">
        <ele>32.636703</ele>
        <time>2024-08-04T12:31:39.941Z</time>
      </trkpt>
      <trkpt lat="54.34044" lon="18.82335">
        <ele>32.736761</ele>
        <time>2024-08-04T12:31:42.940Z</time>
      </trkpt>
      <trkpt lat="54.34056" lon="18.8234">
        <ele>32.837347</ele>
        <time>2024-08-04T12:31:45.936Z</time>
      </trkpt>
      <trkpt lat="54.34068" lon="18.82346">
        <ele>32.937337</ele>
        <time>2024-08-04T12:31:48.947Z</time>
      </trkpt>
      <trkpt lat="54.3408" lon="18.82354">
        <ele>33.042089</ele>
        <time>2024-08-04T12:31:51.942Z</time>
      </trkpt>
      <trkpt lat="54.34093" lon="18.82363">
        <ele>33.149916</ele>
        <time>2024-08-04T12:31:54.948Z</time>
      </trkpt>
      <trkpt lat="54.34105" lon="18.8237">
        <ele>33.252988</ele>
        <time>2024-08-04T12:31:57.931Z</time>
      </trkpt>
      <trkpt lat="54.34116" lon="18.82379">
        <ele>33.35468</ele>
        <time>2024-08-04T12:32:00.937Z</time>
      </trkpt>
      <trkpt lat="54.34126" lon="18.82386">
        <ele>33.442797</ele>
        <time>2024-08-04T12:32:03.951Z</time>
      </trkpt>
      <trkpt lat="54.34135" lon="18.82393">
        <ele>33.583127</ele>
        <time>2024-08-04T12:32:06.946Z</time>
      </trkpt>
      <trkpt lat="54.34144" lon="18.82398">
        <ele>33.726787</ele>
        <time>2024-08-04T12:32:09.942Z</time>
      </trkpt>
      <trkpt lat="54.34153" lon="18.82405">
        <ele>33.868345</ele>
        <time>2024-08-04T12:32:12.950Z</time>
      </trkpt>
      <trkpt lat="54.34162" lon="18.82412">
        <ele>34.014707</ele>
        <time>2024-08-04T12:32:15.934Z</time>
      </trkpt>
      <trkpt lat="54.3417" lon="18.82418">
        <ele>34.155903</ele>
        <time>2024-08-04T12:32:18.938Z</time>
      </trkpt>
      <trkpt lat="54.34181" lon="18.82425">
        <ele>34.331288</ele>
        <time>2024-08-04T12:32:22.963Z</time>
      </trkpt>
      <trkpt lat="54.34192" lon="18.82432">
        <ele>34.491942</ele>
        <time>2024-08-04T12:32:26.942Z</time>
      </trkpt>
      <trkpt lat="54.34201" lon="18.82439">
        <ele>34.646915</ele>
        <time>2024-08-04T12:32:30.950Z</time>
      </trkpt>
      <trkpt lat="54.34212" lon="18.82446">
        <ele>34.81749</ele>
        <time>2024-08-04T12:32:34.947Z</time>
      </trkpt>
      <trkpt lat="54.34222" lon="18.82454">
        <ele>34.986627</ele>
        <time>2024-08-04T12:32:38.942Z</time>
      </trkpt>
      <trkpt lat="54.34233" lon="18.82462">
        <ele>35.16573</ele>
        <time>2024-08-04T12:32:42.952Z</time>
      </trkpt>
      <trkpt lat="54.34242" lon="18.82468">
        <ele>35.315849</ele>
        <time>2024-08-04T12:32:45.956Z</time>
      </trkpt>
      <trkpt lat="54.34251" lon="18.82475">
        <ele>35.458732</ele>
        <time>2024-08-04T12:32:48.958Z</time>
      </trkpt>
      <trkpt lat="54.34261" lon="18.82481">
        <ele>35.612382</ele>
        <time>2024-08-04T12:32:51.948Z</time>
      </trkpt>
      <trkpt lat="54.34272" lon="18.82489">
        <ele>35.791009</ele>
        <time>2024-08-04T12:32:54.954Z</time>
      </trkpt>
      <trkpt lat="54.34283" lon="18.82495">
        <ele>35.963295</ele>
        <time>2024-08-04T12:32:57.951Z</time>
      </trkpt>
      <trkpt lat="54.34293" lon="18.82503">
        <ele>36.138466</ele>
        <time>2024-08-04T12:33:00.949Z</time>
      </trkpt>
      <trkpt lat="54.34304" lon="18.82512">
        <ele>35.750621</ele>
        <time>2024-08-04T12:33:03.948Z</time>
      </trkpt>
      <trkpt lat="54.34313" lon="18.82518">
        <ele>35.447507</ele>
        <time>2024-08-04T12:33:06.947Z</time>
      </trkpt>
      <trkpt lat="54.34319" lon="18.8252">
        <ele>35.251513</ele>
        <time>2024-08-04T12:33:14.795Z</time>
      </trkpt>
      <trkpt lat="54.3436" lon="18.82556">
        <ele>33.733199</ele>
        <time>2024-08-04T12:35:01.938Z</time>
      </trkpt>
      <trkpt lat="54.34359" lon="18.82572">
        <ele>33.428066</ele>
        <time>2024-08-04T12:35:06.944Z</time>
      </trkpt>
      <trkpt lat="54.34363" lon="18.82586">
        <ele>33.125015</ele>
        <time>2024-08-04T12:35:11.937Z</time>
      </trkpt>
      <trkpt lat="54.3437" lon="18.82601">
        <ele>32.763764</ele>
        <time>2024-08-04T12:35:15.920Z</time>
      </trkpt>
      <trkpt lat="54.34378" lon="18.82615">
        <ele>32.407692</ele>
        <time>2024-08-04T12:35:19.929Z</time>
      </trkpt>
      <trkpt lat="54.34383" lon="18.82632">
        <ele>32.03085</ele>
        <time>2024-08-04T12:35:22.942Z</time>
      </trkpt>
      <trkpt lat="54.34387" lon="18.82646">
        <ele>31.736066</ele>
        <time>2024-08-04T12:35:24.942Z</time>
      </trkpt>
      <trkpt lat="54.3439" lon="18.82661">
        <ele>31.441591</ele>
        <time>2024-08-04T12:35:26.950Z</time>
      </trkpt>
      <trkpt lat="54.34393" lon="18.8268">
        <ele>31.067798</ele>
        <time>2024-08-04T12:35:29.953Z</time>
      </trkpt>
      <trkpt lat="54.34395" lon="18.82695">
        <ele>30.773536</ele>
        <time>2024-08-04T12:35:32.959Z</time>
      </trkpt>
      <trkpt lat="54.34398" lon="18.82714">
        <ele>30.38971</ele>
        <time>2024-08-04T12:35:36.953Z</time>
      </trkpt>
      <trkpt lat="54.344" lon="18.82732">
        <ele>30.289952</ele>
        <time>2024-08-04T12:35:39.953Z</time>
      </trkpt>
      <trkpt lat="54.34402" lon="18.82749">
        <ele>30.325105</ele>
        <time>2024-08-04T12:35:42.948Z</time>
      </trkpt>
      <trkpt lat="54.34404" lon="18.82767">
        <ele>30.359951</ele>
        <time>2024-08-04T12:35:45.935Z</time>
      </trkpt>
      <trkpt lat="54.34405" lon="18.82784">
        <ele>30.393748</ele>
        <time>2024-08-04T12:35:48.932Z</time>
      </trkpt>
      <trkpt lat="54.34405" lon="18.82803">
        <ele>30.430524</ele>
        <time>2024-08-04T12:35:51.935Z</time>
      </trkpt>
      <trkpt lat="54.34404" lon="18.82821">
        <ele>30.466396</ele>
        <time>2024-08-04T12:35:54.936Z</time>
      </trkpt>
      <trkpt lat="54.34403" lon="18.82839">
        <ele>30.502059</ele>
        <time>2024-08-04T12:35:57.952Z</time>
      </trkpt>
      <trkpt lat="54.34402" lon="18.82857">
        <ele>30.537253</ele>
        <time>2024-08-04T12:36:00.934Z</time>
      </trkpt>
      <trkpt lat="54.344" lon="18.82877">
        <ele>30.576731</ele>
        <time>2024-08-04T12:36:03.941Z</time>
      </trkpt>
      <trkpt lat="54.34398" lon="18.82897">
        <ele>30.616101</ele>
        <time>2024-08-04T12:36:06.938Z</time>
      </trkpt>
      <trkpt lat="54.34395" lon="18.82916">
        <ele>30.654731</ele>
        <time>2024-08-04T12:36:09.951Z</time>
      </trkpt>
      <trkpt lat="54.34392" lon="18.82934">
        <ele>30.690845</ele>
        <time>2024-08-04T12:36:12.929Z</time>
      </trkpt>
      <trkpt lat="54.34389" lon="18.8295">
        <ele>30.723578</ele>
        <time>2024-08-04T12:36:15.947Z</time>
      </trkpt>
      <trkpt lat="54.34387" lon="18.82967">
        <ele>30.757174</ele>
        <time>2024-08-04T12:36:19.946Z</time>
      </trkpt>
      <trkpt lat="54.34394" lon="18.82978">
        <ele>30.790138</ele>
        <time>2024-08-04T12:36:23.936Z</time>
      </trkpt>
      <trkpt lat="54.34395" lon="18.82998">
        <ele>30.828598</ele>
        <time>2024-08-04T12:36:27.931Z</time>
      </trkpt>
      <trkpt lat="54.34396" lon="18.83017">
        <ele>30.866739</ele>
        <time>2024-08-04T12:36:31.919Z</time>
      </trkpt>
      <trkpt lat="54.34389" lon="18.83027">
        <ele>30.945052</ele>
        <time>2024-08-04T12:36:34.952Z</time>
      </trkpt>
      <trkpt lat="54.34382" lon="18.83042">
        <ele>31.045833</ele>
        <time>2024-08-04T12:36:37.941Z</time>
      </trkpt>
      <trkpt lat="54.34377" lon="18.83058">
        <ele>31.139356</ele>
        <time>2024-08-04T12:36:40.943Z</time>
      </trkpt>
      <trkpt lat="54.34374" lon="18.83073">
        <ele>31.225778</ele>
        <time>2024-08-04T12:36:43.928Z</time>
      </trkpt>
      <trkpt lat="54.34365" lon="18.83081">
        <ele>31.319302</ele>
        <time>2024-08-04T12:36:47.933Z</time>
      </trkpt>
      <trkpt lat="54.34356" lon="18.83102">
        <ele>31.459194</ele>
        <time>2024-08-04T12:37:09.920Z</time>
      </trkpt>
      <trkpt lat="54.3435" lon="18.83116">
        <ele>31.551986</ele>
        <time>2024-08-04T12:37:12.937Z</time>
      </trkpt>
      <trkpt lat="54.34343" lon="18.83131">
        <ele>31.65336</ele>
        <time>2024-08-04T12:37:15.946Z</time>
      </trkpt>
      <trkpt lat="54.34336" lon="18.8315">
        <ele>31.770378</ele>
        <time>2024-08-04T12:37:18.947Z</time>
      </trkpt>
      <trkpt lat="54.34332" lon="18.83164">
        <ele>31.853414</ele>
        <time>2024-08-04T12:37:20.936Z</time>
      </trkpt>
      <trkpt lat="54.34328" lon="18.83178">
        <ele>31.937653</ele>
        <time>2024-08-04T12:37:22.936Z</time>
      </trkpt>
      <trkpt lat="54.34322" lon="18.83198">
        <ele>32.057397</ele>
        <time>2024-08-04T12:37:25.945Z</time>
      </trkpt>
      <trkpt lat="54.34318" lon="18.83212">
        <ele>32.140997</ele>
        <time>2024-08-04T12:37:27.943Z</time>
      </trkpt>
      <trkpt lat="54.34314" lon="18.83234">
        <ele>32.266547</ele>
        <time>2024-08-04T12:37:30.956Z</time>
      </trkpt>
      <trkpt lat="54.34312" lon="18.83251">
        <ele>32.35526</ele>
        <time>2024-08-04T12:37:32.957Z</time>
      </trkpt>
      <trkpt lat="54.3431" lon="18.83267">
        <ele>32.442509</ele>
        <time>2024-08-04T12:37:34.935Z</time>
      </trkpt>
      <trkpt lat="54.34308" lon="18.83283">
        <ele>32.494138</ele>
        <time>2024-08-04T12:37:36.949Z</time>
      </trkpt>
      <trkpt lat="54.34306" lon="18.83298">
        <ele>32.378453</ele>
        <time>2024-08-04T12:37:38.921Z</time>
      </trkpt>
      <trkpt lat="54.34304" lon="18.83313">
        <ele>32.265596</ele>
        <time>2024-08-04T12:37:40.943Z</time>
      </trkpt>
      <trkpt lat="54.34303" lon="18.83329">
        <ele>32.148021</ele>
        <time>2024-08-04T12:37:42.950Z</time>
      </trkpt>
      <trkpt lat="54.34303" lon="18.83345">
        <ele>32.032803</ele>
        <time>2024-08-04T12:37:44.937Z</time>
      </trkpt>
      <trkpt lat="54.34303" lon="18.83361">
        <ele>31.918362</ele>
        <time>2024-08-04T12:37:46.934Z</time>
      </trkpt>
      <trkpt lat="54.34303" lon="18.83378">
        <ele>31.797308</ele>
        <time>2024-08-04T12:37:48.941Z</time>
      </trkpt>
      <trkpt lat="54.34304" lon="18.83395">
        <ele>31.67007</ele>
        <time>2024-08-04T12:37:50.940Z</time>
      </trkpt>
      <trkpt lat="54.34306" lon="18.83411">
        <ele>31.555316</ele>
        <time>2024-08-04T12:37:52.915Z</time>
      </trkpt>
      <trkpt lat="54.34309" lon="18.83426">
        <ele>31.435344</ele>
        <time>2024-08-04T12:37:54.937Z</time>
      </trkpt>
      <trkpt lat="54.34313" lon="18.83448">
        <ele>31.275418</ele>
        <time>2024-08-04T12:37:57.933Z</time>
      </trkpt>
      <trkpt lat="54.34317" lon="18.83465">
        <ele>31.141025</ele>
        <time>2024-08-04T12:38:00.943Z</time>
      </trkpt>
      <trkpt lat="54.3432" lon="18.83482">
        <ele>31.010227</ele>
        <time>2024-08-04T12:38:04.934Z</time>
      </trkpt>
      <trkpt lat="54.34315" lon="18.83501">
        <ele>30.861701</ele>
        <time>2024-08-04T12:38:08.947Z</time>
      </trkpt>
      <trkpt lat="54.34312" lon="18.83517">
        <ele>30.742726</ele>
        <time>2024-08-04T12:38:13.946Z</time>
      </trkpt>
      <trkpt lat="54.34303" lon="18.83523">
        <ele>30.61876</ele>
        <time>2024-08-04T12:38:17.915Z</time>
      </trkpt>
      <trkpt lat="54.343" lon="18.83541">
        <ele>30.486628</ele>
        <time>2024-08-04T12:38:21.935Z</time>
      </trkpt>
      <trkpt lat="54.34299" lon="18.83558">
        <ele>30.358332</ele>
        <time>2024-08-04T12:38:25.932Z</time>
      </trkpt>
      <trkpt lat="54.34297" lon="18.83575">
        <ele>30.259445</ele>
        <time>2024-08-04T12:38:28.935Z</time>
      </trkpt>
      <trkpt lat="54.34296" lon="18.83592">
        <ele>30.206732</ele>
        <time>2024-08-04T12:38:31.947Z</time>
      </trkpt>
      <trkpt lat="54.34295" lon="18.83612">
        <ele>30.141326</ele>
        <time>2024-08-04T12:38:35.952Z</time>
      </trkpt>
      <trkpt lat="54.34295" lon="18.83628">
        <ele>30.091541</ele>
        <time>2024-08-04T12:38:38.950Z</time>
      </trkpt>
      <trkpt lat="54.34294" lon="18.83644">
        <ele>30.041291</ele>
        <time>2024-08-04T12:38:41.948Z</time>
      </trkpt>
      <trkpt lat="54.34292" lon="18.83659">
        <ele>29.992236</ele>
        <time>2024-08-04T12:38:44.949Z</time>
      </trkpt>
      <trkpt lat="54.34287" lon="18.83677">
        <ele>29.931027</ele>
        <time>2024-08-04T12:38:48.935Z</time>
      </trkpt>
      <trkpt lat="54.34285" lon="18.83696">
        <ele>29.869359</ele>
        <time>2024-08-04T12:38:52.916Z</time>
      </trkpt>
      <trkpt lat="54.34281" lon="18.83713">
        <ele>29.812565</ele>
        <time>2024-08-04T12:38:55.928Z</time>
      </trkpt>
      <trkpt lat="54.3428" lon="18.83732">
        <ele>29.749743</ele>
        <time>2024-08-04T12:38:58.948Z</time>
      </trkpt>
      <trkpt lat="54.34276" lon="18.83754">
        <ele>29.677304</ele>
        <time>2024-08-04T12:39:01.956Z</time>
      </trkpt>
      <trkpt lat="54.34275" lon="18.83771">
        <ele>29.623391</ele>
        <time>2024-08-04T12:39:03.942Z</time>
      </trkpt>
      <trkpt lat="54.34273" lon="18.83789">
        <ele>29.568239</ele>
        <time>2024-08-04T12:39:05.946Z</time>
      </trkpt>
      <trkpt lat="54.34272" lon="18.83808">
        <ele>29.506116</ele>
        <time>2024-08-04T12:39:07.938Z</time>
      </trkpt>
      <trkpt lat="54.34272" lon="18.83828">
        <ele>29.443502</ele>
        <time>2024-08-04T12:39:09.930Z</time>
      </trkpt>
      <trkpt lat="54.34272" lon="18.83847">
        <ele>29.38405</ele>
        <time>2024-08-04T12:39:11.946Z</time>
      </trkpt>
      <trkpt lat="54.34273" lon="18.83866">
        <ele>29.323599</ele>
        <time>2024-08-04T12:39:13.938Z</time>
      </trkpt>
      <trkpt lat="54.34273" lon="18.83886">
        <ele>29.309817</ele>
        <time>2024-08-04T12:39:15.937Z</time>
      </trkpt>
      <trkpt lat="54.34273" lon="18.83904">
        <ele>29.318611</ele>
        <time>2024-08-04T12:39:17.942Z</time>
      </trkpt>
      <trkpt lat="54.34272" lon="18.83923">
        <ele>29.327419</ele>
        <time>2024-08-04T12:39:19.929Z</time>
      </trkpt>
      <trkpt lat="54.34272" lon="18.83942">
        <ele>29.336167</ele>
        <time>2024-08-04T12:39:21.943Z</time>
      </trkpt>
      <trkpt lat="54.34272" lon="18.83961">
        <ele>29.344776</ele>
        <time>2024-08-04T12:39:23.932Z</time>
      </trkpt>
      <trkpt lat="54.34273" lon="18.83978">
        <ele>29.353065</ele>
        <time>2024-08-04T12:39:25.932Z</time>
      </trkpt>
      <trkpt lat="54.34273" lon="18.83997">
        <ele>29.361547</ele>
        <time>2024-08-04T12:39:27.944Z</time>
      </trkpt>
      <trkpt lat="54.34274" lon="18.84015">
        <ele>29.370019</ele>
        <time>2024-08-04T12:39:29.931Z</time>
      </trkpt>
      <trkpt lat="54.34274" lon="18.84033">
        <ele>29.378688</ele>
        <time>2024-08-04T12:39:31.943Z</time>
      </trkpt>
      <trkpt lat="54.34274" lon="18.84052">
        <ele>29.38739</ele>
        <time>2024-08-04T12:39:33.941Z</time>
      </trkpt>
      <trkpt lat="54.34275" lon="18.8407">
        <ele>29.395672</ele>
        <time>2024-08-04T12:39:35.936Z</time>
      </trkpt>
      <trkpt lat="54.34276" lon="18.84087">
        <ele>29.403682</ele>
        <time>2024-08-04T12:39:37.932Z</time>
      </trkpt>
      <trkpt lat="54.34277" lon="18.84104">
        <ele>29.411718</ele>
        <time>2024-08-04T12:39:39.949Z</time>
      </trkpt>
      <trkpt lat="54.34278" lon="18.84121">
        <ele>29.419712</ele>
        <time>2024-08-04T12:39:41.925Z</time>
      </trkpt>
      <trkpt lat="54.3428" lon="18.84139">
        <ele>29.427875</ele>
        <time>2024-08-04T12:39:43.927Z</time>
      </trkpt>
      <trkpt lat="54.34281" lon="18.84157">
        <ele>29.436382</ele>
        <time>2024-08-04T12:39:45.940Z</time>
      </trkpt>
      <trkpt lat="54.34283" lon="18.84174">
        <ele>29.444671</ele>
        <time>2024-08-04T12:39:47.943Z</time>
      </trkpt>
      <trkpt lat="54.34284" lon="18.84191">
        <ele>29.39252</ele>
        <time>2024-08-04T12:39:49.932Z</time>
      </trkpt>
      <trkpt lat="54.34286" lon="18.84209">
        <ele>29.312149</ele>
        <time>2024-08-04T12:39:51.918Z</time>
      </trkpt>
      <trkpt lat="54.34287" lon="18.84227">
        <ele>29.230656</ele>
        <time>2024-08-04T12:39:53.939Z</time>
      </trkpt>
      <trkpt lat="54.34289" lon="18.84244">
        <ele>29.152104</ele>
        <time>2024-08-04T12:39:55.933Z</time>
      </trkpt>
      <trkpt lat="54.3429" lon="18.84261">
        <ele>29.073624</ele>
        <time>2024-08-04T12:39:57.949Z</time>
      </trkpt>
      <trkpt lat="54.34292" lon="18.84278">
        <ele>28.996741</ele>
        <time>2024-08-04T12:39:59.933Z</time>
      </trkpt>
      <trkpt lat="54.34294" lon="18.84295">
        <ele>28.91887</ele>
        <time>2024-08-04T12:40:01.967Z</time>
      </trkpt>
      <trkpt lat="54.34295" lon="18.84312">
        <ele>28.840301</ele>
        <time>2024-08-04T12:40:03.928Z</time>
      </trkpt>
      <trkpt lat="54.34296" lon="18.84328">
        <ele>28.764225</ele>
        <time>2024-08-04T12:40:05.945Z</time>
      </trkpt>
      <trkpt lat="54.34297" lon="18.84346">
        <ele>28.684305</ele>
        <time>2024-08-04T12:40:07.943Z</time>
      </trkpt>
      <trkpt lat="54.34299" lon="18.84364">
        <ele>28.603065</ele>
        <time>2024-08-04T12:40:09.945Z</time>
      </trkpt>
      <trkpt lat="54.343" lon="18.84382">
        <ele>28.521428</ele>
        <time>2024-08-04T12:40:11.936Z</time>
      </trkpt>
      <trkpt lat="54.343" lon="18.84399">
        <ele>28.443353</ele>
        <time>2024-08-04T12:40:13.935Z</time>
      </trkpt>
      <trkpt lat="54.343" lon="18.84416">
        <ele>28.364887</ele>
        <time>2024-08-04T12:40:15.938Z</time>
      </trkpt>
      <trkpt lat="54.343" lon="18.84433">
        <ele>28.289949</ele>
        <time>2024-08-04T12:40:17.946Z</time>
      </trkpt>
      <trkpt lat="54.34299" lon="18.84449">
        <ele>28.21501</ele>
        <time>2024-08-04T12:40:19.941Z</time>
      </trkpt>
      <trkpt lat="54.34299" lon="18.84466">
        <ele>28.139975</ele>
        <time>2024-08-04T12:40:21.936Z</time>
      </trkpt>
      <trkpt lat="54.34297" lon="18.84482">
        <ele>28.065898</ele>
        <time>2024-08-04T12:40:23.954Z</time>
      </trkpt>
      <trkpt lat="54.34296" lon="18.84498">
        <ele>28.073921</ele>
        <time>2024-08-04T12:40:25.936Z</time>
      </trkpt>
      <trkpt lat="54.34294" lon="18.84516">
        <ele>28.110943</ele>
        <time>2024-08-04T12:40:27.931Z</time>
      </trkpt>
      <trkpt lat="54.34293" lon="18.84533">
        <ele>28.146853</ele>
        <time>2024-08-04T12:40:29.931Z</time>
      </trkpt>
      <trkpt lat="54.34291" lon="18.84551">
        <ele>28.184341</ele>
        <time>2024-08-04T12:40:31.940Z</time>
      </trkpt>
      <trkpt lat="54.3429" lon="18.84568">
        <ele>28.221213</ele>
        <time>2024-08-04T12:40:33.918Z</time>
      </trkpt>
      <trkpt lat="54.34288" lon="18.84586">
        <ele>28.258415</ele>
        <time>2024-08-04T12:40:35.956Z</time>
      </trkpt>
      <trkpt lat="54.34287" lon="18.84604">
        <ele>28.295903</ele>
        <time>2024-08-04T12:40:37.939Z</time>
      </trkpt>
      <trkpt lat="54.34285" lon="18.84621">
        <ele>28.331817</ele>
        <time>2024-08-04T12:40:39.931Z</time>
      </trkpt>
      <trkpt lat="54.34283" lon="18.84638">
        <ele>28.368473</ele>
        <time>2024-08-04T12:40:41.936Z</time>
      </trkpt>
      <trkpt lat="54.34281" lon="18.84656">
        <ele>28.405674</ele>
        <time>2024-08-04T12:40:43.951Z</time>
      </trkpt>
      <trkpt lat="54.34279" lon="18.84675">
        <ele>28.445573</ele>
        <time>2024-08-04T12:40:45.943Z</time>
      </trkpt>
      <trkpt lat="54.34277" lon="18.84693">
        <ele>28.48427</ele>
        <time>2024-08-04T12:40:47.933Z</time>
      </trkpt>
      <trkpt lat="54.34275" lon="18.84711">
        <ele>28.522697</ele>
        <time>2024-08-04T12:40:49.940Z</time>
      </trkpt>
      <trkpt lat="54.34274" lon="18.84728">
        <ele>28.559157</ele>
        <time>2024-08-04T12:40:51.944Z</time>
      </trkpt>
      <trkpt lat="54.34272" lon="18.84747">
        <ele>28.597585</ele>
        <time>2024-08-04T12:40:53.935Z</time>
      </trkpt>
      <trkpt lat="54.3427" lon="18.84765">
        <ele>28.636013</ele>
        <time>2024-08-04T12:40:55.940Z</time>
      </trkpt>
      <trkpt lat="54.34267" lon="18.84782">
        <ele>28.673378</ele>
        <time>2024-08-04T12:40:57.951Z</time>
      </trkpt>
      <trkpt lat="54.34266" lon="18.848">
        <ele>28.745445</ele>
        <time>2024-08-04T12:40:59.944Z</time>
      </trkpt>
      <trkpt lat="54.34265" lon="18.84818">
        <ele>28.842409</ele>
        <time>2024-08-04T12:41:01.954Z</time>
      </trkpt>
      <trkpt lat="54.34263" lon="18.84835">
        <ele>28.936355</ele>
        <time>2024-08-04T12:41:03.943Z</time>
      </trkpt>
      <trkpt lat="54.34262" lon="18.84851">
        <ele>29.020504</ele>
        <time>2024-08-04T12:41:05.937Z</time>
      </trkpt>
      <trkpt lat="54.34261" lon="18.84868">
        <ele>29.109661</ele>
        <time>2024-08-04T12:41:07.949Z</time>
      </trkpt>
      <trkpt lat="54.3426" lon="18.84884">
        <ele>29.196475</ele>
        <time>2024-08-04T12:41:09.956Z</time>
      </trkpt>
      <trkpt lat="54.34259" lon="18.849">
        <ele>29.282971</ele>
        <time>2024-08-04T12:41:11.943Z</time>
      </trkpt>
      <trkpt lat="54.34258" lon="18.84916">
        <ele>29.371452</ele>
        <time>2024-08-04T12:41:13.943Z</time>
      </trkpt>
      <trkpt lat="54.34257" lon="18.84932">
        <ele>29.460156</ele>
        <time>2024-08-04T12:41:15.942Z</time>
      </trkpt>
      <trkpt lat="54.34256" lon="18.84948">
        <ele>29.543346</ele>
        <time>2024-08-04T12:41:17.940Z</time>
      </trkpt>
      <trkpt lat="54.34255" lon="18.84964">
        <ele>29.628679</ele>
        <time>2024-08-04T12:41:19.931Z</time>
      </trkpt>
      <trkpt lat="54.34255" lon="18.8498">
        <ele>29.714646</ele>
        <time>2024-08-04T12:41:21.948Z</time>
      </trkpt>
      <trkpt lat="54.34254" lon="18.84996">
        <ele>29.800834</ele>
        <time>2024-08-04T12:41:23.923Z</time>
      </trkpt>
      <trkpt lat="54.34254" lon="18.85012">
        <ele>29.890547</ele>
        <time>2024-08-04T12:41:25.931Z</time>
      </trkpt>
      <trkpt lat="54.34254" lon="18.85029">
        <ele>29.980856</ele>
        <time>2024-08-04T12:41:27.932Z</time>
      </trkpt>
      <trkpt lat="54.34253" lon="18.85046">
        <ele>30.070166</ele>
        <time>2024-08-04T12:41:29.929Z</time>
      </trkpt>
      <trkpt lat="54.34253" lon="18.85063">
        <ele>30.163481</ele>
        <time>2024-08-04T12:41:31.952Z</time>
      </trkpt>
      <trkpt lat="54.34252" lon="18.85081">
        <ele>30.260348</ele>
        <time>2024-08-04T12:41:33.951Z</time>
      </trkpt>
      <trkpt lat="54.34252" lon="18.85098">
        <ele>30.333024</ele>
        <time>2024-08-04T12:41:35.937Z</time>
      </trkpt>
      <trkpt lat="54.34253" lon="18.85114">
        <ele>30.198119</ele>
        <time>2024-08-04T12:41:37.942Z</time>
      </trkpt>
      <trkpt lat="54.34253" lon="18.8513">
        <ele>30.059389</ele>
        <time>2024-08-04T12:41:39.934Z</time>
      </trkpt>
      <trkpt lat="54.34253" lon="18.85148">
        <ele>29.914658</ele>
        <time>2024-08-04T12:41:41.945Z</time>
      </trkpt>
      <trkpt lat="54.34252" lon="18.85165">
        <ele>29.769194</ele>
        <time>2024-08-04T12:41:43.933Z</time>
      </trkpt>
      <trkpt lat="54.34252" lon="18.85182">
        <ele>29.623673</ele>
        <time>2024-08-04T12:41:45.945Z</time>
      </trkpt>
      <trkpt lat="54.34252" lon="18.85199">
        <ele>29.482391</ele>
        <time>2024-08-04T12:41:47.933Z</time>
      </trkpt>
      <trkpt lat="54.34252" lon="18.85216">
        <ele>29.34029</ele>
        <time>2024-08-04T12:41:49.951Z</time>
      </trkpt>
      <trkpt lat="54.34252" lon="18.85233">
        <ele>29.198971</ele>
        <time>2024-08-04T12:41:51.938Z</time>
      </trkpt>
      <trkpt lat="54.34252" lon="18.85251">
        <ele>29.043425</ele>
        <time>2024-08-04T12:41:53.935Z</time>
      </trkpt>
      <trkpt lat="54.34251" lon="18.85269">
        <ele>28.892586</ele>
        <time>2024-08-04T12:41:55.943Z</time>
      </trkpt>
      <trkpt lat="54.34251" lon="18.85287">
        <ele>28.741236</ele>
        <time>2024-08-04T12:41:57.915Z</time>
      </trkpt>
      <trkpt lat="54.3425" lon="18.85305">
        <ele>28.594485</ele>
        <time>2024-08-04T12:41:59.932Z</time>
      </trkpt>
      <trkpt lat="54.34249" lon="18.85321">
        <ele>28.456159</ele>
        <time>2024-08-04T12:42:01.909Z</time>
      </trkpt>
      <trkpt lat="54.34249" lon="18.85337">
        <ele>28.322466</ele>
        <time>2024-08-04T12:42:03.924Z</time>
      </trkpt>
      <trkpt lat="54.34248" lon="18.85353">
        <ele>28.186227</ele>
        <time>2024-08-04T12:42:05.916Z</time>
      </trkpt>
      <trkpt lat="54.34249" lon="18.8537">
        <ele>28.043227</ele>
        <time>2024-08-04T12:42:07.931Z</time>
      </trkpt>
      <trkpt lat="54.34249" lon="18.85387">
        <ele>27.896901</ele>
        <time>2024-08-04T12:42:09.930Z</time>
      </trkpt>
      <trkpt lat="54.34248" lon="18.85405">
        <ele>27.751324</ele>
        <time>2024-08-04T12:42:11.914Z</time>
      </trkpt>
      <trkpt lat="54.34248" lon="18.85423">
        <ele>27.845055</ele>
        <time>2024-08-04T12:42:13.938Z</time>
      </trkpt>
      <trkpt lat="54.34248" lon="18.8544">
        <ele>27.939932</ele>
        <time>2024-08-04T12:42:15.931Z</time>
      </trkpt>
      <trkpt lat="54.34247" lon="18.85458">
        <ele>28.035884</ele>
        <time>2024-08-04T12:42:17.947Z</time>
      </trkpt>
      <trkpt lat="54.34246" lon="18.85476">
        <ele>28.132746</ele>
        <time>2024-08-04T12:42:19.938Z</time>
      </trkpt>
      <trkpt lat="54.34246" lon="18.85493">
        <ele>28.226514</ele>
        <time>2024-08-04T12:42:21.939Z</time>
      </trkpt>
      <trkpt lat="54.34245" lon="18.8551">
        <ele>28.318203</ele>
        <time>2024-08-04T12:42:23.938Z</time>
      </trkpt>
      <trkpt lat="54.34245" lon="18.85527">
        <ele>28.406082</ele>
        <time>2024-08-04T12:42:25.940Z</time>
      </trkpt>
      <trkpt lat="54.34245" lon="18.85543">
        <ele>28.492288</ele>
        <time>2024-08-04T12:42:27.930Z</time>
      </trkpt>
      <trkpt lat="54.34244" lon="18.85559">
        <ele>28.578652</ele>
        <time>2024-08-04T12:42:29.933Z</time>
      </trkpt>
      <trkpt lat="54.34244" lon="18.85575">
        <ele>28.666575</ele>
        <time>2024-08-04T12:42:31.935Z</time>
      </trkpt>
      <trkpt lat="54.34243" lon="18.85591">
        <ele>28.75278</ele>
        <time>2024-08-04T12:42:33.933Z</time>
      </trkpt>
      <trkpt lat="54.34243" lon="18.85608">
        <ele>28.844043</ele>
        <time>2024-08-04T12:42:35.948Z</time>
      </trkpt>
      <trkpt lat="54.34242" lon="18.85624">
        <ele>28.93233</ele>
        <time>2024-08-04T12:42:37.924Z</time>
      </trkpt>
      <trkpt lat="54.34242" lon="18.8564">
        <ele>29.015289</ele>
        <time>2024-08-04T12:42:39.942Z</time>
      </trkpt>
      <trkpt lat="54.34241" lon="18.85656">
        <ele>29.102596</ele>
        <time>2024-08-04T12:42:41.935Z</time>
      </trkpt>
      <trkpt lat="54.34241" lon="18.85679">
        <ele>29.226171</ele>
        <time>2024-08-04T12:42:44.929Z</time>
      </trkpt>
      <trkpt lat="54.3424" lon="18.85695">
        <ele>29.312361</ele>
        <time>2024-08-04T12:42:46.937Z</time>
      </trkpt>
      <trkpt lat="54.3424" lon="18.8571">
        <ele>29.396398</ele>
        <time>2024-08-04T12:42:48.945Z</time>
      </trkpt>
      <trkpt lat="54.34239" lon="18.85727">
        <ele>29.432817</ele>
        <time>2024-08-04T12:42:50.950Z</time>
      </trkpt>
      <trkpt lat="54.34239" lon="18.85743">
        <ele>29.457285</ele>
        <time>2024-08-04T12:42:52.935Z</time>
      </trkpt>
      <trkpt lat="54.34238" lon="18.8576">
        <ele>29.482576</ele>
        <time>2024-08-04T12:42:54.943Z</time>
      </trkpt>
      <trkpt lat="54.34238" lon="18.85776">
        <ele>29.507563</ele>
        <time>2024-08-04T12:42:56.931Z</time>
      </trkpt>
      <trkpt lat="54.34237" lon="18.85793">
        <ele>29.532996</ele>
        <time>2024-08-04T12:42:58.933Z</time>
      </trkpt>
      <trkpt lat="54.34237" lon="18.85809">
        <ele>29.557966</ele>
        <time>2024-08-04T12:43:00.933Z</time>
      </trkpt>
      <trkpt lat="54.34237" lon="18.85825">
        <ele>29.582487</ele>
        <time>2024-08-04T12:43:02.933Z</time>
      </trkpt>
      <trkpt lat="54.34236" lon="18.85842">
        <ele>29.607314</ele>
        <time>2024-08-04T12:43:04.933Z</time>
      </trkpt>
      <trkpt lat="54.34236" lon="18.85859">
        <ele>29.633204</ele>
        <time>2024-08-04T12:43:06.943Z</time>
      </trkpt>
      <trkpt lat="54.34236" lon="18.85875">
        <ele>29.658779</ele>
        <time>2024-08-04T12:43:08.942Z</time>
      </trkpt>
      <trkpt lat="54.34236" lon="18.85893">
        <ele>29.685418</ele>
        <time>2024-08-04T12:43:10.933Z</time>
      </trkpt>
      <trkpt lat="54.34236" lon="18.85911">
        <ele>29.712363</ele>
        <time>2024-08-04T12:43:12.954Z</time>
      </trkpt>
      <trkpt lat="54.34235" lon="18.85928">
        <ele>29.739622</ele>
        <time>2024-08-04T12:43:14.950Z</time>
      </trkpt>
      <trkpt lat="54.34235" lon="18.85945">
        <ele>29.765369</ele>
        <time>2024-08-04T12:43:16.929Z</time>
      </trkpt>
      <trkpt lat="54.34235" lon="18.85963">
        <ele>29.792312</ele>
        <time>2024-08-04T12:43:18.936Z</time>
      </trkpt>
      <trkpt lat="54.34234" lon="18.8598">
        <ele>29.817767</ele>
        <time>2024-08-04T12:43:20.943Z</time>
      </trkpt>
      <trkpt lat="54.34234" lon="18.85997">
        <ele>29.843955</ele>
        <time>2024-08-04T12:43:22.936Z</time>
      </trkpt>
      <trkpt lat="54.34234" lon="18.86015">
        <ele>29.871056</ele>
        <time>2024-08-04T12:43:24.951Z</time>
      </trkpt>
      <trkpt lat="54.34234" lon="18.86032">
        <ele>29.845275</ele>
        <time>2024-08-04T12:43:26.949Z</time>
      </trkpt>
      <trkpt lat="54.34234" lon="18.86049">
        <ele>29.788158</ele>
        <time>2024-08-04T12:43:28.943Z</time>
      </trkpt>
      <trkpt lat="54.34234" lon="18.86067">
        <ele>29.72732</ele>
        <time>2024-08-04T12:43:30.931Z</time>
      </trkpt>
      <trkpt lat="54.34234" lon="18.86084">
        <ele>29.669196</ele>
        <time>2024-08-04T12:43:32.934Z</time>
      </trkpt>
      <trkpt lat="54.34234" lon="18.861">
        <ele>29.615439</ele>
        <time>2024-08-04T12:43:34.914Z</time>
      </trkpt>
      <trkpt lat="54.34234" lon="18.86116">
        <ele>29.560997</ele>
        <time>2024-08-04T12:43:36.930Z</time>
      </trkpt>
      <trkpt lat="54.34234" lon="18.86133">
        <ele>29.506565</ele>
        <time>2024-08-04T12:43:38.941Z</time>
      </trkpt>
      <trkpt lat="54.34234" lon="18.86149">
        <ele>29.45078</ele>
        <time>2024-08-04T12:43:40.932Z</time>
      </trkpt>
      <trkpt lat="54.34233" lon="18.86166">
        <ele>29.394229</ele>
        <time>2024-08-04T12:43:42.936Z</time>
      </trkpt>
      <trkpt lat="54.34233" lon="18.86182">
        <ele>29.341032</ele>
        <time>2024-08-04T12:43:44.925Z</time>
      </trkpt>
      <trkpt lat="54.34231" lon="18.86198">
        <ele>29.287498</ele>
        <time>2024-08-04T12:43:46.954Z</time>
      </trkpt>
      <trkpt lat="54.34231" lon="18.86215">
        <ele>29.229034</ele>
        <time>2024-08-04T12:43:48.921Z</time>
      </trkpt>
      <trkpt lat="54.3423" lon="18.86232">
        <ele>29.17276</ele>
        <time>2024-08-04T12:43:50.947Z</time>
      </trkpt>
      <trkpt lat="54.3423" lon="18.86248">
        <ele>29.117992</ele>
        <time>2024-08-04T12:43:52.936Z</time>
      </trkpt>
      <trkpt lat="54.34231" lon="18.86264">
        <ele>29.062171</ele>
        <time>2024-08-04T12:43:54.958Z</time>
      </trkpt>
      <trkpt lat="54.3423" lon="18.86281">
        <ele>29.007772</ele>
        <time>2024-08-04T12:43:56.931Z</time>
      </trkpt>
      <trkpt lat="54.34229" lon="18.86296">
        <ele>28.955666</ele>
        <time>2024-08-04T12:43:58.932Z</time>
      </trkpt>
      <trkpt lat="54.34229" lon="18.86312">
        <ele>28.902889</ele>
        <time>2024-08-04T12:44:00.934Z</time>
      </trkpt>
      <trkpt lat="54.34228" lon="18.86328">
        <ele>28.849269</ele>
        <time>2024-08-04T12:44:02.949Z</time>
      </trkpt>
      <trkpt lat="54.34227" lon="18.86345">
        <ele>28.848424</ele>
        <time>2024-08-04T12:44:04.934Z</time>
      </trkpt>
      <trkpt lat="54.34228" lon="18.86363">
        <ele>28.85304</ele>
        <time>2024-08-04T12:44:06.965Z</time>
      </trkpt>
      <trkpt lat="54.34228" lon="18.8638">
        <ele>28.857705</ele>
        <time>2024-08-04T12:44:08.930Z</time>
      </trkpt>
      <trkpt lat="54.34228" lon="18.86398">
        <ele>28.862263</ele>
        <time>2024-08-04T12:44:10.936Z</time>
      </trkpt>
      <trkpt lat="54.34227" lon="18.86414">
        <ele>28.866582</ele>
        <time>2024-08-04T12:44:12.944Z</time>
      </trkpt>
      <trkpt lat="54.34226" lon="18.86438">
        <ele>28.872889</ele>
        <time>2024-08-04T12:44:15.932Z</time>
      </trkpt>
      <trkpt lat="54.34225" lon="18.86461">
        <ele>28.879057</ele>
        <time>2024-08-04T12:44:18.942Z</time>
      </trkpt>
      <trkpt lat="54.34224" lon="18.86477">
        <ele>28.883326</ele>
        <time>2024-08-04T12:44:20.932Z</time>
      </trkpt>
      <trkpt lat="54.34226" lon="18.86494">
        <ele>28.887752</ele>
        <time>2024-08-04T12:44:22.946Z</time>
      </trkpt>
      <trkpt lat="54.34227" lon="18.8651">
        <ele>28.892076</ele>
        <time>2024-08-04T12:44:24.952Z</time>
      </trkpt>
      <trkpt lat="54.34227" lon="18.86527">
        <ele>28.896477</ele>
        <time>2024-08-04T12:44:26.937Z</time>
      </trkpt>
      <trkpt lat="54.34227" lon="18.86544">
        <ele>28.900932</ele>
        <time>2024-08-04T12:44:28.947Z</time>
      </trkpt>
      <trkpt lat="54.34227" lon="18.8656">
        <ele>28.905177</ele>
        <time>2024-08-04T12:44:30.953Z</time>
      </trkpt>
      <trkpt lat="54.34226" lon="18.86577">
        <ele>28.909612</ele>
        <time>2024-08-04T12:44:32.944Z</time>
      </trkpt>
      <trkpt lat="54.34226" lon="18.86593">
        <ele>28.913933</ele>
        <time>2024-08-04T12:44:34.935Z</time>
      </trkpt>
      <trkpt lat="54.34226" lon="18.8661">
        <ele>28.91847</ele>
        <time>2024-08-04T12:44:36.936Z</time>
      </trkpt>
      <trkpt lat="54.34224" lon="18.86627">
        <ele>28.922968</ele>
        <time>2024-08-04T12:44:38.952Z</time>
      </trkpt>
      <trkpt lat="54.34223" lon="18.86644">
        <ele>28.928274</ele>
        <time>2024-08-04T12:44:40.947Z</time>
      </trkpt>
      <trkpt lat="54.34222" lon="18.8666">
        <ele>28.934734</ele>
        <time>2024-08-04T12:44:42.929Z</time>
      </trkpt>
      <trkpt lat="54.3422" lon="18.86683">
        <ele>28.944256</ele>
        <time>2024-08-04T12:44:45.933Z</time>
      </trkpt>
      <trkpt lat="54.34218" lon="18.86699">
        <ele>28.950881</ele>
        <time>2024-08-04T12:44:47.926Z</time>
      </trkpt>
      <trkpt lat="54.34218" lon="18.86715">
        <ele>28.957332</ele>
        <time>2024-08-04T12:44:49.945Z</time>
      </trkpt>
      <trkpt lat="54.34217" lon="18.86732">
        <ele>28.964083</ele>
        <time>2024-08-04T12:44:51.936Z</time>
      </trkpt>
      <trkpt lat="54.34215" lon="18.86749">
        <ele>28.970809</ele>
        <time>2024-08-04T12:44:53.931Z</time>
      </trkpt>
      <trkpt lat="54.34213" lon="18.86764">
        <ele>28.97738</ele>
        <time>2024-08-04T12:44:55.928Z</time>
      </trkpt>
      <trkpt lat="54.34212" lon="18.86781">
        <ele>28.98389</ele>
        <time>2024-08-04T12:44:57.943Z</time>
      </trkpt>
      <trkpt lat="54.3421" lon="18.86797">
        <ele>28.990495</ele>
        <time>2024-08-04T12:44:59.931Z</time>
      </trkpt>
      <trkpt lat="54.34207" lon="18.86814">
        <ele>28.997679</ele>
        <time>2024-08-04T12:45:01.962Z</time>
      </trkpt>
      <trkpt lat="54.34206" lon="18.86831">
        <ele>29.004702</ele>
        <time>2024-08-04T12:45:03.907Z</time>
      </trkpt>
      <trkpt lat="54.34205" lon="18.86847">
        <ele>29.01106</ele>
        <time>2024-08-04T12:45:05.938Z</time>
      </trkpt>
      <trkpt lat="54.34203" lon="18.86863">
        <ele>29.017812</ele>
        <time>2024-08-04T12:45:07.934Z</time>
      </trkpt>
      <trkpt lat="54.34201" lon="18.8688">
        <ele>29.0245</ele>
        <time>2024-08-04T12:45:09.930Z</time>
      </trkpt>
      <trkpt lat="54.34199" lon="18.86895">
        <ele>29.031026</ele>
        <time>2024-08-04T12:45:11.923Z</time>
      </trkpt>
      <trkpt lat="54.34197" lon="18.86913">
        <ele>29.038132</ele>
        <time>2024-08-04T12:45:13.934Z</time>
      </trkpt>
      <trkpt lat="54.34196" lon="18.8693">
        <ele>29.045027</ele>
        <time>2024-08-04T12:45:15.926Z</time>
      </trkpt>
      <trkpt lat="54.34194" lon="18.86947">
        <ele>29.043879</ele>
        <time>2024-08-04T12:45:17.926Z</time>
      </trkpt>
      <trkpt lat="54.34192" lon="18.86964">
        <ele>29.028499</ele>
        <time>2024-08-04T12:45:19.928Z</time>
      </trkpt>
      <trkpt lat="54.34191" lon="18.86981">
        <ele>29.013549</ele>
        <time>2024-08-04T12:45:21.949Z</time>
      </trkpt>
      <trkpt lat="54.34189" lon="18.86997">
        <ele>28.99901</ele>
        <time>2024-08-04T12:45:23.929Z</time>
      </trkpt>
      <trkpt lat="54.34187" lon="18.87013">
        <ele>28.984182</ele>
        <time>2024-08-04T12:45:25.938Z</time>
      </trkpt>
      <trkpt lat="54.34186" lon="18.8703">
        <ele>28.969455</ele>
        <time>2024-08-04T12:45:27.924Z</time>
      </trkpt>
      <trkpt lat="54.34184" lon="18.87046">
        <ele>28.954567</ele>
        <time>2024-08-04T12:45:29.929Z</time>
      </trkpt>
      <trkpt lat="54.34182" lon="18.87062">
        <ele>28.9397</ele>
        <time>2024-08-04T12:45:31.932Z</time>
      </trkpt>
      <trkpt lat="54.3418" lon="18.8708">
        <ele>28.923896</ele>
        <time>2024-08-04T12:45:33.941Z</time>
      </trkpt>
      <trkpt lat="54.34179" lon="18.87096">
        <ele>28.909454</ele>
        <time>2024-08-04T12:45:35.934Z</time>
      </trkpt>
      <trkpt lat="54.34178" lon="18.87112">
        <ele>28.894874</ele>
        <time>2024-08-04T12:45:37.954Z</time>
      </trkpt>
      <trkpt lat="54.34176" lon="18.8713">
        <ele>28.87909</ele>
        <time>2024-08-04T12:45:39.933Z</time>
      </trkpt>
      <trkpt lat="54.34175" lon="18.87147">
        <ele>28.864027</ele>
        <time>2024-08-04T12:45:41.955Z</time>
      </trkpt>
      <trkpt lat="54.34173" lon="18.87164">
        <ele>28.848499</ele>
        <time>2024-08-04T12:45:43.936Z</time>
      </trkpt>
      <trkpt lat="54.3417" lon="18.87181">
        <ele>28.832957</ele>
        <time>2024-08-04T12:45:45.946Z</time>
      </trkpt>
      <trkpt lat="54.34168" lon="18.87197">
        <ele>28.817847</ele>
        <time>2024-08-04T12:45:47.942Z</time>
      </trkpt>
      <trkpt lat="54.34166" lon="18.87214">
        <ele>28.802815</ele>
        <time>2024-08-04T12:45:49.930Z</time>
      </trkpt>
      <trkpt lat="54.34164" lon="18.87231">
        <ele>28.787548</ele>
        <time>2024-08-04T12:45:51.939Z</time>
      </trkpt>
      <trkpt lat="54.34162" lon="18.87247">
        <ele>28.779054</ele>
        <time>2024-08-04T12:45:53.953Z</time>
      </trkpt>
      <trkpt lat="54.3416" lon="18.87263">
        <ele>28.797757</ele>
        <time>2024-08-04T12:45:55.929Z</time>
      </trkpt>
      <trkpt lat="54.34157" lon="18.87279">
        <ele>28.818046</ele>
        <time>2024-08-04T12:45:57.944Z</time>
      </trkpt>
      <trkpt lat="54.34154" lon="18.87294">
        <ele>28.837101</ele>
        <time>2024-08-04T12:45:59.941Z</time>
      </trkpt>
      <trkpt lat="54.34151" lon="18.8731">
        <ele>28.856821</ele>
        <time>2024-08-04T12:46:01.939Z</time>
      </trkpt>
      <trkpt lat="54.34148" lon="18.87325">
        <ele>28.876375</ele>
        <time>2024-08-04T12:46:03.948Z</time>
      </trkpt>
      <trkpt lat="54.34146" lon="18.8734">
        <ele>28.895342</ele>
        <time>2024-08-04T12:46:05.944Z</time>
      </trkpt>
      <trkpt lat="54.34142" lon="18.87356">
        <ele>28.915446</ele>
        <time>2024-08-04T12:46:07.934Z</time>
      </trkpt>
      <trkpt lat="54.34139" lon="18.87371">
        <ele>28.935163</ele>
        <time>2024-08-04T12:46:09.934Z</time>
      </trkpt>
      <trkpt lat="54.34135" lon="18.87385">
        <ele>28.953689</ele>
        <time>2024-08-04T12:46:11.946Z</time>
      </trkpt>
      <trkpt lat="54.34132" lon="18.874">
        <ele>28.972253</ele>
        <time>2024-08-04T12:46:13.944Z</time>
      </trkpt>
      <trkpt lat="54.34129" lon="18.87415">
        <ele>28.991354</ele>
        <time>2024-08-04T12:46:15.925Z</time>
      </trkpt>
      <trkpt lat="54.34127" lon="18.87431">
        <ele>29.010804</ele>
        <time>2024-08-04T12:46:17.928Z</time>
      </trkpt>
      <trkpt lat="54.34123" lon="18.87446">
        <ele>29.030781</ele>
        <time>2024-08-04T12:46:19.938Z</time>
      </trkpt>
      <trkpt lat="54.3412" lon="18.87462">
        <ele>29.050723</ele>
        <time>2024-08-04T12:46:21.964Z</time>
      </trkpt>
      <trkpt lat="54.34117" lon="18.87478">
        <ele>29.070667</ele>
        <time>2024-08-04T12:46:23.936Z</time>
      </trkpt>
      <trkpt lat="54.34114" lon="18.87493">
        <ele>29.090496</ele>
        <time>2024-08-04T12:46:25.945Z</time>
      </trkpt>
      <trkpt lat="54.34111" lon="18.87508">
        <ele>29.109396</ele>
        <time>2024-08-04T12:46:27.931Z</time>
      </trkpt>
      <trkpt lat="54.34107" lon="18.87523">
        <ele>29.128451</ele>
        <time>2024-08-04T12:46:29.929Z</time>
      </trkpt>
      <trkpt lat="54.34105" lon="18.87539">
        <ele>29.141936</ele>
        <time>2024-08-04T12:46:31.932Z</time>
      </trkpt>
      <trkpt lat="54.34102" lon="18.87555">
        <ele>29.124791</ele>
        <time>2024-08-04T12:46:33.931Z</time>
      </trkpt>
      <trkpt lat="54.34098" lon="18.8757">
        <ele>29.107845</ele>
        <time>2024-08-04T12:46:35.920Z</time>
      </trkpt>
      <trkpt lat="54.34095" lon="18.87586">
        <ele>29.090994</ele>
        <time>2024-08-04T12:46:37.938Z</time>
      </trkpt>
      <trkpt lat="54.34093" lon="18.87602">
        <ele>29.073655</ele>
        <time>2024-08-04T12:46:39.934Z</time>
      </trkpt>
      <trkpt lat="54.3409" lon="18.87618">
        <ele>29.057232</ele>
        <time>2024-08-04T12:46:41.962Z</time>
      </trkpt>
      <trkpt lat="54.34089" lon="18.87634">
        <ele>29.040524</ele>
        <time>2024-08-04T12:46:43.952Z</time>
      </trkpt>
      <trkpt lat="54.34086" lon="18.8765">
        <ele>29.024101</ele>
        <time>2024-08-04T12:46:45.910Z</time>
      </trkpt>
      <trkpt lat="54.34084" lon="18.87665">
        <ele>29.008118</ele>
        <time>2024-08-04T12:46:47.943Z</time>
      </trkpt>
      <trkpt lat="54.34083" lon="18.87681">
        <ele>28.991305</ele>
        <time>2024-08-04T12:46:49.929Z</time>
      </trkpt>
      <trkpt lat="54.3408" lon="18.87697">
        <ele>28.974185</ele>
        <time>2024-08-04T12:46:51.931Z</time>
      </trkpt>
      <trkpt lat="54.34078" lon="18.87713">
        <ele>28.958201</ele>
        <time>2024-08-04T12:46:53.933Z</time>
      </trkpt>
      <trkpt lat="54.34077" lon="18.87728">
        <ele>28.941957</ele>
        <time>2024-08-04T12:46:55.944Z</time>
      </trkpt>
      <trkpt lat="54.34076" lon="18.87744">
        <ele>28.925833</ele>
        <time>2024-08-04T12:46:57.943Z</time>
      </trkpt>
      <trkpt lat="54.34076" lon="18.87761">
        <ele>28.908634</ele>
        <time>2024-08-04T12:46:59.946Z</time>
      </trkpt>
      <trkpt lat="54.34075" lon="18.87778">
        <ele>28.891112</ele>
        <time>2024-08-04T12:47:01.933Z</time>
      </trkpt>
      <trkpt lat="54.34075" lon="18.87795">
        <ele>28.873202</ele>
        <time>2024-08-04T12:47:03.928Z</time>
      </trkpt>
      <trkpt lat="54.34076" lon="18.87813">
        <ele>28.855458</ele>
        <time>2024-08-04T12:47:05.918Z</time>
      </trkpt>
      <trkpt lat="54.34076" lon="18.87829">
        <ele>28.83845</ele>
        <time>2024-08-04T12:47:07.926Z</time>
      </trkpt>
      <trkpt lat="54.34075" lon="18.87845">
        <ele>28.911139</ele>
        <time>2024-08-04T12:47:09.935Z</time>
      </trkpt>
      <trkpt lat="54.34073" lon="18.87862">
        <ele>29.114777</ele>
        <time>2024-08-04T12:47:11.909Z</time>
      </trkpt>
      <trkpt lat="54.3407" lon="18.87879">
        <ele>29.325621</ele>
        <time>2024-08-04T12:47:13.913Z</time>
      </trkpt>
      <trkpt lat="54.34069" lon="18.87896">
        <ele>29.527936</ele>
        <time>2024-08-04T12:47:15.929Z</time>
      </trkpt>
      <trkpt lat="54.34069" lon="18.87913">
        <ele>29.727196</ele>
        <time>2024-08-04T12:47:17.912Z</time>
      </trkpt>
      <trkpt lat="54.34068" lon="18.87929">
        <ele>29.927155</ele>
        <time>2024-08-04T12:47:19.930Z</time>
      </trkpt>
      <trkpt lat="54.34066" lon="18.87946">
        <ele>30.133016</ele>
        <time>2024-08-04T12:47:21.957Z</time>
      </trkpt>
      <trkpt lat="54.34066" lon="18.87964">
        <ele>30.338435</ele>
        <time>2024-08-04T12:47:23.925Z</time>
      </trkpt>
      <trkpt lat="54.34065" lon="18.8798">
        <ele>30.533285</ele>
        <time>2024-08-04T12:47:25.937Z</time>
      </trkpt>
      <trkpt lat="54.34064" lon="18.87997">
        <ele>30.738592</ele>
        <time>2024-08-04T12:47:27.945Z</time>
      </trkpt>
      <trkpt lat="54.34064" lon="18.88013">
        <ele>30.927354</ele>
        <time>2024-08-04T12:47:29.940Z</time>
      </trkpt>
      <trkpt lat="54.34063" lon="18.8803">
        <ele>31.135796</ele>
        <time>2024-08-04T12:47:31.941Z</time>
      </trkpt>
      <trkpt lat="54.34062" lon="18.88047">
        <ele>31.333786</ele>
        <time>2024-08-04T12:47:33.930Z</time>
      </trkpt>
      <trkpt lat="54.3406" lon="18.88063">
        <ele>31.532367</ele>
        <time>2024-08-04T12:47:35.937Z</time>
      </trkpt>
      <trkpt lat="54.34058" lon="18.8808">
        <ele>31.739171</ele>
        <time>2024-08-04T12:47:37.935Z</time>
      </trkpt>
      <trkpt lat="54.34057" lon="18.88097">
        <ele>31.947122</ele>
        <time>2024-08-04T12:47:39.939Z</time>
      </trkpt>
      <trkpt lat="54.34056" lon="18.88115">
        <ele>32.15362</ele>
        <time>2024-08-04T12:47:41.941Z</time>
      </trkpt>
      <trkpt lat="54.34055" lon="18.88132">
        <ele>32.354572</ele>
        <time>2024-08-04T12:47:43.934Z</time>
      </trkpt>
      <trkpt lat="54.34055" lon="18.88149">
        <ele>32.552351</ele>
        <time>2024-08-04T12:47:45.940Z</time>
      </trkpt>
      <trkpt lat="54.34054" lon="18.88165">
        <ele>32.71293</ele>
        <time>2024-08-04T12:47:47.931Z</time>
      </trkpt>
      <trkpt lat="54.34052" lon="18.88181">
        <ele>32.883401</ele>
        <time>2024-08-04T12:47:49.950Z</time>
      </trkpt>
      <trkpt lat="54.34051" lon="18.88198">
        <ele>33.049402</ele>
        <time>2024-08-04T12:47:51.968Z</time>
      </trkpt>
      <trkpt lat="54.3405" lon="18.88215">
        <ele>33.226906</ele>
        <time>2024-08-04T12:47:53.951Z</time>
      </trkpt>
      <trkpt lat="54.34049" lon="18.88231">
        <ele>33.393189</ele>
        <time>2024-08-04T12:47:55.934Z</time>
      </trkpt>
      <trkpt lat="54.34048" lon="18.88249">
        <ele>33.57472</ele>
        <time>2024-08-04T12:47:57.952Z</time>
      </trkpt>
      <trkpt lat="54.34047" lon="18.88266">
        <ele>33.74754</ele>
        <time>2024-08-04T12:47:59.933Z</time>
      </trkpt>
      <trkpt lat="54.34046" lon="18.88284">
        <ele>33.925383</ele>
        <time>2024-08-04T12:48:01.941Z</time>
      </trkpt>
      <trkpt lat="54.34045" lon="18.883">
        <ele>34.09368</ele>
        <time>2024-08-04T12:48:03.931Z</time>
      </trkpt>
      <trkpt lat="54.34044" lon="18.88317">
        <ele>34.266153</ele>
        <time>2024-08-04T12:48:05.942Z</time>
      </trkpt>
      <trkpt lat="54.34043" lon="18.88335">
        <ele>34.446835</ele>
        <time>2024-08-04T12:48:07.942Z</time>
      </trkpt>
      <trkpt lat="54.34043" lon="18.88353">
        <ele>34.63024</ele>
        <time>2024-08-04T12:48:09.938Z</time>
      </trkpt>
      <trkpt lat="54.34042" lon="18.88371">
        <ele>34.806466</ele>
        <time>2024-08-04T12:48:11.946Z</time>
      </trkpt>
      <trkpt lat="54.34041" lon="18.88388">
        <ele>34.976433</ele>
        <time>2024-08-04T12:48:13.952Z</time>
      </trkpt>
      <trkpt lat="54.3404" lon="18.88403">
        <ele>35.13718</ele>
        <time>2024-08-04T12:48:15.953Z</time>
      </trkpt>
      <trkpt lat="54.34039" lon="18.8842">
        <ele>35.307192</ele>
        <time>2024-08-04T12:48:17.932Z</time>
      </trkpt>
      <trkpt lat="54.34037" lon="18.88437">
        <ele>35.477425</ele>
        <time>2024-08-04T12:48:19.932Z</time>
      </trkpt>
      <trkpt lat="54.34037" lon="18.88454">
        <ele>35.581472</ele>
        <time>2024-08-04T12:48:21.937Z</time>
      </trkpt>
      <trkpt lat="54.34036" lon="18.88471">
        <ele>35.336965</ele>
        <time>2024-08-04T12:48:23.929Z</time>
      </trkpt>
      <trkpt lat="54.34034" lon="18.88486">
        <ele>35.101754</ele>
        <time>2024-08-04T12:48:25.914Z</time>
      </trkpt>
      <trkpt lat="54.34032" lon="18.88503">
        <ele>34.85611</ele>
        <time>2024-08-04T12:48:27.945Z</time>
      </trkpt>
      <trkpt lat="54.3403" lon="18.88526">
        <ele>34.505614</ele>
        <time>2024-08-04T12:48:30.940Z</time>
      </trkpt>
      <trkpt lat="54.34028" lon="18.88542">
        <ele>34.265215</ele>
        <time>2024-08-04T12:48:32.940Z</time>
      </trkpt>
      <trkpt lat="54.34025" lon="18.88559">
        <ele>34.011103</ele>
        <time>2024-08-04T12:48:34.937Z</time>
      </trkpt>
      <trkpt lat="54.34023" lon="18.88575">
        <ele>33.766736</ele>
        <time>2024-08-04T12:48:36.936Z</time>
      </trkpt>
      <trkpt lat="54.34022" lon="18.88592">
        <ele>33.520326</ele>
        <time>2024-08-04T12:48:38.957Z</time>
      </trkpt>
      <trkpt lat="54.3402" lon="18.88608">
        <ele>33.276042</ele>
        <time>2024-08-04T12:48:40.937Z</time>
      </trkpt>
      <trkpt lat="54.34021" lon="18.88625">
        <ele>33.030379</ele>
        <time>2024-08-04T12:48:42.951Z</time>
      </trkpt>
      <trkpt lat="54.34019" lon="18.88641">
        <ele>32.783769</ele>
        <time>2024-08-04T12:48:44.947Z</time>
      </trkpt>
      <trkpt lat="54.34016" lon="18.88658">
        <ele>32.528447</ele>
        <time>2024-08-04T12:48:46.941Z</time>
      </trkpt>
      <trkpt lat="54.34012" lon="18.88679">
        <ele>32.206058</ele>
        <time>2024-08-04T12:48:49.936Z</time>
      </trkpt>
      <trkpt lat="54.34009" lon="18.88702">
        <ele>31.862821</ele>
        <time>2024-08-04T12:48:52.938Z</time>
      </trkpt>
      <trkpt lat="54.34009" lon="18.88718">
        <ele>31.625437</ele>
        <time>2024-08-04T12:48:54.938Z</time>
      </trkpt>
      <trkpt lat="54.34007" lon="18.88735">
        <ele>31.36489</ele>
        <time>2024-08-04T12:48:56.932Z</time>
      </trkpt>
      <trkpt lat="54.34004" lon="18.88753">
        <ele>31.101616</ele>
        <time>2024-08-04T12:48:58.936Z</time>
      </trkpt>
      <trkpt lat="54.34002" lon="18.8877">
        <ele>31.114595</ele>
        <time>2024-08-04T12:49:00.944Z</time>
      </trkpt>
      <trkpt lat="54.34" lon="18.88789">
        <ele>31.138462</ele>
        <time>2024-08-04T12:49:02.940Z</time>
      </trkpt>
      <trkpt lat="54.33998" lon="18.88806">
        <ele>31.161273</ele>
        <time>2024-08-04T12:49:04.942Z</time>
      </trkpt>
      <trkpt lat="54.33997" lon="18.88822">
        <ele>31.182609</ele>
        <time>2024-08-04T12:49:06.944Z</time>
      </trkpt>
      <trkpt lat="54.33996" lon="18.88839">
        <ele>31.204264</ele>
        <time>2024-08-04T12:49:08.937Z</time>
      </trkpt>
      <trkpt lat="54.33994" lon="18.88855">
        <ele>31.225756</ele>
        <time>2024-08-04T12:49:10.953Z</time>
      </trkpt>
      <trkpt lat="54.33991" lon="18.88875">
        <ele>31.251776</ele>
        <time>2024-08-04T12:49:13.946Z</time>
      </trkpt>
      <trkpt lat="54.33987" lon="18.88877">
        <ele>31.261805</ele>
        <time>2024-08-04T12:49:23.905Z</time>
      </trkpt>
      <trkpt lat="54.33989" lon="18.88893">
        <ele>31.283541</ele>
        <time>2024-08-04T13:10:37.925Z</time>
      </trkpt>
      <trkpt lat="54.33987" lon="18.88909">
        <ele>31.304368</ele>
        <time>2024-08-04T13:10:42.951Z</time>
      </trkpt>
      <trkpt lat="54.33985" lon="18.88927">
        <ele>31.32802</ele>
        <time>2024-08-04T13:10:47.950Z</time>
      </trkpt>
      <trkpt lat="54.33983" lon="18.88947">
        <ele>31.354408</ele>
        <time>2024-08-04T13:10:51.935Z</time>
      </trkpt>
      <trkpt lat="54.33981" lon="18.88964">
        <ele>31.375907</ele>
        <time>2024-08-04T13:10:54.945Z</time>
      </trkpt>
      <trkpt lat="54.3398" lon="18.88982">
        <ele>31.399417</ele>
        <time>2024-08-04T13:10:57.954Z</time>
      </trkpt>
      <trkpt lat="54.33978" lon="18.89003">
        <ele>31.427044</ele>
        <time>2024-08-04T13:11:00.948Z</time>
      </trkpt>
      <trkpt lat="54.33975" lon="18.89025">
        <ele>31.456109</ele>
        <time>2024-08-04T13:11:03.966Z</time>
      </trkpt>
      <trkpt lat="54.33973" lon="18.89047">
        <ele>31.485517</ele>
        <time>2024-08-04T13:11:06.941Z</time>
      </trkpt>
      <trkpt lat="54.33971" lon="18.89069">
        <ele>31.423418</ele>
        <time>2024-08-04T13:11:09.954Z</time>
      </trkpt>
      <trkpt lat="54.33969" lon="18.89089">
        <ele>31.341865</ele>
        <time>2024-08-04T13:11:12.935Z</time>
      </trkpt>
      <trkpt lat="54.33966" lon="18.8911">
        <ele>31.261201</ele>
        <time>2024-08-04T13:11:15.952Z</time>
      </trkpt>
      <trkpt lat="54.33965" lon="18.89132">
        <ele>31.174351</ele>
        <time>2024-08-04T13:11:18.961Z</time>
      </trkpt>
      <trkpt lat="54.33961" lon="18.89154">
        <ele>31.085801</ele>
        <time>2024-08-04T13:11:21.943Z</time>
      </trkpt>
      <trkpt lat="54.33958" lon="18.89176">
        <ele>30.999876</ele>
        <time>2024-08-04T13:11:24.961Z</time>
      </trkpt>
      <trkpt lat="54.33954" lon="18.89197">
        <ele>30.913178</ele>
        <time>2024-08-04T13:11:27.943Z</time>
      </trkpt>
      <trkpt lat="54.33951" lon="18.89219">
        <ele>30.826015</ele>
        <time>2024-08-04T13:11:30.957Z</time>
      </trkpt>
      <trkpt lat="54.33947" lon="18.89241">
        <ele>30.740819</ele>
        <time>2024-08-04T13:11:33.958Z</time>
      </trkpt>
      <trkpt lat="54.33945" lon="18.89263">
        <ele>30.654473</ele>
        <time>2024-08-04T13:11:36.955Z</time>
      </trkpt>
      <trkpt lat="54.33943" lon="18.89278">
        <ele>30.593983</ele>
        <time>2024-08-04T13:11:38.953Z</time>
      </trkpt>
      <trkpt lat="54.3394" lon="18.893">
        <ele>30.506666</ele>
        <time>2024-08-04T13:11:41.938Z</time>
      </trkpt>
      <trkpt lat="54.33937" lon="18.89321">
        <ele>30.42171</ele>
        <time>2024-08-04T13:11:44.957Z</time>
      </trkpt>
      <trkpt lat="54.33934" lon="18.89343">
        <ele>30.334984</ele>
        <time>2024-08-04T13:11:47.946Z</time>
      </trkpt>
      <trkpt lat="54.33931" lon="18.89365">
        <ele>30.204972</ele>
        <time>2024-08-04T13:11:50.945Z</time>
      </trkpt>
      <trkpt lat="54.33928" lon="18.89387">
        <ele>30.055067</ele>
        <time>2024-08-04T13:11:53.945Z</time>
      </trkpt>
      <trkpt lat="54.33925" lon="18.89405">
        <ele>29.922766</ele>
        <time>2024-08-04T13:11:56.935Z</time>
      </trkpt>
      <trkpt lat="54.33923" lon="18.89426">
        <ele>29.777032</ele>
        <time>2024-08-04T13:11:59.954Z</time>
      </trkpt>
      <trkpt lat="54.3392" lon="18.89445">
        <ele>29.637831</ele>
        <time>2024-08-04T13:12:02.957Z</time>
      </trkpt>
      <trkpt lat="54.33917" lon="18.89464">
        <ele>29.502452</ele>
        <time>2024-08-04T13:12:05.942Z</time>
      </trkpt>
      <trkpt lat="54.33916" lon="18.89485">
        <ele>29.360808</ele>
        <time>2024-08-04T13:12:08.950Z</time>
      </trkpt>
      <trkpt lat="54.33914" lon="18.89504">
        <ele>29.223937</ele>
        <time>2024-08-04T13:12:11.964Z</time>
      </trkpt>
      <trkpt lat="54.33911" lon="18.89523">
        <ele>29.08807</ele>
        <time>2024-08-04T13:12:14.955Z</time>
      </trkpt>
      <trkpt lat="54.33907" lon="18.89544">
        <ele>28.94159</ele>
        <time>2024-08-04T13:12:17.942Z</time>
      </trkpt>
      <trkpt lat="54.33904" lon="18.89563">
        <ele>28.802103</ele>
        <time>2024-08-04T13:12:20.955Z</time>
      </trkpt>
      <trkpt lat="54.33901" lon="18.89583">
        <ele>28.65879</ele>
        <time>2024-08-04T13:12:23.959Z</time>
      </trkpt>
      <trkpt lat="54.33899" lon="18.89604">
        <ele>28.512118</ele>
        <time>2024-08-04T13:12:26.943Z</time>
      </trkpt>
      <trkpt lat="54.33896" lon="18.89625">
        <ele>28.366119</ele>
        <time>2024-08-04T13:12:29.933Z</time>
      </trkpt>
      <trkpt lat="54.33893" lon="18.89645">
        <ele>28.219845</ele>
        <time>2024-08-04T13:12:32.943Z</time>
      </trkpt>
      <trkpt lat="54.3389" lon="18.89666">
        <ele>28.159686</ele>
        <time>2024-08-04T13:12:35.939Z</time>
      </trkpt>
      <trkpt lat="54.33887" lon="18.89687">
        <ele>28.142005</ele>
        <time>2024-08-04T13:12:38.945Z</time>
      </trkpt>
      <trkpt lat="54.33884" lon="18.89709">
        <ele>28.123362</ele>
        <time>2024-08-04T13:12:41.962Z</time>
      </trkpt>
      <trkpt lat="54.33881" lon="18.89731">
        <ele>28.105019</ele>
        <time>2024-08-04T13:12:44.960Z</time>
      </trkpt>
      <trkpt lat="54.33879" lon="18.89753">
        <ele>28.087013</ele>
        <time>2024-08-04T13:12:47.936Z</time>
      </trkpt>
      <trkpt lat="54.33876" lon="18.89774">
        <ele>28.068797</ele>
        <time>2024-08-04T13:12:50.944Z</time>
      </trkpt>
      <trkpt lat="54.33874" lon="18.89797">
        <ele>28.050233</ele>
        <time>2024-08-04T13:12:53.937Z</time>
      </trkpt>
      <trkpt lat="54.33871" lon="18.89819">
        <ele>28.031585</ele>
        <time>2024-08-04T13:12:56.936Z</time>
      </trkpt>
      <trkpt lat="54.33868" lon="18.89841">
        <ele>28.012777</ele>
        <time>2024-08-04T13:12:59.945Z</time>
      </trkpt>
      <trkpt lat="54.33865" lon="18.89856">
        <ele>28.000132</ele>
        <time>2024-08-04T13:13:01.946Z</time>
      </trkpt>
      <trkpt lat="54.33864" lon="18.89879">
        <ele>27.981648</ele>
        <time>2024-08-04T13:13:04.950Z</time>
      </trkpt>
      <trkpt lat="54.33862" lon="18.89894">
        <ele>27.968989</ele>
        <time>2024-08-04T13:13:06.946Z</time>
      </trkpt>
      <trkpt lat="54.33859" lon="18.89916">
        <ele>27.95029</ele>
        <time>2024-08-04T13:13:09.944Z</time>
      </trkpt>
      <trkpt lat="54.33857" lon="18.89931">
        <ele>27.937631</ele>
        <time>2024-08-04T13:13:11.955Z</time>
      </trkpt>
      <trkpt lat="54.33855" lon="18.89947">
        <ele>27.924738</ele>
        <time>2024-08-04T13:13:13.953Z</time>
      </trkpt>
      <trkpt lat="54.33853" lon="18.89963">
        <ele>28.01211</ele>
        <time>2024-08-04T13:13:15.951Z</time>
      </trkpt>
      <trkpt lat="54.33851" lon="18.89979">
        <ele>28.173395</ele>
        <time>2024-08-04T13:13:17.951Z</time>
      </trkpt>
      <trkpt lat="54.33849" lon="18.89994">
        <ele>28.329158</ele>
        <time>2024-08-04T13:13:19.941Z</time>
      </trkpt>
      <trkpt lat="54.33847" lon="18.9001">
        <ele>28.487198</ele>
        <time>2024-08-04T13:13:21.949Z</time>
      </trkpt>
      <trkpt lat="54.33845" lon="18.90026">
        <ele>28.64874</ele>
        <time>2024-08-04T13:13:23.943Z</time>
      </trkpt>
      <trkpt lat="54.33844" lon="18.90042">
        <ele>28.802579</ele>
        <time>2024-08-04T13:13:25.942Z</time>
      </trkpt>
      <trkpt lat="54.33842" lon="18.90057">
        <ele>28.960716</ele>
        <time>2024-08-04T13:13:27.927Z</time>
      </trkpt>
      <trkpt lat="54.3384" lon="18.90073">
        <ele>29.120679</ele>
        <time>2024-08-04T13:13:29.939Z</time>
      </trkpt>
      <trkpt lat="54.33838" lon="18.90089">
        <ele>29.282564</ele>
        <time>2024-08-04T13:13:31.966Z</time>
      </trkpt>
      <trkpt lat="54.33836" lon="18.90105">
        <ele>29.43929</ele>
        <time>2024-08-04T13:13:33.952Z</time>
      </trkpt>
      <trkpt lat="54.33835" lon="18.9012">
        <ele>29.591496</ele>
        <time>2024-08-04T13:13:35.943Z</time>
      </trkpt>
      <trkpt lat="54.33832" lon="18.90135">
        <ele>29.745116</ele>
        <time>2024-08-04T13:13:37.938Z</time>
      </trkpt>
      <trkpt lat="54.3383" lon="18.90151">
        <ele>29.901609</ele>
        <time>2024-08-04T13:13:39.937Z</time>
      </trkpt>
      <trkpt lat="54.33828" lon="18.90174">
        <ele>30.127828</ele>
        <time>2024-08-04T13:13:42.938Z</time>
      </trkpt>
      <trkpt lat="54.33824" lon="18.90195">
        <ele>30.346886</ele>
        <time>2024-08-04T13:13:45.934Z</time>
      </trkpt>
      <trkpt lat="54.33822" lon="18.90217">
        <ele>30.569032</ele>
        <time>2024-08-04T13:13:48.939Z</time>
      </trkpt>
      <trkpt lat="54.3382" lon="18.90239">
        <ele>30.785598</ele>
        <time>2024-08-04T13:13:51.963Z</time>
      </trkpt>
      <trkpt lat="54.33817" lon="18.90261">
        <ele>30.93646</ele>
        <time>2024-08-04T13:13:54.947Z</time>
      </trkpt>
      <trkpt lat="54.33813" lon="18.90282">
        <ele>30.869749</ele>
        <time>2024-08-04T13:13:57.957Z</time>
      </trkpt>
      <trkpt lat="54.3381" lon="18.90305">
        <ele>30.800952</ele>
        <time>2024-08-04T13:14:00.960Z</time>
      </trkpt>
      <trkpt lat="54.33808" lon="18.9032">
        <ele>30.754525</ele>
        <time>2024-08-04T13:14:02.947Z</time>
      </trkpt>
      <trkpt lat="54.33805" lon="18.90342">
        <ele>30.686717</ele>
        <time>2024-08-04T13:14:05.936Z</time>
      </trkpt>
      <trkpt lat="54.33802" lon="18.90362">
        <ele>30.623192</ele>
        <time>2024-08-04T13:14:08.931Z</time>
      </trkpt>
      <trkpt lat="54.338" lon="18.90383">
        <ele>30.561387</ele>
        <time>2024-08-04T13:14:11.950Z</time>
      </trkpt>
      <trkpt lat="54.33799" lon="18.90404">
        <ele>30.497422</ele>
        <time>2024-08-04T13:14:14.938Z</time>
      </trkpt>
      <trkpt lat="54.33796" lon="18.90425">
        <ele>30.432993</ele>
        <time>2024-08-04T13:14:17.941Z</time>
      </trkpt>
      <trkpt lat="54.33793" lon="18.90445">
        <ele>30.371011</ele>
        <time>2024-08-04T13:14:20.946Z</time>
      </trkpt>
      <trkpt lat="54.33791" lon="18.90465">
        <ele>30.3095</ele>
        <time>2024-08-04T13:14:23.940Z</time>
      </trkpt>
      <trkpt lat="54.33789" lon="18.90486">
        <ele>30.245591</ele>
        <time>2024-08-04T13:14:26.950Z</time>
      </trkpt>
      <trkpt lat="54.33787" lon="18.90507">
        <ele>30.182493</ele>
        <time>2024-08-04T13:14:29.923Z</time>
      </trkpt>
      <trkpt lat="54.33786" lon="18.90529">
        <ele>30.11725</ele>
        <time>2024-08-04T13:14:32.942Z</time>
      </trkpt>
      <trkpt lat="54.33783" lon="18.9055">
        <ele>30.051816</ele>
        <time>2024-08-04T13:14:35.937Z</time>
      </trkpt>
      <trkpt lat="54.33781" lon="18.90571">
        <ele>30.017768</ele>
        <time>2024-08-04T13:14:38.944Z</time>
      </trkpt>
      <trkpt lat="54.3378" lon="18.90593">
        <ele>29.999384</ele>
        <time>2024-08-04T13:14:41.956Z</time>
      </trkpt>
      <trkpt lat="54.33778" lon="18.90613">
        <ele>29.982159</ele>
        <time>2024-08-04T13:14:44.902Z</time>
      </trkpt>
      <trkpt lat="54.33777" lon="18.90636">
        <ele>29.962759</ele>
        <time>2024-08-04T13:14:47.932Z</time>
      </trkpt>
      <trkpt lat="54.33776" lon="18.90652">
        <ele>29.949245</ele>
        <time>2024-08-04T13:14:49.947Z</time>
      </trkpt>
      <trkpt lat="54.33774" lon="18.90675">
        <ele>29.92964</ele>
        <time>2024-08-04T13:14:52.946Z</time>
      </trkpt>
      <trkpt lat="54.33772" lon="18.9069">
        <ele>29.916603</ele>
        <time>2024-08-04T13:14:54.950Z</time>
      </trkpt>
      <trkpt lat="54.3377" lon="18.90706">
        <ele>29.903318</ele>
        <time>2024-08-04T13:14:56.954Z</time>
      </trkpt>
      <trkpt lat="54.33769" lon="18.90721">
        <ele>29.890172</ele>
        <time>2024-08-04T13:14:58.942Z</time>
      </trkpt>
      <trkpt lat="54.33766" lon="18.90744">
        <ele>29.870495</ele>
        <time>2024-08-04T13:15:01.959Z</time>
      </trkpt>
      <trkpt lat="54.33763" lon="18.90758">
        <ele>29.85749</ele>
        <time>2024-08-04T13:15:03.950Z</time>
      </trkpt>
      <trkpt lat="54.3376" lon="18.90781">
        <ele>29.837977</ele>
        <time>2024-08-04T13:15:06.942Z</time>
      </trkpt>
      <trkpt lat="54.33755" lon="18.90802">
        <ele>29.818913</ele>
        <time>2024-08-04T13:15:09.937Z</time>
      </trkpt>
      <trkpt lat="54.33748" lon="18.90822">
        <ele>29.799438</ele>
        <time>2024-08-04T13:15:12.956Z</time>
      </trkpt>
      <trkpt lat="54.33742" lon="18.90834">
        <ele>29.785822</ele>
        <time>2024-08-04T13:15:14.959Z</time>
      </trkpt>
      <trkpt lat="54.33736" lon="18.90846">
        <ele>29.772565</ele>
        <time>2024-08-04T13:15:16.951Z</time>
      </trkpt>
      <trkpt lat="54.3373" lon="18.90857">
        <ele>29.793437</ele>
        <time>2024-08-04T13:15:18.950Z</time>
      </trkpt>
      <trkpt lat="54.33723" lon="18.90874">
        <ele>29.837408</ele>
        <time>2024-08-04T13:15:21.957Z</time>
      </trkpt>
      <trkpt lat="54.33716" lon="18.90891">
        <ele>29.880671</ele>
        <time>2024-08-04T13:15:24.966Z</time>
      </trkpt>
      <trkpt lat="54.33711" lon="18.9091">
        <ele>29.924609</ele>
        <time>2024-08-04T13:15:27.950Z</time>
      </trkpt>
      <trkpt lat="54.33708" lon="18.9093">
        <ele>29.968905</ele>
        <time>2024-08-04T13:15:30.930Z</time>
      </trkpt>
      <trkpt lat="54.33706" lon="18.90951">
        <ele>30.013153</ele>
        <time>2024-08-04T13:15:33.944Z</time>
      </trkpt>
      <trkpt lat="54.33704" lon="18.9097">
        <ele>30.055268</ele>
        <time>2024-08-04T13:15:36.939Z</time>
      </trkpt>
      <trkpt lat="54.33703" lon="18.9099">
        <ele>30.096425</ele>
        <time>2024-08-04T13:15:39.942Z</time>
      </trkpt>
      <trkpt lat="54.33702" lon="18.9101">
        <ele>30.140256</ele>
        <time>2024-08-04T13:15:42.950Z</time>
      </trkpt>
      <trkpt lat="54.33701" lon="18.9103">
        <ele>30.18279</ele>
        <time>2024-08-04T13:15:45.935Z</time>
      </trkpt>
      <trkpt lat="54.33699" lon="18.91049">
        <ele>30.223276</ele>
        <time>2024-08-04T13:15:48.944Z</time>
      </trkpt>
      <trkpt lat="54.33699" lon="18.91068">
        <ele>30.261749</ele>
        <time>2024-08-04T13:15:51.944Z</time>
      </trkpt>
      <trkpt lat="54.33698" lon="18.91087">
        <ele>30.303658</ele>
        <time>2024-08-04T13:15:54.958Z</time>
      </trkpt>
      <trkpt lat="54.33697" lon="18.91107">
        <ele>30.345804</ele>
        <time>2024-08-04T13:15:57.938Z</time>
      </trkpt>
      <trkpt lat="54.33696" lon="18.91127">
        <ele>30.387924</ele>
        <time>2024-08-04T13:16:00.955Z</time>
      </trkpt>
      <trkpt lat="54.33695" lon="18.9115">
        <ele>30.430482</ele>
        <time>2024-08-04T13:16:03.941Z</time>
      </trkpt>
      <trkpt lat="54.33693" lon="18.91171">
        <ele>30.461789</ele>
        <time>2024-08-04T13:16:06.962Z</time>
      </trkpt>
      <trkpt lat="54.33691" lon="18.91193">
        <ele>30.492499</ele>
        <time>2024-08-04T13:16:09.946Z</time>
      </trkpt>
      <trkpt lat="54.33689" lon="18.91215">
        <ele>30.524552</ele>
        <time>2024-08-04T13:16:12.953Z</time>
      </trkpt>
      <trkpt lat="54.33687" lon="18.91237">
        <ele>30.556456</ele>
        <time>2024-08-04T13:16:15.951Z</time>
      </trkpt>
      <trkpt lat="54.33687" lon="18.91253">
        <ele>30.578695</ele>
        <time>2024-08-04T13:16:17.940Z</time>
      </trkpt>
      <trkpt lat="54.33686" lon="18.91268">
        <ele>30.601062</ele>
        <time>2024-08-04T13:16:19.933Z</time>
      </trkpt>
      <trkpt lat="54.33685" lon="18.91292">
        <ele>30.634272</ele>
        <time>2024-08-04T13:16:22.933Z</time>
      </trkpt>
      <trkpt lat="54.33684" lon="18.91308">
        <ele>30.657302</ele>
        <time>2024-08-04T13:16:24.952Z</time>
      </trkpt>
      <trkpt lat="54.33682" lon="18.9133">
        <ele>30.689425</ele>
        <time>2024-08-04T13:16:27.954Z</time>
      </trkpt>
      <trkpt lat="54.33681" lon="18.91346">
        <ele>30.711697</ele>
        <time>2024-08-04T13:16:29.946Z</time>
      </trkpt>
      <trkpt lat="54.33679" lon="18.91367">
        <ele>30.743231</ele>
        <time>2024-08-04T13:16:32.945Z</time>
      </trkpt>
      <trkpt lat="54.33677" lon="18.9139">
        <ele>30.775452</ele>
        <time>2024-08-04T13:16:35.944Z</time>
      </trkpt>
      <trkpt lat="54.33675" lon="18.91412">
        <ele>30.807687</ele>
        <time>2024-08-04T13:16:38.943Z</time>
      </trkpt>
      <trkpt lat="54.33672" lon="18.91433">
        <ele>30.838715</ele>
        <time>2024-08-04T13:16:41.950Z</time>
      </trkpt>
      <trkpt lat="54.3367" lon="18.91453">
        <ele>30.867737</ele>
        <time>2024-08-04T13:16:44.950Z</time>
      </trkpt>
      <trkpt lat="54.33667" lon="18.91473">
        <ele>30.897039</ele>
        <time>2024-08-04T13:16:47.937Z</time>
      </trkpt>
      <trkpt lat="54.33663" lon="18.91492">
        <ele>30.926407</ele>
        <time>2024-08-04T13:16:50.957Z</time>
      </trkpt>
      <trkpt lat="54.3366" lon="18.9151">
        <ele>30.952923</ele>
        <time>2024-08-04T13:16:53.950Z</time>
      </trkpt>
      <trkpt lat="54.33659" lon="18.91526">
        <ele>30.977686</ele>
        <time>2024-08-04T13:16:56.960Z</time>
      </trkpt>
      <trkpt lat="54.33657" lon="18.91545">
        <ele>31.005534</ele>
        <time>2024-08-04T13:16:59.960Z</time>
      </trkpt>
      <trkpt lat="54.33655" lon="18.91564">
        <ele>31.032296</ele>
        <time>2024-08-04T13:17:02.941Z</time>
      </trkpt>
      <trkpt lat="54.33654" lon="18.91583">
        <ele>31.060867</ele>
        <time>2024-08-04T13:17:05.920Z</time>
      </trkpt>
      <trkpt lat="54.3365" lon="18.91604">
        <ele>31.091699</ele>
        <time>2024-08-04T13:17:08.948Z</time>
      </trkpt>
      <trkpt lat="54.33647" lon="18.91623">
        <ele>31.120797</ele>
        <time>2024-08-04T13:17:11.958Z</time>
      </trkpt>
      <trkpt lat="54.33644" lon="18.91643">
        <ele>31.150815</ele>
        <time>2024-08-04T13:17:14.948Z</time>
      </trkpt>
      <trkpt lat="54.33641" lon="18.91662">
        <ele>31.180132</ele>
        <time>2024-08-04T13:17:17.932Z</time>
      </trkpt>
      <trkpt lat="54.33638" lon="18.91681">
        <ele>31.207272</ele>
        <time>2024-08-04T13:17:20.951Z</time>
      </trkpt>
      <trkpt lat="54.33635" lon="18.917">
        <ele>31.236313</ele>
        <time>2024-08-04T13:17:23.947Z</time>
      </trkpt>
      <trkpt lat="54.33631" lon="18.91719">
        <ele>31.265462</ele>
        <time>2024-08-04T13:17:26.956Z</time>
      </trkpt>
      <trkpt lat="54.33627" lon="18.91738">
        <ele>31.294691</ele>
        <time>2024-08-04T13:17:29.957Z</time>
      </trkpt>
      <trkpt lat="54.33625" lon="18.91758">
        <ele>31.298687</ele>
        <time>2024-08-04T13:17:32.946Z</time>
      </trkpt>
      <trkpt lat="54.33623" lon="18.91776">
        <ele>31.284831</ele>
        <time>2024-08-04T13:17:35.952Z</time>
      </trkpt>
      <trkpt lat="54.33622" lon="18.91794">
        <ele>31.271875</ele>
        <time>2024-08-04T13:17:38.948Z</time>
      </trkpt>
      <trkpt lat="54.33623" lon="18.91814">
        <ele>31.257797</ele>
        <time>2024-08-04T13:17:41.967Z</time>
      </trkpt>
      <trkpt lat="54.33621" lon="18.91832">
        <ele>31.244331</ele>
        <time>2024-08-04T13:17:44.960Z</time>
      </trkpt>
      <trkpt lat="54.3362" lon="18.91852">
        <ele>31.230078</ele>
        <time>2024-08-04T13:17:47.935Z</time>
      </trkpt>
      <trkpt lat="54.3362" lon="18.91871">
        <ele>31.216362</ele>
        <time>2024-08-04T13:17:50.945Z</time>
      </trkpt>
      <trkpt lat="54.33621" lon="18.91891">
        <ele>31.201471</ele>
        <time>2024-08-04T13:17:53.938Z</time>
      </trkpt>
      <trkpt lat="54.33622" lon="18.91913">
        <ele>31.18566</ele>
        <time>2024-08-04T13:17:56.948Z</time>
      </trkpt>
      <trkpt lat="54.33622" lon="18.91934">
        <ele>31.170095</ele>
        <time>2024-08-04T13:17:59.938Z</time>
      </trkpt>
      <trkpt lat="54.33622" lon="18.91955">
        <ele>31.155252</ele>
        <time>2024-08-04T13:18:02.949Z</time>
      </trkpt>
      <trkpt lat="54.33623" lon="18.91976">
        <ele>31.13964</ele>
        <time>2024-08-04T13:18:05.955Z</time>
      </trkpt>
      <trkpt lat="54.33623" lon="18.91998">
        <ele>31.123784</ele>
        <time>2024-08-04T13:18:08.947Z</time>
      </trkpt>
      <trkpt lat="54.33624" lon="18.92014">
        <ele>31.112077</ele>
        <time>2024-08-04T13:18:10.958Z</time>
      </trkpt>
      <trkpt lat="54.33625" lon="18.92029">
        <ele>31.100885</ele>
        <time>2024-08-04T13:18:12.937Z</time>
      </trkpt>
      <trkpt lat="54.33627" lon="18.92051">
        <ele>31.085068</ele>
        <time>2024-08-04T13:18:15.951Z</time>
      </trkpt>
      <trkpt lat="54.33629" lon="18.92071">
        <ele>31.071859</ele>
        <time>2024-08-04T13:18:18.941Z</time>
      </trkpt>
      <trkpt lat="54.33629" lon="18.92092">
        <ele>31.058368</ele>
        <time>2024-08-04T13:18:21.937Z</time>
      </trkpt>
      <trkpt lat="54.3363" lon="18.92114">
        <ele>31.044281</ele>
        <time>2024-08-04T13:18:24.956Z</time>
      </trkpt>
      <trkpt lat="54.33631" lon="18.92135">
        <ele>31.030556</ele>
        <time>2024-08-04T13:18:27.947Z</time>
      </trkpt>
      <trkpt lat="54.33631" lon="18.92155">
        <ele>31.017589</ele>
        <time>2024-08-04T13:18:30.916Z</time>
      </trkpt>
      <trkpt lat="54.33631" lon="18.92173">
        <ele>31.005681</ele>
        <time>2024-08-04T13:18:33.938Z</time>
      </trkpt>
      <trkpt lat="54.33629" lon="18.92191">
        <ele>30.993864</ele>
        <time>2024-08-04T13:18:36.945Z</time>
      </trkpt>
      <trkpt lat="54.33627" lon="18.9221">
        <ele>30.981574</ele>
        <time>2024-08-04T13:18:39.943Z</time>
      </trkpt>
      <trkpt lat="54.33625" lon="18.92231">
        <ele>30.967766</ele>
        <time>2024-08-04T13:18:42.956Z</time>
      </trkpt>
      <trkpt lat="54.33623" lon="18.92252">
        <ele>30.953693</ele>
        <time>2024-08-04T13:18:45.932Z</time>
      </trkpt>
      <trkpt lat="54.33622" lon="18.92273">
        <ele>30.940294</ele>
        <time>2024-08-04T13:18:48.955Z</time>
      </trkpt>
      <trkpt lat="54.33621" lon="18.92293">
        <ele>30.927358</ele>
        <time>2024-08-04T13:18:51.975Z</time>
      </trkpt>
      <trkpt lat="54.3362" lon="18.92313">
        <ele>30.914115</ele>
        <time>2024-08-04T13:18:54.954Z</time>
      </trkpt>
      <trkpt lat="54.33617" lon="18.92333">
        <ele>30.901303</ele>
        <time>2024-08-04T13:18:57.935Z</time>
      </trkpt>
      <trkpt lat="54.33617" lon="18.92353">
        <ele>30.888347</ele>
        <time>2024-08-04T13:19:00.948Z</time>
      </trkpt>
      <trkpt lat="54.33616" lon="18.92372">
        <ele>30.888984</ele>
        <time>2024-08-04T13:19:03.954Z</time>
      </trkpt>
      <trkpt lat="54.33614" lon="18.92392">
        <ele>30.896414</ele>
        <time>2024-08-04T13:19:06.946Z</time>
      </trkpt>
      <trkpt lat="54.33612" lon="18.92412">
        <ele>30.904041</ele>
        <time>2024-08-04T13:19:09.954Z</time>
      </trkpt>
      <trkpt lat="54.3361" lon="18.92431">
        <ele>30.911334</ele>
        <time>2024-08-04T13:19:12.948Z</time>
      </trkpt>
      <trkpt lat="54.33608" lon="18.9245">
        <ele>30.918802</ele>
        <time>2024-08-04T13:19:15.943Z</time>
      </trkpt>
      <trkpt lat="54.33607" lon="18.9247">
        <ele>30.926224</ele>
        <time>2024-08-04T13:19:18.934Z</time>
      </trkpt>
      <trkpt lat="54.33605" lon="18.9249">
        <ele>30.933594</ele>
        <time>2024-08-04T13:19:21.932Z</time>
      </trkpt>
      <trkpt lat="54.33605" lon="18.92509">
        <ele>30.940849</ele>
        <time>2024-08-04T13:19:24.934Z</time>
      </trkpt>
      <trkpt lat="54.33605" lon="18.92527">
        <ele>30.947816</ele>
        <time>2024-08-04T13:19:27.934Z</time>
      </trkpt>
      <trkpt lat="54.33603" lon="18.92547">
        <ele>30.955387</ele>
        <time>2024-08-04T13:19:30.956Z</time>
      </trkpt>
      <trkpt lat="54.33602" lon="18.92567">
        <ele>30.962959</ele>
        <time>2024-08-04T13:19:33.935Z</time>
      </trkpt>
      <trkpt lat="54.33601" lon="18.92587">
        <ele>30.970277</ele>
        <time>2024-08-04T13:19:36.944Z</time>
      </trkpt>
      <trkpt lat="54.33599" lon="18.92606">
        <ele>30.977716</ele>
        <time>2024-08-04T13:19:39.943Z</time>
      </trkpt>
      <trkpt lat="54.33597" lon="18.92624">
        <ele>30.984395</ele>
        <time>2024-08-04T13:19:42.960Z</time>
      </trkpt>
      <trkpt lat="54.33595" lon="18.92641">
        <ele>30.990948</ele>
        <time>2024-08-04T13:19:45.946Z</time>
      </trkpt>
      <trkpt lat="54.33594" lon="18.92659">
        <ele>30.997669</ele>
        <time>2024-08-04T13:19:48.950Z</time>
      </trkpt>
      <trkpt lat="54.33593" lon="18.92677">
        <ele>30.971193</ele>
        <time>2024-08-04T13:19:51.935Z</time>
      </trkpt>
      <trkpt lat="54.33592" lon="18.92698">
        <ele>30.925242</ele>
        <time>2024-08-04T13:19:54.938Z</time>
      </trkpt>
      <trkpt lat="54.33591" lon="18.92717">
        <ele>30.880244</ele>
        <time>2024-08-04T13:19:57.949Z</time>
      </trkpt>
      <trkpt lat="54.3359" lon="18.92738">
        <ele>30.833352</ele>
        <time>2024-08-04T13:20:00.936Z</time>
      </trkpt>
      <trkpt lat="54.33587" lon="18.92758">
        <ele>30.786707</ele>
        <time>2024-08-04T13:20:03.951Z</time>
      </trkpt>
      <trkpt lat="54.33585" lon="18.92778">
        <ele>30.740653</ele>
        <time>2024-08-04T13:20:06.960Z</time>
      </trkpt>
      <trkpt lat="54.33584" lon="18.92799">
        <ele>30.693152</ele>
        <time>2024-08-04T13:20:09.936Z</time>
      </trkpt>
      <trkpt lat="54.33582" lon="18.92819">
        <ele>30.645428</ele>
        <time>2024-08-04T13:20:12.917Z</time>
      </trkpt>
      <trkpt lat="54.3358" lon="18.92835">
        <ele>30.60962</ele>
        <time>2024-08-04T13:20:14.940Z</time>
      </trkpt>
      <trkpt lat="54.33577" lon="18.92858">
        <ele>30.556366</ele>
        <time>2024-08-04T13:20:17.938Z</time>
      </trkpt>
      <trkpt lat="54.33575" lon="18.92873">
        <ele>30.521134</ele>
        <time>2024-08-04T13:20:19.931Z</time>
      </trkpt>
      <trkpt lat="54.33573" lon="18.92889">
        <ele>30.484882</ele>
        <time>2024-08-04T13:20:21.944Z</time>
      </trkpt>
      <trkpt lat="54.33572" lon="18.92904">
        <ele>30.448835</ele>
        <time>2024-08-04T13:20:23.935Z</time>
      </trkpt>
      <trkpt lat="54.33571" lon="18.9292">
        <ele>30.41307</ele>
        <time>2024-08-04T13:20:25.937Z</time>
      </trkpt>
      <trkpt lat="54.33568" lon="18.92942">
        <ele>30.361672</ele>
        <time>2024-08-04T13:20:28.941Z</time>
      </trkpt>
      <trkpt lat="54.33566" lon="18.92962">
        <ele>30.316136</ele>
        <time>2024-08-04T13:20:31.965Z</time>
      </trkpt>
      <trkpt lat="54.33564" lon="18.92982">
        <ele>30.334844</ele>
        <time>2024-08-04T13:20:34.947Z</time>
      </trkpt>
      <trkpt lat="54.33562" lon="18.93003">
        <ele>30.393297</ele>
        <time>2024-08-04T13:20:37.937Z</time>
      </trkpt>
      <trkpt lat="54.33559" lon="18.93025">
        <ele>30.455996</ele>
        <time>2024-08-04T13:20:40.950Z</time>
      </trkpt>
      <trkpt lat="54.33558" lon="18.9304">
        <ele>30.498008</ele>
        <time>2024-08-04T13:20:42.943Z</time>
      </trkpt>
      <trkpt lat="54.33556" lon="18.93062">
        <ele>30.55828</ele>
        <time>2024-08-04T13:20:45.947Z</time>
      </trkpt>
      <trkpt lat="54.33555" lon="18.93084">
        <ele>30.617058</ele>
        <time>2024-08-04T13:20:48.952Z</time>
      </trkpt>
      <trkpt lat="54.33553" lon="18.93104">
        <ele>30.672208</ele>
        <time>2024-08-04T13:20:51.952Z</time>
      </trkpt>
      <trkpt lat="54.33551" lon="18.93124">
        <ele>30.728477</ele>
        <time>2024-08-04T13:20:54.948Z</time>
      </trkpt>
      <trkpt lat="54.33549" lon="18.93144">
        <ele>30.784395</ele>
        <time>2024-08-04T13:20:57.928Z</time>
      </trkpt>
      <trkpt lat="54.33547" lon="18.93165">
        <ele>30.840581</ele>
        <time>2024-08-04T13:21:00.944Z</time>
      </trkpt>
      <trkpt lat="54.33543" lon="18.93186">
        <ele>30.900145</ele>
        <time>2024-08-04T13:21:03.941Z</time>
      </trkpt>
      <trkpt lat="54.3354" lon="18.93207">
        <ele>30.960715</ele>
        <time>2024-08-04T13:21:06.948Z</time>
      </trkpt>
      <trkpt lat="54.33537" lon="18.93229">
        <ele>31.020288</ele>
        <time>2024-08-04T13:21:09.949Z</time>
      </trkpt>
      <trkpt lat="54.33534" lon="18.93249">
        <ele>31.078911</ele>
        <time>2024-08-04T13:21:12.948Z</time>
      </trkpt>
      <trkpt lat="54.3353" lon="18.93269">
        <ele>31.134988</ele>
        <time>2024-08-04T13:21:15.939Z</time>
      </trkpt>
      <trkpt lat="54.33526" lon="18.93289">
        <ele>31.280857</ele>
        <time>2024-08-04T13:21:18.941Z</time>
      </trkpt>
      <trkpt lat="54.33521" lon="18.93306">
        <ele>31.421402</ele>
        <time>2024-08-04T13:21:21.949Z</time>
      </trkpt>
      <trkpt lat="54.33517" lon="18.93322">
        <ele>31.55069</ele>
        <time>2024-08-04T13:21:24.935Z</time>
      </trkpt>
      <trkpt lat="54.33513" lon="18.93338">
        <ele>31.677123</ele>
        <time>2024-08-04T13:21:27.953Z</time>
      </trkpt>
      <trkpt lat="54.3351" lon="18.93354">
        <ele>31.799566</ele>
        <time>2024-08-04T13:21:30.940Z</time>
      </trkpt>
      <trkpt lat="54.33506" lon="18.9337">
        <ele>31.927667</ele>
        <time>2024-08-04T13:21:33.952Z</time>
      </trkpt>
      <trkpt lat="54.33502" lon="18.93386">
        <ele>32.053619</ele>
        <time>2024-08-04T13:21:36.962Z</time>
      </trkpt>
      <trkpt lat="54.33499" lon="18.93401">
        <ele>32.17138</ele>
        <time>2024-08-04T13:21:39.937Z</time>
      </trkpt>
      <trkpt lat="54.33495" lon="18.93416">
        <ele>32.292026</ele>
        <time>2024-08-04T13:21:42.941Z</time>
      </trkpt>
      <trkpt lat="54.33485" lon="18.93422">
        <ele>32.418633</ele>
        <time>2024-08-04T13:21:46.938Z</time>
      </trkpt>
      <trkpt lat="54.33477" lon="18.93432">
        <ele>32.545975</ele>
        <time>2024-08-04T13:22:12.939Z</time>
      </trkpt>
      <trkpt lat="54.33483" lon="18.93444">
        <ele>32.658804</ele>
        <time>2024-08-04T13:22:16.949Z</time>
      </trkpt>
      <trkpt lat="54.33478" lon="18.93461">
        <ele>32.801361</ele>
        <time>2024-08-04T13:22:20.945Z</time>
      </trkpt>
      <trkpt lat="54.3347" lon="18.93476">
        <ele>32.945427</ele>
        <time>2024-08-04T13:22:23.951Z</time>
      </trkpt>
      <trkpt lat="54.3346" lon="18.9349">
        <ele>33.116502</ele>
        <time>2024-08-04T13:22:26.937Z</time>
      </trkpt>
      <trkpt lat="54.3345" lon="18.93498">
        <ele>33.252013</ele>
        <time>2024-08-04T13:22:28.941Z</time>
      </trkpt>
      <trkpt lat="54.33439" lon="18.93504">
        <ele>33.39067</ele>
        <time>2024-08-04T13:22:30.953Z</time>
      </trkpt>
      <trkpt lat="54.33428" lon="18.9351">
        <ele>33.158346</ele>
        <time>2024-08-04T13:22:32.936Z</time>
      </trkpt>
      <trkpt lat="54.33417" lon="18.93517">
        <ele>32.892539</ele>
        <time>2024-08-04T13:22:34.942Z</time>
      </trkpt>
      <trkpt lat="54.33406" lon="18.93523">
        <ele>32.645231</ele>
        <time>2024-08-04T13:22:36.941Z</time>
      </trkpt>
      <trkpt lat="54.33397" lon="18.93532">
        <ele>32.406443</ele>
        <time>2024-08-04T13:22:38.952Z</time>
      </trkpt>
      <trkpt lat="54.3339" lon="18.93545">
        <ele>32.182011</ele>
        <time>2024-08-04T13:22:40.932Z</time>
      </trkpt>
      <trkpt lat="54.33384" lon="18.93561">
        <ele>31.930154</ele>
        <time>2024-08-04T13:22:42.929Z</time>
      </trkpt>
      <trkpt lat="54.3338" lon="18.93579">
        <ele>31.676006</ele>
        <time>2024-08-04T13:22:44.956Z</time>
      </trkpt>
      <trkpt lat="54.33377" lon="18.93596">
        <ele>31.441238</ele>
        <time>2024-08-04T13:22:46.940Z</time>
      </trkpt>
      <trkpt lat="54.33373" lon="18.93613">
        <ele>31.212968</ele>
        <time>2024-08-04T13:22:48.953Z</time>
      </trkpt>
      <trkpt lat="54.33365" lon="18.93623">
        <ele>30.99881</ele>
        <time>2024-08-04T13:22:50.939Z</time>
      </trkpt>
      <trkpt lat="54.33356" lon="18.93625">
        <ele>30.781355</ele>
        <time>2024-08-04T13:22:52.931Z</time>
      </trkpt>
      <trkpt lat="54.33343" lon="18.9363">
        <ele>30.497272</ele>
        <time>2024-08-04T13:22:55.934Z</time>
      </trkpt>
      <trkpt lat="54.33334" lon="18.93635">
        <ele>30.285883</ele>
        <time>2024-08-04T13:22:58.940Z</time>
      </trkpt>
      <trkpt lat="54.33331" lon="18.9365">
        <ele>30.074407</ele>
        <time>2024-08-04T13:23:01.931Z</time>
      </trkpt>
      <trkpt lat="54.33328" lon="18.93666">
        <ele>29.860121</ele>
        <time>2024-08-04T13:23:05.943Z</time>
      </trkpt>
      <trkpt lat="54.33327" lon="18.93684">
        <ele>29.629948</ele>
        <time>2024-08-04T13:23:10.931Z</time>
      </trkpt>
      <trkpt lat="54.33327" lon="18.93699">
        <ele>29.430544</ele>
        <time>2024-08-04T13:23:26.915Z</time>
      </trkpt>
      <trkpt lat="54.33274" lon="18.94264">
        <ele>30.735746</ele>
        <time>2024-08-04T13:39:08.930Z</time>
      </trkpt>
      <trkpt lat="54.33272" lon="18.94278">
        <ele>30.800756</ele>
        <time>2024-08-04T13:39:15.925Z</time>
      </trkpt>
      <trkpt lat="54.33268" lon="18.94294">
        <ele>30.875314</ele>
        <time>2024-08-04T13:39:22.963Z</time>
      </trkpt>
      <trkpt lat="54.33262" lon="18.94309">
        <ele>30.970742</ele>
        <time>2024-08-04T13:39:28.939Z</time>
      </trkpt>
      <trkpt lat="54.33261" lon="18.94327">
        <ele>31.198157</ele>
        <time>2024-08-04T13:39:38.923Z</time>
      </trkpt>
      <trkpt lat="54.33264" lon="18.94342">
        <ele>31.410475</ele>
        <time>2024-08-04T13:39:47.929Z</time>
      </trkpt>
      <trkpt lat="54.33267" lon="18.94357">
        <ele>31.625533</ele>
        <time>2024-08-04T13:39:57.929Z</time>
      </trkpt>
      <trkpt lat="54.33276" lon="18.94363">
        <ele>31.831179</ele>
        <time>2024-08-04T13:40:06.934Z</time>
      </trkpt>
      <trkpt lat="54.33284" lon="18.94371">
        <ele>32.041457</ele>
        <time>2024-08-04T13:40:16.939Z</time>
      </trkpt>
      <trkpt lat="54.33285" lon="18.94387">
        <ele>32.244622</ele>
        <time>2024-08-04T13:40:24.936Z</time>
      </trkpt>
      <trkpt lat="54.3329" lon="18.94401">
        <ele>32.462782</ele>
        <time>2024-08-04T13:40:33.922Z</time>
      </trkpt>
      <trkpt lat="54.33298" lon="18.9441">
        <ele>32.669882</ele>
        <time>2024-08-04T13:40:42.934Z</time>
      </trkpt>
      <trkpt lat="54.33306" lon="18.94417">
        <ele>32.88281</ele>
        <time>2024-08-04T13:41:01.937Z</time>
      </trkpt>
      <trkpt lat="54.33314" lon="18.94426">
        <ele>33.091049</ele>
        <time>2024-08-04T13:41:12.932Z</time>
      </trkpt>
      <trkpt lat="54.33321" lon="18.94438">
        <ele>33.310254</ele>
        <time>2024-08-04T13:41:24.937Z</time>
      </trkpt>
      <trkpt lat="54.33328" lon="18.94449">
        <ele>33.531666</ele>
        <time>2024-08-04T13:41:34.939Z</time>
      </trkpt>
      <trkpt lat="54.33335" lon="18.94461">
        <ele>33.753915</ele>
        <time>2024-08-04T13:41:40.937Z</time>
      </trkpt>
      <trkpt lat="54.33343" lon="18.94472">
        <ele>33.96758</ele>
        <time>2024-08-04T13:41:46.942Z</time>
      </trkpt>
      <trkpt lat="54.33349" lon="18.94485">
        <ele>34.190637</ele>
        <time>2024-08-04T13:41:50.956Z</time>
      </trkpt>
      <trkpt lat="54.33356" lon="18.94497">
        <ele>34.414453</ele>
        <time>2024-08-04T13:41:54.952Z</time>
      </trkpt>
      <trkpt lat="54.33363" lon="18.9451">
        <ele>34.642311</ele>
        <time>2024-08-04T13:41:58.945Z</time>
      </trkpt>
      <trkpt lat="54.33369" lon="18.94523">
        <ele>34.854455</ele>
        <time>2024-08-04T13:42:02.953Z</time>
      </trkpt>
      <trkpt lat="54.33375" lon="18.94537">
        <ele>34.932569</ele>
        <time>2024-08-04T13:42:06.947Z</time>
      </trkpt>
      <trkpt lat="54.33379" lon="18.94553">
        <ele>34.837672</ele>
        <time>2024-08-04T13:42:10.952Z</time>
      </trkpt>
      <trkpt lat="54.33383" lon="18.94568">
        <ele>34.747886</ele>
        <time>2024-08-04T13:42:14.940Z</time>
      </trkpt>
      <trkpt lat="54.33387" lon="18.94582">
        <ele>34.665068</ele>
        <time>2024-08-04T13:42:18.949Z</time>
      </trkpt>
      <trkpt lat="54.33391" lon="18.94598">
        <ele>34.574947</ele>
        <time>2024-08-04T13:42:22.945Z</time>
      </trkpt>
      <trkpt lat="54.33394" lon="18.94617">
        <ele>34.472043</ele>
        <time>2024-08-04T13:42:26.955Z</time>
      </trkpt>
      <trkpt lat="54.33396" lon="18.94637">
        <ele>34.362757</ele>
        <time>2024-08-04T13:42:30.953Z</time>
      </trkpt>
      <trkpt lat="54.33397" lon="18.94655">
        <ele>34.265554</ele>
        <time>2024-08-04T13:42:33.939Z</time>
      </trkpt>
      <trkpt lat="54.33397" lon="18.94677">
        <ele>34.149079</ele>
        <time>2024-08-04T13:42:36.965Z</time>
      </trkpt>
      <trkpt lat="54.33395" lon="18.94697">
        <ele>34.043399</ele>
        <time>2024-08-04T13:42:39.941Z</time>
      </trkpt>
      <trkpt lat="54.33392" lon="18.94716">
        <ele>33.938701</ele>
        <time>2024-08-04T13:42:43.934Z</time>
      </trkpt>
      <trkpt lat="54.33392" lon="18.94736">
        <ele>33.832746</ele>
        <time>2024-08-04T13:42:47.952Z</time>
      </trkpt>
      <trkpt lat="54.33391" lon="18.94753">
        <ele>33.741997</ele>
        <time>2024-08-04T13:42:52.951Z</time>
      </trkpt>
      <trkpt lat="54.334" lon="18.94754">
        <ele>33.657373</ele>
        <time>2024-08-04T13:43:06.926Z</time>
      </trkpt>
      <trkpt lat="54.33411" lon="18.94755">
        <ele>33.553692</ele>
        <time>2024-08-04T13:43:10.926Z</time>
      </trkpt>
      <trkpt lat="54.3342" lon="18.94758">
        <ele>33.469857</ele>
        <time>2024-08-04T13:43:13.929Z</time>
      </trkpt>
      <trkpt lat="54.3343" lon="18.94759">
        <ele>33.380768</ele>
        <time>2024-08-04T13:43:16.940Z</time>
      </trkpt>
      <trkpt lat="54.3344" lon="18.94761">
        <ele>33.28727</ele>
        <time>2024-08-04T13:43:19.937Z</time>
      </trkpt>
      <trkpt lat="54.33451" lon="18.94763">
        <ele>33.190742</ele>
        <time>2024-08-04T13:43:22.943Z</time>
      </trkpt>
      <trkpt lat="54.33463" lon="18.94764">
        <ele>33.085625</ele>
        <time>2024-08-04T13:43:25.939Z</time>
      </trkpt>
      <trkpt lat="54.33472" lon="18.94768">
        <ele>33.002316</ele>
        <time>2024-08-04T13:43:28.952Z</time>
      </trkpt>
      <trkpt lat="54.33475" lon="18.94783">
        <ele>32.917197</ele>
        <time>2024-08-04T13:43:32.935Z</time>
      </trkpt>
      <trkpt lat="54.33475" lon="18.94802">
        <ele>32.818893</ele>
        <time>2024-08-04T13:43:36.943Z</time>
      </trkpt>
      <trkpt lat="54.33474" lon="18.94817">
        <ele>32.737246</ele>
        <time>2024-08-04T13:43:39.947Z</time>
      </trkpt>
      <trkpt lat="54.33474" lon="18.94835">
        <ele>32.647308</ele>
        <time>2024-08-04T13:43:42.928Z</time>
      </trkpt>
      <trkpt lat="54.33473" lon="18.94852">
        <ele>32.553884</ele>
        <time>2024-08-04T13:43:45.940Z</time>
      </trkpt>
      <trkpt lat="54.33472" lon="18.9487">
        <ele>32.4606</ele>
        <time>2024-08-04T13:43:48.939Z</time>
      </trkpt>
      <trkpt lat="54.33471" lon="18.94887">
        <ele>32.371181</ele>
        <time>2024-08-04T13:43:51.913Z</time>
      </trkpt>
      <trkpt lat="54.3347" lon="18.94905">
        <ele>32.279664</ele>
        <time>2024-08-04T13:43:54.940Z</time>
      </trkpt>
      <trkpt lat="54.3347" lon="18.94922">
        <ele>32.190753</ele>
        <time>2024-08-04T13:43:57.966Z</time>
      </trkpt>
      <trkpt lat="54.3347" lon="18.94939">
        <ele>32.09872</ele>
        <time>2024-08-04T13:44:00.951Z</time>
      </trkpt>
      <trkpt lat="54.33469" lon="18.94958">
        <ele>32.000962</ele>
        <time>2024-08-04T13:44:03.937Z</time>
      </trkpt>
      <trkpt lat="54.33467" lon="18.94976">
        <ele>31.903168</ele>
        <time>2024-08-04T13:44:06.937Z</time>
      </trkpt>
      <trkpt lat="54.33467" lon="18.94995">
        <ele>31.803559</ele>
        <time>2024-08-04T13:44:09.944Z</time>
      </trkpt>
      <trkpt lat="54.33466" lon="18.95016">
        <ele>31.739814</ele>
        <time>2024-08-04T13:44:12.950Z</time>
      </trkpt>
      <trkpt lat="54.33466" lon="18.95033">
        <ele>31.772199</ele>
        <time>2024-08-04T13:44:15.938Z</time>
      </trkpt>
      <trkpt lat="54.33464" lon="18.95053">
        <ele>31.810417</ele>
        <time>2024-08-04T13:44:19.934Z</time>
      </trkpt>
      <trkpt lat="54.33464" lon="18.95069">
        <ele>31.841102</ele>
        <time>2024-08-04T13:44:22.955Z</time>
      </trkpt>
      <trkpt lat="54.33465" lon="18.95089">
        <ele>31.878793</ele>
        <time>2024-08-04T13:44:26.955Z</time>
      </trkpt>
      <trkpt lat="54.33462" lon="18.95108">
        <ele>31.915081</ele>
        <time>2024-08-04T13:44:30.950Z</time>
      </trkpt>
      <trkpt lat="54.33461" lon="18.95123">
        <ele>31.944891</ele>
        <time>2024-08-04T13:44:33.947Z</time>
      </trkpt>
      <trkpt lat="54.33461" lon="18.95139">
        <ele>31.974414</ele>
        <time>2024-08-04T13:44:36.951Z</time>
      </trkpt>
      <trkpt lat="54.3346" lon="18.95159">
        <ele>32.012656</ele>
        <time>2024-08-04T13:44:40.946Z</time>
      </trkpt>
      <trkpt lat="54.3346" lon="18.95176">
        <ele>32.044649</ele>
        <time>2024-08-04T13:44:43.945Z</time>
      </trkpt>
      <trkpt lat="54.3346" lon="18.95192">
        <ele>32.074536</ele>
        <time>2024-08-04T13:44:46.956Z</time>
      </trkpt>
      <trkpt lat="54.3346" lon="18.95212">
        <ele>32.113501</ele>
        <time>2024-08-04T13:44:50.943Z</time>
      </trkpt>
      <trkpt lat="54.33459" lon="18.95229">
        <ele>32.145035</ele>
        <time>2024-08-04T13:44:53.938Z</time>
      </trkpt>
      <trkpt lat="54.33459" lon="18.95245">
        <ele>32.175515</ele>
        <time>2024-08-04T13:44:56.950Z</time>
      </trkpt>
      <trkpt lat="54.33458" lon="18.95261">
        <ele>32.205298</ele>
        <time>2024-08-04T13:44:59.934Z</time>
      </trkpt>
      <trkpt lat="54.33458" lon="18.95279">
        <ele>32.23917</ele>
        <time>2024-08-04T13:45:03.946Z</time>
      </trkpt>
      <trkpt lat="54.33465" lon="18.95288">
        <ele>32.269157</ele>
        <time>2024-08-04T13:45:14.943Z</time>
      </trkpt>
      <trkpt lat="54.33475" lon="18.9529">
        <ele>32.302062</ele>
        <time>2024-08-04T13:45:19.938Z</time>
      </trkpt>
      <trkpt lat="54.33484" lon="18.953">
        <ele>32.335076</ele>
        <time>2024-08-04T13:45:24.940Z</time>
      </trkpt>
      <trkpt lat="54.33486" lon="18.95319">
        <ele>32.370775</ele>
        <time>2024-08-04T13:45:28.944Z</time>
      </trkpt>
      <trkpt lat="54.33486" lon="18.95335">
        <ele>32.40042</ele>
        <time>2024-08-04T13:45:31.946Z</time>
      </trkpt>
      <trkpt lat="54.33487" lon="18.95351">
        <ele>32.430205</ele>
        <time>2024-08-04T13:45:34.946Z</time>
      </trkpt>
      <trkpt lat="54.33487" lon="18.95367">
        <ele>32.458865</ele>
        <time>2024-08-04T13:45:37.942Z</time>
      </trkpt>
      <trkpt lat="54.33486" lon="18.95383">
        <ele>32.489019</ele>
        <time>2024-08-04T13:45:40.941Z</time>
      </trkpt>
      <trkpt lat="54.33486" lon="18.95399">
        <ele>32.519528</ele>
        <time>2024-08-04T13:45:43.931Z</time>
      </trkpt>
      <trkpt lat="54.33486" lon="18.95417">
        <ele>32.551516</ele>
        <time>2024-08-04T13:45:46.945Z</time>
      </trkpt>
      <trkpt lat="54.33486" lon="18.95433">
        <ele>32.58221</ele>
        <time>2024-08-04T13:45:49.935Z</time>
      </trkpt>
      <trkpt lat="54.33486" lon="18.95451">
        <ele>32.614753</ele>
        <time>2024-08-04T13:45:52.947Z</time>
      </trkpt>
      <trkpt lat="54.33486" lon="18.95469">
        <ele>32.648459</ele>
        <time>2024-08-04T13:45:55.946Z</time>
      </trkpt>
      <trkpt lat="54.33485" lon="18.95487">
        <ele>32.681838</ele>
        <time>2024-08-04T13:45:58.938Z</time>
      </trkpt>
      <trkpt lat="54.33484" lon="18.95504">
        <ele>32.712913</ele>
        <time>2024-08-04T13:46:01.936Z</time>
      </trkpt>
      <trkpt lat="54.33483" lon="18.95521">
        <ele>32.745654</ele>
        <time>2024-08-04T13:46:04.942Z</time>
      </trkpt>
      <trkpt lat="54.33483" lon="18.9554">
        <ele>32.780099</ele>
        <time>2024-08-04T13:46:07.935Z</time>
      </trkpt>
      <trkpt lat="54.33483" lon="18.95557">
        <ele>32.811903</ele>
        <time>2024-08-04T13:46:10.943Z</time>
      </trkpt>
      <trkpt lat="54.33483" lon="18.95574">
        <ele>32.843167</ele>
        <time>2024-08-04T13:46:13.945Z</time>
      </trkpt>
      <trkpt lat="54.33482" lon="18.9559">
        <ele>32.872553</ele>
        <time>2024-08-04T13:46:16.937Z</time>
      </trkpt>
      <trkpt lat="54.33482" lon="18.9561">
        <ele>32.811109</ele>
        <time>2024-08-04T13:46:20.944Z</time>
      </trkpt>
      <trkpt lat="54.33481" lon="18.95627">
        <ele>32.729149</ele>
        <time>2024-08-04T13:46:23.926Z</time>
      </trkpt>
      <trkpt lat="54.33482" lon="18.95646">
        <ele>32.636729</ele>
        <time>2024-08-04T13:46:27.925Z</time>
      </trkpt>
      <trkpt lat="54.33482" lon="18.95665">
        <ele>32.544886</ele>
        <time>2024-08-04T13:46:31.955Z</time>
      </trkpt>
      <trkpt lat="54.3348" lon="18.95684">
        <ele>32.451452</ele>
        <time>2024-08-04T13:46:35.937Z</time>
      </trkpt>
      <trkpt lat="54.33478" lon="18.95704">
        <ele>32.355115</ele>
        <time>2024-08-04T13:46:39.923Z</time>
      </trkpt>
      <trkpt lat="54.33477" lon="18.9572">
        <ele>32.274599</ele>
        <time>2024-08-04T13:46:42.946Z</time>
      </trkpt>
      <trkpt lat="54.33477" lon="18.95737">
        <ele>32.195215</ele>
        <time>2024-08-04T13:46:45.952Z</time>
      </trkpt>
      <trkpt lat="54.33475" lon="18.95753">
        <ele>32.113399</ele>
        <time>2024-08-04T13:46:48.937Z</time>
      </trkpt>
      <trkpt lat="54.33475" lon="18.95771">
        <ele>32.026731</ele>
        <time>2024-08-04T13:46:51.950Z</time>
      </trkpt>
      <trkpt lat="54.33476" lon="18.95788">
        <ele>31.947243</ele>
        <time>2024-08-04T13:46:54.936Z</time>
      </trkpt>
      <trkpt lat="54.33477" lon="18.95806">
        <ele>31.857649</ele>
        <time>2024-08-04T13:46:58.953Z</time>
      </trkpt>
      <trkpt lat="54.33478" lon="18.95826">
        <ele>31.759239</ele>
        <time>2024-08-04T13:47:02.932Z</time>
      </trkpt>
      <trkpt lat="54.33479" lon="18.95845">
        <ele>31.671354</ele>
        <time>2024-08-04T13:47:05.936Z</time>
      </trkpt>
      <trkpt lat="54.3348" lon="18.95863">
        <ele>31.582503</ele>
        <time>2024-08-04T13:47:08.938Z</time>
      </trkpt>
      <trkpt lat="54.33482" lon="18.95882">
        <ele>31.488011</ele>
        <time>2024-08-04T13:47:11.961Z</time>
      </trkpt>
      <trkpt lat="54.33484" lon="18.95901">
        <ele>31.396256</ele>
        <time>2024-08-04T13:47:14.936Z</time>
      </trkpt>
      <trkpt lat="54.33485" lon="18.95923">
        <ele>31.300259</ele>
        <time>2024-08-04T13:47:17.942Z</time>
      </trkpt>
      <trkpt lat="54.33486" lon="18.95943">
        <ele>31.213581</ele>
        <time>2024-08-04T13:47:20.956Z</time>
      </trkpt>
      <trkpt lat="54.33487" lon="18.95964">
        <ele>31.121216</ele>
        <time>2024-08-04T13:47:23.939Z</time>
      </trkpt>
      <trkpt lat="54.33489" lon="18.95983">
        <ele>31.036399</ele>
        <time>2024-08-04T13:47:26.939Z</time>
      </trkpt>
      <trkpt lat="54.3349" lon="18.96004">
        <ele>30.944271</ele>
        <time>2024-08-04T13:47:29.950Z</time>
      </trkpt>
      <trkpt lat="54.33492" lon="18.96027">
        <ele>30.845345</ele>
        <time>2024-08-04T13:47:32.944Z</time>
      </trkpt>
      <trkpt lat="54.33493" lon="18.96048">
        <ele>30.750812</ele>
        <time>2024-08-04T13:47:35.935Z</time>
      </trkpt>
      <trkpt lat="54.33494" lon="18.96064">
        <ele>30.683196</ele>
        <time>2024-08-04T13:47:37.937Z</time>
      </trkpt>
      <trkpt lat="54.33496" lon="18.96086">
        <ele>30.585652</ele>
        <time>2024-08-04T13:47:40.939Z</time>
      </trkpt>
      <trkpt lat="54.33497" lon="18.96107">
        <ele>30.492762</ele>
        <time>2024-08-04T13:47:43.946Z</time>
      </trkpt>
      <trkpt lat="54.33498" lon="18.96128">
        <ele>30.403667</ele>
        <time>2024-08-04T13:47:46.953Z</time>
      </trkpt>
      <trkpt lat="54.33499" lon="18.96148">
        <ele>30.314276</ele>
        <time>2024-08-04T13:47:49.956Z</time>
      </trkpt>
      <trkpt lat="54.33501" lon="18.96167">
        <ele>30.230671</ele>
        <time>2024-08-04T13:47:52.940Z</time>
      </trkpt>
      <trkpt lat="54.33502" lon="18.96189">
        <ele>30.136623</ele>
        <time>2024-08-04T13:47:55.948Z</time>
      </trkpt>
      <trkpt lat="54.33504" lon="18.9621">
        <ele>30.056777</ele>
        <time>2024-08-04T13:47:58.938Z</time>
      </trkpt>
      <trkpt lat="54.33505" lon="18.96226">
        <ele>30.100975</ele>
        <time>2024-08-04T13:48:00.942Z</time>
      </trkpt>
      <trkpt lat="54.33507" lon="18.96247">
        <ele>30.162083</ele>
        <time>2024-08-04T13:48:03.939Z</time>
      </trkpt>
      <trkpt lat="54.33508" lon="18.96269">
        <ele>30.224334</ele>
        <time>2024-08-04T13:48:06.949Z</time>
      </trkpt>
      <trkpt lat="54.33509" lon="18.96291">
        <ele>30.287893</ele>
        <time>2024-08-04T13:48:09.947Z</time>
      </trkpt>
      <trkpt lat="54.33511" lon="18.96312">
        <ele>30.349128</ele>
        <time>2024-08-04T13:48:12.952Z</time>
      </trkpt>
      <trkpt lat="54.33513" lon="18.96333">
        <ele>30.412201</ele>
        <time>2024-08-04T13:48:15.952Z</time>
      </trkpt>
      <trkpt lat="54.33515" lon="18.96353">
        <ele>30.468594</ele>
        <time>2024-08-04T13:48:18.945Z</time>
      </trkpt>
      <trkpt lat="54.33515" lon="18.96372">
        <ele>30.52416</ele>
        <time>2024-08-04T13:48:21.968Z</time>
      </trkpt>
      <trkpt lat="54.33516" lon="18.96392">
        <ele>30.581029</ele>
        <time>2024-08-04T13:48:24.937Z</time>
      </trkpt>
      <trkpt lat="54.33517" lon="18.96412">
        <ele>30.637422</ele>
        <time>2024-08-04T13:48:27.961Z</time>
      </trkpt>
      <trkpt lat="54.33518" lon="18.96431">
        <ele>30.692417</ele>
        <time>2024-08-04T13:48:30.936Z</time>
      </trkpt>
      <trkpt lat="54.33518" lon="18.96451">
        <ele>30.748224</ele>
        <time>2024-08-04T13:48:33.955Z</time>
      </trkpt>
      <trkpt lat="54.33518" lon="18.96471">
        <ele>30.806044</ele>
        <time>2024-08-04T13:48:36.947Z</time>
      </trkpt>
      <trkpt lat="54.33519" lon="18.96491">
        <ele>30.864165</ele>
        <time>2024-08-04T13:48:39.931Z</time>
      </trkpt>
      <trkpt lat="54.33518" lon="18.96512">
        <ele>30.92313</ele>
        <time>2024-08-04T13:48:42.928Z</time>
      </trkpt>
      <trkpt lat="54.33519" lon="18.96532">
        <ele>30.939338</ele>
        <time>2024-08-04T13:48:45.958Z</time>
      </trkpt>
      <trkpt lat="54.33518" lon="18.9655">
        <ele>30.945676</ele>
        <time>2024-08-04T13:48:48.940Z</time>
      </trkpt>
      <trkpt lat="54.33517" lon="18.96568">
        <ele>30.952194</ele>
        <time>2024-08-04T13:48:52.951Z</time>
      </trkpt>
      <trkpt lat="54.33515" lon="18.96585">
        <ele>30.958337</ele>
        <time>2024-08-04T13:48:56.950Z</time>
      </trkpt>
      <trkpt lat="54.33513" lon="18.96605">
        <ele>30.96536</ele>
        <time>2024-08-04T13:49:01.958Z</time>
      </trkpt>
      <trkpt lat="54.33512" lon="18.96624">
        <ele>30.972082</ele>
        <time>2024-08-04T13:49:05.951Z</time>
      </trkpt>
      <trkpt lat="54.33511" lon="18.9664">
        <ele>30.977729</ele>
        <time>2024-08-04T13:49:08.945Z</time>
      </trkpt>
      <trkpt lat="54.3351" lon="18.96658">
        <ele>30.984217</ele>
        <time>2024-08-04T13:49:12.941Z</time>
      </trkpt>
      <trkpt lat="54.3351" lon="18.96676">
        <ele>30.990418</ele>
        <time>2024-08-04T13:49:16.939Z</time>
      </trkpt>
      <trkpt lat="54.33509" lon="18.96696">
        <ele>30.997686</ele>
        <time>2024-08-04T13:49:20.957Z</time>
      </trkpt>
      <trkpt lat="54.33509" lon="18.96712">
        <ele>31.003271</ele>
        <time>2024-08-04T13:49:23.924Z</time>
      </trkpt>
      <trkpt lat="54.33509" lon="18.96729">
        <ele>31.009247</ele>
        <time>2024-08-04T13:49:26.935Z</time>
      </trkpt>
      <trkpt lat="54.33508" lon="18.96746">
        <ele>31.015329</ele>
        <time>2024-08-04T13:49:30.940Z</time>
      </trkpt>
      <trkpt lat="54.33506" lon="18.96762">
        <ele>31.020927</ele>
        <time>2024-08-04T13:49:33.937Z</time>
      </trkpt>
      <trkpt lat="54.33505" lon="18.96777">
        <ele>31.026469</ele>
        <time>2024-08-04T13:49:37.936Z</time>
      </trkpt>
      <trkpt lat="54.33506" lon="18.96793">
        <ele>31.032169</ele>
        <time>2024-08-04T13:49:49.936Z</time>
      </trkpt>
      <trkpt lat="54.33504" lon="18.96809">
        <ele>31.037898</ele>
        <time>2024-08-04T13:49:55.937Z</time>
      </trkpt>
      <trkpt lat="54.33503" lon="18.96828">
        <ele>31.034202</ele>
        <time>2024-08-04T13:50:00.938Z</time>
      </trkpt>
      <trkpt lat="54.33503" lon="18.96845">
        <ele>31.01069</ele>
        <time>2024-08-04T13:50:04.957Z</time>
      </trkpt>
      <trkpt lat="54.33503" lon="18.9686">
        <ele>30.988853</ele>
        <time>2024-08-04T13:50:08.915Z</time>
      </trkpt>
      <trkpt lat="54.33503" lon="18.96878">
        <ele>30.964319</ele>
        <time>2024-08-04T13:50:12.932Z</time>
      </trkpt>
      <trkpt lat="54.33502" lon="18.96896">
        <ele>30.938935</ele>
        <time>2024-08-04T13:50:16.954Z</time>
      </trkpt>
      <trkpt lat="54.33501" lon="18.96912">
        <ele>30.915603</ele>
        <time>2024-08-04T13:50:20.950Z</time>
      </trkpt>
      <trkpt lat="54.33498" lon="18.9693">
        <ele>30.889998</ele>
        <time>2024-08-04T13:50:25.937Z</time>
      </trkpt>
      <trkpt lat="54.33497" lon="18.96948">
        <ele>30.865325</ele>
        <time>2024-08-04T13:50:29.931Z</time>
      </trkpt>
      <trkpt lat="54.33496" lon="18.96967">
        <ele>30.838626</ele>
        <time>2024-08-04T13:50:33.937Z</time>
      </trkpt>
      <trkpt lat="54.33495" lon="18.96985">
        <ele>30.813203</ele>
        <time>2024-08-04T13:50:37.931Z</time>
      </trkpt>
      <trkpt lat="54.33495" lon="18.97003">
        <ele>30.78764</ele>
        <time>2024-08-04T13:50:41.946Z</time>
      </trkpt>
      <trkpt lat="54.33494" lon="18.97021">
        <ele>30.762305</ele>
        <time>2024-08-04T13:50:45.940Z</time>
      </trkpt>
      <trkpt lat="54.33496" lon="18.97036">
        <ele>30.740592</ele>
        <time>2024-08-04T13:50:48.955Z</time>
      </trkpt>
      <trkpt lat="54.33496" lon="18.97053">
        <ele>30.717315</ele>
        <time>2024-08-04T13:50:51.922Z</time>
      </trkpt>
      <trkpt lat="54.33496" lon="18.9707">
        <ele>30.693233</ele>
        <time>2024-08-04T13:50:54.947Z</time>
      </trkpt>
      <trkpt lat="54.33495" lon="18.97086">
        <ele>30.67024</ele>
        <time>2024-08-04T13:50:57.938Z</time>
      </trkpt>
      <trkpt lat="54.33493" lon="18.97103">
        <ele>30.646869</ele>
        <time>2024-08-04T13:51:00.943Z</time>
      </trkpt>
      <trkpt lat="54.33493" lon="18.97119">
        <ele>30.62471</ele>
        <time>2024-08-04T13:51:03.939Z</time>
      </trkpt>
      <trkpt lat="54.33492" lon="18.97136">
        <ele>30.681968</ele>
        <time>2024-08-04T13:51:07.929Z</time>
      </trkpt>
      <trkpt lat="54.33492" lon="18.97152">
        <ele>30.828454</ele>
        <time>2024-08-04T13:51:12.937Z</time>
      </trkpt>
      <trkpt lat="54.33503" lon="18.97157">
        <ele>31.026526</ele>
        <time>2024-08-04T13:52:14.935Z</time>
      </trkpt>
      <trkpt lat="54.33514" lon="18.9716">
        <ele>31.200462</ele>
        <time>2024-08-04T13:52:18.952Z</time>
      </trkpt>
      <trkpt lat="54.33524" lon="18.97162">
        <ele>31.35404</ele>
        <time>2024-08-04T13:52:21.949Z</time>
      </trkpt>
      <trkpt lat="54.33533" lon="18.97162">
        <ele>31.505668</ele>
        <time>2024-08-04T13:52:24.955Z</time>
      </trkpt>
      <trkpt lat="54.33543" lon="18.97163">
        <ele>31.665684</ele>
        <time>2024-08-04T13:52:27.934Z</time>
      </trkpt>
      <trkpt lat="54.33554" lon="18.97164">
        <ele>31.843309</ele>
        <time>2024-08-04T13:52:30.953Z</time>
      </trkpt>
      <trkpt lat="54.33565" lon="18.97165">
        <ele>32.031014</ele>
        <time>2024-08-04T13:52:33.946Z</time>
      </trkpt>
      <trkpt lat="54.33577" lon="18.97167">
        <ele>32.215504</ele>
        <time>2024-08-04T13:52:36.942Z</time>
      </trkpt>
      <trkpt lat="54.33588" lon="18.97168">
        <ele>32.393129</ele>
        <time>2024-08-04T13:52:39.950Z</time>
      </trkpt>
      <trkpt lat="54.336" lon="18.97169">
        <ele>32.581958</ele>
        <time>2024-08-04T13:52:42.948Z</time>
      </trkpt>
      <trkpt lat="54.33612" lon="18.97169">
        <ele>32.785327</ele>
        <time>2024-08-04T13:52:45.935Z</time>
      </trkpt>
      <trkpt lat="54.33625" lon="18.97172">
        <ele>32.992818</ele>
        <time>2024-08-04T13:52:48.949Z</time>
      </trkpt>
      <trkpt lat="54.33637" lon="18.97173">
        <ele>33.18213</ele>
        <time>2024-08-04T13:52:51.951Z</time>
      </trkpt>
      <trkpt lat="54.33648" lon="18.97175">
        <ele>33.373384</ele>
        <time>2024-08-04T13:52:54.942Z</time>
      </trkpt>
      <trkpt lat="54.3366" lon="18.97175">
        <ele>33.549496</ele>
        <time>2024-08-04T13:52:57.940Z</time>
      </trkpt>
      <trkpt lat="54.33669" lon="18.97187">
        <ele>33.678354</ele>
        <time>2024-08-04T13:53:01.953Z</time>
      </trkpt>
      <trkpt lat="54.3367" lon="18.97204">
        <ele>33.791852</ele>
        <time>2024-08-04T13:53:05.950Z</time>
      </trkpt>
      <trkpt lat="54.33668" lon="18.97223">
        <ele>33.917265</ele>
        <time>2024-08-04T13:53:09.948Z</time>
      </trkpt>
      <trkpt lat="54.33665" lon="18.97241">
        <ele>34.043439</ele>
        <time>2024-08-04T13:53:13.959Z</time>
      </trkpt>
      <trkpt lat="54.33662" lon="18.97257">
        <ele>34.155117</ele>
        <time>2024-08-04T13:53:16.969Z</time>
      </trkpt>
      <trkpt lat="54.33658" lon="18.97275">
        <ele>34.282709</ele>
        <time>2024-08-04T13:53:19.954Z</time>
      </trkpt>
      <trkpt lat="54.33654" lon="18.97296">
        <ele>34.429199</ele>
        <time>2024-08-04T13:53:22.953Z</time>
      </trkpt>
      <trkpt lat="54.33652" lon="18.97316">
        <ele>34.564713</ele>
        <time>2024-08-04T13:53:25.945Z</time>
      </trkpt>
      <trkpt lat="54.33649" lon="18.97334">
        <ele>34.686185</ele>
        <time>2024-08-04T13:53:28.948Z</time>
      </trkpt>
      <trkpt lat="54.33644" lon="18.97352">
        <ele>34.813259</ele>
        <time>2024-08-04T13:53:32.961Z</time>
      </trkpt>
      <trkpt lat="54.33646" lon="18.97378">
        <ele>34.988188</ele>
        <time>2024-08-04T13:54:07.946Z</time>
      </trkpt>
      <trkpt lat="54.33645" lon="18.97397">
        <ele>35.118336</ele>
        <time>2024-08-04T13:54:11.975Z</time>
      </trkpt>
      <trkpt lat="54.33644" lon="18.97418">
        <ele>35.25482</ele>
        <time>2024-08-04T13:54:15.950Z</time>
      </trkpt>
      <trkpt lat="54.33644" lon="18.97437">
        <ele>35.377368</ele>
        <time>2024-08-04T13:54:18.947Z</time>
      </trkpt>
      <trkpt lat="54.33643" lon="18.97456">
        <ele>35.505079</ele>
        <time>2024-08-04T13:54:21.952Z</time>
      </trkpt>
      <trkpt lat="54.33641" lon="18.97473">
        <ele>35.482097</ele>
        <time>2024-08-04T13:54:24.956Z</time>
      </trkpt>
      <trkpt lat="54.33641" lon="18.97492">
        <ele>35.340825</ele>
        <time>2024-08-04T13:54:27.945Z</time>
      </trkpt>
      <trkpt lat="54.3364" lon="18.97512">
        <ele>35.197494</ele>
        <time>2024-08-04T13:54:30.949Z</time>
      </trkpt>
      <trkpt lat="54.3364" lon="18.97531">
        <ele>35.058957</ele>
        <time>2024-08-04T13:54:33.944Z</time>
      </trkpt>
      <trkpt lat="54.33638" lon="18.97549">
        <ele>34.932421</ele>
        <time>2024-08-04T13:54:36.963Z</time>
      </trkpt>
      <trkpt lat="54.33638" lon="18.97569">
        <ele>34.785553</ele>
        <time>2024-08-04T13:54:39.934Z</time>
      </trkpt>
      <trkpt lat="54.33638" lon="18.97589">
        <ele>34.639366</ele>
        <time>2024-08-04T13:54:42.961Z</time>
      </trkpt>
      <trkpt lat="54.33636" lon="18.97607">
        <ele>34.510451</ele>
        <time>2024-08-04T13:54:45.941Z</time>
      </trkpt>
      <trkpt lat="54.33635" lon="18.97623">
        <ele>34.393502</ele>
        <time>2024-08-04T13:54:48.949Z</time>
      </trkpt>
      <trkpt lat="54.33633" lon="18.97638">
        <ele>34.279312</ele>
        <time>2024-08-04T13:54:51.953Z</time>
      </trkpt>
      <trkpt lat="54.33632" lon="18.97654">
        <ele>34.167341</ele>
        <time>2024-08-04T13:54:54.960Z</time>
      </trkpt>
      <trkpt lat="54.33632" lon="18.97674">
        <ele>34.017537</ele>
        <time>2024-08-04T13:54:58.962Z</time>
      </trkpt>
      <trkpt lat="54.33631" lon="18.97695">
        <ele>33.865036</ele>
        <time>2024-08-04T13:55:02.946Z</time>
      </trkpt>
      <trkpt lat="54.33629" lon="18.97711">
        <ele>33.751914</ele>
        <time>2024-08-04T13:55:05.943Z</time>
      </trkpt>
      <trkpt lat="54.33632" lon="18.97728">
        <ele>33.619597</ele>
        <time>2024-08-04T13:55:09.948Z</time>
      </trkpt>
      <trkpt lat="54.33635" lon="18.97748">
        <ele>33.472058</ele>
        <time>2024-08-04T13:55:13.939Z</time>
      </trkpt>
      <trkpt lat="54.33638" lon="18.97767">
        <ele>33.330959</ele>
        <time>2024-08-04T13:55:17.944Z</time>
      </trkpt>
      <trkpt lat="54.33642" lon="18.97783">
        <ele>33.500023</ele>
        <time>2024-08-04T13:55:21.962Z</time>
      </trkpt>
      <trkpt lat="54.33645" lon="18.978">
        <ele>33.702317</ele>
        <time>2024-08-04T13:55:26.955Z</time>
      </trkpt>
      <trkpt lat="54.33654" lon="18.97825">
        <ele>34.020527</ele>
        <time>2024-08-04T13:56:13.929Z</time>
      </trkpt>
      <trkpt lat="54.33658" lon="18.97842">
        <ele>34.228562</ele>
        <time>2024-08-04T13:56:18.934Z</time>
      </trkpt>
      <trkpt lat="54.33662" lon="18.97857">
        <ele>34.416776</ele>
        <time>2024-08-04T13:56:22.937Z</time>
      </trkpt>
      <trkpt lat="54.33668" lon="18.97875">
        <ele>34.638133</ele>
        <time>2024-08-04T13:56:26.931Z</time>
      </trkpt>
      <trkpt lat="54.33671" lon="18.97889">
        <ele>34.810428</ele>
        <time>2024-08-04T13:56:29.945Z</time>
      </trkpt>
      <trkpt lat="54.33675" lon="18.97909">
        <ele>35.037556</ele>
        <time>2024-08-04T13:56:33.942Z</time>
      </trkpt>
      <trkpt lat="54.33678" lon="18.97925">
        <ele>35.228271</ele>
        <time>2024-08-04T13:56:37.932Z</time>
      </trkpt>
      <trkpt lat="54.33681" lon="18.97942">
        <ele>35.424831</ele>
        <time>2024-08-04T13:56:41.937Z</time>
      </trkpt>
      <trkpt lat="54.33682" lon="18.9796">
        <ele>35.626452</ele>
        <time>2024-08-04T13:56:45.937Z</time>
      </trkpt>
      <trkpt lat="54.33684" lon="18.97978">
        <ele>35.83027</ele>
        <time>2024-08-04T13:56:49.929Z</time>
      </trkpt>
      <trkpt lat="54.33684" lon="18.97997">
        <ele>36.03098</ele>
        <time>2024-08-04T13:56:53.931Z</time>
      </trkpt>
      <trkpt lat="54.33683" lon="18.98014">
        <ele>36.226592</ele>
        <time>2024-08-04T13:56:57.932Z</time>
      </trkpt>
      <trkpt lat="54.33682" lon="18.9803">
        <ele>36.400233</ele>
        <time>2024-08-04T13:57:00.936Z</time>
      </trkpt>
      <trkpt lat="54.3368" lon="18.98048">
        <ele>36.601594</ele>
        <time>2024-08-04T13:57:03.933Z</time>
      </trkpt>
      <trkpt lat="54.33679" lon="18.98067">
        <ele>36.77103</ele>
        <time>2024-08-04T13:57:06.962Z</time>
      </trkpt>
      <trkpt lat="54.33679" lon="18.98087">
        <ele>36.851385</ele>
        <time>2024-08-04T13:57:09.930Z</time>
      </trkpt>
      <trkpt lat="54.33679" lon="18.98107">
        <ele>36.931196</ele>
        <time>2024-08-04T13:57:12.951Z</time>
      </trkpt>
      <trkpt lat="54.33679" lon="18.98123">
        <ele>36.998813</ele>
        <time>2024-08-04T13:57:15.929Z</time>
      </trkpt>
      <trkpt lat="54.33677" lon="18.98142">
        <ele>37.076569</ele>
        <time>2024-08-04T13:57:18.939Z</time>
      </trkpt>
      <trkpt lat="54.33675" lon="18.9816">
        <ele>37.151847</ele>
        <time>2024-08-04T13:57:21.930Z</time>
      </trkpt>
      <trkpt lat="54.33673" lon="18.98177">
        <ele>37.222873</ele>
        <time>2024-08-04T13:57:24.946Z</time>
      </trkpt>
      <trkpt lat="54.33671" lon="18.98196">
        <ele>37.298693</ele>
        <time>2024-08-04T13:57:27.953Z</time>
      </trkpt>
      <trkpt lat="54.33669" lon="18.98213">
        <ele>37.369746</ele>
        <time>2024-08-04T13:57:30.941Z</time>
      </trkpt>
      <trkpt lat="54.33667" lon="18.9823">
        <ele>37.441592</ele>
        <time>2024-08-04T13:57:33.928Z</time>
      </trkpt>
      <trkpt lat="54.33665" lon="18.98249">
        <ele>37.520659</ele>
        <time>2024-08-04T13:57:36.947Z</time>
      </trkpt>
      <trkpt lat="54.33665" lon="18.98268">
        <ele>37.598858</ele>
        <time>2024-08-04T13:57:39.940Z</time>
      </trkpt>
      <trkpt lat="54.33665" lon="18.98289">
        <ele>37.68151</ele>
        <time>2024-08-04T13:57:42.934Z</time>
      </trkpt>
      <trkpt lat="54.33666" lon="18.98305">
        <ele>37.750543</ele>
        <time>2024-08-04T13:57:45.925Z</time>
      </trkpt>
      <trkpt lat="54.33667" lon="18.98327">
        <ele>37.839288</ele>
        <time>2024-08-04T13:57:48.945Z</time>
      </trkpt>
      <trkpt lat="54.33669" lon="18.98346">
        <ele>37.91758</ele>
        <time>2024-08-04T13:57:51.936Z</time>
      </trkpt>
      <trkpt lat="54.33671" lon="18.98363">
        <ele>37.987607</ele>
        <time>2024-08-04T13:57:54.942Z</time>
      </trkpt>
      <trkpt lat="54.33672" lon="18.98384">
        <ele>38.047068</ele>
        <time>2024-08-04T13:57:57.931Z</time>
      </trkpt>
      <trkpt lat="54.33673" lon="18.98404">
        <ele>38.098142</ele>
        <time>2024-08-04T13:58:00.937Z</time>
      </trkpt>
      <trkpt lat="54.33672" lon="18.98424">
        <ele>38.149398</ele>
        <time>2024-08-04T13:58:03.939Z</time>
      </trkpt>
      <trkpt lat="54.33671" lon="18.98442">
        <ele>38.194955</ele>
        <time>2024-08-04T13:58:06.939Z</time>
      </trkpt>
      <trkpt lat="54.33671" lon="18.9846">
        <ele>38.242447</ele>
        <time>2024-08-04T13:58:09.929Z</time>
      </trkpt>
      <trkpt lat="54.33671" lon="18.98479">
        <ele>38.289184</ele>
        <time>2024-08-04T13:58:12.939Z</time>
      </trkpt>
      <trkpt lat="54.33671" lon="18.98499">
        <ele>38.340884</ele>
        <time>2024-08-04T13:58:15.958Z</time>
      </trkpt>
      <trkpt lat="54.33669" lon="18.98517">
        <ele>38.387738</ele>
        <time>2024-08-04T13:58:18.951Z</time>
      </trkpt>
      <trkpt lat="54.33668" lon="18.98535">
        <ele>38.435811</ele>
        <time>2024-08-04T13:58:21.935Z</time>
      </trkpt>
      <trkpt lat="54.33665" lon="18.98555">
        <ele>38.488805</ele>
        <time>2024-08-04T13:58:24.941Z</time>
      </trkpt>
      <trkpt lat="54.33662" lon="18.98574">
        <ele>38.53899</ele>
        <time>2024-08-04T13:58:27.945Z</time>
      </trkpt>
      <trkpt lat="54.33659" lon="18.98594">
        <ele>38.589778</ele>
        <time>2024-08-04T13:58:30.933Z</time>
      </trkpt>
      <trkpt lat="54.33657" lon="18.9861">
        <ele>38.632814</ele>
        <time>2024-08-04T13:58:33.930Z</time>
      </trkpt>
      <trkpt lat="54.33657" lon="18.98628">
        <ele>38.680577</ele>
        <time>2024-08-04T13:58:36.930Z</time>
      </trkpt>
      <trkpt lat="54.33658" lon="18.98648">
        <ele>38.730085</ele>
        <time>2024-08-04T13:58:39.933Z</time>
      </trkpt>
      <trkpt lat="54.3366" lon="18.98667">
        <ele>38.781578</ele>
        <time>2024-08-04T13:58:42.955Z</time>
      </trkpt>
      <trkpt lat="54.33661" lon="18.98688">
        <ele>38.831849</ele>
        <time>2024-08-04T13:58:45.933Z</time>
      </trkpt>
      <trkpt lat="54.33664" lon="18.98708">
        <ele>38.883291</ele>
        <time>2024-08-04T13:58:48.960Z</time>
      </trkpt>
      <trkpt lat="54.33666" lon="18.98728">
        <ele>38.933023</ele>
        <time>2024-08-04T13:58:51.932Z</time>
      </trkpt>
      <trkpt lat="54.33667" lon="18.98744">
        <ele>38.974432</ele>
        <time>2024-08-04T13:58:53.948Z</time>
      </trkpt>
      <trkpt lat="54.33667" lon="18.9876">
        <ele>39.012607</ele>
        <time>2024-08-04T13:58:55.931Z</time>
      </trkpt>
      <trkpt lat="54.33666" lon="18.98776">
        <ele>39.05136</ele>
        <time>2024-08-04T13:58:57.942Z</time>
      </trkpt>
      <trkpt lat="54.33665" lon="18.98791">
        <ele>39.089721</ele>
        <time>2024-08-04T13:58:59.934Z</time>
      </trkpt>
      <trkpt lat="54.33664" lon="18.98812">
        <ele>39.142287</ele>
        <time>2024-08-04T13:59:02.932Z</time>
      </trkpt>
      <trkpt lat="54.33663" lon="18.98835">
        <ele>39.198667</ele>
        <time>2024-08-04T13:59:05.932Z</time>
      </trkpt>
      <trkpt lat="54.33662" lon="18.98856">
        <ele>39.250524</ele>
        <time>2024-08-04T13:59:08.936Z</time>
      </trkpt>
      <trkpt lat="54.33659" lon="18.98877">
        <ele>39.30331</ele>
        <time>2024-08-04T13:59:11.957Z</time>
      </trkpt>
      <trkpt lat="54.33658" lon="18.98898">
        <ele>39.355956</ele>
        <time>2024-08-04T13:59:14.952Z</time>
      </trkpt>
      <trkpt lat="54.33658" lon="18.98919">
        <ele>39.406204</ele>
        <time>2024-08-04T13:59:17.939Z</time>
      </trkpt>
      <trkpt lat="54.33657" lon="18.98937">
        <ele>39.452169</ele>
        <time>2024-08-04T13:59:20.937Z</time>
      </trkpt>
      <trkpt lat="54.33657" lon="18.98958">
        <ele>39.503642</ele>
        <time>2024-08-04T13:59:23.945Z</time>
      </trkpt>
      <trkpt lat="54.33656" lon="18.9898">
        <ele>39.540939</ele>
        <time>2024-08-04T13:59:26.929Z</time>
      </trkpt>
      <trkpt lat="54.33655" lon="18.98999">
        <ele>39.473399</ele>
        <time>2024-08-04T13:59:29.928Z</time>
      </trkpt>
      <trkpt lat="54.33656" lon="18.99018">
        <ele>39.405297</ele>
        <time>2024-08-04T13:59:32.943Z</time>
      </trkpt>
      <trkpt lat="54.33655" lon="18.99037">
        <ele>39.337208</ele>
        <time>2024-08-04T13:59:35.933Z</time>
      </trkpt>
      <trkpt lat="54.33657" lon="18.99056">
        <ele>39.267879</ele>
        <time>2024-08-04T13:59:38.938Z</time>
      </trkpt>
      <trkpt lat="54.33657" lon="18.99073">
        <ele>39.205889</ele>
        <time>2024-08-04T13:59:41.947Z</time>
      </trkpt>
      <trkpt lat="54.33656" lon="18.99091">
        <ele>39.142399</ele>
        <time>2024-08-04T13:59:44.933Z</time>
      </trkpt>
      <trkpt lat="54.33653" lon="18.9911">
        <ele>39.073442</ele>
        <time>2024-08-04T13:59:47.929Z</time>
      </trkpt>
      <trkpt lat="54.3365" lon="18.99124">
        <ele>39.017691</ele>
        <time>2024-08-04T13:59:49.925Z</time>
      </trkpt>
      <trkpt lat="54.33648" lon="18.99144">
        <ele>38.945002</ele>
        <time>2024-08-04T13:59:52.934Z</time>
      </trkpt>
      <trkpt lat="54.33646" lon="18.99164">
        <ele>38.873113</ele>
        <time>2024-08-04T13:59:55.931Z</time>
      </trkpt>
      <trkpt lat="54.33644" lon="18.99182">
        <ele>38.806457</ele>
        <time>2024-08-04T13:59:58.933Z</time>
      </trkpt>
      <trkpt lat="54.33642" lon="18.99202">
        <ele>38.734655</ele>
        <time>2024-08-04T14:00:01.942Z</time>
      </trkpt>
      <trkpt lat="54.33641" lon="18.9922">
        <ele>38.669505</ele>
        <time>2024-08-04T14:00:04.936Z</time>
      </trkpt>
      <trkpt lat="54.33639" lon="18.99238">
        <ele>38.60385</ele>
        <time>2024-08-04T14:00:07.941Z</time>
      </trkpt>
      <trkpt lat="54.33637" lon="18.99257">
        <ele>38.535587</ele>
        <time>2024-08-04T14:00:10.935Z</time>
      </trkpt>
      <trkpt lat="54.33636" lon="18.99276">
        <ele>38.468404</ele>
        <time>2024-08-04T14:00:13.932Z</time>
      </trkpt>
      <trkpt lat="54.33636" lon="18.99293">
        <ele>38.626569</ele>
        <time>2024-08-04T14:00:16.936Z</time>
      </trkpt>
      <trkpt lat="54.33636" lon="18.99313">
        <ele>38.947219</ele>
        <time>2024-08-04T14:00:19.954Z</time>
      </trkpt>
      <trkpt lat="54.33638" lon="18.99331">
        <ele>39.255567</ele>
        <time>2024-08-04T14:00:22.932Z</time>
      </trkpt>
      <trkpt lat="54.33639" lon="18.99347">
        <ele>39.514902</ele>
        <time>2024-08-04T14:00:24.932Z</time>
      </trkpt>
      <trkpt lat="54.33637" lon="18.99368">
        <ele>39.855296</ele>
        <time>2024-08-04T14:00:26.944Z</time>
      </trkpt>
      <trkpt lat="54.33636" lon="18.99385">
        <ele>40.135302</ele>
        <time>2024-08-04T14:00:28.939Z</time>
      </trkpt>
      <trkpt lat="54.33636" lon="18.994">
        <ele>40.392612</ele>
        <time>2024-08-04T14:00:30.929Z</time>
      </trkpt>
      <trkpt lat="54.33634" lon="18.99421">
        <ele>40.728878</ele>
        <time>2024-08-04T14:00:33.940Z</time>
      </trkpt>
      <trkpt lat="54.33635" lon="18.99443">
        <ele>41.100286</ele>
        <time>2024-08-04T14:00:36.950Z</time>
      </trkpt>
      <trkpt lat="54.33634" lon="18.99459">
        <ele>41.352279</ele>
        <time>2024-08-04T14:00:38.950Z</time>
      </trkpt>
      <trkpt lat="54.33633" lon="18.99481">
        <ele>41.711612</ele>
        <time>2024-08-04T14:00:41.931Z</time>
      </trkpt>
      <trkpt lat="54.33631" lon="18.99503">
        <ele>42.075164</ele>
        <time>2024-08-04T14:00:44.929Z</time>
      </trkpt>
      <trkpt lat="54.33631" lon="18.99518">
        <ele>42.333162</ele>
        <time>2024-08-04T14:00:46.929Z</time>
      </trkpt>
      <trkpt lat="54.33631" lon="18.99539">
        <ele>42.670161</ele>
        <time>2024-08-04T14:00:49.931Z</time>
      </trkpt>
      <trkpt lat="54.33631" lon="18.99558">
        <ele>42.975996</ele>
        <time>2024-08-04T14:00:52.933Z</time>
      </trkpt>
      <trkpt lat="54.3363" lon="18.99575">
        <ele>43.267751</ele>
        <time>2024-08-04T14:00:55.934Z</time>
      </trkpt>
      <trkpt lat="54.3363" lon="18.99593">
        <ele>43.461365</ele>
        <time>2024-08-04T14:00:58.936Z</time>
      </trkpt>
      <trkpt lat="54.3363" lon="18.99609">
        <ele>43.340022</ele>
        <time>2024-08-04T14:01:00.944Z</time>
      </trkpt>
      <trkpt lat="54.33631" lon="18.99631">
        <ele>43.167797</ele>
        <time>2024-08-04T14:01:03.939Z</time>
      </trkpt>
      <trkpt lat="54.33631" lon="18.99647">
        <ele>43.047215</ele>
        <time>2024-08-04T14:01:05.932Z</time>
      </trkpt>
      <trkpt lat="54.33629" lon="18.99668">
        <ele>42.882959</ele>
        <time>2024-08-04T14:01:08.935Z</time>
      </trkpt>
      <trkpt lat="54.33629" lon="18.9969">
        <ele>42.715104</ele>
        <time>2024-08-04T14:01:11.946Z</time>
      </trkpt>
      <trkpt lat="54.33628" lon="18.99713">
        <ele>42.544063</ele>
        <time>2024-08-04T14:01:14.929Z</time>
      </trkpt>
      <trkpt lat="54.3363" lon="18.99734">
        <ele>42.382223</ele>
        <time>2024-08-04T14:01:17.935Z</time>
      </trkpt>
      <trkpt lat="54.33628" lon="18.99751">
        <ele>42.25312</ele>
        <time>2024-08-04T14:01:19.939Z</time>
      </trkpt>
      <trkpt lat="54.33628" lon="18.99774">
        <ele>42.079164</ele>
        <time>2024-08-04T14:01:22.949Z</time>
      </trkpt>
      <trkpt lat="54.33629" lon="18.9979">
        <ele>41.953735</ele>
        <time>2024-08-04T14:01:24.928Z</time>
      </trkpt>
      <trkpt lat="54.33628" lon="18.99806">
        <ele>41.833403</ele>
        <time>2024-08-04T14:01:26.934Z</time>
      </trkpt>
      <trkpt lat="54.33627" lon="18.99829">
        <ele>41.657772</ele>
        <time>2024-08-04T14:01:29.931Z</time>
      </trkpt>
      <trkpt lat="54.33626" lon="18.99844">
        <ele>41.538821</ele>
        <time>2024-08-04T14:01:31.956Z</time>
      </trkpt>
      <trkpt lat="54.33623" lon="18.99867">
        <ele>41.36261</ele>
        <time>2024-08-04T14:01:34.944Z</time>
      </trkpt>
      <trkpt lat="54.33622" lon="18.99888">
        <ele>41.197665</ele>
        <time>2024-08-04T14:01:37.931Z</time>
      </trkpt>
      <trkpt lat="54.3362" lon="18.99909">
        <ele>40.819162</ele>
        <time>2024-08-04T14:01:40.941Z</time>
      </trkpt>
      <trkpt lat="54.3362" lon="18.99925">
        <ele>40.448017</ele>
        <time>2024-08-04T14:01:42.939Z</time>
      </trkpt>
      <trkpt lat="54.33621" lon="18.99948">
        <ele>39.907</ele>
        <time>2024-08-04T14:01:45.929Z</time>
      </trkpt>
      <trkpt lat="54.33622" lon="18.99969">
        <ele>39.389061</ele>
        <time>2024-08-04T14:01:48.942Z</time>
      </trkpt>
      <trkpt lat="54.33624" lon="18.9999">
        <ele>38.88362</ele>
        <time>2024-08-04T14:01:51.945Z</time>
      </trkpt>
      <trkpt lat="54.33626" lon="19.00013">
        <ele>38.351824</ele>
        <time>2024-08-04T14:01:54.944Z</time>
      </trkpt>
      <trkpt lat="54.33627" lon="19.00033">
        <ele>37.861492</ele>
        <time>2024-08-04T14:01:57.937Z</time>
      </trkpt>
      <trkpt lat="54.33628" lon="19.00055">
        <ele>37.34515</ele>
        <time>2024-08-04T14:02:00.944Z</time>
      </trkpt>
      <trkpt lat="54.3363" lon="19.00077">
        <ele>36.813354</ele>
        <time>2024-08-04T14:02:03.935Z</time>
      </trkpt>
      <trkpt lat="54.33635" lon="19.00095">
        <ele>36.3371</ele>
        <time>2024-08-04T14:02:06.951Z</time>
      </trkpt>
      <trkpt lat="54.33641" lon="19.00112">
        <ele>35.874877</ele>
        <time>2024-08-04T14:02:09.936Z</time>
      </trkpt>
      <trkpt lat="54.33645" lon="19.0013">
        <ele>35.402046</ele>
        <time>2024-08-04T14:02:12.945Z</time>
      </trkpt>
      <trkpt lat="54.33649" lon="19.00149">
        <ele>34.923467</ele>
        <time>2024-08-04T14:02:15.946Z</time>
      </trkpt>
      <trkpt lat="54.33651" lon="19.0017">
        <ele>34.421869</ele>
        <time>2024-08-04T14:02:18.937Z</time>
      </trkpt>
      <trkpt lat="54.33653" lon="19.00191">
        <ele>33.920514</ele>
        <time>2024-08-04T14:02:21.911Z</time>
      </trkpt>
      <trkpt lat="54.33654" lon="19.00212">
        <ele>33.857284</ele>
        <time>2024-08-04T14:02:24.943Z</time>
      </trkpt>
      <trkpt lat="54.33655" lon="19.00233">
        <ele>33.929775</ele>
        <time>2024-08-04T14:02:27.945Z</time>
      </trkpt>
      <trkpt lat="54.33656" lon="19.00254">
        <ele>34.000418</ele>
        <time>2024-08-04T14:02:30.929Z</time>
      </trkpt>
      <trkpt lat="54.33657" lon="19.00274">
        <ele>34.070326</ele>
        <time>2024-08-04T14:02:33.937Z</time>
      </trkpt>
      <trkpt lat="54.33658" lon="19.00296">
        <ele>34.142704</ele>
        <time>2024-08-04T14:02:36.943Z</time>
      </trkpt>
      <trkpt lat="54.33657" lon="19.00317">
        <ele>34.217442</ele>
        <time>2024-08-04T14:02:39.937Z</time>
      </trkpt>
      <trkpt lat="54.33657" lon="19.00338">
        <ele>34.289121</ele>
        <time>2024-08-04T14:02:42.908Z</time>
      </trkpt>
      <trkpt lat="54.33659" lon="19.0036">
        <ele>34.362331</ele>
        <time>2024-08-04T14:02:45.942Z</time>
      </trkpt>
      <trkpt lat="54.33664" lon="19.00377">
        <ele>34.431329</ele>
        <time>2024-08-04T14:02:48.933Z</time>
      </trkpt>
      <trkpt lat="54.33673" lon="19.00393">
        <ele>34.505191</ele>
        <time>2024-08-04T14:02:51.959Z</time>
      </trkpt>
      <trkpt lat="54.33679" lon="19.00406">
        <ele>34.560547</ele>
        <time>2024-08-04T14:02:53.948Z</time>
      </trkpt>
      <trkpt lat="54.33686" lon="19.00417">
        <ele>34.615961</ele>
        <time>2024-08-04T14:02:55.938Z</time>
      </trkpt>
      <trkpt lat="54.33695" lon="19.00433">
        <ele>34.691873</ele>
        <time>2024-08-04T14:02:58.937Z</time>
      </trkpt>
      <trkpt lat="54.33704" lon="19.00447">
        <ele>34.766069</ele>
        <time>2024-08-04T14:03:01.932Z</time>
      </trkpt>
      <trkpt lat="54.33712" lon="19.00457">
        <ele>34.822342</ele>
        <time>2024-08-04T14:03:04.908Z</time>
      </trkpt>
      <trkpt lat="54.33721" lon="19.00468">
        <ele>35.026018</ele>
        <time>2024-08-04T14:03:08.929Z</time>
      </trkpt>
      <trkpt lat="54.3373" lon="19.0048">
        <ele>35.354427</ele>
        <time>2024-08-04T14:03:12.947Z</time>
      </trkpt>
      <trkpt lat="54.33736" lon="19.00493">
        <ele>35.663167</ele>
        <time>2024-08-04T14:03:15.938Z</time>
      </trkpt>
      <trkpt lat="54.33741" lon="19.00513">
        <ele>36.032163</ele>
        <time>2024-08-04T14:03:18.939Z</time>
      </trkpt>
      <trkpt lat="54.33746" lon="19.00533">
        <ele>36.402564</ele>
        <time>2024-08-04T14:03:21.956Z</time>
      </trkpt>
      <trkpt lat="54.33747" lon="19.00553">
        <ele>36.753586</ele>
        <time>2024-08-04T14:03:24.947Z</time>
      </trkpt>
      <trkpt lat="54.33747" lon="19.00573">
        <ele>37.107892</ele>
        <time>2024-08-04T14:03:27.930Z</time>
      </trkpt>
      <trkpt lat="54.33748" lon="19.00595">
        <ele>37.486062</ele>
        <time>2024-08-04T14:03:30.935Z</time>
      </trkpt>
      <trkpt lat="54.33748" lon="19.00616">
        <ele>37.865086</ele>
        <time>2024-08-04T14:03:33.932Z</time>
      </trkpt>
      <trkpt lat="54.33748" lon="19.00636">
        <ele>38.210706</ele>
        <time>2024-08-04T14:03:36.945Z</time>
      </trkpt>
      <trkpt lat="54.3375" lon="19.00654">
        <ele>38.523796</ele>
        <time>2024-08-04T14:03:39.943Z</time>
      </trkpt>
      <trkpt lat="54.33753" lon="19.00675">
        <ele>38.905998</ele>
        <time>2024-08-04T14:03:42.909Z</time>
      </trkpt>
      <trkpt lat="54.33754" lon="19.00697">
        <ele>39.301159</ele>
        <time>2024-08-04T14:03:45.938Z</time>
      </trkpt>
      <trkpt lat="54.33754" lon="19.00719">
        <ele>39.683671</ele>
        <time>2024-08-04T14:03:48.910Z</time>
      </trkpt>
      <trkpt lat="54.33755" lon="19.00741">
        <ele>40.071984</ele>
        <time>2024-08-04T14:03:51.908Z</time>
      </trkpt>
      <trkpt lat="54.33757" lon="19.00765">
        <ele>40.288863</ele>
        <time>2024-08-04T14:03:54.911Z</time>
      </trkpt>
      <trkpt lat="54.33758" lon="19.00781">
        <ele>40.345468</ele>
        <time>2024-08-04T14:03:56.925Z</time>
      </trkpt>
      <trkpt lat="54.33758" lon="19.00803">
        <ele>40.424966</ele>
        <time>2024-08-04T14:03:59.912Z</time>
      </trkpt>
      <trkpt lat="54.33759" lon="19.00826">
        <ele>40.507572</ele>
        <time>2024-08-04T14:04:02.933Z</time>
      </trkpt>
      <trkpt lat="54.33759" lon="19.00846">
        <ele>40.579805</ele>
        <time>2024-08-04T14:04:05.931Z</time>
      </trkpt>
      <trkpt lat="54.33759" lon="19.00868">
        <ele>40.656749</ele>
        <time>2024-08-04T14:04:08.938Z</time>
      </trkpt>
      <trkpt lat="54.3376" lon="19.00888">
        <ele>40.727015</ele>
        <time>2024-08-04T14:04:11.933Z</time>
      </trkpt>
      <trkpt lat="54.3376" lon="19.0091">
        <ele>40.806362</ele>
        <time>2024-08-04T14:04:14.935Z</time>
      </trkpt>
      <trkpt lat="54.3376" lon="19.00931">
        <ele>40.882173</ele>
        <time>2024-08-04T14:04:17.930Z</time>
      </trkpt>
      <trkpt lat="54.33759" lon="19.00947">
        <ele>40.937379</ele>
        <time>2024-08-04T14:04:19.930Z</time>
      </trkpt>
      <trkpt lat="54.33758" lon="19.0097">
        <ele>41.019274</ele>
        <time>2024-08-04T14:04:22.933Z</time>
      </trkpt>
      <trkpt lat="54.33759" lon="19.00986">
        <ele>41.07672</ele>
        <time>2024-08-04T14:04:24.938Z</time>
      </trkpt>
      <trkpt lat="54.33759" lon="19.01002">
        <ele>41.133308</ele>
        <time>2024-08-04T14:04:26.931Z</time>
      </trkpt>
      <trkpt lat="54.33759" lon="19.01024">
        <ele>41.210886</ele>
        <time>2024-08-04T14:04:29.926Z</time>
      </trkpt>
      <trkpt lat="54.33759" lon="19.0104">
        <ele>41.268528</ele>
        <time>2024-08-04T14:04:31.935Z</time>
      </trkpt>
      <trkpt lat="54.3376" lon="19.01062">
        <ele>41.35726</ele>
        <time>2024-08-04T14:04:34.938Z</time>
      </trkpt>
      <trkpt lat="54.3376" lon="19.01081">
        <ele>41.495769</ele>
        <time>2024-08-04T14:04:37.934Z</time>
      </trkpt>
      <trkpt lat="54.33761" lon="19.01103">
        <ele>41.649984</ele>
        <time>2024-08-04T14:04:40.941Z</time>
      </trkpt>
      <trkpt lat="54.33762" lon="19.01123">
        <ele>41.797147</ele>
        <time>2024-08-04T14:04:43.947Z</time>
      </trkpt>
      <trkpt lat="54.33762" lon="19.01145">
        <ele>41.949103</ele>
        <time>2024-08-04T14:04:46.937Z</time>
      </trkpt>
      <trkpt lat="54.33763" lon="19.01162">
        <ele>42.070813</ele>
        <time>2024-08-04T14:04:48.935Z</time>
      </trkpt>
      <trkpt lat="54.33763" lon="19.01184">
        <ele>42.227736</ele>
        <time>2024-08-04T14:04:51.957Z</time>
      </trkpt>
      <trkpt lat="54.33764" lon="19.01205">
        <ele>42.37872</ele>
        <time>2024-08-04T14:04:54.934Z</time>
      </trkpt>
      <trkpt lat="54.33765" lon="19.01225">
        <ele>42.520318</ele>
        <time>2024-08-04T14:04:57.927Z</time>
      </trkpt>
      <trkpt lat="54.33765" lon="19.01245">
        <ele>42.659457</ele>
        <time>2024-08-04T14:05:00.936Z</time>
      </trkpt>
      <trkpt lat="54.33764" lon="19.01263">
        <ele>42.79035</ele>
        <time>2024-08-04T14:05:03.947Z</time>
      </trkpt>
      <trkpt lat="54.33764" lon="19.01283">
        <ele>42.930326</ele>
        <time>2024-08-04T14:05:06.957Z</time>
      </trkpt>
      <trkpt lat="54.33764" lon="19.01301">
        <ele>43.058812</ele>
        <time>2024-08-04T14:05:08.916Z</time>
      </trkpt>
      <trkpt lat="54.33765" lon="19.01321">
        <ele>43.204949</ele>
        <time>2024-08-04T14:05:11.963Z</time>
      </trkpt>
      <trkpt lat="54.33765" lon="19.0134">
        <ele>43.334906</ele>
        <time>2024-08-04T14:05:14.955Z</time>
      </trkpt>
      <trkpt lat="54.33765" lon="19.01361">
        <ele>43.487532</ele>
        <time>2024-08-04T14:05:17.934Z</time>
      </trkpt>
      <trkpt lat="54.33764" lon="19.01383">
        <ele>43.356213</ele>
        <time>2024-08-04T14:05:20.937Z</time>
      </trkpt>
      <trkpt lat="54.33764" lon="19.01403">
        <ele>43.154043</ele>
        <time>2024-08-04T14:05:23.933Z</time>
      </trkpt>
      <trkpt lat="54.33765" lon="19.01426">
        <ele>42.920867</ele>
        <time>2024-08-04T14:05:26.950Z</time>
      </trkpt>
      <trkpt lat="54.33766" lon="19.01448">
        <ele>42.69841</ele>
        <time>2024-08-04T14:05:29.931Z</time>
      </trkpt>
      <trkpt lat="54.33766" lon="19.01468">
        <ele>42.490028</ele>
        <time>2024-08-04T14:05:32.934Z</time>
      </trkpt>
      <trkpt lat="54.33766" lon="19.01492">
        <ele>42.248137</ele>
        <time>2024-08-04T14:05:35.930Z</time>
      </trkpt>
      <trkpt lat="54.33765" lon="19.0151">
        <ele>42.062574</ele>
        <time>2024-08-04T14:05:37.953Z</time>
      </trkpt>
      <trkpt lat="54.33763" lon="19.01526">
        <ele>41.903656</ele>
        <time>2024-08-04T14:05:39.935Z</time>
      </trkpt>
      <trkpt lat="54.33762" lon="19.01541">
        <ele>41.742737</ele>
        <time>2024-08-04T14:05:41.935Z</time>
      </trkpt>
      <trkpt lat="54.3376" lon="19.01563">
        <ele>41.516895</ele>
        <time>2024-08-04T14:05:44.943Z</time>
      </trkpt>
      <trkpt lat="54.3376" lon="19.01586">
        <ele>41.291117</ele>
        <time>2024-08-04T14:05:47.957Z</time>
      </trkpt>
      <trkpt lat="54.33759" lon="19.01601">
        <ele>41.132287</ele>
        <time>2024-08-04T14:05:49.938Z</time>
      </trkpt>
      <trkpt lat="54.33759" lon="19.0162">
        <ele>40.939253</ele>
        <time>2024-08-04T14:05:52.938Z</time>
      </trkpt>
      <trkpt lat="54.3376" lon="19.01641">
        <ele>40.728494</ele>
        <time>2024-08-04T14:05:55.938Z</time>
      </trkpt>
      <trkpt lat="54.33761" lon="19.01662">
        <ele>40.518748</ele>
        <time>2024-08-04T14:05:58.933Z</time>
      </trkpt>
      <trkpt lat="54.33762" lon="19.01681">
        <ele>40.249547</ele>
        <time>2024-08-04T14:06:01.953Z</time>
      </trkpt>
      <trkpt lat="54.33762" lon="19.017">
        <ele>39.891104</ele>
        <time>2024-08-04T14:06:04.942Z</time>
      </trkpt>
      <trkpt lat="54.3376" lon="19.01719">
        <ele>39.542905</ele>
        <time>2024-08-04T14:06:07.931Z</time>
      </trkpt>
      <trkpt lat="54.33753" lon="19.01734">
        <ele>39.181022</ele>
        <time>2024-08-04T14:06:10.933Z</time>
      </trkpt>
      <trkpt lat="54.33744" lon="19.01746">
        <ele>38.788491</ele>
        <time>2024-08-04T14:06:12.937Z</time>
      </trkpt>
      <trkpt lat="54.33737" lon="19.01763">
        <ele>38.405477</ele>
        <time>2024-08-04T14:06:15.919Z</time>
      </trkpt>
      <trkpt lat="54.33729" lon="19.01777">
        <ele>38.030751</ele>
        <time>2024-08-04T14:06:18.951Z</time>
      </trkpt>
      <trkpt lat="54.33722" lon="19.01792">
        <ele>37.674023</ele>
        <time>2024-08-04T14:06:21.944Z</time>
      </trkpt>
      <trkpt lat="54.33721" lon="19.01809">
        <ele>37.355779</ele>
        <time>2024-08-04T14:06:24.934Z</time>
      </trkpt>
      <trkpt lat="54.33722" lon="19.01828">
        <ele>36.996866</ele>
        <time>2024-08-04T14:06:27.913Z</time>
      </trkpt>
      <trkpt lat="54.33723" lon="19.01848">
        <ele>36.618378</ele>
        <time>2024-08-04T14:06:30.958Z</time>
      </trkpt>
      <trkpt lat="54.33724" lon="19.01869">
        <ele>36.216912</ele>
        <time>2024-08-04T14:06:33.928Z</time>
      </trkpt>
      <trkpt lat="54.33725" lon="19.0189">
        <ele>35.820448</ele>
        <time>2024-08-04T14:06:36.942Z</time>
      </trkpt>
      <trkpt lat="54.33727" lon="19.01908">
        <ele>35.471214</ele>
        <time>2024-08-04T14:06:39.951Z</time>
      </trkpt>
      <trkpt lat="54.33728" lon="19.01927">
        <ele>35.124804</ele>
        <time>2024-08-04T14:06:42.943Z</time>
      </trkpt>
      <trkpt lat="54.33729" lon="19.01946">
        <ele>34.765015</ele>
        <time>2024-08-04T14:06:45.954Z</time>
      </trkpt>
      <trkpt lat="54.3373" lon="19.01963">
        <ele>34.510795</ele>
        <time>2024-08-04T14:06:48.952Z</time>
      </trkpt>
      <trkpt lat="54.33731" lon="19.01983">
        <ele>34.348787</ele>
        <time>2024-08-04T14:06:51.946Z</time>
      </trkpt>
      <trkpt lat="54.33731" lon="19.02002">
        <ele>34.188213</ele>
        <time>2024-08-04T14:06:54.946Z</time>
      </trkpt>
      <trkpt lat="54.33733" lon="19.02024">
        <ele>34.0022</ele>
        <time>2024-08-04T14:06:57.923Z</time>
      </trkpt>
      <trkpt lat="54.33735" lon="19.02044">
        <ele>33.833996</ele>
        <time>2024-08-04T14:07:00.946Z</time>
      </trkpt>
      <trkpt lat="54.33737" lon="19.02065">
        <ele>33.657142</ele>
        <time>2024-08-04T14:07:03.948Z</time>
      </trkpt>
      <trkpt lat="54.33738" lon="19.02087">
        <ele>33.475515</ele>
        <time>2024-08-04T14:07:06.936Z</time>
      </trkpt>
      <trkpt lat="54.33739" lon="19.02108">
        <ele>33.298841</ele>
        <time>2024-08-04T14:07:09.925Z</time>
      </trkpt>
      <trkpt lat="54.33741" lon="19.02129">
        <ele>33.120108</ele>
        <time>2024-08-04T14:07:12.941Z</time>
      </trkpt>
      <trkpt lat="54.33745" lon="19.02146">
        <ele>32.966716</ele>
        <time>2024-08-04T14:07:15.924Z</time>
      </trkpt>
      <trkpt lat="54.33751" lon="19.02159">
        <ele>32.832181</ele>
        <time>2024-08-04T14:07:18.929Z</time>
      </trkpt>
      <trkpt lat="54.33756" lon="19.02174">
        <ele>32.684194</ele>
        <time>2024-08-04T14:07:21.943Z</time>
      </trkpt>
      <trkpt lat="54.33761" lon="19.02191">
        <ele>32.528156</ele>
        <time>2024-08-04T14:07:24.943Z</time>
      </trkpt>
      <trkpt lat="54.33764" lon="19.02209">
        <ele>32.372559</ele>
        <time>2024-08-04T14:07:27.943Z</time>
      </trkpt>
      <trkpt lat="54.33765" lon="19.02228">
        <ele>32.213034</ele>
        <time>2024-08-04T14:07:30.935Z</time>
      </trkpt>
      <trkpt lat="54.33764" lon="19.02247">
        <ele>32.059104</ele>
        <time>2024-08-04T14:07:33.935Z</time>
      </trkpt>
      <trkpt lat="54.33764" lon="19.02264">
        <ele>32.000762</ele>
        <time>2024-08-04T14:07:36.943Z</time>
      </trkpt>
      <trkpt lat="54.33764" lon="19.0228">
        <ele>31.990186</ele>
        <time>2024-08-04T14:07:39.919Z</time>
      </trkpt>
      <trkpt lat="54.33764" lon="19.02299">
        <ele>31.976777</ele>
        <time>2024-08-04T14:07:43.936Z</time>
      </trkpt>
      <trkpt lat="54.33765" lon="19.02316">
        <ele>31.965556</ele>
        <time>2024-08-04T14:07:46.949Z</time>
      </trkpt>
      <trkpt lat="54.33765" lon="19.02335">
        <ele>31.952624</ele>
        <time>2024-08-04T14:07:50.956Z</time>
      </trkpt>
      <trkpt lat="54.33756" lon="19.02349">
        <ele>31.938148</ele>
        <time>2024-08-04T14:08:36.928Z</time>
      </trkpt>
      <trkpt lat="54.33746" lon="19.02347">
        <ele>31.927257</ele>
        <time>2024-08-04T14:08:39.939Z</time>
      </trkpt>
      <trkpt lat="54.33735" lon="19.02345">
        <ele>31.913701</ele>
        <time>2024-08-04T14:08:42.949Z</time>
      </trkpt>
      <trkpt lat="54.33722" lon="19.02344">
        <ele>31.899021</ele>
        <time>2024-08-04T14:08:45.931Z</time>
      </trkpt>
      <trkpt lat="54.3371" lon="19.02344">
        <ele>31.884351</ele>
        <time>2024-08-04T14:08:48.948Z</time>
      </trkpt>
      <trkpt lat="54.33697" lon="19.02344">
        <ele>31.869332</ele>
        <time>2024-08-04T14:08:51.942Z</time>
      </trkpt>
      <trkpt lat="54.33688" lon="19.02343">
        <ele>31.858494</ele>
        <time>2024-08-04T14:08:53.944Z</time>
      </trkpt>
      <trkpt lat="54.33679" lon="19.02343">
        <ele>31.847699</ele>
        <time>2024-08-04T14:08:55.934Z</time>
      </trkpt>
      <trkpt lat="54.33669" lon="19.02343">
        <ele>31.836435</ele>
        <time>2024-08-04T14:08:57.949Z</time>
      </trkpt>
      <trkpt lat="54.33656" lon="19.02342">
        <ele>31.820924</ele>
        <time>2024-08-04T14:09:00.913Z</time>
      </trkpt>
      <trkpt lat="54.33647" lon="19.02341">
        <ele>31.809884</ele>
        <time>2024-08-04T14:09:02.946Z</time>
      </trkpt>
      <trkpt lat="54.33633" lon="19.02338">
        <ele>31.819665</ele>
        <time>2024-08-04T14:09:05.931Z</time>
      </trkpt>
      <trkpt lat="54.33624" lon="19.02335">
        <ele>31.891489</ele>
        <time>2024-08-04T14:09:07.947Z</time>
      </trkpt>
      <trkpt lat="54.33615" lon="19.02336">
        <ele>31.960421</ele>
        <time>2024-08-04T14:09:09.936Z</time>
      </trkpt>
      <trkpt lat="54.33605" lon="19.02339">
        <ele>32.030698</ele>
        <time>2024-08-04T14:09:11.947Z</time>
      </trkpt>
      <trkpt lat="54.33597" lon="19.02346">
        <ele>32.099904</ele>
        <time>2024-08-04T14:09:13.932Z</time>
      </trkpt>
      <trkpt lat="54.33588" lon="19.02352">
        <ele>32.170495</ele>
        <time>2024-08-04T14:09:15.933Z</time>
      </trkpt>
      <trkpt lat="54.3358" lon="19.0236">
        <ele>32.241613</ele>
        <time>2024-08-04T14:09:17.927Z</time>
      </trkpt>
      <trkpt lat="54.33572" lon="19.02368">
        <ele>32.310777</ele>
        <time>2024-08-04T14:09:19.937Z</time>
      </trkpt>
      <trkpt lat="54.33561" lon="19.02378">
        <ele>32.403918</ele>
        <time>2024-08-04T14:09:22.938Z</time>
      </trkpt>
      <trkpt lat="54.33554" lon="19.02388">
        <ele>32.47618</ele>
        <time>2024-08-04T14:09:25.932Z</time>
      </trkpt>
      <trkpt lat="54.3355" lon="19.02403">
        <ele>32.543645</ele>
        <time>2024-08-04T14:09:28.932Z</time>
      </trkpt>
      <trkpt lat="54.33551" lon="19.02422">
        <ele>32.625785</ele>
        <time>2024-08-04T14:09:31.931Z</time>
      </trkpt>
      <trkpt lat="54.33553" lon="19.0244">
        <ele>32.706984</ele>
        <time>2024-08-04T14:09:34.937Z</time>
      </trkpt>
      <trkpt lat="54.33554" lon="19.02457">
        <ele>32.783502</ele>
        <time>2024-08-04T14:09:37.936Z</time>
      </trkpt>
      <trkpt lat="54.33556" lon="19.02473">
        <ele>32.852165</ele>
        <time>2024-08-04T14:09:40.946Z</time>
      </trkpt>
      <trkpt lat="54.33557" lon="19.02489">
        <ele>32.923468</ele>
        <time>2024-08-04T14:09:43.933Z</time>
      </trkpt>
      <trkpt lat="54.33557" lon="19.02507">
        <ele>33.004775</ele>
        <time>2024-08-04T14:09:46.938Z</time>
      </trkpt>
      <trkpt lat="54.33558" lon="19.02528">
        <ele>33.096445</ele>
        <time>2024-08-04T14:09:49.948Z</time>
      </trkpt>
      <trkpt lat="54.33558" lon="19.02549">
        <ele>33.159978</ele>
        <time>2024-08-04T14:09:52.958Z</time>
      </trkpt>
      <trkpt lat="54.33558" lon="19.0257">
        <ele>33.193857</ele>
        <time>2024-08-04T14:09:55.947Z</time>
      </trkpt>
      <trkpt lat="54.33559" lon="19.02592">
        <ele>33.22892</ele>
        <time>2024-08-04T14:09:58.935Z</time>
      </trkpt>
      <trkpt lat="54.33559" lon="19.02615">
        <ele>33.264355</ele>
        <time>2024-08-04T14:10:01.938Z</time>
      </trkpt>
      <trkpt lat="54.33559" lon="19.02637">
        <ele>33.300272</ele>
        <time>2024-08-04T14:10:04.946Z</time>
      </trkpt>
      <trkpt lat="54.33559" lon="19.0266">
        <ele>33.33588</ele>
        <time>2024-08-04T14:10:07.939Z</time>
      </trkpt>
      <trkpt lat="54.33559" lon="19.02681">
        <ele>33.369574</ele>
        <time>2024-08-04T14:10:10.939Z</time>
      </trkpt>
      <trkpt lat="54.3356" lon="19.02702">
        <ele>33.402904</ele>
        <time>2024-08-04T14:10:13.933Z</time>
      </trkpt>
      <trkpt lat="54.3356" lon="19.02723">
        <ele>33.4355</ele>
        <time>2024-08-04T14:10:16.947Z</time>
      </trkpt>
      <trkpt lat="54.33561" lon="19.02744">
        <ele>33.468299</ele>
        <time>2024-08-04T14:10:19.938Z</time>
      </trkpt>
      <trkpt lat="54.33562" lon="19.02765">
        <ele>33.502898</ele>
        <time>2024-08-04T14:10:22.935Z</time>
      </trkpt>
      <trkpt lat="54.33564" lon="19.02788">
        <ele>33.53851</ele>
        <time>2024-08-04T14:10:25.933Z</time>
      </trkpt>
      <trkpt lat="54.33566" lon="19.02809">
        <ele>33.573418</ele>
        <time>2024-08-04T14:10:28.944Z</time>
      </trkpt>
      <trkpt lat="54.33568" lon="19.02831">
        <ele>33.608259</ele>
        <time>2024-08-04T14:10:31.957Z</time>
      </trkpt>
      <trkpt lat="54.33571" lon="19.02853">
        <ele>33.627745</ele>
        <time>2024-08-04T14:10:34.948Z</time>
      </trkpt>
      <trkpt lat="54.33573" lon="19.02875">
        <ele>33.610068</ele>
        <time>2024-08-04T14:10:37.955Z</time>
      </trkpt>
      <trkpt lat="54.33576" lon="19.02897">
        <ele>33.592051</ele>
        <time>2024-08-04T14:10:40.936Z</time>
      </trkpt>
      <trkpt lat="54.33579" lon="19.02919">
        <ele>33.574546</ele>
        <time>2024-08-04T14:10:43.941Z</time>
      </trkpt>
      <trkpt lat="54.33581" lon="19.0294">
        <ele>33.557563</ele>
        <time>2024-08-04T14:10:46.955Z</time>
      </trkpt>
      <trkpt lat="54.33584" lon="19.02962">
        <ele>33.540299</ele>
        <time>2024-08-04T14:10:49.942Z</time>
      </trkpt>
      <trkpt lat="54.33585" lon="19.02983">
        <ele>33.523333</ele>
        <time>2024-08-04T14:10:52.949Z</time>
      </trkpt>
      <trkpt lat="54.33586" lon="19.03005">
        <ele>33.505646</ele>
        <time>2024-08-04T14:10:55.931Z</time>
      </trkpt>
      <trkpt lat="54.33587" lon="19.03029">
        <ele>33.487311</ele>
        <time>2024-08-04T14:10:58.946Z</time>
      </trkpt>
      <trkpt lat="54.33587" lon="19.03044">
        <ele>33.474743</ele>
        <time>2024-08-04T14:11:00.935Z</time>
      </trkpt>
      <trkpt lat="54.33588" lon="19.0306">
        <ele>33.462238</ele>
        <time>2024-08-04T14:11:02.941Z</time>
      </trkpt>
      <trkpt lat="54.33588" lon="19.03083">
        <ele>33.443897</ele>
        <time>2024-08-04T14:11:05.938Z</time>
      </trkpt>
      <trkpt lat="54.33589" lon="19.03106">
        <ele>33.42584</ele>
        <time>2024-08-04T14:11:08.933Z</time>
      </trkpt>
      <trkpt lat="54.33589" lon="19.03128">
        <ele>33.409016</ele>
        <time>2024-08-04T14:11:11.938Z</time>
      </trkpt>
      <trkpt lat="54.3359" lon="19.03148">
        <ele>33.39289</ele>
        <time>2024-08-04T14:11:14.946Z</time>
      </trkpt>
      <trkpt lat="54.3359" lon="19.03168">
        <ele>33.406465</ele>
        <time>2024-08-04T14:11:17.930Z</time>
      </trkpt>
      <trkpt lat="54.33591" lon="19.03188">
        <ele>33.42725</ele>
        <time>2024-08-04T14:11:20.953Z</time>
      </trkpt>
      <trkpt lat="54.33592" lon="19.03209">
        <ele>33.449494</ele>
        <time>2024-08-04T14:11:23.934Z</time>
      </trkpt>
      <trkpt lat="54.33593" lon="19.03231">
        <ele>33.472086</ele>
        <time>2024-08-04T14:11:26.945Z</time>
      </trkpt>
      <trkpt lat="54.33594" lon="19.03252">
        <ele>33.493913</ele>
        <time>2024-08-04T14:11:29.931Z</time>
      </trkpt>
      <trkpt lat="54.33594" lon="19.03271">
        <ele>33.513917</ele>
        <time>2024-08-04T14:11:32.933Z</time>
      </trkpt>
      <trkpt lat="54.33595" lon="19.03289">
        <ele>33.532563</ele>
        <time>2024-08-04T14:11:35.936Z</time>
      </trkpt>
      <trkpt lat="54.33596" lon="19.03306">
        <ele>33.550295</ele>
        <time>2024-08-04T14:11:38.949Z</time>
      </trkpt>
      <trkpt lat="54.33596" lon="19.03322">
        <ele>33.567133</ele>
        <time>2024-08-04T14:11:42.935Z</time>
      </trkpt>
      <trkpt lat="54.33597" lon="19.03339">
        <ele>33.585064</ele>
        <time>2024-08-04T14:11:47.948Z</time>
      </trkpt>
      <trkpt lat="54.33598" lon="19.03356">
        <ele>33.603245</ele>
        <time>2024-08-04T14:11:50.945Z</time>
      </trkpt>
      <trkpt lat="54.33598" lon="19.03375">
        <ele>33.623328</ele>
        <time>2024-08-04T14:11:53.932Z</time>
      </trkpt>
      <trkpt lat="54.33597" lon="19.03396">
        <ele>33.64469</ele>
        <time>2024-08-04T14:11:56.942Z</time>
      </trkpt>
      <trkpt lat="54.33598" lon="19.03415">
        <ele>33.664991</ele>
        <time>2024-08-04T14:11:59.930Z</time>
      </trkpt>
      <trkpt lat="54.33599" lon="19.03436">
        <ele>33.68718</ele>
        <time>2024-08-04T14:12:02.932Z</time>
      </trkpt>
      <trkpt lat="54.336" lon="19.03457">
        <ele>33.709178</ele>
        <time>2024-08-04T14:12:05.938Z</time>
      </trkpt>
      <trkpt lat="54.336" lon="19.03479">
        <ele>33.661895</ele>
        <time>2024-08-04T14:12:08.938Z</time>
      </trkpt>
      <trkpt lat="54.33601" lon="19.03501">
        <ele>33.607132</ele>
        <time>2024-08-04T14:12:11.908Z</time>
      </trkpt>
      <trkpt lat="54.33602" lon="19.03522">
        <ele>33.55334</ele>
        <time>2024-08-04T14:12:14.949Z</time>
      </trkpt>
      <trkpt lat="54.33602" lon="19.03543">
        <ele>33.497137</ele>
        <time>2024-08-04T14:12:17.932Z</time>
      </trkpt>
      <trkpt lat="54.33603" lon="19.03566">
        <ele>33.439486</ele>
        <time>2024-08-04T14:12:20.931Z</time>
      </trkpt>
      <trkpt lat="54.33603" lon="19.03589">
        <ele>33.379529</ele>
        <time>2024-08-04T14:12:23.944Z</time>
      </trkpt>
      <trkpt lat="54.33603" lon="19.03605">
        <ele>33.338101</ele>
        <time>2024-08-04T14:12:25.947Z</time>
      </trkpt>
      <trkpt lat="54.33603" lon="19.03628">
        <ele>33.279667</ele>
        <time>2024-08-04T14:12:28.941Z</time>
      </trkpt>
      <trkpt lat="54.33603" lon="19.03645">
        <ele>33.236689</ele>
        <time>2024-08-04T14:12:30.934Z</time>
      </trkpt>
      <trkpt lat="54.33603" lon="19.0366">
        <ele>33.196548</ele>
        <time>2024-08-04T14:12:32.937Z</time>
      </trkpt>
      <trkpt lat="54.33603" lon="19.03676">
        <ele>33.155379</ele>
        <time>2024-08-04T14:12:34.949Z</time>
      </trkpt>
      <trkpt lat="54.33603" lon="19.03692">
        <ele>33.114865</ele>
        <time>2024-08-04T14:12:36.943Z</time>
      </trkpt>
      <trkpt lat="54.33602" lon="19.03708">
        <ele>33.07419</ele>
        <time>2024-08-04T14:12:38.942Z</time>
      </trkpt>
      <trkpt lat="54.33602" lon="19.03731">
        <ele>33.015267</ele>
        <time>2024-08-04T14:12:41.938Z</time>
      </trkpt>
      <trkpt lat="54.33602" lon="19.03753">
        <ele>32.957887</ele>
        <time>2024-08-04T14:12:44.943Z</time>
      </trkpt>
      <trkpt lat="54.33603" lon="19.03776">
        <ele>32.909717</ele>
        <time>2024-08-04T14:12:47.926Z</time>
      </trkpt>
      <trkpt lat="54.33602" lon="19.03792">
        <ele>32.891708</ele>
        <time>2024-08-04T14:12:49.934Z</time>
      </trkpt>
      <trkpt lat="54.33601" lon="19.03808">
        <ele>32.874421</ele>
        <time>2024-08-04T14:12:51.940Z</time>
      </trkpt>
      <trkpt lat="54.33601" lon="19.03824">
        <ele>32.856852</ele>
        <time>2024-08-04T14:12:53.925Z</time>
      </trkpt>
      <trkpt lat="54.33599" lon="19.0384">
        <ele>32.838667</ele>
        <time>2024-08-04T14:12:55.943Z</time>
      </trkpt>
      <trkpt lat="54.33597" lon="19.03855">
        <ele>32.821559</ele>
        <time>2024-08-04T14:12:57.945Z</time>
      </trkpt>
      <trkpt lat="54.33595" lon="19.03877">
        <ele>32.79742</ele>
        <time>2024-08-04T14:13:00.931Z</time>
      </trkpt>
      <trkpt lat="54.33592" lon="19.03898">
        <ele>32.773059</ele>
        <time>2024-08-04T14:13:03.930Z</time>
      </trkpt>
      <trkpt lat="54.33589" lon="19.03919">
        <ele>32.749261</ele>
        <time>2024-08-04T14:13:06.950Z</time>
      </trkpt>
      <trkpt lat="54.33587" lon="19.0394">
        <ele>32.725936</ele>
        <time>2024-08-04T14:13:09.934Z</time>
      </trkpt>
      <trkpt lat="54.33585" lon="19.03959">
        <ele>32.704251</ele>
        <time>2024-08-04T14:13:12.951Z</time>
      </trkpt>
      <trkpt lat="54.33582" lon="19.03979">
        <ele>32.682516</ele>
        <time>2024-08-04T14:13:15.938Z</time>
      </trkpt>
      <trkpt lat="54.3358" lon="19.04">
        <ele>32.658646</ele>
        <time>2024-08-04T14:13:18.944Z</time>
      </trkpt>
      <trkpt lat="54.33578" lon="19.04015">
        <ele>32.64133</ele>
        <time>2024-08-04T14:13:20.933Z</time>
      </trkpt>
      <trkpt lat="54.33575" lon="19.04037">
        <ele>32.616927</ele>
        <time>2024-08-04T14:13:23.926Z</time>
      </trkpt>
      <trkpt lat="54.33571" lon="19.04051">
        <ele>32.59965</ele>
        <time>2024-08-04T14:13:25.948Z</time>
      </trkpt>
      <trkpt lat="54.33565" lon="19.04064">
        <ele>32.581537</ele>
        <time>2024-08-04T14:13:27.931Z</time>
      </trkpt>
      <trkpt lat="54.33557" lon="19.04082">
        <ele>32.51145</ele>
        <time>2024-08-04T14:13:30.921Z</time>
      </trkpt>
      <trkpt lat="54.33549" lon="19.041">
        <ele>32.433257</ele>
        <time>2024-08-04T14:13:33.929Z</time>
      </trkpt>
      <trkpt lat="54.33542" lon="19.04119">
        <ele>32.354787</ele>
        <time>2024-08-04T14:13:36.930Z</time>
      </trkpt>
      <trkpt lat="54.33534" lon="19.04137">
        <ele>32.278511</ele>
        <time>2024-08-04T14:13:39.935Z</time>
      </trkpt>
      <trkpt lat="54.3353" lon="19.04156">
        <ele>32.209325</ele>
        <time>2024-08-04T14:13:42.922Z</time>
      </trkpt>
      <trkpt lat="54.33522" lon="19.0417">
        <ele>32.141658</ele>
        <time>2024-08-04T14:13:45.920Z</time>
      </trkpt>
      <trkpt lat="54.33514" lon="19.04184">
        <ele>32.073692</ele>
        <time>2024-08-04T14:13:48.926Z</time>
      </trkpt>
      <trkpt lat="54.33508" lon="19.04202">
        <ele>32.003271</ele>
        <time>2024-08-04T14:13:51.928Z</time>
      </trkpt>
      <trkpt lat="54.33501" lon="19.04219">
        <ele>31.933644</ele>
        <time>2024-08-04T14:13:54.934Z</time>
      </trkpt>
      <trkpt lat="54.33495" lon="19.04238">
        <ele>31.857824</ele>
        <time>2024-08-04T14:13:57.954Z</time>
      </trkpt>
      <trkpt lat="54.33489" lon="19.04258">
        <ele>31.78276</ele>
        <time>2024-08-04T14:14:00.930Z</time>
      </trkpt>
      <trkpt lat="54.33484" lon="19.04276">
        <ele>31.712036</ele>
        <time>2024-08-04T14:14:03.924Z</time>
      </trkpt>
      <trkpt lat="54.33477" lon="19.04295">
        <ele>31.636843</ele>
        <time>2024-08-04T14:14:06.951Z</time>
      </trkpt>
      <trkpt lat="54.33471" lon="19.04313">
        <ele>31.566361</ele>
        <time>2024-08-04T14:14:09.930Z</time>
      </trkpt>
      <trkpt lat="54.33464" lon="19.04331">
        <ele>31.553306</ele>
        <time>2024-08-04T14:14:12.940Z</time>
      </trkpt>
      <trkpt lat="54.33457" lon="19.04351">
        <ele>31.633514</ele>
        <time>2024-08-04T14:14:15.918Z</time>
      </trkpt>
      <trkpt lat="54.33451" lon="19.04369">
        <ele>31.705953</ele>
        <time>2024-08-04T14:14:18.946Z</time>
      </trkpt>
      <trkpt lat="54.33445" lon="19.04387">
        <ele>31.776535</ele>
        <time>2024-08-04T14:14:21.938Z</time>
      </trkpt>
      <trkpt lat="54.3344" lon="19.04405">
        <ele>31.848423</ele>
        <time>2024-08-04T14:14:24.940Z</time>
      </trkpt>
      <trkpt lat="54.33436" lon="19.04425">
        <ele>31.920895</ele>
        <time>2024-08-04T14:14:27.933Z</time>
      </trkpt>
      <trkpt lat="54.33433" lon="19.04445">
        <ele>31.994827</ele>
        <time>2024-08-04T14:14:30.940Z</time>
      </trkpt>
      <trkpt lat="54.3343" lon="19.04467">
        <ele>32.07231</ele>
        <time>2024-08-04T14:14:33.939Z</time>
      </trkpt>
      <trkpt lat="54.33428" lon="19.04489">
        <ele>32.150501</ele>
        <time>2024-08-04T14:14:36.943Z</time>
      </trkpt>
      <trkpt lat="54.33425" lon="19.04512">
        <ele>32.229567</ele>
        <time>2024-08-04T14:14:39.944Z</time>
      </trkpt>
      <trkpt lat="54.33423" lon="19.04532">
        <ele>32.302616</ele>
        <time>2024-08-04T14:14:42.930Z</time>
      </trkpt>
      <trkpt lat="54.3342" lon="19.04549">
        <ele>32.363698</ele>
        <time>2024-08-04T14:14:45.926Z</time>
      </trkpt>
      <trkpt lat="54.33416" lon="19.04565">
        <ele>32.42312</ele>
        <time>2024-08-04T14:14:49.929Z</time>
      </trkpt>
      <trkpt lat="54.33414" lon="19.04582">
        <ele>32.483662</ele>
        <time>2024-08-04T14:14:53.927Z</time>
      </trkpt>
      <trkpt lat="54.33412" lon="19.04601">
        <ele>32.548629</ele>
        <time>2024-08-04T14:14:57.941Z</time>
      </trkpt>
      <trkpt lat="54.3341" lon="19.0462">
        <ele>32.638078</ele>
        <time>2024-08-04T14:15:01.919Z</time>
      </trkpt>
      <trkpt lat="54.33408" lon="19.04637">
        <ele>32.745311</ele>
        <time>2024-08-04T14:15:04.931Z</time>
      </trkpt>
      <trkpt lat="54.33404" lon="19.04657">
        <ele>32.868131</ele>
        <time>2024-08-04T14:15:08.946Z</time>
      </trkpt>
      <trkpt lat="54.33403" lon="19.04676">
        <ele>32.986229</ele>
        <time>2024-08-04T14:15:12.936Z</time>
      </trkpt>
      <trkpt lat="54.334" lon="19.04692">
        <ele>33.092839</ele>
        <time>2024-08-04T14:15:16.933Z</time>
      </trkpt>
      <trkpt lat="54.33398" lon="19.04709">
        <ele>33.195633</ele>
        <time>2024-08-04T14:15:20.930Z</time>
      </trkpt>
      <trkpt lat="54.33401" lon="19.04724">
        <ele>33.294371</ele>
        <time>2024-08-04T14:15:26.931Z</time>
      </trkpt>
      <trkpt lat="54.33411" lon="19.04728">
        <ele>33.399067</ele>
        <time>2024-08-04T14:15:30.923Z</time>
      </trkpt>
      <trkpt lat="54.3342" lon="19.04731">
        <ele>33.495725</ele>
        <time>2024-08-04T14:15:33.951Z</time>
      </trkpt>
      <trkpt lat="54.33429" lon="19.04735">
        <ele>33.595157</ele>
        <time>2024-08-04T14:15:36.935Z</time>
      </trkpt>
      <trkpt lat="54.33439" lon="19.04739">
        <ele>33.699853</ele>
        <time>2024-08-04T14:15:39.933Z</time>
      </trkpt>
      <trkpt lat="54.33449" lon="19.04743">
        <ele>33.813736</ele>
        <time>2024-08-04T14:15:42.931Z</time>
      </trkpt>
      <trkpt lat="54.3346" lon="19.0475">
        <ele>33.929794</ele>
        <time>2024-08-04T14:15:45.931Z</time>
      </trkpt>
      <trkpt lat="54.3347" lon="19.04755">
        <ele>34.043126</ele>
        <time>2024-08-04T14:15:48.931Z</time>
      </trkpt>
      <trkpt lat="54.3348" lon="19.0476">
        <ele>34.156861</ele>
        <time>2024-08-04T14:15:51.927Z</time>
      </trkpt>
      <trkpt lat="54.33491" lon="19.04764">
        <ele>34.274281</ele>
        <time>2024-08-04T14:15:54.933Z</time>
      </trkpt>
      <trkpt lat="54.33501" lon="19.04766">
        <ele>34.380802</ele>
        <time>2024-08-04T14:15:57.930Z</time>
      </trkpt>
      <trkpt lat="54.33512" lon="19.04768">
        <ele>34.488164</ele>
        <time>2024-08-04T14:16:01.937Z</time>
      </trkpt>
      <trkpt lat="54.33519" lon="19.04778">
        <ele>34.51071</ele>
        <time>2024-08-04T14:16:05.935Z</time>
      </trkpt>
      <trkpt lat="54.33518" lon="19.04795">
        <ele>34.535058</ele>
        <time>2024-08-04T14:16:09.915Z</time>
      </trkpt>
      <trkpt lat="54.33513" lon="19.04808">
        <ele>34.558466</ele>
        <time>2024-08-04T14:16:12.939Z</time>
      </trkpt>
      <trkpt lat="54.33506" lon="19.04822">
        <ele>34.584162</ele>
        <time>2024-08-04T14:16:15.925Z</time>
      </trkpt>
      <trkpt lat="54.335" lon="19.04838">
        <ele>34.611138</ele>
        <time>2024-08-04T14:16:18.937Z</time>
      </trkpt>
      <trkpt lat="54.33497" lon="19.04855">
        <ele>34.637806</ele>
        <time>2024-08-04T14:16:21.925Z</time>
      </trkpt>
      <trkpt lat="54.33495" lon="19.04874">
        <ele>34.664727</ele>
        <time>2024-08-04T14:16:24.942Z</time>
      </trkpt>
      <trkpt lat="54.33494" lon="19.04893">
        <ele>34.693167</ele>
        <time>2024-08-04T14:16:27.934Z</time>
      </trkpt>
      <trkpt lat="54.33493" lon="19.0491">
        <ele>34.716756</ele>
        <time>2024-08-04T14:16:30.929Z</time>
      </trkpt>
      <trkpt lat="54.33493" lon="19.04924">
        <ele>34.736898</ele>
        <time>2024-08-04T14:16:39.931Z</time>
      </trkpt>
      <trkpt lat="54.33487" lon="19.04938">
        <ele>34.762854</ele>
        <time>2024-08-04T14:18:09.922Z</time>
      </trkpt>
      <trkpt lat="54.33482" lon="19.04955">
        <ele>34.789353</ele>
        <time>2024-08-04T14:18:14.924Z</time>
      </trkpt>
      <trkpt lat="54.33477" lon="19.0497">
        <ele>34.814927</ele>
        <time>2024-08-04T14:18:19.919Z</time>
      </trkpt>
      <trkpt lat="54.33473" lon="19.04984">
        <ele>34.837047</ele>
        <time>2024-08-04T14:18:23.929Z</time>
      </trkpt>
      <trkpt lat="54.33471" lon="19.05">
        <ele>34.860094</ele>
        <time>2024-08-04T14:18:26.948Z</time>
      </trkpt>
      <trkpt lat="54.33466" lon="19.05017">
        <ele>34.88656</ele>
        <time>2024-08-04T14:18:28.936Z</time>
      </trkpt>
      <trkpt lat="54.33462" lon="19.05032">
        <ele>34.910525</ele>
        <time>2024-08-04T14:18:30.932Z</time>
      </trkpt>
      <trkpt lat="54.33458" lon="19.05048">
        <ele>34.963875</ele>
        <time>2024-08-04T14:18:32.928Z</time>
      </trkpt>
      <trkpt lat="54.33454" lon="19.05064">
        <ele>35.117526</ele>
        <time>2024-08-04T14:18:34.944Z</time>
      </trkpt>
      <trkpt lat="54.3345" lon="19.05084">
        <ele>35.300165</ele>
        <time>2024-08-04T14:18:37.925Z</time>
      </trkpt>
      <trkpt lat="54.33448" lon="19.05103">
        <ele>35.463771</ele>
        <time>2024-08-04T14:18:41.953Z</time>
      </trkpt>
      <trkpt lat="54.33447" lon="19.05118">
        <ele>35.599245</ele>
        <time>2024-08-04T14:18:45.915Z</time>
      </trkpt>
      <trkpt lat="54.33446" lon="19.05137">
        <ele>35.757906</ele>
        <time>2024-08-04T14:18:51.928Z</time>
      </trkpt>
      <trkpt lat="54.33442" lon="19.05155">
        <ele>35.92687</ele>
        <time>2024-08-04T14:18:55.929Z</time>
      </trkpt>
      <trkpt lat="54.33439" lon="19.05171">
        <ele>36.077715</ele>
        <time>2024-08-04T14:18:58.921Z</time>
      </trkpt>
      <trkpt lat="54.33433" lon="19.05191">
        <ele>36.26626</ele>
        <time>2024-08-04T14:19:01.935Z</time>
      </trkpt>
      <trkpt lat="54.3343" lon="19.05206">
        <ele>36.402172</ele>
        <time>2024-08-04T14:19:03.929Z</time>
      </trkpt>
      <trkpt lat="54.33428" lon="19.05226">
        <ele>36.573085</ele>
        <time>2024-08-04T14:19:06.936Z</time>
      </trkpt>
      <trkpt lat="54.33425" lon="19.05245">
        <ele>36.747558</ele>
        <time>2024-08-04T14:19:09.960Z</time>
      </trkpt>
      <trkpt lat="54.33422" lon="19.05263">
        <ele>36.911262</ele>
        <time>2024-08-04T14:19:12.932Z</time>
      </trkpt>
      <trkpt lat="54.33416" lon="19.0528">
        <ele>37.076067</ele>
        <time>2024-08-04T14:19:15.915Z</time>
      </trkpt>
      <trkpt lat="54.33412" lon="19.05295">
        <ele>37.224764</ele>
        <time>2024-08-04T14:19:18.947Z</time>
      </trkpt>
      <trkpt lat="54.33408" lon="19.05309">
        <ele>37.359834</ele>
        <time>2024-08-04T14:19:20.929Z</time>
      </trkpt>
      <trkpt lat="54.33401" lon="19.05326">
        <ele>37.539645</ele>
        <time>2024-08-04T14:19:23.934Z</time>
      </trkpt>
      <trkpt lat="54.33398" lon="19.05341">
        <ele>37.618777</ele>
        <time>2024-08-04T14:19:26.911Z</time>
      </trkpt>
      <trkpt lat="54.33397" lon="19.05363">
        <ele>37.674482</ele>
        <time>2024-08-04T14:19:29.928Z</time>
      </trkpt>
      <trkpt lat="54.33397" lon="19.05379">
        <ele>37.717956</ele>
        <time>2024-08-04T14:19:31.928Z</time>
      </trkpt>
      <trkpt lat="54.33398" lon="19.05399">
        <ele>37.770553</ele>
        <time>2024-08-04T14:19:34.940Z</time>
      </trkpt>
      <trkpt lat="54.334" lon="19.05418">
        <ele>37.820723</ele>
        <time>2024-08-04T14:19:37.954Z</time>
      </trkpt>
      <trkpt lat="54.33401" lon="19.05437">
        <ele>37.868462</ele>
        <time>2024-08-04T14:19:40.945Z</time>
      </trkpt>
      <trkpt lat="54.334" lon="19.05453">
        <ele>37.910868</ele>
        <time>2024-08-04T14:19:43.930Z</time>
      </trkpt>
      <trkpt lat="54.33396" lon="19.0547">
        <ele>37.959637</ele>
        <time>2024-08-04T14:19:46.931Z</time>
      </trkpt>
      <trkpt lat="54.33391" lon="19.05494">
        <ele>38.023964</ele>
        <time>2024-08-04T14:19:49.923Z</time>
      </trkpt>
      <trkpt lat="54.33388" lon="19.05509">
        <ele>38.066454</ele>
        <time>2024-08-04T14:19:51.936Z</time>
      </trkpt>
      <trkpt lat="54.33386" lon="19.05527">
        <ele>38.112893</ele>
        <time>2024-08-04T14:19:53.935Z</time>
      </trkpt>
      <trkpt lat="54.33385" lon="19.05545">
        <ele>38.159279</ele>
        <time>2024-08-04T14:19:55.929Z</time>
      </trkpt>
      <trkpt lat="54.33384" lon="19.05561">
        <ele>38.201993</ele>
        <time>2024-08-04T14:19:57.943Z</time>
      </trkpt>
      <trkpt lat="54.33382" lon="19.05583">
        <ele>38.260537</ele>
        <time>2024-08-04T14:20:00.941Z</time>
      </trkpt>
      <trkpt lat="54.33382" lon="19.05599">
        <ele>38.302273</ele>
        <time>2024-08-04T14:20:02.934Z</time>
      </trkpt>
      <trkpt lat="54.33381" lon="19.05621">
        <ele>38.359865</ele>
        <time>2024-08-04T14:20:05.949Z</time>
      </trkpt>
      <trkpt lat="54.33381" lon="19.05644">
        <ele>38.36444</ele>
        <time>2024-08-04T14:20:08.932Z</time>
      </trkpt>
      <trkpt lat="54.33383" lon="19.05666">
        <ele>38.284514</ele>
        <time>2024-08-04T14:20:11.935Z</time>
      </trkpt>
      <trkpt lat="54.33389" lon="19.05684">
        <ele>38.212575</ele>
        <time>2024-08-04T14:20:14.941Z</time>
      </trkpt>
      <trkpt lat="54.33394" lon="19.05702">
        <ele>38.139079</ele>
        <time>2024-08-04T14:20:17.930Z</time>
      </trkpt>
      <trkpt lat="54.334" lon="19.05719">
        <ele>38.069081</ele>
        <time>2024-08-04T14:20:20.952Z</time>
      </trkpt>
      <trkpt lat="54.33407" lon="19.05734">
        <ele>37.997834</ele>
        <time>2024-08-04T14:20:23.930Z</time>
      </trkpt>
      <trkpt lat="54.33415" lon="19.05746">
        <ele>37.9361</ele>
        <time>2024-08-04T14:20:26.938Z</time>
      </trkpt>
      <trkpt lat="54.33422" lon="19.05757">
        <ele>37.873529</ele>
        <time>2024-08-04T14:20:29.938Z</time>
      </trkpt>
      <trkpt lat="54.33428" lon="19.05773">
        <ele>37.806562</ele>
        <time>2024-08-04T14:20:33.926Z</time>
      </trkpt>
      <trkpt lat="54.33432" lon="19.05787">
        <ele>37.748829</ele>
        <time>2024-08-04T14:20:36.930Z</time>
      </trkpt>
      <trkpt lat="54.33436" lon="19.05806">
        <ele>37.677491</ele>
        <time>2024-08-04T14:20:39.936Z</time>
      </trkpt>
      <trkpt lat="54.33438" lon="19.05827">
        <ele>37.600327</ele>
        <time>2024-08-04T14:20:42.937Z</time>
      </trkpt>
      <trkpt lat="54.33439" lon="19.05843">
        <ele>37.545058</ele>
        <time>2024-08-04T14:20:44.943Z</time>
      </trkpt>
      <trkpt lat="54.3344" lon="19.05859">
        <ele>37.487665</ele>
        <time>2024-08-04T14:20:46.950Z</time>
      </trkpt>
      <trkpt lat="54.33442" lon="19.05879">
        <ele>37.415015</ele>
        <time>2024-08-04T14:20:49.912Z</time>
      </trkpt>
      <trkpt lat="54.33445" lon="19.05895">
        <ele>37.351497</ele>
        <time>2024-08-04T14:20:52.947Z</time>
      </trkpt>
      <trkpt lat="54.33448" lon="19.05913">
        <ele>37.285233</ele>
        <time>2024-08-04T14:20:55.940Z</time>
      </trkpt>
      <trkpt lat="54.33449" lon="19.05934">
        <ele>37.147691</ele>
        <time>2024-08-04T14:20:58.955Z</time>
      </trkpt>
      <trkpt lat="54.33451" lon="19.05949">
        <ele>37.044486</ele>
        <time>2024-08-04T14:21:00.948Z</time>
      </trkpt>
      <trkpt lat="54.33452" lon="19.05965">
        <ele>36.941129</ele>
        <time>2024-08-04T14:21:02.920Z</time>
      </trkpt>
      <trkpt lat="54.33453" lon="19.05981">
        <ele>36.839174</ele>
        <time>2024-08-04T14:21:04.936Z</time>
      </trkpt>
      <trkpt lat="54.33455" lon="19.05996">
        <ele>36.73808</ele>
        <time>2024-08-04T14:21:06.925Z</time>
      </trkpt>
      <trkpt lat="54.33456" lon="19.06011">
        <ele>36.636956</ele>
        <time>2024-08-04T14:21:08.943Z</time>
      </trkpt>
      <trkpt lat="54.33457" lon="19.06027">
        <ele>36.533105</ele>
        <time>2024-08-04T14:21:10.934Z</time>
      </trkpt>
      <trkpt lat="54.33459" lon="19.06049">
        <ele>36.389896</ele>
        <time>2024-08-04T14:21:13.943Z</time>
      </trkpt>
      <trkpt lat="54.3346" lon="19.0607">
        <ele>36.254073</ele>
        <time>2024-08-04T14:21:16.952Z</time>
      </trkpt>
      <trkpt lat="54.3346" lon="19.0609">
        <ele>36.120383</ele>
        <time>2024-08-04T14:21:19.936Z</time>
      </trkpt>
      <trkpt lat="54.33461" lon="19.06108">
        <ele>35.999826</ele>
        <time>2024-08-04T14:21:22.931Z</time>
      </trkpt>
      <trkpt lat="54.33463" lon="19.06126">
        <ele>35.881609</ele>
        <time>2024-08-04T14:21:25.950Z</time>
      </trkpt>
      <trkpt lat="54.33464" lon="19.06147">
        <ele>35.746433</ele>
        <time>2024-08-04T14:21:28.936Z</time>
      </trkpt>
      <trkpt lat="54.33464" lon="19.06167">
        <ele>35.614117</ele>
        <time>2024-08-04T14:21:31.939Z</time>
      </trkpt>
      <trkpt lat="54.33465" lon="19.06189">
        <ele>35.474274</ele>
        <time>2024-08-04T14:21:34.950Z</time>
      </trkpt>
      <trkpt lat="54.33467" lon="19.0621">
        <ele>35.333651</ele>
        <time>2024-08-04T14:21:37.955Z</time>
      </trkpt>
      <trkpt lat="54.33467" lon="19.06232">
        <ele>35.272735</ele>
        <time>2024-08-04T14:21:40.937Z</time>
      </trkpt>
      <trkpt lat="54.33469" lon="19.06253">
        <ele>35.262377</ele>
        <time>2024-08-04T14:21:43.932Z</time>
      </trkpt>
      <trkpt lat="54.33471" lon="19.06274">
        <ele>35.251689</ele>
        <time>2024-08-04T14:21:46.939Z</time>
      </trkpt>
      <trkpt lat="54.33472" lon="19.06295">
        <ele>35.241233</ele>
        <time>2024-08-04T14:21:49.923Z</time>
      </trkpt>
      <trkpt lat="54.33474" lon="19.06317">
        <ele>35.230415</ele>
        <time>2024-08-04T14:21:52.926Z</time>
      </trkpt>
      <trkpt lat="54.33476" lon="19.06338">
        <ele>35.219828</ele>
        <time>2024-08-04T14:21:55.931Z</time>
      </trkpt>
      <trkpt lat="54.33478" lon="19.0636">
        <ele>35.209091</ele>
        <time>2024-08-04T14:21:58.922Z</time>
      </trkpt>
      <trkpt lat="54.3348" lon="19.06382">
        <ele>35.197957</ele>
        <time>2024-08-04T14:22:01.942Z</time>
      </trkpt>
      <trkpt lat="54.33482" lon="19.06406">
        <ele>35.186407</ele>
        <time>2024-08-04T14:22:04.928Z</time>
      </trkpt>
      <trkpt lat="54.33482" lon="19.06421">
        <ele>35.178802</ele>
        <time>2024-08-04T14:22:06.952Z</time>
      </trkpt>
      <trkpt lat="54.33483" lon="19.06437">
        <ele>35.171091</ele>
        <time>2024-08-04T14:22:08.956Z</time>
      </trkpt>
      <trkpt lat="54.33484" lon="19.06452">
        <ele>35.163413</ele>
        <time>2024-08-04T14:22:10.928Z</time>
      </trkpt>
      <trkpt lat="54.33484" lon="19.06475">
        <ele>35.152285</ele>
        <time>2024-08-04T14:22:13.941Z</time>
      </trkpt>
      <trkpt lat="54.33486" lon="19.06496">
        <ele>35.14183</ele>
        <time>2024-08-04T14:22:16.935Z</time>
      </trkpt>
      <trkpt lat="54.33487" lon="19.06518">
        <ele>35.131071</ele>
        <time>2024-08-04T14:22:19.950Z</time>
      </trkpt>
      <trkpt lat="54.33488" lon="19.06539">
        <ele>35.193532</ele>
        <time>2024-08-04T14:22:22.948Z</time>
      </trkpt>
      <trkpt lat="54.33489" lon="19.06561">
        <ele>35.296753</ele>
        <time>2024-08-04T14:22:25.928Z</time>
      </trkpt>
      <trkpt lat="54.3349" lon="19.06581">
        <ele>35.393982</ele>
        <time>2024-08-04T14:22:28.948Z</time>
      </trkpt>
      <trkpt lat="54.33491" lon="19.06601">
        <ele>35.487925</ele>
        <time>2024-08-04T14:22:31.932Z</time>
      </trkpt>
      <trkpt lat="54.33493" lon="19.06621">
        <ele>35.582307</ele>
        <time>2024-08-04T14:22:34.935Z</time>
      </trkpt>
      <trkpt lat="54.33493" lon="19.06643">
        <ele>35.683188</ele>
        <time>2024-08-04T14:22:37.922Z</time>
      </trkpt>
      <trkpt lat="54.33496" lon="19.06665">
        <ele>35.787669</ele>
        <time>2024-08-04T14:22:40.939Z</time>
      </trkpt>
      <trkpt lat="54.33498" lon="19.06686">
        <ele>35.889959</ele>
        <time>2024-08-04T14:22:43.943Z</time>
      </trkpt>
      <trkpt lat="54.335" lon="19.06708">
        <ele>35.996047</ele>
        <time>2024-08-04T14:22:46.934Z</time>
      </trkpt>
      <trkpt lat="54.33501" lon="19.06729">
        <ele>36.091851</ele>
        <time>2024-08-04T14:22:49.924Z</time>
      </trkpt>
      <trkpt lat="54.33502" lon="19.06749">
        <ele>36.189136</ele>
        <time>2024-08-04T14:22:52.942Z</time>
      </trkpt>
      <trkpt lat="54.33504" lon="19.06771">
        <ele>36.290062</ele>
        <time>2024-08-04T14:22:55.933Z</time>
      </trkpt>
      <trkpt lat="54.33506" lon="19.06791">
        <ele>36.387809</ele>
        <time>2024-08-04T14:22:58.946Z</time>
      </trkpt>
      <trkpt lat="54.33508" lon="19.06813">
        <ele>36.492858</ele>
        <time>2024-08-04T14:23:01.943Z</time>
      </trkpt>
      <trkpt lat="54.3351" lon="19.06829">
        <ele>36.566713</ele>
        <time>2024-08-04T14:23:03.945Z</time>
      </trkpt>
      <trkpt lat="54.33512" lon="19.06845">
        <ele>36.623707</ele>
        <time>2024-08-04T14:23:05.954Z</time>
      </trkpt>
      <trkpt lat="54.33514" lon="19.06868">
        <ele>36.705229</ele>
        <time>2024-08-04T14:23:08.954Z</time>
      </trkpt>
      <trkpt lat="54.33515" lon="19.06885">
        <ele>36.762992</ele>
        <time>2024-08-04T14:23:10.944Z</time>
      </trkpt>
      <trkpt lat="54.33515" lon="19.06902">
        <ele>36.823802</ele>
        <time>2024-08-04T14:23:12.947Z</time>
      </trkpt>
      <trkpt lat="54.33515" lon="19.06918">
        <ele>36.878819</ele>
        <time>2024-08-04T14:23:14.935Z</time>
      </trkpt>
      <trkpt lat="54.33515" lon="19.06941">
        <ele>36.956468</ele>
        <time>2024-08-04T14:23:17.941Z</time>
      </trkpt>
      <trkpt lat="54.33516" lon="19.06957">
        <ele>37.010322</ele>
        <time>2024-08-04T14:23:19.955Z</time>
      </trkpt>
      <trkpt lat="54.33518" lon="19.06973">
        <ele>37.067107</ele>
        <time>2024-08-04T14:23:21.933Z</time>
      </trkpt>
      <trkpt lat="54.3352" lon="19.06989">
        <ele>37.123995</ele>
        <time>2024-08-04T14:23:23.927Z</time>
      </trkpt>
      <trkpt lat="54.33521" lon="19.07005">
        <ele>37.178131</ele>
        <time>2024-08-04T14:23:25.928Z</time>
      </trkpt>
      <trkpt lat="54.33522" lon="19.07021">
        <ele>37.234965</ele>
        <time>2024-08-04T14:23:27.934Z</time>
      </trkpt>
      <trkpt lat="54.33523" lon="19.07038">
        <ele>37.292771</ele>
        <time>2024-08-04T14:23:29.937Z</time>
      </trkpt>
      <trkpt lat="54.33525" lon="19.07054">
        <ele>37.348076</ele>
        <time>2024-08-04T14:23:31.922Z</time>
      </trkpt>
      <trkpt lat="54.33524" lon="19.0707">
        <ele>37.403055</ele>
        <time>2024-08-04T14:23:33.934Z</time>
      </trkpt>
      <trkpt lat="54.33526" lon="19.07086">
        <ele>37.460518</ele>
        <time>2024-08-04T14:23:35.950Z</time>
      </trkpt>
      <trkpt lat="54.33526" lon="19.07109">
        <ele>37.537136</ele>
        <time>2024-08-04T14:23:38.935Z</time>
      </trkpt>
      <trkpt lat="54.33529" lon="19.0713">
        <ele>37.612569</ele>
        <time>2024-08-04T14:23:41.958Z</time>
      </trkpt>
      <trkpt lat="54.33531" lon="19.07152">
        <ele>37.699785</ele>
        <time>2024-08-04T14:23:44.939Z</time>
      </trkpt>
      <trkpt lat="54.33533" lon="19.07174">
        <ele>37.78727</ele>
        <time>2024-08-04T14:23:47.944Z</time>
      </trkpt>
      <trkpt lat="54.33534" lon="19.07196">
        <ele>37.872982</ele>
        <time>2024-08-04T14:23:50.941Z</time>
      </trkpt>
      <trkpt lat="54.33534" lon="19.07211">
        <ele>37.934295</ele>
        <time>2024-08-04T14:23:52.958Z</time>
      </trkpt>
      <trkpt lat="54.33534" lon="19.07227">
        <ele>37.996403</ele>
        <time>2024-08-04T14:23:54.930Z</time>
      </trkpt>
      <trkpt lat="54.33535" lon="19.07248">
        <ele>38.079649</ele>
        <time>2024-08-04T14:23:57.933Z</time>
      </trkpt>
      <trkpt lat="54.33537" lon="19.0727">
        <ele>38.168406</ele>
        <time>2024-08-04T14:24:00.934Z</time>
      </trkpt>
      <trkpt lat="54.33538" lon="19.07286">
        <ele>38.231141</ele>
        <time>2024-08-04T14:24:02.944Z</time>
      </trkpt>
      <trkpt lat="54.33538" lon="19.07309">
        <ele>38.319842</ele>
        <time>2024-08-04T14:24:05.934Z</time>
      </trkpt>
      <trkpt lat="54.33541" lon="19.07331">
        <ele>38.410963</ele>
        <time>2024-08-04T14:24:08.938Z</time>
      </trkpt>
      <trkpt lat="54.33542" lon="19.07347">
        <ele>38.474866</ele>
        <time>2024-08-04T14:24:10.937Z</time>
      </trkpt>
      <trkpt lat="54.33544" lon="19.07364">
        <ele>38.54043</ele>
        <time>2024-08-04T14:24:12.935Z</time>
      </trkpt>
      <trkpt lat="54.33544" lon="19.0738">
        <ele>38.605713</ele>
        <time>2024-08-04T14:24:14.933Z</time>
      </trkpt>
      <trkpt lat="54.33546" lon="19.07402">
        <ele>38.694515</ele>
        <time>2024-08-04T14:24:17.956Z</time>
      </trkpt>
      <trkpt lat="54.33548" lon="19.07426">
        <ele>38.787635</ele>
        <time>2024-08-04T14:24:20.937Z</time>
      </trkpt>
      <trkpt lat="54.33549" lon="19.07447">
        <ele>38.823846</ele>
        <time>2024-08-04T14:24:23.957Z</time>
      </trkpt>
      <trkpt lat="54.33549" lon="19.07469">
        <ele>38.685485</ele>
        <time>2024-08-04T14:24:26.938Z</time>
      </trkpt>
      <trkpt lat="54.33551" lon="19.07491">
        <ele>38.542363</ele>
        <time>2024-08-04T14:24:29.944Z</time>
      </trkpt>
      <trkpt lat="54.33553" lon="19.0751">
        <ele>38.418231</ele>
        <time>2024-08-04T14:24:32.931Z</time>
      </trkpt>
      <trkpt lat="54.33554" lon="19.0753">
        <ele>38.289424</ele>
        <time>2024-08-04T14:24:35.911Z</time>
      </trkpt>
      <trkpt lat="54.33557" lon="19.07552">
        <ele>38.151842</ele>
        <time>2024-08-04T14:24:38.937Z</time>
      </trkpt>
      <trkpt lat="54.33557" lon="19.07574">
        <ele>38.013314</ele>
        <time>2024-08-04T14:24:41.921Z</time>
      </trkpt>
      <trkpt lat="54.33559" lon="19.07593">
        <ele>37.890433</ele>
        <time>2024-08-04T14:24:44.933Z</time>
      </trkpt>
      <trkpt lat="54.33561" lon="19.07613">
        <ele>37.757765</ele>
        <time>2024-08-04T14:24:47.935Z</time>
      </trkpt>
      <trkpt lat="54.33562" lon="19.07629">
        <ele>37.656221</ele>
        <time>2024-08-04T14:24:49.937Z</time>
      </trkpt>
      <trkpt lat="54.33564" lon="19.07652">
        <ele>37.511997</ele>
        <time>2024-08-04T14:24:52.941Z</time>
      </trkpt>
      <trkpt lat="54.33565" lon="19.07673">
        <ele>37.375294</ele>
        <time>2024-08-04T14:24:55.926Z</time>
      </trkpt>
      <trkpt lat="54.33567" lon="19.07696">
        <ele>37.229781</ele>
        <time>2024-08-04T14:24:58.956Z</time>
      </trkpt>
      <trkpt lat="54.33569" lon="19.07718">
        <ele>37.0892</ele>
        <time>2024-08-04T14:25:01.907Z</time>
      </trkpt>
      <trkpt lat="54.33569" lon="19.07737">
        <ele>36.964727</ele>
        <time>2024-08-04T14:25:04.942Z</time>
      </trkpt>
      <trkpt lat="54.3357" lon="19.07753">
        <ele>36.889384</ele>
        <time>2024-08-04T14:25:06.942Z</time>
      </trkpt>
      <trkpt lat="54.33571" lon="19.07769">
        <ele>36.865232</ele>
        <time>2024-08-04T14:25:08.933Z</time>
      </trkpt>
      <trkpt lat="54.33572" lon="19.07793">
        <ele>36.827832</ele>
        <time>2024-08-04T14:25:11.935Z</time>
      </trkpt>
      <trkpt lat="54.33572" lon="19.07808">
        <ele>36.803129</ele>
        <time>2024-08-04T14:25:13.943Z</time>
      </trkpt>
      <trkpt lat="54.33574" lon="19.07827">
        <ele>36.773225</ele>
        <time>2024-08-04T14:25:15.949Z</time>
      </trkpt>
      <trkpt lat="54.33575" lon="19.07846">
        <ele>36.743813</ele>
        <time>2024-08-04T14:25:17.937Z</time>
      </trkpt>
      <trkpt lat="54.33576" lon="19.07865">
        <ele>36.714677</ele>
        <time>2024-08-04T14:25:19.936Z</time>
      </trkpt>
      <trkpt lat="54.33578" lon="19.07884">
        <ele>36.684224</ele>
        <time>2024-08-04T14:25:21.938Z</time>
      </trkpt>
      <trkpt lat="54.33579" lon="19.07902">
        <ele>36.656932</ele>
        <time>2024-08-04T14:25:23.938Z</time>
      </trkpt>
      <trkpt lat="54.3358" lon="19.07918">
        <ele>36.630637</ele>
        <time>2024-08-04T14:25:25.931Z</time>
      </trkpt>
      <trkpt lat="54.33582" lon="19.0794">
        <ele>36.596965</ele>
        <time>2024-08-04T14:25:28.947Z</time>
      </trkpt>
      <trkpt lat="54.33583" lon="19.07962">
        <ele>36.562661</ele>
        <time>2024-08-04T14:25:31.949Z</time>
      </trkpt>
      <trkpt lat="54.33584" lon="19.07982">
        <ele>36.531188</ele>
        <time>2024-08-04T14:25:34.938Z</time>
      </trkpt>
      <trkpt lat="54.33586" lon="19.08004">
        <ele>36.496865</ele>
        <time>2024-08-04T14:25:37.934Z</time>
      </trkpt>
      <trkpt lat="54.33588" lon="19.08026">
        <ele>36.461942</ele>
        <time>2024-08-04T14:25:40.940Z</time>
      </trkpt>
      <trkpt lat="54.33589" lon="19.08048">
        <ele>36.42787</ele>
        <time>2024-08-04T14:25:43.943Z</time>
      </trkpt>
      <trkpt lat="54.33591" lon="19.08064">
        <ele>36.445796</ele>
        <time>2024-08-04T14:25:45.947Z</time>
      </trkpt>
      <trkpt lat="54.33592" lon="19.08081">
        <ele>36.49307</ele>
        <time>2024-08-04T14:25:47.943Z</time>
      </trkpt>
      <trkpt lat="54.33593" lon="19.08097">
        <ele>36.53717</ele>
        <time>2024-08-04T14:25:49.939Z</time>
      </trkpt>
      <trkpt lat="54.33594" lon="19.0812">
        <ele>36.601427</ele>
        <time>2024-08-04T14:25:52.945Z</time>
      </trkpt>
      <trkpt lat="54.33594" lon="19.08142">
        <ele>36.661609</ele>
        <time>2024-08-04T14:25:55.941Z</time>
      </trkpt>
      <trkpt lat="54.33596" lon="19.08163">
        <ele>36.718159</ele>
        <time>2024-08-04T14:25:58.936Z</time>
      </trkpt>
      <trkpt lat="54.33598" lon="19.08183">
        <ele>36.774099</ele>
        <time>2024-08-04T14:26:01.935Z</time>
      </trkpt>
      <trkpt lat="54.33599" lon="19.08204">
        <ele>36.83427</ele>
        <time>2024-08-04T14:26:04.939Z</time>
      </trkpt>
      <trkpt lat="54.336" lon="19.08227">
        <ele>36.898457</ele>
        <time>2024-08-04T14:26:07.935Z</time>
      </trkpt>
      <trkpt lat="54.336" lon="19.08244">
        <ele>36.945673</ele>
        <time>2024-08-04T14:26:09.930Z</time>
      </trkpt>
      <trkpt lat="54.33601" lon="19.0826">
        <ele>36.988591</ele>
        <time>2024-08-04T14:26:11.940Z</time>
      </trkpt>
      <trkpt lat="54.33601" lon="19.08276">
        <ele>37.03306</ele>
        <time>2024-08-04T14:26:13.939Z</time>
      </trkpt>
      <trkpt lat="54.33603" lon="19.08292">
        <ele>37.076632</ele>
        <time>2024-08-04T14:26:15.952Z</time>
      </trkpt>
      <trkpt lat="54.33606" lon="19.08314">
        <ele>37.138526</ele>
        <time>2024-08-04T14:26:18.931Z</time>
      </trkpt>
      <trkpt lat="54.33607" lon="19.08329">
        <ele>37.182427</ele>
        <time>2024-08-04T14:26:20.936Z</time>
      </trkpt>
      <trkpt lat="54.33609" lon="19.08345">
        <ele>37.225258</ele>
        <time>2024-08-04T14:26:22.941Z</time>
      </trkpt>
      <trkpt lat="54.3361" lon="19.08368">
        <ele>37.267538</ele>
        <time>2024-08-04T14:26:25.938Z</time>
      </trkpt>
      <trkpt lat="54.33611" lon="19.08388">
        <ele>37.262021</ele>
        <time>2024-08-04T14:26:28.955Z</time>
      </trkpt>
      <trkpt lat="54.33611" lon="19.08408">
        <ele>37.256745</ele>
        <time>2024-08-04T14:26:31.939Z</time>
      </trkpt>
      <trkpt lat="54.33612" lon="19.08426">
        <ele>37.25208</ele>
        <time>2024-08-04T14:26:34.933Z</time>
      </trkpt>
      <trkpt lat="54.33614" lon="19.08445">
        <ele>37.246805</ele>
        <time>2024-08-04T14:26:37.950Z</time>
      </trkpt>
      <trkpt lat="54.33615" lon="19.08467">
        <ele>37.240843</ele>
        <time>2024-08-04T14:26:40.938Z</time>
      </trkpt>
      <trkpt lat="54.33617" lon="19.08483">
        <ele>37.236642</ele>
        <time>2024-08-04T14:26:42.938Z</time>
      </trkpt>
      <trkpt lat="54.33618" lon="19.08506">
        <ele>37.230641</ele>
        <time>2024-08-04T14:26:45.936Z</time>
      </trkpt>
      <trkpt lat="54.33619" lon="19.08527">
        <ele>37.224891</ele>
        <time>2024-08-04T14:26:48.937Z</time>
      </trkpt>
      <trkpt lat="54.3362" lon="19.08547">
        <ele>37.219655</ele>
        <time>2024-08-04T14:26:51.943Z</time>
      </trkpt>
      <trkpt lat="54.33622" lon="19.08564">
        <ele>37.214976</ele>
        <time>2024-08-04T14:26:54.937Z</time>
      </trkpt>
      <trkpt lat="54.33624" lon="19.08583">
        <ele>37.209728</ele>
        <time>2024-08-04T14:26:58.936Z</time>
      </trkpt>
      <trkpt lat="54.33626" lon="19.08602">
        <ele>37.204542</ele>
        <time>2024-08-04T14:28:51.925Z</time>
      </trkpt>
      <trkpt lat="54.33627" lon="19.08618">
        <ele>37.200333</ele>
        <time>2024-08-04T14:28:57.928Z</time>
      </trkpt>
      <trkpt lat="54.33628" lon="19.08636">
        <ele>37.195636</ele>
        <time>2024-08-04T14:29:01.955Z</time>
      </trkpt>
      <trkpt lat="54.33629" lon="19.08651">
        <ele>37.191468</ele>
        <time>2024-08-04T14:29:04.939Z</time>
      </trkpt>
      <trkpt lat="54.3363" lon="19.08667">
        <ele>37.185889</ele>
        <time>2024-08-04T14:29:07.945Z</time>
      </trkpt>
      <trkpt lat="54.33631" lon="19.08684">
        <ele>37.118682</ele>
        <time>2024-08-04T14:29:10.942Z</time>
      </trkpt>
      <trkpt lat="54.33631" lon="19.08704">
        <ele>37.043613</ele>
        <time>2024-08-04T14:29:13.955Z</time>
      </trkpt>
      <trkpt lat="54.33633" lon="19.08723">
        <ele>36.966648</ele>
        <time>2024-08-04T14:29:16.941Z</time>
      </trkpt>
      <trkpt lat="54.33634" lon="19.08745">
        <ele>36.881272</ele>
        <time>2024-08-04T14:29:19.933Z</time>
      </trkpt>
      <trkpt lat="54.33636" lon="19.08766">
        <ele>36.79873</ele>
        <time>2024-08-04T14:29:22.930Z</time>
      </trkpt>
      <trkpt lat="54.33638" lon="19.08781">
        <ele>36.737828</ele>
        <time>2024-08-04T14:29:24.958Z</time>
      </trkpt>
      <trkpt lat="54.3364" lon="19.08804">
        <ele>36.64779</ele>
        <time>2024-08-04T14:29:27.933Z</time>
      </trkpt>
      <trkpt lat="54.3364" lon="19.0882">
        <ele>36.587528</ele>
        <time>2024-08-04T14:29:29.936Z</time>
      </trkpt>
      <trkpt lat="54.33641" lon="19.08836">
        <ele>36.525208</ele>
        <time>2024-08-04T14:29:31.954Z</time>
      </trkpt>
      <trkpt lat="54.33642" lon="19.08852">
        <ele>36.462648</ele>
        <time>2024-08-04T14:29:33.953Z</time>
      </trkpt>
      <trkpt lat="54.33644" lon="19.08867">
        <ele>36.401127</ele>
        <time>2024-08-04T14:29:35.932Z</time>
      </trkpt>
      <trkpt lat="54.33644" lon="19.08883">
        <ele>36.339914</ele>
        <time>2024-08-04T14:29:37.929Z</time>
      </trkpt>
      <trkpt lat="54.33645" lon="19.08899">
        <ele>36.278456</ele>
        <time>2024-08-04T14:29:39.939Z</time>
      </trkpt>
      <trkpt lat="54.33647" lon="19.08914">
        <ele>36.218464</ele>
        <time>2024-08-04T14:29:41.934Z</time>
      </trkpt>
      <trkpt lat="54.33648" lon="19.0893">
        <ele>36.154179</ele>
        <time>2024-08-04T14:29:43.938Z</time>
      </trkpt>
      <trkpt lat="54.33649" lon="19.08947">
        <ele>36.087782</ele>
        <time>2024-08-04T14:29:45.939Z</time>
      </trkpt>
      <trkpt lat="54.33651" lon="19.08964">
        <ele>36.022252</ele>
        <time>2024-08-04T14:29:47.943Z</time>
      </trkpt>
      <trkpt lat="54.33651" lon="19.0898">
        <ele>36.002141</ele>
        <time>2024-08-04T14:29:49.934Z</time>
      </trkpt>
      <trkpt lat="54.33651" lon="19.08996">
        <ele>36.028685</ele>
        <time>2024-08-04T14:29:51.957Z</time>
      </trkpt>
      <trkpt lat="54.33652" lon="19.09012">
        <ele>36.055919</ele>
        <time>2024-08-04T14:29:53.941Z</time>
      </trkpt>
      <trkpt lat="54.33653" lon="19.09028">
        <ele>36.083911</ele>
        <time>2024-08-04T14:29:55.951Z</time>
      </trkpt>
      <trkpt lat="54.33656" lon="19.09043">
        <ele>36.11111</ele>
        <time>2024-08-04T14:29:57.950Z</time>
      </trkpt>
      <trkpt lat="54.33656" lon="19.09059">
        <ele>36.138206</ele>
        <time>2024-08-04T14:29:59.939Z</time>
      </trkpt>
      <trkpt lat="54.33657" lon="19.09076">
        <ele>36.166532</ele>
        <time>2024-08-04T14:30:01.937Z</time>
      </trkpt>
      <trkpt lat="54.33658" lon="19.09092">
        <ele>36.193499</ele>
        <time>2024-08-04T14:30:03.943Z</time>
      </trkpt>
      <trkpt lat="54.33659" lon="19.09114">
        <ele>36.232002</ele>
        <time>2024-08-04T14:30:06.943Z</time>
      </trkpt>
      <trkpt lat="54.3366" lon="19.09137">
        <ele>36.271325</ele>
        <time>2024-08-04T14:30:09.934Z</time>
      </trkpt>
      <trkpt lat="54.33663" lon="19.09159">
        <ele>36.309784</ele>
        <time>2024-08-04T14:30:12.939Z</time>
      </trkpt>
      <trkpt lat="54.33664" lon="19.0918">
        <ele>36.34588</ele>
        <time>2024-08-04T14:30:15.945Z</time>
      </trkpt>
      <trkpt lat="54.33666" lon="19.09202">
        <ele>36.383287</ele>
        <time>2024-08-04T14:30:18.934Z</time>
      </trkpt>
      <trkpt lat="54.33668" lon="19.09225">
        <ele>36.421656</ele>
        <time>2024-08-04T14:30:21.931Z</time>
      </trkpt>
      <trkpt lat="54.3367" lon="19.09246">
        <ele>36.459163</ele>
        <time>2024-08-04T14:30:24.931Z</time>
      </trkpt>
      <trkpt lat="54.33671" lon="19.09267">
        <ele>36.494939</ele>
        <time>2024-08-04T14:30:27.935Z</time>
      </trkpt>
      <trkpt lat="54.33673" lon="19.09287">
        <ele>36.566233</ele>
        <time>2024-08-04T14:30:30.939Z</time>
      </trkpt>
      <trkpt lat="54.33675" lon="19.09308">
        <ele>36.686532</ele>
        <time>2024-08-04T14:30:33.952Z</time>
      </trkpt>
      <trkpt lat="54.33676" lon="19.09329">
        <ele>36.813268</ele>
        <time>2024-08-04T14:30:36.952Z</time>
      </trkpt>
      <trkpt lat="54.33678" lon="19.09352">
        <ele>36.94767</ele>
        <time>2024-08-04T14:30:39.938Z</time>
      </trkpt>
      <trkpt lat="54.33679" lon="19.09374">
        <ele>37.076379</ele>
        <time>2024-08-04T14:30:42.954Z</time>
      </trkpt>
      <trkpt lat="54.33681" lon="19.09394">
        <ele>37.193532</ele>
        <time>2024-08-04T14:30:45.931Z</time>
      </trkpt>
      <trkpt lat="54.33683" lon="19.09415">
        <ele>37.315204</ele>
        <time>2024-08-04T14:30:48.942Z</time>
      </trkpt>
      <trkpt lat="54.33684" lon="19.09437">
        <ele>37.446469</ele>
        <time>2024-08-04T14:30:51.948Z</time>
      </trkpt>
      <trkpt lat="54.33684" lon="19.09461">
        <ele>37.58184</ele>
        <time>2024-08-04T14:30:54.943Z</time>
      </trkpt>
      <trkpt lat="54.33685" lon="19.09484">
        <ele>37.716104</ele>
        <time>2024-08-04T14:30:57.943Z</time>
      </trkpt>
      <trkpt lat="54.33685" lon="19.09505">
        <ele>37.842855</ele>
        <time>2024-08-04T14:31:00.938Z</time>
      </trkpt>
      <trkpt lat="54.33686" lon="19.09524">
        <ele>37.953352</ele>
        <time>2024-08-04T14:31:03.947Z</time>
      </trkpt>
      <trkpt lat="54.33688" lon="19.09545">
        <ele>38.075599</ele>
        <time>2024-08-04T14:31:06.920Z</time>
      </trkpt>
      <trkpt lat="54.33692" lon="19.09567">
        <ele>38.207524</ele>
        <time>2024-08-04T14:31:09.951Z</time>
      </trkpt>
      <trkpt lat="54.33694" lon="19.09588">
        <ele>38.280949</ele>
        <time>2024-08-04T14:31:12.936Z</time>
      </trkpt>
      <trkpt lat="54.33696" lon="19.09608">
        <ele>38.168097</ele>
        <time>2024-08-04T14:31:15.933Z</time>
      </trkpt>
      <trkpt lat="54.33698" lon="19.09627">
        <ele>38.060749</ele>
        <time>2024-08-04T14:31:18.931Z</time>
      </trkpt>
      <trkpt lat="54.33699" lon="19.09644">
        <ele>37.959827</ele>
        <time>2024-08-04T14:31:21.925Z</time>
      </trkpt>
      <trkpt lat="54.337" lon="19.09662">
        <ele>37.859167</ele>
        <time>2024-08-04T14:31:24.929Z</time>
      </trkpt>
      <trkpt lat="54.33701" lon="19.09681">
        <ele>37.75126</ele>
        <time>2024-08-04T14:31:28.942Z</time>
      </trkpt>
      <trkpt lat="54.33704" lon="19.09701">
        <ele>37.635268</ele>
        <time>2024-08-04T14:31:32.929Z</time>
      </trkpt>
      <trkpt lat="54.33706" lon="19.09724">
        <ele>37.508678</ele>
        <time>2024-08-04T14:31:35.933Z</time>
      </trkpt>
      <trkpt lat="54.33706" lon="19.09742">
        <ele>37.405666</ele>
        <time>2024-08-04T14:31:37.933Z</time>
      </trkpt>
      <trkpt lat="54.33707" lon="19.09761">
        <ele>37.299435</ele>
        <time>2024-08-04T14:31:39.936Z</time>
      </trkpt>
      <trkpt lat="54.33706" lon="19.09777">
        <ele>37.210103</ele>
        <time>2024-08-04T14:31:41.937Z</time>
      </trkpt>
      <trkpt lat="54.33707" lon="19.09797">
        <ele>37.094249</ele>
        <time>2024-08-04T14:31:44.926Z</time>
      </trkpt>
      <trkpt lat="54.33709" lon="19.09818">
        <ele>36.979868</ele>
        <time>2024-08-04T14:31:47.925Z</time>
      </trkpt>
      <trkpt lat="54.3371" lon="19.09839">
        <ele>36.860584</ele>
        <time>2024-08-04T14:31:50.938Z</time>
      </trkpt>
      <trkpt lat="54.33711" lon="19.09854">
        <ele>36.771927</ele>
        <time>2024-08-04T14:31:52.934Z</time>
      </trkpt>
      <trkpt lat="54.33712" lon="19.0987">
        <ele>36.685083</ele>
        <time>2024-08-04T14:31:54.931Z</time>
      </trkpt>
      <trkpt lat="54.33714" lon="19.09893">
        <ele>36.599819</ele>
        <time>2024-08-04T14:31:57.928Z</time>
      </trkpt>
      <trkpt lat="54.33715" lon="19.09909">
        <ele>36.71426</ele>
        <time>2024-08-04T14:31:59.940Z</time>
      </trkpt>
      <trkpt lat="54.33717" lon="19.09925">
        <ele>36.832572</ele>
        <time>2024-08-04T14:32:01.941Z</time>
      </trkpt>
      <trkpt lat="54.33718" lon="19.09942">
        <ele>36.957904</ele>
        <time>2024-08-04T14:32:03.939Z</time>
      </trkpt>
      <trkpt lat="54.33719" lon="19.09958">
        <ele>37.08085</ele>
        <time>2024-08-04T14:32:05.933Z</time>
      </trkpt>
      <trkpt lat="54.3372" lon="19.09974">
        <ele>37.196823</ele>
        <time>2024-08-04T14:32:07.932Z</time>
      </trkpt>
      <trkpt lat="54.33721" lon="19.0999">
        <ele>37.313067</ele>
        <time>2024-08-04T14:32:09.927Z</time>
      </trkpt>
      <trkpt lat="54.33723" lon="19.10005">
        <ele>37.430425</ele>
        <time>2024-08-04T14:32:11.913Z</time>
      </trkpt>
      <trkpt lat="54.33726" lon="19.10021">
        <ele>37.546068</ele>
        <time>2024-08-04T14:32:13.930Z</time>
      </trkpt>
      <trkpt lat="54.33727" lon="19.10043">
        <ele>37.709388</ele>
        <time>2024-08-04T14:32:16.938Z</time>
      </trkpt>
      <trkpt lat="54.33727" lon="19.10064">
        <ele>37.867796</ele>
        <time>2024-08-04T14:32:19.932Z</time>
      </trkpt>
      <trkpt lat="54.33728" lon="19.10081">
        <ele>37.990556</ele>
        <time>2024-08-04T14:32:21.939Z</time>
      </trkpt>
      <trkpt lat="54.33729" lon="19.10097">
        <ele>38.110513</ele>
        <time>2024-08-04T14:32:23.920Z</time>
      </trkpt>
      <trkpt lat="54.3373" lon="19.10113">
        <ele>38.228161</ele>
        <time>2024-08-04T14:32:25.930Z</time>
      </trkpt>
      <trkpt lat="54.3373" lon="19.1013">
        <ele>38.353372</ele>
        <time>2024-08-04T14:32:27.931Z</time>
      </trkpt>
      <trkpt lat="54.33733" lon="19.10152">
        <ele>38.517202</ele>
        <time>2024-08-04T14:32:30.933Z</time>
      </trkpt>
      <trkpt lat="54.33734" lon="19.10174">
        <ele>38.67634</ele>
        <time>2024-08-04T14:32:33.929Z</time>
      </trkpt>
      <trkpt lat="54.33735" lon="19.10195">
        <ele>38.831065</ele>
        <time>2024-08-04T14:32:36.940Z</time>
      </trkpt>
      <trkpt lat="54.33737" lon="19.10216">
        <ele>38.776821</ele>
        <time>2024-08-04T14:32:39.938Z</time>
      </trkpt>
      <trkpt lat="54.33739" lon="19.10236">
        <ele>38.724695</ele>
        <time>2024-08-04T14:32:42.937Z</time>
      </trkpt>
      <trkpt lat="54.33741" lon="19.10257">
        <ele>38.668406</ele>
        <time>2024-08-04T14:32:45.927Z</time>
      </trkpt>
      <trkpt lat="54.33742" lon="19.10279">
        <ele>38.61285</ele>
        <time>2024-08-04T14:32:48.945Z</time>
      </trkpt>
      <trkpt lat="54.33743" lon="19.10298">
        <ele>38.56186</ele>
        <time>2024-08-04T14:32:51.935Z</time>
      </trkpt>
      <trkpt lat="54.33744" lon="19.10322">
        <ele>38.5015</ele>
        <time>2024-08-04T14:32:54.935Z</time>
      </trkpt>
      <trkpt lat="54.33745" lon="19.10345">
        <ele>38.441617</ele>
        <time>2024-08-04T14:32:57.933Z</time>
      </trkpt>
      <trkpt lat="54.33747" lon="19.10367">
        <ele>38.382933</ele>
        <time>2024-08-04T14:33:00.929Z</time>
      </trkpt>
      <trkpt lat="54.33748" lon="19.10383">
        <ele>38.342433</ele>
        <time>2024-08-04T14:33:02.939Z</time>
      </trkpt>
      <trkpt lat="54.33749" lon="19.10405">
        <ele>38.284533</ele>
        <time>2024-08-04T14:33:05.933Z</time>
      </trkpt>
      <trkpt lat="54.33749" lon="19.10426">
        <ele>38.229748</ele>
        <time>2024-08-04T14:33:08.933Z</time>
      </trkpt>
      <trkpt lat="54.3375" lon="19.10449">
        <ele>38.172124</ele>
        <time>2024-08-04T14:33:11.939Z</time>
      </trkpt>
      <trkpt lat="54.3375" lon="19.10465">
        <ele>38.130789</ele>
        <time>2024-08-04T14:33:13.920Z</time>
      </trkpt>
      <trkpt lat="54.33751" lon="19.1048">
        <ele>38.090927</ele>
        <time>2024-08-04T14:33:15.933Z</time>
      </trkpt>
      <trkpt lat="54.33754" lon="19.10502">
        <ele>38.034411</ele>
        <time>2024-08-04T14:33:18.935Z</time>
      </trkpt>
      <trkpt lat="54.33756" lon="19.10523">
        <ele>38.010571</ele>
        <time>2024-08-04T14:33:21.927Z</time>
      </trkpt>
      <trkpt lat="54.33757" lon="19.10544">
        <ele>37.987471</ele>
        <time>2024-08-04T14:33:24.936Z</time>
      </trkpt>
      <trkpt lat="54.33758" lon="19.10566">
        <ele>37.962395</ele>
        <time>2024-08-04T14:33:27.943Z</time>
      </trkpt>
      <trkpt lat="54.33759" lon="19.10583">
        <ele>37.944004</ele>
        <time>2024-08-04T14:33:29.927Z</time>
      </trkpt>
      <trkpt lat="54.33761" lon="19.10598">
        <ele>37.92689</ele>
        <time>2024-08-04T14:33:31.939Z</time>
      </trkpt>
      <trkpt lat="54.33763" lon="19.1062">
        <ele>37.901966</ele>
        <time>2024-08-04T14:33:34.915Z</time>
      </trkpt>
      <trkpt lat="54.33766" lon="19.10635">
        <ele>37.884302</ele>
        <time>2024-08-04T14:33:36.929Z</time>
      </trkpt>
      <trkpt lat="54.33767" lon="19.10657">
        <ele>37.860084</ele>
        <time>2024-08-04T14:33:39.931Z</time>
      </trkpt>
      <trkpt lat="54.33767" lon="19.10678">
        <ele>37.83721</ele>
        <time>2024-08-04T14:33:42.946Z</time>
      </trkpt>
      <trkpt lat="54.33768" lon="19.107">
        <ele>37.81288</ele>
        <time>2024-08-04T14:33:45.933Z</time>
      </trkpt>
      <trkpt lat="54.33771" lon="19.10722">
        <ele>37.787747</ele>
        <time>2024-08-04T14:33:48.941Z</time>
      </trkpt>
      <trkpt lat="54.33772" lon="19.10744">
        <ele>37.762896</ele>
        <time>2024-08-04T14:33:51.937Z</time>
      </trkpt>
      <trkpt lat="54.33774" lon="19.10761">
        <ele>37.74496</ele>
        <time>2024-08-04T14:33:53.937Z</time>
      </trkpt>
      <trkpt lat="54.33774" lon="19.10776">
        <ele>37.727354</ele>
        <time>2024-08-04T14:33:55.934Z</time>
      </trkpt>
      <trkpt lat="54.33775" lon="19.10792">
        <ele>37.709922</ele>
        <time>2024-08-04T14:33:57.927Z</time>
      </trkpt>
      <trkpt lat="54.33776" lon="19.10813">
        <ele>37.638524</ele>
        <time>2024-08-04T14:34:00.939Z</time>
      </trkpt>
      <trkpt lat="54.33777" lon="19.10834">
        <ele>37.432278</ele>
        <time>2024-08-04T14:34:03.937Z</time>
      </trkpt>
      <trkpt lat="54.33779" lon="19.10856">
        <ele>37.223028</ele>
        <time>2024-08-04T14:34:06.934Z</time>
      </trkpt>
      <trkpt lat="54.33781" lon="19.10874">
        <ele>37.044165</ele>
        <time>2024-08-04T14:34:09.929Z</time>
      </trkpt>
      <trkpt lat="54.33781" lon="19.10893">
        <ele>36.862001</ele>
        <time>2024-08-04T14:34:12.927Z</time>
      </trkpt>
      <trkpt lat="54.33783" lon="19.10912">
        <ele>36.680322</ele>
        <time>2024-08-04T14:34:15.935Z</time>
      </trkpt>
      <trkpt lat="54.33784" lon="19.10932">
        <ele>36.489725</ele>
        <time>2024-08-04T14:34:18.939Z</time>
      </trkpt>
      <trkpt lat="54.33785" lon="19.10951">
        <ele>36.306715</ele>
        <time>2024-08-04T14:34:21.934Z</time>
      </trkpt>
      <trkpt lat="54.33787" lon="19.10971">
        <ele>36.114518</ele>
        <time>2024-08-04T14:34:24.930Z</time>
      </trkpt>
      <trkpt lat="54.33789" lon="19.1099">
        <ele>35.933399</ele>
        <time>2024-08-04T14:34:27.933Z</time>
      </trkpt>
      <trkpt lat="54.33791" lon="19.11007">
        <ele>35.763585</ele>
        <time>2024-08-04T14:34:30.933Z</time>
      </trkpt>
      <trkpt lat="54.33791" lon="19.11024">
        <ele>35.602633</ele>
        <time>2024-08-04T14:34:33.929Z</time>
      </trkpt>
      <trkpt lat="54.33793" lon="19.11044">
        <ele>35.40919</ele>
        <time>2024-08-04T14:34:37.935Z</time>
      </trkpt>
      <trkpt lat="54.33795" lon="19.1106">
        <ele>35.256594</ele>
        <time>2024-08-04T14:34:40.929Z</time>
      </trkpt>
      <trkpt lat="54.33795" lon="19.11079">
        <ele>35.069288</ele>
        <time>2024-08-04T14:34:44.926Z</time>
      </trkpt>
      <trkpt lat="54.33795" lon="19.11098">
        <ele>34.889267</ele>
        <time>2024-08-04T14:34:48.935Z</time>
      </trkpt>
      <trkpt lat="54.33796" lon="19.11115">
        <ele>34.75445</ele>
        <time>2024-08-04T14:34:52.938Z</time>
      </trkpt>
      <trkpt lat="54.33797" lon="19.11134">
        <ele>34.835029</ele>
        <time>2024-08-04T14:34:56.934Z</time>
      </trkpt>
      <trkpt lat="54.33799" lon="19.11153">
        <ele>34.913794</ele>
        <time>2024-08-04T14:35:00.937Z</time>
      </trkpt>
      <trkpt lat="54.338" lon="19.11173">
        <ele>34.998381</ele>
        <time>2024-08-04T14:35:04.925Z</time>
      </trkpt>
      <trkpt lat="54.33801" lon="19.11192">
        <ele>35.075548</ele>
        <time>2024-08-04T14:35:08.937Z</time>
      </trkpt>
      <trkpt lat="54.33802" lon="19.11211">
        <ele>35.154004</ele>
        <time>2024-08-04T14:35:12.954Z</time>
      </trkpt>
      <trkpt lat="54.33802" lon="19.11228">
        <ele>35.226526</ele>
        <time>2024-08-04T14:35:16.941Z</time>
      </trkpt>
      <trkpt lat="54.33806" lon="19.11256">
        <ele>35.344634</ele>
        <time>2024-08-04T14:35:45.934Z</time>
      </trkpt>
      <trkpt lat="54.33808" lon="19.11274">
        <ele>35.425104</ele>
        <time>2024-08-04T14:35:49.929Z</time>
      </trkpt>
      <trkpt lat="54.33809" lon="19.11293">
        <ele>35.502154</ele>
        <time>2024-08-04T14:35:53.917Z</time>
      </trkpt>
      <trkpt lat="54.3381" lon="19.11309">
        <ele>35.568926</ele>
        <time>2024-08-04T14:35:56.923Z</time>
      </trkpt>
      <trkpt lat="54.33811" lon="19.11326">
        <ele>35.641677</ele>
        <time>2024-08-04T14:35:59.938Z</time>
      </trkpt>
      <trkpt lat="54.33812" lon="19.11345">
        <ele>35.719952</ele>
        <time>2024-08-04T14:36:02.942Z</time>
      </trkpt>
      <trkpt lat="54.33812" lon="19.11365">
        <ele>35.804155</ele>
        <time>2024-08-04T14:36:05.928Z</time>
      </trkpt>
      <trkpt lat="54.33815" lon="19.11385">
        <ele>35.891735</ele>
        <time>2024-08-04T14:36:08.932Z</time>
      </trkpt>
      <trkpt lat="54.33818" lon="19.11406">
        <ele>35.979905</ele>
        <time>2024-08-04T14:36:11.943Z</time>
      </trkpt>
      <trkpt lat="54.33818" lon="19.11427">
        <ele>36.068991</ele>
        <time>2024-08-04T14:36:14.926Z</time>
      </trkpt>
      <trkpt lat="54.3382" lon="19.11447">
        <ele>36.161636</ele>
        <time>2024-08-04T14:36:17.937Z</time>
      </trkpt>
      <trkpt lat="54.33821" lon="19.11468">
        <ele>36.261843</ele>
        <time>2024-08-04T14:36:20.935Z</time>
      </trkpt>
      <trkpt lat="54.33822" lon="19.11489">
        <ele>36.358917</ele>
        <time>2024-08-04T14:36:23.938Z</time>
      </trkpt>
      <trkpt lat="54.33823" lon="19.11505">
        <ele>36.430294</ele>
        <time>2024-08-04T14:36:25.929Z</time>
      </trkpt>
      <trkpt lat="54.33823" lon="19.1152">
        <ele>36.50263</ele>
        <time>2024-08-04T14:36:27.917Z</time>
      </trkpt>
      <trkpt lat="54.33825" lon="19.11544">
        <ele>36.610015</ele>
        <time>2024-08-04T14:36:30.941Z</time>
      </trkpt>
      <trkpt lat="54.33827" lon="19.11567">
        <ele>36.718102</ele>
        <time>2024-08-04T14:36:33.938Z</time>
      </trkpt>
      <trkpt lat="54.33829" lon="19.11589">
        <ele>36.820917</ele>
        <time>2024-08-04T14:36:36.936Z</time>
      </trkpt>
      <trkpt lat="54.33829" lon="19.11609">
        <ele>36.914929</ele>
        <time>2024-08-04T14:36:39.942Z</time>
      </trkpt>
      <trkpt lat="54.33831" lon="19.11625">
        <ele>36.987426</ele>
        <time>2024-08-04T14:36:41.943Z</time>
      </trkpt>
      <trkpt lat="54.33833" lon="19.11647">
        <ele>37.091223</ele>
        <time>2024-08-04T14:36:44.928Z</time>
      </trkpt>
      <trkpt lat="54.33833" lon="19.1167">
        <ele>37.195341</ele>
        <time>2024-08-04T14:36:47.934Z</time>
      </trkpt>
      <trkpt lat="54.33835" lon="19.11692">
        <ele>37.297985</ele>
        <time>2024-08-04T14:36:50.943Z</time>
      </trkpt>
      <trkpt lat="54.33836" lon="19.11712">
        <ele>37.390057</ele>
        <time>2024-08-04T14:36:53.941Z</time>
      </trkpt>
      <trkpt lat="54.33837" lon="19.11731">
        <ele>37.481942</ele>
        <time>2024-08-04T14:36:56.936Z</time>
      </trkpt>
      <trkpt lat="54.33838" lon="19.11749">
        <ele>37.580096</ele>
        <time>2024-08-04T14:36:59.933Z</time>
      </trkpt>
      <trkpt lat="54.33839" lon="19.11768">
        <ele>37.687729</ele>
        <time>2024-08-04T14:37:02.933Z</time>
      </trkpt>
      <trkpt lat="54.33842" lon="19.1179">
        <ele>37.808761</ele>
        <time>2024-08-04T14:37:05.924Z</time>
      </trkpt>
      <trkpt lat="54.33843" lon="19.11805">
        <ele>37.893717</ele>
        <time>2024-08-04T14:37:07.939Z</time>
      </trkpt>
      <trkpt lat="54.33845" lon="19.11821">
        <ele>37.982202</ele>
        <time>2024-08-04T14:37:09.923Z</time>
      </trkpt>
      <trkpt lat="54.33847" lon="19.11837">
        <ele>38.06693</ele>
        <time>2024-08-04T14:37:11.911Z</time>
      </trkpt>
      <trkpt lat="54.33848" lon="19.11853">
        <ele>38.158765</ele>
        <time>2024-08-04T14:37:13.930Z</time>
      </trkpt>
      <trkpt lat="54.33849" lon="19.11869">
        <ele>38.247561</ele>
        <time>2024-08-04T14:37:15.929Z</time>
      </trkpt>
      <trkpt lat="54.33849" lon="19.11887">
        <ele>38.341355</ele>
        <time>2024-08-04T14:37:17.943Z</time>
      </trkpt>
      <trkpt lat="54.3385" lon="19.11904">
        <ele>38.433776</ele>
        <time>2024-08-04T14:37:19.934Z</time>
      </trkpt>
      <trkpt lat="54.33851" lon="19.1192">
        <ele>38.522371</ele>
        <time>2024-08-04T14:37:21.923Z</time>
      </trkpt>
      <trkpt lat="54.33853" lon="19.11935">
        <ele>38.608551</ele>
        <time>2024-08-04T14:37:23.934Z</time>
      </trkpt>
      <trkpt lat="54.33854" lon="19.11951">
        <ele>38.696482</ele>
        <time>2024-08-04T14:37:25.928Z</time>
      </trkpt>
      <trkpt lat="54.33855" lon="19.11968">
        <ele>38.785726</ele>
        <time>2024-08-04T14:37:27.927Z</time>
      </trkpt>
      <trkpt lat="54.33855" lon="19.1199">
        <ele>38.907837</ele>
        <time>2024-08-04T14:37:30.931Z</time>
      </trkpt>
      <trkpt lat="54.33856" lon="19.12012">
        <ele>39.026564</ele>
        <time>2024-08-04T14:37:33.932Z</time>
      </trkpt>
      <trkpt lat="54.33857" lon="19.12033">
        <ele>39.121623</ele>
        <time>2024-08-04T14:37:36.935Z</time>
      </trkpt>
      <trkpt lat="54.33859" lon="19.12055">
        <ele>39.0015</ele>
        <time>2024-08-04T14:37:39.945Z</time>
      </trkpt>
      <trkpt lat="54.33859" lon="19.1207">
        <ele>38.916478</ele>
        <time>2024-08-04T14:37:41.931Z</time>
      </trkpt>
      <trkpt lat="54.3386" lon="19.12093">
        <ele>38.795883</ele>
        <time>2024-08-04T14:37:44.937Z</time>
      </trkpt>
      <trkpt lat="54.33863" lon="19.12115">
        <ele>38.675994</ele>
        <time>2024-08-04T14:37:47.933Z</time>
      </trkpt>
      <trkpt lat="54.33865" lon="19.12135">
        <ele>38.56211</ele>
        <time>2024-08-04T14:37:50.930Z</time>
      </trkpt>
      <trkpt lat="54.33867" lon="19.12152">
        <ele>38.471719</ele>
        <time>2024-08-04T14:37:52.935Z</time>
      </trkpt>
      <trkpt lat="54.33868" lon="19.12168">
        <ele>38.385203</ele>
        <time>2024-08-04T14:37:54.929Z</time>
      </trkpt>
      <trkpt lat="54.33869" lon="19.12184">
        <ele>38.298642</ele>
        <time>2024-08-04T14:37:56.933Z</time>
      </trkpt>
      <trkpt lat="54.33869" lon="19.12199">
        <ele>38.214477</ele>
        <time>2024-08-04T14:37:58.928Z</time>
      </trkpt>
      <trkpt lat="54.3387" lon="19.1222">
        <ele>38.103692</ele>
        <time>2024-08-04T14:38:01.923Z</time>
      </trkpt>
      <trkpt lat="54.33872" lon="19.12242">
        <ele>37.982642</ele>
        <time>2024-08-04T14:38:04.931Z</time>
      </trkpt>
      <trkpt lat="54.33872" lon="19.1226">
        <ele>37.882832</ele>
        <time>2024-08-04T14:38:08.942Z</time>
      </trkpt>
      <trkpt lat="54.33869" lon="19.12277">
        <ele>37.788817</ele>
        <time>2024-08-04T14:40:30.946Z</time>
      </trkpt>
      <trkpt lat="54.33862" lon="19.12292">
        <ele>37.689147</ele>
        <time>2024-08-04T14:40:34.939Z</time>
      </trkpt>
      <trkpt lat="54.33855" lon="19.12299">
        <ele>37.606662</ele>
        <time>2024-08-04T14:40:37.926Z</time>
      </trkpt>
      <trkpt lat="54.33843" lon="19.12309">
        <ele>37.491278</ele>
        <time>2024-08-04T14:40:41.944Z</time>
      </trkpt>
      <trkpt lat="54.33833" lon="19.12317">
        <ele>37.433988</ele>
        <time>2024-08-04T14:40:44.940Z</time>
      </trkpt>
      <trkpt lat="54.33823" lon="19.12325">
        <ele>37.393562</ele>
        <time>2024-08-04T14:40:47.932Z</time>
      </trkpt>
      <trkpt lat="54.33813" lon="19.12331">
        <ele>37.353317</ele>
        <time>2024-08-04T14:40:50.940Z</time>
      </trkpt>
      <trkpt lat="54.33803" lon="19.12337">
        <ele>37.314341</ele>
        <time>2024-08-04T14:40:53.944Z</time>
      </trkpt>
      <trkpt lat="54.33794" lon="19.12344">
        <ele>37.276401</ele>
        <time>2024-08-04T14:40:56.937Z</time>
      </trkpt>
      <trkpt lat="54.33785" lon="19.12351">
        <ele>37.240811</ele>
        <time>2024-08-04T14:40:59.934Z</time>
      </trkpt>
      <trkpt lat="54.33775" lon="19.1236">
        <ele>37.197779</ele>
        <time>2024-08-04T14:41:03.942Z</time>
      </trkpt>
      <trkpt lat="54.33765" lon="19.12367">
        <ele>37.159755</ele>
        <time>2024-08-04T14:41:07.939Z</time>
      </trkpt>
      <trkpt lat="54.33756" lon="19.12374">
        <ele>37.122575</ele>
        <time>2024-08-04T14:41:11.937Z</time>
      </trkpt>
      <trkpt lat="54.33746" lon="19.12382">
        <ele>37.080774</ele>
        <time>2024-08-04T14:41:15.929Z</time>
      </trkpt>
      <trkpt lat="54.33737" lon="19.12388">
        <ele>37.043972</ele>
        <time>2024-08-04T14:41:18.947Z</time>
      </trkpt>
      <trkpt lat="54.33725" lon="19.12392">
        <ele>36.999154</ele>
        <time>2024-08-04T14:41:21.948Z</time>
      </trkpt>
      <trkpt lat="54.33713" lon="19.12396">
        <ele>36.953563</ele>
        <time>2024-08-04T14:41:24.931Z</time>
      </trkpt>
      <trkpt lat="54.33701" lon="19.12399">
        <ele>36.907297</ele>
        <time>2024-08-04T14:41:27.910Z</time>
      </trkpt>
      <trkpt lat="54.3369" lon="19.12405">
        <ele>36.864446</ele>
        <time>2024-08-04T14:41:30.927Z</time>
      </trkpt>
      <trkpt lat="54.33678" lon="19.1241">
        <ele>36.820686</ele>
        <time>2024-08-04T14:41:33.938Z</time>
      </trkpt>
      <trkpt lat="54.33665" lon="19.12414">
        <ele>36.670022</ele>
        <time>2024-08-04T14:41:36.942Z</time>
      </trkpt>
      <trkpt lat="54.33656" lon="19.12418">
        <ele>36.499598</ele>
        <time>2024-08-04T14:41:38.933Z</time>
      </trkpt>
      <trkpt lat="54.33648" lon="19.12424">
        <ele>36.328069</ele>
        <time>2024-08-04T14:41:40.942Z</time>
      </trkpt>
      <trkpt lat="54.33636" lon="19.12431">
        <ele>36.09493</ele>
        <time>2024-08-04T14:41:43.937Z</time>
      </trkpt>
      <trkpt lat="54.33625" lon="19.12437">
        <ele>35.891035</ele>
        <time>2024-08-04T14:41:46.935Z</time>
      </trkpt>
      <trkpt lat="54.33616" lon="19.12443">
        <ele>35.717453</ele>
        <time>2024-08-04T14:41:49.924Z</time>
      </trkpt>
      <trkpt lat="54.33608" lon="19.12449">
        <ele>35.543393</ele>
        <time>2024-08-04T14:41:52.932Z</time>
      </trkpt>
      <trkpt lat="54.33598" lon="19.12456">
        <ele>35.35112</ele>
        <time>2024-08-04T14:41:55.935Z</time>
      </trkpt>
      <trkpt lat="54.33589" lon="19.12463">
        <ele>35.171973</ele>
        <time>2024-08-04T14:41:58.939Z</time>
      </trkpt>
      <trkpt lat="54.33578" lon="19.12463">
        <ele>34.976882</ele>
        <time>2024-08-04T14:42:04.922Z</time>
      </trkpt>
      <trkpt lat="54.33567" lon="19.12466">
        <ele>34.756441</ele>
        <time>2024-08-04T14:42:08.933Z</time>
      </trkpt>
      <trkpt lat="54.33557" lon="19.12469">
        <ele>34.571951</ele>
        <time>2024-08-04T14:42:11.919Z</time>
      </trkpt>
      <trkpt lat="54.33545" lon="19.12473">
        <ele>34.353508</ele>
        <time>2024-08-04T14:42:14.935Z</time>
      </trkpt>
      <trkpt lat="54.33536" lon="19.12479">
        <ele>34.182267</ele>
        <time>2024-08-04T14:42:16.947Z</time>
      </trkpt>
      <trkpt lat="54.33526" lon="19.12484">
        <ele>33.98573</ele>
        <time>2024-08-04T14:42:18.941Z</time>
      </trkpt>
      <trkpt lat="54.33516" lon="19.12486">
        <ele>33.794457</ele>
        <time>2024-08-04T14:42:20.931Z</time>
      </trkpt>
      <trkpt lat="54.33505" lon="19.1249">
        <ele>33.599161</ele>
        <time>2024-08-04T14:42:22.929Z</time>
      </trkpt>
      <trkpt lat="54.33496" lon="19.12493">
        <ele>33.462792</ele>
        <time>2024-08-04T14:42:24.939Z</time>
      </trkpt>
      <trkpt lat="54.33482" lon="19.12497">
        <ele>33.366343</ele>
        <time>2024-08-04T14:42:27.932Z</time>
      </trkpt>
      <trkpt lat="54.33473" lon="19.12501">
        <ele>33.298592</ele>
        <time>2024-08-04T14:42:29.935Z</time>
      </trkpt>
      <trkpt lat="54.33462" lon="19.12504">
        <ele>33.222815</ele>
        <time>2024-08-04T14:42:31.943Z</time>
      </trkpt>
      <trkpt lat="54.33451" lon="19.12509">
        <ele>33.146487</ele>
        <time>2024-08-04T14:42:33.927Z</time>
      </trkpt>
      <trkpt lat="54.33442" lon="19.12514">
        <ele>33.075077</ele>
        <time>2024-08-04T14:42:35.934Z</time>
      </trkpt>
      <trkpt lat="54.33431" lon="19.12521">
        <ele>32.99427</ele>
        <time>2024-08-04T14:42:37.915Z</time>
      </trkpt>
      <trkpt lat="54.3342" lon="19.12528">
        <ele>32.916829</ele>
        <time>2024-08-04T14:42:39.934Z</time>
      </trkpt>
      <trkpt lat="54.33411" lon="19.12534">
        <ele>32.84433</ele>
        <time>2024-08-04T14:42:41.938Z</time>
      </trkpt>
      <trkpt lat="54.33401" lon="19.12541">
        <ele>32.774306</ele>
        <time>2024-08-04T14:42:43.940Z</time>
      </trkpt>
      <trkpt lat="54.33392" lon="19.12547">
        <ele>32.70246</ele>
        <time>2024-08-04T14:42:45.941Z</time>
      </trkpt>
      <trkpt lat="54.33382" lon="19.12552">
        <ele>32.630437</ele>
        <time>2024-08-04T14:42:47.935Z</time>
      </trkpt>
      <trkpt lat="54.33372" lon="19.12558">
        <ele>32.555973</ele>
        <time>2024-08-04T14:42:49.942Z</time>
      </trkpt>
      <trkpt lat="54.33362" lon="19.12565">
        <ele>32.48173</ele>
        <time>2024-08-04T14:42:51.950Z</time>
      </trkpt>
      <trkpt lat="54.33352" lon="19.1257">
        <ele>32.40766</ele>
        <time>2024-08-04T14:42:53.946Z</time>
      </trkpt>
      <trkpt lat="54.33341" lon="19.12575">
        <ele>32.329482</ele>
        <time>2024-08-04T14:42:55.929Z</time>
      </trkpt>
      <trkpt lat="54.3333" lon="19.12575">
        <ele>32.253991</ele>
        <time>2024-08-04T14:42:57.930Z</time>
      </trkpt>
      <trkpt lat="54.33319" lon="19.12573">
        <ele>32.136811</ele>
        <time>2024-08-04T14:42:59.927Z</time>
      </trkpt>
      <trkpt lat="54.33309" lon="19.12569">
        <ele>32.012324</ele>
        <time>2024-08-04T14:43:01.937Z</time>
      </trkpt>
      <trkpt lat="54.33298" lon="19.12564">
        <ele>31.885881</ele>
        <time>2024-08-04T14:43:03.943Z</time>
      </trkpt>
      <trkpt lat="54.33288" lon="19.12559">
        <ele>31.763014</ele>
        <time>2024-08-04T14:43:05.938Z</time>
      </trkpt>
      <trkpt lat="54.33278" lon="19.12553">
        <ele>31.633307</ele>
        <time>2024-08-04T14:43:07.943Z</time>
      </trkpt>
      <trkpt lat="54.33267" lon="19.12548">
        <ele>31.501766</ele>
        <time>2024-08-04T14:43:09.930Z</time>
      </trkpt>
      <trkpt lat="54.33257" lon="19.12543">
        <ele>31.381164</ele>
        <time>2024-08-04T14:43:11.959Z</time>
      </trkpt>
      <trkpt lat="54.33248" lon="19.12537">
        <ele>31.263467</ele>
        <time>2024-08-04T14:43:13.945Z</time>
      </trkpt>
      <trkpt lat="54.33239" lon="19.12531">
        <ele>31.146462</ele>
        <time>2024-08-04T14:43:15.938Z</time>
      </trkpt>
      <trkpt lat="54.33229" lon="19.12526">
        <ele>31.025674</ele>
        <time>2024-08-04T14:43:17.931Z</time>
      </trkpt>
      <trkpt lat="54.33219" lon="19.12522">
        <ele>30.90998</ele>
        <time>2024-08-04T14:43:19.939Z</time>
      </trkpt>
      <trkpt lat="54.3321" lon="19.12519">
        <ele>30.795363</ele>
        <time>2024-08-04T14:43:21.940Z</time>
      </trkpt>
      <trkpt lat="54.332" lon="19.12518">
        <ele>30.676408</ele>
        <time>2024-08-04T14:43:23.930Z</time>
      </trkpt>
      <trkpt lat="54.3319" lon="19.12519">
        <ele>30.558435</ele>
        <time>2024-08-04T14:43:25.923Z</time>
      </trkpt>
      <trkpt lat="54.3318" lon="19.1252">
        <ele>30.447695</ele>
        <time>2024-08-04T14:43:27.927Z</time>
      </trkpt>
      <trkpt lat="54.3317" lon="19.12522">
        <ele>30.328298</ele>
        <time>2024-08-04T14:43:29.931Z</time>
      </trkpt>
      <trkpt lat="54.33161" lon="19.12524">
        <ele>30.216183</ele>
        <time>2024-08-04T14:43:31.930Z</time>
      </trkpt>
      <trkpt lat="54.3315" lon="19.12525">
        <ele>30.125844</ele>
        <time>2024-08-04T14:43:33.914Z</time>
      </trkpt>
      <trkpt lat="54.33141" lon="19.12525">
        <ele>30.159726</ele>
        <time>2024-08-04T14:43:35.936Z</time>
      </trkpt>
      <trkpt lat="54.3313" lon="19.12526">
        <ele>30.196464</ele>
        <time>2024-08-04T14:43:37.931Z</time>
      </trkpt>
      <trkpt lat="54.3312" lon="19.12527">
        <ele>30.232801</ele>
        <time>2024-08-04T14:43:39.933Z</time>
      </trkpt>
      <trkpt lat="54.33109" lon="19.12528">
        <ele>30.26993</ele>
        <time>2024-08-04T14:43:41.937Z</time>
      </trkpt>
      <trkpt lat="54.33098" lon="19.12529">
        <ele>30.310163</ele>
        <time>2024-08-04T14:43:43.920Z</time>
      </trkpt>
      <trkpt lat="54.33087" lon="19.12529">
        <ele>30.348263</ele>
        <time>2024-08-04T14:43:45.942Z</time>
      </trkpt>
      <trkpt lat="54.33076" lon="19.12527">
        <ele>30.388</ele>
        <time>2024-08-04T14:43:47.934Z</time>
      </trkpt>
      <trkpt lat="54.33065" lon="19.12523">
        <ele>30.426669</ele>
        <time>2024-08-04T14:43:49.916Z</time>
      </trkpt>
      <trkpt lat="54.33055" lon="19.12517">
        <ele>30.465503</ele>
        <time>2024-08-04T14:43:51.930Z</time>
      </trkpt>
      <trkpt lat="54.33046" lon="19.1251">
        <ele>30.500918</ele>
        <time>2024-08-04T14:43:53.926Z</time>
      </trkpt>
      <trkpt lat="54.33036" lon="19.12503">
        <ele>30.537574</ele>
        <time>2024-08-04T14:43:55.922Z</time>
      </trkpt>
      <trkpt lat="54.33027" lon="19.12497">
        <ele>30.573573</ele>
        <time>2024-08-04T14:43:57.927Z</time>
      </trkpt>
      <trkpt lat="54.33017" lon="19.12489">
        <ele>30.609589</ele>
        <time>2024-08-04T14:43:59.934Z</time>
      </trkpt>
      <trkpt lat="54.33008" lon="19.12482">
        <ele>30.644936</ele>
        <time>2024-08-04T14:44:01.945Z</time>
      </trkpt>
      <trkpt lat="54.32999" lon="19.12475">
        <ele>30.680108</ele>
        <time>2024-08-04T14:44:03.928Z</time>
      </trkpt>
      <trkpt lat="54.3299" lon="19.1247">
        <ele>30.713947</ele>
        <time>2024-08-04T14:44:05.935Z</time>
      </trkpt>
      <trkpt lat="54.32981" lon="19.12464">
        <ele>30.747675</ele>
        <time>2024-08-04T14:44:07.941Z</time>
      </trkpt>
      <trkpt lat="54.32972" lon="19.12458">
        <ele>30.822781</ele>
        <time>2024-08-04T14:44:09.938Z</time>
      </trkpt>
      <trkpt lat="54.32963" lon="19.12451">
        <ele>30.910129</ele>
        <time>2024-08-04T14:44:11.932Z</time>
      </trkpt>
      <trkpt lat="54.32954" lon="19.12445">
        <ele>30.99099</ele>
        <time>2024-08-04T14:44:13.937Z</time>
      </trkpt>
      <trkpt lat="54.32944" lon="19.1244">
        <ele>31.079235</ele>
        <time>2024-08-04T14:44:15.941Z</time>
      </trkpt>
      <trkpt lat="54.32934" lon="19.12436">
        <ele>31.167226</ele>
        <time>2024-08-04T14:44:17.927Z</time>
      </trkpt>
      <trkpt lat="54.32924" lon="19.12433">
        <ele>31.253262</ele>
        <time>2024-08-04T14:44:19.935Z</time>
      </trkpt>
      <trkpt lat="54.32914" lon="19.12431">
        <ele>31.344327</ele>
        <time>2024-08-04T14:44:21.926Z</time>
      </trkpt>
      <trkpt lat="54.32903" lon="19.1243">
        <ele>31.434273</ele>
        <time>2024-08-04T14:44:23.926Z</time>
      </trkpt>
      <trkpt lat="54.32892" lon="19.1243">
        <ele>31.525892</ele>
        <time>2024-08-04T14:44:25.938Z</time>
      </trkpt>
      <trkpt lat="54.32882" lon="19.12429">
        <ele>31.613356</ele>
        <time>2024-08-04T14:44:27.931Z</time>
      </trkpt>
      <trkpt lat="54.32872" lon="19.12428">
        <ele>31.698257</ele>
        <time>2024-08-04T14:44:29.941Z</time>
      </trkpt>
      <trkpt lat="54.32862" lon="19.12426">
        <ele>31.786061</ele>
        <time>2024-08-04T14:44:31.930Z</time>
      </trkpt>
      <trkpt lat="54.32852" lon="19.12423">
        <ele>31.871849</ele>
        <time>2024-08-04T14:44:33.929Z</time>
      </trkpt>
      <trkpt lat="54.32842" lon="19.12419">
        <ele>31.95762</ele>
        <time>2024-08-04T14:44:35.944Z</time>
      </trkpt>
      <trkpt lat="54.32833" lon="19.12417">
        <ele>32.040321</ele>
        <time>2024-08-04T14:44:37.941Z</time>
      </trkpt>
      <trkpt lat="54.32823" lon="19.12416">
        <ele>32.120953</ele>
        <time>2024-08-04T14:44:39.938Z</time>
      </trkpt>
      <trkpt lat="54.32814" lon="19.12416">
        <ele>32.20311</ele>
        <time>2024-08-04T14:44:41.996Z</time>
      </trkpt>
      <trkpt lat="54.32804" lon="19.12418">
        <ele>32.286338</ele>
        <time>2024-08-04T14:44:43.932Z</time>
      </trkpt>
      <trkpt lat="54.32795" lon="19.12423">
        <ele>32.353816</ele>
        <time>2024-08-04T14:44:45.934Z</time>
      </trkpt>
      <trkpt lat="54.32786" lon="19.12431">
        <ele>32.417164</ele>
        <time>2024-08-04T14:44:47.920Z</time>
      </trkpt>
      <trkpt lat="54.32777" lon="19.1244">
        <ele>32.48978</ele>
        <time>2024-08-04T14:44:49.926Z</time>
      </trkpt>
      <trkpt lat="54.32768" lon="19.1245">
        <ele>32.560924</ele>
        <time>2024-08-04T14:44:51.939Z</time>
      </trkpt>
      <trkpt lat="54.32759" lon="19.1246">
        <ele>32.631506</ele>
        <time>2024-08-04T14:44:53.927Z</time>
      </trkpt>
      <trkpt lat="54.3275" lon="19.12471">
        <ele>32.707172</ele>
        <time>2024-08-04T14:44:57.932Z</time>
      </trkpt>
      <trkpt lat="54.32742" lon="19.12481">
        <ele>32.768936</ele>
        <time>2024-08-04T14:45:00.940Z</time>
      </trkpt>
      <trkpt lat="54.32733" lon="19.12491">
        <ele>32.841142</ele>
        <time>2024-08-04T14:45:03.930Z</time>
      </trkpt>
      <trkpt lat="54.32722" lon="19.12502">
        <ele>32.926889</ele>
        <time>2024-08-04T14:45:06.931Z</time>
      </trkpt>
      <trkpt lat="54.32711" lon="19.12513">
        <ele>33.014762</ele>
        <time>2024-08-04T14:45:09.942Z</time>
      </trkpt>
      <trkpt lat="54.32702" lon="19.1252">
        <ele>33.076239</ele>
        <time>2024-08-04T14:45:11.931Z</time>
      </trkpt>
      <trkpt lat="54.32694" lon="19.12528">
        <ele>33.138232</ele>
        <time>2024-08-04T14:45:13.934Z</time>
      </trkpt>
      <trkpt lat="54.32683" lon="19.12538">
        <ele>33.225145</ele>
        <time>2024-08-04T14:45:16.940Z</time>
      </trkpt>
      <trkpt lat="54.32672" lon="19.1255">
        <ele>33.307459</ele>
        <time>2024-08-04T14:45:19.941Z</time>
      </trkpt>
      <trkpt lat="54.32663" lon="19.12558">
        <ele>33.379737</ele>
        <time>2024-08-04T14:45:22.938Z</time>
      </trkpt>
      <trkpt lat="54.32662" lon="19.12577">
        <ele>33.451929</ele>
        <time>2024-08-04T14:45:27.928Z</time>
      </trkpt>
      <trkpt lat="54.3266" lon="19.12597">
        <ele>33.479364</ele>
        <time>2024-08-04T14:45:31.923Z</time>
      </trkpt>
      <trkpt lat="54.32655" lon="19.12612">
        <ele>33.457384</ele>
        <time>2024-08-04T14:45:34.935Z</time>
      </trkpt>
      <trkpt lat="54.32649" lon="19.12625">
        <ele>33.436489</ele>
        <time>2024-08-04T14:45:37.916Z</time>
      </trkpt>
      <trkpt lat="54.32643" lon="19.12639">
        <ele>33.413735</ele>
        <time>2024-08-04T14:45:40.956Z</time>
      </trkpt>
      <trkpt lat="54.32642" lon="19.12659">
        <ele>33.388728</ele>
        <time>2024-08-04T14:45:43.926Z</time>
      </trkpt>
      <trkpt lat="54.32643" lon="19.1268">
        <ele>33.362301</ele>
        <time>2024-08-04T14:45:47.919Z</time>
      </trkpt>
      <trkpt lat="54.32645" lon="19.12698">
        <ele>33.338915</ele>
        <time>2024-08-04T14:45:50.916Z</time>
      </trkpt>
      <trkpt lat="54.32647" lon="19.12717">
        <ele>33.313514</ele>
        <time>2024-08-04T14:45:53.927Z</time>
      </trkpt>
      <trkpt lat="54.32649" lon="19.12738">
        <ele>33.287228</ele>
        <time>2024-08-04T14:45:56.919Z</time>
      </trkpt>
      <trkpt lat="54.3265" lon="19.12759">
        <ele>33.26018</ele>
        <time>2024-08-04T14:45:59.920Z</time>
      </trkpt>
      <trkpt lat="54.32652" lon="19.1278">
        <ele>33.233158</ele>
        <time>2024-08-04T14:46:02.916Z</time>
      </trkpt>
      <trkpt lat="54.32654" lon="19.128">
        <ele>33.206093</ele>
        <time>2024-08-04T14:46:05.916Z</time>
      </trkpt>
      <trkpt lat="54.32656" lon="19.1282">
        <ele>33.180769</ele>
        <time>2024-08-04T14:46:08.920Z</time>
      </trkpt>
      <trkpt lat="54.32659" lon="19.12838">
        <ele>33.157238</ele>
        <time>2024-08-04T14:46:11.917Z</time>
      </trkpt>
      <trkpt lat="54.32662" lon="19.12855">
        <ele>33.133903</ele>
        <time>2024-08-04T14:46:15.913Z</time>
      </trkpt>
      <trkpt lat="54.32654" lon="19.12876">
        <ele>33.102198</ele>
        <time>2024-08-04T14:46:35.935Z</time>
      </trkpt>
      <trkpt lat="54.32654" lon="19.12895">
        <ele>32.926967</ele>
        <time>2024-08-04T14:46:39.929Z</time>
      </trkpt>
      <trkpt lat="54.32656" lon="19.12912">
        <ele>32.737706</ele>
        <time>2024-08-04T14:46:42.928Z</time>
      </trkpt>
      <trkpt lat="54.32653" lon="19.1293">
        <ele>32.529044</ele>
        <time>2024-08-04T14:46:45.934Z</time>
      </trkpt>
      <trkpt lat="54.32652" lon="19.12946">
        <ele>32.346493</ele>
        <time>2024-08-04T14:46:47.949Z</time>
      </trkpt>
      <trkpt lat="54.32653" lon="19.12965">
        <ele>32.129673</ele>
        <time>2024-08-04T14:46:49.944Z</time>
      </trkpt>
      <trkpt lat="54.32655" lon="19.12985">
        <ele>31.906809</ele>
        <time>2024-08-04T14:46:51.944Z</time>
      </trkpt>
      <trkpt lat="54.32656" lon="19.13007">
        <ele>31.664097</ele>
        <time>2024-08-04T14:46:53.941Z</time>
      </trkpt>
      <trkpt lat="54.32659" lon="19.1303">
        <ele>31.399184</ele>
        <time>2024-08-04T14:46:55.940Z</time>
      </trkpt>
      <trkpt lat="54.32661" lon="19.13054">
        <ele>31.123946</ele>
        <time>2024-08-04T14:46:57.932Z</time>
      </trkpt>
      <trkpt lat="54.32662" lon="19.13079">
        <ele>30.843912</ele>
        <time>2024-08-04T14:46:59.940Z</time>
      </trkpt>
      <trkpt lat="54.32663" lon="19.13106">
        <ele>30.552762</ele>
        <time>2024-08-04T14:47:01.930Z</time>
      </trkpt>
      <trkpt lat="54.32664" lon="19.13132">
        <ele>30.25816</ele>
        <time>2024-08-04T14:47:03.930Z</time>
      </trkpt>
      <trkpt lat="54.32664" lon="19.13159">
        <ele>29.958585</ele>
        <time>2024-08-04T14:47:05.945Z</time>
      </trkpt>
      <trkpt lat="54.32664" lon="19.13185">
        <ele>29.666605</ele>
        <time>2024-08-04T14:47:07.943Z</time>
      </trkpt>
      <trkpt lat="54.32663" lon="19.1321">
        <ele>29.635186</ele>
        <time>2024-08-04T14:47:09.927Z</time>
      </trkpt>
      <trkpt lat="54.32663" lon="19.13234">
        <ele>29.606788</ele>
        <time>2024-08-04T14:47:11.948Z</time>
      </trkpt>
      <trkpt lat="54.32662" lon="19.13257">
        <ele>29.579545</ele>
        <time>2024-08-04T14:47:13.955Z</time>
      </trkpt>
      <trkpt lat="54.32662" lon="19.1328">
        <ele>29.55222</ele>
        <time>2024-08-04T14:47:15.917Z</time>
      </trkpt>
      <trkpt lat="54.32662" lon="19.13303">
        <ele>29.525361</ele>
        <time>2024-08-04T14:47:17.958Z</time>
      </trkpt>
      <trkpt lat="54.32661" lon="19.13326">
        <ele>29.499197</ele>
        <time>2024-08-04T14:47:19.957Z</time>
      </trkpt>
      <trkpt lat="54.32661" lon="19.13348">
        <ele>29.472693</ele>
        <time>2024-08-04T14:47:21.932Z</time>
      </trkpt>
      <trkpt lat="54.32661" lon="19.1337">
        <ele>29.44654</ele>
        <time>2024-08-04T14:47:23.948Z</time>
      </trkpt>
      <trkpt lat="54.32661" lon="19.13393">
        <ele>29.420499</ele>
        <time>2024-08-04T14:47:25.946Z</time>
      </trkpt>
      <trkpt lat="54.32661" lon="19.13413">
        <ele>29.39622</ele>
        <time>2024-08-04T14:47:27.940Z</time>
      </trkpt>
      <trkpt lat="54.3266" lon="19.13432">
        <ele>29.374048</ele>
        <time>2024-08-04T14:47:29.953Z</time>
      </trkpt>
      <trkpt lat="54.3266" lon="19.1345">
        <ele>29.353744</ele>
        <time>2024-08-04T14:47:31.958Z</time>
      </trkpt>
      <trkpt lat="54.3266" lon="19.13466">
        <ele>29.334501</ele>
        <time>2024-08-04T14:47:33.955Z</time>
      </trkpt>
      <trkpt lat="54.3266" lon="19.13482">
        <ele>29.315968</ele>
        <time>2024-08-04T14:47:35.939Z</time>
      </trkpt>
      <trkpt lat="54.32659" lon="19.135">
        <ele>29.305709</ele>
        <time>2024-08-04T14:47:37.949Z</time>
      </trkpt>
      <trkpt lat="54.32659" lon="19.13521">
        <ele>29.317524</ele>
        <time>2024-08-04T14:47:39.943Z</time>
      </trkpt>
      <trkpt lat="54.32659" lon="19.13545">
        <ele>29.331033</ele>
        <time>2024-08-04T14:47:41.963Z</time>
      </trkpt>
      <trkpt lat="54.32659" lon="19.1357">
        <ele>29.345675</ele>
        <time>2024-08-04T14:47:43.937Z</time>
      </trkpt>
      <trkpt lat="54.3266" lon="19.13596">
        <ele>29.360406</ele>
        <time>2024-08-04T14:47:45.945Z</time>
      </trkpt>
      <trkpt lat="54.32662" lon="19.13621">
        <ele>29.374716</ele>
        <time>2024-08-04T14:47:47.927Z</time>
      </trkpt>
      <trkpt lat="54.32663" lon="19.13646">
        <ele>29.3888</ele>
        <time>2024-08-04T14:47:49.953Z</time>
      </trkpt>
      <trkpt lat="54.32664" lon="19.1367">
        <ele>29.402675</ele>
        <time>2024-08-04T14:47:51.936Z</time>
      </trkpt>
      <trkpt lat="54.32666" lon="19.13694">
        <ele>29.416295</ele>
        <time>2024-08-04T14:47:53.940Z</time>
      </trkpt>
      <trkpt lat="54.32668" lon="19.13717">
        <ele>29.429103</ele>
        <time>2024-08-04T14:47:55.949Z</time>
      </trkpt>
      <trkpt lat="54.32669" lon="19.13739">
        <ele>29.442001</ele>
        <time>2024-08-04T14:47:57.954Z</time>
      </trkpt>
      <trkpt lat="54.3267" lon="19.13762">
        <ele>29.454816</ele>
        <time>2024-08-04T14:47:59.937Z</time>
      </trkpt>
      <trkpt lat="54.32671" lon="19.13784">
        <ele>29.467565</ele>
        <time>2024-08-04T14:48:01.950Z</time>
      </trkpt>
      <trkpt lat="54.32673" lon="19.13806">
        <ele>29.480071</ele>
        <time>2024-08-04T14:48:03.938Z</time>
      </trkpt>
      <trkpt lat="54.32675" lon="19.13826">
        <ele>29.492136</ele>
        <time>2024-08-04T14:48:05.947Z</time>
      </trkpt>
      <trkpt lat="54.32677" lon="19.13845">
        <ele>29.504038</ele>
        <time>2024-08-04T14:48:07.945Z</time>
      </trkpt>
      <trkpt lat="54.32679" lon="19.13865">
        <ele>29.515831</ele>
        <time>2024-08-04T14:48:09.956Z</time>
      </trkpt>
      <trkpt lat="54.3268" lon="19.13885">
        <ele>29.527551</ele>
        <time>2024-08-04T14:48:11.946Z</time>
      </trkpt>
      <trkpt lat="54.32681" lon="19.13906">
        <ele>29.540043</ele>
        <time>2024-08-04T14:48:13.941Z</time>
      </trkpt>
      <trkpt lat="54.32682" lon="19.13927">
        <ele>29.552839</ele>
        <time>2024-08-04T14:48:15.956Z</time>
      </trkpt>
      <trkpt lat="54.32683" lon="19.13949">
        <ele>29.565882</ele>
        <time>2024-08-04T14:48:17.929Z</time>
      </trkpt>
      <trkpt lat="54.32685" lon="19.13971">
        <ele>29.579032</ele>
        <time>2024-08-04T14:48:19.949Z</time>
      </trkpt>
      <trkpt lat="54.32686" lon="19.13993">
        <ele>29.59246</ele>
        <time>2024-08-04T14:48:21.941Z</time>
      </trkpt>
      <trkpt lat="54.32686" lon="19.14015">
        <ele>29.605484</ele>
        <time>2024-08-04T14:48:23.949Z</time>
      </trkpt>
      <trkpt lat="54.32685" lon="19.14037">
        <ele>29.618522</ele>
        <time>2024-08-04T14:48:25.940Z</time>
      </trkpt>
      <trkpt lat="54.32685" lon="19.14059">
        <ele>29.631552</ele>
        <time>2024-08-04T14:48:27.938Z</time>
      </trkpt>
      <trkpt lat="54.32685" lon="19.14081">
        <ele>29.644461</ele>
        <time>2024-08-04T14:48:29.942Z</time>
      </trkpt>
      <trkpt lat="54.32683" lon="19.14102">
        <ele>29.65704</ele>
        <time>2024-08-04T14:48:31.954Z</time>
      </trkpt>
      <trkpt lat="54.32682" lon="19.14123">
        <ele>29.677069</ele>
        <time>2024-08-04T14:48:33.939Z</time>
      </trkpt>
      <trkpt lat="54.32681" lon="19.14146">
        <ele>29.700037</ele>
        <time>2024-08-04T14:48:35.936Z</time>
      </trkpt>
      <trkpt lat="54.32679" lon="19.14168">
        <ele>29.723001</ele>
        <time>2024-08-04T14:48:37.939Z</time>
      </trkpt>
      <trkpt lat="54.32677" lon="19.1419">
        <ele>29.746601</ele>
        <time>2024-08-04T14:48:39.942Z</time>
      </trkpt>
      <trkpt lat="54.32677" lon="19.14212">
        <ele>29.769368</ele>
        <time>2024-08-04T14:48:41.924Z</time>
      </trkpt>
      <trkpt lat="54.32675" lon="19.14233">
        <ele>29.791413</ele>
        <time>2024-08-04T14:48:43.945Z</time>
      </trkpt>
      <trkpt lat="54.32673" lon="19.14255">
        <ele>29.814032</ele>
        <time>2024-08-04T14:48:45.931Z</time>
      </trkpt>
      <trkpt lat="54.3267" lon="19.14275">
        <ele>29.835221</ele>
        <time>2024-08-04T14:48:47.951Z</time>
      </trkpt>
      <trkpt lat="54.32667" lon="19.14295">
        <ele>29.85589</ele>
        <time>2024-08-04T14:48:49.952Z</time>
      </trkpt>
      <trkpt lat="54.32666" lon="19.14314">
        <ele>29.876174</ele>
        <time>2024-08-04T14:48:51.966Z</time>
      </trkpt>
      <trkpt lat="54.32665" lon="19.14334">
        <ele>29.896374</ele>
        <time>2024-08-04T14:48:53.946Z</time>
      </trkpt>
      <trkpt lat="54.32664" lon="19.14353">
        <ele>29.916491</ele>
        <time>2024-08-04T14:48:55.939Z</time>
      </trkpt>
      <trkpt lat="54.32663" lon="19.14372">
        <ele>29.936468</ele>
        <time>2024-08-04T14:48:57.930Z</time>
      </trkpt>
      <trkpt lat="54.32662" lon="19.14392">
        <ele>29.956224</ele>
        <time>2024-08-04T14:48:59.941Z</time>
      </trkpt>
      <trkpt lat="54.3266" lon="19.1441">
        <ele>29.97499</ele>
        <time>2024-08-04T14:49:01.957Z</time>
      </trkpt>
      <trkpt lat="54.32659" lon="19.14428">
        <ele>30.013686</ele>
        <time>2024-08-04T14:49:03.944Z</time>
      </trkpt>
      <trkpt lat="54.32658" lon="19.14448">
        <ele>30.060635</ele>
        <time>2024-08-04T14:49:05.938Z</time>
      </trkpt>
      <trkpt lat="54.32657" lon="19.1447">
        <ele>30.111694</ele>
        <time>2024-08-04T14:49:07.945Z</time>
      </trkpt>
      <trkpt lat="54.32655" lon="19.14492">
        <ele>30.162088</ele>
        <time>2024-08-04T14:49:09.945Z</time>
      </trkpt>
      <trkpt lat="54.32653" lon="19.14512">
        <ele>30.211386</ele>
        <time>2024-08-04T14:49:11.940Z</time>
      </trkpt>
      <trkpt lat="54.3265" lon="19.14534">
        <ele>30.263026</ele>
        <time>2024-08-04T14:49:13.944Z</time>
      </trkpt>
      <trkpt lat="54.32648" lon="19.14556">
        <ele>30.313023</ele>
        <time>2024-08-04T14:49:15.954Z</time>
      </trkpt>
      <trkpt lat="54.32646" lon="19.14577">
        <ele>30.363707</ele>
        <time>2024-08-04T14:49:17.949Z</time>
      </trkpt>
      <trkpt lat="54.32645" lon="19.14599">
        <ele>30.413476</ele>
        <time>2024-08-04T14:49:19.956Z</time>
      </trkpt>
      <trkpt lat="54.32643" lon="19.14619">
        <ele>30.462207</ele>
        <time>2024-08-04T14:49:21.954Z</time>
      </trkpt>
      <trkpt lat="54.32641" lon="19.14641">
        <ele>30.512206</ele>
        <time>2024-08-04T14:49:23.938Z</time>
      </trkpt>
      <trkpt lat="54.3264" lon="19.14663">
        <ele>30.562989</ele>
        <time>2024-08-04T14:49:25.933Z</time>
      </trkpt>
      <trkpt lat="54.32639" lon="19.14684">
        <ele>30.6134</ele>
        <time>2024-08-04T14:49:27.946Z</time>
      </trkpt>
      <trkpt lat="54.32637" lon="19.14706">
        <ele>30.665238</ele>
        <time>2024-08-04T14:49:29.935Z</time>
      </trkpt>
      <trkpt lat="54.32636" lon="19.14728">
        <ele>30.776087</ele>
        <time>2024-08-04T14:49:31.935Z</time>
      </trkpt>
      <trkpt lat="54.32635" lon="19.14751">
        <ele>30.962402</ele>
        <time>2024-08-04T14:49:33.945Z</time>
      </trkpt>
      <trkpt lat="54.32634" lon="19.14771">
        <ele>31.132402</ele>
        <time>2024-08-04T14:49:35.930Z</time>
      </trkpt>
      <trkpt lat="54.32634" lon="19.14791">
        <ele>31.300856</ele>
        <time>2024-08-04T14:49:37.944Z</time>
      </trkpt>
      <trkpt lat="54.32632" lon="19.14809">
        <ele>31.448663</ele>
        <time>2024-08-04T14:49:39.938Z</time>
      </trkpt>
      <trkpt lat="54.32631" lon="19.14824">
        <ele>31.576962</ele>
        <time>2024-08-04T14:49:41.945Z</time>
      </trkpt>
      <trkpt lat="54.3263" lon="19.14843">
        <ele>31.733232</ele>
        <time>2024-08-04T14:49:44.935Z</time>
      </trkpt>
      <trkpt lat="54.3263" lon="19.14861">
        <ele>31.880943</ele>
        <time>2024-08-04T14:49:47.940Z</time>
      </trkpt>
      <trkpt lat="54.3263" lon="19.14878">
        <ele>32.023674</ele>
        <time>2024-08-04T14:49:50.929Z</time>
      </trkpt>
      <trkpt lat="54.3263" lon="19.14894">
        <ele>32.154789</ele>
        <time>2024-08-04T14:49:53.930Z</time>
      </trkpt>
      <trkpt lat="54.32629" lon="19.1491">
        <ele>32.293482</ele>
        <time>2024-08-04T14:49:56.933Z</time>
      </trkpt>
      <trkpt lat="54.32629" lon="19.14929">
        <ele>32.445341</ele>
        <time>2024-08-04T14:50:00.936Z</time>
      </trkpt>
      <trkpt lat="54.32633" lon="19.14955">
        <ele>32.669837</ele>
        <time>2024-08-04T14:52:09.922Z</time>
      </trkpt>
      <trkpt lat="54.32632" lon="19.14971">
        <ele>32.800228</ele>
        <time>2024-08-04T14:52:12.926Z</time>
      </trkpt>
      <trkpt lat="54.3263" lon="19.14989">
        <ele>32.956102</ele>
        <time>2024-08-04T14:52:15.927Z</time>
      </trkpt>
      <trkpt lat="54.32627" lon="19.15009">
        <ele>33.12645</ele>
        <time>2024-08-04T14:52:18.929Z</time>
      </trkpt>
      <trkpt lat="54.32626" lon="19.1503">
        <ele>33.253457</ele>
        <time>2024-08-04T14:52:21.929Z</time>
      </trkpt>
      <trkpt lat="54.32625" lon="19.15046">
        <ele>33.25638</ele>
        <time>2024-08-04T14:52:23.911Z</time>
      </trkpt>
      <trkpt lat="54.32625" lon="19.15063">
        <ele>33.259354</ele>
        <time>2024-08-04T14:52:25.927Z</time>
      </trkpt>
      <trkpt lat="54.32625" lon="19.1508">
        <ele>33.262602</ele>
        <time>2024-08-04T14:52:27.929Z</time>
      </trkpt>
      <trkpt lat="54.32626" lon="19.15099">
        <ele>33.265979</ele>
        <time>2024-08-04T14:52:29.934Z</time>
      </trkpt>
      <trkpt lat="54.32626" lon="19.15118">
        <ele>33.26945</ele>
        <time>2024-08-04T14:52:31.932Z</time>
      </trkpt>
      <trkpt lat="54.32627" lon="19.15137">
        <ele>33.273117</ele>
        <time>2024-08-04T14:52:33.930Z</time>
      </trkpt>
      <trkpt lat="54.32629" lon="19.15158">
        <ele>33.276861</ele>
        <time>2024-08-04T14:52:35.923Z</time>
      </trkpt>
      <trkpt lat="54.32631" lon="19.15178">
        <ele>33.280569</ele>
        <time>2024-08-04T14:52:37.933Z</time>
      </trkpt>
      <trkpt lat="54.32632" lon="19.15198">
        <ele>33.284385</ele>
        <time>2024-08-04T14:52:39.921Z</time>
      </trkpt>
      <trkpt lat="54.32633" lon="19.1522">
        <ele>33.288387</ele>
        <time>2024-08-04T14:52:41.931Z</time>
      </trkpt>
      <trkpt lat="54.32634" lon="19.15241">
        <ele>33.292261</ele>
        <time>2024-08-04T14:52:43.941Z</time>
      </trkpt>
      <trkpt lat="54.32634" lon="19.15262">
        <ele>33.296153</ele>
        <time>2024-08-04T14:52:45.930Z</time>
      </trkpt>
      <trkpt lat="54.32634" lon="19.15283">
        <ele>33.300025</ele>
        <time>2024-08-04T14:52:47.929Z</time>
      </trkpt>
      <trkpt lat="54.32632" lon="19.15304">
        <ele>33.303811</ele>
        <time>2024-08-04T14:52:49.933Z</time>
      </trkpt>
      <trkpt lat="54.32631" lon="19.15324">
        <ele>33.307503</ele>
        <time>2024-08-04T14:52:51.941Z</time>
      </trkpt>
      <trkpt lat="54.3263" lon="19.15346">
        <ele>33.27945</ele>
        <time>2024-08-04T14:52:53.938Z</time>
      </trkpt>
      <trkpt lat="54.32628" lon="19.15367">
        <ele>33.237509</ele>
        <time>2024-08-04T14:52:55.937Z</time>
      </trkpt>
      <trkpt lat="54.32626" lon="19.15387">
        <ele>33.194655</ele>
        <time>2024-08-04T14:52:57.923Z</time>
      </trkpt>
      <trkpt lat="54.32624" lon="19.15409">
        <ele>33.150323</ele>
        <time>2024-08-04T14:52:59.939Z</time>
      </trkpt>
      <trkpt lat="54.32622" lon="19.1543">
        <ele>33.106842</ele>
        <time>2024-08-04T14:53:01.932Z</time>
      </trkpt>
      <trkpt lat="54.3262" lon="19.15452">
        <ele>33.062185</ele>
        <time>2024-08-04T14:53:03.937Z</time>
      </trkpt>
      <trkpt lat="54.32619" lon="19.15474">
        <ele>33.019092</ele>
        <time>2024-08-04T14:53:05.934Z</time>
      </trkpt>
      <trkpt lat="54.32617" lon="19.15494">
        <ele>32.976679</ele>
        <time>2024-08-04T14:53:07.931Z</time>
      </trkpt>
      <trkpt lat="54.32617" lon="19.15516">
        <ele>32.933206</ele>
        <time>2024-08-04T14:53:09.944Z</time>
      </trkpt>
      <trkpt lat="54.32616" lon="19.15537">
        <ele>32.889816</ele>
        <time>2024-08-04T14:53:11.961Z</time>
      </trkpt>
      <trkpt lat="54.32617" lon="19.15558">
        <ele>32.848044</ele>
        <time>2024-08-04T14:53:13.935Z</time>
      </trkpt>
      <trkpt lat="54.32618" lon="19.15578">
        <ele>32.806904</ele>
        <time>2024-08-04T14:53:15.952Z</time>
      </trkpt>
      <trkpt lat="54.32619" lon="19.15598">
        <ele>32.768036</ele>
        <time>2024-08-04T14:53:17.936Z</time>
      </trkpt>
      <trkpt lat="54.3262" lon="19.15617">
        <ele>32.72823</ele>
        <time>2024-08-04T14:53:19.944Z</time>
      </trkpt>
      <trkpt lat="54.32621" lon="19.15636">
        <ele>32.690619</ele>
        <time>2024-08-04T14:53:21.953Z</time>
      </trkpt>
      <trkpt lat="54.32621" lon="19.15655">
        <ele>32.454024</ele>
        <time>2024-08-04T14:53:24.937Z</time>
      </trkpt>
      <trkpt lat="54.32625" lon="19.15676">
        <ele>32.161415</ele>
        <time>2024-08-04T14:56:49.927Z</time>
      </trkpt>
      <trkpt lat="54.32627" lon="19.15696">
        <ele>31.880702</ele>
        <time>2024-08-04T14:56:53.946Z</time>
      </trkpt>
      <trkpt lat="54.3263" lon="19.15714">
        <ele>31.629109</ele>
        <time>2024-08-04T14:56:56.939Z</time>
      </trkpt>
      <trkpt lat="54.32631" lon="19.15735">
        <ele>31.352324</ele>
        <time>2024-08-04T14:56:59.948Z</time>
      </trkpt>
      <trkpt lat="54.32633" lon="19.15756">
        <ele>31.052599</ele>
        <time>2024-08-04T14:57:02.949Z</time>
      </trkpt>
      <trkpt lat="54.32635" lon="19.15772">
        <ele>30.835352</ele>
        <time>2024-08-04T14:57:04.945Z</time>
      </trkpt>
      <trkpt lat="54.32637" lon="19.15795">
        <ele>30.526738</ele>
        <time>2024-08-04T14:57:07.927Z</time>
      </trkpt>
      <trkpt lat="54.32638" lon="19.15816">
        <ele>30.24032</ele>
        <time>2024-08-04T14:57:10.972Z</time>
      </trkpt>
      <trkpt lat="54.32639" lon="19.15835">
        <ele>29.979182</ele>
        <time>2024-08-04T14:57:13.949Z</time>
      </trkpt>
      <trkpt lat="54.32641" lon="19.15855">
        <ele>29.706434</ele>
        <time>2024-08-04T14:57:16.953Z</time>
      </trkpt>
      <trkpt lat="54.32642" lon="19.15875">
        <ele>29.435031</ele>
        <time>2024-08-04T14:57:19.948Z</time>
      </trkpt>
      <trkpt lat="54.32643" lon="19.15894">
        <ele>29.185366</ele>
        <time>2024-08-04T14:57:22.970Z</time>
      </trkpt>
      <trkpt lat="54.32642" lon="19.15912">
        <ele>28.939437</ele>
        <time>2024-08-04T14:57:27.944Z</time>
      </trkpt>
      <trkpt lat="54.32645" lon="19.15932">
        <ele>28.655164</ele>
        <time>2024-08-04T14:57:31.959Z</time>
      </trkpt>
      <trkpt lat="54.32647" lon="19.15951">
        <ele>28.513698</ele>
        <time>2024-08-04T14:57:34.961Z</time>
      </trkpt>
      <trkpt lat="54.3265" lon="19.15975">
        <ele>28.497893</ele>
        <time>2024-08-04T14:57:37.945Z</time>
      </trkpt>
      <trkpt lat="54.32651" lon="19.15991">
        <ele>28.487125</ele>
        <time>2024-08-04T14:57:39.955Z</time>
      </trkpt>
      <trkpt lat="54.32651" lon="19.16007">
        <ele>28.476557</ele>
        <time>2024-08-04T14:57:41.953Z</time>
      </trkpt>
      <trkpt lat="54.32651" lon="19.16029">
        <ele>28.462272</ele>
        <time>2024-08-04T14:57:44.967Z</time>
      </trkpt>
      <trkpt lat="54.3265" lon="19.16051">
        <ele>28.447794</ele>
        <time>2024-08-04T14:57:47.956Z</time>
      </trkpt>
      <trkpt lat="54.32649" lon="19.16074">
        <ele>28.433045</ele>
        <time>2024-08-04T14:57:50.966Z</time>
      </trkpt>
      <trkpt lat="54.32648" lon="19.16095">
        <ele>28.419281</ele>
        <time>2024-08-04T14:57:53.951Z</time>
      </trkpt>
      <trkpt lat="54.32646" lon="19.16115">
        <ele>28.406219</ele>
        <time>2024-08-04T14:57:56.959Z</time>
      </trkpt>
      <trkpt lat="54.32645" lon="19.16133">
        <ele>28.3941</ele>
        <time>2024-08-04T14:57:59.945Z</time>
      </trkpt>
      <trkpt lat="54.32645" lon="19.16152">
        <ele>28.381999</ele>
        <time>2024-08-04T14:58:02.952Z</time>
      </trkpt>
      <trkpt lat="54.32646" lon="19.16171">
        <ele>28.369414</ele>
        <time>2024-08-04T14:58:05.958Z</time>
      </trkpt>
      <trkpt lat="54.3265" lon="19.1619">
        <ele>28.356505</ele>
        <time>2024-08-04T14:58:08.929Z</time>
      </trkpt>
      <trkpt lat="54.32649" lon="19.1621">
        <ele>28.343</ele>
        <time>2024-08-04T14:58:11.940Z</time>
      </trkpt>
      <trkpt lat="54.32648" lon="19.16232">
        <ele>28.32896</ele>
        <time>2024-08-04T14:58:14.954Z</time>
      </trkpt>
      <trkpt lat="54.32648" lon="19.16248">
        <ele>28.31852</ele>
        <time>2024-08-04T14:58:16.963Z</time>
      </trkpt>
      <trkpt lat="54.32648" lon="19.16271">
        <ele>28.324388</ele>
        <time>2024-08-04T14:58:19.946Z</time>
      </trkpt>
      <trkpt lat="54.32648" lon="19.16287">
        <ele>28.328578</ele>
        <time>2024-08-04T14:58:21.952Z</time>
      </trkpt>
      <trkpt lat="54.32648" lon="19.16303">
        <ele>28.332667</ele>
        <time>2024-08-04T14:58:23.948Z</time>
      </trkpt>
      <trkpt lat="54.32649" lon="19.1632">
        <ele>28.33702</ele>
        <time>2024-08-04T14:58:25.942Z</time>
      </trkpt>
      <trkpt lat="54.3265" lon="19.16337">
        <ele>28.341459</ele>
        <time>2024-08-04T14:58:27.949Z</time>
      </trkpt>
      <trkpt lat="54.32651" lon="19.16356">
        <ele>28.346338</ele>
        <time>2024-08-04T14:58:29.944Z</time>
      </trkpt>
      <trkpt lat="54.32652" lon="19.16375">
        <ele>28.351088</ele>
        <time>2024-08-04T14:58:31.957Z</time>
      </trkpt>
      <trkpt lat="54.32653" lon="19.16393">
        <ele>28.355802</ele>
        <time>2024-08-04T14:58:33.953Z</time>
      </trkpt>
      <trkpt lat="54.32655" lon="19.16411">
        <ele>28.360432</ele>
        <time>2024-08-04T14:58:35.939Z</time>
      </trkpt>
      <trkpt lat="54.32656" lon="19.16428">
        <ele>28.365018</ele>
        <time>2024-08-04T14:58:40.943Z</time>
      </trkpt>
      <trkpt lat="54.32658" lon="19.16444">
        <ele>28.369101</ele>
        <time>2024-08-04T14:58:46.941Z</time>
      </trkpt>
      <trkpt lat="54.32659" lon="19.16461">
        <ele>28.373494</ele>
        <time>2024-08-04T14:58:51.966Z</time>
      </trkpt>
      <trkpt lat="54.32659" lon="19.16477">
        <ele>28.377725</ele>
        <time>2024-08-04T14:58:56.953Z</time>
      </trkpt>
      <trkpt lat="54.32661" lon="19.16497">
        <ele>28.382719</ele>
        <time>2024-08-04T14:59:01.957Z</time>
      </trkpt>
      <trkpt lat="54.32661" lon="19.16516">
        <ele>28.387604</ele>
        <time>2024-08-04T14:59:05.954Z</time>
      </trkpt>
      <trkpt lat="54.3266" lon="19.16534">
        <ele>28.39247</ele>
        <time>2024-08-04T14:59:09.947Z</time>
      </trkpt>
      <trkpt lat="54.32659" lon="19.1655">
        <ele>28.396551</ele>
        <time>2024-08-04T14:59:14.962Z</time>
      </trkpt>
      <trkpt lat="54.32657" lon="19.16566">
        <ele>28.420709</ele>
        <time>2024-08-04T14:59:23.958Z</time>
      </trkpt>
      <trkpt lat="54.32655" lon="19.16583">
        <ele>28.453329</ele>
        <time>2024-08-04T14:59:35.938Z</time>
      </trkpt>
      <trkpt lat="54.3265" lon="19.16607">
        <ele>28.502103</ele>
        <time>2024-08-04T15:00:40.940Z</time>
      </trkpt>
      <trkpt lat="54.32647" lon="19.16622">
        <ele>28.532648</ele>
        <time>2024-08-04T15:00:43.936Z</time>
      </trkpt>
      <trkpt lat="54.32644" lon="19.16642">
        <ele>28.571502</ele>
        <time>2024-08-04T15:00:46.947Z</time>
      </trkpt>
      <trkpt lat="54.32643" lon="19.16658">
        <ele>28.601492</ele>
        <time>2024-08-04T15:00:48.945Z</time>
      </trkpt>
      <trkpt lat="54.3264" lon="19.1668">
        <ele>28.645318</ele>
        <time>2024-08-04T15:00:51.967Z</time>
      </trkpt>
      <trkpt lat="54.32638" lon="19.16703">
        <ele>28.689337</ele>
        <time>2024-08-04T15:00:54.953Z</time>
      </trkpt>
      <trkpt lat="54.32636" lon="19.16721">
        <ele>28.724078</ele>
        <time>2024-08-04T15:00:57.962Z</time>
      </trkpt>
      <trkpt lat="54.32634" lon="19.16738">
        <ele>28.756511</ele>
        <time>2024-08-04T15:01:01.950Z</time>
      </trkpt>
      <trkpt lat="54.32632" lon="19.16753">
        <ele>28.786867</ele>
        <time>2024-08-04T15:01:10.954Z</time>
      </trkpt>
      <trkpt lat="54.32632" lon="19.1677">
        <ele>28.8192</ele>
        <time>2024-08-04T15:01:19.936Z</time>
      </trkpt>
      <trkpt lat="54.32641" lon="19.16781">
        <ele>28.855307</ele>
        <time>2024-08-04T15:01:44.937Z</time>
      </trkpt>
      <trkpt lat="54.32651" lon="19.16783">
        <ele>28.89074</ele>
        <time>2024-08-04T15:01:48.947Z</time>
      </trkpt>
      <trkpt lat="54.32664" lon="19.16781">
        <ele>28.932137</ele>
        <time>2024-08-04T15:01:51.966Z</time>
      </trkpt>
      <trkpt lat="54.32673" lon="19.16781">
        <ele>28.962549</ele>
        <time>2024-08-04T15:01:53.943Z</time>
      </trkpt>
      <trkpt lat="54.32682" lon="19.16785">
        <ele>28.955751</ele>
        <time>2024-08-04T15:01:55.958Z</time>
      </trkpt>
      <trkpt lat="54.32692" lon="19.16789">
        <ele>28.834786</ele>
        <time>2024-08-04T15:01:57.945Z</time>
      </trkpt>
      <trkpt lat="54.32703" lon="19.16793">
        <ele>28.691126</ele>
        <time>2024-08-04T15:01:59.957Z</time>
      </trkpt>
      <trkpt lat="54.32716" lon="19.16796">
        <ele>28.530012</ele>
        <time>2024-08-04T15:02:01.961Z</time>
      </trkpt>
      <trkpt lat="54.3273" lon="19.16797">
        <ele>28.363356</ele>
        <time>2024-08-04T15:02:03.944Z</time>
      </trkpt>
      <trkpt lat="54.32743" lon="19.16797">
        <ele>28.203007</ele>
        <time>2024-08-04T15:02:05.945Z</time>
      </trkpt>
      <trkpt lat="54.32756" lon="19.16799">
        <ele>28.039748</ele>
        <time>2024-08-04T15:02:07.926Z</time>
      </trkpt>
      <trkpt lat="54.32769" lon="19.168">
        <ele>27.881747</ele>
        <time>2024-08-04T15:02:09.946Z</time>
      </trkpt>
      <trkpt lat="54.32781" lon="19.168">
        <ele>27.727519</ele>
        <time>2024-08-04T15:02:11.936Z</time>
      </trkpt>
      <trkpt lat="54.32793" lon="19.168">
        <ele>27.583216</ele>
        <time>2024-08-04T15:02:13.927Z</time>
      </trkpt>
      <trkpt lat="54.32804" lon="19.16799">
        <ele>27.441025</ele>
        <time>2024-08-04T15:02:15.941Z</time>
      </trkpt>
      <trkpt lat="54.32816" lon="19.16797">
        <ele>27.302524</ele>
        <time>2024-08-04T15:02:17.928Z</time>
      </trkpt>
      <trkpt lat="54.32826" lon="19.16796">
        <ele>27.168764</ele>
        <time>2024-08-04T15:02:19.951Z</time>
      </trkpt>
      <trkpt lat="54.32837" lon="19.16793">
        <ele>27.033035</ele>
        <time>2024-08-04T15:02:21.963Z</time>
      </trkpt>
      <trkpt lat="54.32848" lon="19.16788">
        <ele>26.894085</ele>
        <time>2024-08-04T15:02:23.943Z</time>
      </trkpt>
      <trkpt lat="54.32859" lon="19.1678">
        <ele>26.765696</ele>
        <time>2024-08-04T15:02:25.931Z</time>
      </trkpt>
      <trkpt lat="54.3287" lon="19.16771">
        <ele>26.750923</ele>
        <time>2024-08-04T15:02:27.951Z</time>
      </trkpt>
      <trkpt lat="54.32881" lon="19.16762">
        <ele>26.735888</ele>
        <time>2024-08-04T15:02:29.940Z</time>
      </trkpt>
      <trkpt lat="54.32892" lon="19.16752">
        <ele>26.720738</ele>
        <time>2024-08-04T15:02:31.935Z</time>
      </trkpt>
      <trkpt lat="54.32902" lon="19.16743">
        <ele>26.706531</ele>
        <time>2024-08-04T15:02:33.932Z</time>
      </trkpt>
      <trkpt lat="54.32912" lon="19.16734">
        <ele>26.692542</ele>
        <time>2024-08-04T15:02:35.939Z</time>
      </trkpt>
      <trkpt lat="54.32922" lon="19.16726">
        <ele>26.679165</ele>
        <time>2024-08-04T15:02:37.954Z</time>
      </trkpt>
      <trkpt lat="54.32932" lon="19.16722">
        <ele>26.666892</ele>
        <time>2024-08-04T15:02:39.933Z</time>
      </trkpt>
      <trkpt lat="54.32942" lon="19.1672">
        <ele>26.654751</ele>
        <time>2024-08-04T15:02:41.927Z</time>
      </trkpt>
      <trkpt lat="54.32952" lon="19.1672">
        <ele>26.641945</ele>
        <time>2024-08-04T15:02:43.945Z</time>
      </trkpt>
      <trkpt lat="54.32963" lon="19.16722">
        <ele>26.628819</ele>
        <time>2024-08-04T15:02:45.937Z</time>
      </trkpt>
      <trkpt lat="54.32972" lon="19.16728">
        <ele>26.616536</ele>
        <time>2024-08-04T15:02:47.937Z</time>
      </trkpt>
      <trkpt lat="54.32982" lon="19.16738">
        <ele>26.603335</ele>
        <time>2024-08-04T15:02:49.925Z</time>
      </trkpt>
      <trkpt lat="54.32991" lon="19.16747">
        <ele>26.590766</ele>
        <time>2024-08-04T15:02:51.949Z</time>
      </trkpt>
      <trkpt lat="54.32999" lon="19.16755">
        <ele>26.579613</ele>
        <time>2024-08-04T15:02:53.928Z</time>
      </trkpt>
      <trkpt lat="54.33006" lon="19.16763">
        <ele>26.568188</ele>
        <time>2024-08-04T15:02:56.934Z</time>
      </trkpt>
      <trkpt lat="54.33008" lon="19.16781">
        <ele>26.555227</ele>
        <time>2024-08-04T15:03:20.949Z</time>
      </trkpt>
      <trkpt lat="54.33006" lon="19.16801">
        <ele>26.572138</ele>
        <time>2024-08-04T15:03:24.951Z</time>
      </trkpt>
      <trkpt lat="54.33004" lon="19.16821">
        <ele>26.623375</ele>
        <time>2024-08-04T15:03:27.959Z</time>
      </trkpt>
      <trkpt lat="54.33003" lon="19.1684">
        <ele>26.67222</ele>
        <time>2024-08-04T15:03:30.945Z</time>
      </trkpt>
      <trkpt lat="54.33002" lon="19.16858">
        <ele>26.716655</ele>
        <time>2024-08-04T15:03:33.933Z</time>
      </trkpt>
      <trkpt lat="54.32999" lon="19.16878">
        <ele>26.769218</ele>
        <time>2024-08-04T15:03:36.932Z</time>
      </trkpt>
      <trkpt lat="54.32997" lon="19.169">
        <ele>26.825319</ele>
        <time>2024-08-04T15:03:39.956Z</time>
      </trkpt>
      <trkpt lat="54.32995" lon="19.16923">
        <ele>26.883963</ele>
        <time>2024-08-04T15:03:42.951Z</time>
      </trkpt>
      <trkpt lat="54.32993" lon="19.1694">
        <ele>26.927036</ele>
        <time>2024-08-04T15:03:44.946Z</time>
      </trkpt>
      <trkpt lat="54.3299" lon="19.16956">
        <ele>26.967946</ele>
        <time>2024-08-04T15:03:46.946Z</time>
      </trkpt>
      <trkpt lat="54.32989" lon="19.16972">
        <ele>27.009167</ele>
        <time>2024-08-04T15:03:48.934Z</time>
      </trkpt>
      <trkpt lat="54.32987" lon="19.16988">
        <ele>27.051048</ele>
        <time>2024-08-04T15:03:50.947Z</time>
      </trkpt>
      <trkpt lat="54.32985" lon="19.17005">
        <ele>27.094423</ele>
        <time>2024-08-04T15:03:52.939Z</time>
      </trkpt>
      <trkpt lat="54.32982" lon="19.17022">
        <ele>27.138138</ele>
        <time>2024-08-04T15:03:54.943Z</time>
      </trkpt>
      <trkpt lat="54.32981" lon="19.17039">
        <ele>27.181756</ele>
        <time>2024-08-04T15:03:56.937Z</time>
      </trkpt>
      <trkpt lat="54.32979" lon="19.17056">
        <ele>27.22612</ele>
        <time>2024-08-04T15:03:58.957Z</time>
      </trkpt>
      <trkpt lat="54.32977" lon="19.17074">
        <ele>27.272301</ele>
        <time>2024-08-04T15:04:00.939Z</time>
      </trkpt>
      <trkpt lat="54.32974" lon="19.17091">
        <ele>27.317382</ele>
        <time>2024-08-04T15:04:02.936Z</time>
      </trkpt>
      <trkpt lat="54.32971" lon="19.17109">
        <ele>27.295117</ele>
        <time>2024-08-04T15:04:04.948Z</time>
      </trkpt>
      <trkpt lat="54.32969" lon="19.17127">
        <ele>27.257723</ele>
        <time>2024-08-04T15:04:06.943Z</time>
      </trkpt>
      <trkpt lat="54.32968" lon="19.17145">
        <ele>27.219259</ele>
        <time>2024-08-04T15:04:08.937Z</time>
      </trkpt>
      <trkpt lat="54.32966" lon="19.17164">
        <ele>27.180582</ele>
        <time>2024-08-04T15:04:10.949Z</time>
      </trkpt>
      <trkpt lat="54.32964" lon="19.17182">
        <ele>27.142244</ele>
        <time>2024-08-04T15:04:12.946Z</time>
      </trkpt>
      <trkpt lat="54.32962" lon="19.172">
        <ele>27.104569</ele>
        <time>2024-08-04T15:04:14.932Z</time>
      </trkpt>
      <trkpt lat="54.3296" lon="19.17217">
        <ele>27.069244</ele>
        <time>2024-08-04T15:04:16.929Z</time>
      </trkpt>
      <trkpt lat="54.32959" lon="19.17234">
        <ele>27.033919</ele>
        <time>2024-08-04T15:04:18.953Z</time>
      </trkpt>
      <trkpt lat="54.32957" lon="19.17252">
        <ele>26.995851</ele>
        <time>2024-08-04T15:04:20.951Z</time>
      </trkpt>
      <trkpt lat="54.32955" lon="19.1727">
        <ele>26.956768</ele>
        <time>2024-08-04T15:04:22.936Z</time>
      </trkpt>
      <trkpt lat="54.32953" lon="19.17289">
        <ele>26.916787</ele>
        <time>2024-08-04T15:04:24.938Z</time>
      </trkpt>
      <trkpt lat="54.32951" lon="19.17308">
        <ele>26.87829</ele>
        <time>2024-08-04T15:04:26.940Z</time>
      </trkpt>
      <trkpt lat="54.3295" lon="19.17326">
        <ele>26.840926</ele>
        <time>2024-08-04T15:04:28.941Z</time>
      </trkpt>
      <trkpt lat="54.32949" lon="19.17343">
        <ele>26.804579</ele>
        <time>2024-08-04T15:04:30.952Z</time>
      </trkpt>
      <trkpt lat="54.32946" lon="19.1736">
        <ele>26.768114</ele>
        <time>2024-08-04T15:04:32.932Z</time>
      </trkpt>
      <trkpt lat="54.32944" lon="19.17377">
        <ele>26.732856</ele>
        <time>2024-08-04T15:04:34.933Z</time>
      </trkpt>
      <trkpt lat="54.32941" lon="19.17394">
        <ele>26.696846</ele>
        <time>2024-08-04T15:04:36.940Z</time>
      </trkpt>
      <trkpt lat="54.32939" lon="19.17409">
        <ele>26.688951</ele>
        <time>2024-08-04T15:04:38.935Z</time>
      </trkpt>
      <trkpt lat="54.32935" lon="19.17431">
        <ele>26.688951</ele>
        <time>2024-08-04T15:04:41.934Z</time>
      </trkpt>
      <trkpt lat="54.3293" lon="19.17452">
        <ele>26.688951</ele>
        <time>2024-08-04T15:04:44.950Z</time>
      </trkpt>
      <trkpt lat="54.32924" lon="19.17473">
        <ele>26.688951</ele>
        <time>2024-08-04T15:04:47.977Z</time>
      </trkpt>
      <trkpt lat="54.32919" lon="19.17487">
        <ele>26.688951</ele>
        <time>2024-08-04T15:04:49.935Z</time>
      </trkpt>
      <trkpt lat="54.32915" lon="19.17501">
        <ele>26.688951</ele>
        <time>2024-08-04T15:04:51.951Z</time>
      </trkpt>
      <trkpt lat="54.32911" lon="19.17516">
        <ele>26.688951</ele>
        <time>2024-08-04T15:04:53.936Z</time>
      </trkpt>
      <trkpt lat="54.32905" lon="19.17529">
        <ele>26.688951</ele>
        <time>2024-08-04T15:04:55.931Z</time>
      </trkpt>
      <trkpt lat="54.329" lon="19.17546">
        <ele>26.688951</ele>
        <time>2024-08-04T15:04:58.946Z</time>
      </trkpt>
      <trkpt lat="54.32904" lon="19.1756">
        <ele>26.688951</ele>
        <time>2024-08-04T15:05:05.945Z</time>
      </trkpt>
      <trkpt lat="54.32904" lon="19.1756">
        <ele>26.688951</ele>
        <time>2024-08-04T15:05:08.009Z</time>
      </trkpt>
    </trkseg>
  </trk>
</gpx>